<?xml version="1.0" encoding="UTF-8"?>
<gpx version="1.1" creator="https://www.youtrack.es" xsi:schemaLocation="http://www.topografix.com/GPX/1/1 http://www.topografix.com/GPX/1/1/gpx.xsd http://www.garmin.com/xmlschemas/GpxExtensions/v3 http://www.garmin.com/xmlschemas/GpxExtensionsv3.xsd http://www.garmin.com/xmlschemas/TrackPointExtension/v1 http://www.garmin.com/xmlschemas/TrackPointExtensionv1.xsd" xmlns:gpxtpx="http://www.garmin.com/xmlschemas/TrackPointExtension/v1" xmlns:gpxx="http://www.garmin.com/xmlschemas/GpxExtensions/v3" xmlns:xsi="http://www.w3.org/2001/XMLSchema-instance">
  <metadata>
    <link href="https://www.youtrack.es">
      <text>YouTrack.es</text>
    </link>
    <time>2026-05-08T22:42:00Z</time>
  </metadata>
  <trk>
    <src>https://www.youtrack.es</src>
    <link href="https://www.youtrack.es/ruta/15134-camino-real-de-guadalupe--1a-etapa-valmojado-calera-y-chozas">
      <text>YouTrack.es</text>
    </link>
    <trkseg>
      <trkpt lat="40.20531" lon="-4.08959">
        <ele>658.8</ele>
        <time>2020-08-16 07:08:06</time>
      </trkpt>
      <trkpt lat="40.20532" lon="-4.08963">
        <ele>658.8</ele>
        <time>2020-08-16 07:08:07</time>
      </trkpt>
      <trkpt lat="40.20533" lon="-4.08966">
        <ele>659</ele>
        <time>2020-08-16 07:08:08</time>
      </trkpt>
      <trkpt lat="40.20532" lon="-4.0897">
        <ele>659.2</ele>
        <time>2020-08-16 07:08:09</time>
      </trkpt>
      <trkpt lat="40.20533" lon="-4.08973">
        <ele>659.2</ele>
        <time>2020-08-16 07:08:10</time>
      </trkpt>
      <trkpt lat="40.20534" lon="-4.08977">
        <ele>659.6</ele>
        <time>2020-08-16 07:08:11</time>
      </trkpt>
      <trkpt lat="40.20536" lon="-4.08981">
        <ele>659.6</ele>
        <time>2020-08-16 07:08:12</time>
      </trkpt>
      <trkpt lat="40.20537" lon="-4.08985">
        <ele>659.8</ele>
        <time>2020-08-16 07:08:13</time>
      </trkpt>
      <trkpt lat="40.20538" lon="-4.0899">
        <ele>660</ele>
        <time>2020-08-16 07:08:14</time>
      </trkpt>
      <trkpt lat="40.20539" lon="-4.08993">
        <ele>660</ele>
        <time>2020-08-16 07:08:15</time>
      </trkpt>
      <trkpt lat="40.2054" lon="-4.08996">
        <ele>660.2</ele>
        <time>2020-08-16 07:08:16</time>
      </trkpt>
      <trkpt lat="40.20541" lon="-4.08999">
        <ele>660.2</ele>
        <time>2020-08-16 07:08:17</time>
      </trkpt>
      <trkpt lat="40.20542" lon="-4.09003">
        <ele>660.4</ele>
        <time>2020-08-16 07:08:18</time>
      </trkpt>
      <trkpt lat="40.20543" lon="-4.09007">
        <ele>660.4</ele>
        <time>2020-08-16 07:08:19</time>
      </trkpt>
      <trkpt lat="40.20544" lon="-4.0901">
        <ele>660.6</ele>
        <time>2020-08-16 07:08:20</time>
      </trkpt>
      <trkpt lat="40.20545" lon="-4.09012">
        <ele>660.6</ele>
        <time>2020-08-16 07:08:21</time>
      </trkpt>
      <trkpt lat="40.20546" lon="-4.09015">
        <ele>660.8</ele>
        <time>2020-08-16 07:08:22</time>
      </trkpt>
      <trkpt lat="40.20546" lon="-4.09017">
        <ele>660.8</ele>
        <time>2020-08-16 07:08:23</time>
      </trkpt>
      <trkpt lat="40.20546" lon="-4.09019">
        <ele>661</ele>
        <time>2020-08-16 07:08:24</time>
      </trkpt>
      <trkpt lat="40.20546" lon="-4.09021">
        <ele>661.2</ele>
        <time>2020-08-16 07:08:25</time>
      </trkpt>
      <trkpt lat="40.20546" lon="-4.09023">
        <ele>661.2</ele>
        <time>2020-08-16 07:08:26</time>
      </trkpt>
      <trkpt lat="40.20547" lon="-4.09026">
        <ele>661.4</ele>
        <time>2020-08-16 07:08:27</time>
      </trkpt>
      <trkpt lat="40.20547" lon="-4.09029">
        <ele>661.4</ele>
        <time>2020-08-16 07:08:28</time>
      </trkpt>
      <trkpt lat="40.20547" lon="-4.09031">
        <ele>661.6</ele>
        <time>2020-08-16 07:08:29</time>
      </trkpt>
      <trkpt lat="40.20547" lon="-4.09034">
        <ele>661.8</ele>
        <time>2020-08-16 07:08:30</time>
      </trkpt>
      <trkpt lat="40.20547" lon="-4.09036">
        <ele>661.8</ele>
        <time>2020-08-16 07:08:31</time>
      </trkpt>
      <trkpt lat="40.20548" lon="-4.09039">
        <ele>662.2</ele>
        <time>2020-08-16 07:08:32</time>
      </trkpt>
      <trkpt lat="40.20549" lon="-4.09041">
        <ele>662.2</ele>
        <time>2020-08-16 07:08:33</time>
      </trkpt>
      <trkpt lat="40.20549" lon="-4.09044">
        <ele>662.4</ele>
        <time>2020-08-16 07:08:34</time>
      </trkpt>
      <trkpt lat="40.20549" lon="-4.09046">
        <ele>662.4</ele>
        <time>2020-08-16 07:08:35</time>
      </trkpt>
      <trkpt lat="40.20548" lon="-4.09048">
        <ele>662.4</ele>
        <time>2020-08-16 07:08:36</time>
      </trkpt>
      <trkpt lat="40.20546" lon="-4.0905">
        <ele>662.6</ele>
        <time>2020-08-16 07:08:37</time>
      </trkpt>
      <trkpt lat="40.20545" lon="-4.09052">
        <ele>662.6</ele>
        <time>2020-08-16 07:08:38</time>
      </trkpt>
      <trkpt lat="40.20543" lon="-4.09054">
        <ele>662.6</ele>
        <time>2020-08-16 07:08:39</time>
      </trkpt>
      <trkpt lat="40.20541" lon="-4.09056">
        <ele>662.6</ele>
        <time>2020-08-16 07:08:40</time>
      </trkpt>
      <trkpt lat="40.20539" lon="-4.09059">
        <ele>662.8</ele>
        <time>2020-08-16 07:08:41</time>
      </trkpt>
      <trkpt lat="40.20537" lon="-4.09062">
        <ele>662.8</ele>
        <time>2020-08-16 07:08:42</time>
      </trkpt>
      <trkpt lat="40.20535" lon="-4.09064">
        <ele>662.8</ele>
        <time>2020-08-16 07:08:43</time>
      </trkpt>
      <trkpt lat="40.20531" lon="-4.09067">
        <ele>662.8</ele>
        <time>2020-08-16 07:08:44</time>
      </trkpt>
      <trkpt lat="40.20523" lon="-4.09076">
        <ele>662.8</ele>
        <time>2020-08-16 07:08:47</time>
      </trkpt>
      <trkpt lat="40.2052" lon="-4.0908">
        <ele>662.8</ele>
        <time>2020-08-16 07:08:48</time>
      </trkpt>
      <trkpt lat="40.20513" lon="-4.09088">
        <ele>662.6</ele>
        <time>2020-08-16 07:08:50</time>
      </trkpt>
      <trkpt lat="40.2051" lon="-4.09091">
        <ele>662.6</ele>
        <time>2020-08-16 07:08:51</time>
      </trkpt>
      <trkpt lat="40.20507" lon="-4.09094">
        <ele>662.4</ele>
        <time>2020-08-16 07:08:52</time>
      </trkpt>
      <trkpt lat="40.20504" lon="-4.09095">
        <ele>662</ele>
        <time>2020-08-16 07:08:53</time>
      </trkpt>
      <trkpt lat="40.20499" lon="-4.09095">
        <ele>662</ele>
        <time>2020-08-16 07:08:54</time>
      </trkpt>
      <trkpt lat="40.20492" lon="-4.09094">
        <ele>661.6</ele>
        <time>2020-08-16 07:08:55</time>
      </trkpt>
      <trkpt lat="40.20485" lon="-4.09093">
        <ele>661.6</ele>
        <time>2020-08-16 07:08:56</time>
      </trkpt>
      <trkpt lat="40.2048" lon="-4.0909">
        <ele>661.4</ele>
        <time>2020-08-16 07:08:57</time>
      </trkpt>
      <trkpt lat="40.20475" lon="-4.09089">
        <ele>661</ele>
        <time>2020-08-16 07:08:58</time>
      </trkpt>
      <trkpt lat="40.20471" lon="-4.09087">
        <ele>660.8</ele>
        <time>2020-08-16 07:08:59</time>
      </trkpt>
      <trkpt lat="40.20466" lon="-4.09085">
        <ele>660.2</ele>
        <time>2020-08-16 07:09:00</time>
      </trkpt>
      <trkpt lat="40.20463" lon="-4.09084">
        <ele>660</ele>
        <time>2020-08-16 07:09:01</time>
      </trkpt>
      <trkpt lat="40.20459" lon="-4.09082">
        <ele>659.4</ele>
        <time>2020-08-16 07:09:02</time>
      </trkpt>
      <trkpt lat="40.20456" lon="-4.09082">
        <ele>659.2</ele>
        <time>2020-08-16 07:09:03</time>
      </trkpt>
      <trkpt lat="40.20453" lon="-4.09082">
        <ele>658.8</ele>
        <time>2020-08-16 07:09:04</time>
      </trkpt>
      <trkpt lat="40.20451" lon="-4.09081">
        <ele>658.6</ele>
        <time>2020-08-16 07:09:05</time>
      </trkpt>
      <trkpt lat="40.20449" lon="-4.09081">
        <ele>658.2</ele>
        <time>2020-08-16 07:09:06</time>
      </trkpt>
      <trkpt lat="40.20448" lon="-4.09081">
        <ele>657.8</ele>
        <time>2020-08-16 07:09:07</time>
      </trkpt>
      <trkpt lat="40.20448" lon="-4.0908">
        <ele>657.6</ele>
        <time>2020-08-16 07:09:08</time>
      </trkpt>
      <trkpt lat="40.20447" lon="-4.0908">
        <ele>657.4</ele>
        <time>2020-08-16 07:09:09</time>
      </trkpt>
      <trkpt lat="40.20447" lon="-4.0908">
        <ele>657.2</ele>
        <time>2020-08-16 07:09:11</time>
      </trkpt>
      <trkpt lat="40.20443" lon="-4.09064">
        <ele>656.6</ele>
        <time>2020-08-16 07:15:03</time>
      </trkpt>
      <trkpt lat="40.20443" lon="-4.09064">
        <ele>656.6</ele>
        <time>2020-08-16 07:15:04</time>
      </trkpt>
      <trkpt lat="40.20442" lon="-4.09061">
        <ele>656.6</ele>
        <time>2020-08-16 07:15:05</time>
      </trkpt>
      <trkpt lat="40.2044" lon="-4.09059">
        <ele>656.6</ele>
        <time>2020-08-16 07:15:06</time>
      </trkpt>
      <trkpt lat="40.20438" lon="-4.09057">
        <ele>656.6</ele>
        <time>2020-08-16 07:15:07</time>
      </trkpt>
      <trkpt lat="40.20433" lon="-4.09052">
        <ele>656.6</ele>
        <time>2020-08-16 07:15:10</time>
      </trkpt>
      <trkpt lat="40.20432" lon="-4.09051">
        <ele>656.6</ele>
        <time>2020-08-16 07:15:11</time>
      </trkpt>
      <trkpt lat="40.20427" lon="-4.09046">
        <ele>656.6</ele>
        <time>2020-08-16 07:15:14</time>
      </trkpt>
      <trkpt lat="40.20427" lon="-4.09046">
        <ele>656.4</ele>
        <time>2020-08-16 07:15:15</time>
      </trkpt>
      <trkpt lat="40.20423" lon="-4.09044">
        <ele>656.4</ele>
        <time>2020-08-16 07:15:16</time>
      </trkpt>
      <trkpt lat="40.20422" lon="-4.09043">
        <ele>656.4</ele>
        <time>2020-08-16 07:15:17</time>
      </trkpt>
      <trkpt lat="40.20422" lon="-4.09042">
        <ele>656.4</ele>
        <time>2020-08-16 07:15:18</time>
      </trkpt>
      <trkpt lat="40.20421" lon="-4.0904">
        <ele>656.4</ele>
        <time>2020-08-16 07:15:19</time>
      </trkpt>
      <trkpt lat="40.20422" lon="-4.09038">
        <ele>656.2</ele>
        <time>2020-08-16 07:15:20</time>
      </trkpt>
      <trkpt lat="40.20421" lon="-4.09035">
        <ele>656.2</ele>
        <time>2020-08-16 07:15:21</time>
      </trkpt>
      <trkpt lat="40.2042" lon="-4.09031">
        <ele>656.2</ele>
        <time>2020-08-16 07:15:22</time>
      </trkpt>
      <trkpt lat="40.20419" lon="-4.09027">
        <ele>656.2</ele>
        <time>2020-08-16 07:15:23</time>
      </trkpt>
      <trkpt lat="40.20416" lon="-4.09019">
        <ele>656</ele>
        <time>2020-08-16 07:15:25</time>
      </trkpt>
      <trkpt lat="40.20415" lon="-4.09015">
        <ele>655.8</ele>
        <time>2020-08-16 07:15:26</time>
      </trkpt>
      <trkpt lat="40.20413" lon="-4.09009">
        <ele>655.6</ele>
        <time>2020-08-16 07:15:27</time>
      </trkpt>
      <trkpt lat="40.20413" lon="-4.09009">
        <ele>655.4</ele>
        <time>2020-08-16 07:15:28</time>
      </trkpt>
      <trkpt lat="40.20408" lon="-4.08985">
        <ele>654.6</ele>
        <time>2020-08-16 07:15:31</time>
      </trkpt>
      <trkpt lat="40.20407" lon="-4.08978">
        <ele>654.6</ele>
        <time>2020-08-16 07:15:32</time>
      </trkpt>
      <trkpt lat="40.20406" lon="-4.08972">
        <ele>654.2</ele>
        <time>2020-08-16 07:15:33</time>
      </trkpt>
      <trkpt lat="40.20406" lon="-4.08966">
        <ele>653.8</ele>
        <time>2020-08-16 07:15:34</time>
      </trkpt>
      <trkpt lat="40.20405" lon="-4.08961">
        <ele>653.4</ele>
        <time>2020-08-16 07:15:35</time>
      </trkpt>
      <trkpt lat="40.20402" lon="-4.08958">
        <ele>652.8</ele>
        <time>2020-08-16 07:15:36</time>
      </trkpt>
      <trkpt lat="40.20399" lon="-4.08954">
        <ele>652.6</ele>
        <time>2020-08-16 07:15:37</time>
      </trkpt>
      <trkpt lat="40.20397" lon="-4.08952">
        <ele>652.2</ele>
        <time>2020-08-16 07:15:38</time>
      </trkpt>
      <trkpt lat="40.20395" lon="-4.08949">
        <ele>652.2</ele>
        <time>2020-08-16 07:15:39</time>
      </trkpt>
      <trkpt lat="40.20391" lon="-4.08946">
        <ele>652</ele>
        <time>2020-08-16 07:15:40</time>
      </trkpt>
      <trkpt lat="40.20388" lon="-4.08945">
        <ele>651.6</ele>
        <time>2020-08-16 07:15:41</time>
      </trkpt>
      <trkpt lat="40.20385" lon="-4.08942">
        <ele>651.4</ele>
        <time>2020-08-16 07:15:42</time>
      </trkpt>
      <trkpt lat="40.20385" lon="-4.08942">
        <ele>651.2</ele>
        <time>2020-08-16 07:15:43</time>
      </trkpt>
      <trkpt lat="40.20374" lon="-4.08932">
        <ele>651</ele>
        <time>2020-08-16 07:15:45</time>
      </trkpt>
      <trkpt lat="40.20371" lon="-4.08929">
        <ele>650.8</ele>
        <time>2020-08-16 07:15:46</time>
      </trkpt>
      <trkpt lat="40.20367" lon="-4.08926">
        <ele>650.6</ele>
        <time>2020-08-16 07:15:47</time>
      </trkpt>
      <trkpt lat="40.20364" lon="-4.08924">
        <ele>650.6</ele>
        <time>2020-08-16 07:15:48</time>
      </trkpt>
      <trkpt lat="40.20359" lon="-4.08923">
        <ele>650.4</ele>
        <time>2020-08-16 07:15:49</time>
      </trkpt>
      <trkpt lat="40.20355" lon="-4.08922">
        <ele>650.2</ele>
        <time>2020-08-16 07:15:50</time>
      </trkpt>
      <trkpt lat="40.20351" lon="-4.08922">
        <ele>650.2</ele>
        <time>2020-08-16 07:15:51</time>
      </trkpt>
      <trkpt lat="40.20346" lon="-4.08922">
        <ele>650</ele>
        <time>2020-08-16 07:15:52</time>
      </trkpt>
      <trkpt lat="40.20336" lon="-4.08922">
        <ele>650</ele>
        <time>2020-08-16 07:15:54</time>
      </trkpt>
      <trkpt lat="40.20331" lon="-4.08922">
        <ele>650</ele>
        <time>2020-08-16 07:15:55</time>
      </trkpt>
      <trkpt lat="40.20325" lon="-4.08922">
        <ele>649.8</ele>
        <time>2020-08-16 07:15:56</time>
      </trkpt>
      <trkpt lat="40.2032" lon="-4.08922">
        <ele>649.6</ele>
        <time>2020-08-16 07:15:57</time>
      </trkpt>
      <trkpt lat="40.20315" lon="-4.08922">
        <ele>649.6</ele>
        <time>2020-08-16 07:15:58</time>
      </trkpt>
      <trkpt lat="40.20299" lon="-4.08924">
        <ele>649.2</ele>
        <time>2020-08-16 07:16:01</time>
      </trkpt>
      <trkpt lat="40.20294" lon="-4.08924">
        <ele>649</ele>
        <time>2020-08-16 07:16:02</time>
      </trkpt>
      <trkpt lat="40.2026" lon="-4.08928">
        <ele>648</ele>
        <time>2020-08-16 07:16:08</time>
      </trkpt>
      <trkpt lat="40.20253" lon="-4.08928">
        <ele>647.8</ele>
        <time>2020-08-16 07:16:09</time>
      </trkpt>
      <trkpt lat="40.20242" lon="-4.0893">
        <ele>647.4</ele>
        <time>2020-08-16 07:16:11</time>
      </trkpt>
      <trkpt lat="40.20236" lon="-4.08931">
        <ele>646.8</ele>
        <time>2020-08-16 07:16:12</time>
      </trkpt>
      <trkpt lat="40.20218" lon="-4.08937">
        <ele>646</ele>
        <time>2020-08-16 07:16:15</time>
      </trkpt>
      <trkpt lat="40.20218" lon="-4.08937">
        <ele>645.8</ele>
        <time>2020-08-16 07:16:16</time>
      </trkpt>
      <trkpt lat="40.20205" lon="-4.08941">
        <ele>645.4</ele>
        <time>2020-08-16 07:16:17</time>
      </trkpt>
      <trkpt lat="40.20187" lon="-4.08948">
        <ele>644.4</ele>
        <time>2020-08-16 07:16:20</time>
      </trkpt>
      <trkpt lat="40.20176" lon="-4.08951">
        <ele>643.8</ele>
        <time>2020-08-16 07:16:22</time>
      </trkpt>
      <trkpt lat="40.20172" lon="-4.08954">
        <ele>643.4</ele>
        <time>2020-08-16 07:16:23</time>
      </trkpt>
      <trkpt lat="40.20166" lon="-4.08957">
        <ele>643.2</ele>
        <time>2020-08-16 07:16:24</time>
      </trkpt>
      <trkpt lat="40.20162" lon="-4.08959">
        <ele>643.2</ele>
        <time>2020-08-16 07:16:25</time>
      </trkpt>
      <trkpt lat="40.20157" lon="-4.08961">
        <ele>643</ele>
        <time>2020-08-16 07:16:26</time>
      </trkpt>
      <trkpt lat="40.20153" lon="-4.08962">
        <ele>642.8</ele>
        <time>2020-08-16 07:16:27</time>
      </trkpt>
      <trkpt lat="40.20148" lon="-4.08962">
        <ele>642.6</ele>
        <time>2020-08-16 07:16:28</time>
      </trkpt>
      <trkpt lat="40.20142" lon="-4.08961">
        <ele>642.4</ele>
        <time>2020-08-16 07:16:29</time>
      </trkpt>
      <trkpt lat="40.20133" lon="-4.08958">
        <ele>642.2</ele>
        <time>2020-08-16 07:16:31</time>
      </trkpt>
      <trkpt lat="40.20129" lon="-4.08956">
        <ele>642.2</ele>
        <time>2020-08-16 07:16:32</time>
      </trkpt>
      <trkpt lat="40.20126" lon="-4.08953">
        <ele>642.2</ele>
        <time>2020-08-16 07:16:33</time>
      </trkpt>
      <trkpt lat="40.20122" lon="-4.08951">
        <ele>642</ele>
        <time>2020-08-16 07:16:34</time>
      </trkpt>
      <trkpt lat="40.20119" lon="-4.08948">
        <ele>641.8</ele>
        <time>2020-08-16 07:16:35</time>
      </trkpt>
      <trkpt lat="40.20115" lon="-4.08945">
        <ele>641.8</ele>
        <time>2020-08-16 07:16:36</time>
      </trkpt>
      <trkpt lat="40.20112" lon="-4.08941">
        <ele>641.8</ele>
        <time>2020-08-16 07:16:37</time>
      </trkpt>
      <trkpt lat="40.20108" lon="-4.08938">
        <ele>641.6</ele>
        <time>2020-08-16 07:16:38</time>
      </trkpt>
      <trkpt lat="40.20101" lon="-4.08933">
        <ele>641.6</ele>
        <time>2020-08-16 07:16:40</time>
      </trkpt>
      <trkpt lat="40.20097" lon="-4.08931">
        <ele>641.6</ele>
        <time>2020-08-16 07:16:41</time>
      </trkpt>
      <trkpt lat="40.20093" lon="-4.0893">
        <ele>641.6</ele>
        <time>2020-08-16 07:16:42</time>
      </trkpt>
      <trkpt lat="40.20088" lon="-4.08928">
        <ele>641.4</ele>
        <time>2020-08-16 07:16:43</time>
      </trkpt>
      <trkpt lat="40.20078" lon="-4.08926">
        <ele>640.8</ele>
        <time>2020-08-16 07:16:45</time>
      </trkpt>
      <trkpt lat="40.20061" lon="-4.08922">
        <ele>640.2</ele>
        <time>2020-08-16 07:16:48</time>
      </trkpt>
      <trkpt lat="40.20049" lon="-4.08919">
        <ele>639.6</ele>
        <time>2020-08-16 07:16:50</time>
      </trkpt>
      <trkpt lat="40.20031" lon="-4.08915">
        <ele>638.8</ele>
        <time>2020-08-16 07:16:53</time>
      </trkpt>
      <trkpt lat="40.20025" lon="-4.08913">
        <ele>638.4</ele>
        <time>2020-08-16 07:16:54</time>
      </trkpt>
      <trkpt lat="40.20013" lon="-4.08908">
        <ele>638.2</ele>
        <time>2020-08-16 07:16:56</time>
      </trkpt>
      <trkpt lat="40.1999" lon="-4.08899">
        <ele>637.6</ele>
        <time>2020-08-16 07:17:00</time>
      </trkpt>
      <trkpt lat="40.19985" lon="-4.08897">
        <ele>637.4</ele>
        <time>2020-08-16 07:17:01</time>
      </trkpt>
      <trkpt lat="40.1998" lon="-4.08895">
        <ele>637</ele>
        <time>2020-08-16 07:17:02</time>
      </trkpt>
      <trkpt lat="40.19974" lon="-4.08893">
        <ele>636.6</ele>
        <time>2020-08-16 07:17:03</time>
      </trkpt>
      <trkpt lat="40.19968" lon="-4.08892">
        <ele>636.4</ele>
        <time>2020-08-16 07:17:04</time>
      </trkpt>
      <trkpt lat="40.19962" lon="-4.08892">
        <ele>636.2</ele>
        <time>2020-08-16 07:17:05</time>
      </trkpt>
      <trkpt lat="40.19957" lon="-4.08893">
        <ele>636</ele>
        <time>2020-08-16 07:17:06</time>
      </trkpt>
      <trkpt lat="40.19951" lon="-4.08894">
        <ele>636</ele>
        <time>2020-08-16 07:17:07</time>
      </trkpt>
      <trkpt lat="40.19945" lon="-4.08895">
        <ele>635.8</ele>
        <time>2020-08-16 07:17:08</time>
      </trkpt>
      <trkpt lat="40.1994" lon="-4.08897">
        <ele>635.8</ele>
        <time>2020-08-16 07:17:09</time>
      </trkpt>
      <trkpt lat="40.19934" lon="-4.08899">
        <ele>635.8</ele>
        <time>2020-08-16 07:17:10</time>
      </trkpt>
      <trkpt lat="40.19929" lon="-4.08902">
        <ele>635.8</ele>
        <time>2020-08-16 07:17:11</time>
      </trkpt>
      <trkpt lat="40.19924" lon="-4.08904">
        <ele>635.6</ele>
        <time>2020-08-16 07:17:12</time>
      </trkpt>
      <trkpt lat="40.19918" lon="-4.08906">
        <ele>635.4</ele>
        <time>2020-08-16 07:17:13</time>
      </trkpt>
      <trkpt lat="40.19913" lon="-4.08909">
        <ele>635.4</ele>
        <time>2020-08-16 07:17:14</time>
      </trkpt>
      <trkpt lat="40.19908" lon="-4.08912">
        <ele>635.2</ele>
        <time>2020-08-16 07:17:15</time>
      </trkpt>
      <trkpt lat="40.19903" lon="-4.08915">
        <ele>635.2</ele>
        <time>2020-08-16 07:17:16</time>
      </trkpt>
      <trkpt lat="40.19897" lon="-4.08919">
        <ele>635</ele>
        <time>2020-08-16 07:17:17</time>
      </trkpt>
      <trkpt lat="40.19887" lon="-4.08926">
        <ele>634.6</ele>
        <time>2020-08-16 07:17:19</time>
      </trkpt>
      <trkpt lat="40.19882" lon="-4.0893">
        <ele>634.4</ele>
        <time>2020-08-16 07:17:20</time>
      </trkpt>
      <trkpt lat="40.19856" lon="-4.08949">
        <ele>633.4</ele>
        <time>2020-08-16 07:17:25</time>
      </trkpt>
      <trkpt lat="40.1985" lon="-4.08951">
        <ele>633.2</ele>
        <time>2020-08-16 07:17:26</time>
      </trkpt>
      <trkpt lat="40.19844" lon="-4.08954">
        <ele>633.2</ele>
        <time>2020-08-16 07:17:27</time>
      </trkpt>
      <trkpt lat="40.19828" lon="-4.0896">
        <ele>632.8</ele>
        <time>2020-08-16 07:17:30</time>
      </trkpt>
      <trkpt lat="40.19828" lon="-4.0896">
        <ele>632.4</ele>
        <time>2020-08-16 07:17:31</time>
      </trkpt>
      <trkpt lat="40.19817" lon="-4.08964">
        <ele>632.4</ele>
        <time>2020-08-16 07:17:32</time>
      </trkpt>
      <trkpt lat="40.19811" lon="-4.08965">
        <ele>632.4</ele>
        <time>2020-08-16 07:17:33</time>
      </trkpt>
      <trkpt lat="40.19806" lon="-4.08967">
        <ele>632.2</ele>
        <time>2020-08-16 07:17:34</time>
      </trkpt>
      <trkpt lat="40.198" lon="-4.08969">
        <ele>632</ele>
        <time>2020-08-16 07:17:35</time>
      </trkpt>
      <trkpt lat="40.19795" lon="-4.08971">
        <ele>631.8</ele>
        <time>2020-08-16 07:17:36</time>
      </trkpt>
      <trkpt lat="40.19789" lon="-4.08973">
        <ele>631.6</ele>
        <time>2020-08-16 07:17:37</time>
      </trkpt>
      <trkpt lat="40.19783" lon="-4.08975">
        <ele>631.4</ele>
        <time>2020-08-16 07:17:38</time>
      </trkpt>
      <trkpt lat="40.1976" lon="-4.08983">
        <ele>631</ele>
        <time>2020-08-16 07:17:42</time>
      </trkpt>
      <trkpt lat="40.19732" lon="-4.08992">
        <ele>630.4</ele>
        <time>2020-08-16 07:17:47</time>
      </trkpt>
      <trkpt lat="40.19704" lon="-4.09006">
        <ele>629.8</ele>
        <time>2020-08-16 07:17:52</time>
      </trkpt>
      <trkpt lat="40.19699" lon="-4.0901">
        <ele>629.8</ele>
        <time>2020-08-16 07:17:53</time>
      </trkpt>
      <trkpt lat="40.19694" lon="-4.09013">
        <ele>629.6</ele>
        <time>2020-08-16 07:17:54</time>
      </trkpt>
      <trkpt lat="40.19689" lon="-4.09017">
        <ele>629.6</ele>
        <time>2020-08-16 07:17:55</time>
      </trkpt>
      <trkpt lat="40.19685" lon="-4.09021">
        <ele>629.6</ele>
        <time>2020-08-16 07:17:56</time>
      </trkpt>
      <trkpt lat="40.1968" lon="-4.09026">
        <ele>629.6</ele>
        <time>2020-08-16 07:17:57</time>
      </trkpt>
      <trkpt lat="40.19676" lon="-4.0903">
        <ele>629.8</ele>
        <time>2020-08-16 07:17:58</time>
      </trkpt>
      <trkpt lat="40.19671" lon="-4.09035">
        <ele>629.6</ele>
        <time>2020-08-16 07:17:59</time>
      </trkpt>
      <trkpt lat="40.19666" lon="-4.09039">
        <ele>629.6</ele>
        <time>2020-08-16 07:18:00</time>
      </trkpt>
      <trkpt lat="40.19662" lon="-4.09043">
        <ele>629.6</ele>
        <time>2020-08-16 07:18:01</time>
      </trkpt>
      <trkpt lat="40.19658" lon="-4.09046">
        <ele>629.4</ele>
        <time>2020-08-16 07:18:02</time>
      </trkpt>
      <trkpt lat="40.19653" lon="-4.0905">
        <ele>629.2</ele>
        <time>2020-08-16 07:18:03</time>
      </trkpt>
      <trkpt lat="40.19648" lon="-4.09053">
        <ele>629.2</ele>
        <time>2020-08-16 07:18:04</time>
      </trkpt>
      <trkpt lat="40.19643" lon="-4.09057">
        <ele>629</ele>
        <time>2020-08-16 07:18:05</time>
      </trkpt>
      <trkpt lat="40.19638" lon="-4.0906">
        <ele>628.8</ele>
        <time>2020-08-16 07:18:06</time>
      </trkpt>
      <trkpt lat="40.19638" lon="-4.0906">
        <ele>628.6</ele>
        <time>2020-08-16 07:18:07</time>
      </trkpt>
      <trkpt lat="40.19629" lon="-4.09066">
        <ele>628.2</ele>
        <time>2020-08-16 07:18:08</time>
      </trkpt>
      <trkpt lat="40.19624" lon="-4.09069">
        <ele>628.2</ele>
        <time>2020-08-16 07:18:09</time>
      </trkpt>
      <trkpt lat="40.19618" lon="-4.09072">
        <ele>628</ele>
        <time>2020-08-16 07:18:10</time>
      </trkpt>
      <trkpt lat="40.19613" lon="-4.09075">
        <ele>627.8</ele>
        <time>2020-08-16 07:18:11</time>
      </trkpt>
      <trkpt lat="40.19609" lon="-4.09077">
        <ele>627.6</ele>
        <time>2020-08-16 07:18:12</time>
      </trkpt>
      <trkpt lat="40.19604" lon="-4.0908">
        <ele>627.4</ele>
        <time>2020-08-16 07:18:13</time>
      </trkpt>
      <trkpt lat="40.19599" lon="-4.09082">
        <ele>627.2</ele>
        <time>2020-08-16 07:18:14</time>
      </trkpt>
      <trkpt lat="40.19594" lon="-4.09084">
        <ele>627.2</ele>
        <time>2020-08-16 07:18:15</time>
      </trkpt>
      <trkpt lat="40.19589" lon="-4.09086">
        <ele>627.2</ele>
        <time>2020-08-16 07:18:16</time>
      </trkpt>
      <trkpt lat="40.19584" lon="-4.09088">
        <ele>627</ele>
        <time>2020-08-16 07:18:17</time>
      </trkpt>
      <trkpt lat="40.19584" lon="-4.09088">
        <ele>627</ele>
        <time>2020-08-16 07:18:18</time>
      </trkpt>
      <trkpt lat="40.19575" lon="-4.09092">
        <ele>627</ele>
        <time>2020-08-16 07:18:19</time>
      </trkpt>
      <trkpt lat="40.19571" lon="-4.09094">
        <ele>627</ele>
        <time>2020-08-16 07:18:20</time>
      </trkpt>
      <trkpt lat="40.19566" lon="-4.09095">
        <ele>627</ele>
        <time>2020-08-16 07:18:21</time>
      </trkpt>
      <trkpt lat="40.19562" lon="-4.09097">
        <ele>627</ele>
        <time>2020-08-16 07:18:22</time>
      </trkpt>
      <trkpt lat="40.19557" lon="-4.09099">
        <ele>627</ele>
        <time>2020-08-16 07:18:23</time>
      </trkpt>
      <trkpt lat="40.19552" lon="-4.091">
        <ele>627.2</ele>
        <time>2020-08-16 07:18:24</time>
      </trkpt>
      <trkpt lat="40.19549" lon="-4.09103">
        <ele>627.2</ele>
        <time>2020-08-16 07:18:25</time>
      </trkpt>
      <trkpt lat="40.19545" lon="-4.09107">
        <ele>627.2</ele>
        <time>2020-08-16 07:18:26</time>
      </trkpt>
      <trkpt lat="40.19543" lon="-4.0911">
        <ele>627.2</ele>
        <time>2020-08-16 07:18:27</time>
      </trkpt>
      <trkpt lat="40.1954" lon="-4.09114">
        <ele>627.2</ele>
        <time>2020-08-16 07:18:28</time>
      </trkpt>
      <trkpt lat="40.19538" lon="-4.09118">
        <ele>627.2</ele>
        <time>2020-08-16 07:18:29</time>
      </trkpt>
      <trkpt lat="40.19535" lon="-4.0912">
        <ele>627.2</ele>
        <time>2020-08-16 07:18:30</time>
      </trkpt>
      <trkpt lat="40.19531" lon="-4.09122">
        <ele>627.2</ele>
        <time>2020-08-16 07:18:31</time>
      </trkpt>
      <trkpt lat="40.19531" lon="-4.09122">
        <ele>627.2</ele>
        <time>2020-08-16 07:18:32</time>
      </trkpt>
      <trkpt lat="40.19507" lon="-4.09138">
        <ele>626.2</ele>
        <time>2020-08-16 07:18:37</time>
      </trkpt>
      <trkpt lat="40.19503" lon="-4.09141">
        <ele>626.2</ele>
        <time>2020-08-16 07:18:38</time>
      </trkpt>
      <trkpt lat="40.19499" lon="-4.09143">
        <ele>626</ele>
        <time>2020-08-16 07:18:39</time>
      </trkpt>
      <trkpt lat="40.19494" lon="-4.09144">
        <ele>625.8</ele>
        <time>2020-08-16 07:18:40</time>
      </trkpt>
      <trkpt lat="40.1949" lon="-4.09145">
        <ele>625.8</ele>
        <time>2020-08-16 07:18:41</time>
      </trkpt>
      <trkpt lat="40.19471" lon="-4.09147">
        <ele>625.4</ele>
        <time>2020-08-16 07:18:45</time>
      </trkpt>
      <trkpt lat="40.19467" lon="-4.09148">
        <ele>625.2</ele>
        <time>2020-08-16 07:18:46</time>
      </trkpt>
      <trkpt lat="40.19453" lon="-4.09152">
        <ele>625</ele>
        <time>2020-08-16 07:18:49</time>
      </trkpt>
      <trkpt lat="40.19434" lon="-4.09158">
        <ele>624.8</ele>
        <time>2020-08-16 07:18:53</time>
      </trkpt>
      <trkpt lat="40.19392" lon="-4.09169">
        <ele>624.2</ele>
        <time>2020-08-16 07:19:01</time>
      </trkpt>
      <trkpt lat="40.19387" lon="-4.0917">
        <ele>624.2</ele>
        <time>2020-08-16 07:19:02</time>
      </trkpt>
      <trkpt lat="40.19361" lon="-4.09174">
        <ele>623.8</ele>
        <time>2020-08-16 07:19:07</time>
      </trkpt>
      <trkpt lat="40.19339" lon="-4.09175">
        <ele>623.4</ele>
        <time>2020-08-16 07:19:11</time>
      </trkpt>
      <trkpt lat="40.19334" lon="-4.09175">
        <ele>623.2</ele>
        <time>2020-08-16 07:19:12</time>
      </trkpt>
      <trkpt lat="40.19329" lon="-4.09175">
        <ele>623</ele>
        <time>2020-08-16 07:19:13</time>
      </trkpt>
      <trkpt lat="40.19324" lon="-4.09174">
        <ele>623</ele>
        <time>2020-08-16 07:19:14</time>
      </trkpt>
      <trkpt lat="40.19313" lon="-4.09174">
        <ele>622.8</ele>
        <time>2020-08-16 07:19:16</time>
      </trkpt>
      <trkpt lat="40.19297" lon="-4.09175">
        <ele>622.6</ele>
        <time>2020-08-16 07:19:19</time>
      </trkpt>
      <trkpt lat="40.1928" lon="-4.09176">
        <ele>622.4</ele>
        <time>2020-08-16 07:19:22</time>
      </trkpt>
      <trkpt lat="40.19263" lon="-4.09176">
        <ele>622.2</ele>
        <time>2020-08-16 07:19:25</time>
      </trkpt>
      <trkpt lat="40.19256" lon="-4.09177">
        <ele>622</ele>
        <time>2020-08-16 07:19:26</time>
      </trkpt>
      <trkpt lat="40.19239" lon="-4.09178">
        <ele>621.8</ele>
        <time>2020-08-16 07:19:29</time>
      </trkpt>
      <trkpt lat="40.1919" lon="-4.09184">
        <ele>621.2</ele>
        <time>2020-08-16 07:19:37</time>
      </trkpt>
      <trkpt lat="40.19178" lon="-4.09187">
        <ele>620.8</ele>
        <time>2020-08-16 07:19:39</time>
      </trkpt>
      <trkpt lat="40.19173" lon="-4.09189">
        <ele>620.4</ele>
        <time>2020-08-16 07:19:40</time>
      </trkpt>
      <trkpt lat="40.19167" lon="-4.0919">
        <ele>620.4</ele>
        <time>2020-08-16 07:19:41</time>
      </trkpt>
      <trkpt lat="40.19162" lon="-4.0919">
        <ele>620.2</ele>
        <time>2020-08-16 07:19:42</time>
      </trkpt>
      <trkpt lat="40.19157" lon="-4.09189">
        <ele>620.2</ele>
        <time>2020-08-16 07:19:43</time>
      </trkpt>
      <trkpt lat="40.19152" lon="-4.09188">
        <ele>620</ele>
        <time>2020-08-16 07:19:44</time>
      </trkpt>
      <trkpt lat="40.19147" lon="-4.09188">
        <ele>620</ele>
        <time>2020-08-16 07:19:45</time>
      </trkpt>
      <trkpt lat="40.19143" lon="-4.09188">
        <ele>620</ele>
        <time>2020-08-16 07:19:46</time>
      </trkpt>
      <trkpt lat="40.19138" lon="-4.09188">
        <ele>620</ele>
        <time>2020-08-16 07:19:47</time>
      </trkpt>
      <trkpt lat="40.19133" lon="-4.09188">
        <ele>620</ele>
        <time>2020-08-16 07:19:48</time>
      </trkpt>
      <trkpt lat="40.19128" lon="-4.09187">
        <ele>620</ele>
        <time>2020-08-16 07:19:49</time>
      </trkpt>
      <trkpt lat="40.19124" lon="-4.09186">
        <ele>620</ele>
        <time>2020-08-16 07:19:50</time>
      </trkpt>
      <trkpt lat="40.19119" lon="-4.09185">
        <ele>620</ele>
        <time>2020-08-16 07:19:51</time>
      </trkpt>
      <trkpt lat="40.19074" lon="-4.09164">
        <ele>620</ele>
        <time>2020-08-16 07:20:00</time>
      </trkpt>
      <trkpt lat="40.19064" lon="-4.09158">
        <ele>619.8</ele>
        <time>2020-08-16 07:20:02</time>
      </trkpt>
      <trkpt lat="40.1902" lon="-4.09133">
        <ele>618.8</ele>
        <time>2020-08-16 07:20:11</time>
      </trkpt>
      <trkpt lat="40.19015" lon="-4.09131">
        <ele>618.8</ele>
        <time>2020-08-16 07:20:12</time>
      </trkpt>
      <trkpt lat="40.1901" lon="-4.09128">
        <ele>618.8</ele>
        <time>2020-08-16 07:20:13</time>
      </trkpt>
      <trkpt lat="40.19004" lon="-4.09125">
        <ele>618.6</ele>
        <time>2020-08-16 07:20:14</time>
      </trkpt>
      <trkpt lat="40.19" lon="-4.09123">
        <ele>618.6</ele>
        <time>2020-08-16 07:20:15</time>
      </trkpt>
      <trkpt lat="40.18974" lon="-4.09107">
        <ele>618</ele>
        <time>2020-08-16 07:20:20</time>
      </trkpt>
      <trkpt lat="40.18963" lon="-4.091">
        <ele>617.6</ele>
        <time>2020-08-16 07:20:22</time>
      </trkpt>
      <trkpt lat="40.18953" lon="-4.09094">
        <ele>617.6</ele>
        <time>2020-08-16 07:20:24</time>
      </trkpt>
      <trkpt lat="40.18948" lon="-4.09089">
        <ele>617.4</ele>
        <time>2020-08-16 07:20:25</time>
      </trkpt>
      <trkpt lat="40.1893" lon="-4.09075">
        <ele>617</ele>
        <time>2020-08-16 07:20:29</time>
      </trkpt>
      <trkpt lat="40.18925" lon="-4.09071">
        <ele>617</ele>
        <time>2020-08-16 07:20:30</time>
      </trkpt>
      <trkpt lat="40.1892" lon="-4.09068">
        <ele>617</ele>
        <time>2020-08-16 07:20:31</time>
      </trkpt>
      <trkpt lat="40.18916" lon="-4.09064">
        <ele>617</ele>
        <time>2020-08-16 07:20:32</time>
      </trkpt>
      <trkpt lat="40.18911" lon="-4.0906">
        <ele>617</ele>
        <time>2020-08-16 07:20:33</time>
      </trkpt>
      <trkpt lat="40.18906" lon="-4.09057">
        <ele>617</ele>
        <time>2020-08-16 07:20:34</time>
      </trkpt>
      <trkpt lat="40.18901" lon="-4.09053">
        <ele>617</ele>
        <time>2020-08-16 07:20:35</time>
      </trkpt>
      <trkpt lat="40.18896" lon="-4.09049">
        <ele>616.8</ele>
        <time>2020-08-16 07:20:36</time>
      </trkpt>
      <trkpt lat="40.18891" lon="-4.09044">
        <ele>616.8</ele>
        <time>2020-08-16 07:20:37</time>
      </trkpt>
      <trkpt lat="40.18882" lon="-4.09036">
        <ele>616.6</ele>
        <time>2020-08-16 07:20:39</time>
      </trkpt>
      <trkpt lat="40.18878" lon="-4.09031">
        <ele>616.6</ele>
        <time>2020-08-16 07:20:40</time>
      </trkpt>
      <trkpt lat="40.18866" lon="-4.09017">
        <ele>616.4</ele>
        <time>2020-08-16 07:20:43</time>
      </trkpt>
      <trkpt lat="40.18862" lon="-4.09013">
        <ele>616.4</ele>
        <time>2020-08-16 07:20:44</time>
      </trkpt>
      <trkpt lat="40.18859" lon="-4.0901">
        <ele>616.4</ele>
        <time>2020-08-16 07:20:45</time>
      </trkpt>
      <trkpt lat="40.18855" lon="-4.09005">
        <ele>616.2</ele>
        <time>2020-08-16 07:20:46</time>
      </trkpt>
      <trkpt lat="40.1885" lon="-4.09001">
        <ele>616.2</ele>
        <time>2020-08-16 07:20:47</time>
      </trkpt>
      <trkpt lat="40.18846" lon="-4.08997">
        <ele>616</ele>
        <time>2020-08-16 07:20:48</time>
      </trkpt>
      <trkpt lat="40.18842" lon="-4.08992">
        <ele>616</ele>
        <time>2020-08-16 07:20:49</time>
      </trkpt>
      <trkpt lat="40.18837" lon="-4.08988">
        <ele>616</ele>
        <time>2020-08-16 07:20:50</time>
      </trkpt>
      <trkpt lat="40.18833" lon="-4.08984">
        <ele>616</ele>
        <time>2020-08-16 07:20:51</time>
      </trkpt>
      <trkpt lat="40.18828" lon="-4.0898">
        <ele>616</ele>
        <time>2020-08-16 07:20:52</time>
      </trkpt>
      <trkpt lat="40.18824" lon="-4.08977">
        <ele>615.8</ele>
        <time>2020-08-16 07:20:53</time>
      </trkpt>
      <trkpt lat="40.18802" lon="-4.08959">
        <ele>615.6</ele>
        <time>2020-08-16 07:20:58</time>
      </trkpt>
      <trkpt lat="40.18798" lon="-4.08955">
        <ele>615.6</ele>
        <time>2020-08-16 07:20:59</time>
      </trkpt>
      <trkpt lat="40.18793" lon="-4.08951">
        <ele>615.6</ele>
        <time>2020-08-16 07:21:00</time>
      </trkpt>
      <trkpt lat="40.18789" lon="-4.08947">
        <ele>615.6</ele>
        <time>2020-08-16 07:21:01</time>
      </trkpt>
      <trkpt lat="40.18784" lon="-4.08943">
        <ele>615.6</ele>
        <time>2020-08-16 07:21:02</time>
      </trkpt>
      <trkpt lat="40.1878" lon="-4.08939">
        <ele>615.6</ele>
        <time>2020-08-16 07:21:03</time>
      </trkpt>
      <trkpt lat="40.18771" lon="-4.08929">
        <ele>615.6</ele>
        <time>2020-08-16 07:21:05</time>
      </trkpt>
      <trkpt lat="40.18751" lon="-4.08904">
        <ele>615</ele>
        <time>2020-08-16 07:21:10</time>
      </trkpt>
      <trkpt lat="40.18732" lon="-4.08878">
        <ele>614.6</ele>
        <time>2020-08-16 07:21:15</time>
      </trkpt>
      <trkpt lat="40.18729" lon="-4.08873">
        <ele>614.6</ele>
        <time>2020-08-16 07:21:16</time>
      </trkpt>
      <trkpt lat="40.18725" lon="-4.08868">
        <ele>614.6</ele>
        <time>2020-08-16 07:21:17</time>
      </trkpt>
      <trkpt lat="40.18722" lon="-4.08863">
        <ele>614.6</ele>
        <time>2020-08-16 07:21:18</time>
      </trkpt>
      <trkpt lat="40.18718" lon="-4.08857">
        <ele>614.4</ele>
        <time>2020-08-16 07:21:19</time>
      </trkpt>
      <trkpt lat="40.18714" lon="-4.08852">
        <ele>614.4</ele>
        <time>2020-08-16 07:21:20</time>
      </trkpt>
      <trkpt lat="40.18711" lon="-4.08847">
        <ele>614.4</ele>
        <time>2020-08-16 07:21:21</time>
      </trkpt>
      <trkpt lat="40.18708" lon="-4.08842">
        <ele>614.4</ele>
        <time>2020-08-16 07:21:22</time>
      </trkpt>
      <trkpt lat="40.18704" lon="-4.08837">
        <ele>614.4</ele>
        <time>2020-08-16 07:21:23</time>
      </trkpt>
      <trkpt lat="40.187" lon="-4.08832">
        <ele>614.4</ele>
        <time>2020-08-16 07:21:24</time>
      </trkpt>
      <trkpt lat="40.18697" lon="-4.08827">
        <ele>614.4</ele>
        <time>2020-08-16 07:21:25</time>
      </trkpt>
      <trkpt lat="40.18693" lon="-4.08822">
        <ele>614.4</ele>
        <time>2020-08-16 07:21:26</time>
      </trkpt>
      <trkpt lat="40.1869" lon="-4.08817">
        <ele>614.6</ele>
        <time>2020-08-16 07:21:27</time>
      </trkpt>
      <trkpt lat="40.18687" lon="-4.08813">
        <ele>614.6</ele>
        <time>2020-08-16 07:21:28</time>
      </trkpt>
      <trkpt lat="40.18683" lon="-4.08807">
        <ele>614.6</ele>
        <time>2020-08-16 07:21:29</time>
      </trkpt>
      <trkpt lat="40.18679" lon="-4.08802">
        <ele>614.6</ele>
        <time>2020-08-16 07:21:30</time>
      </trkpt>
      <trkpt lat="40.18676" lon="-4.08797">
        <ele>614.6</ele>
        <time>2020-08-16 07:21:31</time>
      </trkpt>
      <trkpt lat="40.18672" lon="-4.08791">
        <ele>614.6</ele>
        <time>2020-08-16 07:21:32</time>
      </trkpt>
      <trkpt lat="40.18668" lon="-4.08786">
        <ele>614.6</ele>
        <time>2020-08-16 07:21:33</time>
      </trkpt>
      <trkpt lat="40.18664" lon="-4.0878">
        <ele>614.6</ele>
        <time>2020-08-16 07:21:34</time>
      </trkpt>
      <trkpt lat="40.18656" lon="-4.0877">
        <ele>614.6</ele>
        <time>2020-08-16 07:21:36</time>
      </trkpt>
      <trkpt lat="40.18641" lon="-4.08749">
        <ele>614.6</ele>
        <time>2020-08-16 07:21:40</time>
      </trkpt>
      <trkpt lat="40.18629" lon="-4.08735">
        <ele>614.4</ele>
        <time>2020-08-16 07:21:43</time>
      </trkpt>
      <trkpt lat="40.18626" lon="-4.0873">
        <ele>614.4</ele>
        <time>2020-08-16 07:21:44</time>
      </trkpt>
      <trkpt lat="40.18622" lon="-4.08726">
        <ele>614.4</ele>
        <time>2020-08-16 07:21:45</time>
      </trkpt>
      <trkpt lat="40.18617" lon="-4.08721">
        <ele>614.4</ele>
        <time>2020-08-16 07:21:46</time>
      </trkpt>
      <trkpt lat="40.18613" lon="-4.08718">
        <ele>614.4</ele>
        <time>2020-08-16 07:21:47</time>
      </trkpt>
      <trkpt lat="40.18609" lon="-4.08714">
        <ele>614.4</ele>
        <time>2020-08-16 07:21:48</time>
      </trkpt>
      <trkpt lat="40.186" lon="-4.08706">
        <ele>614.4</ele>
        <time>2020-08-16 07:21:50</time>
      </trkpt>
      <trkpt lat="40.186" lon="-4.08706">
        <ele>614.4</ele>
        <time>2020-08-16 07:21:51</time>
      </trkpt>
      <trkpt lat="40.18591" lon="-4.08698">
        <ele>614.4</ele>
        <time>2020-08-16 07:21:52</time>
      </trkpt>
      <trkpt lat="40.18586" lon="-4.08694">
        <ele>614.4</ele>
        <time>2020-08-16 07:21:53</time>
      </trkpt>
      <trkpt lat="40.18557" lon="-4.08672">
        <ele>614</ele>
        <time>2020-08-16 07:21:59</time>
      </trkpt>
      <trkpt lat="40.18547" lon="-4.08667">
        <ele>614</ele>
        <time>2020-08-16 07:22:01</time>
      </trkpt>
      <trkpt lat="40.18542" lon="-4.08664">
        <ele>614</ele>
        <time>2020-08-16 07:22:02</time>
      </trkpt>
      <trkpt lat="40.18508" lon="-4.08649">
        <ele>613.6</ele>
        <time>2020-08-16 07:22:08</time>
      </trkpt>
      <trkpt lat="40.18473" lon="-4.08632">
        <ele>613</ele>
        <time>2020-08-16 07:22:14</time>
      </trkpt>
      <trkpt lat="40.18457" lon="-4.08622">
        <ele>612.6</ele>
        <time>2020-08-16 07:22:17</time>
      </trkpt>
      <trkpt lat="40.18438" lon="-4.08605">
        <ele>612.4</ele>
        <time>2020-08-16 07:22:21</time>
      </trkpt>
      <trkpt lat="40.18434" lon="-4.086">
        <ele>612.4</ele>
        <time>2020-08-16 07:22:22</time>
      </trkpt>
      <trkpt lat="40.18434" lon="-4.086">
        <ele>612.4</ele>
        <time>2020-08-16 07:22:23</time>
      </trkpt>
      <trkpt lat="40.18425" lon="-4.08591">
        <ele>612.2</ele>
        <time>2020-08-16 07:22:24</time>
      </trkpt>
      <trkpt lat="40.18422" lon="-4.08586">
        <ele>612.2</ele>
        <time>2020-08-16 07:22:25</time>
      </trkpt>
      <trkpt lat="40.18418" lon="-4.0858">
        <ele>612.2</ele>
        <time>2020-08-16 07:22:26</time>
      </trkpt>
      <trkpt lat="40.18415" lon="-4.08574">
        <ele>612</ele>
        <time>2020-08-16 07:22:27</time>
      </trkpt>
      <trkpt lat="40.18412" lon="-4.08568">
        <ele>612</ele>
        <time>2020-08-16 07:22:28</time>
      </trkpt>
      <trkpt lat="40.18408" lon="-4.08563">
        <ele>612</ele>
        <time>2020-08-16 07:22:29</time>
      </trkpt>
      <trkpt lat="40.18405" lon="-4.08557">
        <ele>611.8</ele>
        <time>2020-08-16 07:22:30</time>
      </trkpt>
      <trkpt lat="40.18401" lon="-4.08551">
        <ele>611.8</ele>
        <time>2020-08-16 07:22:31</time>
      </trkpt>
      <trkpt lat="40.18398" lon="-4.08546">
        <ele>611.8</ele>
        <time>2020-08-16 07:22:32</time>
      </trkpt>
      <trkpt lat="40.18395" lon="-4.0854">
        <ele>611.6</ele>
        <time>2020-08-16 07:22:33</time>
      </trkpt>
      <trkpt lat="40.18391" lon="-4.08535">
        <ele>611.6</ele>
        <time>2020-08-16 07:22:34</time>
      </trkpt>
      <trkpt lat="40.18388" lon="-4.0853">
        <ele>611.6</ele>
        <time>2020-08-16 07:22:35</time>
      </trkpt>
      <trkpt lat="40.18384" lon="-4.08525">
        <ele>611.6</ele>
        <time>2020-08-16 07:22:36</time>
      </trkpt>
      <trkpt lat="40.1838" lon="-4.0852">
        <ele>611.6</ele>
        <time>2020-08-16 07:22:37</time>
      </trkpt>
      <trkpt lat="40.18376" lon="-4.08514">
        <ele>611.4</ele>
        <time>2020-08-16 07:22:38</time>
      </trkpt>
      <trkpt lat="40.18372" lon="-4.0851">
        <ele>611.4</ele>
        <time>2020-08-16 07:22:39</time>
      </trkpt>
      <trkpt lat="40.18368" lon="-4.08506">
        <ele>611.4</ele>
        <time>2020-08-16 07:22:40</time>
      </trkpt>
      <trkpt lat="40.18364" lon="-4.08502">
        <ele>611.4</ele>
        <time>2020-08-16 07:22:41</time>
      </trkpt>
      <trkpt lat="40.1836" lon="-4.08498">
        <ele>611.4</ele>
        <time>2020-08-16 07:22:42</time>
      </trkpt>
      <trkpt lat="40.18356" lon="-4.08495">
        <ele>611.4</ele>
        <time>2020-08-16 07:22:43</time>
      </trkpt>
      <trkpt lat="40.18351" lon="-4.08492">
        <ele>611.4</ele>
        <time>2020-08-16 07:22:44</time>
      </trkpt>
      <trkpt lat="40.18346" lon="-4.0849">
        <ele>611.4</ele>
        <time>2020-08-16 07:22:45</time>
      </trkpt>
      <trkpt lat="40.18341" lon="-4.08488">
        <ele>611.4</ele>
        <time>2020-08-16 07:22:46</time>
      </trkpt>
      <trkpt lat="40.18336" lon="-4.08486">
        <ele>611.6</ele>
        <time>2020-08-16 07:22:47</time>
      </trkpt>
      <trkpt lat="40.18331" lon="-4.08485">
        <ele>611.6</ele>
        <time>2020-08-16 07:22:48</time>
      </trkpt>
      <trkpt lat="40.18325" lon="-4.08483">
        <ele>611.6</ele>
        <time>2020-08-16 07:22:49</time>
      </trkpt>
      <trkpt lat="40.1832" lon="-4.08482">
        <ele>611.6</ele>
        <time>2020-08-16 07:22:50</time>
      </trkpt>
      <trkpt lat="40.18314" lon="-4.08481">
        <ele>611.6</ele>
        <time>2020-08-16 07:22:51</time>
      </trkpt>
      <trkpt lat="40.18278" lon="-4.08471">
        <ele>611</ele>
        <time>2020-08-16 07:22:58</time>
      </trkpt>
      <trkpt lat="40.18275" lon="-4.08471">
        <ele>610.8</ele>
        <time>2020-08-16 07:22:59</time>
      </trkpt>
      <trkpt lat="40.18272" lon="-4.08474">
        <ele>610.8</ele>
        <time>2020-08-16 07:23:00</time>
      </trkpt>
      <trkpt lat="40.1827" lon="-4.08477">
        <ele>610.6</ele>
        <time>2020-08-16 07:23:01</time>
      </trkpt>
      <trkpt lat="40.18267" lon="-4.08479">
        <ele>610.6</ele>
        <time>2020-08-16 07:23:02</time>
      </trkpt>
      <trkpt lat="40.18264" lon="-4.08481">
        <ele>610.6</ele>
        <time>2020-08-16 07:23:03</time>
      </trkpt>
      <trkpt lat="40.1826" lon="-4.08481">
        <ele>610.6</ele>
        <time>2020-08-16 07:23:04</time>
      </trkpt>
      <trkpt lat="40.18256" lon="-4.0848">
        <ele>610.6</ele>
        <time>2020-08-16 07:23:05</time>
      </trkpt>
      <trkpt lat="40.18243" lon="-4.0848">
        <ele>610.4</ele>
        <time>2020-08-16 07:23:08</time>
      </trkpt>
      <trkpt lat="40.18217" lon="-4.0848">
        <ele>610</ele>
        <time>2020-08-16 07:23:13</time>
      </trkpt>
      <trkpt lat="40.18202" lon="-4.0848">
        <ele>609.8</ele>
        <time>2020-08-16 07:23:16</time>
      </trkpt>
      <trkpt lat="40.18186" lon="-4.0848">
        <ele>609.4</ele>
        <time>2020-08-16 07:23:19</time>
      </trkpt>
      <trkpt lat="40.18165" lon="-4.08479">
        <ele>609.2</ele>
        <time>2020-08-16 07:23:23</time>
      </trkpt>
      <trkpt lat="40.1816" lon="-4.08479">
        <ele>609</ele>
        <time>2020-08-16 07:23:24</time>
      </trkpt>
      <trkpt lat="40.18155" lon="-4.08478">
        <ele>609</ele>
        <time>2020-08-16 07:23:25</time>
      </trkpt>
      <trkpt lat="40.18145" lon="-4.08475">
        <ele>608.8</ele>
        <time>2020-08-16 07:23:27</time>
      </trkpt>
      <trkpt lat="40.1814" lon="-4.08473">
        <ele>608.6</ele>
        <time>2020-08-16 07:23:28</time>
      </trkpt>
      <trkpt lat="40.18136" lon="-4.08471">
        <ele>608.8</ele>
        <time>2020-08-16 07:23:29</time>
      </trkpt>
      <trkpt lat="40.18131" lon="-4.08468">
        <ele>608.6</ele>
        <time>2020-08-16 07:23:30</time>
      </trkpt>
      <trkpt lat="40.18127" lon="-4.08465">
        <ele>608.6</ele>
        <time>2020-08-16 07:23:31</time>
      </trkpt>
      <trkpt lat="40.18123" lon="-4.08462">
        <ele>608.6</ele>
        <time>2020-08-16 07:23:32</time>
      </trkpt>
      <trkpt lat="40.18119" lon="-4.0846">
        <ele>608.6</ele>
        <time>2020-08-16 07:23:33</time>
      </trkpt>
      <trkpt lat="40.18114" lon="-4.08457">
        <ele>608.6</ele>
        <time>2020-08-16 07:23:34</time>
      </trkpt>
      <trkpt lat="40.1811" lon="-4.08454">
        <ele>608.4</ele>
        <time>2020-08-16 07:23:35</time>
      </trkpt>
      <trkpt lat="40.18106" lon="-4.08451">
        <ele>608.4</ele>
        <time>2020-08-16 07:23:36</time>
      </trkpt>
      <trkpt lat="40.18101" lon="-4.08448">
        <ele>608.4</ele>
        <time>2020-08-16 07:23:37</time>
      </trkpt>
      <trkpt lat="40.18097" lon="-4.08445">
        <ele>608.4</ele>
        <time>2020-08-16 07:23:38</time>
      </trkpt>
      <trkpt lat="40.18092" lon="-4.08443">
        <ele>608.4</ele>
        <time>2020-08-16 07:23:39</time>
      </trkpt>
      <trkpt lat="40.18088" lon="-4.08441">
        <ele>608.4</ele>
        <time>2020-08-16 07:23:40</time>
      </trkpt>
      <trkpt lat="40.18083" lon="-4.08439">
        <ele>608.4</ele>
        <time>2020-08-16 07:23:41</time>
      </trkpt>
      <trkpt lat="40.18069" lon="-4.08435">
        <ele>608.4</ele>
        <time>2020-08-16 07:23:44</time>
      </trkpt>
      <trkpt lat="40.18064" lon="-4.08434">
        <ele>608.4</ele>
        <time>2020-08-16 07:23:45</time>
      </trkpt>
      <trkpt lat="40.18064" lon="-4.08434">
        <ele>608.4</ele>
        <time>2020-08-16 07:23:46</time>
      </trkpt>
      <trkpt lat="40.18054" lon="-4.08433">
        <ele>608.4</ele>
        <time>2020-08-16 07:23:47</time>
      </trkpt>
      <trkpt lat="40.18044" lon="-4.08432">
        <ele>608.4</ele>
        <time>2020-08-16 07:23:49</time>
      </trkpt>
      <trkpt lat="40.1803" lon="-4.08429">
        <ele>608.2</ele>
        <time>2020-08-16 07:23:52</time>
      </trkpt>
      <trkpt lat="40.18025" lon="-4.08428">
        <ele>608.4</ele>
        <time>2020-08-16 07:23:53</time>
      </trkpt>
      <trkpt lat="40.18021" lon="-4.08427">
        <ele>608.4</ele>
        <time>2020-08-16 07:23:54</time>
      </trkpt>
      <trkpt lat="40.18016" lon="-4.08426">
        <ele>608.4</ele>
        <time>2020-08-16 07:23:55</time>
      </trkpt>
      <trkpt lat="40.18012" lon="-4.08425">
        <ele>608.4</ele>
        <time>2020-08-16 07:23:56</time>
      </trkpt>
      <trkpt lat="40.18007" lon="-4.08424">
        <ele>608.4</ele>
        <time>2020-08-16 07:23:57</time>
      </trkpt>
      <trkpt lat="40.18003" lon="-4.08424">
        <ele>608.4</ele>
        <time>2020-08-16 07:23:58</time>
      </trkpt>
      <trkpt lat="40.17998" lon="-4.08423">
        <ele>608.4</ele>
        <time>2020-08-16 07:23:59</time>
      </trkpt>
      <trkpt lat="40.17993" lon="-4.08422">
        <ele>608.6</ele>
        <time>2020-08-16 07:24:00</time>
      </trkpt>
      <trkpt lat="40.17989" lon="-4.08422">
        <ele>608.6</ele>
        <time>2020-08-16 07:24:01</time>
      </trkpt>
      <trkpt lat="40.17984" lon="-4.08421">
        <ele>608.6</ele>
        <time>2020-08-16 07:24:02</time>
      </trkpt>
      <trkpt lat="40.17979" lon="-4.0842">
        <ele>608.6</ele>
        <time>2020-08-16 07:24:03</time>
      </trkpt>
      <trkpt lat="40.17974" lon="-4.08419">
        <ele>608.8</ele>
        <time>2020-08-16 07:24:04</time>
      </trkpt>
      <trkpt lat="40.17955" lon="-4.08416">
        <ele>608.8</ele>
        <time>2020-08-16 07:24:08</time>
      </trkpt>
      <trkpt lat="40.17931" lon="-4.08411">
        <ele>608.8</ele>
        <time>2020-08-16 07:24:13</time>
      </trkpt>
      <trkpt lat="40.17912" lon="-4.0841">
        <ele>608.8</ele>
        <time>2020-08-16 07:24:17</time>
      </trkpt>
      <trkpt lat="40.17907" lon="-4.0841">
        <ele>609</ele>
        <time>2020-08-16 07:24:18</time>
      </trkpt>
      <trkpt lat="40.17902" lon="-4.08409">
        <ele>609</ele>
        <time>2020-08-16 07:24:19</time>
      </trkpt>
      <trkpt lat="40.17898" lon="-4.08409">
        <ele>609</ele>
        <time>2020-08-16 07:24:20</time>
      </trkpt>
      <trkpt lat="40.17893" lon="-4.08408">
        <ele>609</ele>
        <time>2020-08-16 07:24:21</time>
      </trkpt>
      <trkpt lat="40.17889" lon="-4.08407">
        <ele>609</ele>
        <time>2020-08-16 07:24:22</time>
      </trkpt>
      <trkpt lat="40.17889" lon="-4.08407">
        <ele>609</ele>
        <time>2020-08-16 07:24:23</time>
      </trkpt>
      <trkpt lat="40.1788" lon="-4.08403">
        <ele>609.2</ele>
        <time>2020-08-16 07:24:24</time>
      </trkpt>
      <trkpt lat="40.17876" lon="-4.08402">
        <ele>609</ele>
        <time>2020-08-16 07:24:25</time>
      </trkpt>
      <trkpt lat="40.17872" lon="-4.084">
        <ele>609.2</ele>
        <time>2020-08-16 07:24:26</time>
      </trkpt>
      <trkpt lat="40.17868" lon="-4.08398">
        <ele>609.2</ele>
        <time>2020-08-16 07:24:27</time>
      </trkpt>
      <trkpt lat="40.17864" lon="-4.08396">
        <ele>609.2</ele>
        <time>2020-08-16 07:24:28</time>
      </trkpt>
      <trkpt lat="40.1786" lon="-4.08394">
        <ele>609.4</ele>
        <time>2020-08-16 07:24:29</time>
      </trkpt>
      <trkpt lat="40.17856" lon="-4.08392">
        <ele>609.4</ele>
        <time>2020-08-16 07:24:30</time>
      </trkpt>
      <trkpt lat="40.17852" lon="-4.0839">
        <ele>609.6</ele>
        <time>2020-08-16 07:24:31</time>
      </trkpt>
      <trkpt lat="40.17848" lon="-4.08389">
        <ele>609.4</ele>
        <time>2020-08-16 07:24:32</time>
      </trkpt>
      <trkpt lat="40.17844" lon="-4.08387">
        <ele>609.4</ele>
        <time>2020-08-16 07:24:33</time>
      </trkpt>
      <trkpt lat="40.1784" lon="-4.08386">
        <ele>609.6</ele>
        <time>2020-08-16 07:24:34</time>
      </trkpt>
      <trkpt lat="40.17837" lon="-4.08384">
        <ele>609.6</ele>
        <time>2020-08-16 07:24:35</time>
      </trkpt>
      <trkpt lat="40.17833" lon="-4.08382">
        <ele>609.8</ele>
        <time>2020-08-16 07:24:36</time>
      </trkpt>
      <trkpt lat="40.1783" lon="-4.08381">
        <ele>609.8</ele>
        <time>2020-08-16 07:24:37</time>
      </trkpt>
      <trkpt lat="40.17826" lon="-4.08379">
        <ele>610</ele>
        <time>2020-08-16 07:24:38</time>
      </trkpt>
      <trkpt lat="40.17823" lon="-4.08378">
        <ele>609.8</ele>
        <time>2020-08-16 07:24:39</time>
      </trkpt>
      <trkpt lat="40.1782" lon="-4.08377">
        <ele>610.2</ele>
        <time>2020-08-16 07:24:40</time>
      </trkpt>
      <trkpt lat="40.17816" lon="-4.08375">
        <ele>610.2</ele>
        <time>2020-08-16 07:24:41</time>
      </trkpt>
      <trkpt lat="40.17813" lon="-4.08374">
        <ele>610.4</ele>
        <time>2020-08-16 07:24:42</time>
      </trkpt>
      <trkpt lat="40.17809" lon="-4.08372">
        <ele>610.8</ele>
        <time>2020-08-16 07:24:43</time>
      </trkpt>
      <trkpt lat="40.17806" lon="-4.08371">
        <ele>610.8</ele>
        <time>2020-08-16 07:24:44</time>
      </trkpt>
      <trkpt lat="40.17802" lon="-4.0837">
        <ele>610.8</ele>
        <time>2020-08-16 07:24:45</time>
      </trkpt>
      <trkpt lat="40.17798" lon="-4.08369">
        <ele>611.2</ele>
        <time>2020-08-16 07:24:46</time>
      </trkpt>
      <trkpt lat="40.17795" lon="-4.08368">
        <ele>611</ele>
        <time>2020-08-16 07:24:47</time>
      </trkpt>
      <trkpt lat="40.17791" lon="-4.08367">
        <ele>611</ele>
        <time>2020-08-16 07:24:48</time>
      </trkpt>
      <trkpt lat="40.17788" lon="-4.08366">
        <ele>611.4</ele>
        <time>2020-08-16 07:24:49</time>
      </trkpt>
      <trkpt lat="40.17784" lon="-4.08364">
        <ele>611.4</ele>
        <time>2020-08-16 07:24:50</time>
      </trkpt>
      <trkpt lat="40.17774" lon="-4.0836">
        <ele>611.6</ele>
        <time>2020-08-16 07:24:53</time>
      </trkpt>
      <trkpt lat="40.1777" lon="-4.08359">
        <ele>611.6</ele>
        <time>2020-08-16 07:24:54</time>
      </trkpt>
      <trkpt lat="40.17767" lon="-4.08357">
        <ele>611.6</ele>
        <time>2020-08-16 07:24:55</time>
      </trkpt>
      <trkpt lat="40.17763" lon="-4.08356">
        <ele>611.8</ele>
        <time>2020-08-16 07:24:56</time>
      </trkpt>
      <trkpt lat="40.1776" lon="-4.08354">
        <ele>611.8</ele>
        <time>2020-08-16 07:24:57</time>
      </trkpt>
      <trkpt lat="40.17757" lon="-4.08352">
        <ele>611.8</ele>
        <time>2020-08-16 07:24:58</time>
      </trkpt>
      <trkpt lat="40.17753" lon="-4.0835">
        <ele>612</ele>
        <time>2020-08-16 07:24:59</time>
      </trkpt>
      <trkpt lat="40.17753" lon="-4.0835">
        <ele>612</ele>
        <time>2020-08-16 07:25:00</time>
      </trkpt>
      <trkpt lat="40.17747" lon="-4.08347">
        <ele>612.2</ele>
        <time>2020-08-16 07:25:01</time>
      </trkpt>
      <trkpt lat="40.17744" lon="-4.08345">
        <ele>612.2</ele>
        <time>2020-08-16 07:25:02</time>
      </trkpt>
      <trkpt lat="40.17741" lon="-4.08343">
        <ele>612.2</ele>
        <time>2020-08-16 07:25:03</time>
      </trkpt>
      <trkpt lat="40.17738" lon="-4.0834">
        <ele>612</ele>
        <time>2020-08-16 07:25:04</time>
      </trkpt>
      <trkpt lat="40.17734" lon="-4.08338">
        <ele>612</ele>
        <time>2020-08-16 07:25:05</time>
      </trkpt>
      <trkpt lat="40.17731" lon="-4.08335">
        <ele>612.2</ele>
        <time>2020-08-16 07:25:06</time>
      </trkpt>
      <trkpt lat="40.17728" lon="-4.08332">
        <ele>612</ele>
        <time>2020-08-16 07:25:07</time>
      </trkpt>
      <trkpt lat="40.17725" lon="-4.08329">
        <ele>612.2</ele>
        <time>2020-08-16 07:25:08</time>
      </trkpt>
      <trkpt lat="40.17722" lon="-4.08326">
        <ele>612.2</ele>
        <time>2020-08-16 07:25:09</time>
      </trkpt>
      <trkpt lat="40.17712" lon="-4.08315">
        <ele>612.2</ele>
        <time>2020-08-16 07:25:12</time>
      </trkpt>
      <trkpt lat="40.1771" lon="-4.08312">
        <ele>612.4</ele>
        <time>2020-08-16 07:25:13</time>
      </trkpt>
      <trkpt lat="40.17707" lon="-4.08308">
        <ele>612.4</ele>
        <time>2020-08-16 07:25:14</time>
      </trkpt>
      <trkpt lat="40.17704" lon="-4.08304">
        <ele>612.4</ele>
        <time>2020-08-16 07:25:15</time>
      </trkpt>
      <trkpt lat="40.17695" lon="-4.08296">
        <ele>612.6</ele>
        <time>2020-08-16 07:25:18</time>
      </trkpt>
      <trkpt lat="40.17688" lon="-4.08293">
        <ele>612.8</ele>
        <time>2020-08-16 07:25:20</time>
      </trkpt>
      <trkpt lat="40.17684" lon="-4.08292">
        <ele>612.8</ele>
        <time>2020-08-16 07:25:21</time>
      </trkpt>
      <trkpt lat="40.17681" lon="-4.08291">
        <ele>613</ele>
        <time>2020-08-16 07:25:22</time>
      </trkpt>
      <trkpt lat="40.17677" lon="-4.08291">
        <ele>613</ele>
        <time>2020-08-16 07:25:23</time>
      </trkpt>
      <trkpt lat="40.17673" lon="-4.08292">
        <ele>613</ele>
        <time>2020-08-16 07:25:24</time>
      </trkpt>
      <trkpt lat="40.17669" lon="-4.08292">
        <ele>613</ele>
        <time>2020-08-16 07:25:25</time>
      </trkpt>
      <trkpt lat="40.17665" lon="-4.08293">
        <ele>613.2</ele>
        <time>2020-08-16 07:25:26</time>
      </trkpt>
      <trkpt lat="40.17661" lon="-4.08294">
        <ele>613.2</ele>
        <time>2020-08-16 07:25:27</time>
      </trkpt>
      <trkpt lat="40.17658" lon="-4.08295">
        <ele>613.2</ele>
        <time>2020-08-16 07:25:28</time>
      </trkpt>
      <trkpt lat="40.17636" lon="-4.08303">
        <ele>613.8</ele>
        <time>2020-08-16 07:25:34</time>
      </trkpt>
      <trkpt lat="40.17632" lon="-4.08305">
        <ele>613.8</ele>
        <time>2020-08-16 07:25:35</time>
      </trkpt>
      <trkpt lat="40.17628" lon="-4.08307">
        <ele>614</ele>
        <time>2020-08-16 07:25:36</time>
      </trkpt>
      <trkpt lat="40.176" lon="-4.08325">
        <ele>614.4</ele>
        <time>2020-08-16 07:25:44</time>
      </trkpt>
      <trkpt lat="40.17597" lon="-4.08328">
        <ele>614.6</ele>
        <time>2020-08-16 07:25:45</time>
      </trkpt>
      <trkpt lat="40.1758" lon="-4.08345">
        <ele>614.6</ele>
        <time>2020-08-16 07:25:50</time>
      </trkpt>
      <trkpt lat="40.17577" lon="-4.08349">
        <ele>614.6</ele>
        <time>2020-08-16 07:25:51</time>
      </trkpt>
      <trkpt lat="40.17573" lon="-4.08354">
        <ele>614.6</ele>
        <time>2020-08-16 07:25:52</time>
      </trkpt>
      <trkpt lat="40.1757" lon="-4.0836">
        <ele>614.6</ele>
        <time>2020-08-16 07:25:53</time>
      </trkpt>
      <trkpt lat="40.17568" lon="-4.08367">
        <ele>614.2</ele>
        <time>2020-08-16 07:25:54</time>
      </trkpt>
      <trkpt lat="40.17566" lon="-4.08373">
        <ele>614</ele>
        <time>2020-08-16 07:25:55</time>
      </trkpt>
      <trkpt lat="40.17565" lon="-4.08379">
        <ele>613.8</ele>
        <time>2020-08-16 07:25:56</time>
      </trkpt>
      <trkpt lat="40.17563" lon="-4.08385">
        <ele>613.6</ele>
        <time>2020-08-16 07:25:57</time>
      </trkpt>
      <trkpt lat="40.1756" lon="-4.08391">
        <ele>613</ele>
        <time>2020-08-16 07:25:58</time>
      </trkpt>
      <trkpt lat="40.17556" lon="-4.08394">
        <ele>612.4</ele>
        <time>2020-08-16 07:25:59</time>
      </trkpt>
      <trkpt lat="40.17552" lon="-4.08397">
        <ele>612.2</ele>
        <time>2020-08-16 07:26:00</time>
      </trkpt>
      <trkpt lat="40.17547" lon="-4.08398">
        <ele>611.8</ele>
        <time>2020-08-16 07:26:01</time>
      </trkpt>
      <trkpt lat="40.17541" lon="-4.08399">
        <ele>611.4</ele>
        <time>2020-08-16 07:26:02</time>
      </trkpt>
      <trkpt lat="40.17536" lon="-4.08399">
        <ele>610.8</ele>
        <time>2020-08-16 07:26:03</time>
      </trkpt>
      <trkpt lat="40.17526" lon="-4.084">
        <ele>610.4</ele>
        <time>2020-08-16 07:26:05</time>
      </trkpt>
      <trkpt lat="40.17521" lon="-4.084">
        <ele>609.8</ele>
        <time>2020-08-16 07:26:06</time>
      </trkpt>
      <trkpt lat="40.17516" lon="-4.084">
        <ele>609.4</ele>
        <time>2020-08-16 07:26:07</time>
      </trkpt>
      <trkpt lat="40.17511" lon="-4.08401">
        <ele>609</ele>
        <time>2020-08-16 07:26:08</time>
      </trkpt>
      <trkpt lat="40.17506" lon="-4.08401">
        <ele>608.8</ele>
        <time>2020-08-16 07:26:09</time>
      </trkpt>
      <trkpt lat="40.175" lon="-4.08401">
        <ele>608.4</ele>
        <time>2020-08-16 07:26:10</time>
      </trkpt>
      <trkpt lat="40.1749" lon="-4.084">
        <ele>608</ele>
        <time>2020-08-16 07:26:12</time>
      </trkpt>
      <trkpt lat="40.17485" lon="-4.08398">
        <ele>607.8</ele>
        <time>2020-08-16 07:26:13</time>
      </trkpt>
      <trkpt lat="40.1748" lon="-4.08397">
        <ele>607.6</ele>
        <time>2020-08-16 07:26:14</time>
      </trkpt>
      <trkpt lat="40.17475" lon="-4.08394">
        <ele>607.2</ele>
        <time>2020-08-16 07:26:15</time>
      </trkpt>
      <trkpt lat="40.1747" lon="-4.08391">
        <ele>607</ele>
        <time>2020-08-16 07:26:16</time>
      </trkpt>
      <trkpt lat="40.17466" lon="-4.08389">
        <ele>606.6</ele>
        <time>2020-08-16 07:26:17</time>
      </trkpt>
      <trkpt lat="40.17461" lon="-4.08388">
        <ele>606.6</ele>
        <time>2020-08-16 07:26:18</time>
      </trkpt>
      <trkpt lat="40.17457" lon="-4.08388">
        <ele>606.4</ele>
        <time>2020-08-16 07:26:19</time>
      </trkpt>
      <trkpt lat="40.17454" lon="-4.08391">
        <ele>606.2</ele>
        <time>2020-08-16 07:26:20</time>
      </trkpt>
      <trkpt lat="40.1745" lon="-4.08393">
        <ele>606.2</ele>
        <time>2020-08-16 07:26:21</time>
      </trkpt>
      <trkpt lat="40.17447" lon="-4.08396">
        <ele>606</ele>
        <time>2020-08-16 07:26:22</time>
      </trkpt>
      <trkpt lat="40.17444" lon="-4.08397">
        <ele>606</ele>
        <time>2020-08-16 07:26:23</time>
      </trkpt>
      <trkpt lat="40.17442" lon="-4.08399">
        <ele>605.8</ele>
        <time>2020-08-16 07:26:24</time>
      </trkpt>
      <trkpt lat="40.17439" lon="-4.084">
        <ele>605.8</ele>
        <time>2020-08-16 07:26:25</time>
      </trkpt>
      <trkpt lat="40.17436" lon="-4.08401">
        <ele>606</ele>
        <time>2020-08-16 07:26:26</time>
      </trkpt>
      <trkpt lat="40.17434" lon="-4.08403">
        <ele>606</ele>
        <time>2020-08-16 07:26:27</time>
      </trkpt>
      <trkpt lat="40.17427" lon="-4.08406">
        <ele>606.2</ele>
        <time>2020-08-16 07:26:29</time>
      </trkpt>
      <trkpt lat="40.17424" lon="-4.08407">
        <ele>606.4</ele>
        <time>2020-08-16 07:26:30</time>
      </trkpt>
      <trkpt lat="40.17414" lon="-4.0841">
        <ele>606.8</ele>
        <time>2020-08-16 07:26:33</time>
      </trkpt>
      <trkpt lat="40.17407" lon="-4.08413">
        <ele>607.2</ele>
        <time>2020-08-16 07:26:35</time>
      </trkpt>
      <trkpt lat="40.17403" lon="-4.08414">
        <ele>607.4</ele>
        <time>2020-08-16 07:26:36</time>
      </trkpt>
      <trkpt lat="40.17399" lon="-4.08414">
        <ele>607.4</ele>
        <time>2020-08-16 07:26:37</time>
      </trkpt>
      <trkpt lat="40.17395" lon="-4.08415">
        <ele>607.6</ele>
        <time>2020-08-16 07:26:38</time>
      </trkpt>
      <trkpt lat="40.17391" lon="-4.08416">
        <ele>607.6</ele>
        <time>2020-08-16 07:26:39</time>
      </trkpt>
      <trkpt lat="40.17387" lon="-4.08417">
        <ele>607.6</ele>
        <time>2020-08-16 07:26:40</time>
      </trkpt>
      <trkpt lat="40.17372" lon="-4.08421">
        <ele>607.6</ele>
        <time>2020-08-16 07:26:43</time>
      </trkpt>
      <trkpt lat="40.17356" lon="-4.08427">
        <ele>607.4</ele>
        <time>2020-08-16 07:26:46</time>
      </trkpt>
      <trkpt lat="40.17351" lon="-4.08429">
        <ele>607.4</ele>
        <time>2020-08-16 07:26:47</time>
      </trkpt>
      <trkpt lat="40.17347" lon="-4.08431">
        <ele>607</ele>
        <time>2020-08-16 07:26:48</time>
      </trkpt>
      <trkpt lat="40.17343" lon="-4.08433">
        <ele>606.8</ele>
        <time>2020-08-16 07:26:49</time>
      </trkpt>
      <trkpt lat="40.1734" lon="-4.08436">
        <ele>606.4</ele>
        <time>2020-08-16 07:26:50</time>
      </trkpt>
      <trkpt lat="40.17336" lon="-4.08439">
        <ele>606.2</ele>
        <time>2020-08-16 07:26:51</time>
      </trkpt>
      <trkpt lat="40.17333" lon="-4.08442">
        <ele>606.2</ele>
        <time>2020-08-16 07:26:52</time>
      </trkpt>
      <trkpt lat="40.1733" lon="-4.08445">
        <ele>606</ele>
        <time>2020-08-16 07:26:53</time>
      </trkpt>
      <trkpt lat="40.17328" lon="-4.08447">
        <ele>606</ele>
        <time>2020-08-16 07:26:54</time>
      </trkpt>
      <trkpt lat="40.17325" lon="-4.08449">
        <ele>606.2</ele>
        <time>2020-08-16 07:26:55</time>
      </trkpt>
      <trkpt lat="40.17323" lon="-4.0845">
        <ele>606.2</ele>
        <time>2020-08-16 07:26:56</time>
      </trkpt>
      <trkpt lat="40.1732" lon="-4.08451">
        <ele>606.6</ele>
        <time>2020-08-16 07:26:57</time>
      </trkpt>
      <trkpt lat="40.17317" lon="-4.08452">
        <ele>607</ele>
        <time>2020-08-16 07:26:58</time>
      </trkpt>
      <trkpt lat="40.17314" lon="-4.08453">
        <ele>607</ele>
        <time>2020-08-16 07:26:59</time>
      </trkpt>
      <trkpt lat="40.17311" lon="-4.08453">
        <ele>607.2</ele>
        <time>2020-08-16 07:27:00</time>
      </trkpt>
      <trkpt lat="40.17308" lon="-4.08453">
        <ele>607.2</ele>
        <time>2020-08-16 07:27:01</time>
      </trkpt>
      <trkpt lat="40.17305" lon="-4.08454">
        <ele>607.2</ele>
        <time>2020-08-16 07:27:02</time>
      </trkpt>
      <trkpt lat="40.17302" lon="-4.08454">
        <ele>607.4</ele>
        <time>2020-08-16 07:27:03</time>
      </trkpt>
      <trkpt lat="40.17299" lon="-4.08455">
        <ele>607.4</ele>
        <time>2020-08-16 07:27:04</time>
      </trkpt>
      <trkpt lat="40.17296" lon="-4.08455">
        <ele>607.4</ele>
        <time>2020-08-16 07:27:05</time>
      </trkpt>
      <trkpt lat="40.17276" lon="-4.08458">
        <ele>607.8</ele>
        <time>2020-08-16 07:27:11</time>
      </trkpt>
      <trkpt lat="40.17261" lon="-4.08459">
        <ele>608.2</ele>
        <time>2020-08-16 07:27:16</time>
      </trkpt>
      <trkpt lat="40.17259" lon="-4.08459">
        <ele>608.2</ele>
        <time>2020-08-16 07:27:17</time>
      </trkpt>
      <trkpt lat="40.17256" lon="-4.08459">
        <ele>608.2</ele>
        <time>2020-08-16 07:27:18</time>
      </trkpt>
      <trkpt lat="40.17253" lon="-4.08459">
        <ele>608.4</ele>
        <time>2020-08-16 07:27:19</time>
      </trkpt>
      <trkpt lat="40.1725" lon="-4.08459">
        <ele>608.6</ele>
        <time>2020-08-16 07:27:20</time>
      </trkpt>
      <trkpt lat="40.17247" lon="-4.08459">
        <ele>609</ele>
        <time>2020-08-16 07:27:21</time>
      </trkpt>
      <trkpt lat="40.17245" lon="-4.08459">
        <ele>609.2</ele>
        <time>2020-08-16 07:27:22</time>
      </trkpt>
      <trkpt lat="40.17242" lon="-4.08459">
        <ele>609.6</ele>
        <time>2020-08-16 07:27:23</time>
      </trkpt>
      <trkpt lat="40.17239" lon="-4.08459">
        <ele>609.6</ele>
        <time>2020-08-16 07:27:24</time>
      </trkpt>
      <trkpt lat="40.17237" lon="-4.08459">
        <ele>609.8</ele>
        <time>2020-08-16 07:27:25</time>
      </trkpt>
      <trkpt lat="40.17234" lon="-4.08459">
        <ele>609.8</ele>
        <time>2020-08-16 07:27:26</time>
      </trkpt>
      <trkpt lat="40.17231" lon="-4.08459">
        <ele>610</ele>
        <time>2020-08-16 07:27:27</time>
      </trkpt>
      <trkpt lat="40.17228" lon="-4.08458">
        <ele>610</ele>
        <time>2020-08-16 07:27:28</time>
      </trkpt>
      <trkpt lat="40.17226" lon="-4.08458">
        <ele>610.2</ele>
        <time>2020-08-16 07:27:29</time>
      </trkpt>
      <trkpt lat="40.17223" lon="-4.08457">
        <ele>610.2</ele>
        <time>2020-08-16 07:27:30</time>
      </trkpt>
      <trkpt lat="40.1722" lon="-4.08457">
        <ele>610.2</ele>
        <time>2020-08-16 07:27:31</time>
      </trkpt>
      <trkpt lat="40.17217" lon="-4.08456">
        <ele>610.4</ele>
        <time>2020-08-16 07:27:32</time>
      </trkpt>
      <trkpt lat="40.17214" lon="-4.08455">
        <ele>610.6</ele>
        <time>2020-08-16 07:27:33</time>
      </trkpt>
      <trkpt lat="40.17211" lon="-4.08454">
        <ele>610.6</ele>
        <time>2020-08-16 07:27:34</time>
      </trkpt>
      <trkpt lat="40.17209" lon="-4.08452">
        <ele>610.8</ele>
        <time>2020-08-16 07:27:35</time>
      </trkpt>
      <trkpt lat="40.17206" lon="-4.0845">
        <ele>610.8</ele>
        <time>2020-08-16 07:27:36</time>
      </trkpt>
      <trkpt lat="40.172" lon="-4.08447">
        <ele>610.8</ele>
        <time>2020-08-16 07:27:38</time>
      </trkpt>
      <trkpt lat="40.17196" lon="-4.08445">
        <ele>611</ele>
        <time>2020-08-16 07:27:39</time>
      </trkpt>
      <trkpt lat="40.1719" lon="-4.08442">
        <ele>611</ele>
        <time>2020-08-16 07:27:41</time>
      </trkpt>
      <trkpt lat="40.1718" lon="-4.08437">
        <ele>611</ele>
        <time>2020-08-16 07:27:44</time>
      </trkpt>
      <trkpt lat="40.17177" lon="-4.08436">
        <ele>611</ele>
        <time>2020-08-16 07:27:45</time>
      </trkpt>
      <trkpt lat="40.17167" lon="-4.08432">
        <ele>611.2</ele>
        <time>2020-08-16 07:27:48</time>
      </trkpt>
      <trkpt lat="40.17164" lon="-4.0843">
        <ele>611.2</ele>
        <time>2020-08-16 07:27:49</time>
      </trkpt>
      <trkpt lat="40.17161" lon="-4.08429">
        <ele>611.2</ele>
        <time>2020-08-16 07:27:50</time>
      </trkpt>
      <trkpt lat="40.17157" lon="-4.08427">
        <ele>611.2</ele>
        <time>2020-08-16 07:27:51</time>
      </trkpt>
      <trkpt lat="40.17151" lon="-4.08422">
        <ele>611.6</ele>
        <time>2020-08-16 07:27:53</time>
      </trkpt>
      <trkpt lat="40.17148" lon="-4.08419">
        <ele>611.6</ele>
        <time>2020-08-16 07:27:54</time>
      </trkpt>
      <trkpt lat="40.17124" lon="-4.08397">
        <ele>611.8</ele>
        <time>2020-08-16 07:28:01</time>
      </trkpt>
      <trkpt lat="40.1712" lon="-4.08395">
        <ele>611.8</ele>
        <time>2020-08-16 07:28:02</time>
      </trkpt>
      <trkpt lat="40.17112" lon="-4.08392">
        <ele>611.8</ele>
        <time>2020-08-16 07:28:04</time>
      </trkpt>
      <trkpt lat="40.17107" lon="-4.08391">
        <ele>611.8</ele>
        <time>2020-08-16 07:28:05</time>
      </trkpt>
      <trkpt lat="40.171" lon="-4.08391">
        <ele>611.6</ele>
        <time>2020-08-16 07:28:07</time>
      </trkpt>
      <trkpt lat="40.17092" lon="-4.08392">
        <ele>611.6</ele>
        <time>2020-08-16 07:28:09</time>
      </trkpt>
      <trkpt lat="40.17088" lon="-4.08393">
        <ele>611.6</ele>
        <time>2020-08-16 07:28:10</time>
      </trkpt>
      <trkpt lat="40.17084" lon="-4.08393">
        <ele>611.6</ele>
        <time>2020-08-16 07:28:11</time>
      </trkpt>
      <trkpt lat="40.1708" lon="-4.08393">
        <ele>611.6</ele>
        <time>2020-08-16 07:28:12</time>
      </trkpt>
      <trkpt lat="40.17076" lon="-4.08393">
        <ele>611.6</ele>
        <time>2020-08-16 07:28:13</time>
      </trkpt>
      <trkpt lat="40.17072" lon="-4.08393">
        <ele>611.8</ele>
        <time>2020-08-16 07:28:14</time>
      </trkpt>
      <trkpt lat="40.17068" lon="-4.08394">
        <ele>611.8</ele>
        <time>2020-08-16 07:28:15</time>
      </trkpt>
      <trkpt lat="40.17064" lon="-4.08395">
        <ele>611.8</ele>
        <time>2020-08-16 07:28:16</time>
      </trkpt>
      <trkpt lat="40.1706" lon="-4.08395">
        <ele>611.8</ele>
        <time>2020-08-16 07:28:17</time>
      </trkpt>
      <trkpt lat="40.17056" lon="-4.08396">
        <ele>611.8</ele>
        <time>2020-08-16 07:28:18</time>
      </trkpt>
      <trkpt lat="40.17024" lon="-4.08404">
        <ele>612</ele>
        <time>2020-08-16 07:28:26</time>
      </trkpt>
      <trkpt lat="40.17021" lon="-4.08406">
        <ele>612</ele>
        <time>2020-08-16 07:28:27</time>
      </trkpt>
      <trkpt lat="40.17021" lon="-4.08406">
        <ele>612</ele>
        <time>2020-08-16 07:28:28</time>
      </trkpt>
      <trkpt lat="40.17014" lon="-4.08413">
        <ele>612</ele>
        <time>2020-08-16 07:28:29</time>
      </trkpt>
      <trkpt lat="40.17001" lon="-4.08427">
        <ele>612</ele>
        <time>2020-08-16 07:28:33</time>
      </trkpt>
      <trkpt lat="40.16998" lon="-4.08432">
        <ele>612</ele>
        <time>2020-08-16 07:28:34</time>
      </trkpt>
      <trkpt lat="40.16996" lon="-4.08435">
        <ele>612</ele>
        <time>2020-08-16 07:28:35</time>
      </trkpt>
      <trkpt lat="40.16993" lon="-4.08439">
        <ele>611.8</ele>
        <time>2020-08-16 07:28:36</time>
      </trkpt>
      <trkpt lat="40.1699" lon="-4.08443">
        <ele>611.8</ele>
        <time>2020-08-16 07:28:37</time>
      </trkpt>
      <trkpt lat="40.16988" lon="-4.08448">
        <ele>611.8</ele>
        <time>2020-08-16 07:28:38</time>
      </trkpt>
      <trkpt lat="40.16985" lon="-4.08452">
        <ele>611.8</ele>
        <time>2020-08-16 07:28:39</time>
      </trkpt>
      <trkpt lat="40.16983" lon="-4.08456">
        <ele>611.8</ele>
        <time>2020-08-16 07:28:40</time>
      </trkpt>
      <trkpt lat="40.16981" lon="-4.0846">
        <ele>612</ele>
        <time>2020-08-16 07:28:41</time>
      </trkpt>
      <trkpt lat="40.16978" lon="-4.08464">
        <ele>612</ele>
        <time>2020-08-16 07:28:42</time>
      </trkpt>
      <trkpt lat="40.16975" lon="-4.08468">
        <ele>612</ele>
        <time>2020-08-16 07:28:43</time>
      </trkpt>
      <trkpt lat="40.16972" lon="-4.08472">
        <ele>612.2</ele>
        <time>2020-08-16 07:28:44</time>
      </trkpt>
      <trkpt lat="40.16969" lon="-4.08476">
        <ele>612.2</ele>
        <time>2020-08-16 07:28:45</time>
      </trkpt>
      <trkpt lat="40.16967" lon="-4.0848">
        <ele>612.2</ele>
        <time>2020-08-16 07:28:46</time>
      </trkpt>
      <trkpt lat="40.16964" lon="-4.08484">
        <ele>612.2</ele>
        <time>2020-08-16 07:28:47</time>
      </trkpt>
      <trkpt lat="40.16961" lon="-4.08487">
        <ele>612.2</ele>
        <time>2020-08-16 07:28:48</time>
      </trkpt>
      <trkpt lat="40.16957" lon="-4.0849">
        <ele>612.2</ele>
        <time>2020-08-16 07:28:49</time>
      </trkpt>
      <trkpt lat="40.16954" lon="-4.08493">
        <ele>612.2</ele>
        <time>2020-08-16 07:28:50</time>
      </trkpt>
      <trkpt lat="40.16951" lon="-4.08496">
        <ele>612.2</ele>
        <time>2020-08-16 07:28:51</time>
      </trkpt>
      <trkpt lat="40.16947" lon="-4.08499">
        <ele>612.4</ele>
        <time>2020-08-16 07:28:52</time>
      </trkpt>
      <trkpt lat="40.16944" lon="-4.08501">
        <ele>612.4</ele>
        <time>2020-08-16 07:28:53</time>
      </trkpt>
      <trkpt lat="40.1694" lon="-4.08504">
        <ele>612.4</ele>
        <time>2020-08-16 07:28:54</time>
      </trkpt>
      <trkpt lat="40.16937" lon="-4.08506">
        <ele>612.4</ele>
        <time>2020-08-16 07:28:55</time>
      </trkpt>
      <trkpt lat="40.16933" lon="-4.08509">
        <ele>612.4</ele>
        <time>2020-08-16 07:28:56</time>
      </trkpt>
      <trkpt lat="40.1693" lon="-4.08511">
        <ele>612.6</ele>
        <time>2020-08-16 07:28:57</time>
      </trkpt>
      <trkpt lat="40.16907" lon="-4.08527">
        <ele>612.6</ele>
        <time>2020-08-16 07:29:03</time>
      </trkpt>
      <trkpt lat="40.16904" lon="-4.0853">
        <ele>612.8</ele>
        <time>2020-08-16 07:29:04</time>
      </trkpt>
      <trkpt lat="40.16901" lon="-4.08532">
        <ele>612.8</ele>
        <time>2020-08-16 07:29:05</time>
      </trkpt>
      <trkpt lat="40.16897" lon="-4.08534">
        <ele>612.8</ele>
        <time>2020-08-16 07:29:06</time>
      </trkpt>
      <trkpt lat="40.16894" lon="-4.08537">
        <ele>612.8</ele>
        <time>2020-08-16 07:29:07</time>
      </trkpt>
      <trkpt lat="40.16891" lon="-4.08539">
        <ele>612.8</ele>
        <time>2020-08-16 07:29:08</time>
      </trkpt>
      <trkpt lat="40.16888" lon="-4.08542">
        <ele>613</ele>
        <time>2020-08-16 07:29:09</time>
      </trkpt>
      <trkpt lat="40.16884" lon="-4.08544">
        <ele>612.8</ele>
        <time>2020-08-16 07:29:10</time>
      </trkpt>
      <trkpt lat="40.16881" lon="-4.08546">
        <ele>613</ele>
        <time>2020-08-16 07:29:11</time>
      </trkpt>
      <trkpt lat="40.16878" lon="-4.08548">
        <ele>613.2</ele>
        <time>2020-08-16 07:29:12</time>
      </trkpt>
      <trkpt lat="40.16875" lon="-4.08548">
        <ele>613.2</ele>
        <time>2020-08-16 07:29:13</time>
      </trkpt>
      <trkpt lat="40.16871" lon="-4.08548">
        <ele>613</ele>
        <time>2020-08-16 07:29:14</time>
      </trkpt>
      <trkpt lat="40.16867" lon="-4.08546">
        <ele>613</ele>
        <time>2020-08-16 07:29:15</time>
      </trkpt>
      <trkpt lat="40.16864" lon="-4.08543">
        <ele>613</ele>
        <time>2020-08-16 07:29:16</time>
      </trkpt>
      <trkpt lat="40.16861" lon="-4.08538">
        <ele>612.8</ele>
        <time>2020-08-16 07:29:17</time>
      </trkpt>
      <trkpt lat="40.16859" lon="-4.08533">
        <ele>612.8</ele>
        <time>2020-08-16 07:29:18</time>
      </trkpt>
      <trkpt lat="40.1685" lon="-4.0851">
        <ele>612.6</ele>
        <time>2020-08-16 07:29:22</time>
      </trkpt>
      <trkpt lat="40.16846" lon="-4.08499">
        <ele>612.4</ele>
        <time>2020-08-16 07:29:24</time>
      </trkpt>
      <trkpt lat="40.16844" lon="-4.08493">
        <ele>612.2</ele>
        <time>2020-08-16 07:29:25</time>
      </trkpt>
      <trkpt lat="40.16841" lon="-4.08488">
        <ele>612</ele>
        <time>2020-08-16 07:29:26</time>
      </trkpt>
      <trkpt lat="40.16835" lon="-4.08479">
        <ele>611.6</ele>
        <time>2020-08-16 07:29:28</time>
      </trkpt>
      <trkpt lat="40.16831" lon="-4.08474">
        <ele>611.4</ele>
        <time>2020-08-16 07:29:29</time>
      </trkpt>
      <trkpt lat="40.16828" lon="-4.0847">
        <ele>611.2</ele>
        <time>2020-08-16 07:29:30</time>
      </trkpt>
      <trkpt lat="40.16825" lon="-4.08465">
        <ele>611.2</ele>
        <time>2020-08-16 07:29:31</time>
      </trkpt>
      <trkpt lat="40.16816" lon="-4.08451">
        <ele>610.8</ele>
        <time>2020-08-16 07:29:34</time>
      </trkpt>
      <trkpt lat="40.16812" lon="-4.08447">
        <ele>610.8</ele>
        <time>2020-08-16 07:29:35</time>
      </trkpt>
      <trkpt lat="40.16808" lon="-4.08444">
        <ele>610.6</ele>
        <time>2020-08-16 07:29:36</time>
      </trkpt>
      <trkpt lat="40.16804" lon="-4.0844">
        <ele>610.6</ele>
        <time>2020-08-16 07:29:37</time>
      </trkpt>
      <trkpt lat="40.16801" lon="-4.08436">
        <ele>610.6</ele>
        <time>2020-08-16 07:29:38</time>
      </trkpt>
      <trkpt lat="40.16799" lon="-4.08431">
        <ele>610.4</ele>
        <time>2020-08-16 07:29:39</time>
      </trkpt>
      <trkpt lat="40.16796" lon="-4.08426">
        <ele>610.4</ele>
        <time>2020-08-16 07:29:40</time>
      </trkpt>
      <trkpt lat="40.16793" lon="-4.08422">
        <ele>610.2</ele>
        <time>2020-08-16 07:29:41</time>
      </trkpt>
      <trkpt lat="40.16791" lon="-4.08417">
        <ele>610.2</ele>
        <time>2020-08-16 07:29:42</time>
      </trkpt>
      <trkpt lat="40.16788" lon="-4.08412">
        <ele>610</ele>
        <time>2020-08-16 07:29:43</time>
      </trkpt>
      <trkpt lat="40.16785" lon="-4.08408">
        <ele>609.8</ele>
        <time>2020-08-16 07:29:44</time>
      </trkpt>
      <trkpt lat="40.16782" lon="-4.08405">
        <ele>609.8</ele>
        <time>2020-08-16 07:29:45</time>
      </trkpt>
      <trkpt lat="40.16778" lon="-4.08405">
        <ele>609.6</ele>
        <time>2020-08-16 07:29:46</time>
      </trkpt>
      <trkpt lat="40.16774" lon="-4.08406">
        <ele>609.6</ele>
        <time>2020-08-16 07:29:47</time>
      </trkpt>
      <trkpt lat="40.16771" lon="-4.08409">
        <ele>609.6</ele>
        <time>2020-08-16 07:29:48</time>
      </trkpt>
      <trkpt lat="40.16767" lon="-4.08411">
        <ele>609.6</ele>
        <time>2020-08-16 07:29:49</time>
      </trkpt>
      <trkpt lat="40.16764" lon="-4.08413">
        <ele>609.6</ele>
        <time>2020-08-16 07:29:50</time>
      </trkpt>
      <trkpt lat="40.1676" lon="-4.08415">
        <ele>609.4</ele>
        <time>2020-08-16 07:29:51</time>
      </trkpt>
      <trkpt lat="40.16756" lon="-4.08417">
        <ele>609.4</ele>
        <time>2020-08-16 07:29:52</time>
      </trkpt>
      <trkpt lat="40.16752" lon="-4.08419">
        <ele>609.4</ele>
        <time>2020-08-16 07:29:53</time>
      </trkpt>
      <trkpt lat="40.16748" lon="-4.08421">
        <ele>609.4</ele>
        <time>2020-08-16 07:29:54</time>
      </trkpt>
      <trkpt lat="40.16744" lon="-4.08422">
        <ele>609.4</ele>
        <time>2020-08-16 07:29:55</time>
      </trkpt>
      <trkpt lat="40.16739" lon="-4.08424">
        <ele>609.2</ele>
        <time>2020-08-16 07:29:56</time>
      </trkpt>
      <trkpt lat="40.16735" lon="-4.08425">
        <ele>609.2</ele>
        <time>2020-08-16 07:29:57</time>
      </trkpt>
      <trkpt lat="40.16731" lon="-4.08426">
        <ele>609.2</ele>
        <time>2020-08-16 07:29:58</time>
      </trkpt>
      <trkpt lat="40.16726" lon="-4.08427">
        <ele>609.2</ele>
        <time>2020-08-16 07:29:59</time>
      </trkpt>
      <trkpt lat="40.16726" lon="-4.08427">
        <ele>609.2</ele>
        <time>2020-08-16 07:30:00</time>
      </trkpt>
      <trkpt lat="40.16718" lon="-4.08429">
        <ele>609.2</ele>
        <time>2020-08-16 07:30:01</time>
      </trkpt>
      <trkpt lat="40.16696" lon="-4.08432">
        <ele>609.2</ele>
        <time>2020-08-16 07:30:06</time>
      </trkpt>
      <trkpt lat="40.16682" lon="-4.08434">
        <ele>609.2</ele>
        <time>2020-08-16 07:30:09</time>
      </trkpt>
      <trkpt lat="40.16678" lon="-4.08433">
        <ele>609.2</ele>
        <time>2020-08-16 07:30:10</time>
      </trkpt>
      <trkpt lat="40.16674" lon="-4.08431">
        <ele>609.2</ele>
        <time>2020-08-16 07:30:11</time>
      </trkpt>
      <trkpt lat="40.16671" lon="-4.08428">
        <ele>609.2</ele>
        <time>2020-08-16 07:30:12</time>
      </trkpt>
      <trkpt lat="40.16669" lon="-4.08423">
        <ele>609</ele>
        <time>2020-08-16 07:30:13</time>
      </trkpt>
      <trkpt lat="40.16668" lon="-4.08418">
        <ele>609</ele>
        <time>2020-08-16 07:30:14</time>
      </trkpt>
      <trkpt lat="40.16668" lon="-4.08412">
        <ele>609</ele>
        <time>2020-08-16 07:30:15</time>
      </trkpt>
      <trkpt lat="40.16668" lon="-4.08407">
        <ele>608.8</ele>
        <time>2020-08-16 07:30:16</time>
      </trkpt>
      <trkpt lat="40.16667" lon="-4.08402">
        <ele>608.8</ele>
        <time>2020-08-16 07:30:17</time>
      </trkpt>
      <trkpt lat="40.16666" lon="-4.08397">
        <ele>608.6</ele>
        <time>2020-08-16 07:30:18</time>
      </trkpt>
      <trkpt lat="40.16666" lon="-4.08392">
        <ele>608.6</ele>
        <time>2020-08-16 07:30:19</time>
      </trkpt>
      <trkpt lat="40.16665" lon="-4.08387">
        <ele>608.6</ele>
        <time>2020-08-16 07:30:20</time>
      </trkpt>
      <trkpt lat="40.16664" lon="-4.08382">
        <ele>608.4</ele>
        <time>2020-08-16 07:30:21</time>
      </trkpt>
      <trkpt lat="40.16663" lon="-4.08376">
        <ele>608.4</ele>
        <time>2020-08-16 07:30:22</time>
      </trkpt>
      <trkpt lat="40.16662" lon="-4.08365">
        <ele>608.4</ele>
        <time>2020-08-16 07:30:24</time>
      </trkpt>
      <trkpt lat="40.16661" lon="-4.08337">
        <ele>608.6</ele>
        <time>2020-08-16 07:30:29</time>
      </trkpt>
      <trkpt lat="40.1666" lon="-4.0832">
        <ele>608.2</ele>
        <time>2020-08-16 07:30:32</time>
      </trkpt>
      <trkpt lat="40.16659" lon="-4.08297">
        <ele>608.2</ele>
        <time>2020-08-16 07:30:36</time>
      </trkpt>
      <trkpt lat="40.16658" lon="-4.08292">
        <ele>608.2</ele>
        <time>2020-08-16 07:30:37</time>
      </trkpt>
      <trkpt lat="40.16656" lon="-4.08287">
        <ele>608.2</ele>
        <time>2020-08-16 07:30:38</time>
      </trkpt>
      <trkpt lat="40.16654" lon="-4.08282">
        <ele>608.2</ele>
        <time>2020-08-16 07:30:39</time>
      </trkpt>
      <trkpt lat="40.1665" lon="-4.08278">
        <ele>608.2</ele>
        <time>2020-08-16 07:30:40</time>
      </trkpt>
      <trkpt lat="40.16644" lon="-4.08269">
        <ele>608</ele>
        <time>2020-08-16 07:30:42</time>
      </trkpt>
      <trkpt lat="40.1664" lon="-4.08265">
        <ele>608</ele>
        <time>2020-08-16 07:30:43</time>
      </trkpt>
      <trkpt lat="40.16614" lon="-4.08232">
        <ele>607.2</ele>
        <time>2020-08-16 07:30:50</time>
      </trkpt>
      <trkpt lat="40.16605" lon="-4.08221">
        <ele>606.8</ele>
        <time>2020-08-16 07:30:52</time>
      </trkpt>
      <trkpt lat="40.16597" lon="-4.08212">
        <ele>606.6</ele>
        <time>2020-08-16 07:30:54</time>
      </trkpt>
      <trkpt lat="40.16594" lon="-4.08207">
        <ele>606.6</ele>
        <time>2020-08-16 07:30:55</time>
      </trkpt>
      <trkpt lat="40.16593" lon="-4.08203">
        <ele>606.4</ele>
        <time>2020-08-16 07:30:56</time>
      </trkpt>
      <trkpt lat="40.16592" lon="-4.08198">
        <ele>606.4</ele>
        <time>2020-08-16 07:30:57</time>
      </trkpt>
      <trkpt lat="40.16592" lon="-4.08193">
        <ele>606</ele>
        <time>2020-08-16 07:30:58</time>
      </trkpt>
      <trkpt lat="40.16591" lon="-4.08187">
        <ele>605.8</ele>
        <time>2020-08-16 07:30:59</time>
      </trkpt>
      <trkpt lat="40.1659" lon="-4.0818">
        <ele>605.6</ele>
        <time>2020-08-16 07:31:00</time>
      </trkpt>
      <trkpt lat="40.16587" lon="-4.08174">
        <ele>605.2</ele>
        <time>2020-08-16 07:31:01</time>
      </trkpt>
      <trkpt lat="40.16585" lon="-4.08167">
        <ele>605</ele>
        <time>2020-08-16 07:31:02</time>
      </trkpt>
      <trkpt lat="40.16577" lon="-4.08147">
        <ele>603.8</ele>
        <time>2020-08-16 07:31:05</time>
      </trkpt>
      <trkpt lat="40.16574" lon="-4.0814">
        <ele>603.2</ele>
        <time>2020-08-16 07:31:06</time>
      </trkpt>
      <trkpt lat="40.16572" lon="-4.08134">
        <ele>602.8</ele>
        <time>2020-08-16 07:31:07</time>
      </trkpt>
      <trkpt lat="40.16563" lon="-4.08112">
        <ele>601.6</ele>
        <time>2020-08-16 07:31:10</time>
      </trkpt>
      <trkpt lat="40.16556" lon="-4.0809">
        <ele>600.8</ele>
        <time>2020-08-16 07:31:13</time>
      </trkpt>
      <trkpt lat="40.16551" lon="-4.08076">
        <ele>600.6</ele>
        <time>2020-08-16 07:31:15</time>
      </trkpt>
      <trkpt lat="40.16539" lon="-4.08035">
        <ele>599.6</ele>
        <time>2020-08-16 07:31:21</time>
      </trkpt>
      <trkpt lat="40.16537" lon="-4.08028">
        <ele>599.4</ele>
        <time>2020-08-16 07:31:22</time>
      </trkpt>
      <trkpt lat="40.16535" lon="-4.08022">
        <ele>599.4</ele>
        <time>2020-08-16 07:31:23</time>
      </trkpt>
      <trkpt lat="40.16534" lon="-4.08016">
        <ele>599.2</ele>
        <time>2020-08-16 07:31:24</time>
      </trkpt>
      <trkpt lat="40.16533" lon="-4.08011">
        <ele>599</ele>
        <time>2020-08-16 07:31:25</time>
      </trkpt>
      <trkpt lat="40.16532" lon="-4.08007">
        <ele>599</ele>
        <time>2020-08-16 07:31:26</time>
      </trkpt>
      <trkpt lat="40.1653" lon="-4.08005">
        <ele>599</ele>
        <time>2020-08-16 07:31:27</time>
      </trkpt>
      <trkpt lat="40.16528" lon="-4.08003">
        <ele>599</ele>
        <time>2020-08-16 07:31:28</time>
      </trkpt>
      <trkpt lat="40.16526" lon="-4.08">
        <ele>599</ele>
        <time>2020-08-16 07:31:29</time>
      </trkpt>
      <trkpt lat="40.16521" lon="-4.07996">
        <ele>598.6</ele>
        <time>2020-08-16 07:31:31</time>
      </trkpt>
      <trkpt lat="40.16519" lon="-4.07995">
        <ele>598.4</ele>
        <time>2020-08-16 07:31:32</time>
      </trkpt>
      <trkpt lat="40.16517" lon="-4.07994">
        <ele>598.2</ele>
        <time>2020-08-16 07:31:33</time>
      </trkpt>
      <trkpt lat="40.16516" lon="-4.07993">
        <ele>598</ele>
        <time>2020-08-16 07:31:34</time>
      </trkpt>
      <trkpt lat="40.16515" lon="-4.07993">
        <ele>598</ele>
        <time>2020-08-16 07:31:36</time>
      </trkpt>
      <trkpt lat="40.16514" lon="-4.08004">
        <ele>597.8</ele>
        <time>2020-08-16 07:36:47</time>
      </trkpt>
      <trkpt lat="40.16514" lon="-4.08007">
        <ele>597.8</ele>
        <time>2020-08-16 07:36:48</time>
      </trkpt>
      <trkpt lat="40.16514" lon="-4.0801">
        <ele>597.8</ele>
        <time>2020-08-16 07:36:49</time>
      </trkpt>
      <trkpt lat="40.16513" lon="-4.08014">
        <ele>597.8</ele>
        <time>2020-08-16 07:36:50</time>
      </trkpt>
      <trkpt lat="40.16511" lon="-4.08025">
        <ele>597.6</ele>
        <time>2020-08-16 07:36:53</time>
      </trkpt>
      <trkpt lat="40.1651" lon="-4.08029">
        <ele>597.6</ele>
        <time>2020-08-16 07:36:54</time>
      </trkpt>
      <trkpt lat="40.16506" lon="-4.08042">
        <ele>597.6</ele>
        <time>2020-08-16 07:36:58</time>
      </trkpt>
      <trkpt lat="40.16503" lon="-4.08053">
        <ele>597.8</ele>
        <time>2020-08-16 07:37:01</time>
      </trkpt>
      <trkpt lat="40.16503" lon="-4.08056">
        <ele>597.8</ele>
        <time>2020-08-16 07:37:02</time>
      </trkpt>
      <trkpt lat="40.16503" lon="-4.08059">
        <ele>597.8</ele>
        <time>2020-08-16 07:37:03</time>
      </trkpt>
      <trkpt lat="40.16501" lon="-4.08062">
        <ele>597.8</ele>
        <time>2020-08-16 07:37:04</time>
      </trkpt>
      <trkpt lat="40.16501" lon="-4.08064">
        <ele>597.8</ele>
        <time>2020-08-16 07:37:05</time>
      </trkpt>
      <trkpt lat="40.165" lon="-4.08066">
        <ele>597.8</ele>
        <time>2020-08-16 07:37:06</time>
      </trkpt>
      <trkpt lat="40.16498" lon="-4.08069">
        <ele>597.8</ele>
        <time>2020-08-16 07:37:07</time>
      </trkpt>
      <trkpt lat="40.16497" lon="-4.08071">
        <ele>597.8</ele>
        <time>2020-08-16 07:37:08</time>
      </trkpt>
      <trkpt lat="40.16496" lon="-4.08074">
        <ele>597.8</ele>
        <time>2020-08-16 07:37:09</time>
      </trkpt>
      <trkpt lat="40.16494" lon="-4.08077">
        <ele>597.8</ele>
        <time>2020-08-16 07:37:10</time>
      </trkpt>
      <trkpt lat="40.16493" lon="-4.0808">
        <ele>597.8</ele>
        <time>2020-08-16 07:37:11</time>
      </trkpt>
      <trkpt lat="40.16493" lon="-4.08083">
        <ele>597.8</ele>
        <time>2020-08-16 07:37:12</time>
      </trkpt>
      <trkpt lat="40.1649" lon="-4.0809">
        <ele>598</ele>
        <time>2020-08-16 07:37:14</time>
      </trkpt>
      <trkpt lat="40.16488" lon="-4.08097">
        <ele>598</ele>
        <time>2020-08-16 07:37:16</time>
      </trkpt>
      <trkpt lat="40.16486" lon="-4.08105">
        <ele>598</ele>
        <time>2020-08-16 07:37:18</time>
      </trkpt>
      <trkpt lat="40.16481" lon="-4.08116">
        <ele>598</ele>
        <time>2020-08-16 07:37:22</time>
      </trkpt>
      <trkpt lat="40.1648" lon="-4.08119">
        <ele>598</ele>
        <time>2020-08-16 07:37:23</time>
      </trkpt>
      <trkpt lat="40.16479" lon="-4.08123">
        <ele>598</ele>
        <time>2020-08-16 07:37:25</time>
      </trkpt>
      <trkpt lat="40.16479" lon="-4.08125">
        <ele>598</ele>
        <time>2020-08-16 07:37:26</time>
      </trkpt>
      <trkpt lat="40.16478" lon="-4.08128">
        <ele>598.2</ele>
        <time>2020-08-16 07:37:27</time>
      </trkpt>
      <trkpt lat="40.16477" lon="-4.0813">
        <ele>598.2</ele>
        <time>2020-08-16 07:37:28</time>
      </trkpt>
      <trkpt lat="40.16476" lon="-4.08133">
        <ele>598.2</ele>
        <time>2020-08-16 07:37:29</time>
      </trkpt>
      <trkpt lat="40.16475" lon="-4.08136">
        <ele>598</ele>
        <time>2020-08-16 07:37:30</time>
      </trkpt>
      <trkpt lat="40.16474" lon="-4.08139">
        <ele>598</ele>
        <time>2020-08-16 07:37:31</time>
      </trkpt>
      <trkpt lat="40.16473" lon="-4.08142">
        <ele>598</ele>
        <time>2020-08-16 07:37:32</time>
      </trkpt>
      <trkpt lat="40.16473" lon="-4.08144">
        <ele>598</ele>
        <time>2020-08-16 07:37:33</time>
      </trkpt>
      <trkpt lat="40.16473" lon="-4.08147">
        <ele>598</ele>
        <time>2020-08-16 07:37:34</time>
      </trkpt>
      <trkpt lat="40.16472" lon="-4.0815">
        <ele>598</ele>
        <time>2020-08-16 07:37:35</time>
      </trkpt>
      <trkpt lat="40.1647" lon="-4.08158">
        <ele>598</ele>
        <time>2020-08-16 07:37:38</time>
      </trkpt>
      <trkpt lat="40.16469" lon="-4.0816">
        <ele>598</ele>
        <time>2020-08-16 07:37:39</time>
      </trkpt>
      <trkpt lat="40.16469" lon="-4.08162">
        <ele>598</ele>
        <time>2020-08-16 07:37:40</time>
      </trkpt>
      <trkpt lat="40.16469" lon="-4.08164">
        <ele>598</ele>
        <time>2020-08-16 07:37:41</time>
      </trkpt>
      <trkpt lat="40.16468" lon="-4.08167">
        <ele>598</ele>
        <time>2020-08-16 07:37:42</time>
      </trkpt>
      <trkpt lat="40.16467" lon="-4.0817">
        <ele>598</ele>
        <time>2020-08-16 07:37:43</time>
      </trkpt>
      <trkpt lat="40.16467" lon="-4.08172">
        <ele>598</ele>
        <time>2020-08-16 07:37:44</time>
      </trkpt>
      <trkpt lat="40.16466" lon="-4.08174">
        <ele>598.2</ele>
        <time>2020-08-16 07:37:45</time>
      </trkpt>
      <trkpt lat="40.16466" lon="-4.08177">
        <ele>598.2</ele>
        <time>2020-08-16 07:37:46</time>
      </trkpt>
      <trkpt lat="40.16465" lon="-4.08179">
        <ele>598.2</ele>
        <time>2020-08-16 07:37:47</time>
      </trkpt>
      <trkpt lat="40.16464" lon="-4.08181">
        <ele>598.2</ele>
        <time>2020-08-16 07:37:48</time>
      </trkpt>
      <trkpt lat="40.16463" lon="-4.08183">
        <ele>598.2</ele>
        <time>2020-08-16 07:37:49</time>
      </trkpt>
      <trkpt lat="40.16462" lon="-4.08186">
        <ele>598.2</ele>
        <time>2020-08-16 07:37:50</time>
      </trkpt>
      <trkpt lat="40.16461" lon="-4.08193">
        <ele>598.4</ele>
        <time>2020-08-16 07:37:53</time>
      </trkpt>
      <trkpt lat="40.1646" lon="-4.08194">
        <ele>598.4</ele>
        <time>2020-08-16 07:37:54</time>
      </trkpt>
      <trkpt lat="40.1646" lon="-4.08196">
        <ele>598.4</ele>
        <time>2020-08-16 07:37:55</time>
      </trkpt>
      <trkpt lat="40.16459" lon="-4.08198">
        <ele>598.4</ele>
        <time>2020-08-16 07:37:56</time>
      </trkpt>
      <trkpt lat="40.16459" lon="-4.082">
        <ele>598.4</ele>
        <time>2020-08-16 07:37:57</time>
      </trkpt>
      <trkpt lat="40.16456" lon="-4.08209">
        <ele>598.4</ele>
        <time>2020-08-16 07:38:00</time>
      </trkpt>
      <trkpt lat="40.16455" lon="-4.08212">
        <ele>598.4</ele>
        <time>2020-08-16 07:38:01</time>
      </trkpt>
      <trkpt lat="40.16455" lon="-4.08215">
        <ele>598.6</ele>
        <time>2020-08-16 07:38:02</time>
      </trkpt>
      <trkpt lat="40.16454" lon="-4.08218">
        <ele>598.6</ele>
        <time>2020-08-16 07:38:03</time>
      </trkpt>
      <trkpt lat="40.16452" lon="-4.08224">
        <ele>598.8</ele>
        <time>2020-08-16 07:38:05</time>
      </trkpt>
      <trkpt lat="40.16451" lon="-4.08227">
        <ele>598.8</ele>
        <time>2020-08-16 07:38:06</time>
      </trkpt>
      <trkpt lat="40.1645" lon="-4.08229">
        <ele>598.8</ele>
        <time>2020-08-16 07:38:07</time>
      </trkpt>
      <trkpt lat="40.16448" lon="-4.08231">
        <ele>598.8</ele>
        <time>2020-08-16 07:38:08</time>
      </trkpt>
      <trkpt lat="40.16446" lon="-4.08235">
        <ele>598.8</ele>
        <time>2020-08-16 07:38:10</time>
      </trkpt>
      <trkpt lat="40.16446" lon="-4.08235">
        <ele>598.8</ele>
        <time>2020-08-16 07:38:11</time>
      </trkpt>
      <trkpt lat="40.16446" lon="-4.08235">
        <ele>598.6</ele>
        <time>2020-08-16 07:38:13</time>
      </trkpt>
      <trkpt lat="40.16444" lon="-4.0824">
        <ele>598.6</ele>
        <time>2020-08-16 07:40:04</time>
      </trkpt>
      <trkpt lat="40.16443" lon="-4.08243">
        <ele>598.6</ele>
        <time>2020-08-16 07:40:05</time>
      </trkpt>
      <trkpt lat="40.16442" lon="-4.08246">
        <ele>598.6</ele>
        <time>2020-08-16 07:40:06</time>
      </trkpt>
      <trkpt lat="40.16441" lon="-4.08249">
        <ele>598.6</ele>
        <time>2020-08-16 07:40:07</time>
      </trkpt>
      <trkpt lat="40.1644" lon="-4.08252">
        <ele>598.6</ele>
        <time>2020-08-16 07:40:08</time>
      </trkpt>
      <trkpt lat="40.16439" lon="-4.08256">
        <ele>598.6</ele>
        <time>2020-08-16 07:40:09</time>
      </trkpt>
      <trkpt lat="40.16438" lon="-4.08259">
        <ele>598.6</ele>
        <time>2020-08-16 07:40:10</time>
      </trkpt>
      <trkpt lat="40.16437" lon="-4.08262">
        <ele>598.6</ele>
        <time>2020-08-16 07:40:11</time>
      </trkpt>
      <trkpt lat="40.16436" lon="-4.08265">
        <ele>598.6</ele>
        <time>2020-08-16 07:40:12</time>
      </trkpt>
      <trkpt lat="40.16427" lon="-4.0829">
        <ele>598.8</ele>
        <time>2020-08-16 07:40:20</time>
      </trkpt>
      <trkpt lat="40.16426" lon="-4.08296">
        <ele>598.8</ele>
        <time>2020-08-16 07:40:22</time>
      </trkpt>
      <trkpt lat="40.16425" lon="-4.08302">
        <ele>598.8</ele>
        <time>2020-08-16 07:40:24</time>
      </trkpt>
      <trkpt lat="40.16424" lon="-4.08305">
        <ele>598.8</ele>
        <time>2020-08-16 07:40:25</time>
      </trkpt>
      <trkpt lat="40.16423" lon="-4.08309">
        <ele>598.8</ele>
        <time>2020-08-16 07:40:26</time>
      </trkpt>
      <trkpt lat="40.16422" lon="-4.08311">
        <ele>599</ele>
        <time>2020-08-16 07:40:27</time>
      </trkpt>
      <trkpt lat="40.16422" lon="-4.08314">
        <ele>599</ele>
        <time>2020-08-16 07:40:28</time>
      </trkpt>
      <trkpt lat="40.16422" lon="-4.08316">
        <ele>599</ele>
        <time>2020-08-16 07:40:29</time>
      </trkpt>
      <trkpt lat="40.16421" lon="-4.08319">
        <ele>599</ele>
        <time>2020-08-16 07:40:30</time>
      </trkpt>
      <trkpt lat="40.16421" lon="-4.08323">
        <ele>599</ele>
        <time>2020-08-16 07:40:31</time>
      </trkpt>
      <trkpt lat="40.16418" lon="-4.08335">
        <ele>599.2</ele>
        <time>2020-08-16 07:40:35</time>
      </trkpt>
      <trkpt lat="40.16418" lon="-4.08338">
        <ele>599.2</ele>
        <time>2020-08-16 07:40:36</time>
      </trkpt>
      <trkpt lat="40.16418" lon="-4.08341">
        <ele>599.2</ele>
        <time>2020-08-16 07:40:37</time>
      </trkpt>
      <trkpt lat="40.16418" lon="-4.08345">
        <ele>599.2</ele>
        <time>2020-08-16 07:40:38</time>
      </trkpt>
      <trkpt lat="40.16417" lon="-4.08352">
        <ele>599.2</ele>
        <time>2020-08-16 07:40:40</time>
      </trkpt>
      <trkpt lat="40.16417" lon="-4.08355">
        <ele>599.2</ele>
        <time>2020-08-16 07:40:41</time>
      </trkpt>
      <trkpt lat="40.16417" lon="-4.08358">
        <ele>599.4</ele>
        <time>2020-08-16 07:40:42</time>
      </trkpt>
      <trkpt lat="40.16417" lon="-4.08361">
        <ele>599.4</ele>
        <time>2020-08-16 07:40:43</time>
      </trkpt>
      <trkpt lat="40.16417" lon="-4.08363">
        <ele>599.4</ele>
        <time>2020-08-16 07:40:44</time>
      </trkpt>
      <trkpt lat="40.16417" lon="-4.08365">
        <ele>599.4</ele>
        <time>2020-08-16 07:40:45</time>
      </trkpt>
      <trkpt lat="40.16416" lon="-4.08368">
        <ele>599.4</ele>
        <time>2020-08-16 07:40:46</time>
      </trkpt>
      <trkpt lat="40.16416" lon="-4.0837">
        <ele>599.4</ele>
        <time>2020-08-16 07:40:47</time>
      </trkpt>
      <trkpt lat="40.16415" lon="-4.08373">
        <ele>599.4</ele>
        <time>2020-08-16 07:40:48</time>
      </trkpt>
      <trkpt lat="40.16414" lon="-4.08376">
        <ele>599.6</ele>
        <time>2020-08-16 07:40:49</time>
      </trkpt>
      <trkpt lat="40.16414" lon="-4.08379">
        <ele>599.6</ele>
        <time>2020-08-16 07:40:50</time>
      </trkpt>
      <trkpt lat="40.16414" lon="-4.08382">
        <ele>599.8</ele>
        <time>2020-08-16 07:40:51</time>
      </trkpt>
      <trkpt lat="40.16413" lon="-4.08385">
        <ele>599.8</ele>
        <time>2020-08-16 07:40:52</time>
      </trkpt>
      <trkpt lat="40.16412" lon="-4.08395">
        <ele>600</ele>
        <time>2020-08-16 07:40:55</time>
      </trkpt>
      <trkpt lat="40.16411" lon="-4.08405">
        <ele>600.2</ele>
        <time>2020-08-16 07:40:58</time>
      </trkpt>
      <trkpt lat="40.16408" lon="-4.08415">
        <ele>600.4</ele>
        <time>2020-08-16 07:41:01</time>
      </trkpt>
      <trkpt lat="40.16407" lon="-4.08421">
        <ele>600.4</ele>
        <time>2020-08-16 07:41:03</time>
      </trkpt>
      <trkpt lat="40.16405" lon="-4.08428">
        <ele>600.4</ele>
        <time>2020-08-16 07:41:05</time>
      </trkpt>
      <trkpt lat="40.16403" lon="-4.08431">
        <ele>600.4</ele>
        <time>2020-08-16 07:41:06</time>
      </trkpt>
      <trkpt lat="40.16402" lon="-4.08434">
        <ele>600.4</ele>
        <time>2020-08-16 07:41:07</time>
      </trkpt>
      <trkpt lat="40.16401" lon="-4.08437">
        <ele>600.4</ele>
        <time>2020-08-16 07:41:08</time>
      </trkpt>
      <trkpt lat="40.16401" lon="-4.0844">
        <ele>600.4</ele>
        <time>2020-08-16 07:41:09</time>
      </trkpt>
      <trkpt lat="40.164" lon="-4.08443">
        <ele>600.6</ele>
        <time>2020-08-16 07:41:10</time>
      </trkpt>
      <trkpt lat="40.16399" lon="-4.08446">
        <ele>600.6</ele>
        <time>2020-08-16 07:41:11</time>
      </trkpt>
      <trkpt lat="40.16398" lon="-4.08449">
        <ele>600.6</ele>
        <time>2020-08-16 07:41:12</time>
      </trkpt>
      <trkpt lat="40.16397" lon="-4.08452">
        <ele>600.6</ele>
        <time>2020-08-16 07:41:13</time>
      </trkpt>
      <trkpt lat="40.16396" lon="-4.08455">
        <ele>600.6</ele>
        <time>2020-08-16 07:41:14</time>
      </trkpt>
      <trkpt lat="40.16395" lon="-4.08458">
        <ele>600.6</ele>
        <time>2020-08-16 07:41:15</time>
      </trkpt>
      <trkpt lat="40.16393" lon="-4.0846">
        <ele>600.6</ele>
        <time>2020-08-16 07:41:16</time>
      </trkpt>
      <trkpt lat="40.16393" lon="-4.08463">
        <ele>600.8</ele>
        <time>2020-08-16 07:41:17</time>
      </trkpt>
      <trkpt lat="40.16392" lon="-4.08466">
        <ele>600.8</ele>
        <time>2020-08-16 07:41:18</time>
      </trkpt>
      <trkpt lat="40.16392" lon="-4.08469">
        <ele>600.8</ele>
        <time>2020-08-16 07:41:19</time>
      </trkpt>
      <trkpt lat="40.16391" lon="-4.08472">
        <ele>600.8</ele>
        <time>2020-08-16 07:41:20</time>
      </trkpt>
      <trkpt lat="40.16389" lon="-4.08477">
        <ele>601</ele>
        <time>2020-08-16 07:41:22</time>
      </trkpt>
      <trkpt lat="40.16388" lon="-4.0848">
        <ele>601</ele>
        <time>2020-08-16 07:41:23</time>
      </trkpt>
      <trkpt lat="40.16388" lon="-4.08483">
        <ele>601</ele>
        <time>2020-08-16 07:41:24</time>
      </trkpt>
      <trkpt lat="40.16387" lon="-4.08485">
        <ele>601</ele>
        <time>2020-08-16 07:41:25</time>
      </trkpt>
      <trkpt lat="40.16386" lon="-4.08488">
        <ele>601.2</ele>
        <time>2020-08-16 07:41:26</time>
      </trkpt>
      <trkpt lat="40.16385" lon="-4.0849">
        <ele>601.2</ele>
        <time>2020-08-16 07:41:27</time>
      </trkpt>
      <trkpt lat="40.16385" lon="-4.08492">
        <ele>601.2</ele>
        <time>2020-08-16 07:41:28</time>
      </trkpt>
      <trkpt lat="40.16383" lon="-4.08495">
        <ele>601.2</ele>
        <time>2020-08-16 07:41:29</time>
      </trkpt>
      <trkpt lat="40.16382" lon="-4.08498">
        <ele>601.4</ele>
        <time>2020-08-16 07:41:30</time>
      </trkpt>
      <trkpt lat="40.16381" lon="-4.08501">
        <ele>601.4</ele>
        <time>2020-08-16 07:41:31</time>
      </trkpt>
      <trkpt lat="40.1638" lon="-4.08504">
        <ele>601.6</ele>
        <time>2020-08-16 07:41:32</time>
      </trkpt>
      <trkpt lat="40.16379" lon="-4.08506">
        <ele>601.6</ele>
        <time>2020-08-16 07:41:33</time>
      </trkpt>
      <trkpt lat="40.16378" lon="-4.08509">
        <ele>601.6</ele>
        <time>2020-08-16 07:41:34</time>
      </trkpt>
      <trkpt lat="40.16374" lon="-4.08517">
        <ele>602</ele>
        <time>2020-08-16 07:41:37</time>
      </trkpt>
      <trkpt lat="40.16373" lon="-4.0852">
        <ele>602.2</ele>
        <time>2020-08-16 07:41:38</time>
      </trkpt>
      <trkpt lat="40.16372" lon="-4.08523">
        <ele>602.6</ele>
        <time>2020-08-16 07:41:39</time>
      </trkpt>
      <trkpt lat="40.16371" lon="-4.08525">
        <ele>602.6</ele>
        <time>2020-08-16 07:41:40</time>
      </trkpt>
      <trkpt lat="40.16371" lon="-4.08527">
        <ele>602.8</ele>
        <time>2020-08-16 07:41:41</time>
      </trkpt>
      <trkpt lat="40.1637" lon="-4.0853">
        <ele>602.8</ele>
        <time>2020-08-16 07:41:42</time>
      </trkpt>
      <trkpt lat="40.1637" lon="-4.08532">
        <ele>602.8</ele>
        <time>2020-08-16 07:41:43</time>
      </trkpt>
      <trkpt lat="40.16369" lon="-4.08534">
        <ele>603</ele>
        <time>2020-08-16 07:41:44</time>
      </trkpt>
      <trkpt lat="40.16369" lon="-4.08537">
        <ele>603.6</ele>
        <time>2020-08-16 07:41:45</time>
      </trkpt>
      <trkpt lat="40.16368" lon="-4.08539">
        <ele>603.6</ele>
        <time>2020-08-16 07:41:46</time>
      </trkpt>
      <trkpt lat="40.16368" lon="-4.08542">
        <ele>604</ele>
        <time>2020-08-16 07:41:47</time>
      </trkpt>
      <trkpt lat="40.16368" lon="-4.08545">
        <ele>604.2</ele>
        <time>2020-08-16 07:41:48</time>
      </trkpt>
      <trkpt lat="40.16368" lon="-4.08547">
        <ele>604.4</ele>
        <time>2020-08-16 07:41:49</time>
      </trkpt>
      <trkpt lat="40.16369" lon="-4.0855">
        <ele>604.6</ele>
        <time>2020-08-16 07:41:50</time>
      </trkpt>
      <trkpt lat="40.16368" lon="-4.08552">
        <ele>604.8</ele>
        <time>2020-08-16 07:41:51</time>
      </trkpt>
      <trkpt lat="40.16368" lon="-4.08554">
        <ele>605</ele>
        <time>2020-08-16 07:41:52</time>
      </trkpt>
      <trkpt lat="40.16368" lon="-4.08556">
        <ele>605.2</ele>
        <time>2020-08-16 07:41:53</time>
      </trkpt>
      <trkpt lat="40.16368" lon="-4.08558">
        <ele>605.4</ele>
        <time>2020-08-16 07:41:54</time>
      </trkpt>
      <trkpt lat="40.16368" lon="-4.08561">
        <ele>605.4</ele>
        <time>2020-08-16 07:41:55</time>
      </trkpt>
      <trkpt lat="40.16367" lon="-4.08563">
        <ele>605.6</ele>
        <time>2020-08-16 07:41:56</time>
      </trkpt>
      <trkpt lat="40.16366" lon="-4.08565">
        <ele>605.6</ele>
        <time>2020-08-16 07:41:57</time>
      </trkpt>
      <trkpt lat="40.16366" lon="-4.08567">
        <ele>605.6</ele>
        <time>2020-08-16 07:41:58</time>
      </trkpt>
      <trkpt lat="40.16366" lon="-4.08569">
        <ele>605.6</ele>
        <time>2020-08-16 07:41:59</time>
      </trkpt>
      <trkpt lat="40.16366" lon="-4.08571">
        <ele>605.6</ele>
        <time>2020-08-16 07:42:00</time>
      </trkpt>
      <trkpt lat="40.16366" lon="-4.08572">
        <ele>605.8</ele>
        <time>2020-08-16 07:42:01</time>
      </trkpt>
      <trkpt lat="40.16366" lon="-4.08573">
        <ele>605.8</ele>
        <time>2020-08-16 07:42:03</time>
      </trkpt>
      <trkpt lat="40.16365" lon="-4.08577">
        <ele>605.6</ele>
        <time>2020-08-16 07:43:05</time>
      </trkpt>
      <trkpt lat="40.16365" lon="-4.0858">
        <ele>605.6</ele>
        <time>2020-08-16 07:43:06</time>
      </trkpt>
      <trkpt lat="40.16364" lon="-4.08592">
        <ele>605.6</ele>
        <time>2020-08-16 07:43:10</time>
      </trkpt>
      <trkpt lat="40.16363" lon="-4.08599">
        <ele>605.6</ele>
        <time>2020-08-16 07:43:12</time>
      </trkpt>
      <trkpt lat="40.16361" lon="-4.08605">
        <ele>605.8</ele>
        <time>2020-08-16 07:43:14</time>
      </trkpt>
      <trkpt lat="40.1636" lon="-4.08612">
        <ele>605.8</ele>
        <time>2020-08-16 07:43:16</time>
      </trkpt>
      <trkpt lat="40.16358" lon="-4.08623">
        <ele>605.8</ele>
        <time>2020-08-16 07:43:19</time>
      </trkpt>
      <trkpt lat="40.16357" lon="-4.08627">
        <ele>606</ele>
        <time>2020-08-16 07:43:20</time>
      </trkpt>
      <trkpt lat="40.16356" lon="-4.0863">
        <ele>606</ele>
        <time>2020-08-16 07:43:21</time>
      </trkpt>
      <trkpt lat="40.16354" lon="-4.08639">
        <ele>606</ele>
        <time>2020-08-16 07:43:23</time>
      </trkpt>
      <trkpt lat="40.16353" lon="-4.08643">
        <ele>606</ele>
        <time>2020-08-16 07:43:24</time>
      </trkpt>
      <trkpt lat="40.16353" lon="-4.08647">
        <ele>606</ele>
        <time>2020-08-16 07:43:25</time>
      </trkpt>
      <trkpt lat="40.16352" lon="-4.08651">
        <ele>606</ele>
        <time>2020-08-16 07:43:26</time>
      </trkpt>
      <trkpt lat="40.16351" lon="-4.08664">
        <ele>606</ele>
        <time>2020-08-16 07:43:29</time>
      </trkpt>
      <trkpt lat="40.16351" lon="-4.08687">
        <ele>605.8</ele>
        <time>2020-08-16 07:43:34</time>
      </trkpt>
      <trkpt lat="40.16352" lon="-4.08709">
        <ele>605.8</ele>
        <time>2020-08-16 07:43:39</time>
      </trkpt>
      <trkpt lat="40.16353" lon="-4.08714">
        <ele>605.8</ele>
        <time>2020-08-16 07:43:40</time>
      </trkpt>
      <trkpt lat="40.16353" lon="-4.08718">
        <ele>605.8</ele>
        <time>2020-08-16 07:43:41</time>
      </trkpt>
      <trkpt lat="40.16353" lon="-4.08722">
        <ele>605.8</ele>
        <time>2020-08-16 07:43:42</time>
      </trkpt>
      <trkpt lat="40.16353" lon="-4.08726">
        <ele>605.6</ele>
        <time>2020-08-16 07:43:43</time>
      </trkpt>
      <trkpt lat="40.16353" lon="-4.08731">
        <ele>605.4</ele>
        <time>2020-08-16 07:43:44</time>
      </trkpt>
      <trkpt lat="40.16353" lon="-4.08734">
        <ele>605.4</ele>
        <time>2020-08-16 07:43:45</time>
      </trkpt>
      <trkpt lat="40.16353" lon="-4.08738">
        <ele>605.4</ele>
        <time>2020-08-16 07:43:46</time>
      </trkpt>
      <trkpt lat="40.16353" lon="-4.08745">
        <ele>605.4</ele>
        <time>2020-08-16 07:43:48</time>
      </trkpt>
      <trkpt lat="40.16352" lon="-4.08748">
        <ele>605.4</ele>
        <time>2020-08-16 07:43:49</time>
      </trkpt>
      <trkpt lat="40.16352" lon="-4.08751">
        <ele>605.4</ele>
        <time>2020-08-16 07:43:50</time>
      </trkpt>
      <trkpt lat="40.16351" lon="-4.08754">
        <ele>605.4</ele>
        <time>2020-08-16 07:43:51</time>
      </trkpt>
      <trkpt lat="40.16351" lon="-4.08757">
        <ele>605.4</ele>
        <time>2020-08-16 07:43:52</time>
      </trkpt>
      <trkpt lat="40.16351" lon="-4.08761">
        <ele>605.4</ele>
        <time>2020-08-16 07:43:53</time>
      </trkpt>
      <trkpt lat="40.1635" lon="-4.08765">
        <ele>605.6</ele>
        <time>2020-08-16 07:43:54</time>
      </trkpt>
      <trkpt lat="40.1635" lon="-4.08768">
        <ele>605.6</ele>
        <time>2020-08-16 07:43:55</time>
      </trkpt>
      <trkpt lat="40.1635" lon="-4.08772">
        <ele>605.6</ele>
        <time>2020-08-16 07:43:56</time>
      </trkpt>
      <trkpt lat="40.16349" lon="-4.08775">
        <ele>605.6</ele>
        <time>2020-08-16 07:43:57</time>
      </trkpt>
      <trkpt lat="40.16349" lon="-4.08778">
        <ele>605.6</ele>
        <time>2020-08-16 07:43:58</time>
      </trkpt>
      <trkpt lat="40.16348" lon="-4.08784">
        <ele>605.8</ele>
        <time>2020-08-16 07:44:00</time>
      </trkpt>
      <trkpt lat="40.16348" lon="-4.08787">
        <ele>605.8</ele>
        <time>2020-08-16 07:44:01</time>
      </trkpt>
      <trkpt lat="40.16347" lon="-4.08791">
        <ele>605.8</ele>
        <time>2020-08-16 07:44:02</time>
      </trkpt>
      <trkpt lat="40.16347" lon="-4.08793">
        <ele>605.8</ele>
        <time>2020-08-16 07:44:03</time>
      </trkpt>
      <trkpt lat="40.16346" lon="-4.08796">
        <ele>605.8</ele>
        <time>2020-08-16 07:44:04</time>
      </trkpt>
      <trkpt lat="40.16346" lon="-4.08799">
        <ele>605.8</ele>
        <time>2020-08-16 07:44:05</time>
      </trkpt>
      <trkpt lat="40.16346" lon="-4.08801">
        <ele>605.8</ele>
        <time>2020-08-16 07:44:06</time>
      </trkpt>
      <trkpt lat="40.16346" lon="-4.08803">
        <ele>605.8</ele>
        <time>2020-08-16 07:44:07</time>
      </trkpt>
      <trkpt lat="40.16345" lon="-4.08806">
        <ele>605.8</ele>
        <time>2020-08-16 07:44:08</time>
      </trkpt>
      <trkpt lat="40.16345" lon="-4.08809">
        <ele>605.8</ele>
        <time>2020-08-16 07:44:09</time>
      </trkpt>
      <trkpt lat="40.16345" lon="-4.08811">
        <ele>605.8</ele>
        <time>2020-08-16 07:44:10</time>
      </trkpt>
      <trkpt lat="40.16344" lon="-4.08814">
        <ele>605.8</ele>
        <time>2020-08-16 07:44:11</time>
      </trkpt>
      <trkpt lat="40.16344" lon="-4.08818">
        <ele>605.8</ele>
        <time>2020-08-16 07:44:12</time>
      </trkpt>
      <trkpt lat="40.16344" lon="-4.0882">
        <ele>605.8</ele>
        <time>2020-08-16 07:44:13</time>
      </trkpt>
      <trkpt lat="40.16344" lon="-4.08823">
        <ele>605.8</ele>
        <time>2020-08-16 07:44:14</time>
      </trkpt>
      <trkpt lat="40.16343" lon="-4.08837">
        <ele>605.8</ele>
        <time>2020-08-16 07:44:18</time>
      </trkpt>
      <trkpt lat="40.16343" lon="-4.0884">
        <ele>605.8</ele>
        <time>2020-08-16 07:44:19</time>
      </trkpt>
      <trkpt lat="40.16343" lon="-4.08844">
        <ele>605.8</ele>
        <time>2020-08-16 07:44:20</time>
      </trkpt>
      <trkpt lat="40.16344" lon="-4.08847">
        <ele>605.8</ele>
        <time>2020-08-16 07:44:21</time>
      </trkpt>
      <trkpt lat="40.16344" lon="-4.0885">
        <ele>605.8</ele>
        <time>2020-08-16 07:44:22</time>
      </trkpt>
      <trkpt lat="40.16343" lon="-4.08853">
        <ele>605.8</ele>
        <time>2020-08-16 07:44:23</time>
      </trkpt>
      <trkpt lat="40.16343" lon="-4.08856">
        <ele>605.8</ele>
        <time>2020-08-16 07:44:24</time>
      </trkpt>
      <trkpt lat="40.16343" lon="-4.08858">
        <ele>605.8</ele>
        <time>2020-08-16 07:44:25</time>
      </trkpt>
      <trkpt lat="40.16343" lon="-4.08861">
        <ele>605.8</ele>
        <time>2020-08-16 07:44:26</time>
      </trkpt>
      <trkpt lat="40.16343" lon="-4.08864">
        <ele>605.8</ele>
        <time>2020-08-16 07:44:27</time>
      </trkpt>
      <trkpt lat="40.16343" lon="-4.08867">
        <ele>605.8</ele>
        <time>2020-08-16 07:44:28</time>
      </trkpt>
      <trkpt lat="40.16343" lon="-4.0887">
        <ele>605.8</ele>
        <time>2020-08-16 07:44:29</time>
      </trkpt>
      <trkpt lat="40.16343" lon="-4.08873">
        <ele>605.8</ele>
        <time>2020-08-16 07:44:30</time>
      </trkpt>
      <trkpt lat="40.16343" lon="-4.08876">
        <ele>605.8</ele>
        <time>2020-08-16 07:44:31</time>
      </trkpt>
      <trkpt lat="40.16343" lon="-4.08879">
        <ele>606</ele>
        <time>2020-08-16 07:44:32</time>
      </trkpt>
      <trkpt lat="40.16343" lon="-4.08882">
        <ele>606</ele>
        <time>2020-08-16 07:44:33</time>
      </trkpt>
      <trkpt lat="40.16343" lon="-4.08885">
        <ele>606</ele>
        <time>2020-08-16 07:44:34</time>
      </trkpt>
      <trkpt lat="40.16343" lon="-4.08888">
        <ele>606</ele>
        <time>2020-08-16 07:44:35</time>
      </trkpt>
      <trkpt lat="40.16343" lon="-4.08891">
        <ele>606</ele>
        <time>2020-08-16 07:44:36</time>
      </trkpt>
      <trkpt lat="40.16343" lon="-4.08893">
        <ele>606</ele>
        <time>2020-08-16 07:44:37</time>
      </trkpt>
      <trkpt lat="40.16343" lon="-4.08895">
        <ele>606</ele>
        <time>2020-08-16 07:44:38</time>
      </trkpt>
      <trkpt lat="40.16342" lon="-4.08897">
        <ele>606</ele>
        <time>2020-08-16 07:44:39</time>
      </trkpt>
      <trkpt lat="40.16342" lon="-4.08898">
        <ele>606</ele>
        <time>2020-08-16 07:44:40</time>
      </trkpt>
      <trkpt lat="40.16342" lon="-4.08898">
        <ele>606.2</ele>
        <time>2020-08-16 07:44:41</time>
      </trkpt>
      <trkpt lat="40.16342" lon="-4.08898">
        <ele>606.2</ele>
        <time>2020-08-16 07:44:42</time>
      </trkpt>
      <trkpt lat="40.16342" lon="-4.08898">
        <ele>606.2</ele>
        <time>2020-08-16 07:44:43</time>
      </trkpt>
      <trkpt lat="40.16342" lon="-4.08902">
        <ele>605.8</ele>
        <time>2020-08-16 07:47:26</time>
      </trkpt>
      <trkpt lat="40.16342" lon="-4.08904">
        <ele>605.8</ele>
        <time>2020-08-16 07:47:27</time>
      </trkpt>
      <trkpt lat="40.16342" lon="-4.08907">
        <ele>605.8</ele>
        <time>2020-08-16 07:47:28</time>
      </trkpt>
      <trkpt lat="40.16342" lon="-4.08911">
        <ele>605.8</ele>
        <time>2020-08-16 07:47:29</time>
      </trkpt>
      <trkpt lat="40.16341" lon="-4.08914">
        <ele>605.8</ele>
        <time>2020-08-16 07:47:30</time>
      </trkpt>
      <trkpt lat="40.16341" lon="-4.08918">
        <ele>605.8</ele>
        <time>2020-08-16 07:47:31</time>
      </trkpt>
      <trkpt lat="40.16341" lon="-4.08925">
        <ele>605.8</ele>
        <time>2020-08-16 07:47:33</time>
      </trkpt>
      <trkpt lat="40.1634" lon="-4.08929">
        <ele>605.8</ele>
        <time>2020-08-16 07:47:34</time>
      </trkpt>
      <trkpt lat="40.1634" lon="-4.08932">
        <ele>605.8</ele>
        <time>2020-08-16 07:47:35</time>
      </trkpt>
      <trkpt lat="40.1634" lon="-4.08935">
        <ele>605.8</ele>
        <time>2020-08-16 07:47:36</time>
      </trkpt>
      <trkpt lat="40.1634" lon="-4.08938">
        <ele>605.8</ele>
        <time>2020-08-16 07:47:37</time>
      </trkpt>
      <trkpt lat="40.1634" lon="-4.08945">
        <ele>605.8</ele>
        <time>2020-08-16 07:47:39</time>
      </trkpt>
      <trkpt lat="40.1634" lon="-4.08948">
        <ele>605.8</ele>
        <time>2020-08-16 07:47:40</time>
      </trkpt>
      <trkpt lat="40.1634" lon="-4.08955">
        <ele>606</ele>
        <time>2020-08-16 07:47:42</time>
      </trkpt>
      <trkpt lat="40.16341" lon="-4.08961">
        <ele>606</ele>
        <time>2020-08-16 07:47:44</time>
      </trkpt>
      <trkpt lat="40.16342" lon="-4.08964">
        <ele>606</ele>
        <time>2020-08-16 07:47:45</time>
      </trkpt>
      <trkpt lat="40.16342" lon="-4.08968">
        <ele>606</ele>
        <time>2020-08-16 07:47:46</time>
      </trkpt>
      <trkpt lat="40.16342" lon="-4.08975">
        <ele>606</ele>
        <time>2020-08-16 07:47:48</time>
      </trkpt>
      <trkpt lat="40.16342" lon="-4.08982">
        <ele>606.2</ele>
        <time>2020-08-16 07:47:50</time>
      </trkpt>
      <trkpt lat="40.16342" lon="-4.08985">
        <ele>606.2</ele>
        <time>2020-08-16 07:47:51</time>
      </trkpt>
      <trkpt lat="40.16342" lon="-4.08988">
        <ele>606.2</ele>
        <time>2020-08-16 07:47:52</time>
      </trkpt>
      <trkpt lat="40.16342" lon="-4.08992">
        <ele>606.2</ele>
        <time>2020-08-16 07:47:53</time>
      </trkpt>
      <trkpt lat="40.16343" lon="-4.09004">
        <ele>606.2</ele>
        <time>2020-08-16 07:47:56</time>
      </trkpt>
      <trkpt lat="40.16343" lon="-4.09008">
        <ele>606.2</ele>
        <time>2020-08-16 07:47:57</time>
      </trkpt>
      <trkpt lat="40.16343" lon="-4.09012">
        <ele>606.2</ele>
        <time>2020-08-16 07:47:58</time>
      </trkpt>
      <trkpt lat="40.16342" lon="-4.09023">
        <ele>606.4</ele>
        <time>2020-08-16 07:48:01</time>
      </trkpt>
      <trkpt lat="40.16343" lon="-4.09034">
        <ele>606.6</ele>
        <time>2020-08-16 07:48:04</time>
      </trkpt>
      <trkpt lat="40.16343" lon="-4.09037">
        <ele>606.6</ele>
        <time>2020-08-16 07:48:05</time>
      </trkpt>
      <trkpt lat="40.16343" lon="-4.09041">
        <ele>606.6</ele>
        <time>2020-08-16 07:48:06</time>
      </trkpt>
      <trkpt lat="40.16343" lon="-4.09045">
        <ele>606.6</ele>
        <time>2020-08-16 07:48:07</time>
      </trkpt>
      <trkpt lat="40.16342" lon="-4.09048">
        <ele>606.6</ele>
        <time>2020-08-16 07:48:08</time>
      </trkpt>
      <trkpt lat="40.16341" lon="-4.09051">
        <ele>606.6</ele>
        <time>2020-08-16 07:48:09</time>
      </trkpt>
      <trkpt lat="40.1634" lon="-4.09054">
        <ele>606.8</ele>
        <time>2020-08-16 07:48:10</time>
      </trkpt>
      <trkpt lat="40.16339" lon="-4.09057">
        <ele>607</ele>
        <time>2020-08-16 07:48:11</time>
      </trkpt>
      <trkpt lat="40.16338" lon="-4.09061">
        <ele>607</ele>
        <time>2020-08-16 07:48:12</time>
      </trkpt>
      <trkpt lat="40.16337" lon="-4.09064">
        <ele>607</ele>
        <time>2020-08-16 07:48:13</time>
      </trkpt>
      <trkpt lat="40.16336" lon="-4.09068">
        <ele>607</ele>
        <time>2020-08-16 07:48:14</time>
      </trkpt>
      <trkpt lat="40.16335" lon="-4.09072">
        <ele>607</ele>
        <time>2020-08-16 07:48:15</time>
      </trkpt>
      <trkpt lat="40.16333" lon="-4.0908">
        <ele>607.2</ele>
        <time>2020-08-16 07:48:17</time>
      </trkpt>
      <trkpt lat="40.16333" lon="-4.09083">
        <ele>607.4</ele>
        <time>2020-08-16 07:48:18</time>
      </trkpt>
      <trkpt lat="40.16333" lon="-4.0909">
        <ele>607.4</ele>
        <time>2020-08-16 07:48:20</time>
      </trkpt>
      <trkpt lat="40.16331" lon="-4.09102">
        <ele>607.4</ele>
        <time>2020-08-16 07:48:23</time>
      </trkpt>
      <trkpt lat="40.1633" lon="-4.09105">
        <ele>607.4</ele>
        <time>2020-08-16 07:48:24</time>
      </trkpt>
      <trkpt lat="40.16328" lon="-4.09112">
        <ele>607.8</ele>
        <time>2020-08-16 07:48:26</time>
      </trkpt>
      <trkpt lat="40.16328" lon="-4.09115">
        <ele>607.8</ele>
        <time>2020-08-16 07:48:27</time>
      </trkpt>
      <trkpt lat="40.16327" lon="-4.09118">
        <ele>608</ele>
        <time>2020-08-16 07:48:28</time>
      </trkpt>
      <trkpt lat="40.16327" lon="-4.09122">
        <ele>608</ele>
        <time>2020-08-16 07:48:29</time>
      </trkpt>
      <trkpt lat="40.16327" lon="-4.09125">
        <ele>608.4</ele>
        <time>2020-08-16 07:48:30</time>
      </trkpt>
      <trkpt lat="40.16328" lon="-4.09128">
        <ele>608.6</ele>
        <time>2020-08-16 07:48:31</time>
      </trkpt>
      <trkpt lat="40.16328" lon="-4.0913">
        <ele>609</ele>
        <time>2020-08-16 07:48:32</time>
      </trkpt>
      <trkpt lat="40.16328" lon="-4.09133">
        <ele>609.2</ele>
        <time>2020-08-16 07:48:33</time>
      </trkpt>
      <trkpt lat="40.16329" lon="-4.09136">
        <ele>609.4</ele>
        <time>2020-08-16 07:48:34</time>
      </trkpt>
      <trkpt lat="40.16329" lon="-4.09139">
        <ele>609.6</ele>
        <time>2020-08-16 07:48:35</time>
      </trkpt>
      <trkpt lat="40.1633" lon="-4.09142">
        <ele>609.8</ele>
        <time>2020-08-16 07:48:36</time>
      </trkpt>
      <trkpt lat="40.1633" lon="-4.09144">
        <ele>610</ele>
        <time>2020-08-16 07:48:37</time>
      </trkpt>
      <trkpt lat="40.16331" lon="-4.09148">
        <ele>610.2</ele>
        <time>2020-08-16 07:48:38</time>
      </trkpt>
      <trkpt lat="40.16332" lon="-4.09151">
        <ele>610.2</ele>
        <time>2020-08-16 07:48:39</time>
      </trkpt>
      <trkpt lat="40.16333" lon="-4.09154">
        <ele>610.4</ele>
        <time>2020-08-16 07:48:40</time>
      </trkpt>
      <trkpt lat="40.16333" lon="-4.09157">
        <ele>610.6</ele>
        <time>2020-08-16 07:48:41</time>
      </trkpt>
      <trkpt lat="40.16334" lon="-4.0916">
        <ele>610.6</ele>
        <time>2020-08-16 07:48:42</time>
      </trkpt>
      <trkpt lat="40.16335" lon="-4.09163">
        <ele>610.8</ele>
        <time>2020-08-16 07:48:43</time>
      </trkpt>
      <trkpt lat="40.16336" lon="-4.09166">
        <ele>611</ele>
        <time>2020-08-16 07:48:44</time>
      </trkpt>
      <trkpt lat="40.16337" lon="-4.09169">
        <ele>611</ele>
        <time>2020-08-16 07:48:45</time>
      </trkpt>
      <trkpt lat="40.16338" lon="-4.09172">
        <ele>611.4</ele>
        <time>2020-08-16 07:48:46</time>
      </trkpt>
      <trkpt lat="40.16339" lon="-4.09175">
        <ele>611.4</ele>
        <time>2020-08-16 07:48:47</time>
      </trkpt>
      <trkpt lat="40.16339" lon="-4.09178">
        <ele>611.6</ele>
        <time>2020-08-16 07:48:48</time>
      </trkpt>
      <trkpt lat="40.1634" lon="-4.09181">
        <ele>611.6</ele>
        <time>2020-08-16 07:48:49</time>
      </trkpt>
      <trkpt lat="40.16341" lon="-4.09184">
        <ele>611.8</ele>
        <time>2020-08-16 07:48:50</time>
      </trkpt>
      <trkpt lat="40.16342" lon="-4.09187">
        <ele>612</ele>
        <time>2020-08-16 07:48:51</time>
      </trkpt>
      <trkpt lat="40.16343" lon="-4.0919">
        <ele>612.2</ele>
        <time>2020-08-16 07:48:52</time>
      </trkpt>
      <trkpt lat="40.16344" lon="-4.09193">
        <ele>612.2</ele>
        <time>2020-08-16 07:48:53</time>
      </trkpt>
      <trkpt lat="40.16345" lon="-4.09195">
        <ele>612.2</ele>
        <time>2020-08-16 07:48:54</time>
      </trkpt>
      <trkpt lat="40.16347" lon="-4.09198">
        <ele>612.6</ele>
        <time>2020-08-16 07:48:55</time>
      </trkpt>
      <trkpt lat="40.16348" lon="-4.09201">
        <ele>612.6</ele>
        <time>2020-08-16 07:48:56</time>
      </trkpt>
      <trkpt lat="40.16349" lon="-4.09204">
        <ele>612.8</ele>
        <time>2020-08-16 07:48:57</time>
      </trkpt>
      <trkpt lat="40.1635" lon="-4.09207">
        <ele>613</ele>
        <time>2020-08-16 07:48:58</time>
      </trkpt>
      <trkpt lat="40.16351" lon="-4.0921">
        <ele>613</ele>
        <time>2020-08-16 07:48:59</time>
      </trkpt>
      <trkpt lat="40.16353" lon="-4.09213">
        <ele>613.2</ele>
        <time>2020-08-16 07:49:00</time>
      </trkpt>
      <trkpt lat="40.16354" lon="-4.09215">
        <ele>613.2</ele>
        <time>2020-08-16 07:49:01</time>
      </trkpt>
      <trkpt lat="40.16355" lon="-4.09218">
        <ele>613.2</ele>
        <time>2020-08-16 07:49:02</time>
      </trkpt>
      <trkpt lat="40.16356" lon="-4.0922">
        <ele>613.2</ele>
        <time>2020-08-16 07:49:03</time>
      </trkpt>
      <trkpt lat="40.16358" lon="-4.09222">
        <ele>613.4</ele>
        <time>2020-08-16 07:49:04</time>
      </trkpt>
      <trkpt lat="40.16365" lon="-4.09229">
        <ele>613.8</ele>
        <time>2020-08-16 07:49:07</time>
      </trkpt>
      <trkpt lat="40.16373" lon="-4.09238">
        <ele>614</ele>
        <time>2020-08-16 07:49:11</time>
      </trkpt>
      <trkpt lat="40.1638" lon="-4.09246">
        <ele>614.2</ele>
        <time>2020-08-16 07:49:14</time>
      </trkpt>
      <trkpt lat="40.16385" lon="-4.09255">
        <ele>614.4</ele>
        <time>2020-08-16 07:49:17</time>
      </trkpt>
      <trkpt lat="40.16388" lon="-4.09258">
        <ele>614.4</ele>
        <time>2020-08-16 07:49:18</time>
      </trkpt>
      <trkpt lat="40.1639" lon="-4.09261">
        <ele>614.4</ele>
        <time>2020-08-16 07:49:19</time>
      </trkpt>
      <trkpt lat="40.16392" lon="-4.09263">
        <ele>614.4</ele>
        <time>2020-08-16 07:49:20</time>
      </trkpt>
      <trkpt lat="40.16395" lon="-4.09268">
        <ele>614.6</ele>
        <time>2020-08-16 07:49:22</time>
      </trkpt>
      <trkpt lat="40.16396" lon="-4.0927">
        <ele>614.6</ele>
        <time>2020-08-16 07:49:23</time>
      </trkpt>
      <trkpt lat="40.16397" lon="-4.09272">
        <ele>614.6</ele>
        <time>2020-08-16 07:49:24</time>
      </trkpt>
      <trkpt lat="40.16398" lon="-4.09275">
        <ele>614.8</ele>
        <time>2020-08-16 07:49:25</time>
      </trkpt>
      <trkpt lat="40.16399" lon="-4.09277">
        <ele>614.8</ele>
        <time>2020-08-16 07:49:26</time>
      </trkpt>
      <trkpt lat="40.16399" lon="-4.09282">
        <ele>615.2</ele>
        <time>2020-08-16 07:49:28</time>
      </trkpt>
      <trkpt lat="40.16397" lon="-4.09284">
        <ele>615.8</ele>
        <time>2020-08-16 07:49:29</time>
      </trkpt>
      <trkpt lat="40.16396" lon="-4.09286">
        <ele>616</ele>
        <time>2020-08-16 07:49:30</time>
      </trkpt>
      <trkpt lat="40.16395" lon="-4.09287">
        <ele>616.4</ele>
        <time>2020-08-16 07:49:31</time>
      </trkpt>
      <trkpt lat="40.16393" lon="-4.09288">
        <ele>616.6</ele>
        <time>2020-08-16 07:49:32</time>
      </trkpt>
      <trkpt lat="40.16392" lon="-4.09288">
        <ele>616.8</ele>
        <time>2020-08-16 07:49:33</time>
      </trkpt>
      <trkpt lat="40.16391" lon="-4.09288">
        <ele>617.2</ele>
        <time>2020-08-16 07:49:34</time>
      </trkpt>
      <trkpt lat="40.16389" lon="-4.09288">
        <ele>617.4</ele>
        <time>2020-08-16 07:49:35</time>
      </trkpt>
      <trkpt lat="40.16387" lon="-4.09289">
        <ele>617.8</ele>
        <time>2020-08-16 07:49:36</time>
      </trkpt>
      <trkpt lat="40.16385" lon="-4.09289">
        <ele>618</ele>
        <time>2020-08-16 07:49:37</time>
      </trkpt>
      <trkpt lat="40.16383" lon="-4.0929">
        <ele>618.2</ele>
        <time>2020-08-16 07:49:38</time>
      </trkpt>
      <trkpt lat="40.16382" lon="-4.0929">
        <ele>618.2</ele>
        <time>2020-08-16 07:49:39</time>
      </trkpt>
      <trkpt lat="40.1638" lon="-4.09291">
        <ele>618.6</ele>
        <time>2020-08-16 07:49:40</time>
      </trkpt>
      <trkpt lat="40.16378" lon="-4.09292">
        <ele>618.6</ele>
        <time>2020-08-16 07:49:41</time>
      </trkpt>
      <trkpt lat="40.16376" lon="-4.09293">
        <ele>618.8</ele>
        <time>2020-08-16 07:49:42</time>
      </trkpt>
      <trkpt lat="40.16374" lon="-4.09294">
        <ele>618.8</ele>
        <time>2020-08-16 07:49:43</time>
      </trkpt>
      <trkpt lat="40.16372" lon="-4.09294">
        <ele>619</ele>
        <time>2020-08-16 07:49:44</time>
      </trkpt>
      <trkpt lat="40.1637" lon="-4.09294">
        <ele>619</ele>
        <time>2020-08-16 07:49:45</time>
      </trkpt>
      <trkpt lat="40.16368" lon="-4.09294">
        <ele>619.2</ele>
        <time>2020-08-16 07:49:46</time>
      </trkpt>
      <trkpt lat="40.16366" lon="-4.09295">
        <ele>619.4</ele>
        <time>2020-08-16 07:49:47</time>
      </trkpt>
      <trkpt lat="40.16364" lon="-4.09295">
        <ele>619.6</ele>
        <time>2020-08-16 07:49:48</time>
      </trkpt>
      <trkpt lat="40.16362" lon="-4.09295">
        <ele>619.8</ele>
        <time>2020-08-16 07:49:49</time>
      </trkpt>
      <trkpt lat="40.1636" lon="-4.09296">
        <ele>620</ele>
        <time>2020-08-16 07:49:50</time>
      </trkpt>
      <trkpt lat="40.16358" lon="-4.09296">
        <ele>620.2</ele>
        <time>2020-08-16 07:49:51</time>
      </trkpt>
      <trkpt lat="40.16356" lon="-4.09297">
        <ele>620.2</ele>
        <time>2020-08-16 07:49:52</time>
      </trkpt>
      <trkpt lat="40.16354" lon="-4.09298">
        <ele>620.4</ele>
        <time>2020-08-16 07:49:53</time>
      </trkpt>
      <trkpt lat="40.16352" lon="-4.09299">
        <ele>620.4</ele>
        <time>2020-08-16 07:49:54</time>
      </trkpt>
      <trkpt lat="40.1635" lon="-4.093">
        <ele>620.4</ele>
        <time>2020-08-16 07:49:55</time>
      </trkpt>
      <trkpt lat="40.16348" lon="-4.09301">
        <ele>620.6</ele>
        <time>2020-08-16 07:49:56</time>
      </trkpt>
      <trkpt lat="40.16347" lon="-4.09301">
        <ele>620.6</ele>
        <time>2020-08-16 07:49:57</time>
      </trkpt>
      <trkpt lat="40.16345" lon="-4.09302">
        <ele>620.8</ele>
        <time>2020-08-16 07:49:58</time>
      </trkpt>
      <trkpt lat="40.16343" lon="-4.09302">
        <ele>621</ele>
        <time>2020-08-16 07:49:59</time>
      </trkpt>
      <trkpt lat="40.16342" lon="-4.09303">
        <ele>621.2</ele>
        <time>2020-08-16 07:50:00</time>
      </trkpt>
      <trkpt lat="40.1634" lon="-4.09304">
        <ele>621.2</ele>
        <time>2020-08-16 07:50:01</time>
      </trkpt>
      <trkpt lat="40.16337" lon="-4.09304">
        <ele>621.2</ele>
        <time>2020-08-16 07:50:02</time>
      </trkpt>
      <trkpt lat="40.16335" lon="-4.09304">
        <ele>621.2</ele>
        <time>2020-08-16 07:50:03</time>
      </trkpt>
      <trkpt lat="40.16328" lon="-4.09304">
        <ele>621.4</ele>
        <time>2020-08-16 07:50:06</time>
      </trkpt>
      <trkpt lat="40.16321" lon="-4.09306">
        <ele>621.6</ele>
        <time>2020-08-16 07:50:09</time>
      </trkpt>
      <trkpt lat="40.1632" lon="-4.09307">
        <ele>621.6</ele>
        <time>2020-08-16 07:50:10</time>
      </trkpt>
      <trkpt lat="40.16317" lon="-4.09308">
        <ele>621.6</ele>
        <time>2020-08-16 07:50:12</time>
      </trkpt>
      <trkpt lat="40.16315" lon="-4.09309">
        <ele>621.6</ele>
        <time>2020-08-16 07:50:13</time>
      </trkpt>
      <trkpt lat="40.16314" lon="-4.09309">
        <ele>621.6</ele>
        <time>2020-08-16 07:50:14</time>
      </trkpt>
      <trkpt lat="40.16312" lon="-4.0931">
        <ele>621.6</ele>
        <time>2020-08-16 07:50:15</time>
      </trkpt>
      <trkpt lat="40.16311" lon="-4.0931">
        <ele>621.6</ele>
        <time>2020-08-16 07:50:16</time>
      </trkpt>
      <trkpt lat="40.16309" lon="-4.0931">
        <ele>621.8</ele>
        <time>2020-08-16 07:50:17</time>
      </trkpt>
      <trkpt lat="40.16307" lon="-4.09311">
        <ele>621.8</ele>
        <time>2020-08-16 07:50:18</time>
      </trkpt>
      <trkpt lat="40.16305" lon="-4.09312">
        <ele>621.8</ele>
        <time>2020-08-16 07:50:19</time>
      </trkpt>
      <trkpt lat="40.16304" lon="-4.09312">
        <ele>621.8</ele>
        <time>2020-08-16 07:50:20</time>
      </trkpt>
      <trkpt lat="40.163" lon="-4.09314">
        <ele>621.8</ele>
        <time>2020-08-16 07:50:22</time>
      </trkpt>
      <trkpt lat="40.16295" lon="-4.09314">
        <ele>621.8</ele>
        <time>2020-08-16 07:50:24</time>
      </trkpt>
      <trkpt lat="40.16281" lon="-4.09319">
        <ele>621.6</ele>
        <time>2020-08-16 07:50:29</time>
      </trkpt>
      <trkpt lat="40.16278" lon="-4.09321">
        <ele>621.6</ele>
        <time>2020-08-16 07:50:30</time>
      </trkpt>
      <trkpt lat="40.16275" lon="-4.09323">
        <ele>621.6</ele>
        <time>2020-08-16 07:50:31</time>
      </trkpt>
      <trkpt lat="40.16273" lon="-4.09325">
        <ele>621.4</ele>
        <time>2020-08-16 07:50:32</time>
      </trkpt>
      <trkpt lat="40.16271" lon="-4.09328">
        <ele>621.4</ele>
        <time>2020-08-16 07:50:33</time>
      </trkpt>
      <trkpt lat="40.16268" lon="-4.09332">
        <ele>621.2</ele>
        <time>2020-08-16 07:50:34</time>
      </trkpt>
      <trkpt lat="40.16261" lon="-4.09345">
        <ele>621</ele>
        <time>2020-08-16 07:50:37</time>
      </trkpt>
      <trkpt lat="40.16257" lon="-4.09355">
        <ele>620.8</ele>
        <time>2020-08-16 07:50:39</time>
      </trkpt>
      <trkpt lat="40.16248" lon="-4.0938">
        <ele>620.4</ele>
        <time>2020-08-16 07:50:43</time>
      </trkpt>
      <trkpt lat="40.16246" lon="-4.09387">
        <ele>620.2</ele>
        <time>2020-08-16 07:50:44</time>
      </trkpt>
      <trkpt lat="40.16241" lon="-4.09402">
        <ele>619.2</ele>
        <time>2020-08-16 07:50:46</time>
      </trkpt>
      <trkpt lat="40.16235" lon="-4.09417">
        <ele>617.8</ele>
        <time>2020-08-16 07:50:48</time>
      </trkpt>
      <trkpt lat="40.16232" lon="-4.09424">
        <ele>617.6</ele>
        <time>2020-08-16 07:50:49</time>
      </trkpt>
      <trkpt lat="40.1623" lon="-4.09432">
        <ele>617.4</ele>
        <time>2020-08-16 07:50:50</time>
      </trkpt>
      <trkpt lat="40.16227" lon="-4.09439">
        <ele>617.4</ele>
        <time>2020-08-16 07:50:51</time>
      </trkpt>
      <trkpt lat="40.16222" lon="-4.09455">
        <ele>616.4</ele>
        <time>2020-08-16 07:50:53</time>
      </trkpt>
      <trkpt lat="40.16211" lon="-4.09485">
        <ele>615.4</ele>
        <time>2020-08-16 07:50:57</time>
      </trkpt>
      <trkpt lat="40.16208" lon="-4.09492">
        <ele>615.2</ele>
        <time>2020-08-16 07:50:58</time>
      </trkpt>
      <trkpt lat="40.16205" lon="-4.09499">
        <ele>615.2</ele>
        <time>2020-08-16 07:50:59</time>
      </trkpt>
      <trkpt lat="40.16202" lon="-4.09506">
        <ele>615</ele>
        <time>2020-08-16 07:51:00</time>
      </trkpt>
      <trkpt lat="40.16199" lon="-4.09513">
        <ele>614.8</ele>
        <time>2020-08-16 07:51:01</time>
      </trkpt>
      <trkpt lat="40.16196" lon="-4.0952">
        <ele>614.6</ele>
        <time>2020-08-16 07:51:02</time>
      </trkpt>
      <trkpt lat="40.16193" lon="-4.09526">
        <ele>614.4</ele>
        <time>2020-08-16 07:51:03</time>
      </trkpt>
      <trkpt lat="40.1619" lon="-4.09533">
        <ele>614</ele>
        <time>2020-08-16 07:51:04</time>
      </trkpt>
      <trkpt lat="40.16188" lon="-4.0954">
        <ele>613.8</ele>
        <time>2020-08-16 07:51:05</time>
      </trkpt>
      <trkpt lat="40.16186" lon="-4.09546">
        <ele>613.6</ele>
        <time>2020-08-16 07:51:06</time>
      </trkpt>
      <trkpt lat="40.16185" lon="-4.09553">
        <ele>613.4</ele>
        <time>2020-08-16 07:51:07</time>
      </trkpt>
      <trkpt lat="40.16185" lon="-4.0956">
        <ele>613.4</ele>
        <time>2020-08-16 07:51:08</time>
      </trkpt>
      <trkpt lat="40.16184" lon="-4.09566">
        <ele>613.4</ele>
        <time>2020-08-16 07:51:09</time>
      </trkpt>
      <trkpt lat="40.16183" lon="-4.09572">
        <ele>613.4</ele>
        <time>2020-08-16 07:51:10</time>
      </trkpt>
      <trkpt lat="40.16181" lon="-4.09578">
        <ele>613.4</ele>
        <time>2020-08-16 07:51:11</time>
      </trkpt>
      <trkpt lat="40.16179" lon="-4.09584">
        <ele>613.4</ele>
        <time>2020-08-16 07:51:12</time>
      </trkpt>
      <trkpt lat="40.16177" lon="-4.09589">
        <ele>613.4</ele>
        <time>2020-08-16 07:51:13</time>
      </trkpt>
      <trkpt lat="40.16174" lon="-4.09594">
        <ele>613.4</ele>
        <time>2020-08-16 07:51:14</time>
      </trkpt>
      <trkpt lat="40.16172" lon="-4.09599">
        <ele>613.6</ele>
        <time>2020-08-16 07:51:15</time>
      </trkpt>
      <trkpt lat="40.16169" lon="-4.09603">
        <ele>613.6</ele>
        <time>2020-08-16 07:51:16</time>
      </trkpt>
      <trkpt lat="40.16166" lon="-4.09608">
        <ele>613.6</ele>
        <time>2020-08-16 07:51:17</time>
      </trkpt>
      <trkpt lat="40.16164" lon="-4.09612">
        <ele>613.8</ele>
        <time>2020-08-16 07:51:18</time>
      </trkpt>
      <trkpt lat="40.16161" lon="-4.09617">
        <ele>613.8</ele>
        <time>2020-08-16 07:51:19</time>
      </trkpt>
      <trkpt lat="40.16158" lon="-4.09621">
        <ele>613.8</ele>
        <time>2020-08-16 07:51:20</time>
      </trkpt>
      <trkpt lat="40.16155" lon="-4.09626">
        <ele>613.8</ele>
        <time>2020-08-16 07:51:21</time>
      </trkpt>
      <trkpt lat="40.16152" lon="-4.09631">
        <ele>613.8</ele>
        <time>2020-08-16 07:51:22</time>
      </trkpt>
      <trkpt lat="40.16149" lon="-4.09636">
        <ele>613.8</ele>
        <time>2020-08-16 07:51:23</time>
      </trkpt>
      <trkpt lat="40.16146" lon="-4.0964">
        <ele>613.8</ele>
        <time>2020-08-16 07:51:24</time>
      </trkpt>
      <trkpt lat="40.16137" lon="-4.09653">
        <ele>613.8</ele>
        <time>2020-08-16 07:51:27</time>
      </trkpt>
      <trkpt lat="40.16127" lon="-4.09665">
        <ele>613.6</ele>
        <time>2020-08-16 07:51:30</time>
      </trkpt>
      <trkpt lat="40.16124" lon="-4.0967">
        <ele>613.4</ele>
        <time>2020-08-16 07:51:31</time>
      </trkpt>
      <trkpt lat="40.16122" lon="-4.09674">
        <ele>613.4</ele>
        <time>2020-08-16 07:51:32</time>
      </trkpt>
      <trkpt lat="40.1612" lon="-4.09679">
        <ele>613.4</ele>
        <time>2020-08-16 07:51:33</time>
      </trkpt>
      <trkpt lat="40.16117" lon="-4.09684">
        <ele>613.4</ele>
        <time>2020-08-16 07:51:34</time>
      </trkpt>
      <trkpt lat="40.16115" lon="-4.09688">
        <ele>613.4</ele>
        <time>2020-08-16 07:51:35</time>
      </trkpt>
      <trkpt lat="40.16113" lon="-4.09692">
        <ele>613.4</ele>
        <time>2020-08-16 07:51:36</time>
      </trkpt>
      <trkpt lat="40.16111" lon="-4.09697">
        <ele>613.4</ele>
        <time>2020-08-16 07:51:37</time>
      </trkpt>
      <trkpt lat="40.16109" lon="-4.09701">
        <ele>613.4</ele>
        <time>2020-08-16 07:51:38</time>
      </trkpt>
      <trkpt lat="40.16107" lon="-4.09705">
        <ele>613.4</ele>
        <time>2020-08-16 07:51:39</time>
      </trkpt>
      <trkpt lat="40.16104" lon="-4.09709">
        <ele>613.4</ele>
        <time>2020-08-16 07:51:40</time>
      </trkpt>
      <trkpt lat="40.16103" lon="-4.09713">
        <ele>613.4</ele>
        <time>2020-08-16 07:51:41</time>
      </trkpt>
      <trkpt lat="40.16101" lon="-4.09717">
        <ele>613.4</ele>
        <time>2020-08-16 07:51:42</time>
      </trkpt>
      <trkpt lat="40.16099" lon="-4.0972">
        <ele>613.4</ele>
        <time>2020-08-16 07:51:43</time>
      </trkpt>
      <trkpt lat="40.16098" lon="-4.09724">
        <ele>613.4</ele>
        <time>2020-08-16 07:51:44</time>
      </trkpt>
      <trkpt lat="40.16096" lon="-4.09728">
        <ele>613.6</ele>
        <time>2020-08-16 07:51:45</time>
      </trkpt>
      <trkpt lat="40.16094" lon="-4.09732">
        <ele>613.6</ele>
        <time>2020-08-16 07:51:46</time>
      </trkpt>
      <trkpt lat="40.16092" lon="-4.09736">
        <ele>613.8</ele>
        <time>2020-08-16 07:51:47</time>
      </trkpt>
      <trkpt lat="40.1609" lon="-4.09741">
        <ele>614</ele>
        <time>2020-08-16 07:51:48</time>
      </trkpt>
      <trkpt lat="40.16088" lon="-4.09746">
        <ele>614</ele>
        <time>2020-08-16 07:51:49</time>
      </trkpt>
      <trkpt lat="40.16085" lon="-4.0975">
        <ele>614.2</ele>
        <time>2020-08-16 07:51:50</time>
      </trkpt>
      <trkpt lat="40.16079" lon="-4.09765">
        <ele>614.2</ele>
        <time>2020-08-16 07:51:53</time>
      </trkpt>
      <trkpt lat="40.16076" lon="-4.09769">
        <ele>614.2</ele>
        <time>2020-08-16 07:51:54</time>
      </trkpt>
      <trkpt lat="40.16073" lon="-4.09773">
        <ele>614.2</ele>
        <time>2020-08-16 07:51:55</time>
      </trkpt>
      <trkpt lat="40.16071" lon="-4.09776">
        <ele>614.2</ele>
        <time>2020-08-16 07:51:56</time>
      </trkpt>
      <trkpt lat="40.16068" lon="-4.09779">
        <ele>614.2</ele>
        <time>2020-08-16 07:51:57</time>
      </trkpt>
      <trkpt lat="40.1606" lon="-4.09792">
        <ele>614</ele>
        <time>2020-08-16 07:52:00</time>
      </trkpt>
      <trkpt lat="40.16058" lon="-4.09797">
        <ele>614</ele>
        <time>2020-08-16 07:52:01</time>
      </trkpt>
      <trkpt lat="40.16056" lon="-4.09803">
        <ele>613.8</ele>
        <time>2020-08-16 07:52:02</time>
      </trkpt>
      <trkpt lat="40.1605" lon="-4.09831">
        <ele>613.6</ele>
        <time>2020-08-16 07:52:06</time>
      </trkpt>
      <trkpt lat="40.16049" lon="-4.09838">
        <ele>613.4</ele>
        <time>2020-08-16 07:52:07</time>
      </trkpt>
      <trkpt lat="40.16047" lon="-4.09845">
        <ele>613.2</ele>
        <time>2020-08-16 07:52:08</time>
      </trkpt>
      <trkpt lat="40.16046" lon="-4.09851">
        <ele>613</ele>
        <time>2020-08-16 07:52:09</time>
      </trkpt>
      <trkpt lat="40.16045" lon="-4.09858">
        <ele>612.6</ele>
        <time>2020-08-16 07:52:10</time>
      </trkpt>
      <trkpt lat="40.16044" lon="-4.09864">
        <ele>612.6</ele>
        <time>2020-08-16 07:52:11</time>
      </trkpt>
      <trkpt lat="40.16042" lon="-4.09871">
        <ele>612.4</ele>
        <time>2020-08-16 07:52:12</time>
      </trkpt>
      <trkpt lat="40.16041" lon="-4.09877">
        <ele>612.2</ele>
        <time>2020-08-16 07:52:13</time>
      </trkpt>
      <trkpt lat="40.1604" lon="-4.09883">
        <ele>612.2</ele>
        <time>2020-08-16 07:52:14</time>
      </trkpt>
      <trkpt lat="40.16039" lon="-4.09888">
        <ele>612.2</ele>
        <time>2020-08-16 07:52:15</time>
      </trkpt>
      <trkpt lat="40.16038" lon="-4.09894">
        <ele>612.2</ele>
        <time>2020-08-16 07:52:16</time>
      </trkpt>
      <trkpt lat="40.16036" lon="-4.099">
        <ele>612</ele>
        <time>2020-08-16 07:52:17</time>
      </trkpt>
      <trkpt lat="40.16035" lon="-4.09906">
        <ele>612</ele>
        <time>2020-08-16 07:52:18</time>
      </trkpt>
      <trkpt lat="40.16034" lon="-4.09912">
        <ele>611.8</ele>
        <time>2020-08-16 07:52:19</time>
      </trkpt>
      <trkpt lat="40.16033" lon="-4.09918">
        <ele>611.8</ele>
        <time>2020-08-16 07:52:20</time>
      </trkpt>
      <trkpt lat="40.16032" lon="-4.09924">
        <ele>611.4</ele>
        <time>2020-08-16 07:52:21</time>
      </trkpt>
      <trkpt lat="40.16031" lon="-4.0993">
        <ele>611.4</ele>
        <time>2020-08-16 07:52:22</time>
      </trkpt>
      <trkpt lat="40.1603" lon="-4.09936">
        <ele>611.2</ele>
        <time>2020-08-16 07:52:23</time>
      </trkpt>
      <trkpt lat="40.16029" lon="-4.09943">
        <ele>611.2</ele>
        <time>2020-08-16 07:52:24</time>
      </trkpt>
      <trkpt lat="40.16026" lon="-4.0997">
        <ele>610.8</ele>
        <time>2020-08-16 07:52:28</time>
      </trkpt>
      <trkpt lat="40.16026" lon="-4.09975">
        <ele>610.8</ele>
        <time>2020-08-16 07:52:29</time>
      </trkpt>
      <trkpt lat="40.16026" lon="-4.0998">
        <ele>610.4</ele>
        <time>2020-08-16 07:52:30</time>
      </trkpt>
      <trkpt lat="40.16026" lon="-4.09984">
        <ele>610.4</ele>
        <time>2020-08-16 07:52:31</time>
      </trkpt>
      <trkpt lat="40.16026" lon="-4.09988">
        <ele>610.2</ele>
        <time>2020-08-16 07:52:32</time>
      </trkpt>
      <trkpt lat="40.16026" lon="-4.09992">
        <ele>609.8</ele>
        <time>2020-08-16 07:52:33</time>
      </trkpt>
      <trkpt lat="40.16026" lon="-4.09997">
        <ele>609.8</ele>
        <time>2020-08-16 07:52:34</time>
      </trkpt>
      <trkpt lat="40.16025" lon="-4.10002">
        <ele>609.6</ele>
        <time>2020-08-16 07:52:35</time>
      </trkpt>
      <trkpt lat="40.16024" lon="-4.10006">
        <ele>609.4</ele>
        <time>2020-08-16 07:52:36</time>
      </trkpt>
      <trkpt lat="40.16023" lon="-4.10011">
        <ele>609.4</ele>
        <time>2020-08-16 07:52:37</time>
      </trkpt>
      <trkpt lat="40.16023" lon="-4.10016">
        <ele>609.4</ele>
        <time>2020-08-16 07:52:38</time>
      </trkpt>
      <trkpt lat="40.16022" lon="-4.1002">
        <ele>609.4</ele>
        <time>2020-08-16 07:52:39</time>
      </trkpt>
      <trkpt lat="40.16022" lon="-4.10025">
        <ele>609.4</ele>
        <time>2020-08-16 07:52:40</time>
      </trkpt>
      <trkpt lat="40.16022" lon="-4.1003">
        <ele>609.4</ele>
        <time>2020-08-16 07:52:41</time>
      </trkpt>
      <trkpt lat="40.16021" lon="-4.10039">
        <ele>609.4</ele>
        <time>2020-08-16 07:52:43</time>
      </trkpt>
      <trkpt lat="40.1602" lon="-4.10044">
        <ele>609.4</ele>
        <time>2020-08-16 07:52:44</time>
      </trkpt>
      <trkpt lat="40.16017" lon="-4.10048">
        <ele>609.2</ele>
        <time>2020-08-16 07:52:45</time>
      </trkpt>
      <trkpt lat="40.16014" lon="-4.10055">
        <ele>609</ele>
        <time>2020-08-16 07:52:47</time>
      </trkpt>
      <trkpt lat="40.16013" lon="-4.10059">
        <ele>609</ele>
        <time>2020-08-16 07:52:48</time>
      </trkpt>
      <trkpt lat="40.16012" lon="-4.10063">
        <ele>609</ele>
        <time>2020-08-16 07:52:49</time>
      </trkpt>
      <trkpt lat="40.16011" lon="-4.10068">
        <ele>609</ele>
        <time>2020-08-16 07:52:50</time>
      </trkpt>
      <trkpt lat="40.16009" lon="-4.10076">
        <ele>608.8</ele>
        <time>2020-08-16 07:52:52</time>
      </trkpt>
      <trkpt lat="40.16008" lon="-4.10081">
        <ele>608.8</ele>
        <time>2020-08-16 07:52:53</time>
      </trkpt>
      <trkpt lat="40.16007" lon="-4.10085">
        <ele>608.8</ele>
        <time>2020-08-16 07:52:54</time>
      </trkpt>
      <trkpt lat="40.16005" lon="-4.1009">
        <ele>608.8</ele>
        <time>2020-08-16 07:52:55</time>
      </trkpt>
      <trkpt lat="40.16005" lon="-4.10094">
        <ele>608.8</ele>
        <time>2020-08-16 07:52:56</time>
      </trkpt>
      <trkpt lat="40.16004" lon="-4.10098">
        <ele>609</ele>
        <time>2020-08-16 07:52:57</time>
      </trkpt>
      <trkpt lat="40.16003" lon="-4.10103">
        <ele>609</ele>
        <time>2020-08-16 07:52:58</time>
      </trkpt>
      <trkpt lat="40.16001" lon="-4.10112">
        <ele>609</ele>
        <time>2020-08-16 07:53:00</time>
      </trkpt>
      <trkpt lat="40.16" lon="-4.1012">
        <ele>609.2</ele>
        <time>2020-08-16 07:53:02</time>
      </trkpt>
      <trkpt lat="40.15999" lon="-4.10125">
        <ele>609.2</ele>
        <time>2020-08-16 07:53:03</time>
      </trkpt>
      <trkpt lat="40.15999" lon="-4.10129">
        <ele>609.2</ele>
        <time>2020-08-16 07:53:04</time>
      </trkpt>
      <trkpt lat="40.15998" lon="-4.10133">
        <ele>609.4</ele>
        <time>2020-08-16 07:53:05</time>
      </trkpt>
      <trkpt lat="40.15998" lon="-4.10136">
        <ele>609.4</ele>
        <time>2020-08-16 07:53:06</time>
      </trkpt>
      <trkpt lat="40.15997" lon="-4.1014">
        <ele>609.4</ele>
        <time>2020-08-16 07:53:07</time>
      </trkpt>
      <trkpt lat="40.15996" lon="-4.10144">
        <ele>609.4</ele>
        <time>2020-08-16 07:53:08</time>
      </trkpt>
      <trkpt lat="40.15995" lon="-4.10148">
        <ele>609.4</ele>
        <time>2020-08-16 07:53:09</time>
      </trkpt>
      <trkpt lat="40.15994" lon="-4.10152">
        <ele>609.4</ele>
        <time>2020-08-16 07:53:10</time>
      </trkpt>
      <trkpt lat="40.15994" lon="-4.10156">
        <ele>609.6</ele>
        <time>2020-08-16 07:53:11</time>
      </trkpt>
      <trkpt lat="40.15993" lon="-4.1016">
        <ele>609.6</ele>
        <time>2020-08-16 07:53:12</time>
      </trkpt>
      <trkpt lat="40.15992" lon="-4.10164">
        <ele>609.6</ele>
        <time>2020-08-16 07:53:13</time>
      </trkpt>
      <trkpt lat="40.15991" lon="-4.10167">
        <ele>609.6</ele>
        <time>2020-08-16 07:53:14</time>
      </trkpt>
      <trkpt lat="40.1599" lon="-4.10171">
        <ele>609.4</ele>
        <time>2020-08-16 07:53:15</time>
      </trkpt>
      <trkpt lat="40.15989" lon="-4.10175">
        <ele>609.4</ele>
        <time>2020-08-16 07:53:16</time>
      </trkpt>
      <trkpt lat="40.15986" lon="-4.10188">
        <ele>609.6</ele>
        <time>2020-08-16 07:53:19</time>
      </trkpt>
      <trkpt lat="40.15985" lon="-4.10191">
        <ele>609.6</ele>
        <time>2020-08-16 07:53:20</time>
      </trkpt>
      <trkpt lat="40.15982" lon="-4.10204">
        <ele>609.6</ele>
        <time>2020-08-16 07:53:23</time>
      </trkpt>
      <trkpt lat="40.1598" lon="-4.10212">
        <ele>609.8</ele>
        <time>2020-08-16 07:53:25</time>
      </trkpt>
      <trkpt lat="40.15975" lon="-4.10222">
        <ele>610</ele>
        <time>2020-08-16 07:53:28</time>
      </trkpt>
      <trkpt lat="40.15974" lon="-4.10226">
        <ele>610</ele>
        <time>2020-08-16 07:53:29</time>
      </trkpt>
      <trkpt lat="40.1597" lon="-4.10241">
        <ele>610.2</ele>
        <time>2020-08-16 07:53:33</time>
      </trkpt>
      <trkpt lat="40.15969" lon="-4.10244">
        <ele>610.2</ele>
        <time>2020-08-16 07:53:34</time>
      </trkpt>
      <trkpt lat="40.15967" lon="-4.10248">
        <ele>610.2</ele>
        <time>2020-08-16 07:53:35</time>
      </trkpt>
      <trkpt lat="40.15965" lon="-4.10251">
        <ele>610.4</ele>
        <time>2020-08-16 07:53:36</time>
      </trkpt>
      <trkpt lat="40.15963" lon="-4.10255">
        <ele>610.6</ele>
        <time>2020-08-16 07:53:37</time>
      </trkpt>
      <trkpt lat="40.15962" lon="-4.10258">
        <ele>610.6</ele>
        <time>2020-08-16 07:53:38</time>
      </trkpt>
      <trkpt lat="40.1596" lon="-4.10261">
        <ele>610.6</ele>
        <time>2020-08-16 07:53:39</time>
      </trkpt>
      <trkpt lat="40.15959" lon="-4.10263">
        <ele>610.6</ele>
        <time>2020-08-16 07:53:40</time>
      </trkpt>
      <trkpt lat="40.15958" lon="-4.10266">
        <ele>610.8</ele>
        <time>2020-08-16 07:53:41</time>
      </trkpt>
      <trkpt lat="40.15956" lon="-4.10268">
        <ele>610.8</ele>
        <time>2020-08-16 07:53:42</time>
      </trkpt>
      <trkpt lat="40.15955" lon="-4.1027">
        <ele>610.8</ele>
        <time>2020-08-16 07:53:43</time>
      </trkpt>
      <trkpt lat="40.15952" lon="-4.10278">
        <ele>611</ele>
        <time>2020-08-16 07:53:46</time>
      </trkpt>
      <trkpt lat="40.15951" lon="-4.1028">
        <ele>611</ele>
        <time>2020-08-16 07:53:47</time>
      </trkpt>
      <trkpt lat="40.15949" lon="-4.10282">
        <ele>611</ele>
        <time>2020-08-16 07:53:48</time>
      </trkpt>
      <trkpt lat="40.15948" lon="-4.10285">
        <ele>611</ele>
        <time>2020-08-16 07:53:49</time>
      </trkpt>
      <trkpt lat="40.15946" lon="-4.10287">
        <ele>611</ele>
        <time>2020-08-16 07:53:50</time>
      </trkpt>
      <trkpt lat="40.15945" lon="-4.1029">
        <ele>611</ele>
        <time>2020-08-16 07:53:51</time>
      </trkpt>
      <trkpt lat="40.15944" lon="-4.10292">
        <ele>611</ele>
        <time>2020-08-16 07:53:52</time>
      </trkpt>
      <trkpt lat="40.15943" lon="-4.10294">
        <ele>611.2</ele>
        <time>2020-08-16 07:53:53</time>
      </trkpt>
      <trkpt lat="40.15943" lon="-4.10297">
        <ele>611.2</ele>
        <time>2020-08-16 07:53:54</time>
      </trkpt>
      <trkpt lat="40.15942" lon="-4.10299">
        <ele>611.2</ele>
        <time>2020-08-16 07:53:55</time>
      </trkpt>
      <trkpt lat="40.15942" lon="-4.10302">
        <ele>611.2</ele>
        <time>2020-08-16 07:53:56</time>
      </trkpt>
      <trkpt lat="40.15941" lon="-4.10305">
        <ele>611.2</ele>
        <time>2020-08-16 07:53:57</time>
      </trkpt>
      <trkpt lat="40.1594" lon="-4.10308">
        <ele>611.4</ele>
        <time>2020-08-16 07:53:58</time>
      </trkpt>
      <trkpt lat="40.15939" lon="-4.10312">
        <ele>611.4</ele>
        <time>2020-08-16 07:53:59</time>
      </trkpt>
      <trkpt lat="40.15939" lon="-4.10315">
        <ele>611.4</ele>
        <time>2020-08-16 07:54:00</time>
      </trkpt>
      <trkpt lat="40.15936" lon="-4.10325">
        <ele>611.6</ele>
        <time>2020-08-16 07:54:03</time>
      </trkpt>
      <trkpt lat="40.15933" lon="-4.10332">
        <ele>611.6</ele>
        <time>2020-08-16 07:54:05</time>
      </trkpt>
      <trkpt lat="40.15932" lon="-4.10336">
        <ele>611.6</ele>
        <time>2020-08-16 07:54:06</time>
      </trkpt>
      <trkpt lat="40.15923" lon="-4.10355">
        <ele>612</ele>
        <time>2020-08-16 07:54:12</time>
      </trkpt>
      <trkpt lat="40.15919" lon="-4.10361">
        <ele>612</ele>
        <time>2020-08-16 07:54:14</time>
      </trkpt>
      <trkpt lat="40.15898" lon="-4.10391">
        <ele>612.4</ele>
        <time>2020-08-16 07:54:24</time>
      </trkpt>
      <trkpt lat="40.15896" lon="-4.10394">
        <ele>612.4</ele>
        <time>2020-08-16 07:54:25</time>
      </trkpt>
      <trkpt lat="40.15894" lon="-4.10397">
        <ele>612.6</ele>
        <time>2020-08-16 07:54:26</time>
      </trkpt>
      <trkpt lat="40.15893" lon="-4.10399">
        <ele>612.6</ele>
        <time>2020-08-16 07:54:27</time>
      </trkpt>
      <trkpt lat="40.1589" lon="-4.10402">
        <ele>612.6</ele>
        <time>2020-08-16 07:54:28</time>
      </trkpt>
      <trkpt lat="40.15888" lon="-4.10405">
        <ele>612.8</ele>
        <time>2020-08-16 07:54:29</time>
      </trkpt>
      <trkpt lat="40.15886" lon="-4.10407">
        <ele>612.8</ele>
        <time>2020-08-16 07:54:30</time>
      </trkpt>
      <trkpt lat="40.15884" lon="-4.1041">
        <ele>612.8</ele>
        <time>2020-08-16 07:54:31</time>
      </trkpt>
      <trkpt lat="40.15882" lon="-4.10413">
        <ele>613</ele>
        <time>2020-08-16 07:54:32</time>
      </trkpt>
      <trkpt lat="40.1588" lon="-4.10416">
        <ele>613</ele>
        <time>2020-08-16 07:54:33</time>
      </trkpt>
      <trkpt lat="40.15878" lon="-4.10419">
        <ele>613</ele>
        <time>2020-08-16 07:54:34</time>
      </trkpt>
      <trkpt lat="40.15876" lon="-4.10421">
        <ele>613</ele>
        <time>2020-08-16 07:54:35</time>
      </trkpt>
      <trkpt lat="40.15874" lon="-4.10424">
        <ele>613.2</ele>
        <time>2020-08-16 07:54:36</time>
      </trkpt>
      <trkpt lat="40.15872" lon="-4.10426">
        <ele>613.2</ele>
        <time>2020-08-16 07:54:37</time>
      </trkpt>
      <trkpt lat="40.1587" lon="-4.10429">
        <ele>613.2</ele>
        <time>2020-08-16 07:54:38</time>
      </trkpt>
      <trkpt lat="40.15867" lon="-4.10432">
        <ele>613.2</ele>
        <time>2020-08-16 07:54:39</time>
      </trkpt>
      <trkpt lat="40.15865" lon="-4.10435">
        <ele>613.4</ele>
        <time>2020-08-16 07:54:40</time>
      </trkpt>
      <trkpt lat="40.15863" lon="-4.10438">
        <ele>613.4</ele>
        <time>2020-08-16 07:54:41</time>
      </trkpt>
      <trkpt lat="40.15858" lon="-4.10449">
        <ele>613.8</ele>
        <time>2020-08-16 07:54:44</time>
      </trkpt>
      <trkpt lat="40.1585" lon="-4.10467">
        <ele>614</ele>
        <time>2020-08-16 07:54:49</time>
      </trkpt>
      <trkpt lat="40.15847" lon="-4.10475">
        <ele>614</ele>
        <time>2020-08-16 07:54:51</time>
      </trkpt>
      <trkpt lat="40.15843" lon="-4.10487">
        <ele>614.2</ele>
        <time>2020-08-16 07:54:54</time>
      </trkpt>
      <trkpt lat="40.1584" lon="-4.10495">
        <ele>614.2</ele>
        <time>2020-08-16 07:54:56</time>
      </trkpt>
      <trkpt lat="40.15839" lon="-4.10499">
        <ele>614.2</ele>
        <time>2020-08-16 07:54:57</time>
      </trkpt>
      <trkpt lat="40.15834" lon="-4.1051">
        <ele>614.4</ele>
        <time>2020-08-16 07:55:00</time>
      </trkpt>
      <trkpt lat="40.15833" lon="-4.10513">
        <ele>614.6</ele>
        <time>2020-08-16 07:55:01</time>
      </trkpt>
      <trkpt lat="40.15832" lon="-4.10516">
        <ele>614.6</ele>
        <time>2020-08-16 07:55:02</time>
      </trkpt>
      <trkpt lat="40.15831" lon="-4.1052">
        <ele>614.8</ele>
        <time>2020-08-16 07:55:03</time>
      </trkpt>
      <trkpt lat="40.15829" lon="-4.10524">
        <ele>615</ele>
        <time>2020-08-16 07:55:04</time>
      </trkpt>
      <trkpt lat="40.15828" lon="-4.10527">
        <ele>615.2</ele>
        <time>2020-08-16 07:55:05</time>
      </trkpt>
      <trkpt lat="40.15826" lon="-4.10531">
        <ele>615.2</ele>
        <time>2020-08-16 07:55:06</time>
      </trkpt>
      <trkpt lat="40.15825" lon="-4.10535">
        <ele>615.4</ele>
        <time>2020-08-16 07:55:07</time>
      </trkpt>
      <trkpt lat="40.15823" lon="-4.10538">
        <ele>615.6</ele>
        <time>2020-08-16 07:55:08</time>
      </trkpt>
      <trkpt lat="40.15822" lon="-4.10542">
        <ele>615.6</ele>
        <time>2020-08-16 07:55:09</time>
      </trkpt>
      <trkpt lat="40.1582" lon="-4.10546">
        <ele>615.8</ele>
        <time>2020-08-16 07:55:10</time>
      </trkpt>
      <trkpt lat="40.15819" lon="-4.10549">
        <ele>615.8</ele>
        <time>2020-08-16 07:55:11</time>
      </trkpt>
      <trkpt lat="40.15818" lon="-4.10553">
        <ele>615.8</ele>
        <time>2020-08-16 07:55:12</time>
      </trkpt>
      <trkpt lat="40.15816" lon="-4.10556">
        <ele>615.8</ele>
        <time>2020-08-16 07:55:13</time>
      </trkpt>
      <trkpt lat="40.15815" lon="-4.10559">
        <ele>616</ele>
        <time>2020-08-16 07:55:14</time>
      </trkpt>
      <trkpt lat="40.15814" lon="-4.10563">
        <ele>616</ele>
        <time>2020-08-16 07:55:15</time>
      </trkpt>
      <trkpt lat="40.15812" lon="-4.10566">
        <ele>616</ele>
        <time>2020-08-16 07:55:16</time>
      </trkpt>
      <trkpt lat="40.15811" lon="-4.10569">
        <ele>616</ele>
        <time>2020-08-16 07:55:17</time>
      </trkpt>
      <trkpt lat="40.1581" lon="-4.10573">
        <ele>616.2</ele>
        <time>2020-08-16 07:55:18</time>
      </trkpt>
      <trkpt lat="40.15808" lon="-4.10576">
        <ele>616.2</ele>
        <time>2020-08-16 07:55:19</time>
      </trkpt>
      <trkpt lat="40.15806" lon="-4.10579">
        <ele>616.2</ele>
        <time>2020-08-16 07:55:20</time>
      </trkpt>
      <trkpt lat="40.15805" lon="-4.10582">
        <ele>616.2</ele>
        <time>2020-08-16 07:55:21</time>
      </trkpt>
      <trkpt lat="40.15803" lon="-4.10585">
        <ele>616.2</ele>
        <time>2020-08-16 07:55:22</time>
      </trkpt>
      <trkpt lat="40.15801" lon="-4.10588">
        <ele>616.2</ele>
        <time>2020-08-16 07:55:23</time>
      </trkpt>
      <trkpt lat="40.15799" lon="-4.10592">
        <ele>616.4</ele>
        <time>2020-08-16 07:55:24</time>
      </trkpt>
      <trkpt lat="40.15798" lon="-4.10595">
        <ele>616.4</ele>
        <time>2020-08-16 07:55:25</time>
      </trkpt>
      <trkpt lat="40.15796" lon="-4.10599">
        <ele>616.4</ele>
        <time>2020-08-16 07:55:26</time>
      </trkpt>
      <trkpt lat="40.1579" lon="-4.10611">
        <ele>616.8</ele>
        <time>2020-08-16 07:55:30</time>
      </trkpt>
      <trkpt lat="40.15788" lon="-4.10614">
        <ele>616.8</ele>
        <time>2020-08-16 07:55:31</time>
      </trkpt>
      <trkpt lat="40.15786" lon="-4.10617">
        <ele>616.8</ele>
        <time>2020-08-16 07:55:32</time>
      </trkpt>
      <trkpt lat="40.15784" lon="-4.1062">
        <ele>617</ele>
        <time>2020-08-16 07:55:33</time>
      </trkpt>
      <trkpt lat="40.15783" lon="-4.10622">
        <ele>617</ele>
        <time>2020-08-16 07:55:34</time>
      </trkpt>
      <trkpt lat="40.15782" lon="-4.10625">
        <ele>617.2</ele>
        <time>2020-08-16 07:55:35</time>
      </trkpt>
      <trkpt lat="40.1578" lon="-4.10628">
        <ele>617.4</ele>
        <time>2020-08-16 07:55:36</time>
      </trkpt>
      <trkpt lat="40.15779" lon="-4.10631">
        <ele>617.4</ele>
        <time>2020-08-16 07:55:37</time>
      </trkpt>
      <trkpt lat="40.15777" lon="-4.10634">
        <ele>617.6</ele>
        <time>2020-08-16 07:55:38</time>
      </trkpt>
      <trkpt lat="40.15776" lon="-4.10637">
        <ele>617.8</ele>
        <time>2020-08-16 07:55:39</time>
      </trkpt>
      <trkpt lat="40.15774" lon="-4.1064">
        <ele>617.8</ele>
        <time>2020-08-16 07:55:40</time>
      </trkpt>
      <trkpt lat="40.15772" lon="-4.10643">
        <ele>617.8</ele>
        <time>2020-08-16 07:55:41</time>
      </trkpt>
      <trkpt lat="40.15771" lon="-4.10646">
        <ele>618</ele>
        <time>2020-08-16 07:55:42</time>
      </trkpt>
      <trkpt lat="40.15769" lon="-4.10649">
        <ele>618</ele>
        <time>2020-08-16 07:55:43</time>
      </trkpt>
      <trkpt lat="40.15768" lon="-4.10652">
        <ele>618</ele>
        <time>2020-08-16 07:55:44</time>
      </trkpt>
      <trkpt lat="40.15766" lon="-4.10655">
        <ele>618</ele>
        <time>2020-08-16 07:55:45</time>
      </trkpt>
      <trkpt lat="40.15765" lon="-4.10658">
        <ele>618.2</ele>
        <time>2020-08-16 07:55:46</time>
      </trkpt>
      <trkpt lat="40.1576" lon="-4.10667">
        <ele>618.4</ele>
        <time>2020-08-16 07:55:49</time>
      </trkpt>
      <trkpt lat="40.15758" lon="-4.10669">
        <ele>618.4</ele>
        <time>2020-08-16 07:55:50</time>
      </trkpt>
      <trkpt lat="40.15756" lon="-4.10672">
        <ele>618.4</ele>
        <time>2020-08-16 07:55:51</time>
      </trkpt>
      <trkpt lat="40.15754" lon="-4.10675">
        <ele>618.4</ele>
        <time>2020-08-16 07:55:52</time>
      </trkpt>
      <trkpt lat="40.15753" lon="-4.10679">
        <ele>618.6</ele>
        <time>2020-08-16 07:55:53</time>
      </trkpt>
      <trkpt lat="40.15753" lon="-4.10682">
        <ele>618.6</ele>
        <time>2020-08-16 07:55:54</time>
      </trkpt>
      <trkpt lat="40.15752" lon="-4.10685">
        <ele>618.6</ele>
        <time>2020-08-16 07:55:55</time>
      </trkpt>
      <trkpt lat="40.15751" lon="-4.10688">
        <ele>618.8</ele>
        <time>2020-08-16 07:55:56</time>
      </trkpt>
      <trkpt lat="40.15749" lon="-4.1069">
        <ele>618.8</ele>
        <time>2020-08-16 07:55:57</time>
      </trkpt>
      <trkpt lat="40.15748" lon="-4.10693">
        <ele>619</ele>
        <time>2020-08-16 07:55:58</time>
      </trkpt>
      <trkpt lat="40.15746" lon="-4.10696">
        <ele>619</ele>
        <time>2020-08-16 07:55:59</time>
      </trkpt>
      <trkpt lat="40.15744" lon="-4.10698">
        <ele>619.2</ele>
        <time>2020-08-16 07:56:00</time>
      </trkpt>
      <trkpt lat="40.15743" lon="-4.10701">
        <ele>619.2</ele>
        <time>2020-08-16 07:56:01</time>
      </trkpt>
      <trkpt lat="40.15741" lon="-4.10704">
        <ele>619.2</ele>
        <time>2020-08-16 07:56:02</time>
      </trkpt>
      <trkpt lat="40.15733" lon="-4.1072">
        <ele>619.6</ele>
        <time>2020-08-16 07:56:07</time>
      </trkpt>
      <trkpt lat="40.15726" lon="-4.10739">
        <ele>619.8</ele>
        <time>2020-08-16 07:56:13</time>
      </trkpt>
      <trkpt lat="40.15724" lon="-4.10742">
        <ele>619.8</ele>
        <time>2020-08-16 07:56:14</time>
      </trkpt>
      <trkpt lat="40.15723" lon="-4.10746">
        <ele>620</ele>
        <time>2020-08-16 07:56:15</time>
      </trkpt>
      <trkpt lat="40.15722" lon="-4.10749">
        <ele>620</ele>
        <time>2020-08-16 07:56:16</time>
      </trkpt>
      <trkpt lat="40.1572" lon="-4.10751">
        <ele>620.2</ele>
        <time>2020-08-16 07:56:17</time>
      </trkpt>
      <trkpt lat="40.15719" lon="-4.10753">
        <ele>620.2</ele>
        <time>2020-08-16 07:56:18</time>
      </trkpt>
      <trkpt lat="40.15718" lon="-4.10755">
        <ele>620.4</ele>
        <time>2020-08-16 07:56:19</time>
      </trkpt>
      <trkpt lat="40.15717" lon="-4.10757">
        <ele>620.8</ele>
        <time>2020-08-16 07:56:20</time>
      </trkpt>
      <trkpt lat="40.15716" lon="-4.10759">
        <ele>621</ele>
        <time>2020-08-16 07:56:21</time>
      </trkpt>
      <trkpt lat="40.15715" lon="-4.10761">
        <ele>621</ele>
        <time>2020-08-16 07:56:22</time>
      </trkpt>
      <trkpt lat="40.15714" lon="-4.10763">
        <ele>621.2</ele>
        <time>2020-08-16 07:56:23</time>
      </trkpt>
      <trkpt lat="40.15713" lon="-4.10766">
        <ele>621.4</ele>
        <time>2020-08-16 07:56:24</time>
      </trkpt>
      <trkpt lat="40.15713" lon="-4.10768">
        <ele>621.6</ele>
        <time>2020-08-16 07:56:25</time>
      </trkpt>
      <trkpt lat="40.15712" lon="-4.1077">
        <ele>621.6</ele>
        <time>2020-08-16 07:56:26</time>
      </trkpt>
      <trkpt lat="40.15711" lon="-4.10772">
        <ele>621.8</ele>
        <time>2020-08-16 07:56:27</time>
      </trkpt>
      <trkpt lat="40.1571" lon="-4.10775">
        <ele>621.8</ele>
        <time>2020-08-16 07:56:28</time>
      </trkpt>
      <trkpt lat="40.1571" lon="-4.10777">
        <ele>621.8</ele>
        <time>2020-08-16 07:56:29</time>
      </trkpt>
      <trkpt lat="40.15709" lon="-4.1078">
        <ele>622</ele>
        <time>2020-08-16 07:56:30</time>
      </trkpt>
      <trkpt lat="40.15708" lon="-4.10782">
        <ele>622</ele>
        <time>2020-08-16 07:56:31</time>
      </trkpt>
      <trkpt lat="40.15707" lon="-4.10784">
        <ele>622.2</ele>
        <time>2020-08-16 07:56:32</time>
      </trkpt>
      <trkpt lat="40.15706" lon="-4.10787">
        <ele>622.2</ele>
        <time>2020-08-16 07:56:33</time>
      </trkpt>
      <trkpt lat="40.15705" lon="-4.10789">
        <ele>622.6</ele>
        <time>2020-08-16 07:56:34</time>
      </trkpt>
      <trkpt lat="40.15704" lon="-4.10791">
        <ele>622.6</ele>
        <time>2020-08-16 07:56:35</time>
      </trkpt>
      <trkpt lat="40.15703" lon="-4.10794">
        <ele>622.8</ele>
        <time>2020-08-16 07:56:36</time>
      </trkpt>
      <trkpt lat="40.15702" lon="-4.10796">
        <ele>623.2</ele>
        <time>2020-08-16 07:56:37</time>
      </trkpt>
      <trkpt lat="40.15701" lon="-4.10798">
        <ele>623.2</ele>
        <time>2020-08-16 07:56:38</time>
      </trkpt>
      <trkpt lat="40.157" lon="-4.108">
        <ele>623.4</ele>
        <time>2020-08-16 07:56:39</time>
      </trkpt>
      <trkpt lat="40.15699" lon="-4.10802">
        <ele>623.4</ele>
        <time>2020-08-16 07:56:40</time>
      </trkpt>
      <trkpt lat="40.15698" lon="-4.10804">
        <ele>623.6</ele>
        <time>2020-08-16 07:56:41</time>
      </trkpt>
      <trkpt lat="40.15696" lon="-4.10806">
        <ele>623.8</ele>
        <time>2020-08-16 07:56:42</time>
      </trkpt>
      <trkpt lat="40.15695" lon="-4.10808">
        <ele>623.8</ele>
        <time>2020-08-16 07:56:43</time>
      </trkpt>
      <trkpt lat="40.15693" lon="-4.1081">
        <ele>624</ele>
        <time>2020-08-16 07:56:44</time>
      </trkpt>
      <trkpt lat="40.15691" lon="-4.10812">
        <ele>624</ele>
        <time>2020-08-16 07:56:45</time>
      </trkpt>
      <trkpt lat="40.1569" lon="-4.10814">
        <ele>624.2</ele>
        <time>2020-08-16 07:56:46</time>
      </trkpt>
      <trkpt lat="40.15688" lon="-4.10816">
        <ele>624.2</ele>
        <time>2020-08-16 07:56:47</time>
      </trkpt>
      <trkpt lat="40.15687" lon="-4.10818">
        <ele>624.4</ele>
        <time>2020-08-16 07:56:48</time>
      </trkpt>
      <trkpt lat="40.15685" lon="-4.1082">
        <ele>624.4</ele>
        <time>2020-08-16 07:56:49</time>
      </trkpt>
      <trkpt lat="40.15684" lon="-4.10822">
        <ele>624.6</ele>
        <time>2020-08-16 07:56:50</time>
      </trkpt>
      <trkpt lat="40.15683" lon="-4.10824">
        <ele>624.6</ele>
        <time>2020-08-16 07:56:51</time>
      </trkpt>
      <trkpt lat="40.15682" lon="-4.10825">
        <ele>624.6</ele>
        <time>2020-08-16 07:56:52</time>
      </trkpt>
      <trkpt lat="40.15682" lon="-4.10827">
        <ele>624.8</ele>
        <time>2020-08-16 07:56:53</time>
      </trkpt>
      <trkpt lat="40.15682" lon="-4.10827">
        <ele>624.8</ele>
        <time>2020-08-16 07:56:54</time>
      </trkpt>
      <trkpt lat="40.15682" lon="-4.10827">
        <ele>625</ele>
        <time>2020-08-16 07:56:55</time>
      </trkpt>
      <trkpt lat="40.15682" lon="-4.10827">
        <ele>625</ele>
        <time>2020-08-16 07:56:56</time>
      </trkpt>
      <trkpt lat="40.1568" lon="-4.10833">
        <ele>625</ele>
        <time>2020-08-16 07:59:02</time>
      </trkpt>
      <trkpt lat="40.1568" lon="-4.10835">
        <ele>625</ele>
        <time>2020-08-16 07:59:03</time>
      </trkpt>
      <trkpt lat="40.15679" lon="-4.10837">
        <ele>625</ele>
        <time>2020-08-16 07:59:04</time>
      </trkpt>
      <trkpt lat="40.15679" lon="-4.1084">
        <ele>625</ele>
        <time>2020-08-16 07:59:05</time>
      </trkpt>
      <trkpt lat="40.15677" lon="-4.1085">
        <ele>625.2</ele>
        <time>2020-08-16 07:59:09</time>
      </trkpt>
      <trkpt lat="40.15676" lon="-4.10852">
        <ele>625.2</ele>
        <time>2020-08-16 07:59:10</time>
      </trkpt>
      <trkpt lat="40.15674" lon="-4.10857">
        <ele>625.4</ele>
        <time>2020-08-16 07:59:12</time>
      </trkpt>
      <trkpt lat="40.15673" lon="-4.1086">
        <ele>625.4</ele>
        <time>2020-08-16 07:59:13</time>
      </trkpt>
      <trkpt lat="40.15668" lon="-4.10873">
        <ele>625.6</ele>
        <time>2020-08-16 07:59:18</time>
      </trkpt>
      <trkpt lat="40.15664" lon="-4.10883">
        <ele>625.8</ele>
        <time>2020-08-16 07:59:22</time>
      </trkpt>
      <trkpt lat="40.15663" lon="-4.10885">
        <ele>625.8</ele>
        <time>2020-08-16 07:59:23</time>
      </trkpt>
      <trkpt lat="40.15662" lon="-4.10888">
        <ele>625.8</ele>
        <time>2020-08-16 07:59:24</time>
      </trkpt>
      <trkpt lat="40.15661" lon="-4.1089">
        <ele>626</ele>
        <time>2020-08-16 07:59:25</time>
      </trkpt>
      <trkpt lat="40.15658" lon="-4.10898">
        <ele>626.2</ele>
        <time>2020-08-16 07:59:28</time>
      </trkpt>
      <trkpt lat="40.15657" lon="-4.109">
        <ele>626.4</ele>
        <time>2020-08-16 07:59:29</time>
      </trkpt>
      <trkpt lat="40.15656" lon="-4.10903">
        <ele>626.4</ele>
        <time>2020-08-16 07:59:30</time>
      </trkpt>
      <trkpt lat="40.15655" lon="-4.10905">
        <ele>626.6</ele>
        <time>2020-08-16 07:59:31</time>
      </trkpt>
      <trkpt lat="40.15652" lon="-4.10912">
        <ele>626.8</ele>
        <time>2020-08-16 07:59:34</time>
      </trkpt>
      <trkpt lat="40.15651" lon="-4.10915">
        <ele>627</ele>
        <time>2020-08-16 07:59:35</time>
      </trkpt>
      <trkpt lat="40.15649" lon="-4.10919">
        <ele>627</ele>
        <time>2020-08-16 07:59:37</time>
      </trkpt>
      <trkpt lat="40.15649" lon="-4.10921">
        <ele>627.2</ele>
        <time>2020-08-16 07:59:38</time>
      </trkpt>
      <trkpt lat="40.15648" lon="-4.10923">
        <ele>627.2</ele>
        <time>2020-08-16 07:59:39</time>
      </trkpt>
      <trkpt lat="40.15647" lon="-4.10924">
        <ele>627.4</ele>
        <time>2020-08-16 07:59:40</time>
      </trkpt>
      <trkpt lat="40.15645" lon="-4.10929">
        <ele>627.4</ele>
        <time>2020-08-16 07:59:42</time>
      </trkpt>
      <trkpt lat="40.15643" lon="-4.10933">
        <ele>627.6</ele>
        <time>2020-08-16 07:59:44</time>
      </trkpt>
      <trkpt lat="40.15642" lon="-4.10935">
        <ele>627.8</ele>
        <time>2020-08-16 07:59:45</time>
      </trkpt>
      <trkpt lat="40.15641" lon="-4.10938">
        <ele>627.8</ele>
        <time>2020-08-16 07:59:46</time>
      </trkpt>
      <trkpt lat="40.1564" lon="-4.1094">
        <ele>628</ele>
        <time>2020-08-16 07:59:47</time>
      </trkpt>
      <trkpt lat="40.15639" lon="-4.10942">
        <ele>628</ele>
        <time>2020-08-16 07:59:48</time>
      </trkpt>
      <trkpt lat="40.15638" lon="-4.10945">
        <ele>628</ele>
        <time>2020-08-16 07:59:49</time>
      </trkpt>
      <trkpt lat="40.15634" lon="-4.10951">
        <ele>628.2</ele>
        <time>2020-08-16 07:59:52</time>
      </trkpt>
      <trkpt lat="40.15633" lon="-4.10953">
        <ele>628.4</ele>
        <time>2020-08-16 07:59:53</time>
      </trkpt>
      <trkpt lat="40.15632" lon="-4.10955">
        <ele>628.4</ele>
        <time>2020-08-16 07:59:54</time>
      </trkpt>
      <trkpt lat="40.1563" lon="-4.10956">
        <ele>628.6</ele>
        <time>2020-08-16 07:59:55</time>
      </trkpt>
      <trkpt lat="40.1563" lon="-4.10957">
        <ele>628.6</ele>
        <time>2020-08-16 07:59:56</time>
      </trkpt>
      <trkpt lat="40.15629" lon="-4.10958">
        <ele>628.6</ele>
        <time>2020-08-16 07:59:57</time>
      </trkpt>
      <trkpt lat="40.15628" lon="-4.1096">
        <ele>628.8</ele>
        <time>2020-08-16 07:59:58</time>
      </trkpt>
      <trkpt lat="40.15628" lon="-4.10962">
        <ele>628.8</ele>
        <time>2020-08-16 07:59:59</time>
      </trkpt>
      <trkpt lat="40.15627" lon="-4.10963">
        <ele>628.8</ele>
        <time>2020-08-16 08:00:00</time>
      </trkpt>
      <trkpt lat="40.15626" lon="-4.10965">
        <ele>628.8</ele>
        <time>2020-08-16 08:00:01</time>
      </trkpt>
      <trkpt lat="40.15626" lon="-4.10966">
        <ele>628.8</ele>
        <time>2020-08-16 08:00:02</time>
      </trkpt>
      <trkpt lat="40.15625" lon="-4.10968">
        <ele>628.8</ele>
        <time>2020-08-16 08:00:03</time>
      </trkpt>
      <trkpt lat="40.15624" lon="-4.1097">
        <ele>628.8</ele>
        <time>2020-08-16 08:00:04</time>
      </trkpt>
      <trkpt lat="40.15616" lon="-4.10981">
        <ele>628.6</ele>
        <time>2020-08-16 08:00:08</time>
      </trkpt>
      <trkpt lat="40.15612" lon="-4.10987">
        <ele>628.4</ele>
        <time>2020-08-16 08:00:10</time>
      </trkpt>
      <trkpt lat="40.15605" lon="-4.11003">
        <ele>628.2</ele>
        <time>2020-08-16 08:00:14</time>
      </trkpt>
      <trkpt lat="40.15602" lon="-4.11013">
        <ele>628</ele>
        <time>2020-08-16 08:00:16</time>
      </trkpt>
      <trkpt lat="40.156" lon="-4.11018">
        <ele>628</ele>
        <time>2020-08-16 08:00:17</time>
      </trkpt>
      <trkpt lat="40.15593" lon="-4.11038">
        <ele>627</ele>
        <time>2020-08-16 08:00:20</time>
      </trkpt>
      <trkpt lat="40.1559" lon="-4.11045">
        <ele>626.6</ele>
        <time>2020-08-16 08:00:21</time>
      </trkpt>
      <trkpt lat="40.15588" lon="-4.11053">
        <ele>626.4</ele>
        <time>2020-08-16 08:00:22</time>
      </trkpt>
      <trkpt lat="40.15581" lon="-4.11081">
        <ele>625.2</ele>
        <time>2020-08-16 08:00:25</time>
      </trkpt>
      <trkpt lat="40.1558" lon="-4.11091">
        <ele>625</ele>
        <time>2020-08-16 08:00:26</time>
      </trkpt>
      <trkpt lat="40.15579" lon="-4.11101">
        <ele>624</ele>
        <time>2020-08-16 08:00:27</time>
      </trkpt>
      <trkpt lat="40.15578" lon="-4.1111">
        <ele>623.6</ele>
        <time>2020-08-16 08:00:28</time>
      </trkpt>
      <trkpt lat="40.15577" lon="-4.11118">
        <ele>623</ele>
        <time>2020-08-16 08:00:29</time>
      </trkpt>
      <trkpt lat="40.15574" lon="-4.11125">
        <ele>622.2</ele>
        <time>2020-08-16 08:00:30</time>
      </trkpt>
      <trkpt lat="40.15571" lon="-4.11133">
        <ele>621.8</ele>
        <time>2020-08-16 08:00:31</time>
      </trkpt>
      <trkpt lat="40.15567" lon="-4.11139">
        <ele>621.2</ele>
        <time>2020-08-16 08:00:32</time>
      </trkpt>
      <trkpt lat="40.15564" lon="-4.11146">
        <ele>620.8</ele>
        <time>2020-08-16 08:00:33</time>
      </trkpt>
      <trkpt lat="40.1556" lon="-4.11153">
        <ele>620.4</ele>
        <time>2020-08-16 08:00:34</time>
      </trkpt>
      <trkpt lat="40.15557" lon="-4.11158">
        <ele>620</ele>
        <time>2020-08-16 08:00:35</time>
      </trkpt>
      <trkpt lat="40.15554" lon="-4.11163">
        <ele>619.8</ele>
        <time>2020-08-16 08:00:36</time>
      </trkpt>
      <trkpt lat="40.15551" lon="-4.11168">
        <ele>619.6</ele>
        <time>2020-08-16 08:00:37</time>
      </trkpt>
      <trkpt lat="40.15548" lon="-4.11172">
        <ele>619.4</ele>
        <time>2020-08-16 08:00:38</time>
      </trkpt>
      <trkpt lat="40.15546" lon="-4.11175">
        <ele>619.4</ele>
        <time>2020-08-16 08:00:39</time>
      </trkpt>
      <trkpt lat="40.15545" lon="-4.11178">
        <ele>619.4</ele>
        <time>2020-08-16 08:00:40</time>
      </trkpt>
      <trkpt lat="40.15544" lon="-4.11179">
        <ele>619.2</ele>
        <time>2020-08-16 08:00:41</time>
      </trkpt>
      <trkpt lat="40.15543" lon="-4.11181">
        <ele>619.2</ele>
        <time>2020-08-16 08:00:42</time>
      </trkpt>
      <trkpt lat="40.15541" lon="-4.11184">
        <ele>619.2</ele>
        <time>2020-08-16 08:00:43</time>
      </trkpt>
      <trkpt lat="40.1554" lon="-4.11186">
        <ele>619.2</ele>
        <time>2020-08-16 08:00:44</time>
      </trkpt>
      <trkpt lat="40.15538" lon="-4.11193">
        <ele>619.2</ele>
        <time>2020-08-16 08:00:46</time>
      </trkpt>
      <trkpt lat="40.15536" lon="-4.11197">
        <ele>619.2</ele>
        <time>2020-08-16 08:00:47</time>
      </trkpt>
      <trkpt lat="40.15534" lon="-4.112">
        <ele>619.4</ele>
        <time>2020-08-16 08:00:48</time>
      </trkpt>
      <trkpt lat="40.15532" lon="-4.11203">
        <ele>619.4</ele>
        <time>2020-08-16 08:00:49</time>
      </trkpt>
      <trkpt lat="40.15524" lon="-4.11213">
        <ele>619.6</ele>
        <time>2020-08-16 08:00:52</time>
      </trkpt>
      <trkpt lat="40.15519" lon="-4.1122">
        <ele>619.6</ele>
        <time>2020-08-16 08:00:54</time>
      </trkpt>
      <trkpt lat="40.15514" lon="-4.11228">
        <ele>619.6</ele>
        <time>2020-08-16 08:00:56</time>
      </trkpt>
      <trkpt lat="40.15512" lon="-4.11234">
        <ele>619.6</ele>
        <time>2020-08-16 08:00:57</time>
      </trkpt>
      <trkpt lat="40.15511" lon="-4.1124">
        <ele>619.6</ele>
        <time>2020-08-16 08:00:58</time>
      </trkpt>
      <trkpt lat="40.15507" lon="-4.11253">
        <ele>619.6</ele>
        <time>2020-08-16 08:01:00</time>
      </trkpt>
      <trkpt lat="40.15503" lon="-4.11274">
        <ele>619.4</ele>
        <time>2020-08-16 08:01:03</time>
      </trkpt>
      <trkpt lat="40.15502" lon="-4.11281">
        <ele>619.2</ele>
        <time>2020-08-16 08:01:04</time>
      </trkpt>
      <trkpt lat="40.15499" lon="-4.11293">
        <ele>619</ele>
        <time>2020-08-16 08:01:06</time>
      </trkpt>
      <trkpt lat="40.15499" lon="-4.11298">
        <ele>619</ele>
        <time>2020-08-16 08:01:07</time>
      </trkpt>
      <trkpt lat="40.155" lon="-4.11301">
        <ele>618.8</ele>
        <time>2020-08-16 08:01:08</time>
      </trkpt>
      <trkpt lat="40.15501" lon="-4.11305">
        <ele>618.6</ele>
        <time>2020-08-16 08:01:09</time>
      </trkpt>
      <trkpt lat="40.15501" lon="-4.1131">
        <ele>618.4</ele>
        <time>2020-08-16 08:01:10</time>
      </trkpt>
      <trkpt lat="40.15501" lon="-4.11314">
        <ele>618.2</ele>
        <time>2020-08-16 08:01:11</time>
      </trkpt>
      <trkpt lat="40.15501" lon="-4.11318">
        <ele>618</ele>
        <time>2020-08-16 08:01:12</time>
      </trkpt>
      <trkpt lat="40.155" lon="-4.11322">
        <ele>618</ele>
        <time>2020-08-16 08:01:13</time>
      </trkpt>
      <trkpt lat="40.155" lon="-4.11326">
        <ele>617.8</ele>
        <time>2020-08-16 08:01:14</time>
      </trkpt>
      <trkpt lat="40.155" lon="-4.11328">
        <ele>617.8</ele>
        <time>2020-08-16 08:01:15</time>
      </trkpt>
      <trkpt lat="40.155" lon="-4.1133">
        <ele>617.8</ele>
        <time>2020-08-16 08:01:16</time>
      </trkpt>
      <trkpt lat="40.15501" lon="-4.11331">
        <ele>617.6</ele>
        <time>2020-08-16 08:01:17</time>
      </trkpt>
      <trkpt lat="40.15501" lon="-4.11333">
        <ele>617.6</ele>
        <time>2020-08-16 08:01:18</time>
      </trkpt>
      <trkpt lat="40.15501" lon="-4.11335">
        <ele>617.6</ele>
        <time>2020-08-16 08:01:19</time>
      </trkpt>
      <trkpt lat="40.15502" lon="-4.11335">
        <ele>617.6</ele>
        <time>2020-08-16 08:01:20</time>
      </trkpt>
      <trkpt lat="40.15502" lon="-4.11335">
        <ele>617.6</ele>
        <time>2020-08-16 08:01:22</time>
      </trkpt>
      <trkpt lat="40.15496" lon="-4.11344">
        <ele>617.6</ele>
        <time>2020-08-16 08:01:58</time>
      </trkpt>
      <trkpt lat="40.15496" lon="-4.11346">
        <ele>617.4</ele>
        <time>2020-08-16 08:01:59</time>
      </trkpt>
      <trkpt lat="40.15495" lon="-4.1135">
        <ele>617.4</ele>
        <time>2020-08-16 08:02:00</time>
      </trkpt>
      <trkpt lat="40.15494" lon="-4.11357">
        <ele>617.4</ele>
        <time>2020-08-16 08:02:02</time>
      </trkpt>
      <trkpt lat="40.15493" lon="-4.11364">
        <ele>617.4</ele>
        <time>2020-08-16 08:02:04</time>
      </trkpt>
      <trkpt lat="40.15488" lon="-4.11382">
        <ele>617.4</ele>
        <time>2020-08-16 08:02:08</time>
      </trkpt>
      <trkpt lat="40.15486" lon="-4.11391">
        <ele>617.6</ele>
        <time>2020-08-16 08:02:10</time>
      </trkpt>
      <trkpt lat="40.15482" lon="-4.11405">
        <ele>618</ele>
        <time>2020-08-16 08:02:13</time>
      </trkpt>
      <trkpt lat="40.15479" lon="-4.11415">
        <ele>618.2</ele>
        <time>2020-08-16 08:02:15</time>
      </trkpt>
      <trkpt lat="40.15476" lon="-4.11428">
        <ele>618.4</ele>
        <time>2020-08-16 08:02:18</time>
      </trkpt>
      <trkpt lat="40.15475" lon="-4.11432">
        <ele>618.6</ele>
        <time>2020-08-16 08:02:19</time>
      </trkpt>
      <trkpt lat="40.15473" lon="-4.11436">
        <ele>618.6</ele>
        <time>2020-08-16 08:02:20</time>
      </trkpt>
      <trkpt lat="40.15471" lon="-4.1144">
        <ele>618.8</ele>
        <time>2020-08-16 08:02:21</time>
      </trkpt>
      <trkpt lat="40.1547" lon="-4.11444">
        <ele>618.8</ele>
        <time>2020-08-16 08:02:22</time>
      </trkpt>
      <trkpt lat="40.15467" lon="-4.11448">
        <ele>619</ele>
        <time>2020-08-16 08:02:23</time>
      </trkpt>
      <trkpt lat="40.15465" lon="-4.11452">
        <ele>619.2</ele>
        <time>2020-08-16 08:02:24</time>
      </trkpt>
      <trkpt lat="40.15463" lon="-4.11456">
        <ele>619.4</ele>
        <time>2020-08-16 08:02:25</time>
      </trkpt>
      <trkpt lat="40.1546" lon="-4.1146">
        <ele>619.6</ele>
        <time>2020-08-16 08:02:26</time>
      </trkpt>
      <trkpt lat="40.15458" lon="-4.11464">
        <ele>619.6</ele>
        <time>2020-08-16 08:02:27</time>
      </trkpt>
      <trkpt lat="40.15456" lon="-4.11467">
        <ele>619.8</ele>
        <time>2020-08-16 08:02:28</time>
      </trkpt>
      <trkpt lat="40.15453" lon="-4.11471">
        <ele>620</ele>
        <time>2020-08-16 08:02:29</time>
      </trkpt>
      <trkpt lat="40.15451" lon="-4.11475">
        <ele>620</ele>
        <time>2020-08-16 08:02:30</time>
      </trkpt>
      <trkpt lat="40.15448" lon="-4.11479">
        <ele>620</ele>
        <time>2020-08-16 08:02:31</time>
      </trkpt>
      <trkpt lat="40.15446" lon="-4.11482">
        <ele>620.2</ele>
        <time>2020-08-16 08:02:32</time>
      </trkpt>
      <trkpt lat="40.15444" lon="-4.11485">
        <ele>620.2</ele>
        <time>2020-08-16 08:02:33</time>
      </trkpt>
      <trkpt lat="40.15442" lon="-4.11488">
        <ele>620.4</ele>
        <time>2020-08-16 08:02:34</time>
      </trkpt>
      <trkpt lat="40.15439" lon="-4.11492">
        <ele>620.6</ele>
        <time>2020-08-16 08:02:35</time>
      </trkpt>
      <trkpt lat="40.15437" lon="-4.11495">
        <ele>620.6</ele>
        <time>2020-08-16 08:02:36</time>
      </trkpt>
      <trkpt lat="40.15435" lon="-4.11498">
        <ele>620.8</ele>
        <time>2020-08-16 08:02:37</time>
      </trkpt>
      <trkpt lat="40.15432" lon="-4.11501">
        <ele>621</ele>
        <time>2020-08-16 08:02:38</time>
      </trkpt>
      <trkpt lat="40.1543" lon="-4.11503">
        <ele>621</ele>
        <time>2020-08-16 08:02:39</time>
      </trkpt>
      <trkpt lat="40.15427" lon="-4.11506">
        <ele>621.2</ele>
        <time>2020-08-16 08:02:40</time>
      </trkpt>
      <trkpt lat="40.15425" lon="-4.11509">
        <ele>621.4</ele>
        <time>2020-08-16 08:02:41</time>
      </trkpt>
      <trkpt lat="40.15422" lon="-4.11512">
        <ele>621.4</ele>
        <time>2020-08-16 08:02:42</time>
      </trkpt>
      <trkpt lat="40.15419" lon="-4.11514">
        <ele>621.4</ele>
        <time>2020-08-16 08:02:43</time>
      </trkpt>
      <trkpt lat="40.15416" lon="-4.11516">
        <ele>621.6</ele>
        <time>2020-08-16 08:02:44</time>
      </trkpt>
      <trkpt lat="40.15413" lon="-4.11519">
        <ele>621.6</ele>
        <time>2020-08-16 08:02:45</time>
      </trkpt>
      <trkpt lat="40.15406" lon="-4.11524">
        <ele>621.8</ele>
        <time>2020-08-16 08:02:47</time>
      </trkpt>
      <trkpt lat="40.15403" lon="-4.11527">
        <ele>622</ele>
        <time>2020-08-16 08:02:48</time>
      </trkpt>
      <trkpt lat="40.154" lon="-4.11529">
        <ele>622</ele>
        <time>2020-08-16 08:02:49</time>
      </trkpt>
      <trkpt lat="40.15396" lon="-4.11532">
        <ele>622</ele>
        <time>2020-08-16 08:02:50</time>
      </trkpt>
      <trkpt lat="40.15393" lon="-4.11534">
        <ele>622.4</ele>
        <time>2020-08-16 08:02:51</time>
      </trkpt>
      <trkpt lat="40.1539" lon="-4.11536">
        <ele>622.4</ele>
        <time>2020-08-16 08:02:52</time>
      </trkpt>
      <trkpt lat="40.15388" lon="-4.11539">
        <ele>622.6</ele>
        <time>2020-08-16 08:02:53</time>
      </trkpt>
      <trkpt lat="40.15385" lon="-4.11542">
        <ele>622.6</ele>
        <time>2020-08-16 08:02:54</time>
      </trkpt>
      <trkpt lat="40.15383" lon="-4.11545">
        <ele>622.6</ele>
        <time>2020-08-16 08:02:55</time>
      </trkpt>
      <trkpt lat="40.15382" lon="-4.11548">
        <ele>622.8</ele>
        <time>2020-08-16 08:02:56</time>
      </trkpt>
      <trkpt lat="40.1538" lon="-4.11551">
        <ele>622.8</ele>
        <time>2020-08-16 08:02:57</time>
      </trkpt>
      <trkpt lat="40.15375" lon="-4.11557">
        <ele>623</ele>
        <time>2020-08-16 08:02:59</time>
      </trkpt>
      <trkpt lat="40.15373" lon="-4.1156">
        <ele>623</ele>
        <time>2020-08-16 08:03:00</time>
      </trkpt>
      <trkpt lat="40.1537" lon="-4.11563">
        <ele>623.2</ele>
        <time>2020-08-16 08:03:01</time>
      </trkpt>
      <trkpt lat="40.15368" lon="-4.11566">
        <ele>623.2</ele>
        <time>2020-08-16 08:03:02</time>
      </trkpt>
      <trkpt lat="40.15366" lon="-4.11569">
        <ele>623.8</ele>
        <time>2020-08-16 08:03:03</time>
      </trkpt>
      <trkpt lat="40.15363" lon="-4.11572">
        <ele>624</ele>
        <time>2020-08-16 08:03:04</time>
      </trkpt>
      <trkpt lat="40.15361" lon="-4.11574">
        <ele>624</ele>
        <time>2020-08-16 08:03:05</time>
      </trkpt>
      <trkpt lat="40.15358" lon="-4.11577">
        <ele>624.2</ele>
        <time>2020-08-16 08:03:06</time>
      </trkpt>
      <trkpt lat="40.15356" lon="-4.11579">
        <ele>624.4</ele>
        <time>2020-08-16 08:03:07</time>
      </trkpt>
      <trkpt lat="40.15353" lon="-4.11582">
        <ele>624.6</ele>
        <time>2020-08-16 08:03:08</time>
      </trkpt>
      <trkpt lat="40.15351" lon="-4.11584">
        <ele>624.8</ele>
        <time>2020-08-16 08:03:09</time>
      </trkpt>
      <trkpt lat="40.15348" lon="-4.11587">
        <ele>625</ele>
        <time>2020-08-16 08:03:10</time>
      </trkpt>
      <trkpt lat="40.15346" lon="-4.1159">
        <ele>625</ele>
        <time>2020-08-16 08:03:11</time>
      </trkpt>
      <trkpt lat="40.15344" lon="-4.11593">
        <ele>625.2</ele>
        <time>2020-08-16 08:03:12</time>
      </trkpt>
      <trkpt lat="40.15341" lon="-4.11596">
        <ele>625.4</ele>
        <time>2020-08-16 08:03:13</time>
      </trkpt>
      <trkpt lat="40.15338" lon="-4.11598">
        <ele>625.6</ele>
        <time>2020-08-16 08:03:14</time>
      </trkpt>
      <trkpt lat="40.15336" lon="-4.11601">
        <ele>625.8</ele>
        <time>2020-08-16 08:03:15</time>
      </trkpt>
      <trkpt lat="40.15333" lon="-4.11604">
        <ele>625.8</ele>
        <time>2020-08-16 08:03:16</time>
      </trkpt>
      <trkpt lat="40.1533" lon="-4.11607">
        <ele>626</ele>
        <time>2020-08-16 08:03:17</time>
      </trkpt>
      <trkpt lat="40.15327" lon="-4.1161">
        <ele>626</ele>
        <time>2020-08-16 08:03:18</time>
      </trkpt>
      <trkpt lat="40.15324" lon="-4.11614">
        <ele>626</ele>
        <time>2020-08-16 08:03:19</time>
      </trkpt>
      <trkpt lat="40.15322" lon="-4.11617">
        <ele>626</ele>
        <time>2020-08-16 08:03:20</time>
      </trkpt>
      <trkpt lat="40.15319" lon="-4.1162">
        <ele>626.4</ele>
        <time>2020-08-16 08:03:21</time>
      </trkpt>
      <trkpt lat="40.15317" lon="-4.11623">
        <ele>626.4</ele>
        <time>2020-08-16 08:03:22</time>
      </trkpt>
      <trkpt lat="40.15315" lon="-4.11626">
        <ele>626.6</ele>
        <time>2020-08-16 08:03:23</time>
      </trkpt>
      <trkpt lat="40.15312" lon="-4.11629">
        <ele>627</ele>
        <time>2020-08-16 08:03:24</time>
      </trkpt>
      <trkpt lat="40.1531" lon="-4.11632">
        <ele>627</ele>
        <time>2020-08-16 08:03:25</time>
      </trkpt>
      <trkpt lat="40.15308" lon="-4.11635">
        <ele>627</ele>
        <time>2020-08-16 08:03:26</time>
      </trkpt>
      <trkpt lat="40.15305" lon="-4.11638">
        <ele>627</ele>
        <time>2020-08-16 08:03:27</time>
      </trkpt>
      <trkpt lat="40.15303" lon="-4.11641">
        <ele>627.4</ele>
        <time>2020-08-16 08:03:28</time>
      </trkpt>
      <trkpt lat="40.15301" lon="-4.11644">
        <ele>627.4</ele>
        <time>2020-08-16 08:03:29</time>
      </trkpt>
      <trkpt lat="40.15299" lon="-4.11647">
        <ele>627.8</ele>
        <time>2020-08-16 08:03:30</time>
      </trkpt>
      <trkpt lat="40.15296" lon="-4.11649">
        <ele>627.8</ele>
        <time>2020-08-16 08:03:31</time>
      </trkpt>
      <trkpt lat="40.15294" lon="-4.11652">
        <ele>628</ele>
        <time>2020-08-16 08:03:32</time>
      </trkpt>
      <trkpt lat="40.15291" lon="-4.11656">
        <ele>628.2</ele>
        <time>2020-08-16 08:03:33</time>
      </trkpt>
      <trkpt lat="40.15289" lon="-4.11659">
        <ele>628.4</ele>
        <time>2020-08-16 08:03:34</time>
      </trkpt>
      <trkpt lat="40.15287" lon="-4.11662">
        <ele>628.6</ele>
        <time>2020-08-16 08:03:35</time>
      </trkpt>
      <trkpt lat="40.15284" lon="-4.11665">
        <ele>628.6</ele>
        <time>2020-08-16 08:03:36</time>
      </trkpt>
      <trkpt lat="40.15282" lon="-4.11669">
        <ele>628.8</ele>
        <time>2020-08-16 08:03:37</time>
      </trkpt>
      <trkpt lat="40.1528" lon="-4.11672">
        <ele>628.8</ele>
        <time>2020-08-16 08:03:38</time>
      </trkpt>
      <trkpt lat="40.15277" lon="-4.11676">
        <ele>628.8</ele>
        <time>2020-08-16 08:03:39</time>
      </trkpt>
      <trkpt lat="40.15274" lon="-4.11679">
        <ele>629</ele>
        <time>2020-08-16 08:03:40</time>
      </trkpt>
      <trkpt lat="40.15272" lon="-4.11682">
        <ele>629</ele>
        <time>2020-08-16 08:03:41</time>
      </trkpt>
      <trkpt lat="40.15269" lon="-4.11685">
        <ele>629.2</ele>
        <time>2020-08-16 08:03:42</time>
      </trkpt>
      <trkpt lat="40.15267" lon="-4.11688">
        <ele>629.4</ele>
        <time>2020-08-16 08:03:43</time>
      </trkpt>
      <trkpt lat="40.15265" lon="-4.11691">
        <ele>629.4</ele>
        <time>2020-08-16 08:03:44</time>
      </trkpt>
      <trkpt lat="40.15263" lon="-4.11694">
        <ele>629.4</ele>
        <time>2020-08-16 08:03:45</time>
      </trkpt>
      <trkpt lat="40.15261" lon="-4.11696">
        <ele>629.6</ele>
        <time>2020-08-16 08:03:46</time>
      </trkpt>
      <trkpt lat="40.15259" lon="-4.11699">
        <ele>629.6</ele>
        <time>2020-08-16 08:03:47</time>
      </trkpt>
      <trkpt lat="40.15257" lon="-4.11702">
        <ele>629.8</ele>
        <time>2020-08-16 08:03:48</time>
      </trkpt>
      <trkpt lat="40.15255" lon="-4.11705">
        <ele>630</ele>
        <time>2020-08-16 08:03:49</time>
      </trkpt>
      <trkpt lat="40.15253" lon="-4.11707">
        <ele>630</ele>
        <time>2020-08-16 08:03:50</time>
      </trkpt>
      <trkpt lat="40.15251" lon="-4.1171">
        <ele>630.2</ele>
        <time>2020-08-16 08:03:51</time>
      </trkpt>
      <trkpt lat="40.15249" lon="-4.11713">
        <ele>630.4</ele>
        <time>2020-08-16 08:03:52</time>
      </trkpt>
      <trkpt lat="40.15247" lon="-4.11716">
        <ele>630.6</ele>
        <time>2020-08-16 08:03:53</time>
      </trkpt>
      <trkpt lat="40.15245" lon="-4.11719">
        <ele>630.6</ele>
        <time>2020-08-16 08:03:54</time>
      </trkpt>
      <trkpt lat="40.15243" lon="-4.11721">
        <ele>630.8</ele>
        <time>2020-08-16 08:03:55</time>
      </trkpt>
      <trkpt lat="40.15241" lon="-4.11724">
        <ele>631</ele>
        <time>2020-08-16 08:03:56</time>
      </trkpt>
      <trkpt lat="40.1524" lon="-4.11727">
        <ele>631</ele>
        <time>2020-08-16 08:03:57</time>
      </trkpt>
      <trkpt lat="40.15238" lon="-4.1173">
        <ele>631.2</ele>
        <time>2020-08-16 08:03:58</time>
      </trkpt>
      <trkpt lat="40.15236" lon="-4.11733">
        <ele>631.2</ele>
        <time>2020-08-16 08:03:59</time>
      </trkpt>
      <trkpt lat="40.15235" lon="-4.11736">
        <ele>631.4</ele>
        <time>2020-08-16 08:04:00</time>
      </trkpt>
      <trkpt lat="40.15233" lon="-4.11739">
        <ele>631.4</ele>
        <time>2020-08-16 08:04:01</time>
      </trkpt>
      <trkpt lat="40.15231" lon="-4.11741">
        <ele>631.6</ele>
        <time>2020-08-16 08:04:02</time>
      </trkpt>
      <trkpt lat="40.15229" lon="-4.11744">
        <ele>632</ele>
        <time>2020-08-16 08:04:03</time>
      </trkpt>
      <trkpt lat="40.15228" lon="-4.11746">
        <ele>632</ele>
        <time>2020-08-16 08:04:04</time>
      </trkpt>
      <trkpt lat="40.15226" lon="-4.11749">
        <ele>632.4</ele>
        <time>2020-08-16 08:04:05</time>
      </trkpt>
      <trkpt lat="40.15224" lon="-4.11752">
        <ele>632.4</ele>
        <time>2020-08-16 08:04:06</time>
      </trkpt>
      <trkpt lat="40.15222" lon="-4.11755">
        <ele>632.6</ele>
        <time>2020-08-16 08:04:07</time>
      </trkpt>
      <trkpt lat="40.1522" lon="-4.11757">
        <ele>632.6</ele>
        <time>2020-08-16 08:04:08</time>
      </trkpt>
      <trkpt lat="40.15218" lon="-4.1176">
        <ele>633</ele>
        <time>2020-08-16 08:04:09</time>
      </trkpt>
      <trkpt lat="40.15216" lon="-4.11763">
        <ele>633.2</ele>
        <time>2020-08-16 08:04:10</time>
      </trkpt>
      <trkpt lat="40.15214" lon="-4.11765">
        <ele>633.4</ele>
        <time>2020-08-16 08:04:11</time>
      </trkpt>
      <trkpt lat="40.15212" lon="-4.11767">
        <ele>633.6</ele>
        <time>2020-08-16 08:04:12</time>
      </trkpt>
      <trkpt lat="40.1521" lon="-4.1177">
        <ele>633.6</ele>
        <time>2020-08-16 08:04:13</time>
      </trkpt>
      <trkpt lat="40.15208" lon="-4.11772">
        <ele>633.8</ele>
        <time>2020-08-16 08:04:14</time>
      </trkpt>
      <trkpt lat="40.15206" lon="-4.11775">
        <ele>634</ele>
        <time>2020-08-16 08:04:15</time>
      </trkpt>
      <trkpt lat="40.15204" lon="-4.11778">
        <ele>634.2</ele>
        <time>2020-08-16 08:04:16</time>
      </trkpt>
      <trkpt lat="40.15202" lon="-4.11781">
        <ele>634.2</ele>
        <time>2020-08-16 08:04:17</time>
      </trkpt>
      <trkpt lat="40.152" lon="-4.11784">
        <ele>634.4</ele>
        <time>2020-08-16 08:04:18</time>
      </trkpt>
      <trkpt lat="40.15198" lon="-4.11787">
        <ele>634.6</ele>
        <time>2020-08-16 08:04:19</time>
      </trkpt>
      <trkpt lat="40.15196" lon="-4.1179">
        <ele>634.8</ele>
        <time>2020-08-16 08:04:20</time>
      </trkpt>
      <trkpt lat="40.15195" lon="-4.11793">
        <ele>634.8</ele>
        <time>2020-08-16 08:04:21</time>
      </trkpt>
      <trkpt lat="40.15193" lon="-4.11796">
        <ele>635</ele>
        <time>2020-08-16 08:04:22</time>
      </trkpt>
      <trkpt lat="40.15191" lon="-4.11799">
        <ele>635</ele>
        <time>2020-08-16 08:04:23</time>
      </trkpt>
      <trkpt lat="40.15189" lon="-4.11802">
        <ele>635</ele>
        <time>2020-08-16 08:04:24</time>
      </trkpt>
      <trkpt lat="40.15187" lon="-4.11805">
        <ele>635.2</ele>
        <time>2020-08-16 08:04:25</time>
      </trkpt>
      <trkpt lat="40.15185" lon="-4.11809">
        <ele>635.4</ele>
        <time>2020-08-16 08:04:26</time>
      </trkpt>
      <trkpt lat="40.15184" lon="-4.11812">
        <ele>635.6</ele>
        <time>2020-08-16 08:04:27</time>
      </trkpt>
      <trkpt lat="40.15182" lon="-4.11815">
        <ele>635.8</ele>
        <time>2020-08-16 08:04:28</time>
      </trkpt>
      <trkpt lat="40.1518" lon="-4.11818">
        <ele>635.8</ele>
        <time>2020-08-16 08:04:29</time>
      </trkpt>
      <trkpt lat="40.15178" lon="-4.11821">
        <ele>636</ele>
        <time>2020-08-16 08:04:30</time>
      </trkpt>
      <trkpt lat="40.15176" lon="-4.11825">
        <ele>636</ele>
        <time>2020-08-16 08:04:31</time>
      </trkpt>
      <trkpt lat="40.15174" lon="-4.11828">
        <ele>636</ele>
        <time>2020-08-16 08:04:32</time>
      </trkpt>
      <trkpt lat="40.15172" lon="-4.11832">
        <ele>636</ele>
        <time>2020-08-16 08:04:33</time>
      </trkpt>
      <trkpt lat="40.15168" lon="-4.11839">
        <ele>636.2</ele>
        <time>2020-08-16 08:04:35</time>
      </trkpt>
      <trkpt lat="40.15154" lon="-4.11864">
        <ele>636.6</ele>
        <time>2020-08-16 08:04:42</time>
      </trkpt>
      <trkpt lat="40.1514" lon="-4.11883">
        <ele>636.8</ele>
        <time>2020-08-16 08:04:47</time>
      </trkpt>
      <trkpt lat="40.15137" lon="-4.11887">
        <ele>636.8</ele>
        <time>2020-08-16 08:04:48</time>
      </trkpt>
      <trkpt lat="40.15128" lon="-4.119">
        <ele>636.6</ele>
        <time>2020-08-16 08:04:51</time>
      </trkpt>
      <trkpt lat="40.1512" lon="-4.11913">
        <ele>636.4</ele>
        <time>2020-08-16 08:04:54</time>
      </trkpt>
      <trkpt lat="40.15111" lon="-4.11924">
        <ele>636.2</ele>
        <time>2020-08-16 08:04:57</time>
      </trkpt>
      <trkpt lat="40.15108" lon="-4.11929">
        <ele>636.2</ele>
        <time>2020-08-16 08:04:58</time>
      </trkpt>
      <trkpt lat="40.15105" lon="-4.11932">
        <ele>636.2</ele>
        <time>2020-08-16 08:04:59</time>
      </trkpt>
      <trkpt lat="40.15102" lon="-4.11936">
        <ele>636</ele>
        <time>2020-08-16 08:05:00</time>
      </trkpt>
      <trkpt lat="40.15099" lon="-4.1194">
        <ele>636</ele>
        <time>2020-08-16 08:05:01</time>
      </trkpt>
      <trkpt lat="40.15095" lon="-4.11943">
        <ele>636</ele>
        <time>2020-08-16 08:05:02</time>
      </trkpt>
      <trkpt lat="40.15092" lon="-4.11946">
        <ele>636</ele>
        <time>2020-08-16 08:05:03</time>
      </trkpt>
      <trkpt lat="40.15089" lon="-4.11949">
        <ele>636</ele>
        <time>2020-08-16 08:05:04</time>
      </trkpt>
      <trkpt lat="40.15086" lon="-4.11952">
        <ele>636</ele>
        <time>2020-08-16 08:05:05</time>
      </trkpt>
      <trkpt lat="40.15082" lon="-4.11956">
        <ele>636</ele>
        <time>2020-08-16 08:05:06</time>
      </trkpt>
      <trkpt lat="40.15079" lon="-4.11959">
        <ele>636</ele>
        <time>2020-08-16 08:05:07</time>
      </trkpt>
      <trkpt lat="40.15075" lon="-4.11962">
        <ele>636</ele>
        <time>2020-08-16 08:05:08</time>
      </trkpt>
      <trkpt lat="40.15072" lon="-4.11965">
        <ele>635.8</ele>
        <time>2020-08-16 08:05:09</time>
      </trkpt>
      <trkpt lat="40.15068" lon="-4.11967">
        <ele>635.8</ele>
        <time>2020-08-16 08:05:10</time>
      </trkpt>
      <trkpt lat="40.15065" lon="-4.1197">
        <ele>635.8</ele>
        <time>2020-08-16 08:05:11</time>
      </trkpt>
      <trkpt lat="40.15044" lon="-4.11988">
        <ele>635.8</ele>
        <time>2020-08-16 08:05:17</time>
      </trkpt>
      <trkpt lat="40.1504" lon="-4.1199">
        <ele>635.8</ele>
        <time>2020-08-16 08:05:18</time>
      </trkpt>
      <trkpt lat="40.15037" lon="-4.11992">
        <ele>636</ele>
        <time>2020-08-16 08:05:19</time>
      </trkpt>
      <trkpt lat="40.15034" lon="-4.11995">
        <ele>636</ele>
        <time>2020-08-16 08:05:20</time>
      </trkpt>
      <trkpt lat="40.15031" lon="-4.11997">
        <ele>636</ele>
        <time>2020-08-16 08:05:21</time>
      </trkpt>
      <trkpt lat="40.15027" lon="-4.11999">
        <ele>636</ele>
        <time>2020-08-16 08:05:22</time>
      </trkpt>
      <trkpt lat="40.15023" lon="-4.12002">
        <ele>636</ele>
        <time>2020-08-16 08:05:23</time>
      </trkpt>
      <trkpt lat="40.15009" lon="-4.12014">
        <ele>636</ele>
        <time>2020-08-16 08:05:26</time>
      </trkpt>
      <trkpt lat="40.14983" lon="-4.12043">
        <ele>635.4</ele>
        <time>2020-08-16 08:05:31</time>
      </trkpt>
      <trkpt lat="40.14973" lon="-4.12056">
        <ele>634.8</ele>
        <time>2020-08-16 08:05:33</time>
      </trkpt>
      <trkpt lat="40.14957" lon="-4.12073">
        <ele>633.8</ele>
        <time>2020-08-16 08:05:36</time>
      </trkpt>
      <trkpt lat="40.14952" lon="-4.12078">
        <ele>633.8</ele>
        <time>2020-08-16 08:05:37</time>
      </trkpt>
      <trkpt lat="40.14948" lon="-4.12084">
        <ele>633.2</ele>
        <time>2020-08-16 08:05:38</time>
      </trkpt>
      <trkpt lat="40.14944" lon="-4.12089">
        <ele>633</ele>
        <time>2020-08-16 08:05:39</time>
      </trkpt>
      <trkpt lat="40.1494" lon="-4.12093">
        <ele>632.6</ele>
        <time>2020-08-16 08:05:40</time>
      </trkpt>
      <trkpt lat="40.14935" lon="-4.12096">
        <ele>632.4</ele>
        <time>2020-08-16 08:05:41</time>
      </trkpt>
      <trkpt lat="40.14931" lon="-4.12099">
        <ele>632.2</ele>
        <time>2020-08-16 08:05:42</time>
      </trkpt>
      <trkpt lat="40.14927" lon="-4.12101">
        <ele>632.2</ele>
        <time>2020-08-16 08:05:43</time>
      </trkpt>
      <trkpt lat="40.14922" lon="-4.12104">
        <ele>632</ele>
        <time>2020-08-16 08:05:44</time>
      </trkpt>
      <trkpt lat="40.14918" lon="-4.12107">
        <ele>631.8</ele>
        <time>2020-08-16 08:05:45</time>
      </trkpt>
      <trkpt lat="40.1491" lon="-4.12113">
        <ele>632</ele>
        <time>2020-08-16 08:05:47</time>
      </trkpt>
      <trkpt lat="40.14906" lon="-4.12117">
        <ele>631.8</ele>
        <time>2020-08-16 08:05:48</time>
      </trkpt>
      <trkpt lat="40.14902" lon="-4.12119">
        <ele>631.6</ele>
        <time>2020-08-16 08:05:49</time>
      </trkpt>
      <trkpt lat="40.14899" lon="-4.12122">
        <ele>631.8</ele>
        <time>2020-08-16 08:05:50</time>
      </trkpt>
      <trkpt lat="40.14895" lon="-4.12125">
        <ele>631.6</ele>
        <time>2020-08-16 08:05:51</time>
      </trkpt>
      <trkpt lat="40.14892" lon="-4.12128">
        <ele>631.8</ele>
        <time>2020-08-16 08:05:52</time>
      </trkpt>
      <trkpt lat="40.14888" lon="-4.12131">
        <ele>631.8</ele>
        <time>2020-08-16 08:05:53</time>
      </trkpt>
      <trkpt lat="40.14885" lon="-4.12134">
        <ele>632</ele>
        <time>2020-08-16 08:05:54</time>
      </trkpt>
      <trkpt lat="40.14881" lon="-4.12137">
        <ele>632</ele>
        <time>2020-08-16 08:05:55</time>
      </trkpt>
      <trkpt lat="40.14878" lon="-4.1214">
        <ele>632.2</ele>
        <time>2020-08-16 08:05:56</time>
      </trkpt>
      <trkpt lat="40.14874" lon="-4.12144">
        <ele>632.2</ele>
        <time>2020-08-16 08:05:57</time>
      </trkpt>
      <trkpt lat="40.14871" lon="-4.12147">
        <ele>632.2</ele>
        <time>2020-08-16 08:05:58</time>
      </trkpt>
      <trkpt lat="40.14867" lon="-4.1215">
        <ele>632.4</ele>
        <time>2020-08-16 08:05:59</time>
      </trkpt>
      <trkpt lat="40.14864" lon="-4.12153">
        <ele>632.4</ele>
        <time>2020-08-16 08:06:00</time>
      </trkpt>
      <trkpt lat="40.1486" lon="-4.12156">
        <ele>632.4</ele>
        <time>2020-08-16 08:06:01</time>
      </trkpt>
      <trkpt lat="40.14857" lon="-4.12159">
        <ele>632.4</ele>
        <time>2020-08-16 08:06:02</time>
      </trkpt>
      <trkpt lat="40.14854" lon="-4.12162">
        <ele>632.6</ele>
        <time>2020-08-16 08:06:03</time>
      </trkpt>
      <trkpt lat="40.14851" lon="-4.12165">
        <ele>632.6</ele>
        <time>2020-08-16 08:06:04</time>
      </trkpt>
      <trkpt lat="40.14848" lon="-4.12167">
        <ele>632.6</ele>
        <time>2020-08-16 08:06:05</time>
      </trkpt>
      <trkpt lat="40.14845" lon="-4.1217">
        <ele>632.8</ele>
        <time>2020-08-16 08:06:06</time>
      </trkpt>
      <trkpt lat="40.14842" lon="-4.12173">
        <ele>633</ele>
        <time>2020-08-16 08:06:07</time>
      </trkpt>
      <trkpt lat="40.14839" lon="-4.12175">
        <ele>633</ele>
        <time>2020-08-16 08:06:08</time>
      </trkpt>
      <trkpt lat="40.14836" lon="-4.12178">
        <ele>633.2</ele>
        <time>2020-08-16 08:06:09</time>
      </trkpt>
      <trkpt lat="40.14833" lon="-4.12181">
        <ele>633.2</ele>
        <time>2020-08-16 08:06:10</time>
      </trkpt>
      <trkpt lat="40.1483" lon="-4.12183">
        <ele>633.2</ele>
        <time>2020-08-16 08:06:11</time>
      </trkpt>
      <trkpt lat="40.14827" lon="-4.12186">
        <ele>633.4</ele>
        <time>2020-08-16 08:06:12</time>
      </trkpt>
      <trkpt lat="40.14824" lon="-4.12189">
        <ele>633.6</ele>
        <time>2020-08-16 08:06:13</time>
      </trkpt>
      <trkpt lat="40.14821" lon="-4.12192">
        <ele>633.6</ele>
        <time>2020-08-16 08:06:14</time>
      </trkpt>
      <trkpt lat="40.14818" lon="-4.12195">
        <ele>633.6</ele>
        <time>2020-08-16 08:06:15</time>
      </trkpt>
      <trkpt lat="40.14814" lon="-4.12197">
        <ele>633.6</ele>
        <time>2020-08-16 08:06:16</time>
      </trkpt>
      <trkpt lat="40.14808" lon="-4.12203">
        <ele>633.4</ele>
        <time>2020-08-16 08:06:18</time>
      </trkpt>
      <trkpt lat="40.14776" lon="-4.12226">
        <ele>632.4</ele>
        <time>2020-08-16 08:06:26</time>
      </trkpt>
      <trkpt lat="40.14772" lon="-4.1223">
        <ele>632.4</ele>
        <time>2020-08-16 08:06:27</time>
      </trkpt>
      <trkpt lat="40.14768" lon="-4.12233">
        <ele>632.6</ele>
        <time>2020-08-16 08:06:28</time>
      </trkpt>
      <trkpt lat="40.14764" lon="-4.12236">
        <ele>632.4</ele>
        <time>2020-08-16 08:06:29</time>
      </trkpt>
      <trkpt lat="40.14761" lon="-4.12239">
        <ele>632.4</ele>
        <time>2020-08-16 08:06:30</time>
      </trkpt>
      <trkpt lat="40.14757" lon="-4.12243">
        <ele>632.2</ele>
        <time>2020-08-16 08:06:31</time>
      </trkpt>
      <trkpt lat="40.14754" lon="-4.12248">
        <ele>632.2</ele>
        <time>2020-08-16 08:06:32</time>
      </trkpt>
      <trkpt lat="40.14745" lon="-4.12264">
        <ele>631.6</ele>
        <time>2020-08-16 08:06:35</time>
      </trkpt>
      <trkpt lat="40.14736" lon="-4.12282">
        <ele>631</ele>
        <time>2020-08-16 08:06:38</time>
      </trkpt>
      <trkpt lat="40.1473" lon="-4.12295">
        <ele>630.4</ele>
        <time>2020-08-16 08:06:40</time>
      </trkpt>
      <trkpt lat="40.14717" lon="-4.12318">
        <ele>630.2</ele>
        <time>2020-08-16 08:06:44</time>
      </trkpt>
      <trkpt lat="40.14715" lon="-4.12323">
        <ele>630</ele>
        <time>2020-08-16 08:06:45</time>
      </trkpt>
      <trkpt lat="40.14712" lon="-4.12327">
        <ele>629.8</ele>
        <time>2020-08-16 08:06:46</time>
      </trkpt>
      <trkpt lat="40.14709" lon="-4.12331">
        <ele>629.8</ele>
        <time>2020-08-16 08:06:47</time>
      </trkpt>
      <trkpt lat="40.14706" lon="-4.12335">
        <ele>629.6</ele>
        <time>2020-08-16 08:06:48</time>
      </trkpt>
      <trkpt lat="40.147" lon="-4.12344">
        <ele>629.4</ele>
        <time>2020-08-16 08:06:50</time>
      </trkpt>
      <trkpt lat="40.14698" lon="-4.12348">
        <ele>629.4</ele>
        <time>2020-08-16 08:06:51</time>
      </trkpt>
      <trkpt lat="40.14695" lon="-4.12352">
        <ele>629.2</ele>
        <time>2020-08-16 08:06:52</time>
      </trkpt>
      <trkpt lat="40.14692" lon="-4.12356">
        <ele>629.2</ele>
        <time>2020-08-16 08:06:53</time>
      </trkpt>
      <trkpt lat="40.14689" lon="-4.1236">
        <ele>629.2</ele>
        <time>2020-08-16 08:06:54</time>
      </trkpt>
      <trkpt lat="40.14687" lon="-4.12364">
        <ele>629.2</ele>
        <time>2020-08-16 08:06:55</time>
      </trkpt>
      <trkpt lat="40.14684" lon="-4.12368">
        <ele>629.2</ele>
        <time>2020-08-16 08:06:56</time>
      </trkpt>
      <trkpt lat="40.14682" lon="-4.12371">
        <ele>629.2</ele>
        <time>2020-08-16 08:06:57</time>
      </trkpt>
      <trkpt lat="40.14679" lon="-4.12374">
        <ele>629.2</ele>
        <time>2020-08-16 08:06:58</time>
      </trkpt>
      <trkpt lat="40.14678" lon="-4.12376">
        <ele>629.2</ele>
        <time>2020-08-16 08:06:59</time>
      </trkpt>
      <trkpt lat="40.14676" lon="-4.12377">
        <ele>629.4</ele>
        <time>2020-08-16 08:07:00</time>
      </trkpt>
      <trkpt lat="40.14675" lon="-4.12376">
        <ele>629.4</ele>
        <time>2020-08-16 08:07:01</time>
      </trkpt>
      <trkpt lat="40.14675" lon="-4.12374">
        <ele>629.6</ele>
        <time>2020-08-16 08:07:02</time>
      </trkpt>
      <trkpt lat="40.14675" lon="-4.12372">
        <ele>629.6</ele>
        <time>2020-08-16 08:07:03</time>
      </trkpt>
      <trkpt lat="40.14673" lon="-4.12371">
        <ele>629.6</ele>
        <time>2020-08-16 08:07:04</time>
      </trkpt>
      <trkpt lat="40.14665" lon="-4.12362">
        <ele>629.6</ele>
        <time>2020-08-16 08:07:08</time>
      </trkpt>
      <trkpt lat="40.1466" lon="-4.12357">
        <ele>629.6</ele>
        <time>2020-08-16 08:07:10</time>
      </trkpt>
      <trkpt lat="40.14658" lon="-4.12354">
        <ele>629.6</ele>
        <time>2020-08-16 08:07:11</time>
      </trkpt>
      <trkpt lat="40.14642" lon="-4.12335">
        <ele>630.2</ele>
        <time>2020-08-16 08:07:18</time>
      </trkpt>
      <trkpt lat="40.1464" lon="-4.12332">
        <ele>630.4</ele>
        <time>2020-08-16 08:07:19</time>
      </trkpt>
      <trkpt lat="40.14635" lon="-4.12326">
        <ele>630.6</ele>
        <time>2020-08-16 08:07:21</time>
      </trkpt>
      <trkpt lat="40.14629" lon="-4.1232">
        <ele>631</ele>
        <time>2020-08-16 08:07:23</time>
      </trkpt>
      <trkpt lat="40.14627" lon="-4.12317">
        <ele>631.2</ele>
        <time>2020-08-16 08:07:24</time>
      </trkpt>
      <trkpt lat="40.14624" lon="-4.12315">
        <ele>631.2</ele>
        <time>2020-08-16 08:07:25</time>
      </trkpt>
      <trkpt lat="40.14622" lon="-4.12312">
        <ele>631.4</ele>
        <time>2020-08-16 08:07:26</time>
      </trkpt>
      <trkpt lat="40.14619" lon="-4.12308">
        <ele>631.4</ele>
        <time>2020-08-16 08:07:27</time>
      </trkpt>
      <trkpt lat="40.14616" lon="-4.12306">
        <ele>631.4</ele>
        <time>2020-08-16 08:07:28</time>
      </trkpt>
      <trkpt lat="40.14613" lon="-4.12303">
        <ele>631.4</ele>
        <time>2020-08-16 08:07:29</time>
      </trkpt>
      <trkpt lat="40.14607" lon="-4.12297">
        <ele>631.6</ele>
        <time>2020-08-16 08:07:31</time>
      </trkpt>
      <trkpt lat="40.14589" lon="-4.1228">
        <ele>631.8</ele>
        <time>2020-08-16 08:07:36</time>
      </trkpt>
      <trkpt lat="40.14575" lon="-4.12267">
        <ele>631.6</ele>
        <time>2020-08-16 08:07:40</time>
      </trkpt>
      <trkpt lat="40.14567" lon="-4.12256">
        <ele>631.4</ele>
        <time>2020-08-16 08:07:43</time>
      </trkpt>
      <trkpt lat="40.14564" lon="-4.12253">
        <ele>631.4</ele>
        <time>2020-08-16 08:07:44</time>
      </trkpt>
      <trkpt lat="40.14561" lon="-4.1225">
        <ele>631.4</ele>
        <time>2020-08-16 08:07:45</time>
      </trkpt>
      <trkpt lat="40.14558" lon="-4.12247">
        <ele>631.4</ele>
        <time>2020-08-16 08:07:46</time>
      </trkpt>
      <trkpt lat="40.14554" lon="-4.12244">
        <ele>631.4</ele>
        <time>2020-08-16 08:07:47</time>
      </trkpt>
      <trkpt lat="40.14551" lon="-4.12241">
        <ele>631.4</ele>
        <time>2020-08-16 08:07:48</time>
      </trkpt>
      <trkpt lat="40.14547" lon="-4.12238">
        <ele>631.2</ele>
        <time>2020-08-16 08:07:49</time>
      </trkpt>
      <trkpt lat="40.14543" lon="-4.12236">
        <ele>631.2</ele>
        <time>2020-08-16 08:07:50</time>
      </trkpt>
      <trkpt lat="40.14539" lon="-4.12234">
        <ele>631.2</ele>
        <time>2020-08-16 08:07:51</time>
      </trkpt>
      <trkpt lat="40.14531" lon="-4.12229">
        <ele>631.2</ele>
        <time>2020-08-16 08:07:53</time>
      </trkpt>
      <trkpt lat="40.14523" lon="-4.12226">
        <ele>631.2</ele>
        <time>2020-08-16 08:07:55</time>
      </trkpt>
      <trkpt lat="40.14519" lon="-4.12225">
        <ele>631.2</ele>
        <time>2020-08-16 08:07:56</time>
      </trkpt>
      <trkpt lat="40.14511" lon="-4.12224">
        <ele>631</ele>
        <time>2020-08-16 08:07:58</time>
      </trkpt>
      <trkpt lat="40.14507" lon="-4.12224">
        <ele>631</ele>
        <time>2020-08-16 08:07:59</time>
      </trkpt>
      <trkpt lat="40.14504" lon="-4.12224">
        <ele>631.2</ele>
        <time>2020-08-16 08:08:00</time>
      </trkpt>
      <trkpt lat="40.145" lon="-4.12224">
        <ele>631.2</ele>
        <time>2020-08-16 08:08:01</time>
      </trkpt>
      <trkpt lat="40.14496" lon="-4.12223">
        <ele>631.2</ele>
        <time>2020-08-16 08:08:02</time>
      </trkpt>
      <trkpt lat="40.14492" lon="-4.12223">
        <ele>631.4</ele>
        <time>2020-08-16 08:08:03</time>
      </trkpt>
      <trkpt lat="40.14487" lon="-4.12222">
        <ele>631.4</ele>
        <time>2020-08-16 08:08:04</time>
      </trkpt>
      <trkpt lat="40.14483" lon="-4.12221">
        <ele>631.4</ele>
        <time>2020-08-16 08:08:05</time>
      </trkpt>
      <trkpt lat="40.14478" lon="-4.12221">
        <ele>631.4</ele>
        <time>2020-08-16 08:08:06</time>
      </trkpt>
      <trkpt lat="40.14474" lon="-4.1222">
        <ele>631.4</ele>
        <time>2020-08-16 08:08:07</time>
      </trkpt>
      <trkpt lat="40.14461" lon="-4.12217">
        <ele>631.6</ele>
        <time>2020-08-16 08:08:10</time>
      </trkpt>
      <trkpt lat="40.14441" lon="-4.12211">
        <ele>631.8</ele>
        <time>2020-08-16 08:08:15</time>
      </trkpt>
      <trkpt lat="40.14437" lon="-4.1221">
        <ele>631.8</ele>
        <time>2020-08-16 08:08:16</time>
      </trkpt>
      <trkpt lat="40.14434" lon="-4.12208">
        <ele>631.8</ele>
        <time>2020-08-16 08:08:17</time>
      </trkpt>
      <trkpt lat="40.1443" lon="-4.12207">
        <ele>631.8</ele>
        <time>2020-08-16 08:08:18</time>
      </trkpt>
      <trkpt lat="40.14427" lon="-4.12205">
        <ele>632</ele>
        <time>2020-08-16 08:08:19</time>
      </trkpt>
      <trkpt lat="40.14423" lon="-4.12204">
        <ele>632</ele>
        <time>2020-08-16 08:08:20</time>
      </trkpt>
      <trkpt lat="40.1442" lon="-4.12203">
        <ele>632.2</ele>
        <time>2020-08-16 08:08:21</time>
      </trkpt>
      <trkpt lat="40.14416" lon="-4.12201">
        <ele>632.4</ele>
        <time>2020-08-16 08:08:22</time>
      </trkpt>
      <trkpt lat="40.14412" lon="-4.122">
        <ele>632.4</ele>
        <time>2020-08-16 08:08:23</time>
      </trkpt>
      <trkpt lat="40.14409" lon="-4.12198">
        <ele>632.4</ele>
        <time>2020-08-16 08:08:24</time>
      </trkpt>
      <trkpt lat="40.14405" lon="-4.12197">
        <ele>632.4</ele>
        <time>2020-08-16 08:08:25</time>
      </trkpt>
      <trkpt lat="40.14401" lon="-4.12196">
        <ele>632.4</ele>
        <time>2020-08-16 08:08:26</time>
      </trkpt>
      <trkpt lat="40.14389" lon="-4.12192">
        <ele>632.6</ele>
        <time>2020-08-16 08:08:29</time>
      </trkpt>
      <trkpt lat="40.1438" lon="-4.1219">
        <ele>632.6</ele>
        <time>2020-08-16 08:08:31</time>
      </trkpt>
      <trkpt lat="40.14368" lon="-4.12188">
        <ele>632.6</ele>
        <time>2020-08-16 08:08:34</time>
      </trkpt>
      <trkpt lat="40.14351" lon="-4.12185">
        <ele>632.6</ele>
        <time>2020-08-16 08:08:38</time>
      </trkpt>
      <trkpt lat="40.14342" lon="-4.12184">
        <ele>632.6</ele>
        <time>2020-08-16 08:08:40</time>
      </trkpt>
      <trkpt lat="40.14338" lon="-4.12184">
        <ele>632.6</ele>
        <time>2020-08-16 08:08:41</time>
      </trkpt>
      <trkpt lat="40.14334" lon="-4.12184">
        <ele>632.6</ele>
        <time>2020-08-16 08:08:42</time>
      </trkpt>
      <trkpt lat="40.1433" lon="-4.12184">
        <ele>632.6</ele>
        <time>2020-08-16 08:08:43</time>
      </trkpt>
      <trkpt lat="40.14326" lon="-4.12185">
        <ele>632.6</ele>
        <time>2020-08-16 08:08:44</time>
      </trkpt>
      <trkpt lat="40.14322" lon="-4.12186">
        <ele>632.6</ele>
        <time>2020-08-16 08:08:45</time>
      </trkpt>
      <trkpt lat="40.14317" lon="-4.12186">
        <ele>632.6</ele>
        <time>2020-08-16 08:08:46</time>
      </trkpt>
      <trkpt lat="40.14286" lon="-4.12188">
        <ele>632.6</ele>
        <time>2020-08-16 08:08:53</time>
      </trkpt>
      <trkpt lat="40.14282" lon="-4.12187">
        <ele>632.6</ele>
        <time>2020-08-16 08:08:54</time>
      </trkpt>
      <trkpt lat="40.14256" lon="-4.12178">
        <ele>632.6</ele>
        <time>2020-08-16 08:09:00</time>
      </trkpt>
      <trkpt lat="40.14252" lon="-4.12176">
        <ele>632.6</ele>
        <time>2020-08-16 08:09:01</time>
      </trkpt>
      <trkpt lat="40.14249" lon="-4.12173">
        <ele>632.6</ele>
        <time>2020-08-16 08:09:02</time>
      </trkpt>
      <trkpt lat="40.14246" lon="-4.1217">
        <ele>632.6</ele>
        <time>2020-08-16 08:09:03</time>
      </trkpt>
      <trkpt lat="40.14242" lon="-4.12167">
        <ele>632.6</ele>
        <time>2020-08-16 08:09:04</time>
      </trkpt>
      <trkpt lat="40.14238" lon="-4.12164">
        <ele>632.6</ele>
        <time>2020-08-16 08:09:05</time>
      </trkpt>
      <trkpt lat="40.14235" lon="-4.12161">
        <ele>632.6</ele>
        <time>2020-08-16 08:09:06</time>
      </trkpt>
      <trkpt lat="40.14231" lon="-4.12159">
        <ele>632.6</ele>
        <time>2020-08-16 08:09:07</time>
      </trkpt>
      <trkpt lat="40.14227" lon="-4.12157">
        <ele>632.6</ele>
        <time>2020-08-16 08:09:08</time>
      </trkpt>
      <trkpt lat="40.14223" lon="-4.12155">
        <ele>632.6</ele>
        <time>2020-08-16 08:09:09</time>
      </trkpt>
      <trkpt lat="40.14219" lon="-4.12153">
        <ele>632.6</ele>
        <time>2020-08-16 08:09:10</time>
      </trkpt>
      <trkpt lat="40.14215" lon="-4.12151">
        <ele>632.8</ele>
        <time>2020-08-16 08:09:11</time>
      </trkpt>
      <trkpt lat="40.14211" lon="-4.12148">
        <ele>632.8</ele>
        <time>2020-08-16 08:09:12</time>
      </trkpt>
      <trkpt lat="40.14191" lon="-4.12137">
        <ele>632.8</ele>
        <time>2020-08-16 08:09:17</time>
      </trkpt>
      <trkpt lat="40.14187" lon="-4.12136">
        <ele>632.8</ele>
        <time>2020-08-16 08:09:18</time>
      </trkpt>
      <trkpt lat="40.14174" lon="-4.12135">
        <ele>632.8</ele>
        <time>2020-08-16 08:09:21</time>
      </trkpt>
      <trkpt lat="40.14169" lon="-4.12134">
        <ele>632.8</ele>
        <time>2020-08-16 08:09:22</time>
      </trkpt>
      <trkpt lat="40.14165" lon="-4.12132">
        <ele>632.6</ele>
        <time>2020-08-16 08:09:23</time>
      </trkpt>
      <trkpt lat="40.14161" lon="-4.1213">
        <ele>632.6</ele>
        <time>2020-08-16 08:09:24</time>
      </trkpt>
      <trkpt lat="40.14158" lon="-4.12127">
        <ele>632.6</ele>
        <time>2020-08-16 08:09:25</time>
      </trkpt>
      <trkpt lat="40.14155" lon="-4.12124">
        <ele>632.6</ele>
        <time>2020-08-16 08:09:26</time>
      </trkpt>
      <trkpt lat="40.14152" lon="-4.12121">
        <ele>632.6</ele>
        <time>2020-08-16 08:09:27</time>
      </trkpt>
      <trkpt lat="40.14149" lon="-4.12118">
        <ele>632.6</ele>
        <time>2020-08-16 08:09:28</time>
      </trkpt>
      <trkpt lat="40.14146" lon="-4.12115">
        <ele>632.8</ele>
        <time>2020-08-16 08:09:29</time>
      </trkpt>
      <trkpt lat="40.14142" lon="-4.12114">
        <ele>632.8</ele>
        <time>2020-08-16 08:09:30</time>
      </trkpt>
      <trkpt lat="40.14139" lon="-4.12113">
        <ele>632.8</ele>
        <time>2020-08-16 08:09:31</time>
      </trkpt>
      <trkpt lat="40.14135" lon="-4.12112">
        <ele>632.8</ele>
        <time>2020-08-16 08:09:32</time>
      </trkpt>
      <trkpt lat="40.14131" lon="-4.12112">
        <ele>632.8</ele>
        <time>2020-08-16 08:09:33</time>
      </trkpt>
      <trkpt lat="40.14128" lon="-4.12112">
        <ele>632.8</ele>
        <time>2020-08-16 08:09:34</time>
      </trkpt>
      <trkpt lat="40.14124" lon="-4.12113">
        <ele>633</ele>
        <time>2020-08-16 08:09:35</time>
      </trkpt>
      <trkpt lat="40.14121" lon="-4.12113">
        <ele>633</ele>
        <time>2020-08-16 08:09:36</time>
      </trkpt>
      <trkpt lat="40.14118" lon="-4.12113">
        <ele>633</ele>
        <time>2020-08-16 08:09:37</time>
      </trkpt>
      <trkpt lat="40.14114" lon="-4.12114">
        <ele>633.2</ele>
        <time>2020-08-16 08:09:38</time>
      </trkpt>
      <trkpt lat="40.14111" lon="-4.12115">
        <ele>633.2</ele>
        <time>2020-08-16 08:09:39</time>
      </trkpt>
      <trkpt lat="40.14108" lon="-4.12115">
        <ele>633.4</ele>
        <time>2020-08-16 08:09:40</time>
      </trkpt>
      <trkpt lat="40.14104" lon="-4.12115">
        <ele>633.4</ele>
        <time>2020-08-16 08:09:41</time>
      </trkpt>
      <trkpt lat="40.14101" lon="-4.12116">
        <ele>633.6</ele>
        <time>2020-08-16 08:09:42</time>
      </trkpt>
      <trkpt lat="40.14097" lon="-4.12117">
        <ele>633.6</ele>
        <time>2020-08-16 08:09:43</time>
      </trkpt>
      <trkpt lat="40.14094" lon="-4.12117">
        <ele>633.8</ele>
        <time>2020-08-16 08:09:44</time>
      </trkpt>
      <trkpt lat="40.14091" lon="-4.12119">
        <ele>633.8</ele>
        <time>2020-08-16 08:09:45</time>
      </trkpt>
      <trkpt lat="40.14087" lon="-4.1212">
        <ele>634</ele>
        <time>2020-08-16 08:09:46</time>
      </trkpt>
      <trkpt lat="40.14084" lon="-4.12121">
        <ele>634</ele>
        <time>2020-08-16 08:09:47</time>
      </trkpt>
      <trkpt lat="40.14081" lon="-4.12123">
        <ele>634.2</ele>
        <time>2020-08-16 08:09:48</time>
      </trkpt>
      <trkpt lat="40.14078" lon="-4.12124">
        <ele>634.4</ele>
        <time>2020-08-16 08:09:49</time>
      </trkpt>
      <trkpt lat="40.14075" lon="-4.12125">
        <ele>634.6</ele>
        <time>2020-08-16 08:09:50</time>
      </trkpt>
      <trkpt lat="40.14072" lon="-4.12127">
        <ele>634.6</ele>
        <time>2020-08-16 08:09:51</time>
      </trkpt>
      <trkpt lat="40.14069" lon="-4.12129">
        <ele>634.6</ele>
        <time>2020-08-16 08:09:52</time>
      </trkpt>
      <trkpt lat="40.14066" lon="-4.1213">
        <ele>634.8</ele>
        <time>2020-08-16 08:09:53</time>
      </trkpt>
      <trkpt lat="40.14062" lon="-4.12132">
        <ele>634.8</ele>
        <time>2020-08-16 08:09:54</time>
      </trkpt>
      <trkpt lat="40.14052" lon="-4.12137">
        <ele>634.8</ele>
        <time>2020-08-16 08:09:57</time>
      </trkpt>
      <trkpt lat="40.14045" lon="-4.12141">
        <ele>634.8</ele>
        <time>2020-08-16 08:09:59</time>
      </trkpt>
      <trkpt lat="40.14033" lon="-4.12147">
        <ele>634.8</ele>
        <time>2020-08-16 08:10:02</time>
      </trkpt>
      <trkpt lat="40.14024" lon="-4.12151">
        <ele>634.8</ele>
        <time>2020-08-16 08:10:04</time>
      </trkpt>
      <trkpt lat="40.14007" lon="-4.1216">
        <ele>634.4</ele>
        <time>2020-08-16 08:10:08</time>
      </trkpt>
      <trkpt lat="40.13986" lon="-4.12167">
        <ele>633.4</ele>
        <time>2020-08-16 08:10:12</time>
      </trkpt>
      <trkpt lat="40.1398" lon="-4.12168">
        <ele>633.2</ele>
        <time>2020-08-16 08:10:13</time>
      </trkpt>
      <trkpt lat="40.13962" lon="-4.1217">
        <ele>632.6</ele>
        <time>2020-08-16 08:10:16</time>
      </trkpt>
      <trkpt lat="40.13956" lon="-4.1217">
        <ele>632.4</ele>
        <time>2020-08-16 08:10:17</time>
      </trkpt>
      <trkpt lat="40.1395" lon="-4.1217">
        <ele>632</ele>
        <time>2020-08-16 08:10:18</time>
      </trkpt>
      <trkpt lat="40.13944" lon="-4.12168">
        <ele>631.8</ele>
        <time>2020-08-16 08:10:19</time>
      </trkpt>
      <trkpt lat="40.13932" lon="-4.12166">
        <ele>631.2</ele>
        <time>2020-08-16 08:10:21</time>
      </trkpt>
      <trkpt lat="40.13914" lon="-4.1216">
        <ele>630.4</ele>
        <time>2020-08-16 08:10:24</time>
      </trkpt>
      <trkpt lat="40.13909" lon="-4.12158">
        <ele>630</ele>
        <time>2020-08-16 08:10:25</time>
      </trkpt>
      <trkpt lat="40.13904" lon="-4.12156">
        <ele>629.8</ele>
        <time>2020-08-16 08:10:26</time>
      </trkpt>
      <trkpt lat="40.139" lon="-4.12153">
        <ele>629.6</ele>
        <time>2020-08-16 08:10:27</time>
      </trkpt>
      <trkpt lat="40.13895" lon="-4.12151">
        <ele>629.6</ele>
        <time>2020-08-16 08:10:28</time>
      </trkpt>
      <trkpt lat="40.13891" lon="-4.12149">
        <ele>629.4</ele>
        <time>2020-08-16 08:10:29</time>
      </trkpt>
      <trkpt lat="40.13886" lon="-4.12146">
        <ele>629.4</ele>
        <time>2020-08-16 08:10:30</time>
      </trkpt>
      <trkpt lat="40.13878" lon="-4.12142">
        <ele>629.2</ele>
        <time>2020-08-16 08:10:32</time>
      </trkpt>
      <trkpt lat="40.13874" lon="-4.12139">
        <ele>629.2</ele>
        <time>2020-08-16 08:10:33</time>
      </trkpt>
      <trkpt lat="40.1387" lon="-4.12137">
        <ele>629.2</ele>
        <time>2020-08-16 08:10:34</time>
      </trkpt>
      <trkpt lat="40.13866" lon="-4.12135">
        <ele>629.4</ele>
        <time>2020-08-16 08:10:35</time>
      </trkpt>
      <trkpt lat="40.13861" lon="-4.12133">
        <ele>629.4</ele>
        <time>2020-08-16 08:10:36</time>
      </trkpt>
      <trkpt lat="40.13857" lon="-4.1213">
        <ele>629.4</ele>
        <time>2020-08-16 08:10:37</time>
      </trkpt>
      <trkpt lat="40.13853" lon="-4.12128">
        <ele>629.4</ele>
        <time>2020-08-16 08:10:38</time>
      </trkpt>
      <trkpt lat="40.13848" lon="-4.12125">
        <ele>629.6</ele>
        <time>2020-08-16 08:10:39</time>
      </trkpt>
      <trkpt lat="40.13844" lon="-4.12122">
        <ele>629.6</ele>
        <time>2020-08-16 08:10:40</time>
      </trkpt>
      <trkpt lat="40.1384" lon="-4.1212">
        <ele>629.8</ele>
        <time>2020-08-16 08:10:41</time>
      </trkpt>
      <trkpt lat="40.13835" lon="-4.12118">
        <ele>629.8</ele>
        <time>2020-08-16 08:10:42</time>
      </trkpt>
      <trkpt lat="40.13831" lon="-4.12116">
        <ele>629.8</ele>
        <time>2020-08-16 08:10:43</time>
      </trkpt>
      <trkpt lat="40.13827" lon="-4.12115">
        <ele>629.8</ele>
        <time>2020-08-16 08:10:44</time>
      </trkpt>
      <trkpt lat="40.13823" lon="-4.12113">
        <ele>629.8</ele>
        <time>2020-08-16 08:10:45</time>
      </trkpt>
      <trkpt lat="40.13819" lon="-4.12111">
        <ele>629.8</ele>
        <time>2020-08-16 08:10:46</time>
      </trkpt>
      <trkpt lat="40.13815" lon="-4.1211">
        <ele>629.8</ele>
        <time>2020-08-16 08:10:47</time>
      </trkpt>
      <trkpt lat="40.13811" lon="-4.12108">
        <ele>629.8</ele>
        <time>2020-08-16 08:10:48</time>
      </trkpt>
      <trkpt lat="40.13806" lon="-4.12106">
        <ele>629.8</ele>
        <time>2020-08-16 08:10:49</time>
      </trkpt>
      <trkpt lat="40.13802" lon="-4.12105">
        <ele>629.8</ele>
        <time>2020-08-16 08:10:50</time>
      </trkpt>
      <trkpt lat="40.13797" lon="-4.12104">
        <ele>629.6</ele>
        <time>2020-08-16 08:10:51</time>
      </trkpt>
      <trkpt lat="40.13792" lon="-4.12103">
        <ele>629.6</ele>
        <time>2020-08-16 08:10:52</time>
      </trkpt>
      <trkpt lat="40.13787" lon="-4.12102">
        <ele>629.4</ele>
        <time>2020-08-16 08:10:53</time>
      </trkpt>
      <trkpt lat="40.13771" lon="-4.12098">
        <ele>629</ele>
        <time>2020-08-16 08:10:56</time>
      </trkpt>
      <trkpt lat="40.13753" lon="-4.12095">
        <ele>628.6</ele>
        <time>2020-08-16 08:10:59</time>
      </trkpt>
      <trkpt lat="40.13741" lon="-4.12095">
        <ele>628.4</ele>
        <time>2020-08-16 08:11:01</time>
      </trkpt>
      <trkpt lat="40.13734" lon="-4.12095">
        <ele>628.2</ele>
        <time>2020-08-16 08:11:02</time>
      </trkpt>
      <trkpt lat="40.13728" lon="-4.12094">
        <ele>627.8</ele>
        <time>2020-08-16 08:11:03</time>
      </trkpt>
      <trkpt lat="40.13721" lon="-4.12094">
        <ele>627.6</ele>
        <time>2020-08-16 08:11:04</time>
      </trkpt>
      <trkpt lat="40.13715" lon="-4.12092">
        <ele>627</ele>
        <time>2020-08-16 08:11:05</time>
      </trkpt>
      <trkpt lat="40.13709" lon="-4.12089">
        <ele>626.8</ele>
        <time>2020-08-16 08:11:06</time>
      </trkpt>
      <trkpt lat="40.13686" lon="-4.12077">
        <ele>626</ele>
        <time>2020-08-16 08:11:10</time>
      </trkpt>
      <trkpt lat="40.13681" lon="-4.12074">
        <ele>625.6</ele>
        <time>2020-08-16 08:11:11</time>
      </trkpt>
      <trkpt lat="40.13676" lon="-4.12071">
        <ele>625.4</ele>
        <time>2020-08-16 08:11:12</time>
      </trkpt>
      <trkpt lat="40.13671" lon="-4.12069">
        <ele>625.4</ele>
        <time>2020-08-16 08:11:13</time>
      </trkpt>
      <trkpt lat="40.13666" lon="-4.12068">
        <ele>625.4</ele>
        <time>2020-08-16 08:11:14</time>
      </trkpt>
      <trkpt lat="40.13661" lon="-4.12067">
        <ele>625.4</ele>
        <time>2020-08-16 08:11:15</time>
      </trkpt>
      <trkpt lat="40.13657" lon="-4.12067">
        <ele>625.2</ele>
        <time>2020-08-16 08:11:16</time>
      </trkpt>
      <trkpt lat="40.13653" lon="-4.12068">
        <ele>625.4</ele>
        <time>2020-08-16 08:11:17</time>
      </trkpt>
      <trkpt lat="40.13649" lon="-4.12069">
        <ele>625.4</ele>
        <time>2020-08-16 08:11:18</time>
      </trkpt>
      <trkpt lat="40.13645" lon="-4.12069">
        <ele>625.4</ele>
        <time>2020-08-16 08:11:19</time>
      </trkpt>
      <trkpt lat="40.13641" lon="-4.1207">
        <ele>625.6</ele>
        <time>2020-08-16 08:11:20</time>
      </trkpt>
      <trkpt lat="40.13637" lon="-4.12071">
        <ele>625.6</ele>
        <time>2020-08-16 08:11:21</time>
      </trkpt>
      <trkpt lat="40.13633" lon="-4.12072">
        <ele>625.6</ele>
        <time>2020-08-16 08:11:22</time>
      </trkpt>
      <trkpt lat="40.13629" lon="-4.12073">
        <ele>625.6</ele>
        <time>2020-08-16 08:11:23</time>
      </trkpt>
      <trkpt lat="40.13625" lon="-4.12073">
        <ele>625.6</ele>
        <time>2020-08-16 08:11:24</time>
      </trkpt>
      <trkpt lat="40.13621" lon="-4.12074">
        <ele>625.6</ele>
        <time>2020-08-16 08:11:25</time>
      </trkpt>
      <trkpt lat="40.13616" lon="-4.12075">
        <ele>625.6</ele>
        <time>2020-08-16 08:11:26</time>
      </trkpt>
      <trkpt lat="40.13611" lon="-4.12077">
        <ele>625.6</ele>
        <time>2020-08-16 08:11:27</time>
      </trkpt>
      <trkpt lat="40.13583" lon="-4.12089">
        <ele>625</ele>
        <time>2020-08-16 08:11:33</time>
      </trkpt>
      <trkpt lat="40.13567" lon="-4.12097">
        <ele>624.2</ele>
        <time>2020-08-16 08:11:36</time>
      </trkpt>
      <trkpt lat="40.13552" lon="-4.12107">
        <ele>623.4</ele>
        <time>2020-08-16 08:11:39</time>
      </trkpt>
      <trkpt lat="40.13542" lon="-4.12114">
        <ele>623.2</ele>
        <time>2020-08-16 08:11:41</time>
      </trkpt>
      <trkpt lat="40.13537" lon="-4.12116">
        <ele>622.8</ele>
        <time>2020-08-16 08:11:42</time>
      </trkpt>
      <trkpt lat="40.13533" lon="-4.12118">
        <ele>622.8</ele>
        <time>2020-08-16 08:11:43</time>
      </trkpt>
      <trkpt lat="40.13527" lon="-4.12119">
        <ele>622.6</ele>
        <time>2020-08-16 08:11:44</time>
      </trkpt>
      <trkpt lat="40.13523" lon="-4.12119">
        <ele>622.6</ele>
        <time>2020-08-16 08:11:45</time>
      </trkpt>
      <trkpt lat="40.13518" lon="-4.1212">
        <ele>622.4</ele>
        <time>2020-08-16 08:11:46</time>
      </trkpt>
      <trkpt lat="40.13513" lon="-4.12121">
        <ele>622.2</ele>
        <time>2020-08-16 08:11:47</time>
      </trkpt>
      <trkpt lat="40.13509" lon="-4.12122">
        <ele>622.2</ele>
        <time>2020-08-16 08:11:48</time>
      </trkpt>
      <trkpt lat="40.13504" lon="-4.12123">
        <ele>622.2</ele>
        <time>2020-08-16 08:11:49</time>
      </trkpt>
      <trkpt lat="40.135" lon="-4.12123">
        <ele>622</ele>
        <time>2020-08-16 08:11:50</time>
      </trkpt>
      <trkpt lat="40.13496" lon="-4.12124">
        <ele>622</ele>
        <time>2020-08-16 08:11:51</time>
      </trkpt>
      <trkpt lat="40.13491" lon="-4.12124">
        <ele>622</ele>
        <time>2020-08-16 08:11:52</time>
      </trkpt>
      <trkpt lat="40.13487" lon="-4.12123">
        <ele>622.2</ele>
        <time>2020-08-16 08:11:53</time>
      </trkpt>
      <trkpt lat="40.13482" lon="-4.12122">
        <ele>622.2</ele>
        <time>2020-08-16 08:11:54</time>
      </trkpt>
      <trkpt lat="40.13478" lon="-4.12121">
        <ele>622.4</ele>
        <time>2020-08-16 08:11:55</time>
      </trkpt>
      <trkpt lat="40.13473" lon="-4.1212">
        <ele>622.6</ele>
        <time>2020-08-16 08:11:56</time>
      </trkpt>
      <trkpt lat="40.13469" lon="-4.12119">
        <ele>622.8</ele>
        <time>2020-08-16 08:11:57</time>
      </trkpt>
      <trkpt lat="40.13465" lon="-4.12118">
        <ele>623.2</ele>
        <time>2020-08-16 08:11:58</time>
      </trkpt>
      <trkpt lat="40.13461" lon="-4.12117">
        <ele>623.2</ele>
        <time>2020-08-16 08:11:59</time>
      </trkpt>
      <trkpt lat="40.13457" lon="-4.12117">
        <ele>623.4</ele>
        <time>2020-08-16 08:12:00</time>
      </trkpt>
      <trkpt lat="40.13453" lon="-4.12115">
        <ele>623.6</ele>
        <time>2020-08-16 08:12:01</time>
      </trkpt>
      <trkpt lat="40.13449" lon="-4.12114">
        <ele>623.8</ele>
        <time>2020-08-16 08:12:02</time>
      </trkpt>
      <trkpt lat="40.13445" lon="-4.12113">
        <ele>624.2</ele>
        <time>2020-08-16 08:12:03</time>
      </trkpt>
      <trkpt lat="40.1344" lon="-4.12112">
        <ele>624.2</ele>
        <time>2020-08-16 08:12:04</time>
      </trkpt>
      <trkpt lat="40.13436" lon="-4.12111">
        <ele>624.4</ele>
        <time>2020-08-16 08:12:05</time>
      </trkpt>
      <trkpt lat="40.13432" lon="-4.1211">
        <ele>624.6</ele>
        <time>2020-08-16 08:12:06</time>
      </trkpt>
      <trkpt lat="40.13428" lon="-4.12109">
        <ele>624.8</ele>
        <time>2020-08-16 08:12:07</time>
      </trkpt>
      <trkpt lat="40.13424" lon="-4.12107">
        <ele>624.8</ele>
        <time>2020-08-16 08:12:08</time>
      </trkpt>
      <trkpt lat="40.1342" lon="-4.12106">
        <ele>625</ele>
        <time>2020-08-16 08:12:09</time>
      </trkpt>
      <trkpt lat="40.13416" lon="-4.12105">
        <ele>625</ele>
        <time>2020-08-16 08:12:10</time>
      </trkpt>
      <trkpt lat="40.13411" lon="-4.12104">
        <ele>625</ele>
        <time>2020-08-16 08:12:11</time>
      </trkpt>
      <trkpt lat="40.13407" lon="-4.12103">
        <ele>625</ele>
        <time>2020-08-16 08:12:12</time>
      </trkpt>
      <trkpt lat="40.13399" lon="-4.12102">
        <ele>625.2</ele>
        <time>2020-08-16 08:12:14</time>
      </trkpt>
      <trkpt lat="40.13395" lon="-4.12102">
        <ele>625.2</ele>
        <time>2020-08-16 08:12:15</time>
      </trkpt>
      <trkpt lat="40.13391" lon="-4.12102">
        <ele>625.2</ele>
        <time>2020-08-16 08:12:16</time>
      </trkpt>
      <trkpt lat="40.13388" lon="-4.12103">
        <ele>625.2</ele>
        <time>2020-08-16 08:12:17</time>
      </trkpt>
      <trkpt lat="40.13384" lon="-4.12103">
        <ele>625.4</ele>
        <time>2020-08-16 08:12:18</time>
      </trkpt>
      <trkpt lat="40.1338" lon="-4.12104">
        <ele>625.6</ele>
        <time>2020-08-16 08:12:19</time>
      </trkpt>
      <trkpt lat="40.13377" lon="-4.12106">
        <ele>625.6</ele>
        <time>2020-08-16 08:12:20</time>
      </trkpt>
      <trkpt lat="40.13373" lon="-4.12107">
        <ele>625.8</ele>
        <time>2020-08-16 08:12:21</time>
      </trkpt>
      <trkpt lat="40.1337" lon="-4.12108">
        <ele>625.8</ele>
        <time>2020-08-16 08:12:22</time>
      </trkpt>
      <trkpt lat="40.13367" lon="-4.1211">
        <ele>626</ele>
        <time>2020-08-16 08:12:23</time>
      </trkpt>
      <trkpt lat="40.13364" lon="-4.12111">
        <ele>626</ele>
        <time>2020-08-16 08:12:24</time>
      </trkpt>
      <trkpt lat="40.13361" lon="-4.12113">
        <ele>626</ele>
        <time>2020-08-16 08:12:25</time>
      </trkpt>
      <trkpt lat="40.13357" lon="-4.12114">
        <ele>626</ele>
        <time>2020-08-16 08:12:26</time>
      </trkpt>
      <trkpt lat="40.13353" lon="-4.12114">
        <ele>626</ele>
        <time>2020-08-16 08:12:27</time>
      </trkpt>
      <trkpt lat="40.13349" lon="-4.12114">
        <ele>626</ele>
        <time>2020-08-16 08:12:28</time>
      </trkpt>
      <trkpt lat="40.13344" lon="-4.12114">
        <ele>626</ele>
        <time>2020-08-16 08:12:29</time>
      </trkpt>
      <trkpt lat="40.1333" lon="-4.12109">
        <ele>625.8</ele>
        <time>2020-08-16 08:12:32</time>
      </trkpt>
      <trkpt lat="40.13325" lon="-4.12107">
        <ele>625.8</ele>
        <time>2020-08-16 08:12:33</time>
      </trkpt>
      <trkpt lat="40.13309" lon="-4.121">
        <ele>625</ele>
        <time>2020-08-16 08:12:36</time>
      </trkpt>
      <trkpt lat="40.13305" lon="-4.12097">
        <ele>624.8</ele>
        <time>2020-08-16 08:12:37</time>
      </trkpt>
      <trkpt lat="40.13285" lon="-4.12081">
        <ele>624.2</ele>
        <time>2020-08-16 08:12:41</time>
      </trkpt>
      <trkpt lat="40.13277" lon="-4.12073">
        <ele>623.4</ele>
        <time>2020-08-16 08:12:43</time>
      </trkpt>
      <trkpt lat="40.13268" lon="-4.12067">
        <ele>622.6</ele>
        <time>2020-08-16 08:12:45</time>
      </trkpt>
      <trkpt lat="40.13264" lon="-4.12064">
        <ele>622.4</ele>
        <time>2020-08-16 08:12:46</time>
      </trkpt>
      <trkpt lat="40.1326" lon="-4.12061">
        <ele>622.2</ele>
        <time>2020-08-16 08:12:47</time>
      </trkpt>
      <trkpt lat="40.13255" lon="-4.12058">
        <ele>621.8</ele>
        <time>2020-08-16 08:12:48</time>
      </trkpt>
      <trkpt lat="40.1325" lon="-4.12056">
        <ele>621.8</ele>
        <time>2020-08-16 08:12:49</time>
      </trkpt>
      <trkpt lat="40.13246" lon="-4.12054">
        <ele>621.4</ele>
        <time>2020-08-16 08:12:50</time>
      </trkpt>
      <trkpt lat="40.13241" lon="-4.12052">
        <ele>621.2</ele>
        <time>2020-08-16 08:12:51</time>
      </trkpt>
      <trkpt lat="40.13236" lon="-4.12051">
        <ele>621</ele>
        <time>2020-08-16 08:12:52</time>
      </trkpt>
      <trkpt lat="40.13231" lon="-4.1205">
        <ele>621</ele>
        <time>2020-08-16 08:12:53</time>
      </trkpt>
      <trkpt lat="40.13221" lon="-4.12048">
        <ele>620.6</ele>
        <time>2020-08-16 08:12:55</time>
      </trkpt>
      <trkpt lat="40.13216" lon="-4.12046">
        <ele>620.6</ele>
        <time>2020-08-16 08:12:56</time>
      </trkpt>
      <trkpt lat="40.13211" lon="-4.12044">
        <ele>620.4</ele>
        <time>2020-08-16 08:12:57</time>
      </trkpt>
      <trkpt lat="40.13197" lon="-4.12039">
        <ele>620</ele>
        <time>2020-08-16 08:13:00</time>
      </trkpt>
      <trkpt lat="40.13192" lon="-4.12036">
        <ele>620</ele>
        <time>2020-08-16 08:13:01</time>
      </trkpt>
      <trkpt lat="40.13188" lon="-4.12034">
        <ele>620</ele>
        <time>2020-08-16 08:13:02</time>
      </trkpt>
      <trkpt lat="40.13183" lon="-4.12032">
        <ele>620.2</ele>
        <time>2020-08-16 08:13:03</time>
      </trkpt>
      <trkpt lat="40.13179" lon="-4.1203">
        <ele>620.2</ele>
        <time>2020-08-16 08:13:04</time>
      </trkpt>
      <trkpt lat="40.13174" lon="-4.12028">
        <ele>620.2</ele>
        <time>2020-08-16 08:13:05</time>
      </trkpt>
      <trkpt lat="40.1317" lon="-4.12027">
        <ele>620.2</ele>
        <time>2020-08-16 08:13:06</time>
      </trkpt>
      <trkpt lat="40.13166" lon="-4.12026">
        <ele>620.2</ele>
        <time>2020-08-16 08:13:07</time>
      </trkpt>
      <trkpt lat="40.13161" lon="-4.12024">
        <ele>620.2</ele>
        <time>2020-08-16 08:13:08</time>
      </trkpt>
      <trkpt lat="40.13157" lon="-4.12023">
        <ele>620.2</ele>
        <time>2020-08-16 08:13:09</time>
      </trkpt>
      <trkpt lat="40.13153" lon="-4.12021">
        <ele>620.2</ele>
        <time>2020-08-16 08:13:10</time>
      </trkpt>
      <trkpt lat="40.13149" lon="-4.12019">
        <ele>620.2</ele>
        <time>2020-08-16 08:13:11</time>
      </trkpt>
      <trkpt lat="40.13145" lon="-4.12017">
        <ele>620.2</ele>
        <time>2020-08-16 08:13:12</time>
      </trkpt>
      <trkpt lat="40.13141" lon="-4.12016">
        <ele>620.4</ele>
        <time>2020-08-16 08:13:13</time>
      </trkpt>
      <trkpt lat="40.13136" lon="-4.12014">
        <ele>620.4</ele>
        <time>2020-08-16 08:13:14</time>
      </trkpt>
      <trkpt lat="40.13132" lon="-4.12012">
        <ele>620.4</ele>
        <time>2020-08-16 08:13:15</time>
      </trkpt>
      <trkpt lat="40.13128" lon="-4.12011">
        <ele>620.4</ele>
        <time>2020-08-16 08:13:16</time>
      </trkpt>
      <trkpt lat="40.13123" lon="-4.1201">
        <ele>620.6</ele>
        <time>2020-08-16 08:13:17</time>
      </trkpt>
      <trkpt lat="40.13091" lon="-4.12006">
        <ele>620.2</ele>
        <time>2020-08-16 08:13:23</time>
      </trkpt>
      <trkpt lat="40.13073" lon="-4.12005">
        <ele>619.8</ele>
        <time>2020-08-16 08:13:26</time>
      </trkpt>
      <trkpt lat="40.13067" lon="-4.12005">
        <ele>619.6</ele>
        <time>2020-08-16 08:13:27</time>
      </trkpt>
      <trkpt lat="40.13061" lon="-4.12005">
        <ele>619.8</ele>
        <time>2020-08-16 08:13:28</time>
      </trkpt>
      <trkpt lat="40.13055" lon="-4.12005">
        <ele>619.2</ele>
        <time>2020-08-16 08:13:29</time>
      </trkpt>
      <trkpt lat="40.1305" lon="-4.12003">
        <ele>619</ele>
        <time>2020-08-16 08:13:30</time>
      </trkpt>
      <trkpt lat="40.13045" lon="-4.12002">
        <ele>619</ele>
        <time>2020-08-16 08:13:31</time>
      </trkpt>
      <trkpt lat="40.1304" lon="-4.12001">
        <ele>618.8</ele>
        <time>2020-08-16 08:13:32</time>
      </trkpt>
      <trkpt lat="40.13036" lon="-4.12">
        <ele>618.8</ele>
        <time>2020-08-16 08:13:33</time>
      </trkpt>
      <trkpt lat="40.13031" lon="-4.11999">
        <ele>618.6</ele>
        <time>2020-08-16 08:13:34</time>
      </trkpt>
      <trkpt lat="40.13026" lon="-4.11999">
        <ele>618.6</ele>
        <time>2020-08-16 08:13:35</time>
      </trkpt>
      <trkpt lat="40.13017" lon="-4.11998">
        <ele>618.8</ele>
        <time>2020-08-16 08:13:37</time>
      </trkpt>
      <trkpt lat="40.13013" lon="-4.11997">
        <ele>618.6</ele>
        <time>2020-08-16 08:13:38</time>
      </trkpt>
      <trkpt lat="40.13008" lon="-4.11996">
        <ele>618.6</ele>
        <time>2020-08-16 08:13:39</time>
      </trkpt>
      <trkpt lat="40.13004" lon="-4.11995">
        <ele>618.8</ele>
        <time>2020-08-16 08:13:40</time>
      </trkpt>
      <trkpt lat="40.13" lon="-4.11995">
        <ele>619</ele>
        <time>2020-08-16 08:13:41</time>
      </trkpt>
      <trkpt lat="40.12995" lon="-4.11994">
        <ele>619</ele>
        <time>2020-08-16 08:13:42</time>
      </trkpt>
      <trkpt lat="40.12991" lon="-4.11993">
        <ele>619</ele>
        <time>2020-08-16 08:13:43</time>
      </trkpt>
      <trkpt lat="40.12987" lon="-4.11993">
        <ele>619</ele>
        <time>2020-08-16 08:13:44</time>
      </trkpt>
      <trkpt lat="40.12982" lon="-4.11992">
        <ele>619</ele>
        <time>2020-08-16 08:13:45</time>
      </trkpt>
      <trkpt lat="40.12978" lon="-4.11991">
        <ele>619</ele>
        <time>2020-08-16 08:13:46</time>
      </trkpt>
      <trkpt lat="40.12974" lon="-4.11991">
        <ele>619.4</ele>
        <time>2020-08-16 08:13:47</time>
      </trkpt>
      <trkpt lat="40.12969" lon="-4.11991">
        <ele>619.6</ele>
        <time>2020-08-16 08:13:48</time>
      </trkpt>
      <trkpt lat="40.12965" lon="-4.11991">
        <ele>619.6</ele>
        <time>2020-08-16 08:13:49</time>
      </trkpt>
      <trkpt lat="40.12961" lon="-4.11991">
        <ele>619.8</ele>
        <time>2020-08-16 08:13:50</time>
      </trkpt>
      <trkpt lat="40.12957" lon="-4.11992">
        <ele>619.8</ele>
        <time>2020-08-16 08:13:51</time>
      </trkpt>
      <trkpt lat="40.12952" lon="-4.11992">
        <ele>620</ele>
        <time>2020-08-16 08:13:52</time>
      </trkpt>
      <trkpt lat="40.12948" lon="-4.11993">
        <ele>620</ele>
        <time>2020-08-16 08:13:53</time>
      </trkpt>
      <trkpt lat="40.12945" lon="-4.11994">
        <ele>620.2</ele>
        <time>2020-08-16 08:13:54</time>
      </trkpt>
      <trkpt lat="40.12941" lon="-4.11995">
        <ele>620.4</ele>
        <time>2020-08-16 08:13:55</time>
      </trkpt>
      <trkpt lat="40.12937" lon="-4.11995">
        <ele>620.4</ele>
        <time>2020-08-16 08:13:56</time>
      </trkpt>
      <trkpt lat="40.12934" lon="-4.11996">
        <ele>620.6</ele>
        <time>2020-08-16 08:13:57</time>
      </trkpt>
      <trkpt lat="40.1293" lon="-4.11996">
        <ele>620.8</ele>
        <time>2020-08-16 08:13:58</time>
      </trkpt>
      <trkpt lat="40.12926" lon="-4.11997">
        <ele>620.8</ele>
        <time>2020-08-16 08:13:59</time>
      </trkpt>
      <trkpt lat="40.12923" lon="-4.11997">
        <ele>620.8</ele>
        <time>2020-08-16 08:14:00</time>
      </trkpt>
      <trkpt lat="40.12919" lon="-4.11998">
        <ele>621</ele>
        <time>2020-08-16 08:14:01</time>
      </trkpt>
      <trkpt lat="40.12915" lon="-4.11999">
        <ele>621.2</ele>
        <time>2020-08-16 08:14:02</time>
      </trkpt>
      <trkpt lat="40.12911" lon="-4.11999">
        <ele>621.4</ele>
        <time>2020-08-16 08:14:03</time>
      </trkpt>
      <trkpt lat="40.12907" lon="-4.12">
        <ele>621.6</ele>
        <time>2020-08-16 08:14:04</time>
      </trkpt>
      <trkpt lat="40.12903" lon="-4.12">
        <ele>621.6</ele>
        <time>2020-08-16 08:14:05</time>
      </trkpt>
      <trkpt lat="40.12899" lon="-4.12001">
        <ele>621.8</ele>
        <time>2020-08-16 08:14:06</time>
      </trkpt>
      <trkpt lat="40.12895" lon="-4.12001">
        <ele>621.8</ele>
        <time>2020-08-16 08:14:07</time>
      </trkpt>
      <trkpt lat="40.12891" lon="-4.12001">
        <ele>622</ele>
        <time>2020-08-16 08:14:08</time>
      </trkpt>
      <trkpt lat="40.12887" lon="-4.12001">
        <ele>622</ele>
        <time>2020-08-16 08:14:09</time>
      </trkpt>
      <trkpt lat="40.12882" lon="-4.12002">
        <ele>622.2</ele>
        <time>2020-08-16 08:14:10</time>
      </trkpt>
      <trkpt lat="40.12878" lon="-4.12001">
        <ele>622.2</ele>
        <time>2020-08-16 08:14:11</time>
      </trkpt>
      <trkpt lat="40.12865" lon="-4.11999">
        <ele>622.2</ele>
        <time>2020-08-16 08:14:14</time>
      </trkpt>
      <trkpt lat="40.12861" lon="-4.12">
        <ele>622.2</ele>
        <time>2020-08-16 08:14:15</time>
      </trkpt>
      <trkpt lat="40.12857" lon="-4.12">
        <ele>622</ele>
        <time>2020-08-16 08:14:16</time>
      </trkpt>
      <trkpt lat="40.12837" lon="-4.12007">
        <ele>621.2</ele>
        <time>2020-08-16 08:14:20</time>
      </trkpt>
      <trkpt lat="40.12831" lon="-4.1201">
        <ele>621.2</ele>
        <time>2020-08-16 08:14:21</time>
      </trkpt>
      <trkpt lat="40.12815" lon="-4.12019">
        <ele>620.8</ele>
        <time>2020-08-16 08:14:24</time>
      </trkpt>
      <trkpt lat="40.12805" lon="-4.12027">
        <ele>620.2</ele>
        <time>2020-08-16 08:14:26</time>
      </trkpt>
      <trkpt lat="40.12799" lon="-4.1203">
        <ele>620.2</ele>
        <time>2020-08-16 08:14:27</time>
      </trkpt>
      <trkpt lat="40.12789" lon="-4.12035">
        <ele>619.8</ele>
        <time>2020-08-16 08:14:29</time>
      </trkpt>
      <trkpt lat="40.12784" lon="-4.12037">
        <ele>619.8</ele>
        <time>2020-08-16 08:14:30</time>
      </trkpt>
      <trkpt lat="40.1278" lon="-4.12039">
        <ele>619.8</ele>
        <time>2020-08-16 08:14:31</time>
      </trkpt>
      <trkpt lat="40.12775" lon="-4.12039">
        <ele>619.6</ele>
        <time>2020-08-16 08:14:32</time>
      </trkpt>
      <trkpt lat="40.1277" lon="-4.1204">
        <ele>619.6</ele>
        <time>2020-08-16 08:14:33</time>
      </trkpt>
      <trkpt lat="40.12761" lon="-4.1204">
        <ele>619.6</ele>
        <time>2020-08-16 08:14:35</time>
      </trkpt>
      <trkpt lat="40.12756" lon="-4.12041">
        <ele>619.4</ele>
        <time>2020-08-16 08:14:36</time>
      </trkpt>
      <trkpt lat="40.12751" lon="-4.12041">
        <ele>619.4</ele>
        <time>2020-08-16 08:14:37</time>
      </trkpt>
      <trkpt lat="40.12747" lon="-4.12041">
        <ele>619.4</ele>
        <time>2020-08-16 08:14:38</time>
      </trkpt>
      <trkpt lat="40.12742" lon="-4.12041">
        <ele>619.4</ele>
        <time>2020-08-16 08:14:39</time>
      </trkpt>
      <trkpt lat="40.12738" lon="-4.12042">
        <ele>619.4</ele>
        <time>2020-08-16 08:14:40</time>
      </trkpt>
      <trkpt lat="40.12734" lon="-4.12043">
        <ele>619.4</ele>
        <time>2020-08-16 08:14:41</time>
      </trkpt>
      <trkpt lat="40.12729" lon="-4.12044">
        <ele>619.4</ele>
        <time>2020-08-16 08:14:42</time>
      </trkpt>
      <trkpt lat="40.12725" lon="-4.12045">
        <ele>619.4</ele>
        <time>2020-08-16 08:14:43</time>
      </trkpt>
      <trkpt lat="40.12721" lon="-4.12046">
        <ele>619.4</ele>
        <time>2020-08-16 08:14:44</time>
      </trkpt>
      <trkpt lat="40.12717" lon="-4.12047">
        <ele>619.6</ele>
        <time>2020-08-16 08:14:45</time>
      </trkpt>
      <trkpt lat="40.12713" lon="-4.12049">
        <ele>619.6</ele>
        <time>2020-08-16 08:14:46</time>
      </trkpt>
      <trkpt lat="40.1271" lon="-4.12051">
        <ele>619.8</ele>
        <time>2020-08-16 08:14:47</time>
      </trkpt>
      <trkpt lat="40.12707" lon="-4.12053">
        <ele>619.8</ele>
        <time>2020-08-16 08:14:48</time>
      </trkpt>
      <trkpt lat="40.12703" lon="-4.12055">
        <ele>620</ele>
        <time>2020-08-16 08:14:49</time>
      </trkpt>
      <trkpt lat="40.127" lon="-4.12057">
        <ele>620.2</ele>
        <time>2020-08-16 08:14:50</time>
      </trkpt>
      <trkpt lat="40.12697" lon="-4.12059">
        <ele>620.2</ele>
        <time>2020-08-16 08:14:51</time>
      </trkpt>
      <trkpt lat="40.12694" lon="-4.12061">
        <ele>620.2</ele>
        <time>2020-08-16 08:14:52</time>
      </trkpt>
      <trkpt lat="40.12691" lon="-4.12063">
        <ele>620.2</ele>
        <time>2020-08-16 08:14:53</time>
      </trkpt>
      <trkpt lat="40.12688" lon="-4.12065">
        <ele>620.4</ele>
        <time>2020-08-16 08:14:54</time>
      </trkpt>
      <trkpt lat="40.12685" lon="-4.12068">
        <ele>620.4</ele>
        <time>2020-08-16 08:14:55</time>
      </trkpt>
      <trkpt lat="40.12681" lon="-4.12069">
        <ele>620.6</ele>
        <time>2020-08-16 08:14:56</time>
      </trkpt>
      <trkpt lat="40.12678" lon="-4.12071">
        <ele>620.6</ele>
        <time>2020-08-16 08:14:57</time>
      </trkpt>
      <trkpt lat="40.12676" lon="-4.12072">
        <ele>620.6</ele>
        <time>2020-08-16 08:14:58</time>
      </trkpt>
      <trkpt lat="40.12673" lon="-4.12074">
        <ele>620.8</ele>
        <time>2020-08-16 08:14:59</time>
      </trkpt>
      <trkpt lat="40.1267" lon="-4.12075">
        <ele>621</ele>
        <time>2020-08-16 08:15:00</time>
      </trkpt>
      <trkpt lat="40.12668" lon="-4.12076">
        <ele>621.4</ele>
        <time>2020-08-16 08:15:01</time>
      </trkpt>
      <trkpt lat="40.12665" lon="-4.12077">
        <ele>621.4</ele>
        <time>2020-08-16 08:15:02</time>
      </trkpt>
      <trkpt lat="40.12663" lon="-4.12078">
        <ele>621.8</ele>
        <time>2020-08-16 08:15:03</time>
      </trkpt>
      <trkpt lat="40.1266" lon="-4.1208">
        <ele>621.8</ele>
        <time>2020-08-16 08:15:04</time>
      </trkpt>
      <trkpt lat="40.12657" lon="-4.12082">
        <ele>622</ele>
        <time>2020-08-16 08:15:05</time>
      </trkpt>
      <trkpt lat="40.12653" lon="-4.12084">
        <ele>622.2</ele>
        <time>2020-08-16 08:15:06</time>
      </trkpt>
      <trkpt lat="40.1265" lon="-4.12087">
        <ele>622.2</ele>
        <time>2020-08-16 08:15:07</time>
      </trkpt>
      <trkpt lat="40.12646" lon="-4.12091">
        <ele>622.4</ele>
        <time>2020-08-16 08:15:08</time>
      </trkpt>
      <trkpt lat="40.12643" lon="-4.12094">
        <ele>622.4</ele>
        <time>2020-08-16 08:15:09</time>
      </trkpt>
      <trkpt lat="40.12639" lon="-4.12097">
        <ele>622.6</ele>
        <time>2020-08-16 08:15:10</time>
      </trkpt>
      <trkpt lat="40.12635" lon="-4.121">
        <ele>622.6</ele>
        <time>2020-08-16 08:15:11</time>
      </trkpt>
      <trkpt lat="40.1263" lon="-4.12103">
        <ele>622.6</ele>
        <time>2020-08-16 08:15:12</time>
      </trkpt>
      <trkpt lat="40.12626" lon="-4.12106">
        <ele>622.6</ele>
        <time>2020-08-16 08:15:13</time>
      </trkpt>
      <trkpt lat="40.12617" lon="-4.1211">
        <ele>622.6</ele>
        <time>2020-08-16 08:15:15</time>
      </trkpt>
      <trkpt lat="40.1259" lon="-4.12114">
        <ele>622.6</ele>
        <time>2020-08-16 08:15:21</time>
      </trkpt>
      <trkpt lat="40.12586" lon="-4.12115">
        <ele>622.6</ele>
        <time>2020-08-16 08:15:22</time>
      </trkpt>
      <trkpt lat="40.12581" lon="-4.12115">
        <ele>622.6</ele>
        <time>2020-08-16 08:15:23</time>
      </trkpt>
      <trkpt lat="40.12577" lon="-4.12116">
        <ele>622.6</ele>
        <time>2020-08-16 08:15:24</time>
      </trkpt>
      <trkpt lat="40.12573" lon="-4.12116">
        <ele>622.6</ele>
        <time>2020-08-16 08:15:25</time>
      </trkpt>
      <trkpt lat="40.12569" lon="-4.12117">
        <ele>622.8</ele>
        <time>2020-08-16 08:15:26</time>
      </trkpt>
      <trkpt lat="40.12565" lon="-4.12117">
        <ele>622.8</ele>
        <time>2020-08-16 08:15:27</time>
      </trkpt>
      <trkpt lat="40.12561" lon="-4.12118">
        <ele>623</ele>
        <time>2020-08-16 08:15:28</time>
      </trkpt>
      <trkpt lat="40.12557" lon="-4.12119">
        <ele>623.2</ele>
        <time>2020-08-16 08:15:29</time>
      </trkpt>
      <trkpt lat="40.12553" lon="-4.1212">
        <ele>623.2</ele>
        <time>2020-08-16 08:15:30</time>
      </trkpt>
      <trkpt lat="40.12549" lon="-4.12121">
        <ele>623.4</ele>
        <time>2020-08-16 08:15:31</time>
      </trkpt>
      <trkpt lat="40.12545" lon="-4.12122">
        <ele>623.4</ele>
        <time>2020-08-16 08:15:32</time>
      </trkpt>
      <trkpt lat="40.12542" lon="-4.12123">
        <ele>623.6</ele>
        <time>2020-08-16 08:15:33</time>
      </trkpt>
      <trkpt lat="40.12538" lon="-4.12124">
        <ele>623.6</ele>
        <time>2020-08-16 08:15:34</time>
      </trkpt>
      <trkpt lat="40.12534" lon="-4.12125">
        <ele>623.8</ele>
        <time>2020-08-16 08:15:35</time>
      </trkpt>
      <trkpt lat="40.1253" lon="-4.12127">
        <ele>623.8</ele>
        <time>2020-08-16 08:15:36</time>
      </trkpt>
      <trkpt lat="40.12527" lon="-4.12128">
        <ele>624</ele>
        <time>2020-08-16 08:15:37</time>
      </trkpt>
      <trkpt lat="40.12523" lon="-4.1213">
        <ele>624</ele>
        <time>2020-08-16 08:15:38</time>
      </trkpt>
      <trkpt lat="40.1252" lon="-4.12131">
        <ele>624</ele>
        <time>2020-08-16 08:15:39</time>
      </trkpt>
      <trkpt lat="40.12516" lon="-4.12133">
        <ele>624.2</ele>
        <time>2020-08-16 08:15:40</time>
      </trkpt>
      <trkpt lat="40.12513" lon="-4.12134">
        <ele>624.4</ele>
        <time>2020-08-16 08:15:41</time>
      </trkpt>
      <trkpt lat="40.12509" lon="-4.12135">
        <ele>624.4</ele>
        <time>2020-08-16 08:15:42</time>
      </trkpt>
      <trkpt lat="40.12506" lon="-4.12137">
        <ele>624.6</ele>
        <time>2020-08-16 08:15:43</time>
      </trkpt>
      <trkpt lat="40.12503" lon="-4.12139">
        <ele>624.6</ele>
        <time>2020-08-16 08:15:44</time>
      </trkpt>
      <trkpt lat="40.125" lon="-4.1214">
        <ele>625</ele>
        <time>2020-08-16 08:15:45</time>
      </trkpt>
      <trkpt lat="40.12498" lon="-4.12142">
        <ele>625.2</ele>
        <time>2020-08-16 08:15:46</time>
      </trkpt>
      <trkpt lat="40.12495" lon="-4.12143">
        <ele>625.6</ele>
        <time>2020-08-16 08:15:47</time>
      </trkpt>
      <trkpt lat="40.12492" lon="-4.12143">
        <ele>625.8</ele>
        <time>2020-08-16 08:15:48</time>
      </trkpt>
      <trkpt lat="40.12489" lon="-4.12144">
        <ele>626</ele>
        <time>2020-08-16 08:15:49</time>
      </trkpt>
      <trkpt lat="40.12486" lon="-4.12144">
        <ele>626.2</ele>
        <time>2020-08-16 08:15:50</time>
      </trkpt>
      <trkpt lat="40.12483" lon="-4.12144">
        <ele>626.4</ele>
        <time>2020-08-16 08:15:51</time>
      </trkpt>
      <trkpt lat="40.1248" lon="-4.12144">
        <ele>626.6</ele>
        <time>2020-08-16 08:15:52</time>
      </trkpt>
      <trkpt lat="40.12477" lon="-4.12143">
        <ele>626.8</ele>
        <time>2020-08-16 08:15:53</time>
      </trkpt>
      <trkpt lat="40.12474" lon="-4.12143">
        <ele>627.2</ele>
        <time>2020-08-16 08:15:54</time>
      </trkpt>
      <trkpt lat="40.12471" lon="-4.12142">
        <ele>627.4</ele>
        <time>2020-08-16 08:15:55</time>
      </trkpt>
      <trkpt lat="40.12468" lon="-4.12142">
        <ele>627.4</ele>
        <time>2020-08-16 08:15:56</time>
      </trkpt>
      <trkpt lat="40.12465" lon="-4.12141">
        <ele>627.6</ele>
        <time>2020-08-16 08:15:57</time>
      </trkpt>
      <trkpt lat="40.12462" lon="-4.12141">
        <ele>627.6</ele>
        <time>2020-08-16 08:15:58</time>
      </trkpt>
      <trkpt lat="40.12459" lon="-4.1214">
        <ele>627.8</ele>
        <time>2020-08-16 08:15:59</time>
      </trkpt>
      <trkpt lat="40.12456" lon="-4.12139">
        <ele>627.8</ele>
        <time>2020-08-16 08:16:00</time>
      </trkpt>
      <trkpt lat="40.12452" lon="-4.12138">
        <ele>627.8</ele>
        <time>2020-08-16 08:16:01</time>
      </trkpt>
      <trkpt lat="40.12447" lon="-4.12137">
        <ele>627.8</ele>
        <time>2020-08-16 08:16:02</time>
      </trkpt>
      <trkpt lat="40.1243" lon="-4.12136">
        <ele>627.6</ele>
        <time>2020-08-16 08:16:05</time>
      </trkpt>
      <trkpt lat="40.12403" lon="-4.12136">
        <ele>626.8</ele>
        <time>2020-08-16 08:16:09</time>
      </trkpt>
      <trkpt lat="40.12396" lon="-4.12136">
        <ele>626.4</ele>
        <time>2020-08-16 08:16:10</time>
      </trkpt>
      <trkpt lat="40.1238" lon="-4.12133">
        <ele>625.6</ele>
        <time>2020-08-16 08:16:12</time>
      </trkpt>
      <trkpt lat="40.12364" lon="-4.12129">
        <ele>624.4</ele>
        <time>2020-08-16 08:16:14</time>
      </trkpt>
      <trkpt lat="40.12355" lon="-4.12128">
        <ele>623.8</ele>
        <time>2020-08-16 08:16:15</time>
      </trkpt>
      <trkpt lat="40.12337" lon="-4.12127">
        <ele>623.2</ele>
        <time>2020-08-16 08:16:17</time>
      </trkpt>
      <trkpt lat="40.1232" lon="-4.12126">
        <ele>622.2</ele>
        <time>2020-08-16 08:16:19</time>
      </trkpt>
      <trkpt lat="40.12311" lon="-4.12126">
        <ele>622</ele>
        <time>2020-08-16 08:16:20</time>
      </trkpt>
      <trkpt lat="40.12303" lon="-4.12125">
        <ele>621.6</ele>
        <time>2020-08-16 08:16:21</time>
      </trkpt>
      <trkpt lat="40.12295" lon="-4.12123">
        <ele>621.6</ele>
        <time>2020-08-16 08:16:22</time>
      </trkpt>
      <trkpt lat="40.12287" lon="-4.12121">
        <ele>621.2</ele>
        <time>2020-08-16 08:16:23</time>
      </trkpt>
      <trkpt lat="40.12279" lon="-4.12118">
        <ele>620.6</ele>
        <time>2020-08-16 08:16:24</time>
      </trkpt>
      <trkpt lat="40.12271" lon="-4.12115">
        <ele>620.4</ele>
        <time>2020-08-16 08:16:25</time>
      </trkpt>
      <trkpt lat="40.12264" lon="-4.12112">
        <ele>620</ele>
        <time>2020-08-16 08:16:26</time>
      </trkpt>
      <trkpt lat="40.12258" lon="-4.12109">
        <ele>619.8</ele>
        <time>2020-08-16 08:16:27</time>
      </trkpt>
      <trkpt lat="40.12251" lon="-4.12106">
        <ele>619.6</ele>
        <time>2020-08-16 08:16:28</time>
      </trkpt>
      <trkpt lat="40.12245" lon="-4.12104">
        <ele>619.6</ele>
        <time>2020-08-16 08:16:29</time>
      </trkpt>
      <trkpt lat="40.12239" lon="-4.12103">
        <ele>619.4</ele>
        <time>2020-08-16 08:16:30</time>
      </trkpt>
      <trkpt lat="40.12233" lon="-4.12101">
        <ele>619.4</ele>
        <time>2020-08-16 08:16:31</time>
      </trkpt>
      <trkpt lat="40.12228" lon="-4.121">
        <ele>619.4</ele>
        <time>2020-08-16 08:16:32</time>
      </trkpt>
      <trkpt lat="40.12222" lon="-4.12099">
        <ele>619.2</ele>
        <time>2020-08-16 08:16:33</time>
      </trkpt>
      <trkpt lat="40.12217" lon="-4.12099">
        <ele>619.4</ele>
        <time>2020-08-16 08:16:34</time>
      </trkpt>
      <trkpt lat="40.12211" lon="-4.12099">
        <ele>619.6</ele>
        <time>2020-08-16 08:16:35</time>
      </trkpt>
      <trkpt lat="40.12206" lon="-4.12099">
        <ele>619.6</ele>
        <time>2020-08-16 08:16:36</time>
      </trkpt>
      <trkpt lat="40.12201" lon="-4.12098">
        <ele>620</ele>
        <time>2020-08-16 08:16:37</time>
      </trkpt>
      <trkpt lat="40.12196" lon="-4.12098">
        <ele>620.2</ele>
        <time>2020-08-16 08:16:38</time>
      </trkpt>
      <trkpt lat="40.12192" lon="-4.12098">
        <ele>620.2</ele>
        <time>2020-08-16 08:16:39</time>
      </trkpt>
      <trkpt lat="40.12187" lon="-4.12097">
        <ele>620.6</ele>
        <time>2020-08-16 08:16:40</time>
      </trkpt>
      <trkpt lat="40.12183" lon="-4.12097">
        <ele>620.6</ele>
        <time>2020-08-16 08:16:41</time>
      </trkpt>
      <trkpt lat="40.12179" lon="-4.12096">
        <ele>621</ele>
        <time>2020-08-16 08:16:42</time>
      </trkpt>
      <trkpt lat="40.12175" lon="-4.12095">
        <ele>621.2</ele>
        <time>2020-08-16 08:16:43</time>
      </trkpt>
      <trkpt lat="40.12171" lon="-4.12095">
        <ele>621.4</ele>
        <time>2020-08-16 08:16:44</time>
      </trkpt>
      <trkpt lat="40.12166" lon="-4.12095">
        <ele>621.6</ele>
        <time>2020-08-16 08:16:45</time>
      </trkpt>
      <trkpt lat="40.12162" lon="-4.12095">
        <ele>621.8</ele>
        <time>2020-08-16 08:16:46</time>
      </trkpt>
      <trkpt lat="40.12157" lon="-4.12095">
        <ele>621.8</ele>
        <time>2020-08-16 08:16:47</time>
      </trkpt>
      <trkpt lat="40.12151" lon="-4.12095">
        <ele>621.8</ele>
        <time>2020-08-16 08:16:48</time>
      </trkpt>
      <trkpt lat="40.12146" lon="-4.12096">
        <ele>621.8</ele>
        <time>2020-08-16 08:16:49</time>
      </trkpt>
      <trkpt lat="40.12141" lon="-4.12097">
        <ele>621.8</ele>
        <time>2020-08-16 08:16:50</time>
      </trkpt>
      <trkpt lat="40.12135" lon="-4.12099">
        <ele>621.8</ele>
        <time>2020-08-16 08:16:51</time>
      </trkpt>
      <trkpt lat="40.1212" lon="-4.12108">
        <ele>621.8</ele>
        <time>2020-08-16 08:16:54</time>
      </trkpt>
      <trkpt lat="40.12115" lon="-4.12111">
        <ele>621.8</ele>
        <time>2020-08-16 08:16:55</time>
      </trkpt>
      <trkpt lat="40.1211" lon="-4.12114">
        <ele>621.8</ele>
        <time>2020-08-16 08:16:56</time>
      </trkpt>
      <trkpt lat="40.12105" lon="-4.12116">
        <ele>621.8</ele>
        <time>2020-08-16 08:16:57</time>
      </trkpt>
      <trkpt lat="40.121" lon="-4.12119">
        <ele>621.6</ele>
        <time>2020-08-16 08:16:58</time>
      </trkpt>
      <trkpt lat="40.12096" lon="-4.12122">
        <ele>621.6</ele>
        <time>2020-08-16 08:16:59</time>
      </trkpt>
      <trkpt lat="40.12091" lon="-4.12125">
        <ele>621.6</ele>
        <time>2020-08-16 08:17:00</time>
      </trkpt>
      <trkpt lat="40.12087" lon="-4.12127">
        <ele>621.6</ele>
        <time>2020-08-16 08:17:01</time>
      </trkpt>
      <trkpt lat="40.12082" lon="-4.1213">
        <ele>621.4</ele>
        <time>2020-08-16 08:17:02</time>
      </trkpt>
      <trkpt lat="40.12077" lon="-4.12133">
        <ele>621.4</ele>
        <time>2020-08-16 08:17:03</time>
      </trkpt>
      <trkpt lat="40.12073" lon="-4.12135">
        <ele>621.4</ele>
        <time>2020-08-16 08:17:04</time>
      </trkpt>
      <trkpt lat="40.12068" lon="-4.12137">
        <ele>621.4</ele>
        <time>2020-08-16 08:17:05</time>
      </trkpt>
      <trkpt lat="40.12064" lon="-4.12139">
        <ele>621.4</ele>
        <time>2020-08-16 08:17:06</time>
      </trkpt>
      <trkpt lat="40.12059" lon="-4.12141">
        <ele>621.4</ele>
        <time>2020-08-16 08:17:07</time>
      </trkpt>
      <trkpt lat="40.12054" lon="-4.12143">
        <ele>621.4</ele>
        <time>2020-08-16 08:17:08</time>
      </trkpt>
      <trkpt lat="40.1205" lon="-4.12145">
        <ele>621.4</ele>
        <time>2020-08-16 08:17:09</time>
      </trkpt>
      <trkpt lat="40.12045" lon="-4.12147">
        <ele>621.4</ele>
        <time>2020-08-16 08:17:10</time>
      </trkpt>
      <trkpt lat="40.12041" lon="-4.12148">
        <ele>621.4</ele>
        <time>2020-08-16 08:17:11</time>
      </trkpt>
      <trkpt lat="40.12036" lon="-4.1215">
        <ele>621.6</ele>
        <time>2020-08-16 08:17:12</time>
      </trkpt>
      <trkpt lat="40.12032" lon="-4.12151">
        <ele>621.6</ele>
        <time>2020-08-16 08:17:13</time>
      </trkpt>
      <trkpt lat="40.12027" lon="-4.12153">
        <ele>621.6</ele>
        <time>2020-08-16 08:17:14</time>
      </trkpt>
      <trkpt lat="40.12024" lon="-4.12155">
        <ele>621.8</ele>
        <time>2020-08-16 08:17:15</time>
      </trkpt>
      <trkpt lat="40.1202" lon="-4.12158">
        <ele>621.8</ele>
        <time>2020-08-16 08:17:16</time>
      </trkpt>
      <trkpt lat="40.12016" lon="-4.12159">
        <ele>621.8</ele>
        <time>2020-08-16 08:17:17</time>
      </trkpt>
      <trkpt lat="40.12012" lon="-4.12161">
        <ele>622</ele>
        <time>2020-08-16 08:17:18</time>
      </trkpt>
      <trkpt lat="40.12008" lon="-4.12163">
        <ele>622.2</ele>
        <time>2020-08-16 08:17:19</time>
      </trkpt>
      <trkpt lat="40.12004" lon="-4.12164">
        <ele>622.2</ele>
        <time>2020-08-16 08:17:20</time>
      </trkpt>
      <trkpt lat="40.12001" lon="-4.12165">
        <ele>622.4</ele>
        <time>2020-08-16 08:17:21</time>
      </trkpt>
      <trkpt lat="40.11997" lon="-4.12165">
        <ele>622.6</ele>
        <time>2020-08-16 08:17:22</time>
      </trkpt>
      <trkpt lat="40.11993" lon="-4.12166">
        <ele>622.8</ele>
        <time>2020-08-16 08:17:23</time>
      </trkpt>
      <trkpt lat="40.1199" lon="-4.12166">
        <ele>623</ele>
        <time>2020-08-16 08:17:24</time>
      </trkpt>
      <trkpt lat="40.11987" lon="-4.12167">
        <ele>623.2</ele>
        <time>2020-08-16 08:17:25</time>
      </trkpt>
      <trkpt lat="40.11984" lon="-4.12167">
        <ele>623.4</ele>
        <time>2020-08-16 08:17:26</time>
      </trkpt>
      <trkpt lat="40.11981" lon="-4.12167">
        <ele>623.4</ele>
        <time>2020-08-16 08:17:27</time>
      </trkpt>
      <trkpt lat="40.11977" lon="-4.12167">
        <ele>623.8</ele>
        <time>2020-08-16 08:17:28</time>
      </trkpt>
      <trkpt lat="40.11974" lon="-4.12168">
        <ele>624</ele>
        <time>2020-08-16 08:17:29</time>
      </trkpt>
      <trkpt lat="40.11969" lon="-4.12169">
        <ele>624.2</ele>
        <time>2020-08-16 08:17:30</time>
      </trkpt>
      <trkpt lat="40.11965" lon="-4.12171">
        <ele>624.2</ele>
        <time>2020-08-16 08:17:31</time>
      </trkpt>
      <trkpt lat="40.1196" lon="-4.12172">
        <ele>624.4</ele>
        <time>2020-08-16 08:17:32</time>
      </trkpt>
      <trkpt lat="40.11956" lon="-4.12174">
        <ele>624.4</ele>
        <time>2020-08-16 08:17:33</time>
      </trkpt>
      <trkpt lat="40.11951" lon="-4.12177">
        <ele>624.4</ele>
        <time>2020-08-16 08:17:34</time>
      </trkpt>
      <trkpt lat="40.11946" lon="-4.12179">
        <ele>624.4</ele>
        <time>2020-08-16 08:17:35</time>
      </trkpt>
      <trkpt lat="40.11934" lon="-4.12184">
        <ele>624.4</ele>
        <time>2020-08-16 08:17:37</time>
      </trkpt>
      <trkpt lat="40.11916" lon="-4.12189">
        <ele>623.6</ele>
        <time>2020-08-16 08:17:40</time>
      </trkpt>
      <trkpt lat="40.11896" lon="-4.12192">
        <ele>622.8</ele>
        <time>2020-08-16 08:17:43</time>
      </trkpt>
      <trkpt lat="40.11889" lon="-4.12193">
        <ele>622.6</ele>
        <time>2020-08-16 08:17:44</time>
      </trkpt>
      <trkpt lat="40.11869" lon="-4.12197">
        <ele>621.8</ele>
        <time>2020-08-16 08:17:47</time>
      </trkpt>
      <trkpt lat="40.11855" lon="-4.12199">
        <ele>621.6</ele>
        <time>2020-08-16 08:17:49</time>
      </trkpt>
      <trkpt lat="40.1183" lon="-4.12199">
        <ele>620.6</ele>
        <time>2020-08-16 08:17:53</time>
      </trkpt>
      <trkpt lat="40.11823" lon="-4.12199">
        <ele>620.6</ele>
        <time>2020-08-16 08:17:54</time>
      </trkpt>
      <trkpt lat="40.11816" lon="-4.122">
        <ele>620.4</ele>
        <time>2020-08-16 08:17:55</time>
      </trkpt>
      <trkpt lat="40.11809" lon="-4.12202">
        <ele>620.2</ele>
        <time>2020-08-16 08:17:56</time>
      </trkpt>
      <trkpt lat="40.11802" lon="-4.12203">
        <ele>620</ele>
        <time>2020-08-16 08:17:57</time>
      </trkpt>
      <trkpt lat="40.11795" lon="-4.12205">
        <ele>619.8</ele>
        <time>2020-08-16 08:17:58</time>
      </trkpt>
      <trkpt lat="40.11788" lon="-4.12207">
        <ele>619.8</ele>
        <time>2020-08-16 08:17:59</time>
      </trkpt>
      <trkpt lat="40.11767" lon="-4.12211">
        <ele>619.2</ele>
        <time>2020-08-16 08:18:02</time>
      </trkpt>
      <trkpt lat="40.11746" lon="-4.12212">
        <ele>618.2</ele>
        <time>2020-08-16 08:18:05</time>
      </trkpt>
      <trkpt lat="40.11733" lon="-4.1221">
        <ele>617.6</ele>
        <time>2020-08-16 08:18:07</time>
      </trkpt>
      <trkpt lat="40.11721" lon="-4.12206">
        <ele>617.6</ele>
        <time>2020-08-16 08:18:09</time>
      </trkpt>
      <trkpt lat="40.11716" lon="-4.12204">
        <ele>617.4</ele>
        <time>2020-08-16 08:18:10</time>
      </trkpt>
      <trkpt lat="40.1171" lon="-4.12202">
        <ele>617.4</ele>
        <time>2020-08-16 08:18:11</time>
      </trkpt>
      <trkpt lat="40.11704" lon="-4.12199">
        <ele>617.4</ele>
        <time>2020-08-16 08:18:12</time>
      </trkpt>
      <trkpt lat="40.11699" lon="-4.12196">
        <ele>617.4</ele>
        <time>2020-08-16 08:18:13</time>
      </trkpt>
      <trkpt lat="40.11693" lon="-4.12193">
        <ele>617.4</ele>
        <time>2020-08-16 08:18:14</time>
      </trkpt>
      <trkpt lat="40.11688" lon="-4.1219">
        <ele>617.4</ele>
        <time>2020-08-16 08:18:15</time>
      </trkpt>
      <trkpt lat="40.11683" lon="-4.12188">
        <ele>617.4</ele>
        <time>2020-08-16 08:18:16</time>
      </trkpt>
      <trkpt lat="40.11678" lon="-4.12186">
        <ele>617.4</ele>
        <time>2020-08-16 08:18:17</time>
      </trkpt>
      <trkpt lat="40.11672" lon="-4.12183">
        <ele>617.4</ele>
        <time>2020-08-16 08:18:18</time>
      </trkpt>
      <trkpt lat="40.11667" lon="-4.1218">
        <ele>617.4</ele>
        <time>2020-08-16 08:18:19</time>
      </trkpt>
      <trkpt lat="40.11663" lon="-4.12177">
        <ele>617.4</ele>
        <time>2020-08-16 08:18:20</time>
      </trkpt>
      <trkpt lat="40.11658" lon="-4.12174">
        <ele>617.4</ele>
        <time>2020-08-16 08:18:21</time>
      </trkpt>
      <trkpt lat="40.11654" lon="-4.12172">
        <ele>617.4</ele>
        <time>2020-08-16 08:18:22</time>
      </trkpt>
      <trkpt lat="40.11649" lon="-4.12169">
        <ele>617.4</ele>
        <time>2020-08-16 08:18:23</time>
      </trkpt>
      <trkpt lat="40.11645" lon="-4.12167">
        <ele>617.6</ele>
        <time>2020-08-16 08:18:24</time>
      </trkpt>
      <trkpt lat="40.11641" lon="-4.12164">
        <ele>617.6</ele>
        <time>2020-08-16 08:18:25</time>
      </trkpt>
      <trkpt lat="40.11636" lon="-4.12162">
        <ele>617.6</ele>
        <time>2020-08-16 08:18:26</time>
      </trkpt>
      <trkpt lat="40.11632" lon="-4.12159">
        <ele>617.8</ele>
        <time>2020-08-16 08:18:27</time>
      </trkpt>
      <trkpt lat="40.11627" lon="-4.12156">
        <ele>617.8</ele>
        <time>2020-08-16 08:18:28</time>
      </trkpt>
      <trkpt lat="40.11623" lon="-4.12154">
        <ele>618</ele>
        <time>2020-08-16 08:18:29</time>
      </trkpt>
      <trkpt lat="40.11619" lon="-4.12152">
        <ele>618</ele>
        <time>2020-08-16 08:18:30</time>
      </trkpt>
      <trkpt lat="40.11614" lon="-4.12149">
        <ele>618</ele>
        <time>2020-08-16 08:18:31</time>
      </trkpt>
      <trkpt lat="40.1161" lon="-4.12147">
        <ele>618.2</ele>
        <time>2020-08-16 08:18:32</time>
      </trkpt>
      <trkpt lat="40.11606" lon="-4.12145">
        <ele>618.4</ele>
        <time>2020-08-16 08:18:33</time>
      </trkpt>
      <trkpt lat="40.11602" lon="-4.12143">
        <ele>618.4</ele>
        <time>2020-08-16 08:18:34</time>
      </trkpt>
      <trkpt lat="40.11598" lon="-4.12141">
        <ele>618.4</ele>
        <time>2020-08-16 08:18:35</time>
      </trkpt>
      <trkpt lat="40.11593" lon="-4.12139">
        <ele>618.6</ele>
        <time>2020-08-16 08:18:36</time>
      </trkpt>
      <trkpt lat="40.11589" lon="-4.12137">
        <ele>618.6</ele>
        <time>2020-08-16 08:18:37</time>
      </trkpt>
      <trkpt lat="40.11585" lon="-4.12135">
        <ele>618.6</ele>
        <time>2020-08-16 08:18:38</time>
      </trkpt>
      <trkpt lat="40.1158" lon="-4.12134">
        <ele>618.8</ele>
        <time>2020-08-16 08:18:39</time>
      </trkpt>
      <trkpt lat="40.11575" lon="-4.12133">
        <ele>618.8</ele>
        <time>2020-08-16 08:18:40</time>
      </trkpt>
      <trkpt lat="40.11571" lon="-4.12132">
        <ele>618.8</ele>
        <time>2020-08-16 08:18:41</time>
      </trkpt>
      <trkpt lat="40.11567" lon="-4.12132">
        <ele>619</ele>
        <time>2020-08-16 08:18:42</time>
      </trkpt>
      <trkpt lat="40.11556" lon="-4.12132">
        <ele>619</ele>
        <time>2020-08-16 08:18:44</time>
      </trkpt>
      <trkpt lat="40.11522" lon="-4.12135">
        <ele>618.6</ele>
        <time>2020-08-16 08:18:49</time>
      </trkpt>
      <trkpt lat="40.11493" lon="-4.12143">
        <ele>617.6</ele>
        <time>2020-08-16 08:18:53</time>
      </trkpt>
      <trkpt lat="40.11486" lon="-4.12146">
        <ele>617.4</ele>
        <time>2020-08-16 08:18:54</time>
      </trkpt>
      <trkpt lat="40.11479" lon="-4.12149">
        <ele>616.8</ele>
        <time>2020-08-16 08:18:55</time>
      </trkpt>
      <trkpt lat="40.11473" lon="-4.12152">
        <ele>616.4</ele>
        <time>2020-08-16 08:18:56</time>
      </trkpt>
      <trkpt lat="40.11467" lon="-4.12154">
        <ele>616.4</ele>
        <time>2020-08-16 08:18:57</time>
      </trkpt>
      <trkpt lat="40.11461" lon="-4.12158">
        <ele>616.4</ele>
        <time>2020-08-16 08:18:58</time>
      </trkpt>
      <trkpt lat="40.11456" lon="-4.12161">
        <ele>616.2</ele>
        <time>2020-08-16 08:18:59</time>
      </trkpt>
      <trkpt lat="40.11451" lon="-4.12164">
        <ele>616</ele>
        <time>2020-08-16 08:19:00</time>
      </trkpt>
      <trkpt lat="40.11446" lon="-4.12167">
        <ele>616</ele>
        <time>2020-08-16 08:19:01</time>
      </trkpt>
      <trkpt lat="40.11442" lon="-4.12171">
        <ele>616</ele>
        <time>2020-08-16 08:19:02</time>
      </trkpt>
      <trkpt lat="40.11433" lon="-4.12178">
        <ele>616.2</ele>
        <time>2020-08-16 08:19:04</time>
      </trkpt>
      <trkpt lat="40.11429" lon="-4.12182">
        <ele>616.4</ele>
        <time>2020-08-16 08:19:05</time>
      </trkpt>
      <trkpt lat="40.11425" lon="-4.12185">
        <ele>616.4</ele>
        <time>2020-08-16 08:19:06</time>
      </trkpt>
      <trkpt lat="40.11421" lon="-4.12189">
        <ele>616.4</ele>
        <time>2020-08-16 08:19:07</time>
      </trkpt>
      <trkpt lat="40.11418" lon="-4.12192">
        <ele>616.6</ele>
        <time>2020-08-16 08:19:08</time>
      </trkpt>
      <trkpt lat="40.11414" lon="-4.12195">
        <ele>616.8</ele>
        <time>2020-08-16 08:19:09</time>
      </trkpt>
      <trkpt lat="40.1141" lon="-4.12198">
        <ele>616.8</ele>
        <time>2020-08-16 08:19:10</time>
      </trkpt>
      <trkpt lat="40.11403" lon="-4.12204">
        <ele>617.4</ele>
        <time>2020-08-16 08:19:12</time>
      </trkpt>
      <trkpt lat="40.114" lon="-4.12208">
        <ele>617.4</ele>
        <time>2020-08-16 08:19:13</time>
      </trkpt>
      <trkpt lat="40.11397" lon="-4.12211">
        <ele>617.6</ele>
        <time>2020-08-16 08:19:14</time>
      </trkpt>
      <trkpt lat="40.11394" lon="-4.12214">
        <ele>617.8</ele>
        <time>2020-08-16 08:19:15</time>
      </trkpt>
      <trkpt lat="40.11391" lon="-4.12217">
        <ele>618</ele>
        <time>2020-08-16 08:19:16</time>
      </trkpt>
      <trkpt lat="40.11387" lon="-4.12222">
        <ele>618</ele>
        <time>2020-08-16 08:19:17</time>
      </trkpt>
      <trkpt lat="40.11383" lon="-4.12226">
        <ele>618.2</ele>
        <time>2020-08-16 08:19:18</time>
      </trkpt>
      <trkpt lat="40.11379" lon="-4.12231">
        <ele>618.2</ele>
        <time>2020-08-16 08:19:19</time>
      </trkpt>
      <trkpt lat="40.11375" lon="-4.12236">
        <ele>618.2</ele>
        <time>2020-08-16 08:19:20</time>
      </trkpt>
      <trkpt lat="40.11371" lon="-4.12242">
        <ele>618.2</ele>
        <time>2020-08-16 08:19:21</time>
      </trkpt>
      <trkpt lat="40.11358" lon="-4.12257">
        <ele>618.2</ele>
        <time>2020-08-16 08:19:24</time>
      </trkpt>
      <trkpt lat="40.11354" lon="-4.12263">
        <ele>618.2</ele>
        <time>2020-08-16 08:19:25</time>
      </trkpt>
      <trkpt lat="40.1135" lon="-4.12268">
        <ele>618</ele>
        <time>2020-08-16 08:19:26</time>
      </trkpt>
      <trkpt lat="40.11346" lon="-4.12273">
        <ele>618</ele>
        <time>2020-08-16 08:19:27</time>
      </trkpt>
      <trkpt lat="40.11342" lon="-4.12278">
        <ele>618</ele>
        <time>2020-08-16 08:19:28</time>
      </trkpt>
      <trkpt lat="40.11339" lon="-4.12283">
        <ele>617.8</ele>
        <time>2020-08-16 08:19:29</time>
      </trkpt>
      <trkpt lat="40.11336" lon="-4.12288">
        <ele>617.8</ele>
        <time>2020-08-16 08:19:30</time>
      </trkpt>
      <trkpt lat="40.11332" lon="-4.12293">
        <ele>617.8</ele>
        <time>2020-08-16 08:19:31</time>
      </trkpt>
      <trkpt lat="40.11328" lon="-4.12299">
        <ele>617.8</ele>
        <time>2020-08-16 08:19:32</time>
      </trkpt>
      <trkpt lat="40.11324" lon="-4.12305">
        <ele>617.8</ele>
        <time>2020-08-16 08:19:33</time>
      </trkpt>
      <trkpt lat="40.11321" lon="-4.1231">
        <ele>617.8</ele>
        <time>2020-08-16 08:19:34</time>
      </trkpt>
      <trkpt lat="40.11317" lon="-4.12316">
        <ele>617.8</ele>
        <time>2020-08-16 08:19:35</time>
      </trkpt>
      <trkpt lat="40.11306" lon="-4.12334">
        <ele>617.8</ele>
        <time>2020-08-16 08:19:38</time>
      </trkpt>
      <trkpt lat="40.11295" lon="-4.12352">
        <ele>617.6</ele>
        <time>2020-08-16 08:19:41</time>
      </trkpt>
      <trkpt lat="40.11283" lon="-4.12368">
        <ele>617</ele>
        <time>2020-08-16 08:19:44</time>
      </trkpt>
      <trkpt lat="40.11274" lon="-4.12379">
        <ele>616.6</ele>
        <time>2020-08-16 08:19:46</time>
      </trkpt>
      <trkpt lat="40.1127" lon="-4.12384">
        <ele>616.4</ele>
        <time>2020-08-16 08:19:47</time>
      </trkpt>
      <trkpt lat="40.11266" lon="-4.1239">
        <ele>616</ele>
        <time>2020-08-16 08:19:48</time>
      </trkpt>
      <trkpt lat="40.11248" lon="-4.12408">
        <ele>615.2</ele>
        <time>2020-08-16 08:19:52</time>
      </trkpt>
      <trkpt lat="40.11244" lon="-4.12411">
        <ele>615.2</ele>
        <time>2020-08-16 08:19:53</time>
      </trkpt>
      <trkpt lat="40.11239" lon="-4.12415">
        <ele>615.2</ele>
        <time>2020-08-16 08:19:54</time>
      </trkpt>
      <trkpt lat="40.11235" lon="-4.12418">
        <ele>615</ele>
        <time>2020-08-16 08:19:55</time>
      </trkpt>
      <trkpt lat="40.1123" lon="-4.12421">
        <ele>615</ele>
        <time>2020-08-16 08:19:56</time>
      </trkpt>
      <trkpt lat="40.11222" lon="-4.12427">
        <ele>615</ele>
        <time>2020-08-16 08:19:58</time>
      </trkpt>
      <trkpt lat="40.11217" lon="-4.1243">
        <ele>615</ele>
        <time>2020-08-16 08:19:59</time>
      </trkpt>
      <trkpt lat="40.11213" lon="-4.12432">
        <ele>615</ele>
        <time>2020-08-16 08:20:00</time>
      </trkpt>
      <trkpt lat="40.11208" lon="-4.12435">
        <ele>615</ele>
        <time>2020-08-16 08:20:01</time>
      </trkpt>
      <trkpt lat="40.11205" lon="-4.12438">
        <ele>615</ele>
        <time>2020-08-16 08:20:02</time>
      </trkpt>
      <trkpt lat="40.11201" lon="-4.12441">
        <ele>615</ele>
        <time>2020-08-16 08:20:03</time>
      </trkpt>
      <trkpt lat="40.11197" lon="-4.12444">
        <ele>615</ele>
        <time>2020-08-16 08:20:04</time>
      </trkpt>
      <trkpt lat="40.11193" lon="-4.12446">
        <ele>615</ele>
        <time>2020-08-16 08:20:05</time>
      </trkpt>
      <trkpt lat="40.11189" lon="-4.12448">
        <ele>615</ele>
        <time>2020-08-16 08:20:06</time>
      </trkpt>
      <trkpt lat="40.11186" lon="-4.1245">
        <ele>615.2</ele>
        <time>2020-08-16 08:20:07</time>
      </trkpt>
      <trkpt lat="40.11182" lon="-4.12452">
        <ele>615.2</ele>
        <time>2020-08-16 08:20:08</time>
      </trkpt>
      <trkpt lat="40.11178" lon="-4.12453">
        <ele>615.8</ele>
        <time>2020-08-16 08:20:09</time>
      </trkpt>
      <trkpt lat="40.11175" lon="-4.12455">
        <ele>615.8</ele>
        <time>2020-08-16 08:20:10</time>
      </trkpt>
      <trkpt lat="40.11172" lon="-4.12456">
        <ele>616</ele>
        <time>2020-08-16 08:20:11</time>
      </trkpt>
      <trkpt lat="40.11168" lon="-4.12457">
        <ele>616</ele>
        <time>2020-08-16 08:20:12</time>
      </trkpt>
      <trkpt lat="40.11165" lon="-4.12458">
        <ele>616</ele>
        <time>2020-08-16 08:20:13</time>
      </trkpt>
      <trkpt lat="40.11162" lon="-4.1246">
        <ele>616</ele>
        <time>2020-08-16 08:20:14</time>
      </trkpt>
      <trkpt lat="40.11158" lon="-4.12461">
        <ele>616.2</ele>
        <time>2020-08-16 08:20:15</time>
      </trkpt>
      <trkpt lat="40.11155" lon="-4.12463">
        <ele>616.6</ele>
        <time>2020-08-16 08:20:16</time>
      </trkpt>
      <trkpt lat="40.11152" lon="-4.12465">
        <ele>616.6</ele>
        <time>2020-08-16 08:20:17</time>
      </trkpt>
      <trkpt lat="40.11149" lon="-4.12467">
        <ele>616.6</ele>
        <time>2020-08-16 08:20:18</time>
      </trkpt>
      <trkpt lat="40.11146" lon="-4.12469">
        <ele>616.8</ele>
        <time>2020-08-16 08:20:19</time>
      </trkpt>
      <trkpt lat="40.11142" lon="-4.12471">
        <ele>616.8</ele>
        <time>2020-08-16 08:20:20</time>
      </trkpt>
      <trkpt lat="40.11139" lon="-4.12474">
        <ele>617.2</ele>
        <time>2020-08-16 08:20:21</time>
      </trkpt>
      <trkpt lat="40.11135" lon="-4.12476">
        <ele>617.2</ele>
        <time>2020-08-16 08:20:22</time>
      </trkpt>
      <trkpt lat="40.11131" lon="-4.12478">
        <ele>617.2</ele>
        <time>2020-08-16 08:20:23</time>
      </trkpt>
      <trkpt lat="40.11123" lon="-4.12482">
        <ele>617.2</ele>
        <time>2020-08-16 08:20:25</time>
      </trkpt>
      <trkpt lat="40.11119" lon="-4.12484">
        <ele>617.2</ele>
        <time>2020-08-16 08:20:26</time>
      </trkpt>
      <trkpt lat="40.11109" lon="-4.12487">
        <ele>617.2</ele>
        <time>2020-08-16 08:20:28</time>
      </trkpt>
      <trkpt lat="40.11095" lon="-4.12492">
        <ele>617.2</ele>
        <time>2020-08-16 08:20:31</time>
      </trkpt>
      <trkpt lat="40.11055" lon="-4.12503">
        <ele>616.2</ele>
        <time>2020-08-16 08:20:39</time>
      </trkpt>
      <trkpt lat="40.11045" lon="-4.12505">
        <ele>616.2</ele>
        <time>2020-08-16 08:20:41</time>
      </trkpt>
      <trkpt lat="40.11028" lon="-4.12509">
        <ele>616</ele>
        <time>2020-08-16 08:20:44</time>
      </trkpt>
      <trkpt lat="40.10991" lon="-4.12525">
        <ele>615.2</ele>
        <time>2020-08-16 08:20:51</time>
      </trkpt>
      <trkpt lat="40.10969" lon="-4.12534">
        <ele>615</ele>
        <time>2020-08-16 08:20:55</time>
      </trkpt>
      <trkpt lat="40.10964" lon="-4.12536">
        <ele>615</ele>
        <time>2020-08-16 08:20:56</time>
      </trkpt>
      <trkpt lat="40.10959" lon="-4.12538">
        <ele>614.8</ele>
        <time>2020-08-16 08:20:57</time>
      </trkpt>
      <trkpt lat="40.10954" lon="-4.12541">
        <ele>614.6</ele>
        <time>2020-08-16 08:20:58</time>
      </trkpt>
      <trkpt lat="40.10949" lon="-4.12542">
        <ele>614.6</ele>
        <time>2020-08-16 08:20:59</time>
      </trkpt>
      <trkpt lat="40.10945" lon="-4.12544">
        <ele>614.4</ele>
        <time>2020-08-16 08:21:00</time>
      </trkpt>
      <trkpt lat="40.1094" lon="-4.12546">
        <ele>614.4</ele>
        <time>2020-08-16 08:21:01</time>
      </trkpt>
      <trkpt lat="40.10936" lon="-4.12548">
        <ele>614.2</ele>
        <time>2020-08-16 08:21:02</time>
      </trkpt>
      <trkpt lat="40.10932" lon="-4.12549">
        <ele>614.2</ele>
        <time>2020-08-16 08:21:03</time>
      </trkpt>
      <trkpt lat="40.1092" lon="-4.12555">
        <ele>614.2</ele>
        <time>2020-08-16 08:21:06</time>
      </trkpt>
      <trkpt lat="40.10916" lon="-4.12556">
        <ele>614.4</ele>
        <time>2020-08-16 08:21:07</time>
      </trkpt>
      <trkpt lat="40.10912" lon="-4.12558">
        <ele>614.4</ele>
        <time>2020-08-16 08:21:08</time>
      </trkpt>
      <trkpt lat="40.10908" lon="-4.1256">
        <ele>614.4</ele>
        <time>2020-08-16 08:21:09</time>
      </trkpt>
      <trkpt lat="40.10904" lon="-4.12561">
        <ele>614.4</ele>
        <time>2020-08-16 08:21:10</time>
      </trkpt>
      <trkpt lat="40.109" lon="-4.12562">
        <ele>614.6</ele>
        <time>2020-08-16 08:21:11</time>
      </trkpt>
      <trkpt lat="40.10896" lon="-4.12563">
        <ele>614.8</ele>
        <time>2020-08-16 08:21:12</time>
      </trkpt>
      <trkpt lat="40.10892" lon="-4.12564">
        <ele>614.8</ele>
        <time>2020-08-16 08:21:13</time>
      </trkpt>
      <trkpt lat="40.10888" lon="-4.12565">
        <ele>615</ele>
        <time>2020-08-16 08:21:14</time>
      </trkpt>
      <trkpt lat="40.10884" lon="-4.12566">
        <ele>615</ele>
        <time>2020-08-16 08:21:15</time>
      </trkpt>
      <trkpt lat="40.1088" lon="-4.12566">
        <ele>615.2</ele>
        <time>2020-08-16 08:21:16</time>
      </trkpt>
      <trkpt lat="40.10876" lon="-4.12567">
        <ele>615.2</ele>
        <time>2020-08-16 08:21:17</time>
      </trkpt>
      <trkpt lat="40.10872" lon="-4.12567">
        <ele>615.2</ele>
        <time>2020-08-16 08:21:18</time>
      </trkpt>
      <trkpt lat="40.10868" lon="-4.12568">
        <ele>615.4</ele>
        <time>2020-08-16 08:21:19</time>
      </trkpt>
      <trkpt lat="40.10864" lon="-4.12568">
        <ele>615.4</ele>
        <time>2020-08-16 08:21:20</time>
      </trkpt>
      <trkpt lat="40.1086" lon="-4.12569">
        <ele>615.4</ele>
        <time>2020-08-16 08:21:21</time>
      </trkpt>
      <trkpt lat="40.10835" lon="-4.12574">
        <ele>615.6</ele>
        <time>2020-08-16 08:21:27</time>
      </trkpt>
      <trkpt lat="40.10794" lon="-4.12578">
        <ele>615.6</ele>
        <time>2020-08-16 08:21:36</time>
      </trkpt>
      <trkpt lat="40.10756" lon="-4.12583">
        <ele>615</ele>
        <time>2020-08-16 08:21:44</time>
      </trkpt>
      <trkpt lat="40.10727" lon="-4.12588">
        <ele>614.6</ele>
        <time>2020-08-16 08:21:50</time>
      </trkpt>
      <trkpt lat="40.10723" lon="-4.12589">
        <ele>614.4</ele>
        <time>2020-08-16 08:21:51</time>
      </trkpt>
      <trkpt lat="40.10708" lon="-4.12592">
        <ele>614.4</ele>
        <time>2020-08-16 08:21:54</time>
      </trkpt>
      <trkpt lat="40.10694" lon="-4.12595">
        <ele>614</ele>
        <time>2020-08-16 08:21:57</time>
      </trkpt>
      <trkpt lat="40.10684" lon="-4.12598">
        <ele>613.8</ele>
        <time>2020-08-16 08:21:59</time>
      </trkpt>
      <trkpt lat="40.10679" lon="-4.12599">
        <ele>613.6</ele>
        <time>2020-08-16 08:22:00</time>
      </trkpt>
      <trkpt lat="40.10658" lon="-4.12603">
        <ele>613</ele>
        <time>2020-08-16 08:22:04</time>
      </trkpt>
      <trkpt lat="40.10653" lon="-4.12604">
        <ele>612.8</ele>
        <time>2020-08-16 08:22:05</time>
      </trkpt>
      <trkpt lat="40.10647" lon="-4.12605">
        <ele>612.8</ele>
        <time>2020-08-16 08:22:06</time>
      </trkpt>
      <trkpt lat="40.1062" lon="-4.1261">
        <ele>612.4</ele>
        <time>2020-08-16 08:22:11</time>
      </trkpt>
      <trkpt lat="40.10592" lon="-4.12615">
        <ele>611.8</ele>
        <time>2020-08-16 08:22:16</time>
      </trkpt>
      <trkpt lat="40.1056" lon="-4.12618">
        <ele>611</ele>
        <time>2020-08-16 08:22:22</time>
      </trkpt>
      <trkpt lat="40.10554" lon="-4.12618">
        <ele>610.8</ele>
        <time>2020-08-16 08:22:23</time>
      </trkpt>
      <trkpt lat="40.10549" lon="-4.12619">
        <ele>610.8</ele>
        <time>2020-08-16 08:22:24</time>
      </trkpt>
      <trkpt lat="40.10544" lon="-4.12619">
        <ele>610.6</ele>
        <time>2020-08-16 08:22:25</time>
      </trkpt>
      <trkpt lat="40.10539" lon="-4.1262">
        <ele>610.6</ele>
        <time>2020-08-16 08:22:26</time>
      </trkpt>
      <trkpt lat="40.10534" lon="-4.1262">
        <ele>610.6</ele>
        <time>2020-08-16 08:22:27</time>
      </trkpt>
      <trkpt lat="40.10529" lon="-4.1262">
        <ele>610.6</ele>
        <time>2020-08-16 08:22:28</time>
      </trkpt>
      <trkpt lat="40.10524" lon="-4.12621">
        <ele>610.6</ele>
        <time>2020-08-16 08:22:29</time>
      </trkpt>
      <trkpt lat="40.10519" lon="-4.12621">
        <ele>610.6</ele>
        <time>2020-08-16 08:22:30</time>
      </trkpt>
      <trkpt lat="40.10514" lon="-4.12622">
        <ele>610.6</ele>
        <time>2020-08-16 08:22:31</time>
      </trkpt>
      <trkpt lat="40.10509" lon="-4.12622">
        <ele>610.4</ele>
        <time>2020-08-16 08:22:32</time>
      </trkpt>
      <trkpt lat="40.10504" lon="-4.12623">
        <ele>610.2</ele>
        <time>2020-08-16 08:22:33</time>
      </trkpt>
      <trkpt lat="40.10499" lon="-4.12623">
        <ele>610</ele>
        <time>2020-08-16 08:22:34</time>
      </trkpt>
      <trkpt lat="40.10493" lon="-4.12624">
        <ele>610</ele>
        <time>2020-08-16 08:22:35</time>
      </trkpt>
      <trkpt lat="40.10488" lon="-4.12624">
        <ele>609.8</ele>
        <time>2020-08-16 08:22:36</time>
      </trkpt>
      <trkpt lat="40.10482" lon="-4.12625">
        <ele>609.8</ele>
        <time>2020-08-16 08:22:37</time>
      </trkpt>
      <trkpt lat="40.10445" lon="-4.12629">
        <ele>608.6</ele>
        <time>2020-08-16 08:22:44</time>
      </trkpt>
      <trkpt lat="40.10429" lon="-4.12629">
        <ele>608.4</ele>
        <time>2020-08-16 08:22:47</time>
      </trkpt>
      <trkpt lat="40.10424" lon="-4.12629">
        <ele>608.2</ele>
        <time>2020-08-16 08:22:48</time>
      </trkpt>
      <trkpt lat="40.10419" lon="-4.12629">
        <ele>608.2</ele>
        <time>2020-08-16 08:22:49</time>
      </trkpt>
      <trkpt lat="40.10414" lon="-4.12629">
        <ele>608</ele>
        <time>2020-08-16 08:22:50</time>
      </trkpt>
      <trkpt lat="40.10409" lon="-4.12629">
        <ele>608</ele>
        <time>2020-08-16 08:22:51</time>
      </trkpt>
      <trkpt lat="40.10404" lon="-4.12629">
        <ele>608</ele>
        <time>2020-08-16 08:22:52</time>
      </trkpt>
      <trkpt lat="40.10399" lon="-4.12629">
        <ele>608</ele>
        <time>2020-08-16 08:22:53</time>
      </trkpt>
      <trkpt lat="40.10394" lon="-4.12629">
        <ele>608</ele>
        <time>2020-08-16 08:22:54</time>
      </trkpt>
      <trkpt lat="40.10389" lon="-4.1263">
        <ele>608</ele>
        <time>2020-08-16 08:22:55</time>
      </trkpt>
      <trkpt lat="40.10384" lon="-4.1263">
        <ele>608</ele>
        <time>2020-08-16 08:22:56</time>
      </trkpt>
      <trkpt lat="40.10379" lon="-4.1263">
        <ele>608</ele>
        <time>2020-08-16 08:22:57</time>
      </trkpt>
      <trkpt lat="40.10373" lon="-4.1263">
        <ele>608</ele>
        <time>2020-08-16 08:22:58</time>
      </trkpt>
      <trkpt lat="40.10368" lon="-4.1263">
        <ele>608</ele>
        <time>2020-08-16 08:22:59</time>
      </trkpt>
      <trkpt lat="40.1034" lon="-4.12629">
        <ele>607.6</ele>
        <time>2020-08-16 08:23:04</time>
      </trkpt>
      <trkpt lat="40.10334" lon="-4.12628">
        <ele>607.4</ele>
        <time>2020-08-16 08:23:05</time>
      </trkpt>
      <trkpt lat="40.10305" lon="-4.12619">
        <ele>606.6</ele>
        <time>2020-08-16 08:23:10</time>
      </trkpt>
      <trkpt lat="40.10299" lon="-4.12617">
        <ele>606.4</ele>
        <time>2020-08-16 08:23:11</time>
      </trkpt>
      <trkpt lat="40.10283" lon="-4.12609">
        <ele>606.2</ele>
        <time>2020-08-16 08:23:14</time>
      </trkpt>
      <trkpt lat="40.10277" lon="-4.12607">
        <ele>606</ele>
        <time>2020-08-16 08:23:15</time>
      </trkpt>
      <trkpt lat="40.10272" lon="-4.12605">
        <ele>606</ele>
        <time>2020-08-16 08:23:16</time>
      </trkpt>
      <trkpt lat="40.10267" lon="-4.12602">
        <ele>605.8</ele>
        <time>2020-08-16 08:23:17</time>
      </trkpt>
      <trkpt lat="40.10262" lon="-4.126">
        <ele>605.6</ele>
        <time>2020-08-16 08:23:18</time>
      </trkpt>
      <trkpt lat="40.10257" lon="-4.12598">
        <ele>605.6</ele>
        <time>2020-08-16 08:23:19</time>
      </trkpt>
      <trkpt lat="40.10252" lon="-4.12596">
        <ele>605.4</ele>
        <time>2020-08-16 08:23:20</time>
      </trkpt>
      <trkpt lat="40.10247" lon="-4.12594">
        <ele>605.2</ele>
        <time>2020-08-16 08:23:21</time>
      </trkpt>
      <trkpt lat="40.10242" lon="-4.12592">
        <ele>605.2</ele>
        <time>2020-08-16 08:23:22</time>
      </trkpt>
      <trkpt lat="40.10238" lon="-4.1259">
        <ele>605</ele>
        <time>2020-08-16 08:23:23</time>
      </trkpt>
      <trkpt lat="40.10233" lon="-4.12588">
        <ele>605</ele>
        <time>2020-08-16 08:23:24</time>
      </trkpt>
      <trkpt lat="40.10228" lon="-4.12587">
        <ele>605</ele>
        <time>2020-08-16 08:23:25</time>
      </trkpt>
      <trkpt lat="40.10224" lon="-4.12585">
        <ele>604.8</ele>
        <time>2020-08-16 08:23:26</time>
      </trkpt>
      <trkpt lat="40.10219" lon="-4.12583">
        <ele>604.8</ele>
        <time>2020-08-16 08:23:27</time>
      </trkpt>
      <trkpt lat="40.10215" lon="-4.12582">
        <ele>604.8</ele>
        <time>2020-08-16 08:23:28</time>
      </trkpt>
      <trkpt lat="40.1021" lon="-4.1258">
        <ele>604.8</ele>
        <time>2020-08-16 08:23:29</time>
      </trkpt>
      <trkpt lat="40.10206" lon="-4.12578">
        <ele>604.8</ele>
        <time>2020-08-16 08:23:30</time>
      </trkpt>
      <trkpt lat="40.10201" lon="-4.12576">
        <ele>604.8</ele>
        <time>2020-08-16 08:23:31</time>
      </trkpt>
      <trkpt lat="40.10196" lon="-4.12575">
        <ele>604.8</ele>
        <time>2020-08-16 08:23:32</time>
      </trkpt>
      <trkpt lat="40.10192" lon="-4.12573">
        <ele>604.8</ele>
        <time>2020-08-16 08:23:33</time>
      </trkpt>
      <trkpt lat="40.10187" lon="-4.12571">
        <ele>604.8</ele>
        <time>2020-08-16 08:23:34</time>
      </trkpt>
      <trkpt lat="40.10182" lon="-4.1257">
        <ele>604.8</ele>
        <time>2020-08-16 08:23:35</time>
      </trkpt>
      <trkpt lat="40.10156" lon="-4.1256">
        <ele>605</ele>
        <time>2020-08-16 08:23:41</time>
      </trkpt>
      <trkpt lat="40.10152" lon="-4.12559">
        <ele>605</ele>
        <time>2020-08-16 08:23:42</time>
      </trkpt>
      <trkpt lat="40.10147" lon="-4.12557">
        <ele>604.8</ele>
        <time>2020-08-16 08:23:43</time>
      </trkpt>
      <trkpt lat="40.10143" lon="-4.12555">
        <ele>604.8</ele>
        <time>2020-08-16 08:23:44</time>
      </trkpt>
      <trkpt lat="40.10138" lon="-4.12554">
        <ele>605</ele>
        <time>2020-08-16 08:23:45</time>
      </trkpt>
      <trkpt lat="40.10134" lon="-4.12552">
        <ele>605</ele>
        <time>2020-08-16 08:23:46</time>
      </trkpt>
      <trkpt lat="40.1013" lon="-4.1255">
        <ele>605</ele>
        <time>2020-08-16 08:23:47</time>
      </trkpt>
      <trkpt lat="40.10126" lon="-4.12548">
        <ele>605</ele>
        <time>2020-08-16 08:23:48</time>
      </trkpt>
      <trkpt lat="40.10122" lon="-4.12546">
        <ele>605</ele>
        <time>2020-08-16 08:23:49</time>
      </trkpt>
      <trkpt lat="40.10118" lon="-4.12544">
        <ele>605.2</ele>
        <time>2020-08-16 08:23:50</time>
      </trkpt>
      <trkpt lat="40.10113" lon="-4.12542">
        <ele>605.2</ele>
        <time>2020-08-16 08:23:51</time>
      </trkpt>
      <trkpt lat="40.10109" lon="-4.1254">
        <ele>605.2</ele>
        <time>2020-08-16 08:23:52</time>
      </trkpt>
      <trkpt lat="40.10105" lon="-4.12538">
        <ele>605.2</ele>
        <time>2020-08-16 08:23:53</time>
      </trkpt>
      <trkpt lat="40.101" lon="-4.12536">
        <ele>605.2</ele>
        <time>2020-08-16 08:23:54</time>
      </trkpt>
      <trkpt lat="40.10078" lon="-4.12525">
        <ele>604.8</ele>
        <time>2020-08-16 08:23:59</time>
      </trkpt>
      <trkpt lat="40.10074" lon="-4.12522">
        <ele>604.8</ele>
        <time>2020-08-16 08:24:00</time>
      </trkpt>
      <trkpt lat="40.10062" lon="-4.12515">
        <ele>604.8</ele>
        <time>2020-08-16 08:24:03</time>
      </trkpt>
      <trkpt lat="40.10058" lon="-4.12512">
        <ele>604.6</ele>
        <time>2020-08-16 08:24:04</time>
      </trkpt>
      <trkpt lat="40.10053" lon="-4.1251">
        <ele>604.6</ele>
        <time>2020-08-16 08:24:05</time>
      </trkpt>
      <trkpt lat="40.10049" lon="-4.12508">
        <ele>604.6</ele>
        <time>2020-08-16 08:24:06</time>
      </trkpt>
      <trkpt lat="40.10044" lon="-4.12506">
        <ele>604.4</ele>
        <time>2020-08-16 08:24:07</time>
      </trkpt>
      <trkpt lat="40.1004" lon="-4.12503">
        <ele>604.4</ele>
        <time>2020-08-16 08:24:08</time>
      </trkpt>
      <trkpt lat="40.10035" lon="-4.12501">
        <ele>604.4</ele>
        <time>2020-08-16 08:24:09</time>
      </trkpt>
      <trkpt lat="40.10011" lon="-4.12491">
        <ele>603.6</ele>
        <time>2020-08-16 08:24:14</time>
      </trkpt>
      <trkpt lat="40.10007" lon="-4.12489">
        <ele>603.6</ele>
        <time>2020-08-16 08:24:15</time>
      </trkpt>
      <trkpt lat="40.09997" lon="-4.12485">
        <ele>603.4</ele>
        <time>2020-08-16 08:24:17</time>
      </trkpt>
      <trkpt lat="40.09959" lon="-4.12468">
        <ele>603</ele>
        <time>2020-08-16 08:24:24</time>
      </trkpt>
      <trkpt lat="40.09942" lon="-4.12461">
        <ele>602.2</ele>
        <time>2020-08-16 08:24:27</time>
      </trkpt>
      <trkpt lat="40.09915" lon="-4.12448">
        <ele>601.4</ele>
        <time>2020-08-16 08:24:32</time>
      </trkpt>
      <trkpt lat="40.09905" lon="-4.12442">
        <ele>601</ele>
        <time>2020-08-16 08:24:34</time>
      </trkpt>
      <trkpt lat="40.099" lon="-4.12438">
        <ele>601</ele>
        <time>2020-08-16 08:24:35</time>
      </trkpt>
      <trkpt lat="40.09895" lon="-4.12435">
        <ele>601</ele>
        <time>2020-08-16 08:24:36</time>
      </trkpt>
      <trkpt lat="40.0989" lon="-4.12432">
        <ele>601</ele>
        <time>2020-08-16 08:24:37</time>
      </trkpt>
      <trkpt lat="40.09886" lon="-4.12428">
        <ele>600.8</ele>
        <time>2020-08-16 08:24:38</time>
      </trkpt>
      <trkpt lat="40.09882" lon="-4.12425">
        <ele>600.6</ele>
        <time>2020-08-16 08:24:39</time>
      </trkpt>
      <trkpt lat="40.09877" lon="-4.12421">
        <ele>600.6</ele>
        <time>2020-08-16 08:24:40</time>
      </trkpt>
      <trkpt lat="40.09873" lon="-4.12417">
        <ele>600.4</ele>
        <time>2020-08-16 08:24:41</time>
      </trkpt>
      <trkpt lat="40.09868" lon="-4.12413">
        <ele>600.4</ele>
        <time>2020-08-16 08:24:42</time>
      </trkpt>
      <trkpt lat="40.09864" lon="-4.12409">
        <ele>600.4</ele>
        <time>2020-08-16 08:24:43</time>
      </trkpt>
      <trkpt lat="40.0986" lon="-4.12405">
        <ele>600.2</ele>
        <time>2020-08-16 08:24:44</time>
      </trkpt>
      <trkpt lat="40.09856" lon="-4.12402">
        <ele>600.2</ele>
        <time>2020-08-16 08:24:45</time>
      </trkpt>
      <trkpt lat="40.09852" lon="-4.12398">
        <ele>600</ele>
        <time>2020-08-16 08:24:46</time>
      </trkpt>
      <trkpt lat="40.09848" lon="-4.12394">
        <ele>600</ele>
        <time>2020-08-16 08:24:47</time>
      </trkpt>
      <trkpt lat="40.09843" lon="-4.1239">
        <ele>599.8</ele>
        <time>2020-08-16 08:24:48</time>
      </trkpt>
      <trkpt lat="40.09839" lon="-4.12386">
        <ele>599.8</ele>
        <time>2020-08-16 08:24:49</time>
      </trkpt>
      <trkpt lat="40.09835" lon="-4.12382">
        <ele>599.6</ele>
        <time>2020-08-16 08:24:50</time>
      </trkpt>
      <trkpt lat="40.09831" lon="-4.12378">
        <ele>599.4</ele>
        <time>2020-08-16 08:24:51</time>
      </trkpt>
      <trkpt lat="40.09827" lon="-4.12374">
        <ele>599.4</ele>
        <time>2020-08-16 08:24:52</time>
      </trkpt>
      <trkpt lat="40.09806" lon="-4.12353">
        <ele>599</ele>
        <time>2020-08-16 08:24:57</time>
      </trkpt>
      <trkpt lat="40.09793" lon="-4.12341">
        <ele>598.8</ele>
        <time>2020-08-16 08:25:00</time>
      </trkpt>
      <trkpt lat="40.09757" lon="-4.12314">
        <ele>598.2</ele>
        <time>2020-08-16 08:25:07</time>
      </trkpt>
      <trkpt lat="40.09745" lon="-4.12305">
        <ele>598</ele>
        <time>2020-08-16 08:25:09</time>
      </trkpt>
      <trkpt lat="40.0974" lon="-4.123">
        <ele>597.8</ele>
        <time>2020-08-16 08:25:10</time>
      </trkpt>
      <trkpt lat="40.09717" lon="-4.12279">
        <ele>597</ele>
        <time>2020-08-16 08:25:14</time>
      </trkpt>
      <trkpt lat="40.09707" lon="-4.1227">
        <ele>596.4</ele>
        <time>2020-08-16 08:25:16</time>
      </trkpt>
      <trkpt lat="40.09697" lon="-4.1226">
        <ele>595.8</ele>
        <time>2020-08-16 08:25:18</time>
      </trkpt>
      <trkpt lat="40.09692" lon="-4.12256">
        <ele>595.8</ele>
        <time>2020-08-16 08:25:19</time>
      </trkpt>
      <trkpt lat="40.09687" lon="-4.12251">
        <ele>595.6</ele>
        <time>2020-08-16 08:25:20</time>
      </trkpt>
      <trkpt lat="40.09683" lon="-4.12247">
        <ele>595.2</ele>
        <time>2020-08-16 08:25:21</time>
      </trkpt>
      <trkpt lat="40.09678" lon="-4.12242">
        <ele>595.2</ele>
        <time>2020-08-16 08:25:22</time>
      </trkpt>
      <trkpt lat="40.09673" lon="-4.12237">
        <ele>595</ele>
        <time>2020-08-16 08:25:23</time>
      </trkpt>
      <trkpt lat="40.09669" lon="-4.12232">
        <ele>595</ele>
        <time>2020-08-16 08:25:24</time>
      </trkpt>
      <trkpt lat="40.09665" lon="-4.12227">
        <ele>594.8</ele>
        <time>2020-08-16 08:25:25</time>
      </trkpt>
      <trkpt lat="40.09661" lon="-4.12223">
        <ele>594.8</ele>
        <time>2020-08-16 08:25:26</time>
      </trkpt>
      <trkpt lat="40.09656" lon="-4.1222">
        <ele>594.8</ele>
        <time>2020-08-16 08:25:27</time>
      </trkpt>
      <trkpt lat="40.09652" lon="-4.12216">
        <ele>594.8</ele>
        <time>2020-08-16 08:25:28</time>
      </trkpt>
      <trkpt lat="40.09647" lon="-4.12213">
        <ele>594.8</ele>
        <time>2020-08-16 08:25:29</time>
      </trkpt>
      <trkpt lat="40.09643" lon="-4.1221">
        <ele>594.6</ele>
        <time>2020-08-16 08:25:30</time>
      </trkpt>
      <trkpt lat="40.09639" lon="-4.12206">
        <ele>594.6</ele>
        <time>2020-08-16 08:25:31</time>
      </trkpt>
      <trkpt lat="40.09636" lon="-4.12203">
        <ele>594.4</ele>
        <time>2020-08-16 08:25:32</time>
      </trkpt>
      <trkpt lat="40.09631" lon="-4.122">
        <ele>594.4</ele>
        <time>2020-08-16 08:25:33</time>
      </trkpt>
      <trkpt lat="40.09627" lon="-4.12196">
        <ele>594.4</ele>
        <time>2020-08-16 08:25:34</time>
      </trkpt>
      <trkpt lat="40.09623" lon="-4.12194">
        <ele>594.4</ele>
        <time>2020-08-16 08:25:35</time>
      </trkpt>
      <trkpt lat="40.09619" lon="-4.12191">
        <ele>594.2</ele>
        <time>2020-08-16 08:25:36</time>
      </trkpt>
      <trkpt lat="40.09615" lon="-4.12189">
        <ele>594.2</ele>
        <time>2020-08-16 08:25:37</time>
      </trkpt>
      <trkpt lat="40.09612" lon="-4.12188">
        <ele>594</ele>
        <time>2020-08-16 08:25:38</time>
      </trkpt>
      <trkpt lat="40.09609" lon="-4.12187">
        <ele>594</ele>
        <time>2020-08-16 08:25:39</time>
      </trkpt>
      <trkpt lat="40.09608" lon="-4.12187">
        <ele>594</ele>
        <time>2020-08-16 08:25:40</time>
      </trkpt>
      <trkpt lat="40.09608" lon="-4.12187">
        <ele>593.8</ele>
        <time>2020-08-16 08:25:41</time>
      </trkpt>
      <trkpt lat="40.09608" lon="-4.12187">
        <ele>593.8</ele>
        <time>2020-08-16 08:25:42</time>
      </trkpt>
      <trkpt lat="40.09608" lon="-4.12187">
        <ele>593.8</ele>
        <time>2020-08-16 08:25:43</time>
      </trkpt>
      <trkpt lat="40.09603" lon="-4.12187">
        <ele>593.4</ele>
        <time>2020-08-16 08:26:10</time>
      </trkpt>
      <trkpt lat="40.096" lon="-4.12187">
        <ele>593.4</ele>
        <time>2020-08-16 08:26:11</time>
      </trkpt>
      <trkpt lat="40.09597" lon="-4.12188">
        <ele>593.4</ele>
        <time>2020-08-16 08:26:12</time>
      </trkpt>
      <trkpt lat="40.09594" lon="-4.12188">
        <ele>593.4</ele>
        <time>2020-08-16 08:26:13</time>
      </trkpt>
      <trkpt lat="40.0959" lon="-4.12188">
        <ele>593.2</ele>
        <time>2020-08-16 08:26:14</time>
      </trkpt>
      <trkpt lat="40.09574" lon="-4.12186">
        <ele>593</ele>
        <time>2020-08-16 08:26:18</time>
      </trkpt>
      <trkpt lat="40.0957" lon="-4.12184">
        <ele>593</ele>
        <time>2020-08-16 08:26:19</time>
      </trkpt>
      <trkpt lat="40.09566" lon="-4.12182">
        <ele>592.8</ele>
        <time>2020-08-16 08:26:20</time>
      </trkpt>
      <trkpt lat="40.09555" lon="-4.12176">
        <ele>592.6</ele>
        <time>2020-08-16 08:26:22</time>
      </trkpt>
      <trkpt lat="40.0955" lon="-4.12172">
        <ele>592.4</ele>
        <time>2020-08-16 08:26:23</time>
      </trkpt>
      <trkpt lat="40.09526" lon="-4.12155">
        <ele>591.4</ele>
        <time>2020-08-16 08:26:27</time>
      </trkpt>
      <trkpt lat="40.09489" lon="-4.12128">
        <ele>589.8</ele>
        <time>2020-08-16 08:26:32</time>
      </trkpt>
      <trkpt lat="40.09471" lon="-4.12115">
        <ele>588.8</ele>
        <time>2020-08-16 08:26:34</time>
      </trkpt>
      <trkpt lat="40.09452" lon="-4.12101">
        <ele>587.8</ele>
        <time>2020-08-16 08:26:36</time>
      </trkpt>
      <trkpt lat="40.09432" lon="-4.12085">
        <ele>586.2</ele>
        <time>2020-08-16 08:26:38</time>
      </trkpt>
      <trkpt lat="40.09422" lon="-4.12076">
        <ele>585</ele>
        <time>2020-08-16 08:26:39</time>
      </trkpt>
      <trkpt lat="40.09403" lon="-4.12054">
        <ele>583.6</ele>
        <time>2020-08-16 08:26:41</time>
      </trkpt>
      <trkpt lat="40.09396" lon="-4.12041">
        <ele>583</ele>
        <time>2020-08-16 08:26:42</time>
      </trkpt>
      <trkpt lat="40.09389" lon="-4.12027">
        <ele>581.8</ele>
        <time>2020-08-16 08:26:43</time>
      </trkpt>
      <trkpt lat="40.09382" lon="-4.12013">
        <ele>580.4</ele>
        <time>2020-08-16 08:26:44</time>
      </trkpt>
      <trkpt lat="40.09376" lon="-4.11998">
        <ele>579.8</ele>
        <time>2020-08-16 08:26:45</time>
      </trkpt>
      <trkpt lat="40.0937" lon="-4.11984">
        <ele>578.6</ele>
        <time>2020-08-16 08:26:46</time>
      </trkpt>
      <trkpt lat="40.09363" lon="-4.1197">
        <ele>577.8</ele>
        <time>2020-08-16 08:26:47</time>
      </trkpt>
      <trkpt lat="40.09356" lon="-4.11956">
        <ele>576.4</ele>
        <time>2020-08-16 08:26:48</time>
      </trkpt>
      <trkpt lat="40.09351" lon="-4.11943">
        <ele>575.8</ele>
        <time>2020-08-16 08:26:49</time>
      </trkpt>
      <trkpt lat="40.09345" lon="-4.11931">
        <ele>575</ele>
        <time>2020-08-16 08:26:50</time>
      </trkpt>
      <trkpt lat="40.09337" lon="-4.11921">
        <ele>574</ele>
        <time>2020-08-16 08:26:51</time>
      </trkpt>
      <trkpt lat="40.09331" lon="-4.11911">
        <ele>573.6</ele>
        <time>2020-08-16 08:26:52</time>
      </trkpt>
      <trkpt lat="40.09325" lon="-4.11904">
        <ele>573</ele>
        <time>2020-08-16 08:26:53</time>
      </trkpt>
      <trkpt lat="40.09319" lon="-4.11898">
        <ele>572.8</ele>
        <time>2020-08-16 08:26:54</time>
      </trkpt>
      <trkpt lat="40.09313" lon="-4.11893">
        <ele>571.8</ele>
        <time>2020-08-16 08:26:55</time>
      </trkpt>
      <trkpt lat="40.09307" lon="-4.11889">
        <ele>571.6</ele>
        <time>2020-08-16 08:26:56</time>
      </trkpt>
      <trkpt lat="40.09302" lon="-4.11888">
        <ele>571</ele>
        <time>2020-08-16 08:26:57</time>
      </trkpt>
      <trkpt lat="40.09299" lon="-4.11888">
        <ele>570.6</ele>
        <time>2020-08-16 08:26:58</time>
      </trkpt>
      <trkpt lat="40.09298" lon="-4.1189">
        <ele>570.4</ele>
        <time>2020-08-16 08:26:59</time>
      </trkpt>
      <trkpt lat="40.09298" lon="-4.1189">
        <ele>570.2</ele>
        <time>2020-08-16 08:27:00</time>
      </trkpt>
      <trkpt lat="40.09298" lon="-4.1189">
        <ele>569.8</ele>
        <time>2020-08-16 08:27:02</time>
      </trkpt>
      <trkpt lat="40.09294" lon="-4.11894">
        <ele>569</ele>
        <time>2020-08-16 08:27:46</time>
      </trkpt>
      <trkpt lat="40.09292" lon="-4.11897">
        <ele>568.8</ele>
        <time>2020-08-16 08:27:47</time>
      </trkpt>
      <trkpt lat="40.09289" lon="-4.11903">
        <ele>568.8</ele>
        <time>2020-08-16 08:27:49</time>
      </trkpt>
      <trkpt lat="40.09288" lon="-4.11906">
        <ele>568.8</ele>
        <time>2020-08-16 08:27:50</time>
      </trkpt>
      <trkpt lat="40.09286" lon="-4.11909">
        <ele>568.8</ele>
        <time>2020-08-16 08:27:51</time>
      </trkpt>
      <trkpt lat="40.09284" lon="-4.11913">
        <ele>568.8</ele>
        <time>2020-08-16 08:27:52</time>
      </trkpt>
      <trkpt lat="40.09274" lon="-4.11925">
        <ele>568.8</ele>
        <time>2020-08-16 08:27:55</time>
      </trkpt>
      <trkpt lat="40.09271" lon="-4.11932">
        <ele>568.8</ele>
        <time>2020-08-16 08:27:56</time>
      </trkpt>
      <trkpt lat="40.09268" lon="-4.11938">
        <ele>568.8</ele>
        <time>2020-08-16 08:27:57</time>
      </trkpt>
      <trkpt lat="40.09265" lon="-4.11945">
        <ele>569</ele>
        <time>2020-08-16 08:27:58</time>
      </trkpt>
      <trkpt lat="40.09259" lon="-4.11958">
        <ele>569.2</ele>
        <time>2020-08-16 08:28:00</time>
      </trkpt>
      <trkpt lat="40.09256" lon="-4.11963">
        <ele>569.4</ele>
        <time>2020-08-16 08:28:01</time>
      </trkpt>
      <trkpt lat="40.09253" lon="-4.11969">
        <ele>569.4</ele>
        <time>2020-08-16 08:28:02</time>
      </trkpt>
      <trkpt lat="40.09251" lon="-4.11975">
        <ele>569.4</ele>
        <time>2020-08-16 08:28:03</time>
      </trkpt>
      <trkpt lat="40.09249" lon="-4.1198">
        <ele>569.4</ele>
        <time>2020-08-16 08:28:04</time>
      </trkpt>
      <trkpt lat="40.09247" lon="-4.11985">
        <ele>569.6</ele>
        <time>2020-08-16 08:28:05</time>
      </trkpt>
      <trkpt lat="40.09244" lon="-4.11988">
        <ele>569.8</ele>
        <time>2020-08-16 08:28:06</time>
      </trkpt>
      <trkpt lat="40.09242" lon="-4.11991">
        <ele>569.8</ele>
        <time>2020-08-16 08:28:07</time>
      </trkpt>
      <trkpt lat="40.09241" lon="-4.11993">
        <ele>570</ele>
        <time>2020-08-16 08:28:08</time>
      </trkpt>
      <trkpt lat="40.0924" lon="-4.11994">
        <ele>570</ele>
        <time>2020-08-16 08:28:09</time>
      </trkpt>
      <trkpt lat="40.09239" lon="-4.11995">
        <ele>570.2</ele>
        <time>2020-08-16 08:28:10</time>
      </trkpt>
      <trkpt lat="40.09239" lon="-4.11995">
        <ele>570.4</ele>
        <time>2020-08-16 08:28:11</time>
      </trkpt>
      <trkpt lat="40.09239" lon="-4.11995">
        <ele>570.4</ele>
        <time>2020-08-16 08:28:12</time>
      </trkpt>
      <trkpt lat="40.09239" lon="-4.11995">
        <ele>570.6</ele>
        <time>2020-08-16 08:28:14</time>
      </trkpt>
      <trkpt lat="40.09238" lon="-4.11998">
        <ele>570.8</ele>
        <time>2020-08-16 08:28:36</time>
      </trkpt>
      <trkpt lat="40.09234" lon="-4.12004">
        <ele>570.8</ele>
        <time>2020-08-16 08:28:38</time>
      </trkpt>
      <trkpt lat="40.09232" lon="-4.12008">
        <ele>570.8</ele>
        <time>2020-08-16 08:28:39</time>
      </trkpt>
      <trkpt lat="40.09229" lon="-4.12011">
        <ele>570.8</ele>
        <time>2020-08-16 08:28:40</time>
      </trkpt>
      <trkpt lat="40.09227" lon="-4.12016">
        <ele>570.8</ele>
        <time>2020-08-16 08:28:41</time>
      </trkpt>
      <trkpt lat="40.09222" lon="-4.12026">
        <ele>570.8</ele>
        <time>2020-08-16 08:28:43</time>
      </trkpt>
      <trkpt lat="40.09214" lon="-4.12046">
        <ele>570.8</ele>
        <time>2020-08-16 08:28:47</time>
      </trkpt>
      <trkpt lat="40.09212" lon="-4.12051">
        <ele>570.8</ele>
        <time>2020-08-16 08:28:48</time>
      </trkpt>
      <trkpt lat="40.0921" lon="-4.12058">
        <ele>570.8</ele>
        <time>2020-08-16 08:28:49</time>
      </trkpt>
      <trkpt lat="40.09209" lon="-4.12064">
        <ele>570.8</ele>
        <time>2020-08-16 08:28:50</time>
      </trkpt>
      <trkpt lat="40.09208" lon="-4.12069">
        <ele>570.8</ele>
        <time>2020-08-16 08:28:51</time>
      </trkpt>
      <trkpt lat="40.09207" lon="-4.12074">
        <ele>570.8</ele>
        <time>2020-08-16 08:28:52</time>
      </trkpt>
      <trkpt lat="40.09207" lon="-4.12077">
        <ele>570.8</ele>
        <time>2020-08-16 08:28:53</time>
      </trkpt>
      <trkpt lat="40.09207" lon="-4.12079">
        <ele>570.8</ele>
        <time>2020-08-16 08:28:54</time>
      </trkpt>
      <trkpt lat="40.09207" lon="-4.1208">
        <ele>570.8</ele>
        <time>2020-08-16 08:28:55</time>
      </trkpt>
      <trkpt lat="40.09207" lon="-4.1208">
        <ele>570.6</ele>
        <time>2020-08-16 08:28:56</time>
      </trkpt>
      <trkpt lat="40.09206" lon="-4.12082">
        <ele>570.4</ele>
        <time>2020-08-16 08:29:25</time>
      </trkpt>
      <trkpt lat="40.09205" lon="-4.12083">
        <ele>570.2</ele>
        <time>2020-08-16 08:29:26</time>
      </trkpt>
      <trkpt lat="40.09203" lon="-4.12087">
        <ele>570.2</ele>
        <time>2020-08-16 08:29:28</time>
      </trkpt>
      <trkpt lat="40.09202" lon="-4.12092">
        <ele>570.2</ele>
        <time>2020-08-16 08:29:30</time>
      </trkpt>
      <trkpt lat="40.09201" lon="-4.12098">
        <ele>570.2</ele>
        <time>2020-08-16 08:29:32</time>
      </trkpt>
      <trkpt lat="40.09201" lon="-4.121">
        <ele>570.2</ele>
        <time>2020-08-16 08:29:33</time>
      </trkpt>
      <trkpt lat="40.09201" lon="-4.12103">
        <ele>570.2</ele>
        <time>2020-08-16 08:29:34</time>
      </trkpt>
      <trkpt lat="40.09201" lon="-4.12106">
        <ele>570.2</ele>
        <time>2020-08-16 08:29:35</time>
      </trkpt>
      <trkpt lat="40.092" lon="-4.12108">
        <ele>570.2</ele>
        <time>2020-08-16 08:29:36</time>
      </trkpt>
      <trkpt lat="40.092" lon="-4.12112">
        <ele>570.2</ele>
        <time>2020-08-16 08:29:37</time>
      </trkpt>
      <trkpt lat="40.092" lon="-4.12115">
        <ele>570</ele>
        <time>2020-08-16 08:29:38</time>
      </trkpt>
      <trkpt lat="40.09198" lon="-4.12123">
        <ele>570</ele>
        <time>2020-08-16 08:29:40</time>
      </trkpt>
      <trkpt lat="40.09197" lon="-4.12127">
        <ele>570</ele>
        <time>2020-08-16 08:29:41</time>
      </trkpt>
      <trkpt lat="40.09196" lon="-4.12131">
        <ele>570</ele>
        <time>2020-08-16 08:29:42</time>
      </trkpt>
      <trkpt lat="40.09195" lon="-4.12134">
        <ele>570</ele>
        <time>2020-08-16 08:29:43</time>
      </trkpt>
      <trkpt lat="40.09191" lon="-4.12146">
        <ele>569.8</ele>
        <time>2020-08-16 08:29:46</time>
      </trkpt>
      <trkpt lat="40.0919" lon="-4.12149">
        <ele>569.8</ele>
        <time>2020-08-16 08:29:47</time>
      </trkpt>
      <trkpt lat="40.09187" lon="-4.12157">
        <ele>569.8</ele>
        <time>2020-08-16 08:29:49</time>
      </trkpt>
      <trkpt lat="40.09183" lon="-4.12164">
        <ele>569.8</ele>
        <time>2020-08-16 08:29:51</time>
      </trkpt>
      <trkpt lat="40.09176" lon="-4.12175">
        <ele>569.6</ele>
        <time>2020-08-16 08:29:54</time>
      </trkpt>
      <trkpt lat="40.09169" lon="-4.12187">
        <ele>569.4</ele>
        <time>2020-08-16 08:29:57</time>
      </trkpt>
      <trkpt lat="40.09167" lon="-4.12191">
        <ele>569.6</ele>
        <time>2020-08-16 08:29:58</time>
      </trkpt>
      <trkpt lat="40.09165" lon="-4.12195">
        <ele>569.6</ele>
        <time>2020-08-16 08:29:59</time>
      </trkpt>
      <trkpt lat="40.09163" lon="-4.12199">
        <ele>569.6</ele>
        <time>2020-08-16 08:30:00</time>
      </trkpt>
      <trkpt lat="40.09162" lon="-4.12204">
        <ele>569.6</ele>
        <time>2020-08-16 08:30:01</time>
      </trkpt>
      <trkpt lat="40.0916" lon="-4.12208">
        <ele>569.6</ele>
        <time>2020-08-16 08:30:02</time>
      </trkpt>
      <trkpt lat="40.09158" lon="-4.12213">
        <ele>569.8</ele>
        <time>2020-08-16 08:30:03</time>
      </trkpt>
      <trkpt lat="40.09154" lon="-4.12221">
        <ele>569.8</ele>
        <time>2020-08-16 08:30:05</time>
      </trkpt>
      <trkpt lat="40.09152" lon="-4.12225">
        <ele>570</ele>
        <time>2020-08-16 08:30:06</time>
      </trkpt>
      <trkpt lat="40.0915" lon="-4.12228">
        <ele>569.8</ele>
        <time>2020-08-16 08:30:07</time>
      </trkpt>
      <trkpt lat="40.09147" lon="-4.12231">
        <ele>570</ele>
        <time>2020-08-16 08:30:08</time>
      </trkpt>
      <trkpt lat="40.09145" lon="-4.12235">
        <ele>570</ele>
        <time>2020-08-16 08:30:09</time>
      </trkpt>
      <trkpt lat="40.09143" lon="-4.12237">
        <ele>570</ele>
        <time>2020-08-16 08:30:10</time>
      </trkpt>
      <trkpt lat="40.0914" lon="-4.1224">
        <ele>570.2</ele>
        <time>2020-08-16 08:30:11</time>
      </trkpt>
      <trkpt lat="40.09138" lon="-4.12244">
        <ele>570.2</ele>
        <time>2020-08-16 08:30:12</time>
      </trkpt>
      <trkpt lat="40.09136" lon="-4.12247">
        <ele>570.2</ele>
        <time>2020-08-16 08:30:13</time>
      </trkpt>
      <trkpt lat="40.09134" lon="-4.12251">
        <ele>570.4</ele>
        <time>2020-08-16 08:30:14</time>
      </trkpt>
      <trkpt lat="40.09133" lon="-4.12255">
        <ele>570.6</ele>
        <time>2020-08-16 08:30:15</time>
      </trkpt>
      <trkpt lat="40.09132" lon="-4.12259">
        <ele>570.6</ele>
        <time>2020-08-16 08:30:16</time>
      </trkpt>
      <trkpt lat="40.0913" lon="-4.12262">
        <ele>570.6</ele>
        <time>2020-08-16 08:30:17</time>
      </trkpt>
      <trkpt lat="40.09128" lon="-4.12265">
        <ele>570.8</ele>
        <time>2020-08-16 08:30:18</time>
      </trkpt>
      <trkpt lat="40.09126" lon="-4.12268">
        <ele>570.8</ele>
        <time>2020-08-16 08:30:19</time>
      </trkpt>
      <trkpt lat="40.09122" lon="-4.12276">
        <ele>571</ele>
        <time>2020-08-16 08:30:21</time>
      </trkpt>
      <trkpt lat="40.09118" lon="-4.12285">
        <ele>571.2</ele>
        <time>2020-08-16 08:30:23</time>
      </trkpt>
      <trkpt lat="40.09116" lon="-4.12289">
        <ele>571.4</ele>
        <time>2020-08-16 08:30:24</time>
      </trkpt>
      <trkpt lat="40.09114" lon="-4.12293">
        <ele>571.4</ele>
        <time>2020-08-16 08:30:25</time>
      </trkpt>
      <trkpt lat="40.09112" lon="-4.12296">
        <ele>571.6</ele>
        <time>2020-08-16 08:30:26</time>
      </trkpt>
      <trkpt lat="40.0911" lon="-4.123">
        <ele>571.6</ele>
        <time>2020-08-16 08:30:27</time>
      </trkpt>
      <trkpt lat="40.09108" lon="-4.12304">
        <ele>571.8</ele>
        <time>2020-08-16 08:30:28</time>
      </trkpt>
      <trkpt lat="40.09106" lon="-4.12307">
        <ele>572</ele>
        <time>2020-08-16 08:30:29</time>
      </trkpt>
      <trkpt lat="40.09104" lon="-4.12309">
        <ele>572</ele>
        <time>2020-08-16 08:30:30</time>
      </trkpt>
      <trkpt lat="40.09102" lon="-4.12311">
        <ele>572.2</ele>
        <time>2020-08-16 08:30:31</time>
      </trkpt>
      <trkpt lat="40.091" lon="-4.12314">
        <ele>572.4</ele>
        <time>2020-08-16 08:30:32</time>
      </trkpt>
      <trkpt lat="40.09098" lon="-4.12317">
        <ele>572.6</ele>
        <time>2020-08-16 08:30:33</time>
      </trkpt>
      <trkpt lat="40.09096" lon="-4.1232">
        <ele>572.6</ele>
        <time>2020-08-16 08:30:34</time>
      </trkpt>
      <trkpt lat="40.09095" lon="-4.12322">
        <ele>572.8</ele>
        <time>2020-08-16 08:30:35</time>
      </trkpt>
      <trkpt lat="40.09092" lon="-4.12325">
        <ele>572.8</ele>
        <time>2020-08-16 08:30:36</time>
      </trkpt>
      <trkpt lat="40.0909" lon="-4.12328">
        <ele>573</ele>
        <time>2020-08-16 08:30:37</time>
      </trkpt>
      <trkpt lat="40.09089" lon="-4.1233">
        <ele>573.4</ele>
        <time>2020-08-16 08:30:38</time>
      </trkpt>
      <trkpt lat="40.09087" lon="-4.12333">
        <ele>573.4</ele>
        <time>2020-08-16 08:30:39</time>
      </trkpt>
      <trkpt lat="40.09085" lon="-4.12336">
        <ele>573.6</ele>
        <time>2020-08-16 08:30:40</time>
      </trkpt>
      <trkpt lat="40.09083" lon="-4.12339">
        <ele>573.8</ele>
        <time>2020-08-16 08:30:41</time>
      </trkpt>
      <trkpt lat="40.09081" lon="-4.12342">
        <ele>574</ele>
        <time>2020-08-16 08:30:42</time>
      </trkpt>
      <trkpt lat="40.09079" lon="-4.12344">
        <ele>574.2</ele>
        <time>2020-08-16 08:30:43</time>
      </trkpt>
      <trkpt lat="40.09078" lon="-4.12347">
        <ele>574.4</ele>
        <time>2020-08-16 08:30:44</time>
      </trkpt>
      <trkpt lat="40.09076" lon="-4.1235">
        <ele>574.6</ele>
        <time>2020-08-16 08:30:45</time>
      </trkpt>
      <trkpt lat="40.09075" lon="-4.12353">
        <ele>574.6</ele>
        <time>2020-08-16 08:30:46</time>
      </trkpt>
      <trkpt lat="40.09073" lon="-4.12355">
        <ele>574.8</ele>
        <time>2020-08-16 08:30:47</time>
      </trkpt>
      <trkpt lat="40.09071" lon="-4.12358">
        <ele>575</ele>
        <time>2020-08-16 08:30:48</time>
      </trkpt>
      <trkpt lat="40.09069" lon="-4.12361">
        <ele>575.2</ele>
        <time>2020-08-16 08:30:49</time>
      </trkpt>
      <trkpt lat="40.09068" lon="-4.12363">
        <ele>575.4</ele>
        <time>2020-08-16 08:30:50</time>
      </trkpt>
      <trkpt lat="40.09066" lon="-4.12366">
        <ele>575.4</ele>
        <time>2020-08-16 08:30:51</time>
      </trkpt>
      <trkpt lat="40.09064" lon="-4.12368">
        <ele>575.6</ele>
        <time>2020-08-16 08:30:52</time>
      </trkpt>
      <trkpt lat="40.09062" lon="-4.12371">
        <ele>575.8</ele>
        <time>2020-08-16 08:30:53</time>
      </trkpt>
      <trkpt lat="40.0906" lon="-4.12373">
        <ele>576</ele>
        <time>2020-08-16 08:30:54</time>
      </trkpt>
      <trkpt lat="40.09059" lon="-4.12376">
        <ele>576.2</ele>
        <time>2020-08-16 08:30:55</time>
      </trkpt>
      <trkpt lat="40.09057" lon="-4.12379">
        <ele>576.4</ele>
        <time>2020-08-16 08:30:56</time>
      </trkpt>
      <trkpt lat="40.09056" lon="-4.12382">
        <ele>576.6</ele>
        <time>2020-08-16 08:30:57</time>
      </trkpt>
      <trkpt lat="40.09055" lon="-4.12385">
        <ele>576.6</ele>
        <time>2020-08-16 08:30:58</time>
      </trkpt>
      <trkpt lat="40.09053" lon="-4.12388">
        <ele>576.8</ele>
        <time>2020-08-16 08:30:59</time>
      </trkpt>
      <trkpt lat="40.09052" lon="-4.12391">
        <ele>577</ele>
        <time>2020-08-16 08:31:00</time>
      </trkpt>
      <trkpt lat="40.0905" lon="-4.12394">
        <ele>577.2</ele>
        <time>2020-08-16 08:31:01</time>
      </trkpt>
      <trkpt lat="40.09049" lon="-4.12398">
        <ele>577.4</ele>
        <time>2020-08-16 08:31:02</time>
      </trkpt>
      <trkpt lat="40.09047" lon="-4.12401">
        <ele>577.6</ele>
        <time>2020-08-16 08:31:03</time>
      </trkpt>
      <trkpt lat="40.09046" lon="-4.12404">
        <ele>577.6</ele>
        <time>2020-08-16 08:31:04</time>
      </trkpt>
      <trkpt lat="40.09044" lon="-4.12407">
        <ele>577.8</ele>
        <time>2020-08-16 08:31:05</time>
      </trkpt>
      <trkpt lat="40.09043" lon="-4.1241">
        <ele>577.8</ele>
        <time>2020-08-16 08:31:06</time>
      </trkpt>
      <trkpt lat="40.09042" lon="-4.12412">
        <ele>578</ele>
        <time>2020-08-16 08:31:07</time>
      </trkpt>
      <trkpt lat="40.0904" lon="-4.12415">
        <ele>578.2</ele>
        <time>2020-08-16 08:31:08</time>
      </trkpt>
      <trkpt lat="40.09038" lon="-4.12417">
        <ele>578.2</ele>
        <time>2020-08-16 08:31:09</time>
      </trkpt>
      <trkpt lat="40.09036" lon="-4.1242">
        <ele>578.8</ele>
        <time>2020-08-16 08:31:10</time>
      </trkpt>
      <trkpt lat="40.09035" lon="-4.12422">
        <ele>578.8</ele>
        <time>2020-08-16 08:31:11</time>
      </trkpt>
      <trkpt lat="40.09034" lon="-4.12425">
        <ele>579</ele>
        <time>2020-08-16 08:31:12</time>
      </trkpt>
      <trkpt lat="40.09032" lon="-4.12428">
        <ele>579</ele>
        <time>2020-08-16 08:31:13</time>
      </trkpt>
      <trkpt lat="40.0903" lon="-4.1243">
        <ele>579.4</ele>
        <time>2020-08-16 08:31:14</time>
      </trkpt>
      <trkpt lat="40.09029" lon="-4.12432">
        <ele>579.8</ele>
        <time>2020-08-16 08:31:15</time>
      </trkpt>
      <trkpt lat="40.09027" lon="-4.12435">
        <ele>579.8</ele>
        <time>2020-08-16 08:31:16</time>
      </trkpt>
      <trkpt lat="40.09026" lon="-4.12438">
        <ele>580.2</ele>
        <time>2020-08-16 08:31:17</time>
      </trkpt>
      <trkpt lat="40.09024" lon="-4.12441">
        <ele>580.4</ele>
        <time>2020-08-16 08:31:18</time>
      </trkpt>
      <trkpt lat="40.09022" lon="-4.12443">
        <ele>580.6</ele>
        <time>2020-08-16 08:31:19</time>
      </trkpt>
      <trkpt lat="40.0902" lon="-4.12446">
        <ele>580.8</ele>
        <time>2020-08-16 08:31:20</time>
      </trkpt>
      <trkpt lat="40.09018" lon="-4.12449">
        <ele>581</ele>
        <time>2020-08-16 08:31:21</time>
      </trkpt>
      <trkpt lat="40.09016" lon="-4.12451">
        <ele>581.2</ele>
        <time>2020-08-16 08:31:22</time>
      </trkpt>
      <trkpt lat="40.09014" lon="-4.12454">
        <ele>581.4</ele>
        <time>2020-08-16 08:31:23</time>
      </trkpt>
      <trkpt lat="40.09013" lon="-4.12457">
        <ele>581.6</ele>
        <time>2020-08-16 08:31:24</time>
      </trkpt>
      <trkpt lat="40.09011" lon="-4.1246">
        <ele>581.6</ele>
        <time>2020-08-16 08:31:25</time>
      </trkpt>
      <trkpt lat="40.09009" lon="-4.12463">
        <ele>581.6</ele>
        <time>2020-08-16 08:31:26</time>
      </trkpt>
      <trkpt lat="40.09008" lon="-4.12466">
        <ele>581.8</ele>
        <time>2020-08-16 08:31:27</time>
      </trkpt>
      <trkpt lat="40.09006" lon="-4.12469">
        <ele>582</ele>
        <time>2020-08-16 08:31:28</time>
      </trkpt>
      <trkpt lat="40.09004" lon="-4.12472">
        <ele>582.2</ele>
        <time>2020-08-16 08:31:29</time>
      </trkpt>
      <trkpt lat="40.09002" lon="-4.12475">
        <ele>582.2</ele>
        <time>2020-08-16 08:31:30</time>
      </trkpt>
      <trkpt lat="40.09" lon="-4.12478">
        <ele>582.4</ele>
        <time>2020-08-16 08:31:31</time>
      </trkpt>
      <trkpt lat="40.08998" lon="-4.12481">
        <ele>582.4</ele>
        <time>2020-08-16 08:31:32</time>
      </trkpt>
      <trkpt lat="40.08995" lon="-4.12484">
        <ele>582.6</ele>
        <time>2020-08-16 08:31:33</time>
      </trkpt>
      <trkpt lat="40.08993" lon="-4.12487">
        <ele>582.6</ele>
        <time>2020-08-16 08:31:34</time>
      </trkpt>
      <trkpt lat="40.08991" lon="-4.12491">
        <ele>582.6</ele>
        <time>2020-08-16 08:31:35</time>
      </trkpt>
      <trkpt lat="40.08989" lon="-4.12494">
        <ele>582.8</ele>
        <time>2020-08-16 08:31:36</time>
      </trkpt>
      <trkpt lat="40.08983" lon="-4.12503">
        <ele>583</ele>
        <time>2020-08-16 08:31:39</time>
      </trkpt>
      <trkpt lat="40.08979" lon="-4.1251">
        <ele>583.2</ele>
        <time>2020-08-16 08:31:41</time>
      </trkpt>
      <trkpt lat="40.08973" lon="-4.1252">
        <ele>583.6</ele>
        <time>2020-08-16 08:31:44</time>
      </trkpt>
      <trkpt lat="40.08971" lon="-4.12523">
        <ele>583.8</ele>
        <time>2020-08-16 08:31:45</time>
      </trkpt>
      <trkpt lat="40.08969" lon="-4.12526">
        <ele>583.8</ele>
        <time>2020-08-16 08:31:46</time>
      </trkpt>
      <trkpt lat="40.08968" lon="-4.1253">
        <ele>584</ele>
        <time>2020-08-16 08:31:47</time>
      </trkpt>
      <trkpt lat="40.08966" lon="-4.12534">
        <ele>584</ele>
        <time>2020-08-16 08:31:48</time>
      </trkpt>
      <trkpt lat="40.08965" lon="-4.12537">
        <ele>584.2</ele>
        <time>2020-08-16 08:31:49</time>
      </trkpt>
      <trkpt lat="40.08963" lon="-4.1254">
        <ele>584.2</ele>
        <time>2020-08-16 08:31:50</time>
      </trkpt>
      <trkpt lat="40.08962" lon="-4.12544">
        <ele>584.4</ele>
        <time>2020-08-16 08:31:51</time>
      </trkpt>
      <trkpt lat="40.0896" lon="-4.12547">
        <ele>584.6</ele>
        <time>2020-08-16 08:31:52</time>
      </trkpt>
      <trkpt lat="40.08958" lon="-4.1255">
        <ele>584.6</ele>
        <time>2020-08-16 08:31:53</time>
      </trkpt>
      <trkpt lat="40.08956" lon="-4.12553">
        <ele>584.6</ele>
        <time>2020-08-16 08:31:54</time>
      </trkpt>
      <trkpt lat="40.08954" lon="-4.12556">
        <ele>584.6</ele>
        <time>2020-08-16 08:31:55</time>
      </trkpt>
      <trkpt lat="40.08953" lon="-4.12559">
        <ele>584.8</ele>
        <time>2020-08-16 08:31:56</time>
      </trkpt>
      <trkpt lat="40.08951" lon="-4.12563">
        <ele>584.8</ele>
        <time>2020-08-16 08:31:57</time>
      </trkpt>
      <trkpt lat="40.0895" lon="-4.12566">
        <ele>585</ele>
        <time>2020-08-16 08:31:58</time>
      </trkpt>
      <trkpt lat="40.08948" lon="-4.12569">
        <ele>585</ele>
        <time>2020-08-16 08:31:59</time>
      </trkpt>
      <trkpt lat="40.08946" lon="-4.12573">
        <ele>585</ele>
        <time>2020-08-16 08:32:00</time>
      </trkpt>
      <trkpt lat="40.08944" lon="-4.12576">
        <ele>585.2</ele>
        <time>2020-08-16 08:32:01</time>
      </trkpt>
      <trkpt lat="40.08936" lon="-4.1259">
        <ele>585.4</ele>
        <time>2020-08-16 08:32:05</time>
      </trkpt>
      <trkpt lat="40.08925" lon="-4.12605">
        <ele>586</ele>
        <time>2020-08-16 08:32:10</time>
      </trkpt>
      <trkpt lat="40.08923" lon="-4.12609">
        <ele>586</ele>
        <time>2020-08-16 08:32:11</time>
      </trkpt>
      <trkpt lat="40.08922" lon="-4.12612">
        <ele>586.2</ele>
        <time>2020-08-16 08:32:12</time>
      </trkpt>
      <trkpt lat="40.0892" lon="-4.12616">
        <ele>586.2</ele>
        <time>2020-08-16 08:32:13</time>
      </trkpt>
      <trkpt lat="40.08918" lon="-4.1262">
        <ele>586.2</ele>
        <time>2020-08-16 08:32:14</time>
      </trkpt>
      <trkpt lat="40.08916" lon="-4.12623">
        <ele>586.2</ele>
        <time>2020-08-16 08:32:15</time>
      </trkpt>
      <trkpt lat="40.08911" lon="-4.12634">
        <ele>586.4</ele>
        <time>2020-08-16 08:32:18</time>
      </trkpt>
      <trkpt lat="40.08903" lon="-4.12653">
        <ele>587</ele>
        <time>2020-08-16 08:32:23</time>
      </trkpt>
      <trkpt lat="40.089" lon="-4.12661">
        <ele>587.2</ele>
        <time>2020-08-16 08:32:25</time>
      </trkpt>
      <trkpt lat="40.08898" lon="-4.12665">
        <ele>587.4</ele>
        <time>2020-08-16 08:32:26</time>
      </trkpt>
      <trkpt lat="40.08896" lon="-4.12669">
        <ele>587.6</ele>
        <time>2020-08-16 08:32:27</time>
      </trkpt>
      <trkpt lat="40.08895" lon="-4.12673">
        <ele>587.6</ele>
        <time>2020-08-16 08:32:28</time>
      </trkpt>
      <trkpt lat="40.08893" lon="-4.12677">
        <ele>587.6</ele>
        <time>2020-08-16 08:32:29</time>
      </trkpt>
      <trkpt lat="40.08892" lon="-4.12681">
        <ele>587.8</ele>
        <time>2020-08-16 08:32:30</time>
      </trkpt>
      <trkpt lat="40.0889" lon="-4.12685">
        <ele>587.8</ele>
        <time>2020-08-16 08:32:31</time>
      </trkpt>
      <trkpt lat="40.08877" lon="-4.12709">
        <ele>588.2</ele>
        <time>2020-08-16 08:32:37</time>
      </trkpt>
      <trkpt lat="40.08872" lon="-4.12717">
        <ele>588.4</ele>
        <time>2020-08-16 08:32:39</time>
      </trkpt>
      <trkpt lat="40.0887" lon="-4.12721">
        <ele>588.4</ele>
        <time>2020-08-16 08:32:40</time>
      </trkpt>
      <trkpt lat="40.08863" lon="-4.12734">
        <ele>588.6</ele>
        <time>2020-08-16 08:32:43</time>
      </trkpt>
      <trkpt lat="40.08852" lon="-4.12756">
        <ele>588.8</ele>
        <time>2020-08-16 08:32:48</time>
      </trkpt>
      <trkpt lat="40.08847" lon="-4.12765">
        <ele>588.8</ele>
        <time>2020-08-16 08:32:50</time>
      </trkpt>
      <trkpt lat="40.08845" lon="-4.12769">
        <ele>588.8</ele>
        <time>2020-08-16 08:32:51</time>
      </trkpt>
      <trkpt lat="40.08832" lon="-4.12797">
        <ele>588.6</ele>
        <time>2020-08-16 08:32:57</time>
      </trkpt>
      <trkpt lat="40.08827" lon="-4.12805">
        <ele>588.6</ele>
        <time>2020-08-16 08:32:59</time>
      </trkpt>
      <trkpt lat="40.08825" lon="-4.1281">
        <ele>588.6</ele>
        <time>2020-08-16 08:33:00</time>
      </trkpt>
      <trkpt lat="40.08823" lon="-4.12814">
        <ele>588.6</ele>
        <time>2020-08-16 08:33:01</time>
      </trkpt>
      <trkpt lat="40.08821" lon="-4.12818">
        <ele>588.6</ele>
        <time>2020-08-16 08:33:02</time>
      </trkpt>
      <trkpt lat="40.08819" lon="-4.12823">
        <ele>588.6</ele>
        <time>2020-08-16 08:33:03</time>
      </trkpt>
      <trkpt lat="40.08817" lon="-4.12827">
        <ele>588.8</ele>
        <time>2020-08-16 08:33:04</time>
      </trkpt>
      <trkpt lat="40.08815" lon="-4.12831">
        <ele>588.8</ele>
        <time>2020-08-16 08:33:05</time>
      </trkpt>
      <trkpt lat="40.08813" lon="-4.12835">
        <ele>589</ele>
        <time>2020-08-16 08:33:06</time>
      </trkpt>
      <trkpt lat="40.0881" lon="-4.1284">
        <ele>589</ele>
        <time>2020-08-16 08:33:07</time>
      </trkpt>
      <trkpt lat="40.08808" lon="-4.12844">
        <ele>589</ele>
        <time>2020-08-16 08:33:08</time>
      </trkpt>
      <trkpt lat="40.08806" lon="-4.12849">
        <ele>589</ele>
        <time>2020-08-16 08:33:09</time>
      </trkpt>
      <trkpt lat="40.08804" lon="-4.12853">
        <ele>589.2</ele>
        <time>2020-08-16 08:33:10</time>
      </trkpt>
      <trkpt lat="40.08802" lon="-4.12857">
        <ele>589.2</ele>
        <time>2020-08-16 08:33:11</time>
      </trkpt>
      <trkpt lat="40.088" lon="-4.12861">
        <ele>589.4</ele>
        <time>2020-08-16 08:33:12</time>
      </trkpt>
      <trkpt lat="40.08798" lon="-4.12866">
        <ele>589.4</ele>
        <time>2020-08-16 08:33:13</time>
      </trkpt>
      <trkpt lat="40.08796" lon="-4.1287">
        <ele>589.8</ele>
        <time>2020-08-16 08:33:14</time>
      </trkpt>
      <trkpt lat="40.08794" lon="-4.12875">
        <ele>590</ele>
        <time>2020-08-16 08:33:15</time>
      </trkpt>
      <trkpt lat="40.08792" lon="-4.12879">
        <ele>590</ele>
        <time>2020-08-16 08:33:16</time>
      </trkpt>
      <trkpt lat="40.0879" lon="-4.12883">
        <ele>590.2</ele>
        <time>2020-08-16 08:33:17</time>
      </trkpt>
      <trkpt lat="40.08788" lon="-4.12887">
        <ele>590.2</ele>
        <time>2020-08-16 08:33:18</time>
      </trkpt>
      <trkpt lat="40.08787" lon="-4.12891">
        <ele>590.2</ele>
        <time>2020-08-16 08:33:19</time>
      </trkpt>
      <trkpt lat="40.08785" lon="-4.12895">
        <ele>590.2</ele>
        <time>2020-08-16 08:33:20</time>
      </trkpt>
      <trkpt lat="40.08784" lon="-4.129">
        <ele>590.4</ele>
        <time>2020-08-16 08:33:21</time>
      </trkpt>
      <trkpt lat="40.08782" lon="-4.12904">
        <ele>590.6</ele>
        <time>2020-08-16 08:33:22</time>
      </trkpt>
      <trkpt lat="40.0878" lon="-4.12908">
        <ele>590.8</ele>
        <time>2020-08-16 08:33:23</time>
      </trkpt>
      <trkpt lat="40.08779" lon="-4.12912">
        <ele>590.8</ele>
        <time>2020-08-16 08:33:24</time>
      </trkpt>
      <trkpt lat="40.08777" lon="-4.12916">
        <ele>590.8</ele>
        <time>2020-08-16 08:33:25</time>
      </trkpt>
      <trkpt lat="40.08776" lon="-4.1292">
        <ele>591</ele>
        <time>2020-08-16 08:33:26</time>
      </trkpt>
      <trkpt lat="40.08774" lon="-4.12924">
        <ele>591.2</ele>
        <time>2020-08-16 08:33:27</time>
      </trkpt>
      <trkpt lat="40.08773" lon="-4.12928">
        <ele>591.2</ele>
        <time>2020-08-16 08:33:28</time>
      </trkpt>
      <trkpt lat="40.08771" lon="-4.12931">
        <ele>591.4</ele>
        <time>2020-08-16 08:33:29</time>
      </trkpt>
      <trkpt lat="40.0877" lon="-4.12936">
        <ele>591.6</ele>
        <time>2020-08-16 08:33:30</time>
      </trkpt>
      <trkpt lat="40.08768" lon="-4.1294">
        <ele>591.6</ele>
        <time>2020-08-16 08:33:31</time>
      </trkpt>
      <trkpt lat="40.08767" lon="-4.12943">
        <ele>591.6</ele>
        <time>2020-08-16 08:33:32</time>
      </trkpt>
      <trkpt lat="40.08765" lon="-4.12947">
        <ele>591.8</ele>
        <time>2020-08-16 08:33:33</time>
      </trkpt>
      <trkpt lat="40.08764" lon="-4.12951">
        <ele>592</ele>
        <time>2020-08-16 08:33:34</time>
      </trkpt>
      <trkpt lat="40.08762" lon="-4.12954">
        <ele>592.2</ele>
        <time>2020-08-16 08:33:35</time>
      </trkpt>
      <trkpt lat="40.08761" lon="-4.12958">
        <ele>592.2</ele>
        <time>2020-08-16 08:33:36</time>
      </trkpt>
      <trkpt lat="40.08759" lon="-4.12962">
        <ele>592.4</ele>
        <time>2020-08-16 08:33:37</time>
      </trkpt>
      <trkpt lat="40.08758" lon="-4.12966">
        <ele>592.6</ele>
        <time>2020-08-16 08:33:38</time>
      </trkpt>
      <trkpt lat="40.08756" lon="-4.1297">
        <ele>592.6</ele>
        <time>2020-08-16 08:33:39</time>
      </trkpt>
      <trkpt lat="40.08754" lon="-4.12973">
        <ele>592.8</ele>
        <time>2020-08-16 08:33:40</time>
      </trkpt>
      <trkpt lat="40.08752" lon="-4.12977">
        <ele>592.8</ele>
        <time>2020-08-16 08:33:41</time>
      </trkpt>
      <trkpt lat="40.08751" lon="-4.1298">
        <ele>592.8</ele>
        <time>2020-08-16 08:33:42</time>
      </trkpt>
      <trkpt lat="40.08749" lon="-4.12984">
        <ele>593</ele>
        <time>2020-08-16 08:33:43</time>
      </trkpt>
      <trkpt lat="40.08747" lon="-4.12988">
        <ele>593.2</ele>
        <time>2020-08-16 08:33:44</time>
      </trkpt>
      <trkpt lat="40.08746" lon="-4.12991">
        <ele>593.4</ele>
        <time>2020-08-16 08:33:45</time>
      </trkpt>
      <trkpt lat="40.08744" lon="-4.12995">
        <ele>593.4</ele>
        <time>2020-08-16 08:33:46</time>
      </trkpt>
      <trkpt lat="40.08742" lon="-4.12999">
        <ele>593.6</ele>
        <time>2020-08-16 08:33:47</time>
      </trkpt>
      <trkpt lat="40.08741" lon="-4.13003">
        <ele>593.6</ele>
        <time>2020-08-16 08:33:48</time>
      </trkpt>
      <trkpt lat="40.08739" lon="-4.13007">
        <ele>594</ele>
        <time>2020-08-16 08:33:49</time>
      </trkpt>
      <trkpt lat="40.08737" lon="-4.1301">
        <ele>594.2</ele>
        <time>2020-08-16 08:33:50</time>
      </trkpt>
      <trkpt lat="40.08736" lon="-4.13014">
        <ele>594.4</ele>
        <time>2020-08-16 08:33:51</time>
      </trkpt>
      <trkpt lat="40.08734" lon="-4.13018">
        <ele>594.2</ele>
        <time>2020-08-16 08:33:52</time>
      </trkpt>
      <trkpt lat="40.08733" lon="-4.13022">
        <ele>594.2</ele>
        <time>2020-08-16 08:33:53</time>
      </trkpt>
      <trkpt lat="40.08731" lon="-4.13025">
        <ele>594.4</ele>
        <time>2020-08-16 08:33:54</time>
      </trkpt>
      <trkpt lat="40.08729" lon="-4.13029">
        <ele>594.6</ele>
        <time>2020-08-16 08:33:55</time>
      </trkpt>
      <trkpt lat="40.08727" lon="-4.13033">
        <ele>594.6</ele>
        <time>2020-08-16 08:33:56</time>
      </trkpt>
      <trkpt lat="40.08725" lon="-4.13037">
        <ele>594.6</ele>
        <time>2020-08-16 08:33:57</time>
      </trkpt>
      <trkpt lat="40.0872" lon="-4.13049">
        <ele>594.4</ele>
        <time>2020-08-16 08:34:00</time>
      </trkpt>
      <trkpt lat="40.08715" lon="-4.13061">
        <ele>594.4</ele>
        <time>2020-08-16 08:34:03</time>
      </trkpt>
      <trkpt lat="40.08709" lon="-4.13074">
        <ele>594.4</ele>
        <time>2020-08-16 08:34:06</time>
      </trkpt>
      <trkpt lat="40.08707" lon="-4.13079">
        <ele>594.4</ele>
        <time>2020-08-16 08:34:07</time>
      </trkpt>
      <trkpt lat="40.08703" lon="-4.13087">
        <ele>594.4</ele>
        <time>2020-08-16 08:34:09</time>
      </trkpt>
      <trkpt lat="40.08699" lon="-4.13097">
        <ele>594.2</ele>
        <time>2020-08-16 08:34:11</time>
      </trkpt>
      <trkpt lat="40.08684" lon="-4.13134">
        <ele>593.4</ele>
        <time>2020-08-16 08:34:18</time>
      </trkpt>
      <trkpt lat="40.08667" lon="-4.13182">
        <ele>592.6</ele>
        <time>2020-08-16 08:34:26</time>
      </trkpt>
      <trkpt lat="40.08665" lon="-4.13188">
        <ele>592.4</ele>
        <time>2020-08-16 08:34:27</time>
      </trkpt>
      <trkpt lat="40.08661" lon="-4.13201">
        <ele>592</ele>
        <time>2020-08-16 08:34:29</time>
      </trkpt>
      <trkpt lat="40.0865" lon="-4.13225">
        <ele>591.4</ele>
        <time>2020-08-16 08:34:33</time>
      </trkpt>
      <trkpt lat="40.08639" lon="-4.1325">
        <ele>590.6</ele>
        <time>2020-08-16 08:34:37</time>
      </trkpt>
      <trkpt lat="40.0863" lon="-4.13269">
        <ele>590.2</ele>
        <time>2020-08-16 08:34:40</time>
      </trkpt>
      <trkpt lat="40.08619" lon="-4.13295">
        <ele>589.6</ele>
        <time>2020-08-16 08:34:44</time>
      </trkpt>
      <trkpt lat="40.08616" lon="-4.13301">
        <ele>589.2</ele>
        <time>2020-08-16 08:34:45</time>
      </trkpt>
      <trkpt lat="40.08605" lon="-4.13327">
        <ele>588.8</ele>
        <time>2020-08-16 08:34:49</time>
      </trkpt>
      <trkpt lat="40.08601" lon="-4.13333">
        <ele>588.6</ele>
        <time>2020-08-16 08:34:50</time>
      </trkpt>
      <trkpt lat="40.08598" lon="-4.13339">
        <ele>588.4</ele>
        <time>2020-08-16 08:34:51</time>
      </trkpt>
      <trkpt lat="40.08595" lon="-4.13345">
        <ele>588.2</ele>
        <time>2020-08-16 08:34:52</time>
      </trkpt>
      <trkpt lat="40.08591" lon="-4.13351">
        <ele>588.2</ele>
        <time>2020-08-16 08:34:53</time>
      </trkpt>
      <trkpt lat="40.08588" lon="-4.13357">
        <ele>588</ele>
        <time>2020-08-16 08:34:54</time>
      </trkpt>
      <trkpt lat="40.08584" lon="-4.13363">
        <ele>588</ele>
        <time>2020-08-16 08:34:55</time>
      </trkpt>
      <trkpt lat="40.08581" lon="-4.13369">
        <ele>587.8</ele>
        <time>2020-08-16 08:34:56</time>
      </trkpt>
      <trkpt lat="40.08565" lon="-4.13401">
        <ele>587.6</ele>
        <time>2020-08-16 08:35:01</time>
      </trkpt>
      <trkpt lat="40.08562" lon="-4.13407">
        <ele>587.6</ele>
        <time>2020-08-16 08:35:02</time>
      </trkpt>
      <trkpt lat="40.08559" lon="-4.13414">
        <ele>587.4</ele>
        <time>2020-08-16 08:35:03</time>
      </trkpt>
      <trkpt lat="40.08556" lon="-4.1342">
        <ele>587.2</ele>
        <time>2020-08-16 08:35:04</time>
      </trkpt>
      <trkpt lat="40.08554" lon="-4.13427">
        <ele>587</ele>
        <time>2020-08-16 08:35:05</time>
      </trkpt>
      <trkpt lat="40.08551" lon="-4.13433">
        <ele>586.8</ele>
        <time>2020-08-16 08:35:06</time>
      </trkpt>
      <trkpt lat="40.08549" lon="-4.1344">
        <ele>586.6</ele>
        <time>2020-08-16 08:35:07</time>
      </trkpt>
      <trkpt lat="40.08546" lon="-4.13446">
        <ele>586.4</ele>
        <time>2020-08-16 08:35:08</time>
      </trkpt>
      <trkpt lat="40.08545" lon="-4.13452">
        <ele>586.4</ele>
        <time>2020-08-16 08:35:09</time>
      </trkpt>
      <trkpt lat="40.08543" lon="-4.13459">
        <ele>586.2</ele>
        <time>2020-08-16 08:35:10</time>
      </trkpt>
      <trkpt lat="40.08541" lon="-4.13465">
        <ele>586</ele>
        <time>2020-08-16 08:35:11</time>
      </trkpt>
      <trkpt lat="40.08539" lon="-4.13472">
        <ele>585.8</ele>
        <time>2020-08-16 08:35:12</time>
      </trkpt>
      <trkpt lat="40.08537" lon="-4.13479">
        <ele>585.8</ele>
        <time>2020-08-16 08:35:13</time>
      </trkpt>
      <trkpt lat="40.08536" lon="-4.13485">
        <ele>585.8</ele>
        <time>2020-08-16 08:35:14</time>
      </trkpt>
      <trkpt lat="40.08534" lon="-4.13492">
        <ele>585.6</ele>
        <time>2020-08-16 08:35:15</time>
      </trkpt>
      <trkpt lat="40.08533" lon="-4.13499">
        <ele>585.6</ele>
        <time>2020-08-16 08:35:16</time>
      </trkpt>
      <trkpt lat="40.08531" lon="-4.13506">
        <ele>585.6</ele>
        <time>2020-08-16 08:35:17</time>
      </trkpt>
      <trkpt lat="40.0853" lon="-4.13513">
        <ele>585.6</ele>
        <time>2020-08-16 08:35:18</time>
      </trkpt>
      <trkpt lat="40.08525" lon="-4.13534">
        <ele>585.6</ele>
        <time>2020-08-16 08:35:21</time>
      </trkpt>
      <trkpt lat="40.08513" lon="-4.13597">
        <ele>585.2</ele>
        <time>2020-08-16 08:35:30</time>
      </trkpt>
      <trkpt lat="40.08511" lon="-4.13604">
        <ele>585.2</ele>
        <time>2020-08-16 08:35:31</time>
      </trkpt>
      <trkpt lat="40.08506" lon="-4.13624">
        <ele>585</ele>
        <time>2020-08-16 08:35:34</time>
      </trkpt>
      <trkpt lat="40.08505" lon="-4.13631">
        <ele>585</ele>
        <time>2020-08-16 08:35:35</time>
      </trkpt>
      <trkpt lat="40.08503" lon="-4.13637">
        <ele>584.8</ele>
        <time>2020-08-16 08:35:36</time>
      </trkpt>
      <trkpt lat="40.08502" lon="-4.13644">
        <ele>584.6</ele>
        <time>2020-08-16 08:35:37</time>
      </trkpt>
      <trkpt lat="40.085" lon="-4.1365">
        <ele>584.6</ele>
        <time>2020-08-16 08:35:38</time>
      </trkpt>
      <trkpt lat="40.08499" lon="-4.13657">
        <ele>584.6</ele>
        <time>2020-08-16 08:35:39</time>
      </trkpt>
      <trkpt lat="40.08497" lon="-4.13663">
        <ele>584.4</ele>
        <time>2020-08-16 08:35:40</time>
      </trkpt>
      <trkpt lat="40.08496" lon="-4.13669">
        <ele>584.4</ele>
        <time>2020-08-16 08:35:41</time>
      </trkpt>
      <trkpt lat="40.08494" lon="-4.13675">
        <ele>584.4</ele>
        <time>2020-08-16 08:35:42</time>
      </trkpt>
      <trkpt lat="40.08493" lon="-4.13681">
        <ele>584.4</ele>
        <time>2020-08-16 08:35:43</time>
      </trkpt>
      <trkpt lat="40.08491" lon="-4.13687">
        <ele>584.4</ele>
        <time>2020-08-16 08:35:44</time>
      </trkpt>
      <trkpt lat="40.08489" lon="-4.13692">
        <ele>584.4</ele>
        <time>2020-08-16 08:35:45</time>
      </trkpt>
      <trkpt lat="40.08488" lon="-4.13697">
        <ele>584.6</ele>
        <time>2020-08-16 08:35:46</time>
      </trkpt>
      <trkpt lat="40.08486" lon="-4.13702">
        <ele>584.6</ele>
        <time>2020-08-16 08:35:47</time>
      </trkpt>
      <trkpt lat="40.0847" lon="-4.13742">
        <ele>584.8</ele>
        <time>2020-08-16 08:35:54</time>
      </trkpt>
      <trkpt lat="40.08463" lon="-4.13763">
        <ele>584.6</ele>
        <time>2020-08-16 08:35:57</time>
      </trkpt>
      <trkpt lat="40.08461" lon="-4.1377">
        <ele>584.4</ele>
        <time>2020-08-16 08:35:58</time>
      </trkpt>
      <trkpt lat="40.08459" lon="-4.13777">
        <ele>584.2</ele>
        <time>2020-08-16 08:35:59</time>
      </trkpt>
      <trkpt lat="40.08457" lon="-4.13784">
        <ele>584.2</ele>
        <time>2020-08-16 08:36:00</time>
      </trkpt>
      <trkpt lat="40.08456" lon="-4.13791">
        <ele>584</ele>
        <time>2020-08-16 08:36:01</time>
      </trkpt>
      <trkpt lat="40.08454" lon="-4.13797">
        <ele>584</ele>
        <time>2020-08-16 08:36:02</time>
      </trkpt>
      <trkpt lat="40.08453" lon="-4.13803">
        <ele>583.8</ele>
        <time>2020-08-16 08:36:03</time>
      </trkpt>
      <trkpt lat="40.08451" lon="-4.13809">
        <ele>583.8</ele>
        <time>2020-08-16 08:36:04</time>
      </trkpt>
      <trkpt lat="40.0845" lon="-4.13815">
        <ele>583.6</ele>
        <time>2020-08-16 08:36:05</time>
      </trkpt>
      <trkpt lat="40.08448" lon="-4.1382">
        <ele>583.6</ele>
        <time>2020-08-16 08:36:06</time>
      </trkpt>
      <trkpt lat="40.08446" lon="-4.13826">
        <ele>583.6</ele>
        <time>2020-08-16 08:36:07</time>
      </trkpt>
      <trkpt lat="40.08444" lon="-4.13831">
        <ele>583.6</ele>
        <time>2020-08-16 08:36:08</time>
      </trkpt>
      <trkpt lat="40.08442" lon="-4.13837">
        <ele>583.6</ele>
        <time>2020-08-16 08:36:09</time>
      </trkpt>
      <trkpt lat="40.0844" lon="-4.13843">
        <ele>583.6</ele>
        <time>2020-08-16 08:36:10</time>
      </trkpt>
      <trkpt lat="40.08433" lon="-4.13863">
        <ele>583.6</ele>
        <time>2020-08-16 08:36:13</time>
      </trkpt>
      <trkpt lat="40.08418" lon="-4.13901">
        <ele>583.2</ele>
        <time>2020-08-16 08:36:17</time>
      </trkpt>
      <trkpt lat="40.08408" lon="-4.13922">
        <ele>582.4</ele>
        <time>2020-08-16 08:36:19</time>
      </trkpt>
      <trkpt lat="40.08403" lon="-4.13933">
        <ele>581.4</ele>
        <time>2020-08-16 08:36:20</time>
      </trkpt>
      <trkpt lat="40.08398" lon="-4.13943">
        <ele>580.8</ele>
        <time>2020-08-16 08:36:21</time>
      </trkpt>
      <trkpt lat="40.08392" lon="-4.13952">
        <ele>580</ele>
        <time>2020-08-16 08:36:22</time>
      </trkpt>
      <trkpt lat="40.08386" lon="-4.13961">
        <ele>579.6</ele>
        <time>2020-08-16 08:36:23</time>
      </trkpt>
      <trkpt lat="40.0838" lon="-4.13969">
        <ele>578.4</ele>
        <time>2020-08-16 08:36:24</time>
      </trkpt>
      <trkpt lat="40.08373" lon="-4.13977">
        <ele>578</ele>
        <time>2020-08-16 08:36:25</time>
      </trkpt>
      <trkpt lat="40.08366" lon="-4.13985">
        <ele>577.6</ele>
        <time>2020-08-16 08:36:26</time>
      </trkpt>
      <trkpt lat="40.0836" lon="-4.13992">
        <ele>577</ele>
        <time>2020-08-16 08:36:27</time>
      </trkpt>
      <trkpt lat="40.08348" lon="-4.14007">
        <ele>576.6</ele>
        <time>2020-08-16 08:36:29</time>
      </trkpt>
      <trkpt lat="40.08342" lon="-4.14015">
        <ele>576.4</ele>
        <time>2020-08-16 08:36:30</time>
      </trkpt>
      <trkpt lat="40.08337" lon="-4.14023">
        <ele>576</ele>
        <time>2020-08-16 08:36:31</time>
      </trkpt>
      <trkpt lat="40.08332" lon="-4.14032">
        <ele>575.6</ele>
        <time>2020-08-16 08:36:32</time>
      </trkpt>
      <trkpt lat="40.08327" lon="-4.1404">
        <ele>575</ele>
        <time>2020-08-16 08:36:33</time>
      </trkpt>
      <trkpt lat="40.08322" lon="-4.14048">
        <ele>574.6</ele>
        <time>2020-08-16 08:36:34</time>
      </trkpt>
      <trkpt lat="40.08318" lon="-4.14057">
        <ele>574.4</ele>
        <time>2020-08-16 08:36:35</time>
      </trkpt>
      <trkpt lat="40.08314" lon="-4.14066">
        <ele>574</ele>
        <time>2020-08-16 08:36:36</time>
      </trkpt>
      <trkpt lat="40.0831" lon="-4.14075">
        <ele>573.8</ele>
        <time>2020-08-16 08:36:37</time>
      </trkpt>
      <trkpt lat="40.08307" lon="-4.14084">
        <ele>573.6</ele>
        <time>2020-08-16 08:36:38</time>
      </trkpt>
      <trkpt lat="40.08305" lon="-4.14093">
        <ele>573.4</ele>
        <time>2020-08-16 08:36:39</time>
      </trkpt>
      <trkpt lat="40.08302" lon="-4.14103">
        <ele>573.2</ele>
        <time>2020-08-16 08:36:40</time>
      </trkpt>
      <trkpt lat="40.08301" lon="-4.14112">
        <ele>573</ele>
        <time>2020-08-16 08:36:41</time>
      </trkpt>
      <trkpt lat="40.08299" lon="-4.14121">
        <ele>573</ele>
        <time>2020-08-16 08:36:42</time>
      </trkpt>
      <trkpt lat="40.08298" lon="-4.1413">
        <ele>572.6</ele>
        <time>2020-08-16 08:36:43</time>
      </trkpt>
      <trkpt lat="40.08297" lon="-4.14139">
        <ele>572.4</ele>
        <time>2020-08-16 08:36:44</time>
      </trkpt>
      <trkpt lat="40.08297" lon="-4.14147">
        <ele>572</ele>
        <time>2020-08-16 08:36:45</time>
      </trkpt>
      <trkpt lat="40.08296" lon="-4.14155">
        <ele>572</ele>
        <time>2020-08-16 08:36:46</time>
      </trkpt>
      <trkpt lat="40.08295" lon="-4.14163">
        <ele>571.8</ele>
        <time>2020-08-16 08:36:47</time>
      </trkpt>
      <trkpt lat="40.08294" lon="-4.14171">
        <ele>571.8</ele>
        <time>2020-08-16 08:36:48</time>
      </trkpt>
      <trkpt lat="40.08293" lon="-4.14179">
        <ele>571.8</ele>
        <time>2020-08-16 08:36:49</time>
      </trkpt>
      <trkpt lat="40.08291" lon="-4.14186">
        <ele>571.6</ele>
        <time>2020-08-16 08:36:50</time>
      </trkpt>
      <trkpt lat="40.08289" lon="-4.14201">
        <ele>571.6</ele>
        <time>2020-08-16 08:36:52</time>
      </trkpt>
      <trkpt lat="40.08287" lon="-4.14207">
        <ele>571.6</ele>
        <time>2020-08-16 08:36:53</time>
      </trkpt>
      <trkpt lat="40.08286" lon="-4.14214">
        <ele>571.6</ele>
        <time>2020-08-16 08:36:54</time>
      </trkpt>
      <trkpt lat="40.08284" lon="-4.1422">
        <ele>571.6</ele>
        <time>2020-08-16 08:36:55</time>
      </trkpt>
      <trkpt lat="40.08282" lon="-4.14226">
        <ele>571.6</ele>
        <time>2020-08-16 08:36:56</time>
      </trkpt>
      <trkpt lat="40.0828" lon="-4.14232">
        <ele>572</ele>
        <time>2020-08-16 08:36:57</time>
      </trkpt>
      <trkpt lat="40.08278" lon="-4.14238">
        <ele>572</ele>
        <time>2020-08-16 08:36:58</time>
      </trkpt>
      <trkpt lat="40.08276" lon="-4.1425">
        <ele>572.2</ele>
        <time>2020-08-16 08:37:00</time>
      </trkpt>
      <trkpt lat="40.08275" lon="-4.14256">
        <ele>572.4</ele>
        <time>2020-08-16 08:37:01</time>
      </trkpt>
      <trkpt lat="40.08274" lon="-4.14261">
        <ele>572.4</ele>
        <time>2020-08-16 08:37:02</time>
      </trkpt>
      <trkpt lat="40.08273" lon="-4.14267">
        <ele>572.6</ele>
        <time>2020-08-16 08:37:03</time>
      </trkpt>
      <trkpt lat="40.08272" lon="-4.14273">
        <ele>572.8</ele>
        <time>2020-08-16 08:37:04</time>
      </trkpt>
      <trkpt lat="40.08271" lon="-4.14278">
        <ele>572.8</ele>
        <time>2020-08-16 08:37:05</time>
      </trkpt>
      <trkpt lat="40.0827" lon="-4.14283">
        <ele>573</ele>
        <time>2020-08-16 08:37:06</time>
      </trkpt>
      <trkpt lat="40.08269" lon="-4.14289">
        <ele>573.2</ele>
        <time>2020-08-16 08:37:07</time>
      </trkpt>
      <trkpt lat="40.08268" lon="-4.14294">
        <ele>573.6</ele>
        <time>2020-08-16 08:37:08</time>
      </trkpt>
      <trkpt lat="40.08267" lon="-4.14298">
        <ele>573.8</ele>
        <time>2020-08-16 08:37:09</time>
      </trkpt>
      <trkpt lat="40.08266" lon="-4.14303">
        <ele>574</ele>
        <time>2020-08-16 08:37:10</time>
      </trkpt>
      <trkpt lat="40.08265" lon="-4.14307">
        <ele>574.4</ele>
        <time>2020-08-16 08:37:11</time>
      </trkpt>
      <trkpt lat="40.08263" lon="-4.14311">
        <ele>574.4</ele>
        <time>2020-08-16 08:37:12</time>
      </trkpt>
      <trkpt lat="40.08262" lon="-4.14315">
        <ele>574.6</ele>
        <time>2020-08-16 08:37:13</time>
      </trkpt>
      <trkpt lat="40.08261" lon="-4.14319">
        <ele>575</ele>
        <time>2020-08-16 08:37:14</time>
      </trkpt>
      <trkpt lat="40.0826" lon="-4.14323">
        <ele>575.4</ele>
        <time>2020-08-16 08:37:15</time>
      </trkpt>
      <trkpt lat="40.08259" lon="-4.14326">
        <ele>575.6</ele>
        <time>2020-08-16 08:37:16</time>
      </trkpt>
      <trkpt lat="40.08257" lon="-4.1433">
        <ele>575.8</ele>
        <time>2020-08-16 08:37:17</time>
      </trkpt>
      <trkpt lat="40.08255" lon="-4.14334">
        <ele>576</ele>
        <time>2020-08-16 08:37:18</time>
      </trkpt>
      <trkpt lat="40.08253" lon="-4.14338">
        <ele>576.2</ele>
        <time>2020-08-16 08:37:19</time>
      </trkpt>
      <trkpt lat="40.08251" lon="-4.14342">
        <ele>576.6</ele>
        <time>2020-08-16 08:37:20</time>
      </trkpt>
      <trkpt lat="40.0825" lon="-4.14345">
        <ele>576.8</ele>
        <time>2020-08-16 08:37:21</time>
      </trkpt>
      <trkpt lat="40.08248" lon="-4.14349">
        <ele>577</ele>
        <time>2020-08-16 08:37:22</time>
      </trkpt>
      <trkpt lat="40.08246" lon="-4.14353">
        <ele>577</ele>
        <time>2020-08-16 08:37:23</time>
      </trkpt>
      <trkpt lat="40.08244" lon="-4.14357">
        <ele>577.2</ele>
        <time>2020-08-16 08:37:24</time>
      </trkpt>
      <trkpt lat="40.08242" lon="-4.14361">
        <ele>577.4</ele>
        <time>2020-08-16 08:37:25</time>
      </trkpt>
      <trkpt lat="40.0824" lon="-4.14365">
        <ele>577.6</ele>
        <time>2020-08-16 08:37:26</time>
      </trkpt>
      <trkpt lat="40.08238" lon="-4.14369">
        <ele>577.6</ele>
        <time>2020-08-16 08:37:27</time>
      </trkpt>
      <trkpt lat="40.08236" lon="-4.14373">
        <ele>577.6</ele>
        <time>2020-08-16 08:37:28</time>
      </trkpt>
      <trkpt lat="40.08234" lon="-4.14377">
        <ele>577.8</ele>
        <time>2020-08-16 08:37:29</time>
      </trkpt>
      <trkpt lat="40.08232" lon="-4.1438">
        <ele>578</ele>
        <time>2020-08-16 08:37:30</time>
      </trkpt>
      <trkpt lat="40.0823" lon="-4.14384">
        <ele>578</ele>
        <time>2020-08-16 08:37:31</time>
      </trkpt>
      <trkpt lat="40.08228" lon="-4.14388">
        <ele>578.2</ele>
        <time>2020-08-16 08:37:32</time>
      </trkpt>
      <trkpt lat="40.08226" lon="-4.14392">
        <ele>578.2</ele>
        <time>2020-08-16 08:37:33</time>
      </trkpt>
      <trkpt lat="40.08224" lon="-4.14395">
        <ele>578.2</ele>
        <time>2020-08-16 08:37:34</time>
      </trkpt>
      <trkpt lat="40.08223" lon="-4.14399">
        <ele>578.2</ele>
        <time>2020-08-16 08:37:35</time>
      </trkpt>
      <trkpt lat="40.08221" lon="-4.14403">
        <ele>578.4</ele>
        <time>2020-08-16 08:37:36</time>
      </trkpt>
      <trkpt lat="40.08219" lon="-4.14407">
        <ele>578.4</ele>
        <time>2020-08-16 08:37:37</time>
      </trkpt>
      <trkpt lat="40.08218" lon="-4.1441">
        <ele>578.6</ele>
        <time>2020-08-16 08:37:38</time>
      </trkpt>
      <trkpt lat="40.08216" lon="-4.14414">
        <ele>578.8</ele>
        <time>2020-08-16 08:37:39</time>
      </trkpt>
      <trkpt lat="40.08214" lon="-4.14417">
        <ele>579</ele>
        <time>2020-08-16 08:37:40</time>
      </trkpt>
      <trkpt lat="40.08212" lon="-4.14421">
        <ele>579.2</ele>
        <time>2020-08-16 08:37:41</time>
      </trkpt>
      <trkpt lat="40.08211" lon="-4.14425">
        <ele>579.2</ele>
        <time>2020-08-16 08:37:42</time>
      </trkpt>
      <trkpt lat="40.08209" lon="-4.14429">
        <ele>579.2</ele>
        <time>2020-08-16 08:37:43</time>
      </trkpt>
      <trkpt lat="40.08208" lon="-4.14433">
        <ele>579.4</ele>
        <time>2020-08-16 08:37:44</time>
      </trkpt>
      <trkpt lat="40.08207" lon="-4.14437">
        <ele>579.4</ele>
        <time>2020-08-16 08:37:45</time>
      </trkpt>
      <trkpt lat="40.08206" lon="-4.14441">
        <ele>579.4</ele>
        <time>2020-08-16 08:37:46</time>
      </trkpt>
      <trkpt lat="40.08205" lon="-4.14446">
        <ele>579.4</ele>
        <time>2020-08-16 08:37:47</time>
      </trkpt>
      <trkpt lat="40.08204" lon="-4.1445">
        <ele>579.6</ele>
        <time>2020-08-16 08:37:48</time>
      </trkpt>
      <trkpt lat="40.08202" lon="-4.14461">
        <ele>579.6</ele>
        <time>2020-08-16 08:37:50</time>
      </trkpt>
      <trkpt lat="40.08201" lon="-4.14467">
        <ele>579.6</ele>
        <time>2020-08-16 08:37:51</time>
      </trkpt>
      <trkpt lat="40.08197" lon="-4.14486">
        <ele>579.4</ele>
        <time>2020-08-16 08:37:54</time>
      </trkpt>
      <trkpt lat="40.08195" lon="-4.14498">
        <ele>579</ele>
        <time>2020-08-16 08:37:56</time>
      </trkpt>
      <trkpt lat="40.08194" lon="-4.14504">
        <ele>578.8</ele>
        <time>2020-08-16 08:37:57</time>
      </trkpt>
      <trkpt lat="40.08193" lon="-4.1451">
        <ele>578.8</ele>
        <time>2020-08-16 08:37:58</time>
      </trkpt>
      <trkpt lat="40.08191" lon="-4.14531">
        <ele>578.4</ele>
        <time>2020-08-16 08:38:01</time>
      </trkpt>
      <trkpt lat="40.08188" lon="-4.14553">
        <ele>578.2</ele>
        <time>2020-08-16 08:38:04</time>
      </trkpt>
      <trkpt lat="40.08186" lon="-4.14567">
        <ele>577.6</ele>
        <time>2020-08-16 08:38:06</time>
      </trkpt>
      <trkpt lat="40.08186" lon="-4.14571">
        <ele>577.4</ele>
        <time>2020-08-16 08:38:07</time>
      </trkpt>
      <trkpt lat="40.08185" lon="-4.14576">
        <ele>576.8</ele>
        <time>2020-08-16 08:38:08</time>
      </trkpt>
      <trkpt lat="40.08185" lon="-4.1458">
        <ele>576.8</ele>
        <time>2020-08-16 08:38:09</time>
      </trkpt>
      <trkpt lat="40.08184" lon="-4.14584">
        <ele>576.4</ele>
        <time>2020-08-16 08:38:10</time>
      </trkpt>
      <trkpt lat="40.08183" lon="-4.146">
        <ele>575.8</ele>
        <time>2020-08-16 08:38:13</time>
      </trkpt>
      <trkpt lat="40.08182" lon="-4.14614">
        <ele>575.6</ele>
        <time>2020-08-16 08:38:15</time>
      </trkpt>
      <trkpt lat="40.08179" lon="-4.14656">
        <ele>574.2</ele>
        <time>2020-08-16 08:38:20</time>
      </trkpt>
      <trkpt lat="40.08176" lon="-4.14688">
        <ele>573</ele>
        <time>2020-08-16 08:38:23</time>
      </trkpt>
      <trkpt lat="40.08175" lon="-4.147">
        <ele>572.4</ele>
        <time>2020-08-16 08:38:24</time>
      </trkpt>
      <trkpt lat="40.08175" lon="-4.14711">
        <ele>572</ele>
        <time>2020-08-16 08:38:25</time>
      </trkpt>
      <trkpt lat="40.08173" lon="-4.14736">
        <ele>571.4</ele>
        <time>2020-08-16 08:38:27</time>
      </trkpt>
      <trkpt lat="40.08173" lon="-4.14761">
        <ele>570</ele>
        <time>2020-08-16 08:38:29</time>
      </trkpt>
      <trkpt lat="40.08172" lon="-4.14774">
        <ele>569.6</ele>
        <time>2020-08-16 08:38:30</time>
      </trkpt>
      <trkpt lat="40.08172" lon="-4.14786">
        <ele>568.8</ele>
        <time>2020-08-16 08:38:31</time>
      </trkpt>
      <trkpt lat="40.08171" lon="-4.14798">
        <ele>567.8</ele>
        <time>2020-08-16 08:38:32</time>
      </trkpt>
      <trkpt lat="40.08171" lon="-4.1481">
        <ele>567.4</ele>
        <time>2020-08-16 08:38:33</time>
      </trkpt>
      <trkpt lat="40.0817" lon="-4.14822">
        <ele>566.6</ele>
        <time>2020-08-16 08:38:34</time>
      </trkpt>
      <trkpt lat="40.08169" lon="-4.14834">
        <ele>566.2</ele>
        <time>2020-08-16 08:38:35</time>
      </trkpt>
      <trkpt lat="40.08168" lon="-4.14845">
        <ele>565.6</ele>
        <time>2020-08-16 08:38:36</time>
      </trkpt>
      <trkpt lat="40.08167" lon="-4.14856">
        <ele>565.4</ele>
        <time>2020-08-16 08:38:37</time>
      </trkpt>
      <trkpt lat="40.08165" lon="-4.14867">
        <ele>564.8</ele>
        <time>2020-08-16 08:38:38</time>
      </trkpt>
      <trkpt lat="40.08162" lon="-4.14877">
        <ele>564.6</ele>
        <time>2020-08-16 08:38:39</time>
      </trkpt>
      <trkpt lat="40.0816" lon="-4.14887">
        <ele>564.4</ele>
        <time>2020-08-16 08:38:40</time>
      </trkpt>
      <trkpt lat="40.08156" lon="-4.14896">
        <ele>564</ele>
        <time>2020-08-16 08:38:41</time>
      </trkpt>
      <trkpt lat="40.08152" lon="-4.14906">
        <ele>563.8</ele>
        <time>2020-08-16 08:38:42</time>
      </trkpt>
      <trkpt lat="40.08137" lon="-4.14932">
        <ele>563</ele>
        <time>2020-08-16 08:38:45</time>
      </trkpt>
      <trkpt lat="40.08133" lon="-4.1494">
        <ele>563</ele>
        <time>2020-08-16 08:38:46</time>
      </trkpt>
      <trkpt lat="40.08131" lon="-4.14947">
        <ele>562.8</ele>
        <time>2020-08-16 08:38:47</time>
      </trkpt>
      <trkpt lat="40.08128" lon="-4.14954">
        <ele>562.6</ele>
        <time>2020-08-16 08:38:48</time>
      </trkpt>
      <trkpt lat="40.08126" lon="-4.14961">
        <ele>562.6</ele>
        <time>2020-08-16 08:38:49</time>
      </trkpt>
      <trkpt lat="40.08124" lon="-4.14967">
        <ele>562.4</ele>
        <time>2020-08-16 08:38:50</time>
      </trkpt>
      <trkpt lat="40.08121" lon="-4.14972">
        <ele>562.4</ele>
        <time>2020-08-16 08:38:51</time>
      </trkpt>
      <trkpt lat="40.08118" lon="-4.14977">
        <ele>562.4</ele>
        <time>2020-08-16 08:38:52</time>
      </trkpt>
      <trkpt lat="40.08115" lon="-4.14981">
        <ele>562.4</ele>
        <time>2020-08-16 08:38:53</time>
      </trkpt>
      <trkpt lat="40.08113" lon="-4.14985">
        <ele>562.2</ele>
        <time>2020-08-16 08:38:54</time>
      </trkpt>
      <trkpt lat="40.0811" lon="-4.14988">
        <ele>562.4</ele>
        <time>2020-08-16 08:38:55</time>
      </trkpt>
      <trkpt lat="40.08109" lon="-4.14992">
        <ele>562.4</ele>
        <time>2020-08-16 08:38:56</time>
      </trkpt>
      <trkpt lat="40.08107" lon="-4.14995">
        <ele>562.4</ele>
        <time>2020-08-16 08:38:57</time>
      </trkpt>
      <trkpt lat="40.08106" lon="-4.14998">
        <ele>562.4</ele>
        <time>2020-08-16 08:38:58</time>
      </trkpt>
      <trkpt lat="40.08105" lon="-4.15">
        <ele>562.6</ele>
        <time>2020-08-16 08:38:59</time>
      </trkpt>
      <trkpt lat="40.08103" lon="-4.15003">
        <ele>562.6</ele>
        <time>2020-08-16 08:39:00</time>
      </trkpt>
      <trkpt lat="40.08099" lon="-4.15012">
        <ele>562.8</ele>
        <time>2020-08-16 08:39:03</time>
      </trkpt>
      <trkpt lat="40.08097" lon="-4.15015">
        <ele>562.8</ele>
        <time>2020-08-16 08:39:04</time>
      </trkpt>
      <trkpt lat="40.08095" lon="-4.15017">
        <ele>563</ele>
        <time>2020-08-16 08:39:05</time>
      </trkpt>
      <trkpt lat="40.08094" lon="-4.1502">
        <ele>563</ele>
        <time>2020-08-16 08:39:06</time>
      </trkpt>
      <trkpt lat="40.08093" lon="-4.15023">
        <ele>563</ele>
        <time>2020-08-16 08:39:07</time>
      </trkpt>
      <trkpt lat="40.08087" lon="-4.15036">
        <ele>563.6</ele>
        <time>2020-08-16 08:39:11</time>
      </trkpt>
      <trkpt lat="40.08085" lon="-4.15039">
        <ele>563.6</ele>
        <time>2020-08-16 08:39:12</time>
      </trkpt>
      <trkpt lat="40.08084" lon="-4.15042">
        <ele>563.8</ele>
        <time>2020-08-16 08:39:13</time>
      </trkpt>
      <trkpt lat="40.08082" lon="-4.15049">
        <ele>563.8</ele>
        <time>2020-08-16 08:39:15</time>
      </trkpt>
      <trkpt lat="40.08078" lon="-4.1506">
        <ele>564.2</ele>
        <time>2020-08-16 08:39:18</time>
      </trkpt>
      <trkpt lat="40.08076" lon="-4.15067">
        <ele>564.4</ele>
        <time>2020-08-16 08:39:20</time>
      </trkpt>
      <trkpt lat="40.08075" lon="-4.1507">
        <ele>564.4</ele>
        <time>2020-08-16 08:39:21</time>
      </trkpt>
      <trkpt lat="40.08073" lon="-4.15073">
        <ele>564.6</ele>
        <time>2020-08-16 08:39:22</time>
      </trkpt>
      <trkpt lat="40.08072" lon="-4.15077">
        <ele>564.6</ele>
        <time>2020-08-16 08:39:23</time>
      </trkpt>
      <trkpt lat="40.08071" lon="-4.1508">
        <ele>565</ele>
        <time>2020-08-16 08:39:24</time>
      </trkpt>
      <trkpt lat="40.08069" lon="-4.15083">
        <ele>565.2</ele>
        <time>2020-08-16 08:39:25</time>
      </trkpt>
      <trkpt lat="40.08068" lon="-4.15087">
        <ele>565.2</ele>
        <time>2020-08-16 08:39:26</time>
      </trkpt>
      <trkpt lat="40.08067" lon="-4.1509">
        <ele>565.4</ele>
        <time>2020-08-16 08:39:27</time>
      </trkpt>
      <trkpt lat="40.08065" lon="-4.15093">
        <ele>565.6</ele>
        <time>2020-08-16 08:39:28</time>
      </trkpt>
      <trkpt lat="40.08064" lon="-4.15097">
        <ele>565.6</ele>
        <time>2020-08-16 08:39:29</time>
      </trkpt>
      <trkpt lat="40.08063" lon="-4.151">
        <ele>565.6</ele>
        <time>2020-08-16 08:39:30</time>
      </trkpt>
      <trkpt lat="40.08062" lon="-4.15104">
        <ele>565.8</ele>
        <time>2020-08-16 08:39:31</time>
      </trkpt>
      <trkpt lat="40.08061" lon="-4.15108">
        <ele>565.8</ele>
        <time>2020-08-16 08:39:32</time>
      </trkpt>
      <trkpt lat="40.0806" lon="-4.15111">
        <ele>566</ele>
        <time>2020-08-16 08:39:33</time>
      </trkpt>
      <trkpt lat="40.08058" lon="-4.15115">
        <ele>566.2</ele>
        <time>2020-08-16 08:39:34</time>
      </trkpt>
      <trkpt lat="40.08056" lon="-4.15118">
        <ele>566.4</ele>
        <time>2020-08-16 08:39:35</time>
      </trkpt>
      <trkpt lat="40.08054" lon="-4.15121">
        <ele>566.4</ele>
        <time>2020-08-16 08:39:36</time>
      </trkpt>
      <trkpt lat="40.08053" lon="-4.15124">
        <ele>566.6</ele>
        <time>2020-08-16 08:39:37</time>
      </trkpt>
      <trkpt lat="40.08051" lon="-4.15128">
        <ele>566.8</ele>
        <time>2020-08-16 08:39:38</time>
      </trkpt>
      <trkpt lat="40.0805" lon="-4.15131">
        <ele>566.8</ele>
        <time>2020-08-16 08:39:39</time>
      </trkpt>
      <trkpt lat="40.08049" lon="-4.15135">
        <ele>567</ele>
        <time>2020-08-16 08:39:40</time>
      </trkpt>
      <trkpt lat="40.08048" lon="-4.15138">
        <ele>567</ele>
        <time>2020-08-16 08:39:41</time>
      </trkpt>
      <trkpt lat="40.08047" lon="-4.15141">
        <ele>567.2</ele>
        <time>2020-08-16 08:39:42</time>
      </trkpt>
      <trkpt lat="40.08045" lon="-4.15144">
        <ele>567.2</ele>
        <time>2020-08-16 08:39:43</time>
      </trkpt>
      <trkpt lat="40.08044" lon="-4.15147">
        <ele>567.4</ele>
        <time>2020-08-16 08:39:44</time>
      </trkpt>
      <trkpt lat="40.08043" lon="-4.1515">
        <ele>567.6</ele>
        <time>2020-08-16 08:39:45</time>
      </trkpt>
      <trkpt lat="40.08042" lon="-4.15153">
        <ele>567.8</ele>
        <time>2020-08-16 08:39:46</time>
      </trkpt>
      <trkpt lat="40.0804" lon="-4.15156">
        <ele>568</ele>
        <time>2020-08-16 08:39:47</time>
      </trkpt>
      <trkpt lat="40.08039" lon="-4.15158">
        <ele>568.2</ele>
        <time>2020-08-16 08:39:48</time>
      </trkpt>
      <trkpt lat="40.08038" lon="-4.15161">
        <ele>568.4</ele>
        <time>2020-08-16 08:39:49</time>
      </trkpt>
      <trkpt lat="40.08037" lon="-4.15164">
        <ele>568.8</ele>
        <time>2020-08-16 08:39:50</time>
      </trkpt>
      <trkpt lat="40.08036" lon="-4.15166">
        <ele>569.2</ele>
        <time>2020-08-16 08:39:51</time>
      </trkpt>
      <trkpt lat="40.08036" lon="-4.15169">
        <ele>569.4</ele>
        <time>2020-08-16 08:39:52</time>
      </trkpt>
      <trkpt lat="40.08035" lon="-4.15171">
        <ele>569.8</ele>
        <time>2020-08-16 08:39:53</time>
      </trkpt>
      <trkpt lat="40.08035" lon="-4.15173">
        <ele>569.8</ele>
        <time>2020-08-16 08:39:54</time>
      </trkpt>
      <trkpt lat="40.08035" lon="-4.15176">
        <ele>570.2</ele>
        <time>2020-08-16 08:39:55</time>
      </trkpt>
      <trkpt lat="40.08035" lon="-4.15179">
        <ele>570.4</ele>
        <time>2020-08-16 08:39:56</time>
      </trkpt>
      <trkpt lat="40.08035" lon="-4.15181">
        <ele>570.8</ele>
        <time>2020-08-16 08:39:57</time>
      </trkpt>
      <trkpt lat="40.08034" lon="-4.15183">
        <ele>570.8</ele>
        <time>2020-08-16 08:39:58</time>
      </trkpt>
      <trkpt lat="40.08034" lon="-4.15186">
        <ele>571.2</ele>
        <time>2020-08-16 08:39:59</time>
      </trkpt>
      <trkpt lat="40.08033" lon="-4.15188">
        <ele>571.6</ele>
        <time>2020-08-16 08:40:00</time>
      </trkpt>
      <trkpt lat="40.08033" lon="-4.1519">
        <ele>571.8</ele>
        <time>2020-08-16 08:40:01</time>
      </trkpt>
      <trkpt lat="40.08033" lon="-4.15193">
        <ele>572</ele>
        <time>2020-08-16 08:40:02</time>
      </trkpt>
      <trkpt lat="40.08033" lon="-4.15196">
        <ele>572.2</ele>
        <time>2020-08-16 08:40:03</time>
      </trkpt>
      <trkpt lat="40.08032" lon="-4.15198">
        <ele>572.6</ele>
        <time>2020-08-16 08:40:04</time>
      </trkpt>
      <trkpt lat="40.08032" lon="-4.15201">
        <ele>572.6</ele>
        <time>2020-08-16 08:40:05</time>
      </trkpt>
      <trkpt lat="40.08031" lon="-4.15204">
        <ele>572.8</ele>
        <time>2020-08-16 08:40:06</time>
      </trkpt>
      <trkpt lat="40.08031" lon="-4.15207">
        <ele>573</ele>
        <time>2020-08-16 08:40:07</time>
      </trkpt>
      <trkpt lat="40.08031" lon="-4.15209">
        <ele>573.2</ele>
        <time>2020-08-16 08:40:08</time>
      </trkpt>
      <trkpt lat="40.0803" lon="-4.15212">
        <ele>573.6</ele>
        <time>2020-08-16 08:40:09</time>
      </trkpt>
      <trkpt lat="40.0803" lon="-4.15215">
        <ele>573.6</ele>
        <time>2020-08-16 08:40:10</time>
      </trkpt>
      <trkpt lat="40.08031" lon="-4.15218">
        <ele>573.8</ele>
        <time>2020-08-16 08:40:11</time>
      </trkpt>
      <trkpt lat="40.08031" lon="-4.15221">
        <ele>574</ele>
        <time>2020-08-16 08:40:12</time>
      </trkpt>
      <trkpt lat="40.08032" lon="-4.15223">
        <ele>574.4</ele>
        <time>2020-08-16 08:40:13</time>
      </trkpt>
      <trkpt lat="40.08032" lon="-4.15226">
        <ele>574.4</ele>
        <time>2020-08-16 08:40:14</time>
      </trkpt>
      <trkpt lat="40.08032" lon="-4.15229">
        <ele>574.8</ele>
        <time>2020-08-16 08:40:15</time>
      </trkpt>
      <trkpt lat="40.08032" lon="-4.15232">
        <ele>575</ele>
        <time>2020-08-16 08:40:16</time>
      </trkpt>
      <trkpt lat="40.08032" lon="-4.15235">
        <ele>575</ele>
        <time>2020-08-16 08:40:17</time>
      </trkpt>
      <trkpt lat="40.08032" lon="-4.15238">
        <ele>575.2</ele>
        <time>2020-08-16 08:40:18</time>
      </trkpt>
      <trkpt lat="40.08031" lon="-4.15241">
        <ele>575.2</ele>
        <time>2020-08-16 08:40:19</time>
      </trkpt>
      <trkpt lat="40.0803" lon="-4.15243">
        <ele>575.8</ele>
        <time>2020-08-16 08:40:20</time>
      </trkpt>
      <trkpt lat="40.08029" lon="-4.15246">
        <ele>575.8</ele>
        <time>2020-08-16 08:40:21</time>
      </trkpt>
      <trkpt lat="40.08029" lon="-4.15249">
        <ele>576.2</ele>
        <time>2020-08-16 08:40:22</time>
      </trkpt>
      <trkpt lat="40.08028" lon="-4.15252">
        <ele>576.2</ele>
        <time>2020-08-16 08:40:23</time>
      </trkpt>
      <trkpt lat="40.08027" lon="-4.15255">
        <ele>576.4</ele>
        <time>2020-08-16 08:40:24</time>
      </trkpt>
      <trkpt lat="40.08026" lon="-4.15258">
        <ele>576.4</ele>
        <time>2020-08-16 08:40:25</time>
      </trkpt>
      <trkpt lat="40.08026" lon="-4.1526">
        <ele>576.6</ele>
        <time>2020-08-16 08:40:26</time>
      </trkpt>
      <trkpt lat="40.08025" lon="-4.15263">
        <ele>576.8</ele>
        <time>2020-08-16 08:40:27</time>
      </trkpt>
      <trkpt lat="40.08024" lon="-4.15265">
        <ele>577</ele>
        <time>2020-08-16 08:40:28</time>
      </trkpt>
      <trkpt lat="40.08023" lon="-4.15268">
        <ele>577.2</ele>
        <time>2020-08-16 08:40:29</time>
      </trkpt>
      <trkpt lat="40.08022" lon="-4.15271">
        <ele>577.2</ele>
        <time>2020-08-16 08:40:30</time>
      </trkpt>
      <trkpt lat="40.08022" lon="-4.15273">
        <ele>577.4</ele>
        <time>2020-08-16 08:40:31</time>
      </trkpt>
      <trkpt lat="40.08021" lon="-4.15276">
        <ele>577.4</ele>
        <time>2020-08-16 08:40:32</time>
      </trkpt>
      <trkpt lat="40.0802" lon="-4.15279">
        <ele>577.4</ele>
        <time>2020-08-16 08:40:33</time>
      </trkpt>
      <trkpt lat="40.08019" lon="-4.15282">
        <ele>577.8</ele>
        <time>2020-08-16 08:40:34</time>
      </trkpt>
      <trkpt lat="40.08018" lon="-4.15285">
        <ele>578</ele>
        <time>2020-08-16 08:40:35</time>
      </trkpt>
      <trkpt lat="40.08018" lon="-4.15288">
        <ele>578.2</ele>
        <time>2020-08-16 08:40:36</time>
      </trkpt>
      <trkpt lat="40.08016" lon="-4.1529">
        <ele>578.4</ele>
        <time>2020-08-16 08:40:37</time>
      </trkpt>
      <trkpt lat="40.08016" lon="-4.15294">
        <ele>578.4</ele>
        <time>2020-08-16 08:40:38</time>
      </trkpt>
      <trkpt lat="40.08015" lon="-4.15297">
        <ele>578.6</ele>
        <time>2020-08-16 08:40:39</time>
      </trkpt>
      <trkpt lat="40.08014" lon="-4.15299">
        <ele>578.6</ele>
        <time>2020-08-16 08:40:40</time>
      </trkpt>
      <trkpt lat="40.08013" lon="-4.15302">
        <ele>578.8</ele>
        <time>2020-08-16 08:40:41</time>
      </trkpt>
      <trkpt lat="40.08012" lon="-4.15305">
        <ele>579</ele>
        <time>2020-08-16 08:40:42</time>
      </trkpt>
      <trkpt lat="40.08012" lon="-4.15308">
        <ele>579</ele>
        <time>2020-08-16 08:40:43</time>
      </trkpt>
      <trkpt lat="40.08011" lon="-4.15311">
        <ele>579.2</ele>
        <time>2020-08-16 08:40:44</time>
      </trkpt>
      <trkpt lat="40.0801" lon="-4.15315">
        <ele>579.4</ele>
        <time>2020-08-16 08:40:45</time>
      </trkpt>
      <trkpt lat="40.0801" lon="-4.15318">
        <ele>579.4</ele>
        <time>2020-08-16 08:40:46</time>
      </trkpt>
      <trkpt lat="40.0801" lon="-4.15322">
        <ele>579.6</ele>
        <time>2020-08-16 08:40:47</time>
      </trkpt>
      <trkpt lat="40.08009" lon="-4.15325">
        <ele>579.6</ele>
        <time>2020-08-16 08:40:48</time>
      </trkpt>
      <trkpt lat="40.08008" lon="-4.15329">
        <ele>579.6</ele>
        <time>2020-08-16 08:40:49</time>
      </trkpt>
      <trkpt lat="40.08007" lon="-4.15332">
        <ele>579.8</ele>
        <time>2020-08-16 08:40:50</time>
      </trkpt>
      <trkpt lat="40.08006" lon="-4.15339">
        <ele>579.8</ele>
        <time>2020-08-16 08:40:52</time>
      </trkpt>
      <trkpt lat="40.08005" lon="-4.15343">
        <ele>579.8</ele>
        <time>2020-08-16 08:40:53</time>
      </trkpt>
      <trkpt lat="40.08003" lon="-4.1535">
        <ele>579.8</ele>
        <time>2020-08-16 08:40:55</time>
      </trkpt>
      <trkpt lat="40.08001" lon="-4.15353">
        <ele>579.8</ele>
        <time>2020-08-16 08:40:56</time>
      </trkpt>
      <trkpt lat="40.07998" lon="-4.15358">
        <ele>579.6</ele>
        <time>2020-08-16 08:40:58</time>
      </trkpt>
      <trkpt lat="40.07996" lon="-4.15362">
        <ele>579.8</ele>
        <time>2020-08-16 08:40:59</time>
      </trkpt>
      <trkpt lat="40.07994" lon="-4.15369">
        <ele>579.8</ele>
        <time>2020-08-16 08:41:01</time>
      </trkpt>
      <trkpt lat="40.07992" lon="-4.15376">
        <ele>580</ele>
        <time>2020-08-16 08:41:03</time>
      </trkpt>
      <trkpt lat="40.07991" lon="-4.1538">
        <ele>580</ele>
        <time>2020-08-16 08:41:04</time>
      </trkpt>
      <trkpt lat="40.07987" lon="-4.15395">
        <ele>580</ele>
        <time>2020-08-16 08:41:08</time>
      </trkpt>
      <trkpt lat="40.07985" lon="-4.15408">
        <ele>580</ele>
        <time>2020-08-16 08:41:11</time>
      </trkpt>
      <trkpt lat="40.07982" lon="-4.15421">
        <ele>580</ele>
        <time>2020-08-16 08:41:14</time>
      </trkpt>
      <trkpt lat="40.07979" lon="-4.15435">
        <ele>579.8</ele>
        <time>2020-08-16 08:41:17</time>
      </trkpt>
      <trkpt lat="40.07977" lon="-4.15443">
        <ele>579.6</ele>
        <time>2020-08-16 08:41:19</time>
      </trkpt>
      <trkpt lat="40.07973" lon="-4.15472">
        <ele>579.6</ele>
        <time>2020-08-16 08:41:25</time>
      </trkpt>
      <trkpt lat="40.0797" lon="-4.15487">
        <ele>579.6</ele>
        <time>2020-08-16 08:41:28</time>
      </trkpt>
      <trkpt lat="40.07968" lon="-4.15497">
        <ele>579.6</ele>
        <time>2020-08-16 08:41:30</time>
      </trkpt>
      <trkpt lat="40.07966" lon="-4.15507">
        <ele>579.6</ele>
        <time>2020-08-16 08:41:32</time>
      </trkpt>
      <trkpt lat="40.07957" lon="-4.15556">
        <ele>579</ele>
        <time>2020-08-16 08:41:41</time>
      </trkpt>
      <trkpt lat="40.07946" lon="-4.15613">
        <ele>578.6</ele>
        <time>2020-08-16 08:41:51</time>
      </trkpt>
      <trkpt lat="40.07936" lon="-4.15655">
        <ele>578.2</ele>
        <time>2020-08-16 08:41:58</time>
      </trkpt>
      <trkpt lat="40.07931" lon="-4.15679">
        <ele>578</ele>
        <time>2020-08-16 08:42:02</time>
      </trkpt>
      <trkpt lat="40.07925" lon="-4.15711">
        <ele>577.8</ele>
        <time>2020-08-16 08:42:07</time>
      </trkpt>
      <trkpt lat="40.0792" lon="-4.15768">
        <ele>576.8</ele>
        <time>2020-08-16 08:42:16</time>
      </trkpt>
      <trkpt lat="40.07917" lon="-4.15794">
        <ele>576.6</ele>
        <time>2020-08-16 08:42:20</time>
      </trkpt>
      <trkpt lat="40.07913" lon="-4.1582">
        <ele>576.4</ele>
        <time>2020-08-16 08:42:24</time>
      </trkpt>
      <trkpt lat="40.0791" lon="-4.15853">
        <ele>576.2</ele>
        <time>2020-08-16 08:42:29</time>
      </trkpt>
      <trkpt lat="40.07902" lon="-4.15917">
        <ele>575.8</ele>
        <time>2020-08-16 08:42:39</time>
      </trkpt>
      <trkpt lat="40.07901" lon="-4.15924">
        <ele>575.8</ele>
        <time>2020-08-16 08:42:40</time>
      </trkpt>
      <trkpt lat="40.07901" lon="-4.1593">
        <ele>575.6</ele>
        <time>2020-08-16 08:42:41</time>
      </trkpt>
      <trkpt lat="40.079" lon="-4.15937">
        <ele>575.6</ele>
        <time>2020-08-16 08:42:42</time>
      </trkpt>
      <trkpt lat="40.079" lon="-4.15944">
        <ele>575.4</ele>
        <time>2020-08-16 08:42:43</time>
      </trkpt>
      <trkpt lat="40.07899" lon="-4.15951">
        <ele>575.4</ele>
        <time>2020-08-16 08:42:44</time>
      </trkpt>
      <trkpt lat="40.07899" lon="-4.15957">
        <ele>575.4</ele>
        <time>2020-08-16 08:42:45</time>
      </trkpt>
      <trkpt lat="40.07892" lon="-4.16002">
        <ele>575</ele>
        <time>2020-08-16 08:42:52</time>
      </trkpt>
      <trkpt lat="40.07891" lon="-4.16008">
        <ele>574.8</ele>
        <time>2020-08-16 08:42:53</time>
      </trkpt>
      <trkpt lat="40.0789" lon="-4.16013">
        <ele>574.8</ele>
        <time>2020-08-16 08:42:54</time>
      </trkpt>
      <trkpt lat="40.07889" lon="-4.16019">
        <ele>574.8</ele>
        <time>2020-08-16 08:42:55</time>
      </trkpt>
      <trkpt lat="40.07888" lon="-4.16025">
        <ele>574.6</ele>
        <time>2020-08-16 08:42:56</time>
      </trkpt>
      <trkpt lat="40.07887" lon="-4.16031">
        <ele>574.6</ele>
        <time>2020-08-16 08:42:57</time>
      </trkpt>
      <trkpt lat="40.07886" lon="-4.16037">
        <ele>574.6</ele>
        <time>2020-08-16 08:42:58</time>
      </trkpt>
      <trkpt lat="40.07885" lon="-4.16042">
        <ele>574.6</ele>
        <time>2020-08-16 08:42:59</time>
      </trkpt>
      <trkpt lat="40.07884" lon="-4.16048">
        <ele>574.6</ele>
        <time>2020-08-16 08:43:00</time>
      </trkpt>
      <trkpt lat="40.07883" lon="-4.16054">
        <ele>574.4</ele>
        <time>2020-08-16 08:43:01</time>
      </trkpt>
      <trkpt lat="40.07881" lon="-4.1606">
        <ele>574.4</ele>
        <time>2020-08-16 08:43:02</time>
      </trkpt>
      <trkpt lat="40.0788" lon="-4.16066">
        <ele>574.4</ele>
        <time>2020-08-16 08:43:03</time>
      </trkpt>
      <trkpt lat="40.07877" lon="-4.1609">
        <ele>574.4</ele>
        <time>2020-08-16 08:43:07</time>
      </trkpt>
      <trkpt lat="40.07876" lon="-4.16096">
        <ele>574.4</ele>
        <time>2020-08-16 08:43:08</time>
      </trkpt>
      <trkpt lat="40.07875" lon="-4.16102">
        <ele>574.2</ele>
        <time>2020-08-16 08:43:09</time>
      </trkpt>
      <trkpt lat="40.07874" lon="-4.16108">
        <ele>574.2</ele>
        <time>2020-08-16 08:43:10</time>
      </trkpt>
      <trkpt lat="40.07873" lon="-4.16113">
        <ele>573.8</ele>
        <time>2020-08-16 08:43:11</time>
      </trkpt>
      <trkpt lat="40.07872" lon="-4.16119">
        <ele>573.8</ele>
        <time>2020-08-16 08:43:12</time>
      </trkpt>
      <trkpt lat="40.07871" lon="-4.16125">
        <ele>573.6</ele>
        <time>2020-08-16 08:43:13</time>
      </trkpt>
      <trkpt lat="40.0787" lon="-4.16131">
        <ele>573.6</ele>
        <time>2020-08-16 08:43:14</time>
      </trkpt>
      <trkpt lat="40.07865" lon="-4.1615">
        <ele>573.4</ele>
        <time>2020-08-16 08:43:17</time>
      </trkpt>
      <trkpt lat="40.07859" lon="-4.16171">
        <ele>573</ele>
        <time>2020-08-16 08:43:20</time>
      </trkpt>
      <trkpt lat="40.07854" lon="-4.16185">
        <ele>572.4</ele>
        <time>2020-08-16 08:43:22</time>
      </trkpt>
      <trkpt lat="40.07851" lon="-4.16193">
        <ele>572</ele>
        <time>2020-08-16 08:43:23</time>
      </trkpt>
      <trkpt lat="40.07849" lon="-4.162">
        <ele>572</ele>
        <time>2020-08-16 08:43:24</time>
      </trkpt>
      <trkpt lat="40.07845" lon="-4.16215">
        <ele>571.2</ele>
        <time>2020-08-16 08:43:26</time>
      </trkpt>
      <trkpt lat="40.07843" lon="-4.16223">
        <ele>571.2</ele>
        <time>2020-08-16 08:43:27</time>
      </trkpt>
      <trkpt lat="40.07835" lon="-4.16254">
        <ele>570.2</ele>
        <time>2020-08-16 08:43:31</time>
      </trkpt>
      <trkpt lat="40.07829" lon="-4.16278">
        <ele>569.4</ele>
        <time>2020-08-16 08:43:34</time>
      </trkpt>
      <trkpt lat="40.07827" lon="-4.16286">
        <ele>569.2</ele>
        <time>2020-08-16 08:43:35</time>
      </trkpt>
      <trkpt lat="40.07825" lon="-4.16294">
        <ele>569</ele>
        <time>2020-08-16 08:43:36</time>
      </trkpt>
      <trkpt lat="40.07817" lon="-4.16335">
        <ele>568</ele>
        <time>2020-08-16 08:43:41</time>
      </trkpt>
      <trkpt lat="40.07816" lon="-4.16342">
        <ele>567.6</ele>
        <time>2020-08-16 08:43:42</time>
      </trkpt>
      <trkpt lat="40.07815" lon="-4.1635">
        <ele>567.4</ele>
        <time>2020-08-16 08:43:43</time>
      </trkpt>
      <trkpt lat="40.07814" lon="-4.16358">
        <ele>567</ele>
        <time>2020-08-16 08:43:44</time>
      </trkpt>
      <trkpt lat="40.07814" lon="-4.16367">
        <ele>567</ele>
        <time>2020-08-16 08:43:45</time>
      </trkpt>
      <trkpt lat="40.07812" lon="-4.16375">
        <ele>566.8</ele>
        <time>2020-08-16 08:43:46</time>
      </trkpt>
      <trkpt lat="40.07811" lon="-4.16382">
        <ele>566.6</ele>
        <time>2020-08-16 08:43:47</time>
      </trkpt>
      <trkpt lat="40.07809" lon="-4.1639">
        <ele>566.6</ele>
        <time>2020-08-16 08:43:48</time>
      </trkpt>
      <trkpt lat="40.07807" lon="-4.16396">
        <ele>566.4</ele>
        <time>2020-08-16 08:43:49</time>
      </trkpt>
      <trkpt lat="40.07804" lon="-4.16403">
        <ele>566.4</ele>
        <time>2020-08-16 08:43:50</time>
      </trkpt>
      <trkpt lat="40.07801" lon="-4.16409">
        <ele>566.2</ele>
        <time>2020-08-16 08:43:51</time>
      </trkpt>
      <trkpt lat="40.07799" lon="-4.16415">
        <ele>566.2</ele>
        <time>2020-08-16 08:43:52</time>
      </trkpt>
      <trkpt lat="40.07796" lon="-4.16421">
        <ele>566</ele>
        <time>2020-08-16 08:43:53</time>
      </trkpt>
      <trkpt lat="40.07793" lon="-4.16427">
        <ele>566</ele>
        <time>2020-08-16 08:43:54</time>
      </trkpt>
      <trkpt lat="40.07791" lon="-4.16433">
        <ele>565.6</ele>
        <time>2020-08-16 08:43:55</time>
      </trkpt>
      <trkpt lat="40.07788" lon="-4.16438">
        <ele>565.4</ele>
        <time>2020-08-16 08:43:56</time>
      </trkpt>
      <trkpt lat="40.07785" lon="-4.16444">
        <ele>565.4</ele>
        <time>2020-08-16 08:43:57</time>
      </trkpt>
      <trkpt lat="40.07782" lon="-4.16449">
        <ele>565.2</ele>
        <time>2020-08-16 08:43:58</time>
      </trkpt>
      <trkpt lat="40.07778" lon="-4.16454">
        <ele>565.2</ele>
        <time>2020-08-16 08:43:59</time>
      </trkpt>
      <trkpt lat="40.07774" lon="-4.1646">
        <ele>565</ele>
        <time>2020-08-16 08:44:00</time>
      </trkpt>
      <trkpt lat="40.0777" lon="-4.16465">
        <ele>565</ele>
        <time>2020-08-16 08:44:01</time>
      </trkpt>
      <trkpt lat="40.07767" lon="-4.16471">
        <ele>564.8</ele>
        <time>2020-08-16 08:44:02</time>
      </trkpt>
      <trkpt lat="40.07763" lon="-4.16476">
        <ele>564.6</ele>
        <time>2020-08-16 08:44:03</time>
      </trkpt>
      <trkpt lat="40.07759" lon="-4.16482">
        <ele>564.4</ele>
        <time>2020-08-16 08:44:04</time>
      </trkpt>
      <trkpt lat="40.07747" lon="-4.16497">
        <ele>563.8</ele>
        <time>2020-08-16 08:44:07</time>
      </trkpt>
      <trkpt lat="40.07739" lon="-4.16508">
        <ele>563.2</ele>
        <time>2020-08-16 08:44:09</time>
      </trkpt>
      <trkpt lat="40.07723" lon="-4.16528">
        <ele>562.8</ele>
        <time>2020-08-16 08:44:13</time>
      </trkpt>
      <trkpt lat="40.07715" lon="-4.16539">
        <ele>562.6</ele>
        <time>2020-08-16 08:44:15</time>
      </trkpt>
      <trkpt lat="40.07709" lon="-4.1655">
        <ele>562.4</ele>
        <time>2020-08-16 08:44:17</time>
      </trkpt>
      <trkpt lat="40.07706" lon="-4.16555">
        <ele>562.4</ele>
        <time>2020-08-16 08:44:18</time>
      </trkpt>
      <trkpt lat="40.07704" lon="-4.1656">
        <ele>562.2</ele>
        <time>2020-08-16 08:44:19</time>
      </trkpt>
      <trkpt lat="40.07701" lon="-4.16565">
        <ele>562.2</ele>
        <time>2020-08-16 08:44:20</time>
      </trkpt>
      <trkpt lat="40.07699" lon="-4.1657">
        <ele>562.2</ele>
        <time>2020-08-16 08:44:21</time>
      </trkpt>
      <trkpt lat="40.07694" lon="-4.16581">
        <ele>562.2</ele>
        <time>2020-08-16 08:44:23</time>
      </trkpt>
      <trkpt lat="40.07691" lon="-4.16586">
        <ele>562.2</ele>
        <time>2020-08-16 08:44:24</time>
      </trkpt>
      <trkpt lat="40.07689" lon="-4.16592">
        <ele>562.2</ele>
        <time>2020-08-16 08:44:25</time>
      </trkpt>
      <trkpt lat="40.07686" lon="-4.16597">
        <ele>562.2</ele>
        <time>2020-08-16 08:44:26</time>
      </trkpt>
      <trkpt lat="40.07684" lon="-4.16602">
        <ele>562</ele>
        <time>2020-08-16 08:44:27</time>
      </trkpt>
      <trkpt lat="40.07681" lon="-4.16608">
        <ele>562.2</ele>
        <time>2020-08-16 08:44:28</time>
      </trkpt>
      <trkpt lat="40.07679" lon="-4.16613">
        <ele>562.2</ele>
        <time>2020-08-16 08:44:29</time>
      </trkpt>
      <trkpt lat="40.07676" lon="-4.16618">
        <ele>562.2</ele>
        <time>2020-08-16 08:44:30</time>
      </trkpt>
      <trkpt lat="40.07674" lon="-4.16624">
        <ele>562.2</ele>
        <time>2020-08-16 08:44:31</time>
      </trkpt>
      <trkpt lat="40.07671" lon="-4.16629">
        <ele>562.2</ele>
        <time>2020-08-16 08:44:32</time>
      </trkpt>
      <trkpt lat="40.07669" lon="-4.16635">
        <ele>562.2</ele>
        <time>2020-08-16 08:44:33</time>
      </trkpt>
      <trkpt lat="40.07666" lon="-4.1664">
        <ele>562.2</ele>
        <time>2020-08-16 08:44:34</time>
      </trkpt>
      <trkpt lat="40.07664" lon="-4.16645">
        <ele>562.2</ele>
        <time>2020-08-16 08:44:35</time>
      </trkpt>
      <trkpt lat="40.07662" lon="-4.16651">
        <ele>562.2</ele>
        <time>2020-08-16 08:44:36</time>
      </trkpt>
      <trkpt lat="40.07659" lon="-4.16656">
        <ele>562.2</ele>
        <time>2020-08-16 08:44:37</time>
      </trkpt>
      <trkpt lat="40.07657" lon="-4.16662">
        <ele>562.4</ele>
        <time>2020-08-16 08:44:38</time>
      </trkpt>
      <trkpt lat="40.07654" lon="-4.16668">
        <ele>562.2</ele>
        <time>2020-08-16 08:44:39</time>
      </trkpt>
      <trkpt lat="40.07652" lon="-4.16674">
        <ele>562.2</ele>
        <time>2020-08-16 08:44:40</time>
      </trkpt>
      <trkpt lat="40.0765" lon="-4.16679">
        <ele>562.2</ele>
        <time>2020-08-16 08:44:41</time>
      </trkpt>
      <trkpt lat="40.07642" lon="-4.16695">
        <ele>562.6</ele>
        <time>2020-08-16 08:44:44</time>
      </trkpt>
      <trkpt lat="40.0764" lon="-4.167">
        <ele>562.6</ele>
        <time>2020-08-16 08:44:45</time>
      </trkpt>
      <trkpt lat="40.07638" lon="-4.16706">
        <ele>562.6</ele>
        <time>2020-08-16 08:44:46</time>
      </trkpt>
      <trkpt lat="40.07635" lon="-4.16711">
        <ele>562.8</ele>
        <time>2020-08-16 08:44:47</time>
      </trkpt>
      <trkpt lat="40.07633" lon="-4.16716">
        <ele>563</ele>
        <time>2020-08-16 08:44:48</time>
      </trkpt>
      <trkpt lat="40.07631" lon="-4.16721">
        <ele>563</ele>
        <time>2020-08-16 08:44:49</time>
      </trkpt>
      <trkpt lat="40.07628" lon="-4.16725">
        <ele>563</ele>
        <time>2020-08-16 08:44:50</time>
      </trkpt>
      <trkpt lat="40.07626" lon="-4.1673">
        <ele>563.2</ele>
        <time>2020-08-16 08:44:51</time>
      </trkpt>
      <trkpt lat="40.07624" lon="-4.16735">
        <ele>563.2</ele>
        <time>2020-08-16 08:44:52</time>
      </trkpt>
      <trkpt lat="40.07622" lon="-4.16739">
        <ele>563.2</ele>
        <time>2020-08-16 08:44:53</time>
      </trkpt>
      <trkpt lat="40.0762" lon="-4.16744">
        <ele>563.2</ele>
        <time>2020-08-16 08:44:54</time>
      </trkpt>
      <trkpt lat="40.07617" lon="-4.16748">
        <ele>563.4</ele>
        <time>2020-08-16 08:44:55</time>
      </trkpt>
      <trkpt lat="40.07615" lon="-4.16753">
        <ele>563.4</ele>
        <time>2020-08-16 08:44:56</time>
      </trkpt>
      <trkpt lat="40.07613" lon="-4.16757">
        <ele>563.4</ele>
        <time>2020-08-16 08:44:57</time>
      </trkpt>
      <trkpt lat="40.0761" lon="-4.16761">
        <ele>563.6</ele>
        <time>2020-08-16 08:44:58</time>
      </trkpt>
      <trkpt lat="40.07608" lon="-4.16766">
        <ele>563.6</ele>
        <time>2020-08-16 08:44:59</time>
      </trkpt>
      <trkpt lat="40.07607" lon="-4.1677">
        <ele>563.6</ele>
        <time>2020-08-16 08:45:00</time>
      </trkpt>
      <trkpt lat="40.07605" lon="-4.16774">
        <ele>563.8</ele>
        <time>2020-08-16 08:45:01</time>
      </trkpt>
      <trkpt lat="40.07602" lon="-4.16779">
        <ele>564</ele>
        <time>2020-08-16 08:45:02</time>
      </trkpt>
      <trkpt lat="40.076" lon="-4.16783">
        <ele>564.4</ele>
        <time>2020-08-16 08:45:03</time>
      </trkpt>
      <trkpt lat="40.07598" lon="-4.16787">
        <ele>564.4</ele>
        <time>2020-08-16 08:45:04</time>
      </trkpt>
      <trkpt lat="40.07597" lon="-4.16791">
        <ele>564.8</ele>
        <time>2020-08-16 08:45:05</time>
      </trkpt>
      <trkpt lat="40.07595" lon="-4.16795">
        <ele>565</ele>
        <time>2020-08-16 08:45:06</time>
      </trkpt>
      <trkpt lat="40.07594" lon="-4.16799">
        <ele>565</ele>
        <time>2020-08-16 08:45:07</time>
      </trkpt>
      <trkpt lat="40.07592" lon="-4.16804">
        <ele>565.2</ele>
        <time>2020-08-16 08:45:08</time>
      </trkpt>
      <trkpt lat="40.0759" lon="-4.16807">
        <ele>565.4</ele>
        <time>2020-08-16 08:45:09</time>
      </trkpt>
      <trkpt lat="40.07589" lon="-4.16811">
        <ele>565.6</ele>
        <time>2020-08-16 08:45:10</time>
      </trkpt>
      <trkpt lat="40.07587" lon="-4.16815">
        <ele>565.6</ele>
        <time>2020-08-16 08:45:11</time>
      </trkpt>
      <trkpt lat="40.07586" lon="-4.16819">
        <ele>565.8</ele>
        <time>2020-08-16 08:45:12</time>
      </trkpt>
      <trkpt lat="40.07584" lon="-4.16823">
        <ele>566</ele>
        <time>2020-08-16 08:45:13</time>
      </trkpt>
      <trkpt lat="40.07583" lon="-4.16827">
        <ele>566</ele>
        <time>2020-08-16 08:45:14</time>
      </trkpt>
      <trkpt lat="40.07581" lon="-4.16831">
        <ele>566.2</ele>
        <time>2020-08-16 08:45:15</time>
      </trkpt>
      <trkpt lat="40.0758" lon="-4.16835">
        <ele>566.2</ele>
        <time>2020-08-16 08:45:16</time>
      </trkpt>
      <trkpt lat="40.07578" lon="-4.16839">
        <ele>566.4</ele>
        <time>2020-08-16 08:45:17</time>
      </trkpt>
      <trkpt lat="40.07577" lon="-4.16842">
        <ele>566.4</ele>
        <time>2020-08-16 08:45:18</time>
      </trkpt>
      <trkpt lat="40.07575" lon="-4.16846">
        <ele>566.8</ele>
        <time>2020-08-16 08:45:19</time>
      </trkpt>
      <trkpt lat="40.07574" lon="-4.1685">
        <ele>566.8</ele>
        <time>2020-08-16 08:45:20</time>
      </trkpt>
      <trkpt lat="40.07572" lon="-4.16854">
        <ele>567</ele>
        <time>2020-08-16 08:45:21</time>
      </trkpt>
      <trkpt lat="40.07571" lon="-4.16858">
        <ele>567</ele>
        <time>2020-08-16 08:45:22</time>
      </trkpt>
      <trkpt lat="40.07569" lon="-4.16862">
        <ele>567.2</ele>
        <time>2020-08-16 08:45:23</time>
      </trkpt>
      <trkpt lat="40.07567" lon="-4.16865">
        <ele>567.2</ele>
        <time>2020-08-16 08:45:24</time>
      </trkpt>
      <trkpt lat="40.07566" lon="-4.16869">
        <ele>567.4</ele>
        <time>2020-08-16 08:45:25</time>
      </trkpt>
      <trkpt lat="40.07564" lon="-4.16873">
        <ele>567.4</ele>
        <time>2020-08-16 08:45:26</time>
      </trkpt>
      <trkpt lat="40.07562" lon="-4.16877">
        <ele>567.6</ele>
        <time>2020-08-16 08:45:27</time>
      </trkpt>
      <trkpt lat="40.07561" lon="-4.16881">
        <ele>567.8</ele>
        <time>2020-08-16 08:45:28</time>
      </trkpt>
      <trkpt lat="40.07559" lon="-4.16885">
        <ele>567.8</ele>
        <time>2020-08-16 08:45:29</time>
      </trkpt>
      <trkpt lat="40.07558" lon="-4.16889">
        <ele>567.8</ele>
        <time>2020-08-16 08:45:30</time>
      </trkpt>
      <trkpt lat="40.07556" lon="-4.16893">
        <ele>568</ele>
        <time>2020-08-16 08:45:31</time>
      </trkpt>
      <trkpt lat="40.07552" lon="-4.16901">
        <ele>568.2</ele>
        <time>2020-08-16 08:45:33</time>
      </trkpt>
      <trkpt lat="40.07548" lon="-4.16913">
        <ele>568.4</ele>
        <time>2020-08-16 08:45:36</time>
      </trkpt>
      <trkpt lat="40.07545" lon="-4.1692">
        <ele>568.6</ele>
        <time>2020-08-16 08:45:38</time>
      </trkpt>
      <trkpt lat="40.07543" lon="-4.16924">
        <ele>568.6</ele>
        <time>2020-08-16 08:45:39</time>
      </trkpt>
      <trkpt lat="40.07542" lon="-4.16928">
        <ele>568.6</ele>
        <time>2020-08-16 08:45:40</time>
      </trkpt>
      <trkpt lat="40.0754" lon="-4.16932">
        <ele>568.6</ele>
        <time>2020-08-16 08:45:41</time>
      </trkpt>
      <trkpt lat="40.07538" lon="-4.16936">
        <ele>568.8</ele>
        <time>2020-08-16 08:45:42</time>
      </trkpt>
      <trkpt lat="40.07537" lon="-4.1694">
        <ele>568.8</ele>
        <time>2020-08-16 08:45:43</time>
      </trkpt>
      <trkpt lat="40.07535" lon="-4.16944">
        <ele>568.8</ele>
        <time>2020-08-16 08:45:44</time>
      </trkpt>
      <trkpt lat="40.07533" lon="-4.16948">
        <ele>569</ele>
        <time>2020-08-16 08:45:45</time>
      </trkpt>
      <trkpt lat="40.07532" lon="-4.16952">
        <ele>569</ele>
        <time>2020-08-16 08:45:46</time>
      </trkpt>
      <trkpt lat="40.07523" lon="-4.16977">
        <ele>569.6</ele>
        <time>2020-08-16 08:45:52</time>
      </trkpt>
      <trkpt lat="40.07522" lon="-4.16981">
        <ele>569.6</ele>
        <time>2020-08-16 08:45:53</time>
      </trkpt>
      <trkpt lat="40.0752" lon="-4.16985">
        <ele>569.8</ele>
        <time>2020-08-16 08:45:54</time>
      </trkpt>
      <trkpt lat="40.07518" lon="-4.16989">
        <ele>569.8</ele>
        <time>2020-08-16 08:45:55</time>
      </trkpt>
      <trkpt lat="40.07517" lon="-4.16993">
        <ele>569.6</ele>
        <time>2020-08-16 08:45:56</time>
      </trkpt>
      <trkpt lat="40.07515" lon="-4.16997">
        <ele>569.8</ele>
        <time>2020-08-16 08:45:57</time>
      </trkpt>
      <trkpt lat="40.07514" lon="-4.17001">
        <ele>569.8</ele>
        <time>2020-08-16 08:45:58</time>
      </trkpt>
      <trkpt lat="40.07513" lon="-4.17005">
        <ele>569.8</ele>
        <time>2020-08-16 08:45:59</time>
      </trkpt>
      <trkpt lat="40.07511" lon="-4.17009">
        <ele>569.8</ele>
        <time>2020-08-16 08:46:00</time>
      </trkpt>
      <trkpt lat="40.0751" lon="-4.17013">
        <ele>569.8</ele>
        <time>2020-08-16 08:46:01</time>
      </trkpt>
      <trkpt lat="40.07509" lon="-4.17017">
        <ele>570</ele>
        <time>2020-08-16 08:46:02</time>
      </trkpt>
      <trkpt lat="40.07507" lon="-4.17021">
        <ele>570</ele>
        <time>2020-08-16 08:46:03</time>
      </trkpt>
      <trkpt lat="40.07506" lon="-4.17025">
        <ele>570</ele>
        <time>2020-08-16 08:46:04</time>
      </trkpt>
      <trkpt lat="40.07504" lon="-4.17029">
        <ele>570</ele>
        <time>2020-08-16 08:46:05</time>
      </trkpt>
      <trkpt lat="40.07503" lon="-4.17034">
        <ele>570</ele>
        <time>2020-08-16 08:46:06</time>
      </trkpt>
      <trkpt lat="40.07498" lon="-4.17047">
        <ele>570</ele>
        <time>2020-08-16 08:46:09</time>
      </trkpt>
      <trkpt lat="40.07491" lon="-4.17069">
        <ele>570.2</ele>
        <time>2020-08-16 08:46:14</time>
      </trkpt>
      <trkpt lat="40.07487" lon="-4.17079">
        <ele>570.2</ele>
        <time>2020-08-16 08:46:16</time>
      </trkpt>
      <trkpt lat="40.07484" lon="-4.17088">
        <ele>570.2</ele>
        <time>2020-08-16 08:46:18</time>
      </trkpt>
      <trkpt lat="40.07478" lon="-4.17107">
        <ele>570</ele>
        <time>2020-08-16 08:46:22</time>
      </trkpt>
      <trkpt lat="40.07459" lon="-4.17159">
        <ele>569.8</ele>
        <time>2020-08-16 08:46:33</time>
      </trkpt>
      <trkpt lat="40.07457" lon="-4.17164">
        <ele>569.8</ele>
        <time>2020-08-16 08:46:34</time>
      </trkpt>
      <trkpt lat="40.07445" lon="-4.17199">
        <ele>570</ele>
        <time>2020-08-16 08:46:41</time>
      </trkpt>
      <trkpt lat="40.07444" lon="-4.17205">
        <ele>570</ele>
        <time>2020-08-16 08:46:42</time>
      </trkpt>
      <trkpt lat="40.07438" lon="-4.17219">
        <ele>570</ele>
        <time>2020-08-16 08:46:45</time>
      </trkpt>
      <trkpt lat="40.07435" lon="-4.17229">
        <ele>569.8</ele>
        <time>2020-08-16 08:46:47</time>
      </trkpt>
      <trkpt lat="40.07433" lon="-4.17234">
        <ele>569.8</ele>
        <time>2020-08-16 08:46:48</time>
      </trkpt>
      <trkpt lat="40.07431" lon="-4.17238">
        <ele>569.8</ele>
        <time>2020-08-16 08:46:49</time>
      </trkpt>
      <trkpt lat="40.07429" lon="-4.17243">
        <ele>570</ele>
        <time>2020-08-16 08:46:50</time>
      </trkpt>
      <trkpt lat="40.07427" lon="-4.17248">
        <ele>570</ele>
        <time>2020-08-16 08:46:51</time>
      </trkpt>
      <trkpt lat="40.07425" lon="-4.17253">
        <ele>570</ele>
        <time>2020-08-16 08:46:52</time>
      </trkpt>
      <trkpt lat="40.07423" lon="-4.17258">
        <ele>570</ele>
        <time>2020-08-16 08:46:53</time>
      </trkpt>
      <trkpt lat="40.07419" lon="-4.17267">
        <ele>570</ele>
        <time>2020-08-16 08:46:55</time>
      </trkpt>
      <trkpt lat="40.07417" lon="-4.17272">
        <ele>570</ele>
        <time>2020-08-16 08:46:56</time>
      </trkpt>
      <trkpt lat="40.07399" lon="-4.17315">
        <ele>570</ele>
        <time>2020-08-16 08:47:05</time>
      </trkpt>
      <trkpt lat="40.0739" lon="-4.17339">
        <ele>570</ele>
        <time>2020-08-16 08:47:10</time>
      </trkpt>
      <trkpt lat="40.07388" lon="-4.17344">
        <ele>570</ele>
        <time>2020-08-16 08:47:11</time>
      </trkpt>
      <trkpt lat="40.07386" lon="-4.17349">
        <ele>570</ele>
        <time>2020-08-16 08:47:12</time>
      </trkpt>
      <trkpt lat="40.07384" lon="-4.17354">
        <ele>570.2</ele>
        <time>2020-08-16 08:47:13</time>
      </trkpt>
      <trkpt lat="40.07382" lon="-4.17359">
        <ele>570.2</ele>
        <time>2020-08-16 08:47:14</time>
      </trkpt>
      <trkpt lat="40.0738" lon="-4.17363">
        <ele>570.2</ele>
        <time>2020-08-16 08:47:15</time>
      </trkpt>
      <trkpt lat="40.07379" lon="-4.17368">
        <ele>570.4</ele>
        <time>2020-08-16 08:47:16</time>
      </trkpt>
      <trkpt lat="40.07377" lon="-4.17373">
        <ele>570.4</ele>
        <time>2020-08-16 08:47:17</time>
      </trkpt>
      <trkpt lat="40.07375" lon="-4.17377">
        <ele>570.4</ele>
        <time>2020-08-16 08:47:18</time>
      </trkpt>
      <trkpt lat="40.07373" lon="-4.17382">
        <ele>570.4</ele>
        <time>2020-08-16 08:47:19</time>
      </trkpt>
      <trkpt lat="40.07371" lon="-4.17387">
        <ele>570.4</ele>
        <time>2020-08-16 08:47:20</time>
      </trkpt>
      <trkpt lat="40.0737" lon="-4.17392">
        <ele>570.4</ele>
        <time>2020-08-16 08:47:21</time>
      </trkpt>
      <trkpt lat="40.07368" lon="-4.17397">
        <ele>570.4</ele>
        <time>2020-08-16 08:47:22</time>
      </trkpt>
      <trkpt lat="40.07366" lon="-4.17401">
        <ele>570.6</ele>
        <time>2020-08-16 08:47:23</time>
      </trkpt>
      <trkpt lat="40.07364" lon="-4.17406">
        <ele>570.6</ele>
        <time>2020-08-16 08:47:24</time>
      </trkpt>
      <trkpt lat="40.07362" lon="-4.1741">
        <ele>570.6</ele>
        <time>2020-08-16 08:47:25</time>
      </trkpt>
      <trkpt lat="40.0736" lon="-4.17415">
        <ele>570.6</ele>
        <time>2020-08-16 08:47:26</time>
      </trkpt>
      <trkpt lat="40.07359" lon="-4.17419">
        <ele>570.8</ele>
        <time>2020-08-16 08:47:27</time>
      </trkpt>
      <trkpt lat="40.07357" lon="-4.17424">
        <ele>570.8</ele>
        <time>2020-08-16 08:47:28</time>
      </trkpt>
      <trkpt lat="40.07356" lon="-4.17428">
        <ele>570.8</ele>
        <time>2020-08-16 08:47:29</time>
      </trkpt>
      <trkpt lat="40.07354" lon="-4.17432">
        <ele>570.8</ele>
        <time>2020-08-16 08:47:30</time>
      </trkpt>
      <trkpt lat="40.07353" lon="-4.17437">
        <ele>570.8</ele>
        <time>2020-08-16 08:47:31</time>
      </trkpt>
      <trkpt lat="40.07351" lon="-4.17441">
        <ele>571</ele>
        <time>2020-08-16 08:47:32</time>
      </trkpt>
      <trkpt lat="40.0735" lon="-4.17446">
        <ele>571</ele>
        <time>2020-08-16 08:47:33</time>
      </trkpt>
      <trkpt lat="40.07348" lon="-4.1745">
        <ele>571</ele>
        <time>2020-08-16 08:47:34</time>
      </trkpt>
      <trkpt lat="40.07347" lon="-4.17454">
        <ele>571.2</ele>
        <time>2020-08-16 08:47:35</time>
      </trkpt>
      <trkpt lat="40.07346" lon="-4.17458">
        <ele>571.2</ele>
        <time>2020-08-16 08:47:36</time>
      </trkpt>
      <trkpt lat="40.07345" lon="-4.17463">
        <ele>571.4</ele>
        <time>2020-08-16 08:47:37</time>
      </trkpt>
      <trkpt lat="40.07344" lon="-4.17467">
        <ele>571.4</ele>
        <time>2020-08-16 08:47:38</time>
      </trkpt>
      <trkpt lat="40.07342" lon="-4.17471">
        <ele>571.6</ele>
        <time>2020-08-16 08:47:39</time>
      </trkpt>
      <trkpt lat="40.07341" lon="-4.17475">
        <ele>571.6</ele>
        <time>2020-08-16 08:47:40</time>
      </trkpt>
      <trkpt lat="40.0734" lon="-4.17479">
        <ele>572</ele>
        <time>2020-08-16 08:47:41</time>
      </trkpt>
      <trkpt lat="40.07338" lon="-4.17483">
        <ele>572</ele>
        <time>2020-08-16 08:47:42</time>
      </trkpt>
      <trkpt lat="40.07338" lon="-4.17487">
        <ele>572.2</ele>
        <time>2020-08-16 08:47:43</time>
      </trkpt>
      <trkpt lat="40.07337" lon="-4.17491">
        <ele>572.2</ele>
        <time>2020-08-16 08:47:44</time>
      </trkpt>
      <trkpt lat="40.07336" lon="-4.17495">
        <ele>572.2</ele>
        <time>2020-08-16 08:47:45</time>
      </trkpt>
      <trkpt lat="40.07335" lon="-4.17498">
        <ele>572.4</ele>
        <time>2020-08-16 08:47:46</time>
      </trkpt>
      <trkpt lat="40.07334" lon="-4.17502">
        <ele>572.4</ele>
        <time>2020-08-16 08:47:47</time>
      </trkpt>
      <trkpt lat="40.07333" lon="-4.17505">
        <ele>572.6</ele>
        <time>2020-08-16 08:47:48</time>
      </trkpt>
      <trkpt lat="40.07332" lon="-4.17509">
        <ele>572.6</ele>
        <time>2020-08-16 08:47:49</time>
      </trkpt>
      <trkpt lat="40.07331" lon="-4.17512">
        <ele>572.6</ele>
        <time>2020-08-16 08:47:50</time>
      </trkpt>
      <trkpt lat="40.0733" lon="-4.17516">
        <ele>572.6</ele>
        <time>2020-08-16 08:47:51</time>
      </trkpt>
      <trkpt lat="40.07329" lon="-4.1752">
        <ele>572.6</ele>
        <time>2020-08-16 08:47:52</time>
      </trkpt>
      <trkpt lat="40.07327" lon="-4.17524">
        <ele>572.6</ele>
        <time>2020-08-16 08:47:53</time>
      </trkpt>
      <trkpt lat="40.07325" lon="-4.17533">
        <ele>572.6</ele>
        <time>2020-08-16 08:47:55</time>
      </trkpt>
      <trkpt lat="40.0732" lon="-4.17548">
        <ele>572.4</ele>
        <time>2020-08-16 08:47:58</time>
      </trkpt>
      <trkpt lat="40.07314" lon="-4.17566">
        <ele>572.2</ele>
        <time>2020-08-16 08:48:01</time>
      </trkpt>
      <trkpt lat="40.07311" lon="-4.17579">
        <ele>571.8</ele>
        <time>2020-08-16 08:48:03</time>
      </trkpt>
      <trkpt lat="40.07306" lon="-4.17599">
        <ele>571.4</ele>
        <time>2020-08-16 08:48:06</time>
      </trkpt>
      <trkpt lat="40.07303" lon="-4.17613">
        <ele>571.2</ele>
        <time>2020-08-16 08:48:08</time>
      </trkpt>
      <trkpt lat="40.07298" lon="-4.17632">
        <ele>570.2</ele>
        <time>2020-08-16 08:48:11</time>
      </trkpt>
      <trkpt lat="40.07291" lon="-4.17665">
        <ele>569.4</ele>
        <time>2020-08-16 08:48:16</time>
      </trkpt>
      <trkpt lat="40.0729" lon="-4.17672">
        <ele>569.4</ele>
        <time>2020-08-16 08:48:17</time>
      </trkpt>
      <trkpt lat="40.07288" lon="-4.17678">
        <ele>569.2</ele>
        <time>2020-08-16 08:48:18</time>
      </trkpt>
      <trkpt lat="40.07287" lon="-4.17684">
        <ele>569.2</ele>
        <time>2020-08-16 08:48:19</time>
      </trkpt>
      <trkpt lat="40.07285" lon="-4.1769">
        <ele>569</ele>
        <time>2020-08-16 08:48:20</time>
      </trkpt>
      <trkpt lat="40.07284" lon="-4.17697">
        <ele>569</ele>
        <time>2020-08-16 08:48:21</time>
      </trkpt>
      <trkpt lat="40.07282" lon="-4.17703">
        <ele>569</ele>
        <time>2020-08-16 08:48:22</time>
      </trkpt>
      <trkpt lat="40.07279" lon="-4.17709">
        <ele>568.8</ele>
        <time>2020-08-16 08:48:23</time>
      </trkpt>
      <trkpt lat="40.07277" lon="-4.17715">
        <ele>568.6</ele>
        <time>2020-08-16 08:48:24</time>
      </trkpt>
      <trkpt lat="40.07275" lon="-4.17721">
        <ele>568.6</ele>
        <time>2020-08-16 08:48:25</time>
      </trkpt>
      <trkpt lat="40.07271" lon="-4.17735">
        <ele>568.2</ele>
        <time>2020-08-16 08:48:27</time>
      </trkpt>
      <trkpt lat="40.0727" lon="-4.17742">
        <ele>568</ele>
        <time>2020-08-16 08:48:28</time>
      </trkpt>
      <trkpt lat="40.07264" lon="-4.17773">
        <ele>567.4</ele>
        <time>2020-08-16 08:48:32</time>
      </trkpt>
      <trkpt lat="40.07261" lon="-4.1779">
        <ele>567</ele>
        <time>2020-08-16 08:48:34</time>
      </trkpt>
      <trkpt lat="40.07259" lon="-4.17799">
        <ele>566.6</ele>
        <time>2020-08-16 08:48:35</time>
      </trkpt>
      <trkpt lat="40.07256" lon="-4.17816">
        <ele>566.2</ele>
        <time>2020-08-16 08:48:37</time>
      </trkpt>
      <trkpt lat="40.07252" lon="-4.17834">
        <ele>566</ele>
        <time>2020-08-16 08:48:39</time>
      </trkpt>
      <trkpt lat="40.0725" lon="-4.17843">
        <ele>565.8</ele>
        <time>2020-08-16 08:48:40</time>
      </trkpt>
      <trkpt lat="40.07242" lon="-4.17883">
        <ele>564.4</ele>
        <time>2020-08-16 08:48:44</time>
      </trkpt>
      <trkpt lat="40.07236" lon="-4.17915">
        <ele>563</ele>
        <time>2020-08-16 08:48:47</time>
      </trkpt>
      <trkpt lat="40.07232" lon="-4.17937">
        <ele>562</ele>
        <time>2020-08-16 08:48:49</time>
      </trkpt>
      <trkpt lat="40.07229" lon="-4.17947">
        <ele>561.8</ele>
        <time>2020-08-16 08:48:50</time>
      </trkpt>
      <trkpt lat="40.07227" lon="-4.17958">
        <ele>561.2</ele>
        <time>2020-08-16 08:48:51</time>
      </trkpt>
      <trkpt lat="40.07225" lon="-4.17968">
        <ele>560.6</ele>
        <time>2020-08-16 08:48:52</time>
      </trkpt>
      <trkpt lat="40.07223" lon="-4.17979">
        <ele>560.4</ele>
        <time>2020-08-16 08:48:53</time>
      </trkpt>
      <trkpt lat="40.07221" lon="-4.17989">
        <ele>560</ele>
        <time>2020-08-16 08:48:54</time>
      </trkpt>
      <trkpt lat="40.07218" lon="-4.17998">
        <ele>559.8</ele>
        <time>2020-08-16 08:48:55</time>
      </trkpt>
      <trkpt lat="40.07216" lon="-4.18008">
        <ele>559.6</ele>
        <time>2020-08-16 08:48:56</time>
      </trkpt>
      <trkpt lat="40.07214" lon="-4.18017">
        <ele>559.4</ele>
        <time>2020-08-16 08:48:57</time>
      </trkpt>
      <trkpt lat="40.07212" lon="-4.18026">
        <ele>559</ele>
        <time>2020-08-16 08:48:58</time>
      </trkpt>
      <trkpt lat="40.07209" lon="-4.18035">
        <ele>558.8</ele>
        <time>2020-08-16 08:48:59</time>
      </trkpt>
      <trkpt lat="40.07207" lon="-4.18043">
        <ele>558.8</ele>
        <time>2020-08-16 08:49:00</time>
      </trkpt>
      <trkpt lat="40.07205" lon="-4.18052">
        <ele>558.6</ele>
        <time>2020-08-16 08:49:01</time>
      </trkpt>
      <trkpt lat="40.07203" lon="-4.1806">
        <ele>558.6</ele>
        <time>2020-08-16 08:49:02</time>
      </trkpt>
      <trkpt lat="40.07201" lon="-4.18068">
        <ele>558.6</ele>
        <time>2020-08-16 08:49:03</time>
      </trkpt>
      <trkpt lat="40.072" lon="-4.18075">
        <ele>558.4</ele>
        <time>2020-08-16 08:49:04</time>
      </trkpt>
      <trkpt lat="40.07198" lon="-4.18083">
        <ele>558.2</ele>
        <time>2020-08-16 08:49:05</time>
      </trkpt>
      <trkpt lat="40.07196" lon="-4.1809">
        <ele>558.2</ele>
        <time>2020-08-16 08:49:06</time>
      </trkpt>
      <trkpt lat="40.07195" lon="-4.18098">
        <ele>558</ele>
        <time>2020-08-16 08:49:07</time>
      </trkpt>
      <trkpt lat="40.07193" lon="-4.18104">
        <ele>557.8</ele>
        <time>2020-08-16 08:49:08</time>
      </trkpt>
      <trkpt lat="40.07191" lon="-4.18111">
        <ele>557.6</ele>
        <time>2020-08-16 08:49:09</time>
      </trkpt>
      <trkpt lat="40.0719" lon="-4.18118">
        <ele>557.6</ele>
        <time>2020-08-16 08:49:10</time>
      </trkpt>
      <trkpt lat="40.07188" lon="-4.18124">
        <ele>557.4</ele>
        <time>2020-08-16 08:49:11</time>
      </trkpt>
      <trkpt lat="40.07187" lon="-4.18131">
        <ele>557.4</ele>
        <time>2020-08-16 08:49:12</time>
      </trkpt>
      <trkpt lat="40.07185" lon="-4.18137">
        <ele>557.2</ele>
        <time>2020-08-16 08:49:13</time>
      </trkpt>
      <trkpt lat="40.07183" lon="-4.18143">
        <ele>557.2</ele>
        <time>2020-08-16 08:49:14</time>
      </trkpt>
      <trkpt lat="40.07181" lon="-4.18148">
        <ele>557.2</ele>
        <time>2020-08-16 08:49:15</time>
      </trkpt>
      <trkpt lat="40.07179" lon="-4.18154">
        <ele>557.2</ele>
        <time>2020-08-16 08:49:16</time>
      </trkpt>
      <trkpt lat="40.07177" lon="-4.1816">
        <ele>557.2</ele>
        <time>2020-08-16 08:49:17</time>
      </trkpt>
      <trkpt lat="40.07175" lon="-4.18166">
        <ele>557.2</ele>
        <time>2020-08-16 08:49:18</time>
      </trkpt>
      <trkpt lat="40.07173" lon="-4.18172">
        <ele>557</ele>
        <time>2020-08-16 08:49:19</time>
      </trkpt>
      <trkpt lat="40.07171" lon="-4.18178">
        <ele>557</ele>
        <time>2020-08-16 08:49:20</time>
      </trkpt>
      <trkpt lat="40.07169" lon="-4.18184">
        <ele>557</ele>
        <time>2020-08-16 08:49:21</time>
      </trkpt>
      <trkpt lat="40.07167" lon="-4.1819">
        <ele>557</ele>
        <time>2020-08-16 08:49:22</time>
      </trkpt>
      <trkpt lat="40.07165" lon="-4.18196">
        <ele>557</ele>
        <time>2020-08-16 08:49:23</time>
      </trkpt>
      <trkpt lat="40.07163" lon="-4.18202">
        <ele>557</ele>
        <time>2020-08-16 08:49:24</time>
      </trkpt>
      <trkpt lat="40.07162" lon="-4.18208">
        <ele>557</ele>
        <time>2020-08-16 08:49:25</time>
      </trkpt>
      <trkpt lat="40.07161" lon="-4.18214">
        <ele>557</ele>
        <time>2020-08-16 08:49:26</time>
      </trkpt>
      <trkpt lat="40.0716" lon="-4.18219">
        <ele>557</ele>
        <time>2020-08-16 08:49:27</time>
      </trkpt>
      <trkpt lat="40.07159" lon="-4.18225">
        <ele>557</ele>
        <time>2020-08-16 08:49:28</time>
      </trkpt>
      <trkpt lat="40.07159" lon="-4.1823">
        <ele>557</ele>
        <time>2020-08-16 08:49:29</time>
      </trkpt>
      <trkpt lat="40.07159" lon="-4.18236">
        <ele>557</ele>
        <time>2020-08-16 08:49:30</time>
      </trkpt>
      <trkpt lat="40.0716" lon="-4.18241">
        <ele>557</ele>
        <time>2020-08-16 08:49:31</time>
      </trkpt>
      <trkpt lat="40.0716" lon="-4.18251">
        <ele>557.2</ele>
        <time>2020-08-16 08:49:33</time>
      </trkpt>
      <trkpt lat="40.0716" lon="-4.18256">
        <ele>557.2</ele>
        <time>2020-08-16 08:49:34</time>
      </trkpt>
      <trkpt lat="40.0716" lon="-4.18261">
        <ele>557.4</ele>
        <time>2020-08-16 08:49:35</time>
      </trkpt>
      <trkpt lat="40.0716" lon="-4.18266">
        <ele>557.4</ele>
        <time>2020-08-16 08:49:36</time>
      </trkpt>
      <trkpt lat="40.0716" lon="-4.1827">
        <ele>557.6</ele>
        <time>2020-08-16 08:49:37</time>
      </trkpt>
      <trkpt lat="40.0716" lon="-4.18275">
        <ele>557.8</ele>
        <time>2020-08-16 08:49:38</time>
      </trkpt>
      <trkpt lat="40.0716" lon="-4.18279">
        <ele>557.8</ele>
        <time>2020-08-16 08:49:39</time>
      </trkpt>
      <trkpt lat="40.0716" lon="-4.18283">
        <ele>557.8</ele>
        <time>2020-08-16 08:49:40</time>
      </trkpt>
      <trkpt lat="40.0716" lon="-4.18288">
        <ele>558</ele>
        <time>2020-08-16 08:49:41</time>
      </trkpt>
      <trkpt lat="40.0716" lon="-4.18292">
        <ele>558.2</ele>
        <time>2020-08-16 08:49:42</time>
      </trkpt>
      <trkpt lat="40.0716" lon="-4.18296">
        <ele>558.4</ele>
        <time>2020-08-16 08:49:43</time>
      </trkpt>
      <trkpt lat="40.07161" lon="-4.183">
        <ele>558.4</ele>
        <time>2020-08-16 08:49:44</time>
      </trkpt>
      <trkpt lat="40.07161" lon="-4.18304">
        <ele>558.8</ele>
        <time>2020-08-16 08:49:45</time>
      </trkpt>
      <trkpt lat="40.07161" lon="-4.18308">
        <ele>558.8</ele>
        <time>2020-08-16 08:49:46</time>
      </trkpt>
      <trkpt lat="40.07161" lon="-4.18312">
        <ele>559</ele>
        <time>2020-08-16 08:49:47</time>
      </trkpt>
      <trkpt lat="40.0716" lon="-4.18316">
        <ele>559</ele>
        <time>2020-08-16 08:49:48</time>
      </trkpt>
      <trkpt lat="40.0716" lon="-4.1832">
        <ele>559.2</ele>
        <time>2020-08-16 08:49:49</time>
      </trkpt>
      <trkpt lat="40.0716" lon="-4.18324">
        <ele>559.4</ele>
        <time>2020-08-16 08:49:50</time>
      </trkpt>
      <trkpt lat="40.0716" lon="-4.18328">
        <ele>559.4</ele>
        <time>2020-08-16 08:49:51</time>
      </trkpt>
      <trkpt lat="40.0716" lon="-4.18331">
        <ele>559.6</ele>
        <time>2020-08-16 08:49:52</time>
      </trkpt>
      <trkpt lat="40.0716" lon="-4.18335">
        <ele>559.6</ele>
        <time>2020-08-16 08:49:53</time>
      </trkpt>
      <trkpt lat="40.0716" lon="-4.18339">
        <ele>559.8</ele>
        <time>2020-08-16 08:49:54</time>
      </trkpt>
      <trkpt lat="40.0716" lon="-4.18343">
        <ele>560</ele>
        <time>2020-08-16 08:49:55</time>
      </trkpt>
      <trkpt lat="40.0716" lon="-4.18347">
        <ele>560</ele>
        <time>2020-08-16 08:49:56</time>
      </trkpt>
      <trkpt lat="40.07159" lon="-4.18351">
        <ele>560.2</ele>
        <time>2020-08-16 08:49:57</time>
      </trkpt>
      <trkpt lat="40.07159" lon="-4.18355">
        <ele>560.2</ele>
        <time>2020-08-16 08:49:58</time>
      </trkpt>
      <trkpt lat="40.07159" lon="-4.18359">
        <ele>560.4</ele>
        <time>2020-08-16 08:49:59</time>
      </trkpt>
      <trkpt lat="40.07159" lon="-4.18363">
        <ele>560.4</ele>
        <time>2020-08-16 08:50:00</time>
      </trkpt>
      <trkpt lat="40.07159" lon="-4.18367">
        <ele>560.6</ele>
        <time>2020-08-16 08:50:01</time>
      </trkpt>
      <trkpt lat="40.07159" lon="-4.18371">
        <ele>560.8</ele>
        <time>2020-08-16 08:50:02</time>
      </trkpt>
      <trkpt lat="40.07159" lon="-4.18375">
        <ele>560.8</ele>
        <time>2020-08-16 08:50:03</time>
      </trkpt>
      <trkpt lat="40.07159" lon="-4.18378">
        <ele>561</ele>
        <time>2020-08-16 08:50:04</time>
      </trkpt>
      <trkpt lat="40.0716" lon="-4.18382">
        <ele>561</ele>
        <time>2020-08-16 08:50:05</time>
      </trkpt>
      <trkpt lat="40.0716" lon="-4.18386">
        <ele>561.2</ele>
        <time>2020-08-16 08:50:06</time>
      </trkpt>
      <trkpt lat="40.0716" lon="-4.1839">
        <ele>561.2</ele>
        <time>2020-08-16 08:50:07</time>
      </trkpt>
      <trkpt lat="40.0716" lon="-4.18394">
        <ele>561.2</ele>
        <time>2020-08-16 08:50:08</time>
      </trkpt>
      <trkpt lat="40.0716" lon="-4.18398">
        <ele>561.4</ele>
        <time>2020-08-16 08:50:09</time>
      </trkpt>
      <trkpt lat="40.0716" lon="-4.18402">
        <ele>561.4</ele>
        <time>2020-08-16 08:50:10</time>
      </trkpt>
      <trkpt lat="40.07161" lon="-4.18405">
        <ele>561.6</ele>
        <time>2020-08-16 08:50:11</time>
      </trkpt>
      <trkpt lat="40.07161" lon="-4.18409">
        <ele>561.6</ele>
        <time>2020-08-16 08:50:12</time>
      </trkpt>
      <trkpt lat="40.07161" lon="-4.18413">
        <ele>561.8</ele>
        <time>2020-08-16 08:50:13</time>
      </trkpt>
      <trkpt lat="40.07161" lon="-4.18416">
        <ele>561.8</ele>
        <time>2020-08-16 08:50:14</time>
      </trkpt>
      <trkpt lat="40.07162" lon="-4.1842">
        <ele>561.8</ele>
        <time>2020-08-16 08:50:15</time>
      </trkpt>
      <trkpt lat="40.07162" lon="-4.18424">
        <ele>562</ele>
        <time>2020-08-16 08:50:16</time>
      </trkpt>
      <trkpt lat="40.07162" lon="-4.18433">
        <ele>562</ele>
        <time>2020-08-16 08:50:18</time>
      </trkpt>
      <trkpt lat="40.07162" lon="-4.18437">
        <ele>562</ele>
        <time>2020-08-16 08:50:19</time>
      </trkpt>
      <trkpt lat="40.07162" lon="-4.18441">
        <ele>562</ele>
        <time>2020-08-16 08:50:20</time>
      </trkpt>
      <trkpt lat="40.07163" lon="-4.18453">
        <ele>562.2</ele>
        <time>2020-08-16 08:50:23</time>
      </trkpt>
      <trkpt lat="40.07163" lon="-4.18465">
        <ele>562.2</ele>
        <time>2020-08-16 08:50:26</time>
      </trkpt>
      <trkpt lat="40.07163" lon="-4.18468">
        <ele>562.2</ele>
        <time>2020-08-16 08:50:27</time>
      </trkpt>
      <trkpt lat="40.07163" lon="-4.18476">
        <ele>562.2</ele>
        <time>2020-08-16 08:50:29</time>
      </trkpt>
      <trkpt lat="40.07163" lon="-4.1848">
        <ele>562.2</ele>
        <time>2020-08-16 08:50:30</time>
      </trkpt>
      <trkpt lat="40.07164" lon="-4.18484">
        <ele>562.2</ele>
        <time>2020-08-16 08:50:31</time>
      </trkpt>
      <trkpt lat="40.07164" lon="-4.18488">
        <ele>562.2</ele>
        <time>2020-08-16 08:50:32</time>
      </trkpt>
      <trkpt lat="40.07164" lon="-4.18493">
        <ele>562.2</ele>
        <time>2020-08-16 08:50:33</time>
      </trkpt>
      <trkpt lat="40.07165" lon="-4.18497">
        <ele>562.4</ele>
        <time>2020-08-16 08:50:34</time>
      </trkpt>
      <trkpt lat="40.07165" lon="-4.1851">
        <ele>562.8</ele>
        <time>2020-08-16 08:50:37</time>
      </trkpt>
      <trkpt lat="40.07166" lon="-4.18531">
        <ele>563.2</ele>
        <time>2020-08-16 08:50:42</time>
      </trkpt>
      <trkpt lat="40.07168" lon="-4.18567">
        <ele>563.4</ele>
        <time>2020-08-16 08:50:50</time>
      </trkpt>
      <trkpt lat="40.0717" lon="-4.1859">
        <ele>563.4</ele>
        <time>2020-08-16 08:50:55</time>
      </trkpt>
      <trkpt lat="40.0717" lon="-4.186">
        <ele>563.4</ele>
        <time>2020-08-16 08:50:57</time>
      </trkpt>
      <trkpt lat="40.07171" lon="-4.18618">
        <ele>563.4</ele>
        <time>2020-08-16 08:51:01</time>
      </trkpt>
      <trkpt lat="40.07172" lon="-4.18628">
        <ele>563.6</ele>
        <time>2020-08-16 08:51:03</time>
      </trkpt>
      <trkpt lat="40.07172" lon="-4.18658">
        <ele>563.6</ele>
        <time>2020-08-16 08:51:09</time>
      </trkpt>
      <trkpt lat="40.07174" lon="-4.18692">
        <ele>563</ele>
        <time>2020-08-16 08:51:14</time>
      </trkpt>
      <trkpt lat="40.07173" lon="-4.18706">
        <ele>562.6</ele>
        <time>2020-08-16 08:51:16</time>
      </trkpt>
      <trkpt lat="40.07173" lon="-4.18713">
        <ele>562.6</ele>
        <time>2020-08-16 08:51:17</time>
      </trkpt>
      <trkpt lat="40.0717" lon="-4.18742">
        <ele>561.8</ele>
        <time>2020-08-16 08:51:21</time>
      </trkpt>
      <trkpt lat="40.0717" lon="-4.1875">
        <ele>561.6</ele>
        <time>2020-08-16 08:51:22</time>
      </trkpt>
      <trkpt lat="40.07169" lon="-4.18757">
        <ele>561.4</ele>
        <time>2020-08-16 08:51:23</time>
      </trkpt>
      <trkpt lat="40.07166" lon="-4.18778">
        <ele>560.8</ele>
        <time>2020-08-16 08:51:26</time>
      </trkpt>
      <trkpt lat="40.07165" lon="-4.18784">
        <ele>560.6</ele>
        <time>2020-08-16 08:51:27</time>
      </trkpt>
      <trkpt lat="40.07164" lon="-4.18791">
        <ele>560.6</ele>
        <time>2020-08-16 08:51:28</time>
      </trkpt>
      <trkpt lat="40.07164" lon="-4.18798">
        <ele>560.4</ele>
        <time>2020-08-16 08:51:29</time>
      </trkpt>
      <trkpt lat="40.07163" lon="-4.18804">
        <ele>560.4</ele>
        <time>2020-08-16 08:51:30</time>
      </trkpt>
      <trkpt lat="40.07162" lon="-4.18811">
        <ele>560.4</ele>
        <time>2020-08-16 08:51:31</time>
      </trkpt>
      <trkpt lat="40.07162" lon="-4.18817">
        <ele>560.2</ele>
        <time>2020-08-16 08:51:32</time>
      </trkpt>
      <trkpt lat="40.07161" lon="-4.18824">
        <ele>560.2</ele>
        <time>2020-08-16 08:51:33</time>
      </trkpt>
      <trkpt lat="40.0716" lon="-4.1883">
        <ele>560</ele>
        <time>2020-08-16 08:51:34</time>
      </trkpt>
      <trkpt lat="40.0716" lon="-4.18836">
        <ele>560</ele>
        <time>2020-08-16 08:51:35</time>
      </trkpt>
      <trkpt lat="40.07159" lon="-4.18842">
        <ele>560</ele>
        <time>2020-08-16 08:51:36</time>
      </trkpt>
      <trkpt lat="40.0716" lon="-4.18848">
        <ele>560</ele>
        <time>2020-08-16 08:51:37</time>
      </trkpt>
      <trkpt lat="40.0716" lon="-4.18854">
        <ele>560</ele>
        <time>2020-08-16 08:51:38</time>
      </trkpt>
      <trkpt lat="40.07161" lon="-4.1886">
        <ele>560</ele>
        <time>2020-08-16 08:51:39</time>
      </trkpt>
      <trkpt lat="40.07162" lon="-4.18866">
        <ele>560</ele>
        <time>2020-08-16 08:51:40</time>
      </trkpt>
      <trkpt lat="40.07163" lon="-4.18872">
        <ele>560</ele>
        <time>2020-08-16 08:51:41</time>
      </trkpt>
      <trkpt lat="40.07165" lon="-4.18878">
        <ele>560</ele>
        <time>2020-08-16 08:51:42</time>
      </trkpt>
      <trkpt lat="40.07166" lon="-4.18884">
        <ele>560</ele>
        <time>2020-08-16 08:51:43</time>
      </trkpt>
      <trkpt lat="40.07166" lon="-4.18889">
        <ele>560</ele>
        <time>2020-08-16 08:51:44</time>
      </trkpt>
      <trkpt lat="40.07167" lon="-4.18895">
        <ele>560.2</ele>
        <time>2020-08-16 08:51:45</time>
      </trkpt>
      <trkpt lat="40.07167" lon="-4.18902">
        <ele>560.2</ele>
        <time>2020-08-16 08:51:46</time>
      </trkpt>
      <trkpt lat="40.07168" lon="-4.18908">
        <ele>560.2</ele>
        <time>2020-08-16 08:51:47</time>
      </trkpt>
      <trkpt lat="40.07168" lon="-4.18914">
        <ele>560.2</ele>
        <time>2020-08-16 08:51:48</time>
      </trkpt>
      <trkpt lat="40.07168" lon="-4.1892">
        <ele>560.2</ele>
        <time>2020-08-16 08:51:49</time>
      </trkpt>
      <trkpt lat="40.07169" lon="-4.18926">
        <ele>560.2</ele>
        <time>2020-08-16 08:51:50</time>
      </trkpt>
      <trkpt lat="40.07169" lon="-4.18931">
        <ele>560.4</ele>
        <time>2020-08-16 08:51:51</time>
      </trkpt>
      <trkpt lat="40.0717" lon="-4.18937">
        <ele>560.4</ele>
        <time>2020-08-16 08:51:52</time>
      </trkpt>
      <trkpt lat="40.0717" lon="-4.18942">
        <ele>560.4</ele>
        <time>2020-08-16 08:51:53</time>
      </trkpt>
      <trkpt lat="40.07171" lon="-4.18948">
        <ele>560.6</ele>
        <time>2020-08-16 08:51:54</time>
      </trkpt>
      <trkpt lat="40.07171" lon="-4.18953">
        <ele>560.6</ele>
        <time>2020-08-16 08:51:55</time>
      </trkpt>
      <trkpt lat="40.07171" lon="-4.18959">
        <ele>560.6</ele>
        <time>2020-08-16 08:51:56</time>
      </trkpt>
      <trkpt lat="40.07171" lon="-4.18964">
        <ele>560.8</ele>
        <time>2020-08-16 08:51:57</time>
      </trkpt>
      <trkpt lat="40.07172" lon="-4.1897">
        <ele>560.8</ele>
        <time>2020-08-16 08:51:58</time>
      </trkpt>
      <trkpt lat="40.07172" lon="-4.18975">
        <ele>560.8</ele>
        <time>2020-08-16 08:51:59</time>
      </trkpt>
      <trkpt lat="40.07172" lon="-4.1898">
        <ele>561</ele>
        <time>2020-08-16 08:52:00</time>
      </trkpt>
      <trkpt lat="40.07171" lon="-4.18986">
        <ele>561</ele>
        <time>2020-08-16 08:52:01</time>
      </trkpt>
      <trkpt lat="40.07171" lon="-4.18991">
        <ele>561.2</ele>
        <time>2020-08-16 08:52:02</time>
      </trkpt>
      <trkpt lat="40.07171" lon="-4.18996">
        <ele>561.2</ele>
        <time>2020-08-16 08:52:03</time>
      </trkpt>
      <trkpt lat="40.07171" lon="-4.19001">
        <ele>561.4</ele>
        <time>2020-08-16 08:52:04</time>
      </trkpt>
      <trkpt lat="40.07171" lon="-4.19006">
        <ele>561.4</ele>
        <time>2020-08-16 08:52:05</time>
      </trkpt>
      <trkpt lat="40.07171" lon="-4.19011">
        <ele>561.4</ele>
        <time>2020-08-16 08:52:06</time>
      </trkpt>
      <trkpt lat="40.07171" lon="-4.19016">
        <ele>561.6</ele>
        <time>2020-08-16 08:52:07</time>
      </trkpt>
      <trkpt lat="40.07171" lon="-4.19022">
        <ele>562</ele>
        <time>2020-08-16 08:52:08</time>
      </trkpt>
      <trkpt lat="40.0717" lon="-4.19027">
        <ele>562</ele>
        <time>2020-08-16 08:52:09</time>
      </trkpt>
      <trkpt lat="40.07169" lon="-4.19032">
        <ele>562</ele>
        <time>2020-08-16 08:52:10</time>
      </trkpt>
      <trkpt lat="40.07169" lon="-4.19038">
        <ele>562.2</ele>
        <time>2020-08-16 08:52:11</time>
      </trkpt>
      <trkpt lat="40.07168" lon="-4.19043">
        <ele>562.2</ele>
        <time>2020-08-16 08:52:12</time>
      </trkpt>
      <trkpt lat="40.07164" lon="-4.19072">
        <ele>562.2</ele>
        <time>2020-08-16 08:52:18</time>
      </trkpt>
      <trkpt lat="40.07163" lon="-4.19077">
        <ele>562.2</ele>
        <time>2020-08-16 08:52:19</time>
      </trkpt>
      <trkpt lat="40.07163" lon="-4.19081">
        <ele>562.2</ele>
        <time>2020-08-16 08:52:20</time>
      </trkpt>
      <trkpt lat="40.07162" lon="-4.19086">
        <ele>562.2</ele>
        <time>2020-08-16 08:52:21</time>
      </trkpt>
      <trkpt lat="40.07162" lon="-4.19091">
        <ele>562.2</ele>
        <time>2020-08-16 08:52:22</time>
      </trkpt>
      <trkpt lat="40.07162" lon="-4.19096">
        <ele>562.2</ele>
        <time>2020-08-16 08:52:23</time>
      </trkpt>
      <trkpt lat="40.07162" lon="-4.19101">
        <ele>562.2</ele>
        <time>2020-08-16 08:52:24</time>
      </trkpt>
      <trkpt lat="40.07162" lon="-4.19106">
        <ele>562.2</ele>
        <time>2020-08-16 08:52:25</time>
      </trkpt>
      <trkpt lat="40.07162" lon="-4.19111">
        <ele>562.2</ele>
        <time>2020-08-16 08:52:26</time>
      </trkpt>
      <trkpt lat="40.07161" lon="-4.19116">
        <ele>562.2</ele>
        <time>2020-08-16 08:52:27</time>
      </trkpt>
      <trkpt lat="40.07161" lon="-4.19121">
        <ele>562.4</ele>
        <time>2020-08-16 08:52:28</time>
      </trkpt>
      <trkpt lat="40.07159" lon="-4.19136">
        <ele>562.4</ele>
        <time>2020-08-16 08:52:31</time>
      </trkpt>
      <trkpt lat="40.07159" lon="-4.19141">
        <ele>562.4</ele>
        <time>2020-08-16 08:52:32</time>
      </trkpt>
      <trkpt lat="40.07159" lon="-4.19146">
        <ele>562.4</ele>
        <time>2020-08-16 08:52:33</time>
      </trkpt>
      <trkpt lat="40.07158" lon="-4.19151">
        <ele>562.4</ele>
        <time>2020-08-16 08:52:34</time>
      </trkpt>
      <trkpt lat="40.07158" lon="-4.19156">
        <ele>562.4</ele>
        <time>2020-08-16 08:52:35</time>
      </trkpt>
      <trkpt lat="40.07157" lon="-4.19161">
        <ele>562.6</ele>
        <time>2020-08-16 08:52:36</time>
      </trkpt>
      <trkpt lat="40.07157" lon="-4.19165">
        <ele>562.6</ele>
        <time>2020-08-16 08:52:37</time>
      </trkpt>
      <trkpt lat="40.07156" lon="-4.1917">
        <ele>562.6</ele>
        <time>2020-08-16 08:52:38</time>
      </trkpt>
      <trkpt lat="40.07156" lon="-4.19175">
        <ele>562.6</ele>
        <time>2020-08-16 08:52:39</time>
      </trkpt>
      <trkpt lat="40.07155" lon="-4.1918">
        <ele>562.8</ele>
        <time>2020-08-16 08:52:40</time>
      </trkpt>
      <trkpt lat="40.0715" lon="-4.19211">
        <ele>563</ele>
        <time>2020-08-16 08:52:46</time>
      </trkpt>
      <trkpt lat="40.07138" lon="-4.19258">
        <ele>563.2</ele>
        <time>2020-08-16 08:52:55</time>
      </trkpt>
      <trkpt lat="40.07129" lon="-4.19289">
        <ele>563.2</ele>
        <time>2020-08-16 08:53:01</time>
      </trkpt>
      <trkpt lat="40.07122" lon="-4.1931">
        <ele>563</ele>
        <time>2020-08-16 08:53:05</time>
      </trkpt>
      <trkpt lat="40.07121" lon="-4.19315">
        <ele>563</ele>
        <time>2020-08-16 08:53:06</time>
      </trkpt>
      <trkpt lat="40.07119" lon="-4.1932">
        <ele>563</ele>
        <time>2020-08-16 08:53:07</time>
      </trkpt>
      <trkpt lat="40.07117" lon="-4.19325">
        <ele>563</ele>
        <time>2020-08-16 08:53:08</time>
      </trkpt>
      <trkpt lat="40.07116" lon="-4.19329">
        <ele>563</ele>
        <time>2020-08-16 08:53:09</time>
      </trkpt>
      <trkpt lat="40.07114" lon="-4.19334">
        <ele>562.8</ele>
        <time>2020-08-16 08:53:10</time>
      </trkpt>
      <trkpt lat="40.07112" lon="-4.19339">
        <ele>562.8</ele>
        <time>2020-08-16 08:53:11</time>
      </trkpt>
      <trkpt lat="40.07111" lon="-4.19343">
        <ele>562.8</ele>
        <time>2020-08-16 08:53:12</time>
      </trkpt>
      <trkpt lat="40.07109" lon="-4.19348">
        <ele>562.8</ele>
        <time>2020-08-16 08:53:13</time>
      </trkpt>
      <trkpt lat="40.07108" lon="-4.19353">
        <ele>562.8</ele>
        <time>2020-08-16 08:53:14</time>
      </trkpt>
      <trkpt lat="40.07106" lon="-4.19358">
        <ele>563</ele>
        <time>2020-08-16 08:53:15</time>
      </trkpt>
      <trkpt lat="40.07105" lon="-4.19362">
        <ele>563</ele>
        <time>2020-08-16 08:53:16</time>
      </trkpt>
      <trkpt lat="40.07103" lon="-4.19367">
        <ele>563</ele>
        <time>2020-08-16 08:53:17</time>
      </trkpt>
      <trkpt lat="40.07102" lon="-4.19372">
        <ele>563</ele>
        <time>2020-08-16 08:53:18</time>
      </trkpt>
      <trkpt lat="40.071" lon="-4.19376">
        <ele>563</ele>
        <time>2020-08-16 08:53:19</time>
      </trkpt>
      <trkpt lat="40.07098" lon="-4.19381">
        <ele>563</ele>
        <time>2020-08-16 08:53:20</time>
      </trkpt>
      <trkpt lat="40.07097" lon="-4.19385">
        <ele>563</ele>
        <time>2020-08-16 08:53:21</time>
      </trkpt>
      <trkpt lat="40.07095" lon="-4.1939">
        <ele>563.2</ele>
        <time>2020-08-16 08:53:22</time>
      </trkpt>
      <trkpt lat="40.07093" lon="-4.19394">
        <ele>563.2</ele>
        <time>2020-08-16 08:53:23</time>
      </trkpt>
      <trkpt lat="40.07092" lon="-4.19398">
        <ele>563.2</ele>
        <time>2020-08-16 08:53:24</time>
      </trkpt>
      <trkpt lat="40.0709" lon="-4.19402">
        <ele>563.2</ele>
        <time>2020-08-16 08:53:25</time>
      </trkpt>
      <trkpt lat="40.07088" lon="-4.19406">
        <ele>563.2</ele>
        <time>2020-08-16 08:53:26</time>
      </trkpt>
      <trkpt lat="40.07087" lon="-4.19411">
        <ele>563.2</ele>
        <time>2020-08-16 08:53:27</time>
      </trkpt>
      <trkpt lat="40.07085" lon="-4.19415">
        <ele>563.2</ele>
        <time>2020-08-16 08:53:28</time>
      </trkpt>
      <trkpt lat="40.07083" lon="-4.19419">
        <ele>563.2</ele>
        <time>2020-08-16 08:53:29</time>
      </trkpt>
      <trkpt lat="40.07081" lon="-4.19424">
        <ele>563.2</ele>
        <time>2020-08-16 08:53:30</time>
      </trkpt>
      <trkpt lat="40.0708" lon="-4.19428">
        <ele>563.2</ele>
        <time>2020-08-16 08:53:31</time>
      </trkpt>
      <trkpt lat="40.07078" lon="-4.19432">
        <ele>563.2</ele>
        <time>2020-08-16 08:53:32</time>
      </trkpt>
      <trkpt lat="40.07076" lon="-4.19436">
        <ele>563.2</ele>
        <time>2020-08-16 08:53:33</time>
      </trkpt>
      <trkpt lat="40.07074" lon="-4.1944">
        <ele>563.2</ele>
        <time>2020-08-16 08:53:34</time>
      </trkpt>
      <trkpt lat="40.07072" lon="-4.19444">
        <ele>563.2</ele>
        <time>2020-08-16 08:53:35</time>
      </trkpt>
      <trkpt lat="40.0707" lon="-4.19448">
        <ele>563.2</ele>
        <time>2020-08-16 08:53:36</time>
      </trkpt>
      <trkpt lat="40.07068" lon="-4.19452">
        <ele>563.2</ele>
        <time>2020-08-16 08:53:37</time>
      </trkpt>
      <trkpt lat="40.07067" lon="-4.19456">
        <ele>563.4</ele>
        <time>2020-08-16 08:53:38</time>
      </trkpt>
      <trkpt lat="40.07065" lon="-4.1946">
        <ele>563.4</ele>
        <time>2020-08-16 08:53:39</time>
      </trkpt>
      <trkpt lat="40.07063" lon="-4.19464">
        <ele>563.4</ele>
        <time>2020-08-16 08:53:40</time>
      </trkpt>
      <trkpt lat="40.0706" lon="-4.19468">
        <ele>563.4</ele>
        <time>2020-08-16 08:53:41</time>
      </trkpt>
      <trkpt lat="40.07058" lon="-4.19472">
        <ele>563.4</ele>
        <time>2020-08-16 08:53:42</time>
      </trkpt>
      <trkpt lat="40.07041" lon="-4.19499">
        <ele>563.4</ele>
        <time>2020-08-16 08:53:49</time>
      </trkpt>
      <trkpt lat="40.0701" lon="-4.19543">
        <ele>563.4</ele>
        <time>2020-08-16 08:54:00</time>
      </trkpt>
      <trkpt lat="40.06992" lon="-4.19573">
        <ele>563</ele>
        <time>2020-08-16 08:54:07</time>
      </trkpt>
      <trkpt lat="40.0699" lon="-4.19577">
        <ele>563</ele>
        <time>2020-08-16 08:54:08</time>
      </trkpt>
      <trkpt lat="40.06987" lon="-4.19581">
        <ele>563</ele>
        <time>2020-08-16 08:54:09</time>
      </trkpt>
      <trkpt lat="40.06984" lon="-4.19585">
        <ele>563</ele>
        <time>2020-08-16 08:54:10</time>
      </trkpt>
      <trkpt lat="40.06982" lon="-4.19589">
        <ele>563</ele>
        <time>2020-08-16 08:54:11</time>
      </trkpt>
      <trkpt lat="40.06979" lon="-4.19593">
        <ele>563</ele>
        <time>2020-08-16 08:54:12</time>
      </trkpt>
      <trkpt lat="40.06977" lon="-4.19597">
        <ele>563</ele>
        <time>2020-08-16 08:54:13</time>
      </trkpt>
      <trkpt lat="40.06974" lon="-4.196">
        <ele>563</ele>
        <time>2020-08-16 08:54:14</time>
      </trkpt>
      <trkpt lat="40.06971" lon="-4.19604">
        <ele>563</ele>
        <time>2020-08-16 08:54:15</time>
      </trkpt>
      <trkpt lat="40.06969" lon="-4.19608">
        <ele>563</ele>
        <time>2020-08-16 08:54:16</time>
      </trkpt>
      <trkpt lat="40.06966" lon="-4.19612">
        <ele>563</ele>
        <time>2020-08-16 08:54:17</time>
      </trkpt>
      <trkpt lat="40.06964" lon="-4.19616">
        <ele>563.2</ele>
        <time>2020-08-16 08:54:18</time>
      </trkpt>
      <trkpt lat="40.06962" lon="-4.19619">
        <ele>563.2</ele>
        <time>2020-08-16 08:54:19</time>
      </trkpt>
      <trkpt lat="40.06959" lon="-4.19623">
        <ele>563.2</ele>
        <time>2020-08-16 08:54:20</time>
      </trkpt>
      <trkpt lat="40.06956" lon="-4.19627">
        <ele>563.2</ele>
        <time>2020-08-16 08:54:21</time>
      </trkpt>
      <trkpt lat="40.06954" lon="-4.19631">
        <ele>563.2</ele>
        <time>2020-08-16 08:54:22</time>
      </trkpt>
      <trkpt lat="40.06951" lon="-4.19635">
        <ele>563.2</ele>
        <time>2020-08-16 08:54:23</time>
      </trkpt>
      <trkpt lat="40.06949" lon="-4.19639">
        <ele>563.2</ele>
        <time>2020-08-16 08:54:24</time>
      </trkpt>
      <trkpt lat="40.06947" lon="-4.19642">
        <ele>563.2</ele>
        <time>2020-08-16 08:54:25</time>
      </trkpt>
      <trkpt lat="40.06944" lon="-4.19646">
        <ele>563.2</ele>
        <time>2020-08-16 08:54:26</time>
      </trkpt>
      <trkpt lat="40.06942" lon="-4.1965">
        <ele>563.2</ele>
        <time>2020-08-16 08:54:27</time>
      </trkpt>
      <trkpt lat="40.06939" lon="-4.19654">
        <ele>563.4</ele>
        <time>2020-08-16 08:54:28</time>
      </trkpt>
      <trkpt lat="40.06932" lon="-4.19666">
        <ele>563.4</ele>
        <time>2020-08-16 08:54:31</time>
      </trkpt>
      <trkpt lat="40.06929" lon="-4.1967">
        <ele>563.4</ele>
        <time>2020-08-16 08:54:32</time>
      </trkpt>
      <trkpt lat="40.06911" lon="-4.19696">
        <ele>563.6</ele>
        <time>2020-08-16 08:54:39</time>
      </trkpt>
      <trkpt lat="40.06909" lon="-4.197">
        <ele>563.6</ele>
        <time>2020-08-16 08:54:40</time>
      </trkpt>
      <trkpt lat="40.06907" lon="-4.19704">
        <ele>563.6</ele>
        <time>2020-08-16 08:54:41</time>
      </trkpt>
      <trkpt lat="40.06904" lon="-4.19707">
        <ele>563.6</ele>
        <time>2020-08-16 08:54:42</time>
      </trkpt>
      <trkpt lat="40.06902" lon="-4.19711">
        <ele>563.6</ele>
        <time>2020-08-16 08:54:43</time>
      </trkpt>
      <trkpt lat="40.069" lon="-4.19715">
        <ele>563.8</ele>
        <time>2020-08-16 08:54:44</time>
      </trkpt>
      <trkpt lat="40.06898" lon="-4.19718">
        <ele>563.8</ele>
        <time>2020-08-16 08:54:45</time>
      </trkpt>
      <trkpt lat="40.06895" lon="-4.19722">
        <ele>564</ele>
        <time>2020-08-16 08:54:46</time>
      </trkpt>
      <trkpt lat="40.06893" lon="-4.19726">
        <ele>564</ele>
        <time>2020-08-16 08:54:47</time>
      </trkpt>
      <trkpt lat="40.06891" lon="-4.19729">
        <ele>564.2</ele>
        <time>2020-08-16 08:54:48</time>
      </trkpt>
      <trkpt lat="40.06888" lon="-4.19733">
        <ele>564.4</ele>
        <time>2020-08-16 08:54:49</time>
      </trkpt>
      <trkpt lat="40.06886" lon="-4.19736">
        <ele>564.4</ele>
        <time>2020-08-16 08:54:50</time>
      </trkpt>
      <trkpt lat="40.06883" lon="-4.19738">
        <ele>564.4</ele>
        <time>2020-08-16 08:54:51</time>
      </trkpt>
      <trkpt lat="40.0688" lon="-4.19741">
        <ele>564.4</ele>
        <time>2020-08-16 08:54:52</time>
      </trkpt>
      <trkpt lat="40.06877" lon="-4.19744">
        <ele>564.4</ele>
        <time>2020-08-16 08:54:53</time>
      </trkpt>
      <trkpt lat="40.06874" lon="-4.19746">
        <ele>564.6</ele>
        <time>2020-08-16 08:54:54</time>
      </trkpt>
      <trkpt lat="40.06872" lon="-4.19749">
        <ele>564.8</ele>
        <time>2020-08-16 08:54:55</time>
      </trkpt>
      <trkpt lat="40.06869" lon="-4.19752">
        <ele>564.8</ele>
        <time>2020-08-16 08:54:56</time>
      </trkpt>
      <trkpt lat="40.06866" lon="-4.19754">
        <ele>565</ele>
        <time>2020-08-16 08:54:57</time>
      </trkpt>
      <trkpt lat="40.06863" lon="-4.19757">
        <ele>565</ele>
        <time>2020-08-16 08:54:58</time>
      </trkpt>
      <trkpt lat="40.0686" lon="-4.1976">
        <ele>565</ele>
        <time>2020-08-16 08:54:59</time>
      </trkpt>
      <trkpt lat="40.06839" lon="-4.19778">
        <ele>565</ele>
        <time>2020-08-16 08:55:06</time>
      </trkpt>
      <trkpt lat="40.0683" lon="-4.19785">
        <ele>565.2</ele>
        <time>2020-08-16 08:55:09</time>
      </trkpt>
      <trkpt lat="40.06814" lon="-4.19798">
        <ele>565</ele>
        <time>2020-08-16 08:55:14</time>
      </trkpt>
      <trkpt lat="40.06801" lon="-4.19806">
        <ele>565.2</ele>
        <time>2020-08-16 08:55:18</time>
      </trkpt>
      <trkpt lat="40.06798" lon="-4.19808">
        <ele>565.2</ele>
        <time>2020-08-16 08:55:19</time>
      </trkpt>
      <trkpt lat="40.06782" lon="-4.19819">
        <ele>565.4</ele>
        <time>2020-08-16 08:55:24</time>
      </trkpt>
      <trkpt lat="40.06779" lon="-4.19821">
        <ele>565.6</ele>
        <time>2020-08-16 08:55:25</time>
      </trkpt>
      <trkpt lat="40.06776" lon="-4.19824">
        <ele>565.6</ele>
        <time>2020-08-16 08:55:26</time>
      </trkpt>
      <trkpt lat="40.06767" lon="-4.19832">
        <ele>565.8</ele>
        <time>2020-08-16 08:55:29</time>
      </trkpt>
      <trkpt lat="40.06758" lon="-4.19841">
        <ele>566</ele>
        <time>2020-08-16 08:55:32</time>
      </trkpt>
      <trkpt lat="40.06755" lon="-4.19844">
        <ele>566</ele>
        <time>2020-08-16 08:55:33</time>
      </trkpt>
      <trkpt lat="40.06752" lon="-4.19847">
        <ele>566</ele>
        <time>2020-08-16 08:55:34</time>
      </trkpt>
      <trkpt lat="40.06749" lon="-4.1985">
        <ele>566.2</ele>
        <time>2020-08-16 08:55:35</time>
      </trkpt>
      <trkpt lat="40.06743" lon="-4.19856">
        <ele>566</ele>
        <time>2020-08-16 08:55:37</time>
      </trkpt>
      <trkpt lat="40.06737" lon="-4.19862">
        <ele>566</ele>
        <time>2020-08-16 08:55:39</time>
      </trkpt>
      <trkpt lat="40.06729" lon="-4.19872">
        <ele>566.2</ele>
        <time>2020-08-16 08:55:42</time>
      </trkpt>
      <trkpt lat="40.06727" lon="-4.19876">
        <ele>566.4</ele>
        <time>2020-08-16 08:55:43</time>
      </trkpt>
      <trkpt lat="40.06713" lon="-4.19894">
        <ele>566.2</ele>
        <time>2020-08-16 08:55:48</time>
      </trkpt>
      <trkpt lat="40.06711" lon="-4.19897">
        <ele>566.2</ele>
        <time>2020-08-16 08:55:49</time>
      </trkpt>
      <trkpt lat="40.06697" lon="-4.19915">
        <ele>566.2</ele>
        <time>2020-08-16 08:55:54</time>
      </trkpt>
      <trkpt lat="40.06694" lon="-4.19918">
        <ele>566.2</ele>
        <time>2020-08-16 08:55:55</time>
      </trkpt>
      <trkpt lat="40.06685" lon="-4.19929">
        <ele>566</ele>
        <time>2020-08-16 08:55:58</time>
      </trkpt>
      <trkpt lat="40.06668" lon="-4.1995">
        <ele>566.2</ele>
        <time>2020-08-16 08:56:04</time>
      </trkpt>
      <trkpt lat="40.06665" lon="-4.19953">
        <ele>566.2</ele>
        <time>2020-08-16 08:56:05</time>
      </trkpt>
      <trkpt lat="40.06662" lon="-4.19957">
        <ele>566.4</ele>
        <time>2020-08-16 08:56:06</time>
      </trkpt>
      <trkpt lat="40.06659" lon="-4.1996">
        <ele>566.4</ele>
        <time>2020-08-16 08:56:07</time>
      </trkpt>
      <trkpt lat="40.06656" lon="-4.19963">
        <ele>566.4</ele>
        <time>2020-08-16 08:56:08</time>
      </trkpt>
      <trkpt lat="40.06653" lon="-4.19966">
        <ele>566.4</ele>
        <time>2020-08-16 08:56:09</time>
      </trkpt>
      <trkpt lat="40.0665" lon="-4.1997">
        <ele>566.4</ele>
        <time>2020-08-16 08:56:10</time>
      </trkpt>
      <trkpt lat="40.06648" lon="-4.19973">
        <ele>566.4</ele>
        <time>2020-08-16 08:56:11</time>
      </trkpt>
      <trkpt lat="40.06645" lon="-4.19976">
        <ele>566.4</ele>
        <time>2020-08-16 08:56:12</time>
      </trkpt>
      <trkpt lat="40.06642" lon="-4.19979">
        <ele>566.6</ele>
        <time>2020-08-16 08:56:13</time>
      </trkpt>
      <trkpt lat="40.06639" lon="-4.19982">
        <ele>566.6</ele>
        <time>2020-08-16 08:56:14</time>
      </trkpt>
      <trkpt lat="40.0663" lon="-4.1999">
        <ele>566.6</ele>
        <time>2020-08-16 08:56:17</time>
      </trkpt>
      <trkpt lat="40.0659" lon="-4.20025">
        <ele>566.6</ele>
        <time>2020-08-16 08:56:29</time>
      </trkpt>
      <trkpt lat="40.06574" lon="-4.20039">
        <ele>566.8</ele>
        <time>2020-08-16 08:56:34</time>
      </trkpt>
      <trkpt lat="40.0657" lon="-4.20042">
        <ele>566.8</ele>
        <time>2020-08-16 08:56:35</time>
      </trkpt>
      <trkpt lat="40.06567" lon="-4.20044">
        <ele>566.8</ele>
        <time>2020-08-16 08:56:36</time>
      </trkpt>
      <trkpt lat="40.06564" lon="-4.20046">
        <ele>566.8</ele>
        <time>2020-08-16 08:56:37</time>
      </trkpt>
      <trkpt lat="40.0656" lon="-4.20048">
        <ele>566.8</ele>
        <time>2020-08-16 08:56:38</time>
      </trkpt>
      <trkpt lat="40.06557" lon="-4.20051">
        <ele>566.8</ele>
        <time>2020-08-16 08:56:39</time>
      </trkpt>
      <trkpt lat="40.06554" lon="-4.20053">
        <ele>566.8</ele>
        <time>2020-08-16 08:56:40</time>
      </trkpt>
      <trkpt lat="40.06551" lon="-4.20056">
        <ele>566.8</ele>
        <time>2020-08-16 08:56:41</time>
      </trkpt>
      <trkpt lat="40.06547" lon="-4.20059">
        <ele>566.8</ele>
        <time>2020-08-16 08:56:42</time>
      </trkpt>
      <trkpt lat="40.06544" lon="-4.20062">
        <ele>566.8</ele>
        <time>2020-08-16 08:56:43</time>
      </trkpt>
      <trkpt lat="40.0654" lon="-4.20064">
        <ele>566.8</ele>
        <time>2020-08-16 08:56:44</time>
      </trkpt>
      <trkpt lat="40.06537" lon="-4.20067">
        <ele>567</ele>
        <time>2020-08-16 08:56:45</time>
      </trkpt>
      <trkpt lat="40.0653" lon="-4.20072">
        <ele>567.2</ele>
        <time>2020-08-16 08:56:47</time>
      </trkpt>
      <trkpt lat="40.06517" lon="-4.20081">
        <ele>567.6</ele>
        <time>2020-08-16 08:56:51</time>
      </trkpt>
      <trkpt lat="40.06514" lon="-4.20083">
        <ele>567.6</ele>
        <time>2020-08-16 08:56:52</time>
      </trkpt>
      <trkpt lat="40.0651" lon="-4.20086">
        <ele>567.6</ele>
        <time>2020-08-16 08:56:53</time>
      </trkpt>
      <trkpt lat="40.06507" lon="-4.20088">
        <ele>567.8</ele>
        <time>2020-08-16 08:56:54</time>
      </trkpt>
      <trkpt lat="40.06503" lon="-4.20091">
        <ele>567.8</ele>
        <time>2020-08-16 08:56:55</time>
      </trkpt>
      <trkpt lat="40.065" lon="-4.20093">
        <ele>567.8</ele>
        <time>2020-08-16 08:56:56</time>
      </trkpt>
      <trkpt lat="40.06497" lon="-4.20095">
        <ele>567.8</ele>
        <time>2020-08-16 08:56:57</time>
      </trkpt>
      <trkpt lat="40.06494" lon="-4.20098">
        <ele>567.8</ele>
        <time>2020-08-16 08:56:58</time>
      </trkpt>
      <trkpt lat="40.0649" lon="-4.201">
        <ele>567.8</ele>
        <time>2020-08-16 08:56:59</time>
      </trkpt>
      <trkpt lat="40.06487" lon="-4.20103">
        <ele>567.8</ele>
        <time>2020-08-16 08:57:00</time>
      </trkpt>
      <trkpt lat="40.06484" lon="-4.20105">
        <ele>567.8</ele>
        <time>2020-08-16 08:57:01</time>
      </trkpt>
      <trkpt lat="40.0648" lon="-4.20107">
        <ele>567.8</ele>
        <time>2020-08-16 08:57:02</time>
      </trkpt>
      <trkpt lat="40.06477" lon="-4.20109">
        <ele>567.8</ele>
        <time>2020-08-16 08:57:03</time>
      </trkpt>
      <trkpt lat="40.06474" lon="-4.20112">
        <ele>567.8</ele>
        <time>2020-08-16 08:57:04</time>
      </trkpt>
      <trkpt lat="40.0647" lon="-4.20115">
        <ele>567.8</ele>
        <time>2020-08-16 08:57:05</time>
      </trkpt>
      <trkpt lat="40.06467" lon="-4.20117">
        <ele>567.8</ele>
        <time>2020-08-16 08:57:06</time>
      </trkpt>
      <trkpt lat="40.06464" lon="-4.20119">
        <ele>567.8</ele>
        <time>2020-08-16 08:57:07</time>
      </trkpt>
      <trkpt lat="40.06461" lon="-4.20122">
        <ele>567.8</ele>
        <time>2020-08-16 08:57:08</time>
      </trkpt>
      <trkpt lat="40.06458" lon="-4.20124">
        <ele>567.8</ele>
        <time>2020-08-16 08:57:09</time>
      </trkpt>
      <trkpt lat="40.06455" lon="-4.20126">
        <ele>568</ele>
        <time>2020-08-16 08:57:10</time>
      </trkpt>
      <trkpt lat="40.06451" lon="-4.20128">
        <ele>568</ele>
        <time>2020-08-16 08:57:11</time>
      </trkpt>
      <trkpt lat="40.06448" lon="-4.20131">
        <ele>568</ele>
        <time>2020-08-16 08:57:12</time>
      </trkpt>
      <trkpt lat="40.06444" lon="-4.20133">
        <ele>568.2</ele>
        <time>2020-08-16 08:57:13</time>
      </trkpt>
      <trkpt lat="40.06441" lon="-4.20136">
        <ele>568.4</ele>
        <time>2020-08-16 08:57:14</time>
      </trkpt>
      <trkpt lat="40.06438" lon="-4.20138">
        <ele>568.4</ele>
        <time>2020-08-16 08:57:15</time>
      </trkpt>
      <trkpt lat="40.06435" lon="-4.2014">
        <ele>568.6</ele>
        <time>2020-08-16 08:57:16</time>
      </trkpt>
      <trkpt lat="40.06432" lon="-4.20143">
        <ele>568.8</ele>
        <time>2020-08-16 08:57:17</time>
      </trkpt>
      <trkpt lat="40.06429" lon="-4.20145">
        <ele>568.8</ele>
        <time>2020-08-16 08:57:18</time>
      </trkpt>
      <trkpt lat="40.06426" lon="-4.20147">
        <ele>568.8</ele>
        <time>2020-08-16 08:57:19</time>
      </trkpt>
      <trkpt lat="40.06423" lon="-4.20149">
        <ele>569</ele>
        <time>2020-08-16 08:57:20</time>
      </trkpt>
      <trkpt lat="40.0642" lon="-4.20151">
        <ele>569</ele>
        <time>2020-08-16 08:57:21</time>
      </trkpt>
      <trkpt lat="40.06417" lon="-4.20153">
        <ele>569.2</ele>
        <time>2020-08-16 08:57:22</time>
      </trkpt>
      <trkpt lat="40.06414" lon="-4.20155">
        <ele>569.2</ele>
        <time>2020-08-16 08:57:23</time>
      </trkpt>
      <trkpt lat="40.06412" lon="-4.20156">
        <ele>569.2</ele>
        <time>2020-08-16 08:57:24</time>
      </trkpt>
      <trkpt lat="40.0641" lon="-4.20158">
        <ele>569.4</ele>
        <time>2020-08-16 08:57:25</time>
      </trkpt>
      <trkpt lat="40.06408" lon="-4.20159">
        <ele>569.6</ele>
        <time>2020-08-16 08:57:26</time>
      </trkpt>
      <trkpt lat="40.06406" lon="-4.2016">
        <ele>569.6</ele>
        <time>2020-08-16 08:57:27</time>
      </trkpt>
      <trkpt lat="40.06404" lon="-4.20162">
        <ele>569.6</ele>
        <time>2020-08-16 08:57:28</time>
      </trkpt>
      <trkpt lat="40.06391" lon="-4.2017">
        <ele>569.8</ele>
        <time>2020-08-16 08:57:33</time>
      </trkpt>
      <trkpt lat="40.06386" lon="-4.20173">
        <ele>570</ele>
        <time>2020-08-16 08:57:35</time>
      </trkpt>
      <trkpt lat="40.06381" lon="-4.20177">
        <ele>570.4</ele>
        <time>2020-08-16 08:57:37</time>
      </trkpt>
      <trkpt lat="40.06376" lon="-4.20181">
        <ele>570.6</ele>
        <time>2020-08-16 08:57:39</time>
      </trkpt>
      <trkpt lat="40.06364" lon="-4.20192">
        <ele>571</ele>
        <time>2020-08-16 08:57:44</time>
      </trkpt>
      <trkpt lat="40.06362" lon="-4.20194">
        <ele>571</ele>
        <time>2020-08-16 08:57:45</time>
      </trkpt>
      <trkpt lat="40.06359" lon="-4.20196">
        <ele>571</ele>
        <time>2020-08-16 08:57:46</time>
      </trkpt>
      <trkpt lat="40.06357" lon="-4.20198">
        <ele>571</ele>
        <time>2020-08-16 08:57:47</time>
      </trkpt>
      <trkpt lat="40.06355" lon="-4.20201">
        <ele>571.2</ele>
        <time>2020-08-16 08:57:48</time>
      </trkpt>
      <trkpt lat="40.06352" lon="-4.20203">
        <ele>571.2</ele>
        <time>2020-08-16 08:57:49</time>
      </trkpt>
      <trkpt lat="40.0635" lon="-4.20205">
        <ele>571.2</ele>
        <time>2020-08-16 08:57:50</time>
      </trkpt>
      <trkpt lat="40.06348" lon="-4.20208">
        <ele>571.4</ele>
        <time>2020-08-16 08:57:51</time>
      </trkpt>
      <trkpt lat="40.06343" lon="-4.20212">
        <ele>571.6</ele>
        <time>2020-08-16 08:57:53</time>
      </trkpt>
      <trkpt lat="40.06335" lon="-4.20219">
        <ele>572</ele>
        <time>2020-08-16 08:57:56</time>
      </trkpt>
      <trkpt lat="40.06333" lon="-4.20221">
        <ele>572.2</ele>
        <time>2020-08-16 08:57:57</time>
      </trkpt>
      <trkpt lat="40.0633" lon="-4.20224">
        <ele>572.2</ele>
        <time>2020-08-16 08:57:58</time>
      </trkpt>
      <trkpt lat="40.06328" lon="-4.20226">
        <ele>572.4</ele>
        <time>2020-08-16 08:57:59</time>
      </trkpt>
      <trkpt lat="40.06325" lon="-4.20228">
        <ele>572.6</ele>
        <time>2020-08-16 08:58:00</time>
      </trkpt>
      <trkpt lat="40.06323" lon="-4.20231">
        <ele>572.6</ele>
        <time>2020-08-16 08:58:01</time>
      </trkpt>
      <trkpt lat="40.0632" lon="-4.20233">
        <ele>572.6</ele>
        <time>2020-08-16 08:58:02</time>
      </trkpt>
      <trkpt lat="40.06315" lon="-4.20238">
        <ele>572.6</ele>
        <time>2020-08-16 08:58:04</time>
      </trkpt>
      <trkpt lat="40.0631" lon="-4.20243">
        <ele>573</ele>
        <time>2020-08-16 08:58:06</time>
      </trkpt>
      <trkpt lat="40.06308" lon="-4.20245">
        <ele>573.2</ele>
        <time>2020-08-16 08:58:07</time>
      </trkpt>
      <trkpt lat="40.06305" lon="-4.20247">
        <ele>573.2</ele>
        <time>2020-08-16 08:58:08</time>
      </trkpt>
      <trkpt lat="40.06303" lon="-4.20249">
        <ele>573.4</ele>
        <time>2020-08-16 08:58:09</time>
      </trkpt>
      <trkpt lat="40.063" lon="-4.20251">
        <ele>573.4</ele>
        <time>2020-08-16 08:58:10</time>
      </trkpt>
      <trkpt lat="40.06298" lon="-4.20253">
        <ele>573.4</ele>
        <time>2020-08-16 08:58:11</time>
      </trkpt>
      <trkpt lat="40.06296" lon="-4.20255">
        <ele>573.4</ele>
        <time>2020-08-16 08:58:12</time>
      </trkpt>
      <trkpt lat="40.06293" lon="-4.20257">
        <ele>573.4</ele>
        <time>2020-08-16 08:58:13</time>
      </trkpt>
      <trkpt lat="40.06291" lon="-4.2026">
        <ele>573.6</ele>
        <time>2020-08-16 08:58:14</time>
      </trkpt>
      <trkpt lat="40.06288" lon="-4.20262">
        <ele>573.6</ele>
        <time>2020-08-16 08:58:15</time>
      </trkpt>
      <trkpt lat="40.06286" lon="-4.20264">
        <ele>573.8</ele>
        <time>2020-08-16 08:58:16</time>
      </trkpt>
      <trkpt lat="40.06283" lon="-4.20266">
        <ele>573.8</ele>
        <time>2020-08-16 08:58:17</time>
      </trkpt>
      <trkpt lat="40.06278" lon="-4.2027">
        <ele>573.8</ele>
        <time>2020-08-16 08:58:19</time>
      </trkpt>
      <trkpt lat="40.06275" lon="-4.20272">
        <ele>574</ele>
        <time>2020-08-16 08:58:20</time>
      </trkpt>
      <trkpt lat="40.06273" lon="-4.20274">
        <ele>574.2</ele>
        <time>2020-08-16 08:58:21</time>
      </trkpt>
      <trkpt lat="40.0627" lon="-4.20276">
        <ele>574.4</ele>
        <time>2020-08-16 08:58:22</time>
      </trkpt>
      <trkpt lat="40.06268" lon="-4.20278">
        <ele>574.6</ele>
        <time>2020-08-16 08:58:23</time>
      </trkpt>
      <trkpt lat="40.06265" lon="-4.2028">
        <ele>574.6</ele>
        <time>2020-08-16 08:58:24</time>
      </trkpt>
      <trkpt lat="40.06263" lon="-4.20282">
        <ele>574.6</ele>
        <time>2020-08-16 08:58:25</time>
      </trkpt>
      <trkpt lat="40.0626" lon="-4.20284">
        <ele>574.6</ele>
        <time>2020-08-16 08:58:26</time>
      </trkpt>
      <trkpt lat="40.06258" lon="-4.20286">
        <ele>574.8</ele>
        <time>2020-08-16 08:58:27</time>
      </trkpt>
      <trkpt lat="40.06255" lon="-4.20288">
        <ele>574.8</ele>
        <time>2020-08-16 08:58:28</time>
      </trkpt>
      <trkpt lat="40.06253" lon="-4.2029">
        <ele>574.8</ele>
        <time>2020-08-16 08:58:29</time>
      </trkpt>
      <trkpt lat="40.06247" lon="-4.20294">
        <ele>575.4</ele>
        <time>2020-08-16 08:58:31</time>
      </trkpt>
      <trkpt lat="40.06245" lon="-4.20295">
        <ele>575.6</ele>
        <time>2020-08-16 08:58:32</time>
      </trkpt>
      <trkpt lat="40.06242" lon="-4.20297">
        <ele>575.6</ele>
        <time>2020-08-16 08:58:33</time>
      </trkpt>
      <trkpt lat="40.06239" lon="-4.20298">
        <ele>575.6</ele>
        <time>2020-08-16 08:58:34</time>
      </trkpt>
      <trkpt lat="40.06237" lon="-4.203">
        <ele>575.8</ele>
        <time>2020-08-16 08:58:35</time>
      </trkpt>
      <trkpt lat="40.06234" lon="-4.20301">
        <ele>575.8</ele>
        <time>2020-08-16 08:58:36</time>
      </trkpt>
      <trkpt lat="40.06231" lon="-4.20303">
        <ele>576</ele>
        <time>2020-08-16 08:58:37</time>
      </trkpt>
      <trkpt lat="40.06228" lon="-4.20304">
        <ele>576</ele>
        <time>2020-08-16 08:58:38</time>
      </trkpt>
      <trkpt lat="40.06226" lon="-4.20306">
        <ele>576.2</ele>
        <time>2020-08-16 08:58:39</time>
      </trkpt>
      <trkpt lat="40.06222" lon="-4.20307">
        <ele>576.4</ele>
        <time>2020-08-16 08:58:40</time>
      </trkpt>
      <trkpt lat="40.0622" lon="-4.20308">
        <ele>576.6</ele>
        <time>2020-08-16 08:58:41</time>
      </trkpt>
      <trkpt lat="40.06216" lon="-4.20309">
        <ele>576.6</ele>
        <time>2020-08-16 08:58:42</time>
      </trkpt>
      <trkpt lat="40.06213" lon="-4.20309">
        <ele>576.6</ele>
        <time>2020-08-16 08:58:43</time>
      </trkpt>
      <trkpt lat="40.0621" lon="-4.20309">
        <ele>576.6</ele>
        <time>2020-08-16 08:58:44</time>
      </trkpt>
      <trkpt lat="40.06204" lon="-4.20309">
        <ele>576.8</ele>
        <time>2020-08-16 08:58:46</time>
      </trkpt>
      <trkpt lat="40.06201" lon="-4.2031">
        <ele>576.8</ele>
        <time>2020-08-16 08:58:47</time>
      </trkpt>
      <trkpt lat="40.06198" lon="-4.20311">
        <ele>577</ele>
        <time>2020-08-16 08:58:48</time>
      </trkpt>
      <trkpt lat="40.06195" lon="-4.20312">
        <ele>577</ele>
        <time>2020-08-16 08:58:49</time>
      </trkpt>
      <trkpt lat="40.06187" lon="-4.20315">
        <ele>577.2</ele>
        <time>2020-08-16 08:58:52</time>
      </trkpt>
      <trkpt lat="40.06184" lon="-4.20316">
        <ele>577.4</ele>
        <time>2020-08-16 08:58:53</time>
      </trkpt>
      <trkpt lat="40.06181" lon="-4.20317">
        <ele>577.4</ele>
        <time>2020-08-16 08:58:54</time>
      </trkpt>
      <trkpt lat="40.06178" lon="-4.20318">
        <ele>577.2</ele>
        <time>2020-08-16 08:58:55</time>
      </trkpt>
      <trkpt lat="40.06175" lon="-4.20318">
        <ele>577.4</ele>
        <time>2020-08-16 08:58:56</time>
      </trkpt>
      <trkpt lat="40.06173" lon="-4.20319">
        <ele>577.4</ele>
        <time>2020-08-16 08:58:57</time>
      </trkpt>
      <trkpt lat="40.0617" lon="-4.2032">
        <ele>577.8</ele>
        <time>2020-08-16 08:58:58</time>
      </trkpt>
      <trkpt lat="40.06163" lon="-4.20322">
        <ele>578</ele>
        <time>2020-08-16 08:59:00</time>
      </trkpt>
      <trkpt lat="40.06142" lon="-4.20329">
        <ele>578.2</ele>
        <time>2020-08-16 08:59:07</time>
      </trkpt>
      <trkpt lat="40.06136" lon="-4.20332">
        <ele>578.2</ele>
        <time>2020-08-16 08:59:09</time>
      </trkpt>
      <trkpt lat="40.06134" lon="-4.20333">
        <ele>578.2</ele>
        <time>2020-08-16 08:59:10</time>
      </trkpt>
      <trkpt lat="40.06131" lon="-4.20334">
        <ele>578.6</ele>
        <time>2020-08-16 08:59:11</time>
      </trkpt>
      <trkpt lat="40.06128" lon="-4.20335">
        <ele>578.8</ele>
        <time>2020-08-16 08:59:12</time>
      </trkpt>
      <trkpt lat="40.06125" lon="-4.20337">
        <ele>578.8</ele>
        <time>2020-08-16 08:59:13</time>
      </trkpt>
      <trkpt lat="40.06123" lon="-4.20338">
        <ele>579</ele>
        <time>2020-08-16 08:59:14</time>
      </trkpt>
      <trkpt lat="40.0612" lon="-4.2034">
        <ele>578.8</ele>
        <time>2020-08-16 08:59:15</time>
      </trkpt>
      <trkpt lat="40.06117" lon="-4.20341">
        <ele>578.8</ele>
        <time>2020-08-16 08:59:16</time>
      </trkpt>
      <trkpt lat="40.06114" lon="-4.20343">
        <ele>578.8</ele>
        <time>2020-08-16 08:59:17</time>
      </trkpt>
      <trkpt lat="40.06111" lon="-4.20345">
        <ele>578.8</ele>
        <time>2020-08-16 08:59:18</time>
      </trkpt>
      <trkpt lat="40.06103" lon="-4.20351">
        <ele>579.2</ele>
        <time>2020-08-16 08:59:21</time>
      </trkpt>
      <trkpt lat="40.061" lon="-4.20353">
        <ele>579.2</ele>
        <time>2020-08-16 08:59:22</time>
      </trkpt>
      <trkpt lat="40.0609" lon="-4.20362">
        <ele>579.4</ele>
        <time>2020-08-16 08:59:26</time>
      </trkpt>
      <trkpt lat="40.06088" lon="-4.20364">
        <ele>579.4</ele>
        <time>2020-08-16 08:59:27</time>
      </trkpt>
      <trkpt lat="40.06085" lon="-4.20367">
        <ele>579.6</ele>
        <time>2020-08-16 08:59:28</time>
      </trkpt>
      <trkpt lat="40.06082" lon="-4.20369">
        <ele>579.8</ele>
        <time>2020-08-16 08:59:29</time>
      </trkpt>
      <trkpt lat="40.0608" lon="-4.20371">
        <ele>580</ele>
        <time>2020-08-16 08:59:30</time>
      </trkpt>
      <trkpt lat="40.06077" lon="-4.20373">
        <ele>580</ele>
        <time>2020-08-16 08:59:31</time>
      </trkpt>
      <trkpt lat="40.06075" lon="-4.20375">
        <ele>580</ele>
        <time>2020-08-16 08:59:32</time>
      </trkpt>
      <trkpt lat="40.06073" lon="-4.20378">
        <ele>580.2</ele>
        <time>2020-08-16 08:59:33</time>
      </trkpt>
      <trkpt lat="40.0607" lon="-4.2038">
        <ele>580.2</ele>
        <time>2020-08-16 08:59:34</time>
      </trkpt>
      <trkpt lat="40.06068" lon="-4.20382">
        <ele>580.2</ele>
        <time>2020-08-16 08:59:35</time>
      </trkpt>
      <trkpt lat="40.06065" lon="-4.20384">
        <ele>580.4</ele>
        <time>2020-08-16 08:59:36</time>
      </trkpt>
      <trkpt lat="40.06063" lon="-4.20386">
        <ele>580.4</ele>
        <time>2020-08-16 08:59:37</time>
      </trkpt>
      <trkpt lat="40.0606" lon="-4.20388">
        <ele>580.6</ele>
        <time>2020-08-16 08:59:38</time>
      </trkpt>
      <trkpt lat="40.06057" lon="-4.2039">
        <ele>580.6</ele>
        <time>2020-08-16 08:59:39</time>
      </trkpt>
      <trkpt lat="40.06048" lon="-4.20396">
        <ele>581</ele>
        <time>2020-08-16 08:59:42</time>
      </trkpt>
      <trkpt lat="40.06045" lon="-4.20397">
        <ele>581.2</ele>
        <time>2020-08-16 08:59:43</time>
      </trkpt>
      <trkpt lat="40.06042" lon="-4.20398">
        <ele>581.2</ele>
        <time>2020-08-16 08:59:44</time>
      </trkpt>
      <trkpt lat="40.06039" lon="-4.20399">
        <ele>581.4</ele>
        <time>2020-08-16 08:59:45</time>
      </trkpt>
      <trkpt lat="40.06036" lon="-4.204">
        <ele>581.4</ele>
        <time>2020-08-16 08:59:46</time>
      </trkpt>
      <trkpt lat="40.06023" lon="-4.20404">
        <ele>581.8</ele>
        <time>2020-08-16 08:59:50</time>
      </trkpt>
      <trkpt lat="40.0602" lon="-4.20405">
        <ele>581.8</ele>
        <time>2020-08-16 08:59:51</time>
      </trkpt>
      <trkpt lat="40.06008" lon="-4.20409">
        <ele>581.8</ele>
        <time>2020-08-16 08:59:55</time>
      </trkpt>
      <trkpt lat="40.06004" lon="-4.2041">
        <ele>582</ele>
        <time>2020-08-16 08:59:56</time>
      </trkpt>
      <trkpt lat="40.06001" lon="-4.2041">
        <ele>582</ele>
        <time>2020-08-16 08:59:57</time>
      </trkpt>
      <trkpt lat="40.05998" lon="-4.20411">
        <ele>582</ele>
        <time>2020-08-16 08:59:58</time>
      </trkpt>
      <trkpt lat="40.05995" lon="-4.20412">
        <ele>582.2</ele>
        <time>2020-08-16 08:59:59</time>
      </trkpt>
      <trkpt lat="40.05991" lon="-4.20413">
        <ele>582.2</ele>
        <time>2020-08-16 09:00:00</time>
      </trkpt>
      <trkpt lat="40.05988" lon="-4.20414">
        <ele>582.4</ele>
        <time>2020-08-16 09:00:01</time>
      </trkpt>
      <trkpt lat="40.05986" lon="-4.20414">
        <ele>582.4</ele>
        <time>2020-08-16 09:00:02</time>
      </trkpt>
      <trkpt lat="40.05983" lon="-4.20415">
        <ele>582.6</ele>
        <time>2020-08-16 09:00:03</time>
      </trkpt>
      <trkpt lat="40.0598" lon="-4.20415">
        <ele>582.6</ele>
        <time>2020-08-16 09:00:04</time>
      </trkpt>
      <trkpt lat="40.05977" lon="-4.20416">
        <ele>582.8</ele>
        <time>2020-08-16 09:00:05</time>
      </trkpt>
      <trkpt lat="40.05974" lon="-4.20417">
        <ele>582.8</ele>
        <time>2020-08-16 09:00:06</time>
      </trkpt>
      <trkpt lat="40.05971" lon="-4.20418">
        <ele>582.8</ele>
        <time>2020-08-16 09:00:07</time>
      </trkpt>
      <trkpt lat="40.05968" lon="-4.20419">
        <ele>583</ele>
        <time>2020-08-16 09:00:08</time>
      </trkpt>
      <trkpt lat="40.05965" lon="-4.2042">
        <ele>583</ele>
        <time>2020-08-16 09:00:09</time>
      </trkpt>
      <trkpt lat="40.05962" lon="-4.20421">
        <ele>583.2</ele>
        <time>2020-08-16 09:00:10</time>
      </trkpt>
      <trkpt lat="40.05959" lon="-4.20422">
        <ele>583.2</ele>
        <time>2020-08-16 09:00:11</time>
      </trkpt>
      <trkpt lat="40.05931" lon="-4.20429">
        <ele>583.8</ele>
        <time>2020-08-16 09:00:20</time>
      </trkpt>
      <trkpt lat="40.05921" lon="-4.20432">
        <ele>584.4</ele>
        <time>2020-08-16 09:00:23</time>
      </trkpt>
      <trkpt lat="40.05919" lon="-4.20433">
        <ele>584.4</ele>
        <time>2020-08-16 09:00:24</time>
      </trkpt>
      <trkpt lat="40.05916" lon="-4.20433">
        <ele>584.6</ele>
        <time>2020-08-16 09:00:25</time>
      </trkpt>
      <trkpt lat="40.05913" lon="-4.20434">
        <ele>584.6</ele>
        <time>2020-08-16 09:00:26</time>
      </trkpt>
      <trkpt lat="40.0591" lon="-4.20435">
        <ele>584.6</ele>
        <time>2020-08-16 09:00:27</time>
      </trkpt>
      <trkpt lat="40.05907" lon="-4.20436">
        <ele>584.8</ele>
        <time>2020-08-16 09:00:28</time>
      </trkpt>
      <trkpt lat="40.05903" lon="-4.20437">
        <ele>585</ele>
        <time>2020-08-16 09:00:29</time>
      </trkpt>
      <trkpt lat="40.05881" lon="-4.20445">
        <ele>585</ele>
        <time>2020-08-16 09:00:36</time>
      </trkpt>
      <trkpt lat="40.05878" lon="-4.20447">
        <ele>585</ele>
        <time>2020-08-16 09:00:37</time>
      </trkpt>
      <trkpt lat="40.05875" lon="-4.20449">
        <ele>585</ele>
        <time>2020-08-16 09:00:38</time>
      </trkpt>
      <trkpt lat="40.0586" lon="-4.2046">
        <ele>585.2</ele>
        <time>2020-08-16 09:00:43</time>
      </trkpt>
      <trkpt lat="40.05855" lon="-4.20465">
        <ele>585.2</ele>
        <time>2020-08-16 09:00:45</time>
      </trkpt>
      <trkpt lat="40.05853" lon="-4.20468">
        <ele>585.2</ele>
        <time>2020-08-16 09:00:46</time>
      </trkpt>
      <trkpt lat="40.0585" lon="-4.2047">
        <ele>585.2</ele>
        <time>2020-08-16 09:00:47</time>
      </trkpt>
      <trkpt lat="40.05847" lon="-4.20473">
        <ele>585.2</ele>
        <time>2020-08-16 09:00:48</time>
      </trkpt>
      <trkpt lat="40.05844" lon="-4.20476">
        <ele>585.2</ele>
        <time>2020-08-16 09:00:49</time>
      </trkpt>
      <trkpt lat="40.05841" lon="-4.20479">
        <ele>585.2</ele>
        <time>2020-08-16 09:00:50</time>
      </trkpt>
      <trkpt lat="40.05838" lon="-4.20481">
        <ele>585.2</ele>
        <time>2020-08-16 09:00:51</time>
      </trkpt>
      <trkpt lat="40.05835" lon="-4.20484">
        <ele>585.2</ele>
        <time>2020-08-16 09:00:52</time>
      </trkpt>
      <trkpt lat="40.05832" lon="-4.20487">
        <ele>585.4</ele>
        <time>2020-08-16 09:00:53</time>
      </trkpt>
      <trkpt lat="40.05829" lon="-4.2049">
        <ele>585.4</ele>
        <time>2020-08-16 09:00:54</time>
      </trkpt>
      <trkpt lat="40.05822" lon="-4.20496">
        <ele>585.4</ele>
        <time>2020-08-16 09:00:56</time>
      </trkpt>
      <trkpt lat="40.05816" lon="-4.20503">
        <ele>585.4</ele>
        <time>2020-08-16 09:00:58</time>
      </trkpt>
      <trkpt lat="40.0581" lon="-4.20508">
        <ele>585.4</ele>
        <time>2020-08-16 09:01:00</time>
      </trkpt>
      <trkpt lat="40.05807" lon="-4.2051">
        <ele>585.4</ele>
        <time>2020-08-16 09:01:01</time>
      </trkpt>
      <trkpt lat="40.05788" lon="-4.20525">
        <ele>585.4</ele>
        <time>2020-08-16 09:01:06</time>
      </trkpt>
      <trkpt lat="40.05784" lon="-4.20529">
        <ele>585.4</ele>
        <time>2020-08-16 09:01:07</time>
      </trkpt>
      <trkpt lat="40.05781" lon="-4.20532">
        <ele>585.4</ele>
        <time>2020-08-16 09:01:08</time>
      </trkpt>
      <trkpt lat="40.05778" lon="-4.20536">
        <ele>585.2</ele>
        <time>2020-08-16 09:01:09</time>
      </trkpt>
      <trkpt lat="40.05775" lon="-4.20539">
        <ele>585.2</ele>
        <time>2020-08-16 09:01:10</time>
      </trkpt>
      <trkpt lat="40.05772" lon="-4.20542">
        <ele>585.2</ele>
        <time>2020-08-16 09:01:11</time>
      </trkpt>
      <trkpt lat="40.05768" lon="-4.20545">
        <ele>585.2</ele>
        <time>2020-08-16 09:01:12</time>
      </trkpt>
      <trkpt lat="40.05766" lon="-4.20548">
        <ele>585.2</ele>
        <time>2020-08-16 09:01:13</time>
      </trkpt>
      <trkpt lat="40.05763" lon="-4.2055">
        <ele>585.2</ele>
        <time>2020-08-16 09:01:14</time>
      </trkpt>
      <trkpt lat="40.0576" lon="-4.20552">
        <ele>585.2</ele>
        <time>2020-08-16 09:01:15</time>
      </trkpt>
      <trkpt lat="40.05757" lon="-4.20555">
        <ele>585.4</ele>
        <time>2020-08-16 09:01:16</time>
      </trkpt>
      <trkpt lat="40.05755" lon="-4.20557">
        <ele>585.4</ele>
        <time>2020-08-16 09:01:17</time>
      </trkpt>
      <trkpt lat="40.05752" lon="-4.2056">
        <ele>585.6</ele>
        <time>2020-08-16 09:01:18</time>
      </trkpt>
      <trkpt lat="40.05749" lon="-4.20562">
        <ele>585.6</ele>
        <time>2020-08-16 09:01:19</time>
      </trkpt>
      <trkpt lat="40.05746" lon="-4.20564">
        <ele>585.6</ele>
        <time>2020-08-16 09:01:20</time>
      </trkpt>
      <trkpt lat="40.05743" lon="-4.20565">
        <ele>585.8</ele>
        <time>2020-08-16 09:01:21</time>
      </trkpt>
      <trkpt lat="40.0574" lon="-4.20567">
        <ele>585.8</ele>
        <time>2020-08-16 09:01:22</time>
      </trkpt>
      <trkpt lat="40.05737" lon="-4.20568">
        <ele>586</ele>
        <time>2020-08-16 09:01:23</time>
      </trkpt>
      <trkpt lat="40.05733" lon="-4.20571">
        <ele>586</ele>
        <time>2020-08-16 09:01:24</time>
      </trkpt>
      <trkpt lat="40.0573" lon="-4.20573">
        <ele>586.2</ele>
        <time>2020-08-16 09:01:25</time>
      </trkpt>
      <trkpt lat="40.05727" lon="-4.20576">
        <ele>586.4</ele>
        <time>2020-08-16 09:01:26</time>
      </trkpt>
      <trkpt lat="40.05725" lon="-4.20578">
        <ele>586.4</ele>
        <time>2020-08-16 09:01:27</time>
      </trkpt>
      <trkpt lat="40.05722" lon="-4.2058">
        <ele>586.6</ele>
        <time>2020-08-16 09:01:28</time>
      </trkpt>
      <trkpt lat="40.05718" lon="-4.20582">
        <ele>586.6</ele>
        <time>2020-08-16 09:01:29</time>
      </trkpt>
      <trkpt lat="40.05714" lon="-4.20585">
        <ele>586.8</ele>
        <time>2020-08-16 09:01:30</time>
      </trkpt>
      <trkpt lat="40.05711" lon="-4.20587">
        <ele>586.8</ele>
        <time>2020-08-16 09:01:31</time>
      </trkpt>
      <trkpt lat="40.05707" lon="-4.2059">
        <ele>586.8</ele>
        <time>2020-08-16 09:01:32</time>
      </trkpt>
      <trkpt lat="40.05698" lon="-4.20597">
        <ele>586.6</ele>
        <time>2020-08-16 09:01:34</time>
      </trkpt>
      <trkpt lat="40.05693" lon="-4.206">
        <ele>586.6</ele>
        <time>2020-08-16 09:01:35</time>
      </trkpt>
      <trkpt lat="40.05689" lon="-4.20605">
        <ele>586.6</ele>
        <time>2020-08-16 09:01:36</time>
      </trkpt>
      <trkpt lat="40.0568" lon="-4.20613">
        <ele>586.2</ele>
        <time>2020-08-16 09:01:38</time>
      </trkpt>
      <trkpt lat="40.0567" lon="-4.2062">
        <ele>586</ele>
        <time>2020-08-16 09:01:40</time>
      </trkpt>
      <trkpt lat="40.05665" lon="-4.20622">
        <ele>586</ele>
        <time>2020-08-16 09:01:41</time>
      </trkpt>
      <trkpt lat="40.0566" lon="-4.20622">
        <ele>585.8</ele>
        <time>2020-08-16 09:01:42</time>
      </trkpt>
      <trkpt lat="40.05656" lon="-4.20622">
        <ele>585.8</ele>
        <time>2020-08-16 09:01:43</time>
      </trkpt>
      <trkpt lat="40.05643" lon="-4.20622">
        <ele>585.6</ele>
        <time>2020-08-16 09:01:46</time>
      </trkpt>
      <trkpt lat="40.05639" lon="-4.20623">
        <ele>585.4</ele>
        <time>2020-08-16 09:01:47</time>
      </trkpt>
      <trkpt lat="40.05635" lon="-4.20623">
        <ele>585.4</ele>
        <time>2020-08-16 09:01:48</time>
      </trkpt>
      <trkpt lat="40.05632" lon="-4.20624">
        <ele>585.4</ele>
        <time>2020-08-16 09:01:49</time>
      </trkpt>
      <trkpt lat="40.05628" lon="-4.20624">
        <ele>585.4</ele>
        <time>2020-08-16 09:01:50</time>
      </trkpt>
      <trkpt lat="40.05616" lon="-4.20623">
        <ele>585.4</ele>
        <time>2020-08-16 09:01:53</time>
      </trkpt>
      <trkpt lat="40.05609" lon="-4.20621">
        <ele>585.6</ele>
        <time>2020-08-16 09:01:55</time>
      </trkpt>
      <trkpt lat="40.05606" lon="-4.20619">
        <ele>585.6</ele>
        <time>2020-08-16 09:01:56</time>
      </trkpt>
      <trkpt lat="40.05604" lon="-4.20618">
        <ele>585.6</ele>
        <time>2020-08-16 09:01:57</time>
      </trkpt>
      <trkpt lat="40.05602" lon="-4.20617">
        <ele>585.6</ele>
        <time>2020-08-16 09:01:58</time>
      </trkpt>
      <trkpt lat="40.05599" lon="-4.20615">
        <ele>585.8</ele>
        <time>2020-08-16 09:01:59</time>
      </trkpt>
      <trkpt lat="40.05592" lon="-4.20613">
        <ele>586</ele>
        <time>2020-08-16 09:02:01</time>
      </trkpt>
      <trkpt lat="40.05584" lon="-4.20611">
        <ele>586</ele>
        <time>2020-08-16 09:02:03</time>
      </trkpt>
      <trkpt lat="40.05581" lon="-4.20611">
        <ele>586</ele>
        <time>2020-08-16 09:02:04</time>
      </trkpt>
      <trkpt lat="40.05577" lon="-4.2061">
        <ele>586</ele>
        <time>2020-08-16 09:02:05</time>
      </trkpt>
      <trkpt lat="40.05566" lon="-4.20608">
        <ele>585.8</ele>
        <time>2020-08-16 09:02:07</time>
      </trkpt>
      <trkpt lat="40.05562" lon="-4.20606">
        <ele>585.6</ele>
        <time>2020-08-16 09:02:08</time>
      </trkpt>
      <trkpt lat="40.05558" lon="-4.20604">
        <ele>585.6</ele>
        <time>2020-08-16 09:02:09</time>
      </trkpt>
      <trkpt lat="40.05555" lon="-4.20601">
        <ele>585.4</ele>
        <time>2020-08-16 09:02:10</time>
      </trkpt>
      <trkpt lat="40.05552" lon="-4.20597">
        <ele>585.2</ele>
        <time>2020-08-16 09:02:11</time>
      </trkpt>
      <trkpt lat="40.05547" lon="-4.20594">
        <ele>584.6</ele>
        <time>2020-08-16 09:02:12</time>
      </trkpt>
      <trkpt lat="40.05542" lon="-4.20592">
        <ele>584.4</ele>
        <time>2020-08-16 09:02:13</time>
      </trkpt>
      <trkpt lat="40.05538" lon="-4.20589">
        <ele>584.2</ele>
        <time>2020-08-16 09:02:14</time>
      </trkpt>
      <trkpt lat="40.05536" lon="-4.20588">
        <ele>583.8</ele>
        <time>2020-08-16 09:02:15</time>
      </trkpt>
      <trkpt lat="40.05534" lon="-4.20587">
        <ele>583.6</ele>
        <time>2020-08-16 09:02:16</time>
      </trkpt>
      <trkpt lat="40.05532" lon="-4.20586">
        <ele>583.4</ele>
        <time>2020-08-16 09:02:17</time>
      </trkpt>
      <trkpt lat="40.0553" lon="-4.20585">
        <ele>583.2</ele>
        <time>2020-08-16 09:02:18</time>
      </trkpt>
      <trkpt lat="40.05528" lon="-4.20583">
        <ele>583</ele>
        <time>2020-08-16 09:02:19</time>
      </trkpt>
      <trkpt lat="40.05527" lon="-4.20582">
        <ele>582.8</ele>
        <time>2020-08-16 09:02:20</time>
      </trkpt>
      <trkpt lat="40.05525" lon="-4.20581">
        <ele>582.6</ele>
        <time>2020-08-16 09:02:21</time>
      </trkpt>
      <trkpt lat="40.05525" lon="-4.2058">
        <ele>582.6</ele>
        <time>2020-08-16 09:02:22</time>
      </trkpt>
      <trkpt lat="40.05524" lon="-4.2058">
        <ele>582.6</ele>
        <time>2020-08-16 09:02:23</time>
      </trkpt>
      <trkpt lat="40.05524" lon="-4.2058">
        <ele>582.4</ele>
        <time>2020-08-16 09:02:24</time>
      </trkpt>
      <trkpt lat="40.05521" lon="-4.20584">
        <ele>582</ele>
        <time>2020-08-16 09:02:49</time>
      </trkpt>
      <trkpt lat="40.05518" lon="-4.2059">
        <ele>582</ele>
        <time>2020-08-16 09:02:51</time>
      </trkpt>
      <trkpt lat="40.05517" lon="-4.20593">
        <ele>582</ele>
        <time>2020-08-16 09:02:52</time>
      </trkpt>
      <trkpt lat="40.05512" lon="-4.20599">
        <ele>581.8</ele>
        <time>2020-08-16 09:02:54</time>
      </trkpt>
      <trkpt lat="40.0551" lon="-4.20602">
        <ele>581.8</ele>
        <time>2020-08-16 09:02:55</time>
      </trkpt>
      <trkpt lat="40.05508" lon="-4.20605">
        <ele>581.8</ele>
        <time>2020-08-16 09:02:56</time>
      </trkpt>
      <trkpt lat="40.05503" lon="-4.20611">
        <ele>581.8</ele>
        <time>2020-08-16 09:02:58</time>
      </trkpt>
      <trkpt lat="40.05498" lon="-4.20618">
        <ele>582</ele>
        <time>2020-08-16 09:03:00</time>
      </trkpt>
      <trkpt lat="40.05497" lon="-4.20621">
        <ele>582</ele>
        <time>2020-08-16 09:03:01</time>
      </trkpt>
      <trkpt lat="40.05495" lon="-4.20624">
        <ele>582</ele>
        <time>2020-08-16 09:03:02</time>
      </trkpt>
      <trkpt lat="40.0549" lon="-4.20633">
        <ele>582</ele>
        <time>2020-08-16 09:03:05</time>
      </trkpt>
      <trkpt lat="40.05486" lon="-4.2064">
        <ele>582.2</ele>
        <time>2020-08-16 09:03:07</time>
      </trkpt>
      <trkpt lat="40.05482" lon="-4.20643">
        <ele>582.2</ele>
        <time>2020-08-16 09:03:08</time>
      </trkpt>
      <trkpt lat="40.05476" lon="-4.2065">
        <ele>582.4</ele>
        <time>2020-08-16 09:03:10</time>
      </trkpt>
      <trkpt lat="40.05472" lon="-4.20658">
        <ele>582.6</ele>
        <time>2020-08-16 09:03:12</time>
      </trkpt>
      <trkpt lat="40.05469" lon="-4.20661">
        <ele>582.6</ele>
        <time>2020-08-16 09:03:13</time>
      </trkpt>
      <trkpt lat="40.05459" lon="-4.20672">
        <ele>583</ele>
        <time>2020-08-16 09:03:16</time>
      </trkpt>
      <trkpt lat="40.05455" lon="-4.20675">
        <ele>583</ele>
        <time>2020-08-16 09:03:17</time>
      </trkpt>
      <trkpt lat="40.0545" lon="-4.20681">
        <ele>583.2</ele>
        <time>2020-08-16 09:03:19</time>
      </trkpt>
      <trkpt lat="40.05447" lon="-4.20684">
        <ele>583.2</ele>
        <time>2020-08-16 09:03:20</time>
      </trkpt>
      <trkpt lat="40.0544" lon="-4.20693">
        <ele>583.2</ele>
        <time>2020-08-16 09:03:23</time>
      </trkpt>
      <trkpt lat="40.05438" lon="-4.20696">
        <ele>583.2</ele>
        <time>2020-08-16 09:03:24</time>
      </trkpt>
      <trkpt lat="40.05432" lon="-4.20702">
        <ele>583.4</ele>
        <time>2020-08-16 09:03:26</time>
      </trkpt>
      <trkpt lat="40.05429" lon="-4.20706">
        <ele>583.6</ele>
        <time>2020-08-16 09:03:27</time>
      </trkpt>
      <trkpt lat="40.05426" lon="-4.20709">
        <ele>583.6</ele>
        <time>2020-08-16 09:03:28</time>
      </trkpt>
      <trkpt lat="40.05424" lon="-4.20712">
        <ele>583.6</ele>
        <time>2020-08-16 09:03:29</time>
      </trkpt>
      <trkpt lat="40.05421" lon="-4.20716">
        <ele>583.8</ele>
        <time>2020-08-16 09:03:30</time>
      </trkpt>
      <trkpt lat="40.05417" lon="-4.20722">
        <ele>583.8</ele>
        <time>2020-08-16 09:03:32</time>
      </trkpt>
      <trkpt lat="40.05414" lon="-4.20726">
        <ele>583.8</ele>
        <time>2020-08-16 09:03:33</time>
      </trkpt>
      <trkpt lat="40.05412" lon="-4.20729">
        <ele>584</ele>
        <time>2020-08-16 09:03:34</time>
      </trkpt>
      <trkpt lat="40.05409" lon="-4.20732">
        <ele>584</ele>
        <time>2020-08-16 09:03:35</time>
      </trkpt>
      <trkpt lat="40.05407" lon="-4.20736">
        <ele>584</ele>
        <time>2020-08-16 09:03:36</time>
      </trkpt>
      <trkpt lat="40.05406" lon="-4.20739">
        <ele>584.2</ele>
        <time>2020-08-16 09:03:37</time>
      </trkpt>
      <trkpt lat="40.05404" lon="-4.20743">
        <ele>584.2</ele>
        <time>2020-08-16 09:03:38</time>
      </trkpt>
      <trkpt lat="40.05402" lon="-4.20746">
        <ele>584.4</ele>
        <time>2020-08-16 09:03:39</time>
      </trkpt>
      <trkpt lat="40.054" lon="-4.2075">
        <ele>584.4</ele>
        <time>2020-08-16 09:03:40</time>
      </trkpt>
      <trkpt lat="40.05398" lon="-4.20753">
        <ele>584.6</ele>
        <time>2020-08-16 09:03:41</time>
      </trkpt>
      <trkpt lat="40.05396" lon="-4.20757">
        <ele>584.6</ele>
        <time>2020-08-16 09:03:42</time>
      </trkpt>
      <trkpt lat="40.05394" lon="-4.2076">
        <ele>584.8</ele>
        <time>2020-08-16 09:03:43</time>
      </trkpt>
      <trkpt lat="40.05392" lon="-4.20763">
        <ele>584.8</ele>
        <time>2020-08-16 09:03:44</time>
      </trkpt>
      <trkpt lat="40.0539" lon="-4.20766">
        <ele>584.8</ele>
        <time>2020-08-16 09:03:45</time>
      </trkpt>
      <trkpt lat="40.05387" lon="-4.20769">
        <ele>585</ele>
        <time>2020-08-16 09:03:46</time>
      </trkpt>
      <trkpt lat="40.05385" lon="-4.20772">
        <ele>585</ele>
        <time>2020-08-16 09:03:47</time>
      </trkpt>
      <trkpt lat="40.05383" lon="-4.20775">
        <ele>585.2</ele>
        <time>2020-08-16 09:03:48</time>
      </trkpt>
      <trkpt lat="40.05381" lon="-4.20778">
        <ele>585.2</ele>
        <time>2020-08-16 09:03:49</time>
      </trkpt>
      <trkpt lat="40.0538" lon="-4.20781">
        <ele>585.4</ele>
        <time>2020-08-16 09:03:50</time>
      </trkpt>
      <trkpt lat="40.05378" lon="-4.20786">
        <ele>585.4</ele>
        <time>2020-08-16 09:03:51</time>
      </trkpt>
      <trkpt lat="40.05377" lon="-4.2079">
        <ele>585.4</ele>
        <time>2020-08-16 09:03:52</time>
      </trkpt>
      <trkpt lat="40.05376" lon="-4.20794">
        <ele>585.4</ele>
        <time>2020-08-16 09:03:53</time>
      </trkpt>
      <trkpt lat="40.05375" lon="-4.20798">
        <ele>585.6</ele>
        <time>2020-08-16 09:03:54</time>
      </trkpt>
      <trkpt lat="40.05372" lon="-4.20801">
        <ele>585.6</ele>
        <time>2020-08-16 09:03:55</time>
      </trkpt>
      <trkpt lat="40.05369" lon="-4.20805">
        <ele>585.6</ele>
        <time>2020-08-16 09:03:56</time>
      </trkpt>
      <trkpt lat="40.05367" lon="-4.20809">
        <ele>585.6</ele>
        <time>2020-08-16 09:03:57</time>
      </trkpt>
      <trkpt lat="40.05365" lon="-4.20815">
        <ele>585.6</ele>
        <time>2020-08-16 09:03:58</time>
      </trkpt>
      <trkpt lat="40.05364" lon="-4.20819">
        <ele>585.6</ele>
        <time>2020-08-16 09:03:59</time>
      </trkpt>
      <trkpt lat="40.05363" lon="-4.20823">
        <ele>585.8</ele>
        <time>2020-08-16 09:04:00</time>
      </trkpt>
      <trkpt lat="40.05363" lon="-4.20826">
        <ele>585.8</ele>
        <time>2020-08-16 09:04:01</time>
      </trkpt>
      <trkpt lat="40.05363" lon="-4.20829">
        <ele>585.8</ele>
        <time>2020-08-16 09:04:02</time>
      </trkpt>
      <trkpt lat="40.05362" lon="-4.2083">
        <ele>585.8</ele>
        <time>2020-08-16 09:04:03</time>
      </trkpt>
      <trkpt lat="40.0536" lon="-4.2083">
        <ele>585.8</ele>
        <time>2020-08-16 09:04:04</time>
      </trkpt>
      <trkpt lat="40.05359" lon="-4.20831">
        <ele>586</ele>
        <time>2020-08-16 09:04:05</time>
      </trkpt>
      <trkpt lat="40.05358" lon="-4.20833">
        <ele>586</ele>
        <time>2020-08-16 09:04:06</time>
      </trkpt>
      <trkpt lat="40.05357" lon="-4.20835">
        <ele>586.2</ele>
        <time>2020-08-16 09:04:07</time>
      </trkpt>
      <trkpt lat="40.05357" lon="-4.20839">
        <ele>586.2</ele>
        <time>2020-08-16 09:04:08</time>
      </trkpt>
      <trkpt lat="40.05356" lon="-4.20843">
        <ele>586.4</ele>
        <time>2020-08-16 09:04:09</time>
      </trkpt>
      <trkpt lat="40.05354" lon="-4.20846">
        <ele>586.4</ele>
        <time>2020-08-16 09:04:10</time>
      </trkpt>
      <trkpt lat="40.05352" lon="-4.2085">
        <ele>586.4</ele>
        <time>2020-08-16 09:04:11</time>
      </trkpt>
      <trkpt lat="40.05347" lon="-4.20858">
        <ele>586.6</ele>
        <time>2020-08-16 09:04:13</time>
      </trkpt>
      <trkpt lat="40.05344" lon="-4.20863">
        <ele>586.6</ele>
        <time>2020-08-16 09:04:14</time>
      </trkpt>
      <trkpt lat="40.05341" lon="-4.20868">
        <ele>586.6</ele>
        <time>2020-08-16 09:04:15</time>
      </trkpt>
      <trkpt lat="40.05339" lon="-4.20873">
        <ele>586.6</ele>
        <time>2020-08-16 09:04:16</time>
      </trkpt>
      <trkpt lat="40.05335" lon="-4.20876">
        <ele>586.6</ele>
        <time>2020-08-16 09:04:17</time>
      </trkpt>
      <trkpt lat="40.05332" lon="-4.20879">
        <ele>586.8</ele>
        <time>2020-08-16 09:04:18</time>
      </trkpt>
      <trkpt lat="40.05327" lon="-4.20884">
        <ele>587.2</ele>
        <time>2020-08-16 09:04:20</time>
      </trkpt>
      <trkpt lat="40.05326" lon="-4.20891">
        <ele>587.4</ele>
        <time>2020-08-16 09:04:22</time>
      </trkpt>
      <trkpt lat="40.05324" lon="-4.20896">
        <ele>587.4</ele>
        <time>2020-08-16 09:04:23</time>
      </trkpt>
      <trkpt lat="40.05323" lon="-4.20902">
        <ele>587.6</ele>
        <time>2020-08-16 09:04:24</time>
      </trkpt>
      <trkpt lat="40.05324" lon="-4.20909">
        <ele>587.6</ele>
        <time>2020-08-16 09:04:25</time>
      </trkpt>
      <trkpt lat="40.05324" lon="-4.20912">
        <ele>587.6</ele>
        <time>2020-08-16 09:04:26</time>
      </trkpt>
      <trkpt lat="40.05324" lon="-4.20918">
        <ele>587.6</ele>
        <time>2020-08-16 09:04:27</time>
      </trkpt>
      <trkpt lat="40.05324" lon="-4.20922">
        <ele>587.6</ele>
        <time>2020-08-16 09:04:28</time>
      </trkpt>
      <trkpt lat="40.05326" lon="-4.20927">
        <ele>587.6</ele>
        <time>2020-08-16 09:04:29</time>
      </trkpt>
      <trkpt lat="40.05328" lon="-4.20928">
        <ele>587.6</ele>
        <time>2020-08-16 09:04:30</time>
      </trkpt>
      <trkpt lat="40.05333" lon="-4.20931">
        <ele>587.6</ele>
        <time>2020-08-16 09:04:31</time>
      </trkpt>
      <trkpt lat="40.0533" lon="-4.20936">
        <ele>587.6</ele>
        <time>2020-08-16 09:04:32</time>
      </trkpt>
      <trkpt lat="40.0532" lon="-4.20944">
        <ele>587.6</ele>
        <time>2020-08-16 09:04:34</time>
      </trkpt>
      <trkpt lat="40.05316" lon="-4.20947">
        <ele>587.6</ele>
        <time>2020-08-16 09:04:35</time>
      </trkpt>
      <trkpt lat="40.05312" lon="-4.20949">
        <ele>587.4</ele>
        <time>2020-08-16 09:04:36</time>
      </trkpt>
      <trkpt lat="40.0531" lon="-4.20954">
        <ele>587.4</ele>
        <time>2020-08-16 09:04:37</time>
      </trkpt>
      <trkpt lat="40.05306" lon="-4.20953">
        <ele>587.4</ele>
        <time>2020-08-16 09:04:38</time>
      </trkpt>
      <trkpt lat="40.05303" lon="-4.20954">
        <ele>587.4</ele>
        <time>2020-08-16 09:04:39</time>
      </trkpt>
      <trkpt lat="40.05301" lon="-4.20953">
        <ele>587.4</ele>
        <time>2020-08-16 09:04:40</time>
      </trkpt>
      <trkpt lat="40.05297" lon="-4.2095">
        <ele>587.4</ele>
        <time>2020-08-16 09:04:41</time>
      </trkpt>
      <trkpt lat="40.05294" lon="-4.20947">
        <ele>587.2</ele>
        <time>2020-08-16 09:04:42</time>
      </trkpt>
      <trkpt lat="40.05285" lon="-4.20936">
        <ele>587.2</ele>
        <time>2020-08-16 09:04:45</time>
      </trkpt>
      <trkpt lat="40.05284" lon="-4.20931">
        <ele>587.2</ele>
        <time>2020-08-16 09:04:46</time>
      </trkpt>
      <trkpt lat="40.05282" lon="-4.20927">
        <ele>587</ele>
        <time>2020-08-16 09:04:47</time>
      </trkpt>
      <trkpt lat="40.0528" lon="-4.20923">
        <ele>586.8</ele>
        <time>2020-08-16 09:04:48</time>
      </trkpt>
      <trkpt lat="40.05278" lon="-4.20919">
        <ele>586.8</ele>
        <time>2020-08-16 09:04:49</time>
      </trkpt>
      <trkpt lat="40.05276" lon="-4.20916">
        <ele>586.6</ele>
        <time>2020-08-16 09:04:50</time>
      </trkpt>
      <trkpt lat="40.05273" lon="-4.20914">
        <ele>586.6</ele>
        <time>2020-08-16 09:04:51</time>
      </trkpt>
      <trkpt lat="40.0527" lon="-4.20911">
        <ele>586.6</ele>
        <time>2020-08-16 09:04:52</time>
      </trkpt>
      <trkpt lat="40.05268" lon="-4.2091">
        <ele>586.4</ele>
        <time>2020-08-16 09:04:53</time>
      </trkpt>
      <trkpt lat="40.05267" lon="-4.2091">
        <ele>586.4</ele>
        <time>2020-08-16 09:04:54</time>
      </trkpt>
      <trkpt lat="40.05266" lon="-4.20907">
        <ele>586.4</ele>
        <time>2020-08-16 09:04:55</time>
      </trkpt>
      <trkpt lat="40.05265" lon="-4.20904">
        <ele>586.4</ele>
        <time>2020-08-16 09:04:56</time>
      </trkpt>
      <trkpt lat="40.05263" lon="-4.20901">
        <ele>586.4</ele>
        <time>2020-08-16 09:04:57</time>
      </trkpt>
      <trkpt lat="40.05262" lon="-4.20899">
        <ele>586.4</ele>
        <time>2020-08-16 09:04:58</time>
      </trkpt>
      <trkpt lat="40.05261" lon="-4.20898">
        <ele>586.2</ele>
        <time>2020-08-16 09:04:59</time>
      </trkpt>
      <trkpt lat="40.0526" lon="-4.20896">
        <ele>586.2</ele>
        <time>2020-08-16 09:05:00</time>
      </trkpt>
      <trkpt lat="40.05259" lon="-4.20895">
        <ele>586.2</ele>
        <time>2020-08-16 09:05:01</time>
      </trkpt>
      <trkpt lat="40.05258" lon="-4.20893">
        <ele>586.2</ele>
        <time>2020-08-16 09:05:02</time>
      </trkpt>
      <trkpt lat="40.05257" lon="-4.20892">
        <ele>586</ele>
        <time>2020-08-16 09:05:03</time>
      </trkpt>
      <trkpt lat="40.05256" lon="-4.20892">
        <ele>586</ele>
        <time>2020-08-16 09:05:05</time>
      </trkpt>
      <trkpt lat="40.05256" lon="-4.20897">
        <ele>585.6</ele>
        <time>2020-08-16 09:05:52</time>
      </trkpt>
      <trkpt lat="40.05255" lon="-4.20911">
        <ele>585.6</ele>
        <time>2020-08-16 09:05:57</time>
      </trkpt>
      <trkpt lat="40.05254" lon="-4.20914">
        <ele>585.6</ele>
        <time>2020-08-16 09:05:58</time>
      </trkpt>
      <trkpt lat="40.05254" lon="-4.20917">
        <ele>585.6</ele>
        <time>2020-08-16 09:05:59</time>
      </trkpt>
      <trkpt lat="40.05254" lon="-4.20919">
        <ele>585.6</ele>
        <time>2020-08-16 09:06:00</time>
      </trkpt>
      <trkpt lat="40.05254" lon="-4.20921">
        <ele>585.6</ele>
        <time>2020-08-16 09:06:01</time>
      </trkpt>
      <trkpt lat="40.05253" lon="-4.20923">
        <ele>585.6</ele>
        <time>2020-08-16 09:06:02</time>
      </trkpt>
      <trkpt lat="40.05252" lon="-4.20925">
        <ele>585.6</ele>
        <time>2020-08-16 09:06:03</time>
      </trkpt>
      <trkpt lat="40.0525" lon="-4.20927">
        <ele>585.6</ele>
        <time>2020-08-16 09:06:04</time>
      </trkpt>
      <trkpt lat="40.05247" lon="-4.20929">
        <ele>585.6</ele>
        <time>2020-08-16 09:06:05</time>
      </trkpt>
      <trkpt lat="40.05243" lon="-4.20931">
        <ele>585.6</ele>
        <time>2020-08-16 09:06:06</time>
      </trkpt>
      <trkpt lat="40.05236" lon="-4.20936">
        <ele>585.6</ele>
        <time>2020-08-16 09:06:08</time>
      </trkpt>
      <trkpt lat="40.05233" lon="-4.20938">
        <ele>585.6</ele>
        <time>2020-08-16 09:06:09</time>
      </trkpt>
      <trkpt lat="40.0523" lon="-4.2094">
        <ele>585.6</ele>
        <time>2020-08-16 09:06:10</time>
      </trkpt>
      <trkpt lat="40.05219" lon="-4.20946">
        <ele>585.6</ele>
        <time>2020-08-16 09:06:13</time>
      </trkpt>
      <trkpt lat="40.05212" lon="-4.20951">
        <ele>586</ele>
        <time>2020-08-16 09:06:15</time>
      </trkpt>
      <trkpt lat="40.05198" lon="-4.20962">
        <ele>586.6</ele>
        <time>2020-08-16 09:06:19</time>
      </trkpt>
      <trkpt lat="40.05195" lon="-4.20964">
        <ele>586.6</ele>
        <time>2020-08-16 09:06:20</time>
      </trkpt>
      <trkpt lat="40.05192" lon="-4.20965">
        <ele>586.6</ele>
        <time>2020-08-16 09:06:21</time>
      </trkpt>
      <trkpt lat="40.05189" lon="-4.20967">
        <ele>586.6</ele>
        <time>2020-08-16 09:06:22</time>
      </trkpt>
      <trkpt lat="40.05188" lon="-4.2097">
        <ele>586.4</ele>
        <time>2020-08-16 09:06:23</time>
      </trkpt>
      <trkpt lat="40.05187" lon="-4.20973">
        <ele>586.2</ele>
        <time>2020-08-16 09:06:24</time>
      </trkpt>
      <trkpt lat="40.05185" lon="-4.20974">
        <ele>586.2</ele>
        <time>2020-08-16 09:06:25</time>
      </trkpt>
      <trkpt lat="40.05182" lon="-4.20978">
        <ele>586.2</ele>
        <time>2020-08-16 09:06:27</time>
      </trkpt>
      <trkpt lat="40.0518" lon="-4.20981">
        <ele>586.2</ele>
        <time>2020-08-16 09:06:28</time>
      </trkpt>
      <trkpt lat="40.05178" lon="-4.20984">
        <ele>586.2</ele>
        <time>2020-08-16 09:06:29</time>
      </trkpt>
      <trkpt lat="40.05174" lon="-4.20986">
        <ele>586.2</ele>
        <time>2020-08-16 09:06:30</time>
      </trkpt>
      <trkpt lat="40.05171" lon="-4.20987">
        <ele>586.2</ele>
        <time>2020-08-16 09:06:31</time>
      </trkpt>
      <trkpt lat="40.05168" lon="-4.20987">
        <ele>586.2</ele>
        <time>2020-08-16 09:06:32</time>
      </trkpt>
      <trkpt lat="40.05165" lon="-4.20988">
        <ele>586.2</ele>
        <time>2020-08-16 09:06:33</time>
      </trkpt>
      <trkpt lat="40.05162" lon="-4.20991">
        <ele>586.2</ele>
        <time>2020-08-16 09:06:34</time>
      </trkpt>
      <trkpt lat="40.0516" lon="-4.20993">
        <ele>586.2</ele>
        <time>2020-08-16 09:06:35</time>
      </trkpt>
      <trkpt lat="40.05157" lon="-4.20996">
        <ele>586.2</ele>
        <time>2020-08-16 09:06:36</time>
      </trkpt>
      <trkpt lat="40.05155" lon="-4.20999">
        <ele>586</ele>
        <time>2020-08-16 09:06:37</time>
      </trkpt>
      <trkpt lat="40.05151" lon="-4.21001">
        <ele>586</ele>
        <time>2020-08-16 09:06:38</time>
      </trkpt>
      <trkpt lat="40.05148" lon="-4.21003">
        <ele>586</ele>
        <time>2020-08-16 09:06:39</time>
      </trkpt>
      <trkpt lat="40.05138" lon="-4.21006">
        <ele>586</ele>
        <time>2020-08-16 09:06:41</time>
      </trkpt>
      <trkpt lat="40.05134" lon="-4.21009">
        <ele>585.8</ele>
        <time>2020-08-16 09:06:42</time>
      </trkpt>
      <trkpt lat="40.05131" lon="-4.2101">
        <ele>585.8</ele>
        <time>2020-08-16 09:06:43</time>
      </trkpt>
      <trkpt lat="40.05127" lon="-4.21009">
        <ele>585.8</ele>
        <time>2020-08-16 09:06:44</time>
      </trkpt>
      <trkpt lat="40.05123" lon="-4.2101">
        <ele>585.8</ele>
        <time>2020-08-16 09:06:45</time>
      </trkpt>
      <trkpt lat="40.0512" lon="-4.21013">
        <ele>585.8</ele>
        <time>2020-08-16 09:06:46</time>
      </trkpt>
      <trkpt lat="40.05114" lon="-4.21019">
        <ele>585.8</ele>
        <time>2020-08-16 09:06:48</time>
      </trkpt>
      <trkpt lat="40.05111" lon="-4.21021">
        <ele>585.6</ele>
        <time>2020-08-16 09:06:49</time>
      </trkpt>
      <trkpt lat="40.05107" lon="-4.21023">
        <ele>585.6</ele>
        <time>2020-08-16 09:06:50</time>
      </trkpt>
      <trkpt lat="40.05104" lon="-4.21026">
        <ele>585.6</ele>
        <time>2020-08-16 09:06:51</time>
      </trkpt>
      <trkpt lat="40.051" lon="-4.21028">
        <ele>585.6</ele>
        <time>2020-08-16 09:06:52</time>
      </trkpt>
      <trkpt lat="40.05082" lon="-4.21036">
        <ele>585.8</ele>
        <time>2020-08-16 09:06:57</time>
      </trkpt>
      <trkpt lat="40.05079" lon="-4.21037">
        <ele>585.8</ele>
        <time>2020-08-16 09:06:58</time>
      </trkpt>
      <trkpt lat="40.05075" lon="-4.21039">
        <ele>585.8</ele>
        <time>2020-08-16 09:06:59</time>
      </trkpt>
      <trkpt lat="40.05072" lon="-4.2104">
        <ele>585.8</ele>
        <time>2020-08-16 09:07:00</time>
      </trkpt>
      <trkpt lat="40.05068" lon="-4.21042">
        <ele>585.8</ele>
        <time>2020-08-16 09:07:01</time>
      </trkpt>
      <trkpt lat="40.05064" lon="-4.21043">
        <ele>586</ele>
        <time>2020-08-16 09:07:02</time>
      </trkpt>
      <trkpt lat="40.0506" lon="-4.21046">
        <ele>586</ele>
        <time>2020-08-16 09:07:03</time>
      </trkpt>
      <trkpt lat="40.05053" lon="-4.21049">
        <ele>586.2</ele>
        <time>2020-08-16 09:07:05</time>
      </trkpt>
      <trkpt lat="40.05049" lon="-4.2105">
        <ele>586.2</ele>
        <time>2020-08-16 09:07:06</time>
      </trkpt>
      <trkpt lat="40.05044" lon="-4.21052">
        <ele>586.4</ele>
        <time>2020-08-16 09:07:07</time>
      </trkpt>
      <trkpt lat="40.05041" lon="-4.21054">
        <ele>586.4</ele>
        <time>2020-08-16 09:07:08</time>
      </trkpt>
      <trkpt lat="40.05037" lon="-4.21056">
        <ele>586.6</ele>
        <time>2020-08-16 09:07:09</time>
      </trkpt>
      <trkpt lat="40.05032" lon="-4.21058">
        <ele>586.6</ele>
        <time>2020-08-16 09:07:10</time>
      </trkpt>
      <trkpt lat="40.05024" lon="-4.21062">
        <ele>586.6</ele>
        <time>2020-08-16 09:07:12</time>
      </trkpt>
      <trkpt lat="40.0502" lon="-4.21064">
        <ele>586.8</ele>
        <time>2020-08-16 09:07:13</time>
      </trkpt>
      <trkpt lat="40.05017" lon="-4.21065">
        <ele>586.8</ele>
        <time>2020-08-16 09:07:14</time>
      </trkpt>
      <trkpt lat="40.05013" lon="-4.21066">
        <ele>586.8</ele>
        <time>2020-08-16 09:07:15</time>
      </trkpt>
      <trkpt lat="40.05009" lon="-4.21068">
        <ele>587</ele>
        <time>2020-08-16 09:07:16</time>
      </trkpt>
      <trkpt lat="40.05001" lon="-4.2107">
        <ele>587</ele>
        <time>2020-08-16 09:07:18</time>
      </trkpt>
      <trkpt lat="40.04997" lon="-4.21071">
        <ele>587</ele>
        <time>2020-08-16 09:07:19</time>
      </trkpt>
      <trkpt lat="40.04994" lon="-4.21073">
        <ele>587</ele>
        <time>2020-08-16 09:07:20</time>
      </trkpt>
      <trkpt lat="40.0499" lon="-4.21074">
        <ele>587</ele>
        <time>2020-08-16 09:07:21</time>
      </trkpt>
      <trkpt lat="40.04987" lon="-4.21075">
        <ele>587.2</ele>
        <time>2020-08-16 09:07:22</time>
      </trkpt>
      <trkpt lat="40.04984" lon="-4.21077">
        <ele>587.2</ele>
        <time>2020-08-16 09:07:23</time>
      </trkpt>
      <trkpt lat="40.0498" lon="-4.21078">
        <ele>587.4</ele>
        <time>2020-08-16 09:07:24</time>
      </trkpt>
      <trkpt lat="40.04977" lon="-4.21079">
        <ele>587.4</ele>
        <time>2020-08-16 09:07:25</time>
      </trkpt>
      <trkpt lat="40.04972" lon="-4.2108">
        <ele>587.4</ele>
        <time>2020-08-16 09:07:26</time>
      </trkpt>
      <trkpt lat="40.04968" lon="-4.2108">
        <ele>587.6</ele>
        <time>2020-08-16 09:07:27</time>
      </trkpt>
      <trkpt lat="40.04964" lon="-4.21081">
        <ele>587.6</ele>
        <time>2020-08-16 09:07:28</time>
      </trkpt>
      <trkpt lat="40.0496" lon="-4.21082">
        <ele>587.6</ele>
        <time>2020-08-16 09:07:29</time>
      </trkpt>
      <trkpt lat="40.04945" lon="-4.21086">
        <ele>587.8</ele>
        <time>2020-08-16 09:07:33</time>
      </trkpt>
      <trkpt lat="40.04938" lon="-4.21087">
        <ele>587.4</ele>
        <time>2020-08-16 09:07:35</time>
      </trkpt>
      <trkpt lat="40.04935" lon="-4.21086">
        <ele>587.4</ele>
        <time>2020-08-16 09:07:36</time>
      </trkpt>
      <trkpt lat="40.04932" lon="-4.21085">
        <ele>587.4</ele>
        <time>2020-08-16 09:07:37</time>
      </trkpt>
      <trkpt lat="40.04931" lon="-4.21084">
        <ele>587.4</ele>
        <time>2020-08-16 09:07:38</time>
      </trkpt>
      <trkpt lat="40.04931" lon="-4.21085">
        <ele>587.4</ele>
        <time>2020-08-16 09:07:39</time>
      </trkpt>
      <trkpt lat="40.04932" lon="-4.21087">
        <ele>587.4</ele>
        <time>2020-08-16 09:07:40</time>
      </trkpt>
      <trkpt lat="40.04932" lon="-4.21089">
        <ele>587.4</ele>
        <time>2020-08-16 09:07:41</time>
      </trkpt>
      <trkpt lat="40.04933" lon="-4.21091">
        <ele>587.4</ele>
        <time>2020-08-16 09:07:42</time>
      </trkpt>
      <trkpt lat="40.04934" lon="-4.21091">
        <ele>587.4</ele>
        <time>2020-08-16 09:07:43</time>
      </trkpt>
      <trkpt lat="40.04934" lon="-4.21091">
        <ele>587.4</ele>
        <time>2020-08-16 09:07:45</time>
      </trkpt>
      <trkpt lat="40.04933" lon="-4.21093">
        <ele>586.4</ele>
        <time>2020-08-16 09:10:53</time>
      </trkpt>
      <trkpt lat="40.0493" lon="-4.21093">
        <ele>586.4</ele>
        <time>2020-08-16 09:10:54</time>
      </trkpt>
      <trkpt lat="40.04927" lon="-4.21093">
        <ele>586.4</ele>
        <time>2020-08-16 09:10:55</time>
      </trkpt>
      <trkpt lat="40.04925" lon="-4.21094">
        <ele>586.4</ele>
        <time>2020-08-16 09:10:56</time>
      </trkpt>
      <trkpt lat="40.04922" lon="-4.21096">
        <ele>586.4</ele>
        <time>2020-08-16 09:10:57</time>
      </trkpt>
      <trkpt lat="40.04916" lon="-4.21099">
        <ele>586.4</ele>
        <time>2020-08-16 09:10:59</time>
      </trkpt>
      <trkpt lat="40.04912" lon="-4.21099">
        <ele>586.4</ele>
        <time>2020-08-16 09:11:00</time>
      </trkpt>
      <trkpt lat="40.0491" lon="-4.21104">
        <ele>586.4</ele>
        <time>2020-08-16 09:11:01</time>
      </trkpt>
      <trkpt lat="40.04909" lon="-4.21108">
        <ele>586.2</ele>
        <time>2020-08-16 09:11:02</time>
      </trkpt>
      <trkpt lat="40.04909" lon="-4.21113">
        <ele>586.2</ele>
        <time>2020-08-16 09:11:03</time>
      </trkpt>
      <trkpt lat="40.0491" lon="-4.21121">
        <ele>586</ele>
        <time>2020-08-16 09:11:05</time>
      </trkpt>
      <trkpt lat="40.0491" lon="-4.21126">
        <ele>586</ele>
        <time>2020-08-16 09:11:06</time>
      </trkpt>
      <trkpt lat="40.04912" lon="-4.21131">
        <ele>586</ele>
        <time>2020-08-16 09:11:07</time>
      </trkpt>
      <trkpt lat="40.04914" lon="-4.21145">
        <ele>586</ele>
        <time>2020-08-16 09:11:10</time>
      </trkpt>
      <trkpt lat="40.04914" lon="-4.2115">
        <ele>586</ele>
        <time>2020-08-16 09:11:11</time>
      </trkpt>
      <trkpt lat="40.04917" lon="-4.21179">
        <ele>585.8</ele>
        <time>2020-08-16 09:11:17</time>
      </trkpt>
      <trkpt lat="40.04918" lon="-4.21184">
        <ele>585.8</ele>
        <time>2020-08-16 09:11:18</time>
      </trkpt>
      <trkpt lat="40.04921" lon="-4.21207">
        <ele>585.6</ele>
        <time>2020-08-16 09:11:23</time>
      </trkpt>
      <trkpt lat="40.04923" lon="-4.21216">
        <ele>585.6</ele>
        <time>2020-08-16 09:11:25</time>
      </trkpt>
      <trkpt lat="40.04925" lon="-4.21224">
        <ele>585.6</ele>
        <time>2020-08-16 09:11:27</time>
      </trkpt>
      <trkpt lat="40.04926" lon="-4.21228">
        <ele>585.6</ele>
        <time>2020-08-16 09:11:28</time>
      </trkpt>
      <trkpt lat="40.04927" lon="-4.21232">
        <ele>585.6</ele>
        <time>2020-08-16 09:11:29</time>
      </trkpt>
      <trkpt lat="40.04928" lon="-4.21238">
        <ele>585.6</ele>
        <time>2020-08-16 09:11:30</time>
      </trkpt>
      <trkpt lat="40.04928" lon="-4.21242">
        <ele>585.6</ele>
        <time>2020-08-16 09:11:31</time>
      </trkpt>
      <trkpt lat="40.04929" lon="-4.21247">
        <ele>585.6</ele>
        <time>2020-08-16 09:11:32</time>
      </trkpt>
      <trkpt lat="40.04931" lon="-4.21251">
        <ele>585.6</ele>
        <time>2020-08-16 09:11:33</time>
      </trkpt>
      <trkpt lat="40.04933" lon="-4.21255">
        <ele>585.4</ele>
        <time>2020-08-16 09:11:34</time>
      </trkpt>
      <trkpt lat="40.04935" lon="-4.21259">
        <ele>585.4</ele>
        <time>2020-08-16 09:11:35</time>
      </trkpt>
      <trkpt lat="40.04937" lon="-4.21264">
        <ele>585.4</ele>
        <time>2020-08-16 09:11:36</time>
      </trkpt>
      <trkpt lat="40.04938" lon="-4.21269">
        <ele>585.4</ele>
        <time>2020-08-16 09:11:37</time>
      </trkpt>
      <trkpt lat="40.0494" lon="-4.21279">
        <ele>585.4</ele>
        <time>2020-08-16 09:11:39</time>
      </trkpt>
      <trkpt lat="40.0494" lon="-4.21282">
        <ele>585.2</ele>
        <time>2020-08-16 09:11:40</time>
      </trkpt>
      <trkpt lat="40.04937" lon="-4.21286">
        <ele>585.2</ele>
        <time>2020-08-16 09:11:41</time>
      </trkpt>
      <trkpt lat="40.04934" lon="-4.21289">
        <ele>585.2</ele>
        <time>2020-08-16 09:11:42</time>
      </trkpt>
      <trkpt lat="40.04925" lon="-4.21295">
        <ele>585.2</ele>
        <time>2020-08-16 09:11:44</time>
      </trkpt>
      <trkpt lat="40.04921" lon="-4.21297">
        <ele>585.2</ele>
        <time>2020-08-16 09:11:45</time>
      </trkpt>
      <trkpt lat="40.04917" lon="-4.21299">
        <ele>585.2</ele>
        <time>2020-08-16 09:11:46</time>
      </trkpt>
      <trkpt lat="40.04913" lon="-4.21301">
        <ele>585.2</ele>
        <time>2020-08-16 09:11:47</time>
      </trkpt>
      <trkpt lat="40.04906" lon="-4.21307">
        <ele>585.2</ele>
        <time>2020-08-16 09:11:49</time>
      </trkpt>
      <trkpt lat="40.049" lon="-4.21314">
        <ele>585.4</ele>
        <time>2020-08-16 09:11:51</time>
      </trkpt>
      <trkpt lat="40.04897" lon="-4.21317">
        <ele>585.4</ele>
        <time>2020-08-16 09:11:52</time>
      </trkpt>
      <trkpt lat="40.04897" lon="-4.21322">
        <ele>585.4</ele>
        <time>2020-08-16 09:11:53</time>
      </trkpt>
      <trkpt lat="40.04897" lon="-4.21326">
        <ele>585.6</ele>
        <time>2020-08-16 09:11:54</time>
      </trkpt>
      <trkpt lat="40.04899" lon="-4.2133">
        <ele>585.6</ele>
        <time>2020-08-16 09:11:55</time>
      </trkpt>
      <trkpt lat="40.049" lon="-4.21335">
        <ele>585.8</ele>
        <time>2020-08-16 09:11:56</time>
      </trkpt>
      <trkpt lat="40.04901" lon="-4.2134">
        <ele>585.8</ele>
        <time>2020-08-16 09:11:57</time>
      </trkpt>
      <trkpt lat="40.04902" lon="-4.21345">
        <ele>586</ele>
        <time>2020-08-16 09:11:58</time>
      </trkpt>
      <trkpt lat="40.04902" lon="-4.21349">
        <ele>586.2</ele>
        <time>2020-08-16 09:11:59</time>
      </trkpt>
      <trkpt lat="40.04902" lon="-4.21355">
        <ele>586.2</ele>
        <time>2020-08-16 09:12:00</time>
      </trkpt>
      <trkpt lat="40.04903" lon="-4.2136">
        <ele>586.2</ele>
        <time>2020-08-16 09:12:01</time>
      </trkpt>
      <trkpt lat="40.04905" lon="-4.21364">
        <ele>586.4</ele>
        <time>2020-08-16 09:12:02</time>
      </trkpt>
      <trkpt lat="40.04906" lon="-4.21368">
        <ele>586.4</ele>
        <time>2020-08-16 09:12:03</time>
      </trkpt>
      <trkpt lat="40.04909" lon="-4.21372">
        <ele>586.4</ele>
        <time>2020-08-16 09:12:04</time>
      </trkpt>
      <trkpt lat="40.04911" lon="-4.21376">
        <ele>586.4</ele>
        <time>2020-08-16 09:12:05</time>
      </trkpt>
      <trkpt lat="40.04915" lon="-4.21385">
        <ele>586.6</ele>
        <time>2020-08-16 09:12:07</time>
      </trkpt>
      <trkpt lat="40.04916" lon="-4.2139">
        <ele>586.8</ele>
        <time>2020-08-16 09:12:08</time>
      </trkpt>
      <trkpt lat="40.04916" lon="-4.21395">
        <ele>586.8</ele>
        <time>2020-08-16 09:12:09</time>
      </trkpt>
      <trkpt lat="40.04916" lon="-4.21405">
        <ele>587</ele>
        <time>2020-08-16 09:12:11</time>
      </trkpt>
      <trkpt lat="40.04916" lon="-4.21409">
        <ele>587</ele>
        <time>2020-08-16 09:12:12</time>
      </trkpt>
      <trkpt lat="40.04916" lon="-4.21414">
        <ele>587.2</ele>
        <time>2020-08-16 09:12:13</time>
      </trkpt>
      <trkpt lat="40.04916" lon="-4.21419">
        <ele>587.2</ele>
        <time>2020-08-16 09:12:14</time>
      </trkpt>
      <trkpt lat="40.04916" lon="-4.21424">
        <ele>587.2</ele>
        <time>2020-08-16 09:12:15</time>
      </trkpt>
      <trkpt lat="40.04916" lon="-4.21429">
        <ele>587.4</ele>
        <time>2020-08-16 09:12:16</time>
      </trkpt>
      <trkpt lat="40.04916" lon="-4.21434">
        <ele>587.4</ele>
        <time>2020-08-16 09:12:17</time>
      </trkpt>
      <trkpt lat="40.04916" lon="-4.21439">
        <ele>587.4</ele>
        <time>2020-08-16 09:12:18</time>
      </trkpt>
      <trkpt lat="40.04916" lon="-4.21445">
        <ele>587.6</ele>
        <time>2020-08-16 09:12:19</time>
      </trkpt>
      <trkpt lat="40.04916" lon="-4.21449">
        <ele>587.6</ele>
        <time>2020-08-16 09:12:20</time>
      </trkpt>
      <trkpt lat="40.04917" lon="-4.21454">
        <ele>587.6</ele>
        <time>2020-08-16 09:12:21</time>
      </trkpt>
      <trkpt lat="40.04917" lon="-4.21459">
        <ele>587.8</ele>
        <time>2020-08-16 09:12:22</time>
      </trkpt>
      <trkpt lat="40.04917" lon="-4.21464">
        <ele>588</ele>
        <time>2020-08-16 09:12:23</time>
      </trkpt>
      <trkpt lat="40.04919" lon="-4.21471">
        <ele>588</ele>
        <time>2020-08-16 09:12:24</time>
      </trkpt>
      <trkpt lat="40.04923" lon="-4.2149">
        <ele>588.2</ele>
        <time>2020-08-16 09:12:28</time>
      </trkpt>
      <trkpt lat="40.04924" lon="-4.21494">
        <ele>588.2</ele>
        <time>2020-08-16 09:12:29</time>
      </trkpt>
      <trkpt lat="40.04924" lon="-4.215">
        <ele>588.2</ele>
        <time>2020-08-16 09:12:30</time>
      </trkpt>
      <trkpt lat="40.04924" lon="-4.21512">
        <ele>588.2</ele>
        <time>2020-08-16 09:12:32</time>
      </trkpt>
      <trkpt lat="40.04924" lon="-4.21518">
        <ele>588.2</ele>
        <time>2020-08-16 09:12:33</time>
      </trkpt>
      <trkpt lat="40.04924" lon="-4.2153">
        <ele>588.2</ele>
        <time>2020-08-16 09:12:35</time>
      </trkpt>
      <trkpt lat="40.04926" lon="-4.21548">
        <ele>588.2</ele>
        <time>2020-08-16 09:12:38</time>
      </trkpt>
      <trkpt lat="40.04927" lon="-4.21553">
        <ele>588</ele>
        <time>2020-08-16 09:12:39</time>
      </trkpt>
      <trkpt lat="40.04927" lon="-4.21559">
        <ele>588</ele>
        <time>2020-08-16 09:12:40</time>
      </trkpt>
      <trkpt lat="40.04928" lon="-4.21564">
        <ele>588</ele>
        <time>2020-08-16 09:12:41</time>
      </trkpt>
      <trkpt lat="40.04929" lon="-4.21569">
        <ele>588</ele>
        <time>2020-08-16 09:12:42</time>
      </trkpt>
      <trkpt lat="40.0493" lon="-4.2158">
        <ele>587.8</ele>
        <time>2020-08-16 09:12:44</time>
      </trkpt>
      <trkpt lat="40.04931" lon="-4.21591">
        <ele>587.8</ele>
        <time>2020-08-16 09:12:46</time>
      </trkpt>
      <trkpt lat="40.04932" lon="-4.21596">
        <ele>587.8</ele>
        <time>2020-08-16 09:12:47</time>
      </trkpt>
      <trkpt lat="40.04935" lon="-4.21621">
        <ele>587.8</ele>
        <time>2020-08-16 09:12:51</time>
      </trkpt>
      <trkpt lat="40.04936" lon="-4.21635">
        <ele>587.8</ele>
        <time>2020-08-16 09:12:53</time>
      </trkpt>
      <trkpt lat="40.04937" lon="-4.21643">
        <ele>587.8</ele>
        <time>2020-08-16 09:12:54</time>
      </trkpt>
      <trkpt lat="40.04938" lon="-4.21651">
        <ele>587.6</ele>
        <time>2020-08-16 09:12:55</time>
      </trkpt>
      <trkpt lat="40.04939" lon="-4.21659">
        <ele>587.4</ele>
        <time>2020-08-16 09:12:56</time>
      </trkpt>
      <trkpt lat="40.0494" lon="-4.21667">
        <ele>587.4</ele>
        <time>2020-08-16 09:12:57</time>
      </trkpt>
      <trkpt lat="40.04941" lon="-4.21683">
        <ele>587</ele>
        <time>2020-08-16 09:12:59</time>
      </trkpt>
      <trkpt lat="40.04942" lon="-4.2169">
        <ele>586.6</ele>
        <time>2020-08-16 09:13:00</time>
      </trkpt>
      <trkpt lat="40.04943" lon="-4.21698">
        <ele>586.6</ele>
        <time>2020-08-16 09:13:01</time>
      </trkpt>
      <trkpt lat="40.04943" lon="-4.21705">
        <ele>586.2</ele>
        <time>2020-08-16 09:13:02</time>
      </trkpt>
      <trkpt lat="40.04943" lon="-4.2171">
        <ele>585.6</ele>
        <time>2020-08-16 09:13:03</time>
      </trkpt>
      <trkpt lat="40.04943" lon="-4.21715">
        <ele>585.4</ele>
        <time>2020-08-16 09:13:04</time>
      </trkpt>
      <trkpt lat="40.04943" lon="-4.21719">
        <ele>585.2</ele>
        <time>2020-08-16 09:13:05</time>
      </trkpt>
      <trkpt lat="40.04943" lon="-4.2172">
        <ele>585</ele>
        <time>2020-08-16 09:13:06</time>
      </trkpt>
      <trkpt lat="40.04944" lon="-4.21721">
        <ele>584.8</ele>
        <time>2020-08-16 09:13:07</time>
      </trkpt>
      <trkpt lat="40.04944" lon="-4.21721">
        <ele>584.6</ele>
        <time>2020-08-16 09:13:08</time>
      </trkpt>
      <trkpt lat="40.04944" lon="-4.21721">
        <ele>584.6</ele>
        <time>2020-08-16 09:13:09</time>
      </trkpt>
      <trkpt lat="40.04946" lon="-4.21725">
        <ele>584.4</ele>
        <time>2020-08-16 09:13:35</time>
      </trkpt>
      <trkpt lat="40.04948" lon="-4.21726">
        <ele>584.4</ele>
        <time>2020-08-16 09:13:36</time>
      </trkpt>
      <trkpt lat="40.04951" lon="-4.21728">
        <ele>584.2</ele>
        <time>2020-08-16 09:13:37</time>
      </trkpt>
      <trkpt lat="40.04953" lon="-4.2173">
        <ele>584.2</ele>
        <time>2020-08-16 09:13:38</time>
      </trkpt>
      <trkpt lat="40.04956" lon="-4.21733">
        <ele>584.4</ele>
        <time>2020-08-16 09:13:39</time>
      </trkpt>
      <trkpt lat="40.04963" lon="-4.21746">
        <ele>584</ele>
        <time>2020-08-16 09:13:42</time>
      </trkpt>
      <trkpt lat="40.04966" lon="-4.21749">
        <ele>583.8</ele>
        <time>2020-08-16 09:13:43</time>
      </trkpt>
      <trkpt lat="40.04969" lon="-4.21752">
        <ele>583.8</ele>
        <time>2020-08-16 09:13:44</time>
      </trkpt>
      <trkpt lat="40.04972" lon="-4.21754">
        <ele>583.8</ele>
        <time>2020-08-16 09:13:45</time>
      </trkpt>
      <trkpt lat="40.04976" lon="-4.21755">
        <ele>583.8</ele>
        <time>2020-08-16 09:13:46</time>
      </trkpt>
      <trkpt lat="40.05005" lon="-4.21762">
        <ele>583.6</ele>
        <time>2020-08-16 09:13:53</time>
      </trkpt>
      <trkpt lat="40.0501" lon="-4.21763">
        <ele>583.6</ele>
        <time>2020-08-16 09:13:54</time>
      </trkpt>
      <trkpt lat="40.05032" lon="-4.21768">
        <ele>583.4</ele>
        <time>2020-08-16 09:13:59</time>
      </trkpt>
      <trkpt lat="40.05054" lon="-4.21772">
        <ele>583.2</ele>
        <time>2020-08-16 09:14:04</time>
      </trkpt>
      <trkpt lat="40.05072" lon="-4.21776">
        <ele>583.2</ele>
        <time>2020-08-16 09:14:08</time>
      </trkpt>
      <trkpt lat="40.05076" lon="-4.21777">
        <ele>583.2</ele>
        <time>2020-08-16 09:14:09</time>
      </trkpt>
      <trkpt lat="40.0508" lon="-4.21778">
        <ele>583.2</ele>
        <time>2020-08-16 09:14:10</time>
      </trkpt>
      <trkpt lat="40.05084" lon="-4.21779">
        <ele>583</ele>
        <time>2020-08-16 09:14:11</time>
      </trkpt>
      <trkpt lat="40.05089" lon="-4.21779">
        <ele>583</ele>
        <time>2020-08-16 09:14:12</time>
      </trkpt>
      <trkpt lat="40.05093" lon="-4.21779">
        <ele>583</ele>
        <time>2020-08-16 09:14:13</time>
      </trkpt>
      <trkpt lat="40.05097" lon="-4.21779">
        <ele>583</ele>
        <time>2020-08-16 09:14:14</time>
      </trkpt>
      <trkpt lat="40.05101" lon="-4.21778">
        <ele>583</ele>
        <time>2020-08-16 09:14:15</time>
      </trkpt>
      <trkpt lat="40.05105" lon="-4.21775">
        <ele>583</ele>
        <time>2020-08-16 09:14:16</time>
      </trkpt>
      <trkpt lat="40.05108" lon="-4.21771">
        <ele>583</ele>
        <time>2020-08-16 09:14:17</time>
      </trkpt>
      <trkpt lat="40.05111" lon="-4.21766">
        <ele>583</ele>
        <time>2020-08-16 09:14:18</time>
      </trkpt>
      <trkpt lat="40.05113" lon="-4.21761">
        <ele>583</ele>
        <time>2020-08-16 09:14:19</time>
      </trkpt>
      <trkpt lat="40.05127" lon="-4.21737">
        <ele>583</ele>
        <time>2020-08-16 09:14:24</time>
      </trkpt>
      <trkpt lat="40.05135" lon="-4.21723">
        <ele>583.2</ele>
        <time>2020-08-16 09:14:27</time>
      </trkpt>
      <trkpt lat="40.05141" lon="-4.21715">
        <ele>583</ele>
        <time>2020-08-16 09:14:29</time>
      </trkpt>
      <trkpt lat="40.05144" lon="-4.21711">
        <ele>583</ele>
        <time>2020-08-16 09:14:30</time>
      </trkpt>
      <trkpt lat="40.05147" lon="-4.21707">
        <ele>582.8</ele>
        <time>2020-08-16 09:14:31</time>
      </trkpt>
      <trkpt lat="40.0515" lon="-4.21702">
        <ele>582.6</ele>
        <time>2020-08-16 09:14:32</time>
      </trkpt>
      <trkpt lat="40.05154" lon="-4.21698">
        <ele>582.6</ele>
        <time>2020-08-16 09:14:33</time>
      </trkpt>
      <trkpt lat="40.05157" lon="-4.21693">
        <ele>582.6</ele>
        <time>2020-08-16 09:14:34</time>
      </trkpt>
      <trkpt lat="40.05167" lon="-4.21681">
        <ele>582.6</ele>
        <time>2020-08-16 09:14:37</time>
      </trkpt>
      <trkpt lat="40.0517" lon="-4.21678">
        <ele>582.6</ele>
        <time>2020-08-16 09:14:38</time>
      </trkpt>
      <trkpt lat="40.05175" lon="-4.21678">
        <ele>582.6</ele>
        <time>2020-08-16 09:14:39</time>
      </trkpt>
      <trkpt lat="40.05178" lon="-4.21679">
        <ele>582.6</ele>
        <time>2020-08-16 09:14:40</time>
      </trkpt>
      <trkpt lat="40.0518" lon="-4.21682">
        <ele>582.6</ele>
        <time>2020-08-16 09:14:41</time>
      </trkpt>
      <trkpt lat="40.05182" lon="-4.21686">
        <ele>582.6</ele>
        <time>2020-08-16 09:14:42</time>
      </trkpt>
      <trkpt lat="40.05182" lon="-4.21691">
        <ele>582.4</ele>
        <time>2020-08-16 09:14:43</time>
      </trkpt>
      <trkpt lat="40.05184" lon="-4.21721">
        <ele>582.6</ele>
        <time>2020-08-16 09:14:49</time>
      </trkpt>
      <trkpt lat="40.05185" lon="-4.21731">
        <ele>582.6</ele>
        <time>2020-08-16 09:14:51</time>
      </trkpt>
      <trkpt lat="40.05189" lon="-4.21783">
        <ele>583.4</ele>
        <time>2020-08-16 09:15:01</time>
      </trkpt>
      <trkpt lat="40.05189" lon="-4.21788">
        <ele>583.4</ele>
        <time>2020-08-16 09:15:02</time>
      </trkpt>
      <trkpt lat="40.05189" lon="-4.21793">
        <ele>583.6</ele>
        <time>2020-08-16 09:15:03</time>
      </trkpt>
      <trkpt lat="40.0519" lon="-4.21797">
        <ele>583.6</ele>
        <time>2020-08-16 09:15:04</time>
      </trkpt>
      <trkpt lat="40.0519" lon="-4.21801">
        <ele>583.6</ele>
        <time>2020-08-16 09:15:05</time>
      </trkpt>
      <trkpt lat="40.0519" lon="-4.21805">
        <ele>583.8</ele>
        <time>2020-08-16 09:15:06</time>
      </trkpt>
      <trkpt lat="40.05191" lon="-4.21809">
        <ele>583.8</ele>
        <time>2020-08-16 09:15:07</time>
      </trkpt>
      <trkpt lat="40.05191" lon="-4.21813">
        <ele>583.8</ele>
        <time>2020-08-16 09:15:08</time>
      </trkpt>
      <trkpt lat="40.05191" lon="-4.21816">
        <ele>584</ele>
        <time>2020-08-16 09:15:09</time>
      </trkpt>
      <trkpt lat="40.05191" lon="-4.2182">
        <ele>584</ele>
        <time>2020-08-16 09:15:10</time>
      </trkpt>
      <trkpt lat="40.05194" lon="-4.21843">
        <ele>584.2</ele>
        <time>2020-08-16 09:15:15</time>
      </trkpt>
      <trkpt lat="40.05195" lon="-4.21848">
        <ele>584.2</ele>
        <time>2020-08-16 09:15:16</time>
      </trkpt>
      <trkpt lat="40.05196" lon="-4.21853">
        <ele>584.4</ele>
        <time>2020-08-16 09:15:17</time>
      </trkpt>
      <trkpt lat="40.05196" lon="-4.21858">
        <ele>584.4</ele>
        <time>2020-08-16 09:15:18</time>
      </trkpt>
      <trkpt lat="40.05197" lon="-4.21868">
        <ele>584.6</ele>
        <time>2020-08-16 09:15:20</time>
      </trkpt>
      <trkpt lat="40.05198" lon="-4.21878">
        <ele>584.6</ele>
        <time>2020-08-16 09:15:22</time>
      </trkpt>
      <trkpt lat="40.052" lon="-4.21919">
        <ele>585.6</ele>
        <time>2020-08-16 09:15:30</time>
      </trkpt>
      <trkpt lat="40.052" lon="-4.2193">
        <ele>585.8</ele>
        <time>2020-08-16 09:15:32</time>
      </trkpt>
      <trkpt lat="40.052" lon="-4.21936">
        <ele>585.8</ele>
        <time>2020-08-16 09:15:33</time>
      </trkpt>
      <trkpt lat="40.052" lon="-4.21941">
        <ele>585.8</ele>
        <time>2020-08-16 09:15:34</time>
      </trkpt>
      <trkpt lat="40.05198" lon="-4.21973">
        <ele>585.8</ele>
        <time>2020-08-16 09:15:40</time>
      </trkpt>
      <trkpt lat="40.05195" lon="-4.22005">
        <ele>586</ele>
        <time>2020-08-16 09:15:46</time>
      </trkpt>
      <trkpt lat="40.05195" lon="-4.22011">
        <ele>586</ele>
        <time>2020-08-16 09:15:47</time>
      </trkpt>
      <trkpt lat="40.05195" lon="-4.22016">
        <ele>586</ele>
        <time>2020-08-16 09:15:48</time>
      </trkpt>
      <trkpt lat="40.05194" lon="-4.22022">
        <ele>586</ele>
        <time>2020-08-16 09:15:49</time>
      </trkpt>
      <trkpt lat="40.05194" lon="-4.22027">
        <ele>586</ele>
        <time>2020-08-16 09:15:50</time>
      </trkpt>
      <trkpt lat="40.05193" lon="-4.22032">
        <ele>586.2</ele>
        <time>2020-08-16 09:15:51</time>
      </trkpt>
      <trkpt lat="40.05193" lon="-4.22037">
        <ele>586.2</ele>
        <time>2020-08-16 09:15:52</time>
      </trkpt>
      <trkpt lat="40.05193" lon="-4.22043">
        <ele>586.2</ele>
        <time>2020-08-16 09:15:53</time>
      </trkpt>
      <trkpt lat="40.05193" lon="-4.22048">
        <ele>586.2</ele>
        <time>2020-08-16 09:15:54</time>
      </trkpt>
      <trkpt lat="40.05192" lon="-4.22059">
        <ele>586.4</ele>
        <time>2020-08-16 09:15:56</time>
      </trkpt>
      <trkpt lat="40.05192" lon="-4.22064">
        <ele>586.6</ele>
        <time>2020-08-16 09:15:57</time>
      </trkpt>
      <trkpt lat="40.05192" lon="-4.22069">
        <ele>586.6</ele>
        <time>2020-08-16 09:15:58</time>
      </trkpt>
      <trkpt lat="40.05193" lon="-4.22075">
        <ele>586.6</ele>
        <time>2020-08-16 09:15:59</time>
      </trkpt>
      <trkpt lat="40.05193" lon="-4.2208">
        <ele>586.6</ele>
        <time>2020-08-16 09:16:00</time>
      </trkpt>
      <trkpt lat="40.05193" lon="-4.22085">
        <ele>586.8</ele>
        <time>2020-08-16 09:16:01</time>
      </trkpt>
      <trkpt lat="40.05193" lon="-4.2209">
        <ele>586.8</ele>
        <time>2020-08-16 09:16:02</time>
      </trkpt>
      <trkpt lat="40.05193" lon="-4.22095">
        <ele>586.8</ele>
        <time>2020-08-16 09:16:03</time>
      </trkpt>
      <trkpt lat="40.05193" lon="-4.221">
        <ele>586.8</ele>
        <time>2020-08-16 09:16:04</time>
      </trkpt>
      <trkpt lat="40.05192" lon="-4.22104">
        <ele>587</ele>
        <time>2020-08-16 09:16:05</time>
      </trkpt>
      <trkpt lat="40.05192" lon="-4.22109">
        <ele>587</ele>
        <time>2020-08-16 09:16:06</time>
      </trkpt>
      <trkpt lat="40.05191" lon="-4.22114">
        <ele>587</ele>
        <time>2020-08-16 09:16:07</time>
      </trkpt>
      <trkpt lat="40.05191" lon="-4.22119">
        <ele>587</ele>
        <time>2020-08-16 09:16:08</time>
      </trkpt>
      <trkpt lat="40.0519" lon="-4.22123">
        <ele>587</ele>
        <time>2020-08-16 09:16:09</time>
      </trkpt>
      <trkpt lat="40.0519" lon="-4.22128">
        <ele>587.2</ele>
        <time>2020-08-16 09:16:10</time>
      </trkpt>
      <trkpt lat="40.05189" lon="-4.22132">
        <ele>587.2</ele>
        <time>2020-08-16 09:16:11</time>
      </trkpt>
      <trkpt lat="40.05189" lon="-4.22137">
        <ele>587.2</ele>
        <time>2020-08-16 09:16:12</time>
      </trkpt>
      <trkpt lat="40.05189" lon="-4.22142">
        <ele>587.4</ele>
        <time>2020-08-16 09:16:13</time>
      </trkpt>
      <trkpt lat="40.05189" lon="-4.22147">
        <ele>587.4</ele>
        <time>2020-08-16 09:16:14</time>
      </trkpt>
      <trkpt lat="40.05189" lon="-4.22152">
        <ele>587.4</ele>
        <time>2020-08-16 09:16:15</time>
      </trkpt>
      <trkpt lat="40.05188" lon="-4.22157">
        <ele>587.6</ele>
        <time>2020-08-16 09:16:16</time>
      </trkpt>
      <trkpt lat="40.05187" lon="-4.22162">
        <ele>587.6</ele>
        <time>2020-08-16 09:16:17</time>
      </trkpt>
      <trkpt lat="40.05187" lon="-4.22166">
        <ele>587.6</ele>
        <time>2020-08-16 09:16:18</time>
      </trkpt>
      <trkpt lat="40.05186" lon="-4.22171">
        <ele>587.6</ele>
        <time>2020-08-16 09:16:19</time>
      </trkpt>
      <trkpt lat="40.05185" lon="-4.22175">
        <ele>587.6</ele>
        <time>2020-08-16 09:16:20</time>
      </trkpt>
      <trkpt lat="40.05185" lon="-4.22179">
        <ele>587.4</ele>
        <time>2020-08-16 09:16:21</time>
      </trkpt>
      <trkpt lat="40.05184" lon="-4.22184">
        <ele>587.4</ele>
        <time>2020-08-16 09:16:22</time>
      </trkpt>
      <trkpt lat="40.05183" lon="-4.22188">
        <ele>587.4</ele>
        <time>2020-08-16 09:16:23</time>
      </trkpt>
      <trkpt lat="40.05182" lon="-4.22193">
        <ele>587.4</ele>
        <time>2020-08-16 09:16:24</time>
      </trkpt>
      <trkpt lat="40.05181" lon="-4.22197">
        <ele>587.4</ele>
        <time>2020-08-16 09:16:25</time>
      </trkpt>
      <trkpt lat="40.05181" lon="-4.22202">
        <ele>587.4</ele>
        <time>2020-08-16 09:16:26</time>
      </trkpt>
      <trkpt lat="40.05179" lon="-4.22206">
        <ele>587.4</ele>
        <time>2020-08-16 09:16:27</time>
      </trkpt>
      <trkpt lat="40.05177" lon="-4.2221">
        <ele>587.4</ele>
        <time>2020-08-16 09:16:28</time>
      </trkpt>
      <trkpt lat="40.05176" lon="-4.22215">
        <ele>587.4</ele>
        <time>2020-08-16 09:16:29</time>
      </trkpt>
      <trkpt lat="40.05159" lon="-4.2225">
        <ele>587.4</ele>
        <time>2020-08-16 09:16:37</time>
      </trkpt>
      <trkpt lat="40.05148" lon="-4.2227">
        <ele>587.2</ele>
        <time>2020-08-16 09:16:42</time>
      </trkpt>
      <trkpt lat="40.05146" lon="-4.22275">
        <ele>587.2</ele>
        <time>2020-08-16 09:16:43</time>
      </trkpt>
      <trkpt lat="40.05144" lon="-4.22279">
        <ele>587.2</ele>
        <time>2020-08-16 09:16:44</time>
      </trkpt>
      <trkpt lat="40.05142" lon="-4.22283">
        <ele>587.2</ele>
        <time>2020-08-16 09:16:45</time>
      </trkpt>
      <trkpt lat="40.05139" lon="-4.22292">
        <ele>587</ele>
        <time>2020-08-16 09:16:47</time>
      </trkpt>
      <trkpt lat="40.05137" lon="-4.22296">
        <ele>587.2</ele>
        <time>2020-08-16 09:16:48</time>
      </trkpt>
      <trkpt lat="40.05133" lon="-4.22305">
        <ele>587.2</ele>
        <time>2020-08-16 09:16:50</time>
      </trkpt>
      <trkpt lat="40.05128" lon="-4.2232">
        <ele>587.4</ele>
        <time>2020-08-16 09:16:53</time>
      </trkpt>
      <trkpt lat="40.05125" lon="-4.22334">
        <ele>587.4</ele>
        <time>2020-08-16 09:16:56</time>
      </trkpt>
      <trkpt lat="40.05123" lon="-4.22348">
        <ele>587.6</ele>
        <time>2020-08-16 09:16:59</time>
      </trkpt>
      <trkpt lat="40.05122" lon="-4.22353">
        <ele>587.6</ele>
        <time>2020-08-16 09:17:00</time>
      </trkpt>
      <trkpt lat="40.05121" lon="-4.22358">
        <ele>587.6</ele>
        <time>2020-08-16 09:17:01</time>
      </trkpt>
      <trkpt lat="40.0512" lon="-4.22363">
        <ele>587.8</ele>
        <time>2020-08-16 09:17:02</time>
      </trkpt>
      <trkpt lat="40.05119" lon="-4.22368">
        <ele>587.8</ele>
        <time>2020-08-16 09:17:03</time>
      </trkpt>
      <trkpt lat="40.05118" lon="-4.22373">
        <ele>588</ele>
        <time>2020-08-16 09:17:04</time>
      </trkpt>
      <trkpt lat="40.05118" lon="-4.22378">
        <ele>588</ele>
        <time>2020-08-16 09:17:05</time>
      </trkpt>
      <trkpt lat="40.05117" lon="-4.22383">
        <ele>588</ele>
        <time>2020-08-16 09:17:06</time>
      </trkpt>
      <trkpt lat="40.05116" lon="-4.22388">
        <ele>588.2</ele>
        <time>2020-08-16 09:17:07</time>
      </trkpt>
      <trkpt lat="40.05116" lon="-4.22393">
        <ele>588.2</ele>
        <time>2020-08-16 09:17:08</time>
      </trkpt>
      <trkpt lat="40.05115" lon="-4.22398">
        <ele>588.2</ele>
        <time>2020-08-16 09:17:09</time>
      </trkpt>
      <trkpt lat="40.05114" lon="-4.22413">
        <ele>588.4</ele>
        <time>2020-08-16 09:17:12</time>
      </trkpt>
      <trkpt lat="40.05113" lon="-4.22418">
        <ele>588.6</ele>
        <time>2020-08-16 09:17:13</time>
      </trkpt>
      <trkpt lat="40.05113" lon="-4.22423">
        <ele>588.6</ele>
        <time>2020-08-16 09:17:14</time>
      </trkpt>
      <trkpt lat="40.05112" lon="-4.22428">
        <ele>588.6</ele>
        <time>2020-08-16 09:17:15</time>
      </trkpt>
      <trkpt lat="40.05112" lon="-4.22432">
        <ele>588.6</ele>
        <time>2020-08-16 09:17:16</time>
      </trkpt>
      <trkpt lat="40.05111" lon="-4.22437">
        <ele>588.6</ele>
        <time>2020-08-16 09:17:17</time>
      </trkpt>
      <trkpt lat="40.0511" lon="-4.22452">
        <ele>588.8</ele>
        <time>2020-08-16 09:17:20</time>
      </trkpt>
      <trkpt lat="40.05108" lon="-4.22472">
        <ele>589</ele>
        <time>2020-08-16 09:17:24</time>
      </trkpt>
      <trkpt lat="40.05109" lon="-4.22492">
        <ele>589.2</ele>
        <time>2020-08-16 09:17:28</time>
      </trkpt>
      <trkpt lat="40.0511" lon="-4.22497">
        <ele>589.2</ele>
        <time>2020-08-16 09:17:29</time>
      </trkpt>
      <trkpt lat="40.0511" lon="-4.22507">
        <ele>589.2</ele>
        <time>2020-08-16 09:17:31</time>
      </trkpt>
      <trkpt lat="40.0511" lon="-4.22512">
        <ele>589.2</ele>
        <time>2020-08-16 09:17:32</time>
      </trkpt>
      <trkpt lat="40.05111" lon="-4.22517">
        <ele>589.4</ele>
        <time>2020-08-16 09:17:33</time>
      </trkpt>
      <trkpt lat="40.05111" lon="-4.22522">
        <ele>589.4</ele>
        <time>2020-08-16 09:17:34</time>
      </trkpt>
      <trkpt lat="40.05111" lon="-4.22527">
        <ele>589.4</ele>
        <time>2020-08-16 09:17:35</time>
      </trkpt>
      <trkpt lat="40.05112" lon="-4.22531">
        <ele>589.4</ele>
        <time>2020-08-16 09:17:36</time>
      </trkpt>
      <trkpt lat="40.05112" lon="-4.22536">
        <ele>589.4</ele>
        <time>2020-08-16 09:17:37</time>
      </trkpt>
      <trkpt lat="40.05112" lon="-4.22541">
        <ele>589.4</ele>
        <time>2020-08-16 09:17:38</time>
      </trkpt>
      <trkpt lat="40.05112" lon="-4.22546">
        <ele>589.6</ele>
        <time>2020-08-16 09:17:39</time>
      </trkpt>
      <trkpt lat="40.05112" lon="-4.22551">
        <ele>589.6</ele>
        <time>2020-08-16 09:17:40</time>
      </trkpt>
      <trkpt lat="40.05112" lon="-4.22556">
        <ele>589.8</ele>
        <time>2020-08-16 09:17:41</time>
      </trkpt>
      <trkpt lat="40.05112" lon="-4.22561">
        <ele>589.8</ele>
        <time>2020-08-16 09:17:42</time>
      </trkpt>
      <trkpt lat="40.05112" lon="-4.22565">
        <ele>590</ele>
        <time>2020-08-16 09:17:43</time>
      </trkpt>
      <trkpt lat="40.05111" lon="-4.2257">
        <ele>590.2</ele>
        <time>2020-08-16 09:17:44</time>
      </trkpt>
      <trkpt lat="40.0511" lon="-4.22575">
        <ele>590.2</ele>
        <time>2020-08-16 09:17:45</time>
      </trkpt>
      <trkpt lat="40.0511" lon="-4.2258">
        <ele>590.4</ele>
        <time>2020-08-16 09:17:46</time>
      </trkpt>
      <trkpt lat="40.05109" lon="-4.22584">
        <ele>590.4</ele>
        <time>2020-08-16 09:17:47</time>
      </trkpt>
      <trkpt lat="40.05108" lon="-4.22589">
        <ele>590.4</ele>
        <time>2020-08-16 09:17:48</time>
      </trkpt>
      <trkpt lat="40.05107" lon="-4.22594">
        <ele>590.6</ele>
        <time>2020-08-16 09:17:49</time>
      </trkpt>
      <trkpt lat="40.05106" lon="-4.22599">
        <ele>590.6</ele>
        <time>2020-08-16 09:17:50</time>
      </trkpt>
      <trkpt lat="40.05097" lon="-4.22639">
        <ele>590.2</ele>
        <time>2020-08-16 09:17:57</time>
      </trkpt>
      <trkpt lat="40.05093" lon="-4.22651">
        <ele>590.2</ele>
        <time>2020-08-16 09:17:59</time>
      </trkpt>
      <trkpt lat="40.05092" lon="-4.22658">
        <ele>590.2</ele>
        <time>2020-08-16 09:18:00</time>
      </trkpt>
      <trkpt lat="40.05083" lon="-4.2269">
        <ele>590</ele>
        <time>2020-08-16 09:18:05</time>
      </trkpt>
      <trkpt lat="40.05078" lon="-4.22709">
        <ele>589.8</ele>
        <time>2020-08-16 09:18:08</time>
      </trkpt>
      <trkpt lat="40.05076" lon="-4.22715">
        <ele>589.6</ele>
        <time>2020-08-16 09:18:09</time>
      </trkpt>
      <trkpt lat="40.05075" lon="-4.22721">
        <ele>589.4</ele>
        <time>2020-08-16 09:18:10</time>
      </trkpt>
      <trkpt lat="40.05073" lon="-4.22727">
        <ele>589.6</ele>
        <time>2020-08-16 09:18:11</time>
      </trkpt>
      <trkpt lat="40.05071" lon="-4.22733">
        <ele>589.4</ele>
        <time>2020-08-16 09:18:12</time>
      </trkpt>
      <trkpt lat="40.0507" lon="-4.22739">
        <ele>589.4</ele>
        <time>2020-08-16 09:18:13</time>
      </trkpt>
      <trkpt lat="40.05068" lon="-4.22746">
        <ele>589.2</ele>
        <time>2020-08-16 09:18:14</time>
      </trkpt>
      <trkpt lat="40.05066" lon="-4.22752">
        <ele>589</ele>
        <time>2020-08-16 09:18:15</time>
      </trkpt>
      <trkpt lat="40.05065" lon="-4.22758">
        <ele>589</ele>
        <time>2020-08-16 09:18:16</time>
      </trkpt>
      <trkpt lat="40.05064" lon="-4.22764">
        <ele>588.8</ele>
        <time>2020-08-16 09:18:17</time>
      </trkpt>
      <trkpt lat="40.05062" lon="-4.2277">
        <ele>588.8</ele>
        <time>2020-08-16 09:18:18</time>
      </trkpt>
      <trkpt lat="40.0506" lon="-4.22776">
        <ele>589</ele>
        <time>2020-08-16 09:18:19</time>
      </trkpt>
      <trkpt lat="40.05059" lon="-4.22781">
        <ele>588.8</ele>
        <time>2020-08-16 09:18:20</time>
      </trkpt>
      <trkpt lat="40.05057" lon="-4.22787">
        <ele>588.8</ele>
        <time>2020-08-16 09:18:21</time>
      </trkpt>
      <trkpt lat="40.05056" lon="-4.22793">
        <ele>588.8</ele>
        <time>2020-08-16 09:18:22</time>
      </trkpt>
      <trkpt lat="40.05055" lon="-4.22799">
        <ele>588.6</ele>
        <time>2020-08-16 09:18:23</time>
      </trkpt>
      <trkpt lat="40.05053" lon="-4.22805">
        <ele>588.4</ele>
        <time>2020-08-16 09:18:24</time>
      </trkpt>
      <trkpt lat="40.05052" lon="-4.22811">
        <ele>588.2</ele>
        <time>2020-08-16 09:18:25</time>
      </trkpt>
      <trkpt lat="40.05051" lon="-4.22817">
        <ele>588</ele>
        <time>2020-08-16 09:18:26</time>
      </trkpt>
      <trkpt lat="40.0505" lon="-4.22824">
        <ele>587.8</ele>
        <time>2020-08-16 09:18:27</time>
      </trkpt>
      <trkpt lat="40.05049" lon="-4.2283">
        <ele>587.6</ele>
        <time>2020-08-16 09:18:28</time>
      </trkpt>
      <trkpt lat="40.05048" lon="-4.22844">
        <ele>587.4</ele>
        <time>2020-08-16 09:18:30</time>
      </trkpt>
      <trkpt lat="40.05047" lon="-4.2285">
        <ele>587.4</ele>
        <time>2020-08-16 09:18:31</time>
      </trkpt>
      <trkpt lat="40.05043" lon="-4.22875">
        <ele>587.2</ele>
        <time>2020-08-16 09:18:35</time>
      </trkpt>
      <trkpt lat="40.05034" lon="-4.2294">
        <ele>586.8</ele>
        <time>2020-08-16 09:18:45</time>
      </trkpt>
      <trkpt lat="40.05034" lon="-4.22946">
        <ele>586.8</ele>
        <time>2020-08-16 09:18:46</time>
      </trkpt>
      <trkpt lat="40.05033" lon="-4.22952">
        <ele>586.6</ele>
        <time>2020-08-16 09:18:47</time>
      </trkpt>
      <trkpt lat="40.05032" lon="-4.22958">
        <ele>586.6</ele>
        <time>2020-08-16 09:18:48</time>
      </trkpt>
      <trkpt lat="40.0503" lon="-4.22964">
        <ele>586.6</ele>
        <time>2020-08-16 09:18:49</time>
      </trkpt>
      <trkpt lat="40.05029" lon="-4.22971">
        <ele>586.6</ele>
        <time>2020-08-16 09:18:50</time>
      </trkpt>
      <trkpt lat="40.05027" lon="-4.22977">
        <ele>586.4</ele>
        <time>2020-08-16 09:18:51</time>
      </trkpt>
      <trkpt lat="40.05025" lon="-4.22982">
        <ele>586.4</ele>
        <time>2020-08-16 09:18:52</time>
      </trkpt>
      <trkpt lat="40.05023" lon="-4.22988">
        <ele>586.4</ele>
        <time>2020-08-16 09:18:53</time>
      </trkpt>
      <trkpt lat="40.05022" lon="-4.22994">
        <ele>586.4</ele>
        <time>2020-08-16 09:18:54</time>
      </trkpt>
      <trkpt lat="40.05009" lon="-4.23038">
        <ele>585.8</ele>
        <time>2020-08-16 09:19:01</time>
      </trkpt>
      <trkpt lat="40.05006" lon="-4.23051">
        <ele>585.6</ele>
        <time>2020-08-16 09:19:03</time>
      </trkpt>
      <trkpt lat="40.04999" lon="-4.23082">
        <ele>585.4</ele>
        <time>2020-08-16 09:19:08</time>
      </trkpt>
      <trkpt lat="40.04997" lon="-4.23087">
        <ele>585.2</ele>
        <time>2020-08-16 09:19:09</time>
      </trkpt>
      <trkpt lat="40.04995" lon="-4.23093">
        <ele>585.2</ele>
        <time>2020-08-16 09:19:10</time>
      </trkpt>
      <trkpt lat="40.04993" lon="-4.23099">
        <ele>585.2</ele>
        <time>2020-08-16 09:19:11</time>
      </trkpt>
      <trkpt lat="40.04992" lon="-4.23105">
        <ele>585</ele>
        <time>2020-08-16 09:19:12</time>
      </trkpt>
      <trkpt lat="40.04991" lon="-4.23112">
        <ele>585</ele>
        <time>2020-08-16 09:19:13</time>
      </trkpt>
      <trkpt lat="40.0499" lon="-4.23118">
        <ele>585</ele>
        <time>2020-08-16 09:19:14</time>
      </trkpt>
      <trkpt lat="40.04989" lon="-4.23124">
        <ele>585</ele>
        <time>2020-08-16 09:19:15</time>
      </trkpt>
      <trkpt lat="40.04989" lon="-4.2313">
        <ele>585</ele>
        <time>2020-08-16 09:19:16</time>
      </trkpt>
      <trkpt lat="40.0499" lon="-4.23136">
        <ele>585</ele>
        <time>2020-08-16 09:19:17</time>
      </trkpt>
      <trkpt lat="40.0499" lon="-4.23143">
        <ele>584.8</ele>
        <time>2020-08-16 09:19:18</time>
      </trkpt>
      <trkpt lat="40.04991" lon="-4.23149">
        <ele>584.6</ele>
        <time>2020-08-16 09:19:19</time>
      </trkpt>
      <trkpt lat="40.04992" lon="-4.23155">
        <ele>584.4</ele>
        <time>2020-08-16 09:19:20</time>
      </trkpt>
      <trkpt lat="40.04994" lon="-4.23162">
        <ele>584.2</ele>
        <time>2020-08-16 09:19:21</time>
      </trkpt>
      <trkpt lat="40.04995" lon="-4.23168">
        <ele>584.2</ele>
        <time>2020-08-16 09:19:22</time>
      </trkpt>
      <trkpt lat="40.04996" lon="-4.23174">
        <ele>584</ele>
        <time>2020-08-16 09:19:23</time>
      </trkpt>
      <trkpt lat="40.04997" lon="-4.2318">
        <ele>584</ele>
        <time>2020-08-16 09:19:24</time>
      </trkpt>
      <trkpt lat="40.04998" lon="-4.23186">
        <ele>583.6</ele>
        <time>2020-08-16 09:19:25</time>
      </trkpt>
      <trkpt lat="40.04999" lon="-4.23191">
        <ele>583.6</ele>
        <time>2020-08-16 09:19:26</time>
      </trkpt>
      <trkpt lat="40.05" lon="-4.23197">
        <ele>583.8</ele>
        <time>2020-08-16 09:19:27</time>
      </trkpt>
      <trkpt lat="40.05002" lon="-4.23202">
        <ele>583.8</ele>
        <time>2020-08-16 09:19:28</time>
      </trkpt>
      <trkpt lat="40.05003" lon="-4.23208">
        <ele>583.8</ele>
        <time>2020-08-16 09:19:29</time>
      </trkpt>
      <trkpt lat="40.05004" lon="-4.23214">
        <ele>583.6</ele>
        <time>2020-08-16 09:19:30</time>
      </trkpt>
      <trkpt lat="40.05005" lon="-4.2322">
        <ele>583.4</ele>
        <time>2020-08-16 09:19:31</time>
      </trkpt>
      <trkpt lat="40.05006" lon="-4.23226">
        <ele>583.4</ele>
        <time>2020-08-16 09:19:32</time>
      </trkpt>
      <trkpt lat="40.05007" lon="-4.23232">
        <ele>583.4</ele>
        <time>2020-08-16 09:19:33</time>
      </trkpt>
      <trkpt lat="40.0501" lon="-4.2325">
        <ele>583</ele>
        <time>2020-08-16 09:19:36</time>
      </trkpt>
      <trkpt lat="40.05012" lon="-4.23262">
        <ele>582.8</ele>
        <time>2020-08-16 09:19:38</time>
      </trkpt>
      <trkpt lat="40.05015" lon="-4.23274">
        <ele>582.6</ele>
        <time>2020-08-16 09:19:40</time>
      </trkpt>
      <trkpt lat="40.05021" lon="-4.23291">
        <ele>582.4</ele>
        <time>2020-08-16 09:19:43</time>
      </trkpt>
      <trkpt lat="40.05031" lon="-4.23312">
        <ele>582.2</ele>
        <time>2020-08-16 09:19:47</time>
      </trkpt>
      <trkpt lat="40.05034" lon="-4.23317">
        <ele>582</ele>
        <time>2020-08-16 09:19:48</time>
      </trkpt>
      <trkpt lat="40.05046" lon="-4.23344">
        <ele>581.4</ele>
        <time>2020-08-16 09:19:53</time>
      </trkpt>
      <trkpt lat="40.05048" lon="-4.23349">
        <ele>581.4</ele>
        <time>2020-08-16 09:19:54</time>
      </trkpt>
      <trkpt lat="40.05051" lon="-4.23355">
        <ele>581.4</ele>
        <time>2020-08-16 09:19:55</time>
      </trkpt>
      <trkpt lat="40.05056" lon="-4.23365">
        <ele>581.2</ele>
        <time>2020-08-16 09:19:57</time>
      </trkpt>
      <trkpt lat="40.05059" lon="-4.2337">
        <ele>581</ele>
        <time>2020-08-16 09:19:58</time>
      </trkpt>
      <trkpt lat="40.05061" lon="-4.23375">
        <ele>581</ele>
        <time>2020-08-16 09:19:59</time>
      </trkpt>
      <trkpt lat="40.05063" lon="-4.2338">
        <ele>581</ele>
        <time>2020-08-16 09:20:00</time>
      </trkpt>
      <trkpt lat="40.05064" lon="-4.23385">
        <ele>581</ele>
        <time>2020-08-16 09:20:01</time>
      </trkpt>
      <trkpt lat="40.05065" lon="-4.23391">
        <ele>581</ele>
        <time>2020-08-16 09:20:02</time>
      </trkpt>
      <trkpt lat="40.05066" lon="-4.23397">
        <ele>580.8</ele>
        <time>2020-08-16 09:20:03</time>
      </trkpt>
      <trkpt lat="40.05068" lon="-4.23403">
        <ele>580.8</ele>
        <time>2020-08-16 09:20:04</time>
      </trkpt>
      <trkpt lat="40.05068" lon="-4.23409">
        <ele>580.8</ele>
        <time>2020-08-16 09:20:05</time>
      </trkpt>
      <trkpt lat="40.05068" lon="-4.23415">
        <ele>580.8</ele>
        <time>2020-08-16 09:20:06</time>
      </trkpt>
      <trkpt lat="40.05069" lon="-4.23422">
        <ele>580.8</ele>
        <time>2020-08-16 09:20:07</time>
      </trkpt>
      <trkpt lat="40.05069" lon="-4.23428">
        <ele>580.8</ele>
        <time>2020-08-16 09:20:08</time>
      </trkpt>
      <trkpt lat="40.05069" lon="-4.23435">
        <ele>580.8</ele>
        <time>2020-08-16 09:20:09</time>
      </trkpt>
      <trkpt lat="40.0507" lon="-4.23478">
        <ele>580.6</ele>
        <time>2020-08-16 09:20:16</time>
      </trkpt>
      <trkpt lat="40.0507" lon="-4.23484">
        <ele>580.6</ele>
        <time>2020-08-16 09:20:17</time>
      </trkpt>
      <trkpt lat="40.05069" lon="-4.2349">
        <ele>580.4</ele>
        <time>2020-08-16 09:20:18</time>
      </trkpt>
      <trkpt lat="40.05069" lon="-4.23497">
        <ele>580.2</ele>
        <time>2020-08-16 09:20:19</time>
      </trkpt>
      <trkpt lat="40.05069" lon="-4.23503">
        <ele>580.2</ele>
        <time>2020-08-16 09:20:20</time>
      </trkpt>
      <trkpt lat="40.05069" lon="-4.23509">
        <ele>580</ele>
        <time>2020-08-16 09:20:21</time>
      </trkpt>
      <trkpt lat="40.05069" lon="-4.23522">
        <ele>580</ele>
        <time>2020-08-16 09:20:23</time>
      </trkpt>
      <trkpt lat="40.0507" lon="-4.23548">
        <ele>579.8</ele>
        <time>2020-08-16 09:20:27</time>
      </trkpt>
      <trkpt lat="40.05071" lon="-4.23567">
        <ele>579.4</ele>
        <time>2020-08-16 09:20:30</time>
      </trkpt>
      <trkpt lat="40.05071" lon="-4.23573">
        <ele>579.4</ele>
        <time>2020-08-16 09:20:31</time>
      </trkpt>
      <trkpt lat="40.05071" lon="-4.23579">
        <ele>579.4</ele>
        <time>2020-08-16 09:20:32</time>
      </trkpt>
      <trkpt lat="40.05071" lon="-4.23586">
        <ele>579.4</ele>
        <time>2020-08-16 09:20:33</time>
      </trkpt>
      <trkpt lat="40.05071" lon="-4.23592">
        <ele>579.2</ele>
        <time>2020-08-16 09:20:34</time>
      </trkpt>
      <trkpt lat="40.05072" lon="-4.23599">
        <ele>579.2</ele>
        <time>2020-08-16 09:20:35</time>
      </trkpt>
      <trkpt lat="40.05072" lon="-4.23605">
        <ele>579.2</ele>
        <time>2020-08-16 09:20:36</time>
      </trkpt>
      <trkpt lat="40.05073" lon="-4.23611">
        <ele>579</ele>
        <time>2020-08-16 09:20:37</time>
      </trkpt>
      <trkpt lat="40.05073" lon="-4.23617">
        <ele>579</ele>
        <time>2020-08-16 09:20:38</time>
      </trkpt>
      <trkpt lat="40.05072" lon="-4.23624">
        <ele>578.8</ele>
        <time>2020-08-16 09:20:39</time>
      </trkpt>
      <trkpt lat="40.05073" lon="-4.2363">
        <ele>578.8</ele>
        <time>2020-08-16 09:20:40</time>
      </trkpt>
      <trkpt lat="40.05073" lon="-4.23636">
        <ele>578.6</ele>
        <time>2020-08-16 09:20:41</time>
      </trkpt>
      <trkpt lat="40.05073" lon="-4.23642">
        <ele>578.6</ele>
        <time>2020-08-16 09:20:42</time>
      </trkpt>
      <trkpt lat="40.05073" lon="-4.23648">
        <ele>578.6</ele>
        <time>2020-08-16 09:20:43</time>
      </trkpt>
      <trkpt lat="40.05073" lon="-4.23654">
        <ele>578.8</ele>
        <time>2020-08-16 09:20:44</time>
      </trkpt>
      <trkpt lat="40.05073" lon="-4.2366">
        <ele>578.8</ele>
        <time>2020-08-16 09:20:45</time>
      </trkpt>
      <trkpt lat="40.05073" lon="-4.23666">
        <ele>578.6</ele>
        <time>2020-08-16 09:20:46</time>
      </trkpt>
      <trkpt lat="40.05073" lon="-4.23672">
        <ele>579</ele>
        <time>2020-08-16 09:20:47</time>
      </trkpt>
      <trkpt lat="40.05073" lon="-4.23678">
        <ele>578.8</ele>
        <time>2020-08-16 09:20:48</time>
      </trkpt>
      <trkpt lat="40.05073" lon="-4.23683">
        <ele>579</ele>
        <time>2020-08-16 09:20:49</time>
      </trkpt>
      <trkpt lat="40.05073" lon="-4.23689">
        <ele>579</ele>
        <time>2020-08-16 09:20:50</time>
      </trkpt>
      <trkpt lat="40.05072" lon="-4.23695">
        <ele>579</ele>
        <time>2020-08-16 09:20:51</time>
      </trkpt>
      <trkpt lat="40.05071" lon="-4.237">
        <ele>579.2</ele>
        <time>2020-08-16 09:20:52</time>
      </trkpt>
      <trkpt lat="40.0507" lon="-4.23706">
        <ele>579.2</ele>
        <time>2020-08-16 09:20:53</time>
      </trkpt>
      <trkpt lat="40.05068" lon="-4.23711">
        <ele>579.2</ele>
        <time>2020-08-16 09:20:54</time>
      </trkpt>
      <trkpt lat="40.05067" lon="-4.23716">
        <ele>579.2</ele>
        <time>2020-08-16 09:20:55</time>
      </trkpt>
      <trkpt lat="40.05066" lon="-4.23722">
        <ele>579.2</ele>
        <time>2020-08-16 09:20:56</time>
      </trkpt>
      <trkpt lat="40.05065" lon="-4.23727">
        <ele>579.2</ele>
        <time>2020-08-16 09:20:57</time>
      </trkpt>
      <trkpt lat="40.05063" lon="-4.23732">
        <ele>579.2</ele>
        <time>2020-08-16 09:20:58</time>
      </trkpt>
      <trkpt lat="40.05062" lon="-4.23738">
        <ele>579.2</ele>
        <time>2020-08-16 09:20:59</time>
      </trkpt>
      <trkpt lat="40.0506" lon="-4.23743">
        <ele>579.2</ele>
        <time>2020-08-16 09:21:00</time>
      </trkpt>
      <trkpt lat="40.05059" lon="-4.23748">
        <ele>579.2</ele>
        <time>2020-08-16 09:21:01</time>
      </trkpt>
      <trkpt lat="40.05056" lon="-4.23753">
        <ele>579.2</ele>
        <time>2020-08-16 09:21:02</time>
      </trkpt>
      <trkpt lat="40.05054" lon="-4.23758">
        <ele>579.4</ele>
        <time>2020-08-16 09:21:03</time>
      </trkpt>
      <trkpt lat="40.05052" lon="-4.23762">
        <ele>579.4</ele>
        <time>2020-08-16 09:21:04</time>
      </trkpt>
      <trkpt lat="40.0505" lon="-4.23766">
        <ele>579.4</ele>
        <time>2020-08-16 09:21:05</time>
      </trkpt>
      <trkpt lat="40.05047" lon="-4.23771">
        <ele>579.4</ele>
        <time>2020-08-16 09:21:06</time>
      </trkpt>
      <trkpt lat="40.05044" lon="-4.23774">
        <ele>579.4</ele>
        <time>2020-08-16 09:21:07</time>
      </trkpt>
      <trkpt lat="40.05041" lon="-4.23778">
        <ele>579.6</ele>
        <time>2020-08-16 09:21:08</time>
      </trkpt>
      <trkpt lat="40.05038" lon="-4.23781">
        <ele>579.6</ele>
        <time>2020-08-16 09:21:09</time>
      </trkpt>
      <trkpt lat="40.05035" lon="-4.23784">
        <ele>579.6</ele>
        <time>2020-08-16 09:21:10</time>
      </trkpt>
      <trkpt lat="40.05032" lon="-4.23787">
        <ele>579.8</ele>
        <time>2020-08-16 09:21:11</time>
      </trkpt>
      <trkpt lat="40.05028" lon="-4.23789">
        <ele>579.8</ele>
        <time>2020-08-16 09:21:12</time>
      </trkpt>
      <trkpt lat="40.05025" lon="-4.23791">
        <ele>580</ele>
        <time>2020-08-16 09:21:13</time>
      </trkpt>
      <trkpt lat="40.05021" lon="-4.23794">
        <ele>580</ele>
        <time>2020-08-16 09:21:14</time>
      </trkpt>
      <trkpt lat="40.05018" lon="-4.23796">
        <ele>580</ele>
        <time>2020-08-16 09:21:15</time>
      </trkpt>
      <trkpt lat="40.05014" lon="-4.23798">
        <ele>580</ele>
        <time>2020-08-16 09:21:16</time>
      </trkpt>
      <trkpt lat="40.05011" lon="-4.23801">
        <ele>580.4</ele>
        <time>2020-08-16 09:21:17</time>
      </trkpt>
      <trkpt lat="40.05008" lon="-4.23803">
        <ele>580.4</ele>
        <time>2020-08-16 09:21:18</time>
      </trkpt>
      <trkpt lat="40.05005" lon="-4.23806">
        <ele>580.6</ele>
        <time>2020-08-16 09:21:19</time>
      </trkpt>
      <trkpt lat="40.05002" lon="-4.23809">
        <ele>580.6</ele>
        <time>2020-08-16 09:21:20</time>
      </trkpt>
      <trkpt lat="40.04999" lon="-4.23813">
        <ele>580.6</ele>
        <time>2020-08-16 09:21:21</time>
      </trkpt>
      <trkpt lat="40.04996" lon="-4.23816">
        <ele>581.2</ele>
        <time>2020-08-16 09:21:22</time>
      </trkpt>
      <trkpt lat="40.04993" lon="-4.23819">
        <ele>581.2</ele>
        <time>2020-08-16 09:21:23</time>
      </trkpt>
      <trkpt lat="40.0499" lon="-4.23821">
        <ele>581.6</ele>
        <time>2020-08-16 09:21:24</time>
      </trkpt>
      <trkpt lat="40.04988" lon="-4.23824">
        <ele>581.8</ele>
        <time>2020-08-16 09:21:25</time>
      </trkpt>
      <trkpt lat="40.04985" lon="-4.23827">
        <ele>582</ele>
        <time>2020-08-16 09:21:26</time>
      </trkpt>
      <trkpt lat="40.04983" lon="-4.23831">
        <ele>582.4</ele>
        <time>2020-08-16 09:21:27</time>
      </trkpt>
      <trkpt lat="40.04981" lon="-4.23834">
        <ele>582.6</ele>
        <time>2020-08-16 09:21:28</time>
      </trkpt>
      <trkpt lat="40.04979" lon="-4.23838">
        <ele>582.8</ele>
        <time>2020-08-16 09:21:29</time>
      </trkpt>
      <trkpt lat="40.04977" lon="-4.23842">
        <ele>583</ele>
        <time>2020-08-16 09:21:30</time>
      </trkpt>
      <trkpt lat="40.04975" lon="-4.23846">
        <ele>583</ele>
        <time>2020-08-16 09:21:31</time>
      </trkpt>
      <trkpt lat="40.04974" lon="-4.23851">
        <ele>583.2</ele>
        <time>2020-08-16 09:21:32</time>
      </trkpt>
      <trkpt lat="40.04973" lon="-4.23855">
        <ele>583.2</ele>
        <time>2020-08-16 09:21:33</time>
      </trkpt>
      <trkpt lat="40.04973" lon="-4.2386">
        <ele>583.4</ele>
        <time>2020-08-16 09:21:34</time>
      </trkpt>
      <trkpt lat="40.04972" lon="-4.23865">
        <ele>583.4</ele>
        <time>2020-08-16 09:21:35</time>
      </trkpt>
      <trkpt lat="40.04972" lon="-4.2387">
        <ele>583.6</ele>
        <time>2020-08-16 09:21:36</time>
      </trkpt>
      <trkpt lat="40.04972" lon="-4.23875">
        <ele>583.6</ele>
        <time>2020-08-16 09:21:37</time>
      </trkpt>
      <trkpt lat="40.04973" lon="-4.2388">
        <ele>583.8</ele>
        <time>2020-08-16 09:21:38</time>
      </trkpt>
      <trkpt lat="40.04973" lon="-4.23885">
        <ele>583.8</ele>
        <time>2020-08-16 09:21:39</time>
      </trkpt>
      <trkpt lat="40.04974" lon="-4.2389">
        <ele>584</ele>
        <time>2020-08-16 09:21:40</time>
      </trkpt>
      <trkpt lat="40.04975" lon="-4.23895">
        <ele>584.2</ele>
        <time>2020-08-16 09:21:41</time>
      </trkpt>
      <trkpt lat="40.04976" lon="-4.239">
        <ele>584.2</ele>
        <time>2020-08-16 09:21:42</time>
      </trkpt>
      <trkpt lat="40.04977" lon="-4.23905">
        <ele>584.2</ele>
        <time>2020-08-16 09:21:43</time>
      </trkpt>
      <trkpt lat="40.0498" lon="-4.23914">
        <ele>584.2</ele>
        <time>2020-08-16 09:21:45</time>
      </trkpt>
      <trkpt lat="40.04981" lon="-4.23919">
        <ele>584.2</ele>
        <time>2020-08-16 09:21:46</time>
      </trkpt>
      <trkpt lat="40.04994" lon="-4.23952">
        <ele>584.4</ele>
        <time>2020-08-16 09:21:53</time>
      </trkpt>
      <trkpt lat="40.04997" lon="-4.23961">
        <ele>584</ele>
        <time>2020-08-16 09:21:55</time>
      </trkpt>
      <trkpt lat="40.05" lon="-4.23971">
        <ele>584</ele>
        <time>2020-08-16 09:21:57</time>
      </trkpt>
      <trkpt lat="40.05006" lon="-4.23987">
        <ele>583.8</ele>
        <time>2020-08-16 09:22:00</time>
      </trkpt>
      <trkpt lat="40.05008" lon="-4.23992">
        <ele>583.8</ele>
        <time>2020-08-16 09:22:01</time>
      </trkpt>
      <trkpt lat="40.05016" lon="-4.24014">
        <ele>583.8</ele>
        <time>2020-08-16 09:22:05</time>
      </trkpt>
      <trkpt lat="40.05025" lon="-4.24042">
        <ele>583.4</ele>
        <time>2020-08-16 09:22:10</time>
      </trkpt>
      <trkpt lat="40.05033" lon="-4.24068">
        <ele>583</ele>
        <time>2020-08-16 09:22:14</time>
      </trkpt>
      <trkpt lat="40.05037" lon="-4.2408">
        <ele>582.8</ele>
        <time>2020-08-16 09:22:16</time>
      </trkpt>
      <trkpt lat="40.0504" lon="-4.24093">
        <ele>582.6</ele>
        <time>2020-08-16 09:22:18</time>
      </trkpt>
      <trkpt lat="40.05042" lon="-4.24106">
        <ele>582.6</ele>
        <time>2020-08-16 09:22:20</time>
      </trkpt>
      <trkpt lat="40.05044" lon="-4.24112">
        <ele>582.6</ele>
        <time>2020-08-16 09:22:21</time>
      </trkpt>
      <trkpt lat="40.05045" lon="-4.24118">
        <ele>582.4</ele>
        <time>2020-08-16 09:22:22</time>
      </trkpt>
      <trkpt lat="40.05045" lon="-4.24124">
        <ele>582.4</ele>
        <time>2020-08-16 09:22:23</time>
      </trkpt>
      <trkpt lat="40.05046" lon="-4.24131">
        <ele>582.2</ele>
        <time>2020-08-16 09:22:24</time>
      </trkpt>
      <trkpt lat="40.05047" lon="-4.24137">
        <ele>582</ele>
        <time>2020-08-16 09:22:25</time>
      </trkpt>
      <trkpt lat="40.05047" lon="-4.24144">
        <ele>582</ele>
        <time>2020-08-16 09:22:26</time>
      </trkpt>
      <trkpt lat="40.05048" lon="-4.24151">
        <ele>581.8</ele>
        <time>2020-08-16 09:22:27</time>
      </trkpt>
      <trkpt lat="40.05049" lon="-4.24158">
        <ele>581.6</ele>
        <time>2020-08-16 09:22:28</time>
      </trkpt>
      <trkpt lat="40.05051" lon="-4.24172">
        <ele>581.4</ele>
        <time>2020-08-16 09:22:30</time>
      </trkpt>
      <trkpt lat="40.05052" lon="-4.24187">
        <ele>581.4</ele>
        <time>2020-08-16 09:22:32</time>
      </trkpt>
      <trkpt lat="40.05053" lon="-4.24206">
        <ele>581.4</ele>
        <time>2020-08-16 09:22:35</time>
      </trkpt>
      <trkpt lat="40.05054" lon="-4.24225">
        <ele>581.4</ele>
        <time>2020-08-16 09:22:38</time>
      </trkpt>
      <trkpt lat="40.05054" lon="-4.24232">
        <ele>581.2</ele>
        <time>2020-08-16 09:22:39</time>
      </trkpt>
      <trkpt lat="40.05055" lon="-4.24238">
        <ele>581.2</ele>
        <time>2020-08-16 09:22:40</time>
      </trkpt>
      <trkpt lat="40.05055" lon="-4.24244">
        <ele>581.2</ele>
        <time>2020-08-16 09:22:41</time>
      </trkpt>
      <trkpt lat="40.05055" lon="-4.24251">
        <ele>581</ele>
        <time>2020-08-16 09:22:42</time>
      </trkpt>
      <trkpt lat="40.05057" lon="-4.24257">
        <ele>580.8</ele>
        <time>2020-08-16 09:22:43</time>
      </trkpt>
      <trkpt lat="40.05059" lon="-4.24263">
        <ele>580.8</ele>
        <time>2020-08-16 09:22:44</time>
      </trkpt>
      <trkpt lat="40.05061" lon="-4.24269">
        <ele>580.8</ele>
        <time>2020-08-16 09:22:45</time>
      </trkpt>
      <trkpt lat="40.05063" lon="-4.24274">
        <ele>580.8</ele>
        <time>2020-08-16 09:22:46</time>
      </trkpt>
      <trkpt lat="40.0507" lon="-4.24284">
        <ele>580.6</ele>
        <time>2020-08-16 09:22:48</time>
      </trkpt>
      <trkpt lat="40.05073" lon="-4.24289">
        <ele>580.6</ele>
        <time>2020-08-16 09:22:49</time>
      </trkpt>
      <trkpt lat="40.05076" lon="-4.24293">
        <ele>580.6</ele>
        <time>2020-08-16 09:22:50</time>
      </trkpt>
      <trkpt lat="40.0508" lon="-4.24297">
        <ele>580.6</ele>
        <time>2020-08-16 09:22:51</time>
      </trkpt>
      <trkpt lat="40.05083" lon="-4.24301">
        <ele>580.6</ele>
        <time>2020-08-16 09:22:52</time>
      </trkpt>
      <trkpt lat="40.05087" lon="-4.24305">
        <ele>580.6</ele>
        <time>2020-08-16 09:22:53</time>
      </trkpt>
      <trkpt lat="40.0509" lon="-4.24309">
        <ele>580.6</ele>
        <time>2020-08-16 09:22:54</time>
      </trkpt>
      <trkpt lat="40.05093" lon="-4.24313">
        <ele>580.6</ele>
        <time>2020-08-16 09:22:55</time>
      </trkpt>
      <trkpt lat="40.05096" lon="-4.24317">
        <ele>580.6</ele>
        <time>2020-08-16 09:22:56</time>
      </trkpt>
      <trkpt lat="40.05099" lon="-4.24321">
        <ele>580.8</ele>
        <time>2020-08-16 09:22:57</time>
      </trkpt>
      <trkpt lat="40.05102" lon="-4.24324">
        <ele>580.8</ele>
        <time>2020-08-16 09:22:58</time>
      </trkpt>
      <trkpt lat="40.05105" lon="-4.24328">
        <ele>580.8</ele>
        <time>2020-08-16 09:22:59</time>
      </trkpt>
      <trkpt lat="40.05108" lon="-4.24332">
        <ele>581</ele>
        <time>2020-08-16 09:23:00</time>
      </trkpt>
      <trkpt lat="40.0511" lon="-4.24336">
        <ele>581.2</ele>
        <time>2020-08-16 09:23:01</time>
      </trkpt>
      <trkpt lat="40.05113" lon="-4.2434">
        <ele>581.4</ele>
        <time>2020-08-16 09:23:02</time>
      </trkpt>
      <trkpt lat="40.05115" lon="-4.24344">
        <ele>581.8</ele>
        <time>2020-08-16 09:23:03</time>
      </trkpt>
      <trkpt lat="40.05118" lon="-4.24348">
        <ele>581.8</ele>
        <time>2020-08-16 09:23:04</time>
      </trkpt>
      <trkpt lat="40.0512" lon="-4.24352">
        <ele>582</ele>
        <time>2020-08-16 09:23:05</time>
      </trkpt>
      <trkpt lat="40.05122" lon="-4.24356">
        <ele>582.2</ele>
        <time>2020-08-16 09:23:06</time>
      </trkpt>
      <trkpt lat="40.05124" lon="-4.2436">
        <ele>582.2</ele>
        <time>2020-08-16 09:23:07</time>
      </trkpt>
      <trkpt lat="40.05126" lon="-4.24365">
        <ele>582.2</ele>
        <time>2020-08-16 09:23:08</time>
      </trkpt>
      <trkpt lat="40.05128" lon="-4.24369">
        <ele>582.2</ele>
        <time>2020-08-16 09:23:09</time>
      </trkpt>
      <trkpt lat="40.0513" lon="-4.24374">
        <ele>582.4</ele>
        <time>2020-08-16 09:23:10</time>
      </trkpt>
      <trkpt lat="40.05132" lon="-4.24378">
        <ele>582.4</ele>
        <time>2020-08-16 09:23:11</time>
      </trkpt>
      <trkpt lat="40.05134" lon="-4.24383">
        <ele>582.4</ele>
        <time>2020-08-16 09:23:12</time>
      </trkpt>
      <trkpt lat="40.05135" lon="-4.24387">
        <ele>582.4</ele>
        <time>2020-08-16 09:23:13</time>
      </trkpt>
      <trkpt lat="40.05137" lon="-4.24392">
        <ele>582.6</ele>
        <time>2020-08-16 09:23:14</time>
      </trkpt>
      <trkpt lat="40.05138" lon="-4.24396">
        <ele>582.6</ele>
        <time>2020-08-16 09:23:15</time>
      </trkpt>
      <trkpt lat="40.05139" lon="-4.24401">
        <ele>582.6</ele>
        <time>2020-08-16 09:23:16</time>
      </trkpt>
      <trkpt lat="40.05141" lon="-4.24406">
        <ele>582.8</ele>
        <time>2020-08-16 09:23:17</time>
      </trkpt>
      <trkpt lat="40.05143" lon="-4.24416">
        <ele>583.2</ele>
        <time>2020-08-16 09:23:19</time>
      </trkpt>
      <trkpt lat="40.05145" lon="-4.24421">
        <ele>583.4</ele>
        <time>2020-08-16 09:23:20</time>
      </trkpt>
      <trkpt lat="40.05146" lon="-4.24426">
        <ele>583.4</ele>
        <time>2020-08-16 09:23:21</time>
      </trkpt>
      <trkpt lat="40.05148" lon="-4.24431">
        <ele>583.6</ele>
        <time>2020-08-16 09:23:22</time>
      </trkpt>
      <trkpt lat="40.05149" lon="-4.24436">
        <ele>583.6</ele>
        <time>2020-08-16 09:23:23</time>
      </trkpt>
      <trkpt lat="40.05151" lon="-4.24441">
        <ele>583.6</ele>
        <time>2020-08-16 09:23:24</time>
      </trkpt>
      <trkpt lat="40.05157" lon="-4.24455">
        <ele>583.6</ele>
        <time>2020-08-16 09:23:27</time>
      </trkpt>
      <trkpt lat="40.05161" lon="-4.24463">
        <ele>583.6</ele>
        <time>2020-08-16 09:23:29</time>
      </trkpt>
      <trkpt lat="40.05163" lon="-4.24468">
        <ele>583.6</ele>
        <time>2020-08-16 09:23:30</time>
      </trkpt>
      <trkpt lat="40.05165" lon="-4.24472">
        <ele>583.6</ele>
        <time>2020-08-16 09:23:31</time>
      </trkpt>
      <trkpt lat="40.05167" lon="-4.24476">
        <ele>583.6</ele>
        <time>2020-08-16 09:23:32</time>
      </trkpt>
      <trkpt lat="40.05168" lon="-4.24481">
        <ele>583.8</ele>
        <time>2020-08-16 09:23:33</time>
      </trkpt>
      <trkpt lat="40.0517" lon="-4.24485">
        <ele>583.8</ele>
        <time>2020-08-16 09:23:34</time>
      </trkpt>
      <trkpt lat="40.05172" lon="-4.2449">
        <ele>584.2</ele>
        <time>2020-08-16 09:23:35</time>
      </trkpt>
      <trkpt lat="40.05173" lon="-4.24494">
        <ele>584.8</ele>
        <time>2020-08-16 09:23:36</time>
      </trkpt>
      <trkpt lat="40.05175" lon="-4.24498">
        <ele>585</ele>
        <time>2020-08-16 09:23:37</time>
      </trkpt>
      <trkpt lat="40.05177" lon="-4.24503">
        <ele>585.2</ele>
        <time>2020-08-16 09:23:38</time>
      </trkpt>
      <trkpt lat="40.05178" lon="-4.24507">
        <ele>585.2</ele>
        <time>2020-08-16 09:23:39</time>
      </trkpt>
      <trkpt lat="40.0518" lon="-4.24511">
        <ele>585.4</ele>
        <time>2020-08-16 09:23:40</time>
      </trkpt>
      <trkpt lat="40.05181" lon="-4.24515">
        <ele>585.4</ele>
        <time>2020-08-16 09:23:41</time>
      </trkpt>
      <trkpt lat="40.05183" lon="-4.24519">
        <ele>585.8</ele>
        <time>2020-08-16 09:23:42</time>
      </trkpt>
      <trkpt lat="40.05184" lon="-4.24523">
        <ele>586</ele>
        <time>2020-08-16 09:23:43</time>
      </trkpt>
      <trkpt lat="40.05186" lon="-4.24528">
        <ele>586</ele>
        <time>2020-08-16 09:23:44</time>
      </trkpt>
      <trkpt lat="40.05187" lon="-4.24532">
        <ele>586.2</ele>
        <time>2020-08-16 09:23:45</time>
      </trkpt>
      <trkpt lat="40.05189" lon="-4.24537">
        <ele>586.4</ele>
        <time>2020-08-16 09:23:46</time>
      </trkpt>
      <trkpt lat="40.0519" lon="-4.24541">
        <ele>586.4</ele>
        <time>2020-08-16 09:23:47</time>
      </trkpt>
      <trkpt lat="40.05192" lon="-4.24546">
        <ele>586.4</ele>
        <time>2020-08-16 09:23:48</time>
      </trkpt>
      <trkpt lat="40.05193" lon="-4.2455">
        <ele>586.6</ele>
        <time>2020-08-16 09:23:49</time>
      </trkpt>
      <trkpt lat="40.05195" lon="-4.24554">
        <ele>586.8</ele>
        <time>2020-08-16 09:23:50</time>
      </trkpt>
      <trkpt lat="40.05196" lon="-4.24559">
        <ele>587</ele>
        <time>2020-08-16 09:23:51</time>
      </trkpt>
      <trkpt lat="40.05198" lon="-4.24563">
        <ele>587.4</ele>
        <time>2020-08-16 09:23:52</time>
      </trkpt>
      <trkpt lat="40.05199" lon="-4.24568">
        <ele>587.4</ele>
        <time>2020-08-16 09:23:53</time>
      </trkpt>
      <trkpt lat="40.05201" lon="-4.24572">
        <ele>587.6</ele>
        <time>2020-08-16 09:23:54</time>
      </trkpt>
      <trkpt lat="40.05202" lon="-4.24577">
        <ele>587.6</ele>
        <time>2020-08-16 09:23:55</time>
      </trkpt>
      <trkpt lat="40.05204" lon="-4.24581">
        <ele>587.8</ele>
        <time>2020-08-16 09:23:56</time>
      </trkpt>
      <trkpt lat="40.05205" lon="-4.24585">
        <ele>587.8</ele>
        <time>2020-08-16 09:23:57</time>
      </trkpt>
      <trkpt lat="40.05207" lon="-4.2459">
        <ele>587.8</ele>
        <time>2020-08-16 09:23:58</time>
      </trkpt>
      <trkpt lat="40.05209" lon="-4.24594">
        <ele>587.8</ele>
        <time>2020-08-16 09:23:59</time>
      </trkpt>
      <trkpt lat="40.05211" lon="-4.24598">
        <ele>587.8</ele>
        <time>2020-08-16 09:24:00</time>
      </trkpt>
      <trkpt lat="40.05212" lon="-4.24603">
        <ele>587.8</ele>
        <time>2020-08-16 09:24:01</time>
      </trkpt>
      <trkpt lat="40.05214" lon="-4.24607">
        <ele>587.8</ele>
        <time>2020-08-16 09:24:02</time>
      </trkpt>
      <trkpt lat="40.05215" lon="-4.24611">
        <ele>587.8</ele>
        <time>2020-08-16 09:24:03</time>
      </trkpt>
      <trkpt lat="40.05217" lon="-4.24615">
        <ele>588</ele>
        <time>2020-08-16 09:24:04</time>
      </trkpt>
      <trkpt lat="40.05218" lon="-4.24619">
        <ele>588</ele>
        <time>2020-08-16 09:24:05</time>
      </trkpt>
      <trkpt lat="40.0522" lon="-4.24624">
        <ele>588</ele>
        <time>2020-08-16 09:24:06</time>
      </trkpt>
      <trkpt lat="40.05221" lon="-4.24628">
        <ele>588.2</ele>
        <time>2020-08-16 09:24:07</time>
      </trkpt>
      <trkpt lat="40.05223" lon="-4.24632">
        <ele>588.4</ele>
        <time>2020-08-16 09:24:08</time>
      </trkpt>
      <trkpt lat="40.05224" lon="-4.24637">
        <ele>588.4</ele>
        <time>2020-08-16 09:24:09</time>
      </trkpt>
      <trkpt lat="40.05226" lon="-4.24641">
        <ele>588.6</ele>
        <time>2020-08-16 09:24:10</time>
      </trkpt>
      <trkpt lat="40.05227" lon="-4.24645">
        <ele>588.6</ele>
        <time>2020-08-16 09:24:11</time>
      </trkpt>
      <trkpt lat="40.05229" lon="-4.2465">
        <ele>588.6</ele>
        <time>2020-08-16 09:24:12</time>
      </trkpt>
      <trkpt lat="40.0523" lon="-4.24654">
        <ele>588.6</ele>
        <time>2020-08-16 09:24:13</time>
      </trkpt>
      <trkpt lat="40.05231" lon="-4.24658">
        <ele>588.8</ele>
        <time>2020-08-16 09:24:14</time>
      </trkpt>
      <trkpt lat="40.05231" lon="-4.24663">
        <ele>588.8</ele>
        <time>2020-08-16 09:24:15</time>
      </trkpt>
      <trkpt lat="40.05231" lon="-4.24668">
        <ele>589.2</ele>
        <time>2020-08-16 09:24:16</time>
      </trkpt>
      <trkpt lat="40.05231" lon="-4.24672">
        <ele>589.4</ele>
        <time>2020-08-16 09:24:17</time>
      </trkpt>
      <trkpt lat="40.0523" lon="-4.24677">
        <ele>589.4</ele>
        <time>2020-08-16 09:24:18</time>
      </trkpt>
      <trkpt lat="40.05228" lon="-4.24681">
        <ele>589.4</ele>
        <time>2020-08-16 09:24:19</time>
      </trkpt>
      <trkpt lat="40.05226" lon="-4.24685">
        <ele>589.4</ele>
        <time>2020-08-16 09:24:20</time>
      </trkpt>
      <trkpt lat="40.05223" lon="-4.24689">
        <ele>589.6</ele>
        <time>2020-08-16 09:24:21</time>
      </trkpt>
      <trkpt lat="40.0522" lon="-4.24693">
        <ele>589.8</ele>
        <time>2020-08-16 09:24:22</time>
      </trkpt>
      <trkpt lat="40.05217" lon="-4.24696">
        <ele>590</ele>
        <time>2020-08-16 09:24:23</time>
      </trkpt>
      <trkpt lat="40.05214" lon="-4.247">
        <ele>590.2</ele>
        <time>2020-08-16 09:24:24</time>
      </trkpt>
      <trkpt lat="40.05211" lon="-4.24703">
        <ele>590.2</ele>
        <time>2020-08-16 09:24:25</time>
      </trkpt>
      <trkpt lat="40.05208" lon="-4.24706">
        <ele>590.2</ele>
        <time>2020-08-16 09:24:26</time>
      </trkpt>
      <trkpt lat="40.05205" lon="-4.24709">
        <ele>590.2</ele>
        <time>2020-08-16 09:24:27</time>
      </trkpt>
      <trkpt lat="40.05198" lon="-4.24716">
        <ele>590.2</ele>
        <time>2020-08-16 09:24:29</time>
      </trkpt>
      <trkpt lat="40.05191" lon="-4.24722">
        <ele>590.4</ele>
        <time>2020-08-16 09:24:31</time>
      </trkpt>
      <trkpt lat="40.05177" lon="-4.24737">
        <ele>589.8</ele>
        <time>2020-08-16 09:24:35</time>
      </trkpt>
      <trkpt lat="40.05173" lon="-4.2474">
        <ele>589.8</ele>
        <time>2020-08-16 09:24:36</time>
      </trkpt>
      <trkpt lat="40.05169" lon="-4.24744">
        <ele>589.8</ele>
        <time>2020-08-16 09:24:37</time>
      </trkpt>
      <trkpt lat="40.0515" lon="-4.24762">
        <ele>589.8</ele>
        <time>2020-08-16 09:24:42</time>
      </trkpt>
      <trkpt lat="40.0514" lon="-4.24773">
        <ele>589.6</ele>
        <time>2020-08-16 09:24:45</time>
      </trkpt>
      <trkpt lat="40.05134" lon="-4.24779">
        <ele>589.6</ele>
        <time>2020-08-16 09:24:47</time>
      </trkpt>
      <trkpt lat="40.05131" lon="-4.24782">
        <ele>589.6</ele>
        <time>2020-08-16 09:24:48</time>
      </trkpt>
      <trkpt lat="40.05128" lon="-4.24785">
        <ele>589.6</ele>
        <time>2020-08-16 09:24:49</time>
      </trkpt>
      <trkpt lat="40.05121" lon="-4.24791">
        <ele>589.6</ele>
        <time>2020-08-16 09:24:51</time>
      </trkpt>
      <trkpt lat="40.05118" lon="-4.24794">
        <ele>589.6</ele>
        <time>2020-08-16 09:24:52</time>
      </trkpt>
      <trkpt lat="40.05115" lon="-4.24797">
        <ele>589.6</ele>
        <time>2020-08-16 09:24:53</time>
      </trkpt>
      <trkpt lat="40.05112" lon="-4.248">
        <ele>589.6</ele>
        <time>2020-08-16 09:24:54</time>
      </trkpt>
      <trkpt lat="40.05109" lon="-4.24803">
        <ele>589.6</ele>
        <time>2020-08-16 09:24:55</time>
      </trkpt>
      <trkpt lat="40.05106" lon="-4.24806">
        <ele>589.6</ele>
        <time>2020-08-16 09:24:56</time>
      </trkpt>
      <trkpt lat="40.05102" lon="-4.24809">
        <ele>589.8</ele>
        <time>2020-08-16 09:24:57</time>
      </trkpt>
      <trkpt lat="40.05096" lon="-4.24816">
        <ele>589.8</ele>
        <time>2020-08-16 09:24:59</time>
      </trkpt>
      <trkpt lat="40.05093" lon="-4.24819">
        <ele>589.8</ele>
        <time>2020-08-16 09:25:00</time>
      </trkpt>
      <trkpt lat="40.05073" lon="-4.24838">
        <ele>590</ele>
        <time>2020-08-16 09:25:06</time>
      </trkpt>
      <trkpt lat="40.05069" lon="-4.24841">
        <ele>590</ele>
        <time>2020-08-16 09:25:07</time>
      </trkpt>
      <trkpt lat="40.0506" lon="-4.24851">
        <ele>590.2</ele>
        <time>2020-08-16 09:25:10</time>
      </trkpt>
      <trkpt lat="40.05053" lon="-4.24857">
        <ele>590.4</ele>
        <time>2020-08-16 09:25:12</time>
      </trkpt>
      <trkpt lat="40.0505" lon="-4.2486">
        <ele>590.4</ele>
        <time>2020-08-16 09:25:13</time>
      </trkpt>
      <trkpt lat="40.05047" lon="-4.24863">
        <ele>590.4</ele>
        <time>2020-08-16 09:25:14</time>
      </trkpt>
      <trkpt lat="40.05044" lon="-4.24865">
        <ele>590.4</ele>
        <time>2020-08-16 09:25:15</time>
      </trkpt>
      <trkpt lat="40.05041" lon="-4.24867">
        <ele>590.4</ele>
        <time>2020-08-16 09:25:16</time>
      </trkpt>
      <trkpt lat="40.05038" lon="-4.2487">
        <ele>590.4</ele>
        <time>2020-08-16 09:25:17</time>
      </trkpt>
      <trkpt lat="40.05036" lon="-4.24872">
        <ele>590.4</ele>
        <time>2020-08-16 09:25:18</time>
      </trkpt>
      <trkpt lat="40.05033" lon="-4.24874">
        <ele>590.4</ele>
        <time>2020-08-16 09:25:19</time>
      </trkpt>
      <trkpt lat="40.05028" lon="-4.2488">
        <ele>590.2</ele>
        <time>2020-08-16 09:25:21</time>
      </trkpt>
      <trkpt lat="40.04997" lon="-4.2491">
        <ele>589.8</ele>
        <time>2020-08-16 09:25:30</time>
      </trkpt>
      <trkpt lat="40.04994" lon="-4.24914">
        <ele>590</ele>
        <time>2020-08-16 09:25:31</time>
      </trkpt>
      <trkpt lat="40.0498" lon="-4.24929">
        <ele>590</ele>
        <time>2020-08-16 09:25:35</time>
      </trkpt>
      <trkpt lat="40.04973" lon="-4.24935">
        <ele>590.2</ele>
        <time>2020-08-16 09:25:37</time>
      </trkpt>
      <trkpt lat="40.04963" lon="-4.24945">
        <ele>590.6</ele>
        <time>2020-08-16 09:25:40</time>
      </trkpt>
      <trkpt lat="40.04959" lon="-4.24948">
        <ele>590.6</ele>
        <time>2020-08-16 09:25:41</time>
      </trkpt>
      <trkpt lat="40.04956" lon="-4.24951">
        <ele>590.6</ele>
        <time>2020-08-16 09:25:42</time>
      </trkpt>
      <trkpt lat="40.04952" lon="-4.24955">
        <ele>590.6</ele>
        <time>2020-08-16 09:25:43</time>
      </trkpt>
      <trkpt lat="40.04949" lon="-4.24958">
        <ele>590.6</ele>
        <time>2020-08-16 09:25:44</time>
      </trkpt>
      <trkpt lat="40.04945" lon="-4.24962">
        <ele>590.6</ele>
        <time>2020-08-16 09:25:45</time>
      </trkpt>
      <trkpt lat="40.04938" lon="-4.24969">
        <ele>590.6</ele>
        <time>2020-08-16 09:25:47</time>
      </trkpt>
      <trkpt lat="40.0493" lon="-4.24977">
        <ele>590</ele>
        <time>2020-08-16 09:25:49</time>
      </trkpt>
      <trkpt lat="40.04904" lon="-4.25003">
        <ele>589.2</ele>
        <time>2020-08-16 09:25:55</time>
      </trkpt>
      <trkpt lat="40.04899" lon="-4.25008">
        <ele>589</ele>
        <time>2020-08-16 09:25:56</time>
      </trkpt>
      <trkpt lat="40.04881" lon="-4.25026">
        <ele>587.8</ele>
        <time>2020-08-16 09:26:00</time>
      </trkpt>
      <trkpt lat="40.04877" lon="-4.25031">
        <ele>587.6</ele>
        <time>2020-08-16 09:26:01</time>
      </trkpt>
      <trkpt lat="40.04849" lon="-4.25058">
        <ele>587</ele>
        <time>2020-08-16 09:26:07</time>
      </trkpt>
      <trkpt lat="40.04845" lon="-4.25062">
        <ele>587</ele>
        <time>2020-08-16 09:26:08</time>
      </trkpt>
      <trkpt lat="40.04841" lon="-4.25066">
        <ele>587</ele>
        <time>2020-08-16 09:26:09</time>
      </trkpt>
      <trkpt lat="40.04837" lon="-4.2507">
        <ele>587</ele>
        <time>2020-08-16 09:26:10</time>
      </trkpt>
      <trkpt lat="40.04833" lon="-4.25074">
        <ele>586.6</ele>
        <time>2020-08-16 09:26:11</time>
      </trkpt>
      <trkpt lat="40.04829" lon="-4.25078">
        <ele>586.6</ele>
        <time>2020-08-16 09:26:12</time>
      </trkpt>
      <trkpt lat="40.04824" lon="-4.25082">
        <ele>586</ele>
        <time>2020-08-16 09:26:13</time>
      </trkpt>
      <trkpt lat="40.04821" lon="-4.25085">
        <ele>585.8</ele>
        <time>2020-08-16 09:26:14</time>
      </trkpt>
      <trkpt lat="40.04817" lon="-4.25089">
        <ele>585.6</ele>
        <time>2020-08-16 09:26:15</time>
      </trkpt>
      <trkpt lat="40.04813" lon="-4.25093">
        <ele>585.2</ele>
        <time>2020-08-16 09:26:16</time>
      </trkpt>
      <trkpt lat="40.0481" lon="-4.25096">
        <ele>585.2</ele>
        <time>2020-08-16 09:26:17</time>
      </trkpt>
      <trkpt lat="40.04806" lon="-4.251">
        <ele>585.4</ele>
        <time>2020-08-16 09:26:18</time>
      </trkpt>
      <trkpt lat="40.04802" lon="-4.25103">
        <ele>585.6</ele>
        <time>2020-08-16 09:26:19</time>
      </trkpt>
      <trkpt lat="40.04799" lon="-4.25107">
        <ele>585.6</ele>
        <time>2020-08-16 09:26:20</time>
      </trkpt>
      <trkpt lat="40.04795" lon="-4.2511">
        <ele>585.6</ele>
        <time>2020-08-16 09:26:21</time>
      </trkpt>
      <trkpt lat="40.04791" lon="-4.25114">
        <ele>585.6</ele>
        <time>2020-08-16 09:26:22</time>
      </trkpt>
      <trkpt lat="40.04787" lon="-4.25117">
        <ele>585.6</ele>
        <time>2020-08-16 09:26:23</time>
      </trkpt>
      <trkpt lat="40.04784" lon="-4.25121">
        <ele>585.6</ele>
        <time>2020-08-16 09:26:24</time>
      </trkpt>
      <trkpt lat="40.0478" lon="-4.25125">
        <ele>585.6</ele>
        <time>2020-08-16 09:26:25</time>
      </trkpt>
      <trkpt lat="40.04777" lon="-4.25128">
        <ele>585.6</ele>
        <time>2020-08-16 09:26:26</time>
      </trkpt>
      <trkpt lat="40.04773" lon="-4.25132">
        <ele>585.6</ele>
        <time>2020-08-16 09:26:27</time>
      </trkpt>
      <trkpt lat="40.04769" lon="-4.25135">
        <ele>585.4</ele>
        <time>2020-08-16 09:26:28</time>
      </trkpt>
      <trkpt lat="40.04755" lon="-4.25149">
        <ele>584.8</ele>
        <time>2020-08-16 09:26:32</time>
      </trkpt>
      <trkpt lat="40.04751" lon="-4.25153">
        <ele>584.4</ele>
        <time>2020-08-16 09:26:33</time>
      </trkpt>
      <trkpt lat="40.04747" lon="-4.25156">
        <ele>584.4</ele>
        <time>2020-08-16 09:26:34</time>
      </trkpt>
      <trkpt lat="40.04744" lon="-4.2516">
        <ele>584.2</ele>
        <time>2020-08-16 09:26:35</time>
      </trkpt>
      <trkpt lat="40.0474" lon="-4.25164">
        <ele>584.2</ele>
        <time>2020-08-16 09:26:36</time>
      </trkpt>
      <trkpt lat="40.04736" lon="-4.25168">
        <ele>584</ele>
        <time>2020-08-16 09:26:37</time>
      </trkpt>
      <trkpt lat="40.04733" lon="-4.25171">
        <ele>584</ele>
        <time>2020-08-16 09:26:38</time>
      </trkpt>
      <trkpt lat="40.04714" lon="-4.25189">
        <ele>583.8</ele>
        <time>2020-08-16 09:26:43</time>
      </trkpt>
      <trkpt lat="40.04707" lon="-4.25198">
        <ele>583.2</ele>
        <time>2020-08-16 09:26:45</time>
      </trkpt>
      <trkpt lat="40.04676" lon="-4.2523">
        <ele>582.6</ele>
        <time>2020-08-16 09:26:53</time>
      </trkpt>
      <trkpt lat="40.04668" lon="-4.25238">
        <ele>582</ele>
        <time>2020-08-16 09:26:55</time>
      </trkpt>
      <trkpt lat="40.04664" lon="-4.25242">
        <ele>581.8</ele>
        <time>2020-08-16 09:26:56</time>
      </trkpt>
      <trkpt lat="40.04636" lon="-4.2527">
        <ele>581.2</ele>
        <time>2020-08-16 09:27:03</time>
      </trkpt>
      <trkpt lat="40.04628" lon="-4.25278">
        <ele>580.8</ele>
        <time>2020-08-16 09:27:05</time>
      </trkpt>
      <trkpt lat="40.04623" lon="-4.25282">
        <ele>581</ele>
        <time>2020-08-16 09:27:06</time>
      </trkpt>
      <trkpt lat="40.04615" lon="-4.25291">
        <ele>580.6</ele>
        <time>2020-08-16 09:27:08</time>
      </trkpt>
      <trkpt lat="40.04611" lon="-4.25295">
        <ele>580.6</ele>
        <time>2020-08-16 09:27:09</time>
      </trkpt>
      <trkpt lat="40.04606" lon="-4.253">
        <ele>580.4</ele>
        <time>2020-08-16 09:27:10</time>
      </trkpt>
      <trkpt lat="40.04603" lon="-4.25303">
        <ele>580.4</ele>
        <time>2020-08-16 09:27:11</time>
      </trkpt>
      <trkpt lat="40.04599" lon="-4.25307">
        <ele>580.4</ele>
        <time>2020-08-16 09:27:12</time>
      </trkpt>
      <trkpt lat="40.04595" lon="-4.25311">
        <ele>580.4</ele>
        <time>2020-08-16 09:27:13</time>
      </trkpt>
      <trkpt lat="40.04591" lon="-4.25315">
        <ele>580.4</ele>
        <time>2020-08-16 09:27:14</time>
      </trkpt>
      <trkpt lat="40.04588" lon="-4.25319">
        <ele>580.4</ele>
        <time>2020-08-16 09:27:15</time>
      </trkpt>
      <trkpt lat="40.04584" lon="-4.25323">
        <ele>580.4</ele>
        <time>2020-08-16 09:27:16</time>
      </trkpt>
      <trkpt lat="40.0458" lon="-4.25327">
        <ele>580.4</ele>
        <time>2020-08-16 09:27:17</time>
      </trkpt>
      <trkpt lat="40.04577" lon="-4.25332">
        <ele>580.4</ele>
        <time>2020-08-16 09:27:18</time>
      </trkpt>
      <trkpt lat="40.04573" lon="-4.25336">
        <ele>580.4</ele>
        <time>2020-08-16 09:27:19</time>
      </trkpt>
      <trkpt lat="40.04569" lon="-4.2534">
        <ele>580.4</ele>
        <time>2020-08-16 09:27:20</time>
      </trkpt>
      <trkpt lat="40.04565" lon="-4.25344">
        <ele>580.2</ele>
        <time>2020-08-16 09:27:21</time>
      </trkpt>
      <trkpt lat="40.04561" lon="-4.25349">
        <ele>580.2</ele>
        <time>2020-08-16 09:27:22</time>
      </trkpt>
      <trkpt lat="40.04552" lon="-4.25357">
        <ele>579.8</ele>
        <time>2020-08-16 09:27:24</time>
      </trkpt>
      <trkpt lat="40.04544" lon="-4.25365">
        <ele>579.6</ele>
        <time>2020-08-16 09:27:26</time>
      </trkpt>
      <trkpt lat="40.0451" lon="-4.25399">
        <ele>578.8</ele>
        <time>2020-08-16 09:27:33</time>
      </trkpt>
      <trkpt lat="40.04505" lon="-4.25404">
        <ele>578.4</ele>
        <time>2020-08-16 09:27:34</time>
      </trkpt>
      <trkpt lat="40.045" lon="-4.25409">
        <ele>578.4</ele>
        <time>2020-08-16 09:27:35</time>
      </trkpt>
      <trkpt lat="40.04494" lon="-4.25414">
        <ele>578</ele>
        <time>2020-08-16 09:27:36</time>
      </trkpt>
      <trkpt lat="40.04489" lon="-4.25419">
        <ele>577.6</ele>
        <time>2020-08-16 09:27:37</time>
      </trkpt>
      <trkpt lat="40.04466" lon="-4.2544">
        <ele>576.8</ele>
        <time>2020-08-16 09:27:41</time>
      </trkpt>
      <trkpt lat="40.04449" lon="-4.25455">
        <ele>576.2</ele>
        <time>2020-08-16 09:27:44</time>
      </trkpt>
      <trkpt lat="40.04428" lon="-4.25476">
        <ele>575.4</ele>
        <time>2020-08-16 09:27:48</time>
      </trkpt>
      <trkpt lat="40.04422" lon="-4.25481">
        <ele>575.4</ele>
        <time>2020-08-16 09:27:49</time>
      </trkpt>
      <trkpt lat="40.04417" lon="-4.25485">
        <ele>575.2</ele>
        <time>2020-08-16 09:27:50</time>
      </trkpt>
      <trkpt lat="40.04411" lon="-4.25489">
        <ele>574.8</ele>
        <time>2020-08-16 09:27:51</time>
      </trkpt>
      <trkpt lat="40.04406" lon="-4.25493">
        <ele>574.8</ele>
        <time>2020-08-16 09:27:52</time>
      </trkpt>
      <trkpt lat="40.04402" lon="-4.25498">
        <ele>574.6</ele>
        <time>2020-08-16 09:27:53</time>
      </trkpt>
      <trkpt lat="40.04397" lon="-4.25503">
        <ele>574.6</ele>
        <time>2020-08-16 09:27:54</time>
      </trkpt>
      <trkpt lat="40.04393" lon="-4.25508">
        <ele>574.2</ele>
        <time>2020-08-16 09:27:55</time>
      </trkpt>
      <trkpt lat="40.0439" lon="-4.25513">
        <ele>574.2</ele>
        <time>2020-08-16 09:27:56</time>
      </trkpt>
      <trkpt lat="40.04386" lon="-4.25518">
        <ele>574</ele>
        <time>2020-08-16 09:27:57</time>
      </trkpt>
      <trkpt lat="40.04378" lon="-4.25527">
        <ele>574</ele>
        <time>2020-08-16 09:27:59</time>
      </trkpt>
      <trkpt lat="40.04374" lon="-4.25531">
        <ele>574</ele>
        <time>2020-08-16 09:28:00</time>
      </trkpt>
      <trkpt lat="40.0437" lon="-4.25535">
        <ele>574</ele>
        <time>2020-08-16 09:28:01</time>
      </trkpt>
      <trkpt lat="40.04366" lon="-4.25539">
        <ele>574</ele>
        <time>2020-08-16 09:28:02</time>
      </trkpt>
      <trkpt lat="40.04362" lon="-4.25543">
        <ele>574</ele>
        <time>2020-08-16 09:28:03</time>
      </trkpt>
      <trkpt lat="40.04357" lon="-4.25546">
        <ele>574</ele>
        <time>2020-08-16 09:28:04</time>
      </trkpt>
      <trkpt lat="40.04353" lon="-4.2555">
        <ele>574</ele>
        <time>2020-08-16 09:28:05</time>
      </trkpt>
      <trkpt lat="40.04349" lon="-4.25554">
        <ele>574</ele>
        <time>2020-08-16 09:28:06</time>
      </trkpt>
      <trkpt lat="40.04345" lon="-4.25558">
        <ele>574</ele>
        <time>2020-08-16 09:28:07</time>
      </trkpt>
      <trkpt lat="40.04342" lon="-4.25562">
        <ele>574.2</ele>
        <time>2020-08-16 09:28:08</time>
      </trkpt>
      <trkpt lat="40.04338" lon="-4.25566">
        <ele>574.2</ele>
        <time>2020-08-16 09:28:09</time>
      </trkpt>
      <trkpt lat="40.04335" lon="-4.25569">
        <ele>574.4</ele>
        <time>2020-08-16 09:28:10</time>
      </trkpt>
      <trkpt lat="40.04332" lon="-4.25572">
        <ele>574.4</ele>
        <time>2020-08-16 09:28:11</time>
      </trkpt>
      <trkpt lat="40.04328" lon="-4.25575">
        <ele>574.6</ele>
        <time>2020-08-16 09:28:12</time>
      </trkpt>
      <trkpt lat="40.04325" lon="-4.25578">
        <ele>574.6</ele>
        <time>2020-08-16 09:28:13</time>
      </trkpt>
      <trkpt lat="40.04322" lon="-4.25582">
        <ele>574.8</ele>
        <time>2020-08-16 09:28:14</time>
      </trkpt>
      <trkpt lat="40.0432" lon="-4.25585">
        <ele>575</ele>
        <time>2020-08-16 09:28:15</time>
      </trkpt>
      <trkpt lat="40.04317" lon="-4.25588">
        <ele>575.2</ele>
        <time>2020-08-16 09:28:16</time>
      </trkpt>
      <trkpt lat="40.04314" lon="-4.25591">
        <ele>575.2</ele>
        <time>2020-08-16 09:28:17</time>
      </trkpt>
      <trkpt lat="40.04311" lon="-4.25593">
        <ele>575.4</ele>
        <time>2020-08-16 09:28:18</time>
      </trkpt>
      <trkpt lat="40.04308" lon="-4.25597">
        <ele>575.6</ele>
        <time>2020-08-16 09:28:19</time>
      </trkpt>
      <trkpt lat="40.04304" lon="-4.25599">
        <ele>575.8</ele>
        <time>2020-08-16 09:28:20</time>
      </trkpt>
      <trkpt lat="40.04301" lon="-4.25602">
        <ele>575.8</ele>
        <time>2020-08-16 09:28:21</time>
      </trkpt>
      <trkpt lat="40.04299" lon="-4.25605">
        <ele>576</ele>
        <time>2020-08-16 09:28:22</time>
      </trkpt>
      <trkpt lat="40.04296" lon="-4.25608">
        <ele>576.2</ele>
        <time>2020-08-16 09:28:23</time>
      </trkpt>
      <trkpt lat="40.04293" lon="-4.25611">
        <ele>576.4</ele>
        <time>2020-08-16 09:28:24</time>
      </trkpt>
      <trkpt lat="40.04289" lon="-4.25613">
        <ele>576.4</ele>
        <time>2020-08-16 09:28:25</time>
      </trkpt>
      <trkpt lat="40.04287" lon="-4.25616">
        <ele>576.6</ele>
        <time>2020-08-16 09:28:26</time>
      </trkpt>
      <trkpt lat="40.04284" lon="-4.25619">
        <ele>576.6</ele>
        <time>2020-08-16 09:28:27</time>
      </trkpt>
      <trkpt lat="40.04281" lon="-4.25622">
        <ele>576.8</ele>
        <time>2020-08-16 09:28:28</time>
      </trkpt>
      <trkpt lat="40.04278" lon="-4.25624">
        <ele>577.2</ele>
        <time>2020-08-16 09:28:29</time>
      </trkpt>
      <trkpt lat="40.04276" lon="-4.25627">
        <ele>577.2</ele>
        <time>2020-08-16 09:28:30</time>
      </trkpt>
      <trkpt lat="40.04273" lon="-4.2563">
        <ele>577.4</ele>
        <time>2020-08-16 09:28:31</time>
      </trkpt>
      <trkpt lat="40.0427" lon="-4.25632">
        <ele>577.6</ele>
        <time>2020-08-16 09:28:32</time>
      </trkpt>
      <trkpt lat="40.04268" lon="-4.25635">
        <ele>577.6</ele>
        <time>2020-08-16 09:28:33</time>
      </trkpt>
      <trkpt lat="40.04265" lon="-4.25638">
        <ele>577.8</ele>
        <time>2020-08-16 09:28:34</time>
      </trkpt>
      <trkpt lat="40.04263" lon="-4.2564">
        <ele>578</ele>
        <time>2020-08-16 09:28:35</time>
      </trkpt>
      <trkpt lat="40.0426" lon="-4.25642">
        <ele>578.2</ele>
        <time>2020-08-16 09:28:36</time>
      </trkpt>
      <trkpt lat="40.04257" lon="-4.25644">
        <ele>578.2</ele>
        <time>2020-08-16 09:28:37</time>
      </trkpt>
      <trkpt lat="40.04254" lon="-4.25647">
        <ele>578.4</ele>
        <time>2020-08-16 09:28:38</time>
      </trkpt>
      <trkpt lat="40.04252" lon="-4.2565">
        <ele>578.6</ele>
        <time>2020-08-16 09:28:39</time>
      </trkpt>
      <trkpt lat="40.04249" lon="-4.25653">
        <ele>578.6</ele>
        <time>2020-08-16 09:28:40</time>
      </trkpt>
      <trkpt lat="40.04246" lon="-4.25655">
        <ele>578.8</ele>
        <time>2020-08-16 09:28:41</time>
      </trkpt>
      <trkpt lat="40.04243" lon="-4.25658">
        <ele>579.4</ele>
        <time>2020-08-16 09:28:42</time>
      </trkpt>
      <trkpt lat="40.0424" lon="-4.2566">
        <ele>579.8</ele>
        <time>2020-08-16 09:28:43</time>
      </trkpt>
      <trkpt lat="40.04237" lon="-4.25663">
        <ele>580</ele>
        <time>2020-08-16 09:28:44</time>
      </trkpt>
      <trkpt lat="40.04234" lon="-4.25665">
        <ele>580</ele>
        <time>2020-08-16 09:28:45</time>
      </trkpt>
      <trkpt lat="40.04231" lon="-4.25668">
        <ele>580</ele>
        <time>2020-08-16 09:28:46</time>
      </trkpt>
      <trkpt lat="40.04229" lon="-4.2567">
        <ele>580.2</ele>
        <time>2020-08-16 09:28:47</time>
      </trkpt>
      <trkpt lat="40.04226" lon="-4.25673">
        <ele>580.6</ele>
        <time>2020-08-16 09:28:48</time>
      </trkpt>
      <trkpt lat="40.04223" lon="-4.25676">
        <ele>580.6</ele>
        <time>2020-08-16 09:28:49</time>
      </trkpt>
      <trkpt lat="40.0422" lon="-4.25679">
        <ele>580.8</ele>
        <time>2020-08-16 09:28:50</time>
      </trkpt>
      <trkpt lat="40.04217" lon="-4.25682">
        <ele>580.8</ele>
        <time>2020-08-16 09:28:51</time>
      </trkpt>
      <trkpt lat="40.04214" lon="-4.25684">
        <ele>580.8</ele>
        <time>2020-08-16 09:28:52</time>
      </trkpt>
      <trkpt lat="40.04211" lon="-4.25686">
        <ele>580.8</ele>
        <time>2020-08-16 09:28:53</time>
      </trkpt>
      <trkpt lat="40.04208" lon="-4.25689">
        <ele>580.8</ele>
        <time>2020-08-16 09:28:54</time>
      </trkpt>
      <trkpt lat="40.04203" lon="-4.25694">
        <ele>581</ele>
        <time>2020-08-16 09:28:56</time>
      </trkpt>
      <trkpt lat="40.04192" lon="-4.25706">
        <ele>581</ele>
        <time>2020-08-16 09:29:00</time>
      </trkpt>
      <trkpt lat="40.04189" lon="-4.25709">
        <ele>581.2</ele>
        <time>2020-08-16 09:29:01</time>
      </trkpt>
      <trkpt lat="40.04185" lon="-4.25715">
        <ele>581.2</ele>
        <time>2020-08-16 09:29:03</time>
      </trkpt>
      <trkpt lat="40.04182" lon="-4.25717">
        <ele>581.2</ele>
        <time>2020-08-16 09:29:04</time>
      </trkpt>
      <trkpt lat="40.0418" lon="-4.2572">
        <ele>581.4</ele>
        <time>2020-08-16 09:29:05</time>
      </trkpt>
      <trkpt lat="40.04177" lon="-4.25722">
        <ele>581.4</ele>
        <time>2020-08-16 09:29:06</time>
      </trkpt>
      <trkpt lat="40.04175" lon="-4.25724">
        <ele>581.4</ele>
        <time>2020-08-16 09:29:07</time>
      </trkpt>
      <trkpt lat="40.04172" lon="-4.25726">
        <ele>581.4</ele>
        <time>2020-08-16 09:29:08</time>
      </trkpt>
      <trkpt lat="40.0417" lon="-4.25728">
        <ele>581.4</ele>
        <time>2020-08-16 09:29:09</time>
      </trkpt>
      <trkpt lat="40.04168" lon="-4.2573">
        <ele>581.4</ele>
        <time>2020-08-16 09:29:10</time>
      </trkpt>
      <trkpt lat="40.04166" lon="-4.25732">
        <ele>581.4</ele>
        <time>2020-08-16 09:29:11</time>
      </trkpt>
      <trkpt lat="40.04164" lon="-4.25734">
        <ele>581.4</ele>
        <time>2020-08-16 09:29:12</time>
      </trkpt>
      <trkpt lat="40.04162" lon="-4.25736">
        <ele>581.4</ele>
        <time>2020-08-16 09:29:13</time>
      </trkpt>
      <trkpt lat="40.0416" lon="-4.25738">
        <ele>581.4</ele>
        <time>2020-08-16 09:29:14</time>
      </trkpt>
      <trkpt lat="40.04158" lon="-4.25741">
        <ele>581.4</ele>
        <time>2020-08-16 09:29:15</time>
      </trkpt>
      <trkpt lat="40.04156" lon="-4.25743">
        <ele>581.4</ele>
        <time>2020-08-16 09:29:16</time>
      </trkpt>
      <trkpt lat="40.04153" lon="-4.25745">
        <ele>581.4</ele>
        <time>2020-08-16 09:29:17</time>
      </trkpt>
      <trkpt lat="40.0415" lon="-4.25747">
        <ele>581.4</ele>
        <time>2020-08-16 09:29:18</time>
      </trkpt>
      <trkpt lat="40.04148" lon="-4.25749">
        <ele>581.4</ele>
        <time>2020-08-16 09:29:19</time>
      </trkpt>
      <trkpt lat="40.04145" lon="-4.25752">
        <ele>581.2</ele>
        <time>2020-08-16 09:29:20</time>
      </trkpt>
      <trkpt lat="40.04137" lon="-4.25761">
        <ele>581</ele>
        <time>2020-08-16 09:29:23</time>
      </trkpt>
      <trkpt lat="40.04131" lon="-4.25766">
        <ele>580.8</ele>
        <time>2020-08-16 09:29:25</time>
      </trkpt>
      <trkpt lat="40.04128" lon="-4.2577">
        <ele>580.8</ele>
        <time>2020-08-16 09:29:26</time>
      </trkpt>
      <trkpt lat="40.04125" lon="-4.25773">
        <ele>580.4</ele>
        <time>2020-08-16 09:29:27</time>
      </trkpt>
      <trkpt lat="40.04118" lon="-4.25779">
        <ele>580</ele>
        <time>2020-08-16 09:29:29</time>
      </trkpt>
      <trkpt lat="40.04115" lon="-4.25783">
        <ele>579.8</ele>
        <time>2020-08-16 09:29:30</time>
      </trkpt>
      <trkpt lat="40.04099" lon="-4.25799">
        <ele>579.4</ele>
        <time>2020-08-16 09:29:35</time>
      </trkpt>
      <trkpt lat="40.04092" lon="-4.25806">
        <ele>579.4</ele>
        <time>2020-08-16 09:29:37</time>
      </trkpt>
      <trkpt lat="40.04086" lon="-4.25813">
        <ele>579.2</ele>
        <time>2020-08-16 09:29:39</time>
      </trkpt>
      <trkpt lat="40.04075" lon="-4.25825">
        <ele>579</ele>
        <time>2020-08-16 09:29:42</time>
      </trkpt>
      <trkpt lat="40.04068" lon="-4.25832">
        <ele>578.2</ele>
        <time>2020-08-16 09:29:44</time>
      </trkpt>
      <trkpt lat="40.0406" lon="-4.2584">
        <ele>577.6</ele>
        <time>2020-08-16 09:29:46</time>
      </trkpt>
      <trkpt lat="40.04048" lon="-4.25853">
        <ele>577.2</ele>
        <time>2020-08-16 09:29:49</time>
      </trkpt>
      <trkpt lat="40.04036" lon="-4.25866">
        <ele>577.2</ele>
        <time>2020-08-16 09:29:52</time>
      </trkpt>
      <trkpt lat="40.04023" lon="-4.25878">
        <ele>577</ele>
        <time>2020-08-16 09:29:55</time>
      </trkpt>
      <trkpt lat="40.04006" lon="-4.25895">
        <ele>576.2</ele>
        <time>2020-08-16 09:29:59</time>
      </trkpt>
      <trkpt lat="40.03989" lon="-4.25912">
        <ele>575.6</ele>
        <time>2020-08-16 09:30:03</time>
      </trkpt>
      <trkpt lat="40.03984" lon="-4.25916">
        <ele>575.6</ele>
        <time>2020-08-16 09:30:04</time>
      </trkpt>
      <trkpt lat="40.0398" lon="-4.2592">
        <ele>575.6</ele>
        <time>2020-08-16 09:30:05</time>
      </trkpt>
      <trkpt lat="40.03976" lon="-4.25924">
        <ele>575.4</ele>
        <time>2020-08-16 09:30:06</time>
      </trkpt>
      <trkpt lat="40.03972" lon="-4.25928">
        <ele>575.4</ele>
        <time>2020-08-16 09:30:07</time>
      </trkpt>
      <trkpt lat="40.03968" lon="-4.25933">
        <ele>575.4</ele>
        <time>2020-08-16 09:30:08</time>
      </trkpt>
      <trkpt lat="40.03965" lon="-4.25937">
        <ele>575.4</ele>
        <time>2020-08-16 09:30:09</time>
      </trkpt>
      <trkpt lat="40.03961" lon="-4.25941">
        <ele>575.2</ele>
        <time>2020-08-16 09:30:10</time>
      </trkpt>
      <trkpt lat="40.03957" lon="-4.25945">
        <ele>575</ele>
        <time>2020-08-16 09:30:11</time>
      </trkpt>
      <trkpt lat="40.03953" lon="-4.25949">
        <ele>575</ele>
        <time>2020-08-16 09:30:12</time>
      </trkpt>
      <trkpt lat="40.03949" lon="-4.25953">
        <ele>575</ele>
        <time>2020-08-16 09:30:13</time>
      </trkpt>
      <trkpt lat="40.03945" lon="-4.25957">
        <ele>575</ele>
        <time>2020-08-16 09:30:14</time>
      </trkpt>
      <trkpt lat="40.03942" lon="-4.25961">
        <ele>575</ele>
        <time>2020-08-16 09:30:15</time>
      </trkpt>
      <trkpt lat="40.03938" lon="-4.25964">
        <ele>574.8</ele>
        <time>2020-08-16 09:30:16</time>
      </trkpt>
      <trkpt lat="40.03934" lon="-4.25968">
        <ele>574.8</ele>
        <time>2020-08-16 09:30:17</time>
      </trkpt>
      <trkpt lat="40.0393" lon="-4.25973">
        <ele>574.8</ele>
        <time>2020-08-16 09:30:18</time>
      </trkpt>
      <trkpt lat="40.03926" lon="-4.25976">
        <ele>574.6</ele>
        <time>2020-08-16 09:30:19</time>
      </trkpt>
      <trkpt lat="40.03923" lon="-4.2598">
        <ele>574.4</ele>
        <time>2020-08-16 09:30:20</time>
      </trkpt>
      <trkpt lat="40.03919" lon="-4.25984">
        <ele>574.4</ele>
        <time>2020-08-16 09:30:21</time>
      </trkpt>
      <trkpt lat="40.03915" lon="-4.25988">
        <ele>574.4</ele>
        <time>2020-08-16 09:30:22</time>
      </trkpt>
      <trkpt lat="40.03911" lon="-4.25993">
        <ele>574.4</ele>
        <time>2020-08-16 09:30:23</time>
      </trkpt>
      <trkpt lat="40.03902" lon="-4.26002">
        <ele>574</ele>
        <time>2020-08-16 09:30:25</time>
      </trkpt>
      <trkpt lat="40.03889" lon="-4.26016">
        <ele>573.6</ele>
        <time>2020-08-16 09:30:28</time>
      </trkpt>
      <trkpt lat="40.03884" lon="-4.2602">
        <ele>573.4</ele>
        <time>2020-08-16 09:30:29</time>
      </trkpt>
      <trkpt lat="40.03875" lon="-4.26028">
        <ele>573</ele>
        <time>2020-08-16 09:30:31</time>
      </trkpt>
      <trkpt lat="40.03858" lon="-4.26045">
        <ele>572.8</ele>
        <time>2020-08-16 09:30:35</time>
      </trkpt>
      <trkpt lat="40.03853" lon="-4.26049">
        <ele>572.8</ele>
        <time>2020-08-16 09:30:36</time>
      </trkpt>
      <trkpt lat="40.03848" lon="-4.26053">
        <ele>572.6</ele>
        <time>2020-08-16 09:30:37</time>
      </trkpt>
      <trkpt lat="40.03843" lon="-4.26057">
        <ele>572.6</ele>
        <time>2020-08-16 09:30:38</time>
      </trkpt>
      <trkpt lat="40.03839" lon="-4.26062">
        <ele>572.6</ele>
        <time>2020-08-16 09:30:39</time>
      </trkpt>
      <trkpt lat="40.03834" lon="-4.26066">
        <ele>572.6</ele>
        <time>2020-08-16 09:30:40</time>
      </trkpt>
      <trkpt lat="40.0383" lon="-4.26071">
        <ele>572.6</ele>
        <time>2020-08-16 09:30:41</time>
      </trkpt>
      <trkpt lat="40.03819" lon="-4.26085">
        <ele>572.4</ele>
        <time>2020-08-16 09:30:44</time>
      </trkpt>
      <trkpt lat="40.03818" lon="-4.26088">
        <ele>572.2</ele>
        <time>2020-08-16 09:30:45</time>
      </trkpt>
      <trkpt lat="40.03819" lon="-4.26091">
        <ele>572.2</ele>
        <time>2020-08-16 09:30:46</time>
      </trkpt>
      <trkpt lat="40.0382" lon="-4.26093">
        <ele>572.2</ele>
        <time>2020-08-16 09:30:47</time>
      </trkpt>
      <trkpt lat="40.03822" lon="-4.26095">
        <ele>572</ele>
        <time>2020-08-16 09:30:48</time>
      </trkpt>
      <trkpt lat="40.03824" lon="-4.26096">
        <ele>571.8</ele>
        <time>2020-08-16 09:30:49</time>
      </trkpt>
      <trkpt lat="40.03829" lon="-4.26101">
        <ele>571.8</ele>
        <time>2020-08-16 09:30:51</time>
      </trkpt>
      <trkpt lat="40.03833" lon="-4.26106">
        <ele>571.8</ele>
        <time>2020-08-16 09:30:53</time>
      </trkpt>
      <trkpt lat="40.03835" lon="-4.26108">
        <ele>571.8</ele>
        <time>2020-08-16 09:30:54</time>
      </trkpt>
      <trkpt lat="40.03842" lon="-4.26116">
        <ele>571.8</ele>
        <time>2020-08-16 09:30:57</time>
      </trkpt>
      <trkpt lat="40.03856" lon="-4.26132">
        <ele>571.8</ele>
        <time>2020-08-16 09:31:03</time>
      </trkpt>
      <trkpt lat="40.03857" lon="-4.26134">
        <ele>571.8</ele>
        <time>2020-08-16 09:31:04</time>
      </trkpt>
      <trkpt lat="40.03859" lon="-4.26136">
        <ele>572</ele>
        <time>2020-08-16 09:31:05</time>
      </trkpt>
      <trkpt lat="40.0386" lon="-4.26139">
        <ele>572</ele>
        <time>2020-08-16 09:31:06</time>
      </trkpt>
      <trkpt lat="40.03861" lon="-4.2614">
        <ele>572</ele>
        <time>2020-08-16 09:31:07</time>
      </trkpt>
      <trkpt lat="40.03863" lon="-4.26142">
        <ele>572</ele>
        <time>2020-08-16 09:31:08</time>
      </trkpt>
      <trkpt lat="40.03864" lon="-4.26143">
        <ele>572</ele>
        <time>2020-08-16 09:31:09</time>
      </trkpt>
      <trkpt lat="40.03865" lon="-4.26145">
        <ele>572</ele>
        <time>2020-08-16 09:31:10</time>
      </trkpt>
      <trkpt lat="40.03865" lon="-4.26145">
        <ele>572</ele>
        <time>2020-08-16 09:31:11</time>
      </trkpt>
      <trkpt lat="40.03865" lon="-4.26145">
        <ele>572</ele>
        <time>2020-08-16 09:31:13</time>
      </trkpt>
      <trkpt lat="40.03862" lon="-4.26143">
        <ele>571.8</ele>
        <time>2020-08-16 09:33:10</time>
      </trkpt>
      <trkpt lat="40.03856" lon="-4.26135">
        <ele>572</ele>
        <time>2020-08-16 09:33:13</time>
      </trkpt>
      <trkpt lat="40.03849" lon="-4.26126">
        <ele>572</ele>
        <time>2020-08-16 09:33:16</time>
      </trkpt>
      <trkpt lat="40.03847" lon="-4.26122">
        <ele>572</ele>
        <time>2020-08-16 09:33:17</time>
      </trkpt>
      <trkpt lat="40.03845" lon="-4.26119">
        <ele>572</ele>
        <time>2020-08-16 09:33:18</time>
      </trkpt>
      <trkpt lat="40.03844" lon="-4.26116">
        <ele>572</ele>
        <time>2020-08-16 09:33:19</time>
      </trkpt>
      <trkpt lat="40.03843" lon="-4.26114">
        <ele>572</ele>
        <time>2020-08-16 09:33:20</time>
      </trkpt>
      <trkpt lat="40.03842" lon="-4.26114">
        <ele>572</ele>
        <time>2020-08-16 09:33:21</time>
      </trkpt>
      <trkpt lat="40.03841" lon="-4.26113">
        <ele>572</ele>
        <time>2020-08-16 09:33:22</time>
      </trkpt>
      <trkpt lat="40.03841" lon="-4.26113">
        <ele>572</ele>
        <time>2020-08-16 09:33:23</time>
      </trkpt>
      <trkpt lat="40.03839" lon="-4.26111">
        <ele>571.8</ele>
        <time>2020-08-16 09:33:51</time>
      </trkpt>
      <trkpt lat="40.03838" lon="-4.26109">
        <ele>571.8</ele>
        <time>2020-08-16 09:33:52</time>
      </trkpt>
      <trkpt lat="40.03836" lon="-4.26108">
        <ele>571.8</ele>
        <time>2020-08-16 09:33:53</time>
      </trkpt>
      <trkpt lat="40.03835" lon="-4.26106">
        <ele>571.8</ele>
        <time>2020-08-16 09:33:54</time>
      </trkpt>
      <trkpt lat="40.03833" lon="-4.26104">
        <ele>571.8</ele>
        <time>2020-08-16 09:33:55</time>
      </trkpt>
      <trkpt lat="40.03826" lon="-4.26095">
        <ele>571.8</ele>
        <time>2020-08-16 09:33:59</time>
      </trkpt>
      <trkpt lat="40.03825" lon="-4.26094">
        <ele>571.8</ele>
        <time>2020-08-16 09:34:00</time>
      </trkpt>
      <trkpt lat="40.03821" lon="-4.26091">
        <ele>571.8</ele>
        <time>2020-08-16 09:34:02</time>
      </trkpt>
      <trkpt lat="40.03819" lon="-4.26091">
        <ele>571.8</ele>
        <time>2020-08-16 09:34:03</time>
      </trkpt>
      <trkpt lat="40.03818" lon="-4.2609">
        <ele>571.8</ele>
        <time>2020-08-16 09:34:04</time>
      </trkpt>
      <trkpt lat="40.03816" lon="-4.26091">
        <ele>571.6</ele>
        <time>2020-08-16 09:34:05</time>
      </trkpt>
      <trkpt lat="40.03816" lon="-4.26091">
        <ele>571.4</ele>
        <time>2020-08-16 09:34:06</time>
      </trkpt>
      <trkpt lat="40.03816" lon="-4.26091">
        <ele>571.4</ele>
        <time>2020-08-16 09:34:08</time>
      </trkpt>
      <trkpt lat="40.03814" lon="-4.26091">
        <ele>570.8</ele>
        <time>2020-08-16 09:34:30</time>
      </trkpt>
      <trkpt lat="40.03812" lon="-4.26092">
        <ele>570.8</ele>
        <time>2020-08-16 09:34:31</time>
      </trkpt>
      <trkpt lat="40.03809" lon="-4.26093">
        <ele>570.8</ele>
        <time>2020-08-16 09:34:32</time>
      </trkpt>
      <trkpt lat="40.03807" lon="-4.26095">
        <ele>570.8</ele>
        <time>2020-08-16 09:34:33</time>
      </trkpt>
      <trkpt lat="40.03796" lon="-4.26105">
        <ele>570.6</ele>
        <time>2020-08-16 09:34:37</time>
      </trkpt>
      <trkpt lat="40.03794" lon="-4.26107">
        <ele>570.6</ele>
        <time>2020-08-16 09:34:38</time>
      </trkpt>
      <trkpt lat="40.03791" lon="-4.2611">
        <ele>570.6</ele>
        <time>2020-08-16 09:34:39</time>
      </trkpt>
      <trkpt lat="40.03779" lon="-4.26122">
        <ele>570.8</ele>
        <time>2020-08-16 09:34:43</time>
      </trkpt>
      <trkpt lat="40.03769" lon="-4.26132">
        <ele>570.8</ele>
        <time>2020-08-16 09:34:46</time>
      </trkpt>
      <trkpt lat="40.03753" lon="-4.26148">
        <ele>571.2</ele>
        <time>2020-08-16 09:34:50</time>
      </trkpt>
      <trkpt lat="40.03749" lon="-4.26152">
        <ele>571.2</ele>
        <time>2020-08-16 09:34:51</time>
      </trkpt>
      <trkpt lat="40.03745" lon="-4.26155">
        <ele>571.2</ele>
        <time>2020-08-16 09:34:52</time>
      </trkpt>
      <trkpt lat="40.03729" lon="-4.26171">
        <ele>571.2</ele>
        <time>2020-08-16 09:34:56</time>
      </trkpt>
      <trkpt lat="40.0372" lon="-4.2618">
        <ele>571.2</ele>
        <time>2020-08-16 09:34:58</time>
      </trkpt>
      <trkpt lat="40.03702" lon="-4.26197">
        <ele>571.4</ele>
        <time>2020-08-16 09:35:02</time>
      </trkpt>
      <trkpt lat="40.03679" lon="-4.26221">
        <ele>571.2</ele>
        <time>2020-08-16 09:35:07</time>
      </trkpt>
      <trkpt lat="40.03674" lon="-4.26226">
        <ele>571</ele>
        <time>2020-08-16 09:35:08</time>
      </trkpt>
      <trkpt lat="40.0366" lon="-4.26239">
        <ele>570.4</ele>
        <time>2020-08-16 09:35:11</time>
      </trkpt>
      <trkpt lat="40.03646" lon="-4.26252">
        <ele>570.4</ele>
        <time>2020-08-16 09:35:14</time>
      </trkpt>
      <trkpt lat="40.03642" lon="-4.26257">
        <ele>570.4</ele>
        <time>2020-08-16 09:35:15</time>
      </trkpt>
      <trkpt lat="40.03637" lon="-4.26261">
        <ele>570.4</ele>
        <time>2020-08-16 09:35:16</time>
      </trkpt>
      <trkpt lat="40.03633" lon="-4.26265">
        <ele>570.4</ele>
        <time>2020-08-16 09:35:17</time>
      </trkpt>
      <trkpt lat="40.03629" lon="-4.26269">
        <ele>570.4</ele>
        <time>2020-08-16 09:35:18</time>
      </trkpt>
      <trkpt lat="40.03625" lon="-4.26273">
        <ele>570.4</ele>
        <time>2020-08-16 09:35:19</time>
      </trkpt>
      <trkpt lat="40.0362" lon="-4.26278">
        <ele>570.4</ele>
        <time>2020-08-16 09:35:20</time>
      </trkpt>
      <trkpt lat="40.03616" lon="-4.26282">
        <ele>570.6</ele>
        <time>2020-08-16 09:35:21</time>
      </trkpt>
      <trkpt lat="40.03611" lon="-4.26286">
        <ele>570.6</ele>
        <time>2020-08-16 09:35:22</time>
      </trkpt>
      <trkpt lat="40.03607" lon="-4.2629">
        <ele>570.6</ele>
        <time>2020-08-16 09:35:23</time>
      </trkpt>
      <trkpt lat="40.03603" lon="-4.26295">
        <ele>570.6</ele>
        <time>2020-08-16 09:35:24</time>
      </trkpt>
      <trkpt lat="40.03599" lon="-4.26299">
        <ele>570.8</ele>
        <time>2020-08-16 09:35:25</time>
      </trkpt>
      <trkpt lat="40.03594" lon="-4.26303">
        <ele>570.8</ele>
        <time>2020-08-16 09:35:26</time>
      </trkpt>
      <trkpt lat="40.0359" lon="-4.26308">
        <ele>571</ele>
        <time>2020-08-16 09:35:27</time>
      </trkpt>
      <trkpt lat="40.03586" lon="-4.26312">
        <ele>571.2</ele>
        <time>2020-08-16 09:35:28</time>
      </trkpt>
      <trkpt lat="40.03581" lon="-4.26316">
        <ele>571.4</ele>
        <time>2020-08-16 09:35:29</time>
      </trkpt>
      <trkpt lat="40.03577" lon="-4.2632">
        <ele>571.4</ele>
        <time>2020-08-16 09:35:30</time>
      </trkpt>
      <trkpt lat="40.03573" lon="-4.26324">
        <ele>571.6</ele>
        <time>2020-08-16 09:35:31</time>
      </trkpt>
      <trkpt lat="40.03569" lon="-4.26328">
        <ele>571.8</ele>
        <time>2020-08-16 09:35:32</time>
      </trkpt>
      <trkpt lat="40.03565" lon="-4.26332">
        <ele>571.8</ele>
        <time>2020-08-16 09:35:33</time>
      </trkpt>
      <trkpt lat="40.0356" lon="-4.26336">
        <ele>572</ele>
        <time>2020-08-16 09:35:34</time>
      </trkpt>
      <trkpt lat="40.03556" lon="-4.2634">
        <ele>572</ele>
        <time>2020-08-16 09:35:35</time>
      </trkpt>
      <trkpt lat="40.03552" lon="-4.26344">
        <ele>572.2</ele>
        <time>2020-08-16 09:35:36</time>
      </trkpt>
      <trkpt lat="40.03548" lon="-4.26348">
        <ele>572.4</ele>
        <time>2020-08-16 09:35:37</time>
      </trkpt>
      <trkpt lat="40.03544" lon="-4.26352">
        <ele>572.6</ele>
        <time>2020-08-16 09:35:38</time>
      </trkpt>
      <trkpt lat="40.0354" lon="-4.26356">
        <ele>572.6</ele>
        <time>2020-08-16 09:35:39</time>
      </trkpt>
      <trkpt lat="40.03535" lon="-4.2636">
        <ele>572.8</ele>
        <time>2020-08-16 09:35:40</time>
      </trkpt>
      <trkpt lat="40.03531" lon="-4.26365">
        <ele>572.8</ele>
        <time>2020-08-16 09:35:41</time>
      </trkpt>
      <trkpt lat="40.03527" lon="-4.26369">
        <ele>572.8</ele>
        <time>2020-08-16 09:35:42</time>
      </trkpt>
      <trkpt lat="40.03523" lon="-4.26373">
        <ele>573</ele>
        <time>2020-08-16 09:35:43</time>
      </trkpt>
      <trkpt lat="40.03519" lon="-4.26377">
        <ele>573</ele>
        <time>2020-08-16 09:35:44</time>
      </trkpt>
      <trkpt lat="40.03515" lon="-4.26381">
        <ele>573</ele>
        <time>2020-08-16 09:35:45</time>
      </trkpt>
      <trkpt lat="40.03511" lon="-4.26385">
        <ele>573.2</ele>
        <time>2020-08-16 09:35:46</time>
      </trkpt>
      <trkpt lat="40.03507" lon="-4.26389">
        <ele>573.2</ele>
        <time>2020-08-16 09:35:47</time>
      </trkpt>
      <trkpt lat="40.03503" lon="-4.26393">
        <ele>573.2</ele>
        <time>2020-08-16 09:35:48</time>
      </trkpt>
      <trkpt lat="40.03499" lon="-4.26397">
        <ele>573.2</ele>
        <time>2020-08-16 09:35:49</time>
      </trkpt>
      <trkpt lat="40.03494" lon="-4.26401">
        <ele>573.2</ele>
        <time>2020-08-16 09:35:50</time>
      </trkpt>
      <trkpt lat="40.03468" lon="-4.26427">
        <ele>573.4</ele>
        <time>2020-08-16 09:35:56</time>
      </trkpt>
      <trkpt lat="40.03451" lon="-4.26443">
        <ele>573.2</ele>
        <time>2020-08-16 09:36:00</time>
      </trkpt>
      <trkpt lat="40.03447" lon="-4.26447">
        <ele>573.2</ele>
        <time>2020-08-16 09:36:01</time>
      </trkpt>
      <trkpt lat="40.03443" lon="-4.26451">
        <ele>573</ele>
        <time>2020-08-16 09:36:02</time>
      </trkpt>
      <trkpt lat="40.03434" lon="-4.26459">
        <ele>573</ele>
        <time>2020-08-16 09:36:04</time>
      </trkpt>
      <trkpt lat="40.03429" lon="-4.26464">
        <ele>573</ele>
        <time>2020-08-16 09:36:05</time>
      </trkpt>
      <trkpt lat="40.03416" lon="-4.26477">
        <ele>572.8</ele>
        <time>2020-08-16 09:36:08</time>
      </trkpt>
      <trkpt lat="40.03412" lon="-4.26481">
        <ele>572.8</ele>
        <time>2020-08-16 09:36:09</time>
      </trkpt>
      <trkpt lat="40.03408" lon="-4.26485">
        <ele>572.8</ele>
        <time>2020-08-16 09:36:10</time>
      </trkpt>
      <trkpt lat="40.03404" lon="-4.2649">
        <ele>572.8</ele>
        <time>2020-08-16 09:36:11</time>
      </trkpt>
      <trkpt lat="40.034" lon="-4.26494">
        <ele>573</ele>
        <time>2020-08-16 09:36:12</time>
      </trkpt>
      <trkpt lat="40.03396" lon="-4.26498">
        <ele>573</ele>
        <time>2020-08-16 09:36:13</time>
      </trkpt>
      <trkpt lat="40.03392" lon="-4.26502">
        <ele>572.8</ele>
        <time>2020-08-16 09:36:14</time>
      </trkpt>
      <trkpt lat="40.03388" lon="-4.26507">
        <ele>572.8</ele>
        <time>2020-08-16 09:36:15</time>
      </trkpt>
      <trkpt lat="40.03383" lon="-4.26511">
        <ele>572.8</ele>
        <time>2020-08-16 09:36:16</time>
      </trkpt>
      <trkpt lat="40.03379" lon="-4.26516">
        <ele>572.8</ele>
        <time>2020-08-16 09:36:17</time>
      </trkpt>
      <trkpt lat="40.03375" lon="-4.2652">
        <ele>572.8</ele>
        <time>2020-08-16 09:36:18</time>
      </trkpt>
      <trkpt lat="40.0335" lon="-4.26545">
        <ele>572.4</ele>
        <time>2020-08-16 09:36:23</time>
      </trkpt>
      <trkpt lat="40.03339" lon="-4.26556">
        <ele>572.2</ele>
        <time>2020-08-16 09:36:25</time>
      </trkpt>
      <trkpt lat="40.03328" lon="-4.26567">
        <ele>572</ele>
        <time>2020-08-16 09:36:27</time>
      </trkpt>
      <trkpt lat="40.03322" lon="-4.26573">
        <ele>571.4</ele>
        <time>2020-08-16 09:36:28</time>
      </trkpt>
      <trkpt lat="40.03305" lon="-4.2659">
        <ele>570.4</ele>
        <time>2020-08-16 09:36:31</time>
      </trkpt>
      <trkpt lat="40.033" lon="-4.26595">
        <ele>570.2</ele>
        <time>2020-08-16 09:36:32</time>
      </trkpt>
      <trkpt lat="40.03288" lon="-4.26605">
        <ele>570</ele>
        <time>2020-08-16 09:36:34</time>
      </trkpt>
      <trkpt lat="40.03272" lon="-4.26622">
        <ele>569.6</ele>
        <time>2020-08-16 09:36:37</time>
      </trkpt>
      <trkpt lat="40.03267" lon="-4.26627">
        <ele>569.4</ele>
        <time>2020-08-16 09:36:38</time>
      </trkpt>
      <trkpt lat="40.03262" lon="-4.26633">
        <ele>569.4</ele>
        <time>2020-08-16 09:36:39</time>
      </trkpt>
      <trkpt lat="40.03256" lon="-4.26638">
        <ele>569.4</ele>
        <time>2020-08-16 09:36:40</time>
      </trkpt>
      <trkpt lat="40.03251" lon="-4.26643">
        <ele>569.2</ele>
        <time>2020-08-16 09:36:41</time>
      </trkpt>
      <trkpt lat="40.03246" lon="-4.26647">
        <ele>569.2</ele>
        <time>2020-08-16 09:36:42</time>
      </trkpt>
      <trkpt lat="40.03241" lon="-4.26652">
        <ele>569.4</ele>
        <time>2020-08-16 09:36:43</time>
      </trkpt>
      <trkpt lat="40.03237" lon="-4.26656">
        <ele>569.4</ele>
        <time>2020-08-16 09:36:44</time>
      </trkpt>
      <trkpt lat="40.03232" lon="-4.26659">
        <ele>569.4</ele>
        <time>2020-08-16 09:36:45</time>
      </trkpt>
      <trkpt lat="40.03228" lon="-4.26663">
        <ele>569.4</ele>
        <time>2020-08-16 09:36:46</time>
      </trkpt>
      <trkpt lat="40.03224" lon="-4.26666">
        <ele>569.6</ele>
        <time>2020-08-16 09:36:47</time>
      </trkpt>
      <trkpt lat="40.03216" lon="-4.26673">
        <ele>569.8</ele>
        <time>2020-08-16 09:36:49</time>
      </trkpt>
      <trkpt lat="40.03213" lon="-4.26677">
        <ele>569.8</ele>
        <time>2020-08-16 09:36:50</time>
      </trkpt>
      <trkpt lat="40.03209" lon="-4.2668">
        <ele>570</ele>
        <time>2020-08-16 09:36:51</time>
      </trkpt>
      <trkpt lat="40.03206" lon="-4.26684">
        <ele>570</ele>
        <time>2020-08-16 09:36:52</time>
      </trkpt>
      <trkpt lat="40.03203" lon="-4.26688">
        <ele>570.2</ele>
        <time>2020-08-16 09:36:53</time>
      </trkpt>
      <trkpt lat="40.03199" lon="-4.26691">
        <ele>570.4</ele>
        <time>2020-08-16 09:36:54</time>
      </trkpt>
      <trkpt lat="40.03196" lon="-4.26695">
        <ele>570.6</ele>
        <time>2020-08-16 09:36:55</time>
      </trkpt>
      <trkpt lat="40.03193" lon="-4.26698">
        <ele>570.8</ele>
        <time>2020-08-16 09:36:56</time>
      </trkpt>
      <trkpt lat="40.0319" lon="-4.26701">
        <ele>571</ele>
        <time>2020-08-16 09:36:57</time>
      </trkpt>
      <trkpt lat="40.03187" lon="-4.26704">
        <ele>571.4</ele>
        <time>2020-08-16 09:36:58</time>
      </trkpt>
      <trkpt lat="40.03184" lon="-4.26707">
        <ele>571.8</ele>
        <time>2020-08-16 09:36:59</time>
      </trkpt>
      <trkpt lat="40.03181" lon="-4.26711">
        <ele>571.8</ele>
        <time>2020-08-16 09:37:00</time>
      </trkpt>
      <trkpt lat="40.03178" lon="-4.26714">
        <ele>572</ele>
        <time>2020-08-16 09:37:01</time>
      </trkpt>
      <trkpt lat="40.03174" lon="-4.26718">
        <ele>572.2</ele>
        <time>2020-08-16 09:37:02</time>
      </trkpt>
      <trkpt lat="40.03171" lon="-4.26721">
        <ele>572.4</ele>
        <time>2020-08-16 09:37:03</time>
      </trkpt>
      <trkpt lat="40.03167" lon="-4.26724">
        <ele>572.4</ele>
        <time>2020-08-16 09:37:04</time>
      </trkpt>
      <trkpt lat="40.03164" lon="-4.26728">
        <ele>572.6</ele>
        <time>2020-08-16 09:37:05</time>
      </trkpt>
      <trkpt lat="40.0316" lon="-4.26731">
        <ele>572.8</ele>
        <time>2020-08-16 09:37:06</time>
      </trkpt>
      <trkpt lat="40.03157" lon="-4.26735">
        <ele>573</ele>
        <time>2020-08-16 09:37:07</time>
      </trkpt>
      <trkpt lat="40.03154" lon="-4.26738">
        <ele>573.2</ele>
        <time>2020-08-16 09:37:08</time>
      </trkpt>
      <trkpt lat="40.0315" lon="-4.26742">
        <ele>573.2</ele>
        <time>2020-08-16 09:37:09</time>
      </trkpt>
      <trkpt lat="40.03147" lon="-4.26745">
        <ele>573.4</ele>
        <time>2020-08-16 09:37:10</time>
      </trkpt>
      <trkpt lat="40.03143" lon="-4.26749">
        <ele>573.4</ele>
        <time>2020-08-16 09:37:11</time>
      </trkpt>
      <trkpt lat="40.03139" lon="-4.26752">
        <ele>573.4</ele>
        <time>2020-08-16 09:37:12</time>
      </trkpt>
      <trkpt lat="40.03135" lon="-4.26756">
        <ele>573.6</ele>
        <time>2020-08-16 09:37:13</time>
      </trkpt>
      <trkpt lat="40.03113" lon="-4.26778">
        <ele>573.6</ele>
        <time>2020-08-16 09:37:19</time>
      </trkpt>
      <trkpt lat="40.03092" lon="-4.26798">
        <ele>573.8</ele>
        <time>2020-08-16 09:37:25</time>
      </trkpt>
      <trkpt lat="40.03089" lon="-4.26802">
        <ele>573.6</ele>
        <time>2020-08-16 09:37:26</time>
      </trkpt>
      <trkpt lat="40.03085" lon="-4.26805">
        <ele>573.6</ele>
        <time>2020-08-16 09:37:27</time>
      </trkpt>
      <trkpt lat="40.03081" lon="-4.26809">
        <ele>573.6</ele>
        <time>2020-08-16 09:37:28</time>
      </trkpt>
      <trkpt lat="40.03078" lon="-4.26812">
        <ele>573.6</ele>
        <time>2020-08-16 09:37:29</time>
      </trkpt>
      <trkpt lat="40.03074" lon="-4.26816">
        <ele>573.6</ele>
        <time>2020-08-16 09:37:30</time>
      </trkpt>
      <trkpt lat="40.0307" lon="-4.2682">
        <ele>573.6</ele>
        <time>2020-08-16 09:37:31</time>
      </trkpt>
      <trkpt lat="40.03055" lon="-4.26835">
        <ele>573.6</ele>
        <time>2020-08-16 09:37:35</time>
      </trkpt>
      <trkpt lat="40.0304" lon="-4.26851">
        <ele>573.6</ele>
        <time>2020-08-16 09:37:39</time>
      </trkpt>
      <trkpt lat="40.03036" lon="-4.26855">
        <ele>573.6</ele>
        <time>2020-08-16 09:37:40</time>
      </trkpt>
      <trkpt lat="40.03021" lon="-4.2687">
        <ele>573.6</ele>
        <time>2020-08-16 09:37:44</time>
      </trkpt>
      <trkpt lat="40.02995" lon="-4.26898">
        <ele>573.6</ele>
        <time>2020-08-16 09:37:51</time>
      </trkpt>
      <trkpt lat="40.02968" lon="-4.26926">
        <ele>573.6</ele>
        <time>2020-08-16 09:37:58</time>
      </trkpt>
      <trkpt lat="40.0296" lon="-4.26934">
        <ele>573.6</ele>
        <time>2020-08-16 09:38:00</time>
      </trkpt>
      <trkpt lat="40.02953" lon="-4.26941">
        <ele>573.6</ele>
        <time>2020-08-16 09:38:02</time>
      </trkpt>
      <trkpt lat="40.02949" lon="-4.26945">
        <ele>573.6</ele>
        <time>2020-08-16 09:38:03</time>
      </trkpt>
      <trkpt lat="40.02945" lon="-4.26949">
        <ele>573.6</ele>
        <time>2020-08-16 09:38:04</time>
      </trkpt>
      <trkpt lat="40.02941" lon="-4.26952">
        <ele>573.6</ele>
        <time>2020-08-16 09:38:05</time>
      </trkpt>
      <trkpt lat="40.02938" lon="-4.26955">
        <ele>573.6</ele>
        <time>2020-08-16 09:38:06</time>
      </trkpt>
      <trkpt lat="40.02933" lon="-4.26959">
        <ele>573.6</ele>
        <time>2020-08-16 09:38:07</time>
      </trkpt>
      <trkpt lat="40.02929" lon="-4.26962">
        <ele>573.8</ele>
        <time>2020-08-16 09:38:08</time>
      </trkpt>
      <trkpt lat="40.02925" lon="-4.26965">
        <ele>573.8</ele>
        <time>2020-08-16 09:38:09</time>
      </trkpt>
      <trkpt lat="40.02922" lon="-4.26969">
        <ele>573.8</ele>
        <time>2020-08-16 09:38:10</time>
      </trkpt>
      <trkpt lat="40.02918" lon="-4.26972">
        <ele>573.8</ele>
        <time>2020-08-16 09:38:11</time>
      </trkpt>
      <trkpt lat="40.02915" lon="-4.26976">
        <ele>573.8</ele>
        <time>2020-08-16 09:38:12</time>
      </trkpt>
      <trkpt lat="40.02911" lon="-4.26979">
        <ele>573.8</ele>
        <time>2020-08-16 09:38:13</time>
      </trkpt>
      <trkpt lat="40.02907" lon="-4.26983">
        <ele>574</ele>
        <time>2020-08-16 09:38:14</time>
      </trkpt>
      <trkpt lat="40.02903" lon="-4.26986">
        <ele>574</ele>
        <time>2020-08-16 09:38:15</time>
      </trkpt>
      <trkpt lat="40.02899" lon="-4.2699">
        <ele>574</ele>
        <time>2020-08-16 09:38:16</time>
      </trkpt>
      <trkpt lat="40.02895" lon="-4.26993">
        <ele>574</ele>
        <time>2020-08-16 09:38:17</time>
      </trkpt>
      <trkpt lat="40.02892" lon="-4.26996">
        <ele>574</ele>
        <time>2020-08-16 09:38:18</time>
      </trkpt>
      <trkpt lat="40.02888" lon="-4.27">
        <ele>574</ele>
        <time>2020-08-16 09:38:19</time>
      </trkpt>
      <trkpt lat="40.02885" lon="-4.27004">
        <ele>574</ele>
        <time>2020-08-16 09:38:20</time>
      </trkpt>
      <trkpt lat="40.02881" lon="-4.27007">
        <ele>574</ele>
        <time>2020-08-16 09:38:21</time>
      </trkpt>
      <trkpt lat="40.02865" lon="-4.27021">
        <ele>574.4</ele>
        <time>2020-08-16 09:38:25</time>
      </trkpt>
      <trkpt lat="40.02845" lon="-4.2704">
        <ele>574.4</ele>
        <time>2020-08-16 09:38:30</time>
      </trkpt>
      <trkpt lat="40.02834" lon="-4.27051">
        <ele>574.6</ele>
        <time>2020-08-16 09:38:33</time>
      </trkpt>
      <trkpt lat="40.02818" lon="-4.27067">
        <ele>574.6</ele>
        <time>2020-08-16 09:38:37</time>
      </trkpt>
      <trkpt lat="40.02794" lon="-4.27092">
        <ele>574.6</ele>
        <time>2020-08-16 09:38:43</time>
      </trkpt>
      <trkpt lat="40.02786" lon="-4.271">
        <ele>574.4</ele>
        <time>2020-08-16 09:38:45</time>
      </trkpt>
      <trkpt lat="40.02783" lon="-4.27103">
        <ele>574.4</ele>
        <time>2020-08-16 09:38:46</time>
      </trkpt>
      <trkpt lat="40.02779" lon="-4.27107">
        <ele>574.4</ele>
        <time>2020-08-16 09:38:47</time>
      </trkpt>
      <trkpt lat="40.02775" lon="-4.27111">
        <ele>574.6</ele>
        <time>2020-08-16 09:38:48</time>
      </trkpt>
      <trkpt lat="40.02772" lon="-4.27115">
        <ele>574.6</ele>
        <time>2020-08-16 09:38:49</time>
      </trkpt>
      <trkpt lat="40.02768" lon="-4.27119">
        <ele>574.8</ele>
        <time>2020-08-16 09:38:50</time>
      </trkpt>
      <trkpt lat="40.02764" lon="-4.27123">
        <ele>574.6</ele>
        <time>2020-08-16 09:38:51</time>
      </trkpt>
      <trkpt lat="40.02761" lon="-4.27127">
        <ele>574.6</ele>
        <time>2020-08-16 09:38:52</time>
      </trkpt>
      <trkpt lat="40.02757" lon="-4.27131">
        <ele>574.6</ele>
        <time>2020-08-16 09:38:53</time>
      </trkpt>
      <trkpt lat="40.02753" lon="-4.27135">
        <ele>574.6</ele>
        <time>2020-08-16 09:38:54</time>
      </trkpt>
      <trkpt lat="40.02749" lon="-4.27139">
        <ele>574.6</ele>
        <time>2020-08-16 09:38:55</time>
      </trkpt>
      <trkpt lat="40.02716" lon="-4.27166">
        <ele>574.4</ele>
        <time>2020-08-16 09:39:03</time>
      </trkpt>
      <trkpt lat="40.02712" lon="-4.27169">
        <ele>574.4</ele>
        <time>2020-08-16 09:39:04</time>
      </trkpt>
      <trkpt lat="40.02708" lon="-4.27172">
        <ele>574.4</ele>
        <time>2020-08-16 09:39:05</time>
      </trkpt>
      <trkpt lat="40.02704" lon="-4.27174">
        <ele>574.2</ele>
        <time>2020-08-16 09:39:06</time>
      </trkpt>
      <trkpt lat="40.027" lon="-4.27177">
        <ele>574.2</ele>
        <time>2020-08-16 09:39:07</time>
      </trkpt>
      <trkpt lat="40.02696" lon="-4.27179">
        <ele>574.2</ele>
        <time>2020-08-16 09:39:08</time>
      </trkpt>
      <trkpt lat="40.02692" lon="-4.27181">
        <ele>574.2</ele>
        <time>2020-08-16 09:39:09</time>
      </trkpt>
      <trkpt lat="40.02688" lon="-4.27184">
        <ele>574.2</ele>
        <time>2020-08-16 09:39:10</time>
      </trkpt>
      <trkpt lat="40.02684" lon="-4.27187">
        <ele>574.2</ele>
        <time>2020-08-16 09:39:11</time>
      </trkpt>
      <trkpt lat="40.0268" lon="-4.2719">
        <ele>574.2</ele>
        <time>2020-08-16 09:39:12</time>
      </trkpt>
      <trkpt lat="40.02676" lon="-4.27193">
        <ele>574.2</ele>
        <time>2020-08-16 09:39:13</time>
      </trkpt>
      <trkpt lat="40.02671" lon="-4.27195">
        <ele>574.4</ele>
        <time>2020-08-16 09:39:14</time>
      </trkpt>
      <trkpt lat="40.02667" lon="-4.27197">
        <ele>574.4</ele>
        <time>2020-08-16 09:39:15</time>
      </trkpt>
      <trkpt lat="40.02663" lon="-4.272">
        <ele>574.4</ele>
        <time>2020-08-16 09:39:16</time>
      </trkpt>
      <trkpt lat="40.02659" lon="-4.27202">
        <ele>574.4</ele>
        <time>2020-08-16 09:39:17</time>
      </trkpt>
      <trkpt lat="40.02655" lon="-4.27205">
        <ele>574.4</ele>
        <time>2020-08-16 09:39:18</time>
      </trkpt>
      <trkpt lat="40.0265" lon="-4.27207">
        <ele>574.4</ele>
        <time>2020-08-16 09:39:19</time>
      </trkpt>
      <trkpt lat="40.02646" lon="-4.27209">
        <ele>574.4</ele>
        <time>2020-08-16 09:39:20</time>
      </trkpt>
      <trkpt lat="40.02642" lon="-4.27212">
        <ele>574.4</ele>
        <time>2020-08-16 09:39:21</time>
      </trkpt>
      <trkpt lat="40.02599" lon="-4.27239">
        <ele>574.6</ele>
        <time>2020-08-16 09:39:31</time>
      </trkpt>
      <trkpt lat="40.02595" lon="-4.27241">
        <ele>574.6</ele>
        <time>2020-08-16 09:39:32</time>
      </trkpt>
      <trkpt lat="40.02554" lon="-4.27265">
        <ele>574.4</ele>
        <time>2020-08-16 09:39:41</time>
      </trkpt>
      <trkpt lat="40.02532" lon="-4.27278">
        <ele>574.4</ele>
        <time>2020-08-16 09:39:46</time>
      </trkpt>
      <trkpt lat="40.02527" lon="-4.27281">
        <ele>574.4</ele>
        <time>2020-08-16 09:39:47</time>
      </trkpt>
      <trkpt lat="40.02523" lon="-4.27284">
        <ele>574.4</ele>
        <time>2020-08-16 09:39:48</time>
      </trkpt>
      <trkpt lat="40.02519" lon="-4.27286">
        <ele>574.6</ele>
        <time>2020-08-16 09:39:49</time>
      </trkpt>
      <trkpt lat="40.02515" lon="-4.27289">
        <ele>574.6</ele>
        <time>2020-08-16 09:39:50</time>
      </trkpt>
      <trkpt lat="40.0251" lon="-4.27292">
        <ele>574.6</ele>
        <time>2020-08-16 09:39:51</time>
      </trkpt>
      <trkpt lat="40.02506" lon="-4.27294">
        <ele>574.6</ele>
        <time>2020-08-16 09:39:52</time>
      </trkpt>
      <trkpt lat="40.02502" lon="-4.27297">
        <ele>574.6</ele>
        <time>2020-08-16 09:39:53</time>
      </trkpt>
      <trkpt lat="40.02498" lon="-4.27299">
        <ele>574.6</ele>
        <time>2020-08-16 09:39:54</time>
      </trkpt>
      <trkpt lat="40.02494" lon="-4.27301">
        <ele>574.6</ele>
        <time>2020-08-16 09:39:55</time>
      </trkpt>
      <trkpt lat="40.02489" lon="-4.27304">
        <ele>574.8</ele>
        <time>2020-08-16 09:39:56</time>
      </trkpt>
      <trkpt lat="40.02485" lon="-4.27306">
        <ele>574.8</ele>
        <time>2020-08-16 09:39:57</time>
      </trkpt>
      <trkpt lat="40.02481" lon="-4.27308">
        <ele>574.8</ele>
        <time>2020-08-16 09:39:58</time>
      </trkpt>
      <trkpt lat="40.02477" lon="-4.2731">
        <ele>574.8</ele>
        <time>2020-08-16 09:39:59</time>
      </trkpt>
      <trkpt lat="40.02473" lon="-4.27311">
        <ele>574.8</ele>
        <time>2020-08-16 09:40:00</time>
      </trkpt>
      <trkpt lat="40.02468" lon="-4.27314">
        <ele>574.6</ele>
        <time>2020-08-16 09:40:01</time>
      </trkpt>
      <trkpt lat="40.02463" lon="-4.27316">
        <ele>574.6</ele>
        <time>2020-08-16 09:40:02</time>
      </trkpt>
      <trkpt lat="40.02434" lon="-4.27333">
        <ele>574.2</ele>
        <time>2020-08-16 09:40:08</time>
      </trkpt>
      <trkpt lat="40.02418" lon="-4.27343">
        <ele>573.6</ele>
        <time>2020-08-16 09:40:11</time>
      </trkpt>
      <trkpt lat="40.02407" lon="-4.27351">
        <ele>573</ele>
        <time>2020-08-16 09:40:13</time>
      </trkpt>
      <trkpt lat="40.02394" lon="-4.27358">
        <ele>572.2</ele>
        <time>2020-08-16 09:40:15</time>
      </trkpt>
      <trkpt lat="40.02375" lon="-4.27369">
        <ele>571.6</ele>
        <time>2020-08-16 09:40:18</time>
      </trkpt>
      <trkpt lat="40.02369" lon="-4.27373">
        <ele>571.6</ele>
        <time>2020-08-16 09:40:19</time>
      </trkpt>
      <trkpt lat="40.02355" lon="-4.2738">
        <ele>571</ele>
        <time>2020-08-16 09:40:21</time>
      </trkpt>
      <trkpt lat="40.02327" lon="-4.27396">
        <ele>569.8</ele>
        <time>2020-08-16 09:40:25</time>
      </trkpt>
      <trkpt lat="40.0232" lon="-4.274">
        <ele>569.4</ele>
        <time>2020-08-16 09:40:26</time>
      </trkpt>
      <trkpt lat="40.02306" lon="-4.27408">
        <ele>568.8</ele>
        <time>2020-08-16 09:40:28</time>
      </trkpt>
      <trkpt lat="40.02286" lon="-4.27419">
        <ele>568</ele>
        <time>2020-08-16 09:40:31</time>
      </trkpt>
      <trkpt lat="40.02273" lon="-4.27426">
        <ele>567.6</ele>
        <time>2020-08-16 09:40:33</time>
      </trkpt>
      <trkpt lat="40.02266" lon="-4.2743">
        <ele>567.2</ele>
        <time>2020-08-16 09:40:34</time>
      </trkpt>
      <trkpt lat="40.0226" lon="-4.27434">
        <ele>566.8</ele>
        <time>2020-08-16 09:40:35</time>
      </trkpt>
      <trkpt lat="40.02253" lon="-4.27438">
        <ele>566.8</ele>
        <time>2020-08-16 09:40:36</time>
      </trkpt>
      <trkpt lat="40.02247" lon="-4.27442">
        <ele>566.6</ele>
        <time>2020-08-16 09:40:37</time>
      </trkpt>
      <trkpt lat="40.02241" lon="-4.27445">
        <ele>566.4</ele>
        <time>2020-08-16 09:40:38</time>
      </trkpt>
      <trkpt lat="40.02235" lon="-4.27449">
        <ele>566.4</ele>
        <time>2020-08-16 09:40:39</time>
      </trkpt>
      <trkpt lat="40.02228" lon="-4.27452">
        <ele>566.4</ele>
        <time>2020-08-16 09:40:40</time>
      </trkpt>
      <trkpt lat="40.02222" lon="-4.27456">
        <ele>566.2</ele>
        <time>2020-08-16 09:40:41</time>
      </trkpt>
      <trkpt lat="40.02216" lon="-4.27459">
        <ele>566</ele>
        <time>2020-08-16 09:40:42</time>
      </trkpt>
      <trkpt lat="40.0221" lon="-4.27463">
        <ele>565.8</ele>
        <time>2020-08-16 09:40:43</time>
      </trkpt>
      <trkpt lat="40.02205" lon="-4.27466">
        <ele>565.8</ele>
        <time>2020-08-16 09:40:44</time>
      </trkpt>
      <trkpt lat="40.02199" lon="-4.2747">
        <ele>565.8</ele>
        <time>2020-08-16 09:40:45</time>
      </trkpt>
      <trkpt lat="40.02193" lon="-4.27473">
        <ele>565.4</ele>
        <time>2020-08-16 09:40:46</time>
      </trkpt>
      <trkpt lat="40.02188" lon="-4.27476">
        <ele>565.4</ele>
        <time>2020-08-16 09:40:47</time>
      </trkpt>
      <trkpt lat="40.02182" lon="-4.2748">
        <ele>565.2</ele>
        <time>2020-08-16 09:40:48</time>
      </trkpt>
      <trkpt lat="40.02177" lon="-4.27483">
        <ele>565</ele>
        <time>2020-08-16 09:40:49</time>
      </trkpt>
      <trkpt lat="40.02171" lon="-4.27486">
        <ele>564.8</ele>
        <time>2020-08-16 09:40:50</time>
      </trkpt>
      <trkpt lat="40.02166" lon="-4.27489">
        <ele>564.8</ele>
        <time>2020-08-16 09:40:51</time>
      </trkpt>
      <trkpt lat="40.02161" lon="-4.27492">
        <ele>564.8</ele>
        <time>2020-08-16 09:40:52</time>
      </trkpt>
      <trkpt lat="40.02156" lon="-4.27495">
        <ele>564.6</ele>
        <time>2020-08-16 09:40:53</time>
      </trkpt>
      <trkpt lat="40.02151" lon="-4.27498">
        <ele>564.6</ele>
        <time>2020-08-16 09:40:54</time>
      </trkpt>
      <trkpt lat="40.02146" lon="-4.27501">
        <ele>564.6</ele>
        <time>2020-08-16 09:40:55</time>
      </trkpt>
      <trkpt lat="40.02142" lon="-4.27503">
        <ele>564.6</ele>
        <time>2020-08-16 09:40:56</time>
      </trkpt>
      <trkpt lat="40.02137" lon="-4.27505">
        <ele>564.4</ele>
        <time>2020-08-16 09:40:57</time>
      </trkpt>
      <trkpt lat="40.02133" lon="-4.27508">
        <ele>564.2</ele>
        <time>2020-08-16 09:40:58</time>
      </trkpt>
      <trkpt lat="40.02129" lon="-4.2751">
        <ele>564.2</ele>
        <time>2020-08-16 09:40:59</time>
      </trkpt>
      <trkpt lat="40.02126" lon="-4.27513">
        <ele>564</ele>
        <time>2020-08-16 09:41:00</time>
      </trkpt>
      <trkpt lat="40.02122" lon="-4.27515">
        <ele>564</ele>
        <time>2020-08-16 09:41:01</time>
      </trkpt>
      <trkpt lat="40.02114" lon="-4.2752">
        <ele>564</ele>
        <time>2020-08-16 09:41:03</time>
      </trkpt>
      <trkpt lat="40.0211" lon="-4.27522">
        <ele>563.8</ele>
        <time>2020-08-16 09:41:04</time>
      </trkpt>
      <trkpt lat="40.02107" lon="-4.27525">
        <ele>563.8</ele>
        <time>2020-08-16 09:41:05</time>
      </trkpt>
      <trkpt lat="40.02103" lon="-4.27527">
        <ele>563.8</ele>
        <time>2020-08-16 09:41:06</time>
      </trkpt>
      <trkpt lat="40.02099" lon="-4.27529">
        <ele>563.8</ele>
        <time>2020-08-16 09:41:07</time>
      </trkpt>
      <trkpt lat="40.02095" lon="-4.27532">
        <ele>563.6</ele>
        <time>2020-08-16 09:41:08</time>
      </trkpt>
      <trkpt lat="40.02092" lon="-4.27534">
        <ele>563.6</ele>
        <time>2020-08-16 09:41:09</time>
      </trkpt>
      <trkpt lat="40.02088" lon="-4.27537">
        <ele>563.4</ele>
        <time>2020-08-16 09:41:10</time>
      </trkpt>
      <trkpt lat="40.02061" lon="-4.27552">
        <ele>563.4</ele>
        <time>2020-08-16 09:41:16</time>
      </trkpt>
      <trkpt lat="40.02033" lon="-4.27567">
        <ele>562.6</ele>
        <time>2020-08-16 09:41:23</time>
      </trkpt>
      <trkpt lat="40.0203" lon="-4.27569">
        <ele>562.4</ele>
        <time>2020-08-16 09:41:24</time>
      </trkpt>
      <trkpt lat="40.02026" lon="-4.27571">
        <ele>562.4</ele>
        <time>2020-08-16 09:41:25</time>
      </trkpt>
      <trkpt lat="40.02024" lon="-4.27573">
        <ele>562.2</ele>
        <time>2020-08-16 09:41:26</time>
      </trkpt>
      <trkpt lat="40.02021" lon="-4.27575">
        <ele>562</ele>
        <time>2020-08-16 09:41:27</time>
      </trkpt>
      <trkpt lat="40.02019" lon="-4.27576">
        <ele>561.8</ele>
        <time>2020-08-16 09:41:28</time>
      </trkpt>
      <trkpt lat="40.02017" lon="-4.27577">
        <ele>561.6</ele>
        <time>2020-08-16 09:41:29</time>
      </trkpt>
      <trkpt lat="40.02016" lon="-4.27578">
        <ele>561.6</ele>
        <time>2020-08-16 09:41:30</time>
      </trkpt>
      <trkpt lat="40.02014" lon="-4.27579">
        <ele>561.2</ele>
        <time>2020-08-16 09:41:31</time>
      </trkpt>
      <trkpt lat="40.02013" lon="-4.2758">
        <ele>561.2</ele>
        <time>2020-08-16 09:41:32</time>
      </trkpt>
      <trkpt lat="40.02012" lon="-4.27583">
        <ele>561.2</ele>
        <time>2020-08-16 09:41:33</time>
      </trkpt>
      <trkpt lat="40.02009" lon="-4.27585">
        <ele>561.2</ele>
        <time>2020-08-16 09:41:34</time>
      </trkpt>
      <trkpt lat="40.02006" lon="-4.27588">
        <ele>561</ele>
        <time>2020-08-16 09:41:35</time>
      </trkpt>
      <trkpt lat="40.02002" lon="-4.2759">
        <ele>561</ele>
        <time>2020-08-16 09:41:36</time>
      </trkpt>
      <trkpt lat="40.01991" lon="-4.27594">
        <ele>560.8</ele>
        <time>2020-08-16 09:41:39</time>
      </trkpt>
      <trkpt lat="40.01986" lon="-4.27596">
        <ele>560.8</ele>
        <time>2020-08-16 09:41:40</time>
      </trkpt>
      <trkpt lat="40.01973" lon="-4.27603">
        <ele>560.6</ele>
        <time>2020-08-16 09:41:43</time>
      </trkpt>
      <trkpt lat="40.01948" lon="-4.27618">
        <ele>560.2</ele>
        <time>2020-08-16 09:41:48</time>
      </trkpt>
      <trkpt lat="40.01937" lon="-4.27625">
        <ele>559.8</ele>
        <time>2020-08-16 09:41:50</time>
      </trkpt>
      <trkpt lat="40.01925" lon="-4.27632">
        <ele>559</ele>
        <time>2020-08-16 09:41:52</time>
      </trkpt>
      <trkpt lat="40.01908" lon="-4.2764">
        <ele>557.8</ele>
        <time>2020-08-16 09:41:55</time>
      </trkpt>
      <trkpt lat="40.01891" lon="-4.27649">
        <ele>557.4</ele>
        <time>2020-08-16 09:41:58</time>
      </trkpt>
      <trkpt lat="40.01862" lon="-4.27667">
        <ele>556.8</ele>
        <time>2020-08-16 09:42:03</time>
      </trkpt>
      <trkpt lat="40.01856" lon="-4.27671">
        <ele>556.8</ele>
        <time>2020-08-16 09:42:04</time>
      </trkpt>
      <trkpt lat="40.01831" lon="-4.27685">
        <ele>555.6</ele>
        <time>2020-08-16 09:42:08</time>
      </trkpt>
      <trkpt lat="40.01805" lon="-4.27699">
        <ele>554.4</ele>
        <time>2020-08-16 09:42:12</time>
      </trkpt>
      <trkpt lat="40.01793" lon="-4.27707">
        <ele>553.8</ele>
        <time>2020-08-16 09:42:14</time>
      </trkpt>
      <trkpt lat="40.0178" lon="-4.27715">
        <ele>553.4</ele>
        <time>2020-08-16 09:42:16</time>
      </trkpt>
      <trkpt lat="40.01773" lon="-4.27719">
        <ele>553.2</ele>
        <time>2020-08-16 09:42:17</time>
      </trkpt>
      <trkpt lat="40.01747" lon="-4.27735">
        <ele>552</ele>
        <time>2020-08-16 09:42:21</time>
      </trkpt>
      <trkpt lat="40.01727" lon="-4.27747">
        <ele>551</ele>
        <time>2020-08-16 09:42:24</time>
      </trkpt>
      <trkpt lat="40.0172" lon="-4.2775">
        <ele>550.8</ele>
        <time>2020-08-16 09:42:25</time>
      </trkpt>
      <trkpt lat="40.017" lon="-4.27761">
        <ele>550.2</ele>
        <time>2020-08-16 09:42:28</time>
      </trkpt>
      <trkpt lat="40.01694" lon="-4.27765">
        <ele>550</ele>
        <time>2020-08-16 09:42:29</time>
      </trkpt>
      <trkpt lat="40.01688" lon="-4.27768">
        <ele>550</ele>
        <time>2020-08-16 09:42:30</time>
      </trkpt>
      <trkpt lat="40.01681" lon="-4.27772">
        <ele>549.8</ele>
        <time>2020-08-16 09:42:31</time>
      </trkpt>
      <trkpt lat="40.01675" lon="-4.27775">
        <ele>549.8</ele>
        <time>2020-08-16 09:42:32</time>
      </trkpt>
      <trkpt lat="40.01669" lon="-4.27779">
        <ele>549.6</ele>
        <time>2020-08-16 09:42:33</time>
      </trkpt>
      <trkpt lat="40.01663" lon="-4.27782">
        <ele>549.6</ele>
        <time>2020-08-16 09:42:34</time>
      </trkpt>
      <trkpt lat="40.01657" lon="-4.27784">
        <ele>549.6</ele>
        <time>2020-08-16 09:42:35</time>
      </trkpt>
      <trkpt lat="40.01651" lon="-4.27787">
        <ele>549.6</ele>
        <time>2020-08-16 09:42:36</time>
      </trkpt>
      <trkpt lat="40.01645" lon="-4.27791">
        <ele>549.6</ele>
        <time>2020-08-16 09:42:37</time>
      </trkpt>
      <trkpt lat="40.01639" lon="-4.27794">
        <ele>549.6</ele>
        <time>2020-08-16 09:42:38</time>
      </trkpt>
      <trkpt lat="40.01634" lon="-4.27798">
        <ele>549.6</ele>
        <time>2020-08-16 09:42:39</time>
      </trkpt>
      <trkpt lat="40.01628" lon="-4.27801">
        <ele>549.4</ele>
        <time>2020-08-16 09:42:40</time>
      </trkpt>
      <trkpt lat="40.01623" lon="-4.27805">
        <ele>549.4</ele>
        <time>2020-08-16 09:42:41</time>
      </trkpt>
      <trkpt lat="40.01618" lon="-4.27809">
        <ele>549.2</ele>
        <time>2020-08-16 09:42:42</time>
      </trkpt>
      <trkpt lat="40.01613" lon="-4.27811">
        <ele>549.2</ele>
        <time>2020-08-16 09:42:43</time>
      </trkpt>
      <trkpt lat="40.01607" lon="-4.27814">
        <ele>549</ele>
        <time>2020-08-16 09:42:44</time>
      </trkpt>
      <trkpt lat="40.01602" lon="-4.27817">
        <ele>548.8</ele>
        <time>2020-08-16 09:42:45</time>
      </trkpt>
      <trkpt lat="40.01597" lon="-4.27819">
        <ele>548.8</ele>
        <time>2020-08-16 09:42:46</time>
      </trkpt>
      <trkpt lat="40.01591" lon="-4.27822">
        <ele>548.8</ele>
        <time>2020-08-16 09:42:47</time>
      </trkpt>
      <trkpt lat="40.01586" lon="-4.27825">
        <ele>548.8</ele>
        <time>2020-08-16 09:42:48</time>
      </trkpt>
      <trkpt lat="40.01581" lon="-4.27827">
        <ele>548.6</ele>
        <time>2020-08-16 09:42:49</time>
      </trkpt>
      <trkpt lat="40.01576" lon="-4.27831">
        <ele>548.6</ele>
        <time>2020-08-16 09:42:50</time>
      </trkpt>
      <trkpt lat="40.01571" lon="-4.27833">
        <ele>548.4</ele>
        <time>2020-08-16 09:42:51</time>
      </trkpt>
      <trkpt lat="40.01566" lon="-4.27836">
        <ele>548.2</ele>
        <time>2020-08-16 09:42:52</time>
      </trkpt>
      <trkpt lat="40.01561" lon="-4.27838">
        <ele>548.2</ele>
        <time>2020-08-16 09:42:53</time>
      </trkpt>
      <trkpt lat="40.01556" lon="-4.27841">
        <ele>548.2</ele>
        <time>2020-08-16 09:42:54</time>
      </trkpt>
      <trkpt lat="40.01552" lon="-4.27844">
        <ele>548.2</ele>
        <time>2020-08-16 09:42:55</time>
      </trkpt>
      <trkpt lat="40.01547" lon="-4.27847">
        <ele>548.2</ele>
        <time>2020-08-16 09:42:56</time>
      </trkpt>
      <trkpt lat="40.01542" lon="-4.27849">
        <ele>548.2</ele>
        <time>2020-08-16 09:42:57</time>
      </trkpt>
      <trkpt lat="40.01537" lon="-4.27852">
        <ele>548.2</ele>
        <time>2020-08-16 09:42:58</time>
      </trkpt>
      <trkpt lat="40.01532" lon="-4.27855">
        <ele>548</ele>
        <time>2020-08-16 09:42:59</time>
      </trkpt>
      <trkpt lat="40.01527" lon="-4.27857">
        <ele>548</ele>
        <time>2020-08-16 09:43:00</time>
      </trkpt>
      <trkpt lat="40.01522" lon="-4.2786">
        <ele>548.2</ele>
        <time>2020-08-16 09:43:01</time>
      </trkpt>
      <trkpt lat="40.01518" lon="-4.27863">
        <ele>548.2</ele>
        <time>2020-08-16 09:43:02</time>
      </trkpt>
      <trkpt lat="40.01513" lon="-4.27866">
        <ele>548.2</ele>
        <time>2020-08-16 09:43:03</time>
      </trkpt>
      <trkpt lat="40.01508" lon="-4.27868">
        <ele>548.2</ele>
        <time>2020-08-16 09:43:04</time>
      </trkpt>
      <trkpt lat="40.01504" lon="-4.27871">
        <ele>548.2</ele>
        <time>2020-08-16 09:43:05</time>
      </trkpt>
      <trkpt lat="40.01499" lon="-4.27874">
        <ele>548.4</ele>
        <time>2020-08-16 09:43:06</time>
      </trkpt>
      <trkpt lat="40.01495" lon="-4.27878">
        <ele>548.4</ele>
        <time>2020-08-16 09:43:07</time>
      </trkpt>
      <trkpt lat="40.01491" lon="-4.27881">
        <ele>548.4</ele>
        <time>2020-08-16 09:43:08</time>
      </trkpt>
      <trkpt lat="40.01487" lon="-4.27884">
        <ele>548.4</ele>
        <time>2020-08-16 09:43:09</time>
      </trkpt>
      <trkpt lat="40.01482" lon="-4.27887">
        <ele>548.4</ele>
        <time>2020-08-16 09:43:10</time>
      </trkpt>
      <trkpt lat="40.01478" lon="-4.27889">
        <ele>548.4</ele>
        <time>2020-08-16 09:43:11</time>
      </trkpt>
      <trkpt lat="40.01474" lon="-4.27892">
        <ele>548.4</ele>
        <time>2020-08-16 09:43:12</time>
      </trkpt>
      <trkpt lat="40.0147" lon="-4.27894">
        <ele>548.2</ele>
        <time>2020-08-16 09:43:13</time>
      </trkpt>
      <trkpt lat="40.01466" lon="-4.27897">
        <ele>548.4</ele>
        <time>2020-08-16 09:43:14</time>
      </trkpt>
      <trkpt lat="40.01461" lon="-4.27899">
        <ele>548.4</ele>
        <time>2020-08-16 09:43:15</time>
      </trkpt>
      <trkpt lat="40.01457" lon="-4.27902">
        <ele>548.4</ele>
        <time>2020-08-16 09:43:16</time>
      </trkpt>
      <trkpt lat="40.01453" lon="-4.27904">
        <ele>548.4</ele>
        <time>2020-08-16 09:43:17</time>
      </trkpt>
      <trkpt lat="40.01449" lon="-4.27906">
        <ele>548.4</ele>
        <time>2020-08-16 09:43:18</time>
      </trkpt>
      <trkpt lat="40.01444" lon="-4.27909">
        <ele>548.4</ele>
        <time>2020-08-16 09:43:19</time>
      </trkpt>
      <trkpt lat="40.0144" lon="-4.27912">
        <ele>548.6</ele>
        <time>2020-08-16 09:43:20</time>
      </trkpt>
      <trkpt lat="40.01436" lon="-4.27915">
        <ele>548.6</ele>
        <time>2020-08-16 09:43:21</time>
      </trkpt>
      <trkpt lat="40.01432" lon="-4.27917">
        <ele>548.6</ele>
        <time>2020-08-16 09:43:22</time>
      </trkpt>
      <trkpt lat="40.01428" lon="-4.2792">
        <ele>548.6</ele>
        <time>2020-08-16 09:43:23</time>
      </trkpt>
      <trkpt lat="40.01423" lon="-4.27923">
        <ele>548.8</ele>
        <time>2020-08-16 09:43:24</time>
      </trkpt>
      <trkpt lat="40.01419" lon="-4.27926">
        <ele>548.8</ele>
        <time>2020-08-16 09:43:25</time>
      </trkpt>
      <trkpt lat="40.01415" lon="-4.27928">
        <ele>548.8</ele>
        <time>2020-08-16 09:43:26</time>
      </trkpt>
      <trkpt lat="40.01403" lon="-4.27935">
        <ele>549</ele>
        <time>2020-08-16 09:43:29</time>
      </trkpt>
      <trkpt lat="40.01399" lon="-4.27938">
        <ele>549</ele>
        <time>2020-08-16 09:43:30</time>
      </trkpt>
      <trkpt lat="40.01396" lon="-4.2794">
        <ele>549</ele>
        <time>2020-08-16 09:43:31</time>
      </trkpt>
      <trkpt lat="40.01392" lon="-4.27943">
        <ele>549</ele>
        <time>2020-08-16 09:43:32</time>
      </trkpt>
      <trkpt lat="40.01388" lon="-4.27945">
        <ele>549</ele>
        <time>2020-08-16 09:43:33</time>
      </trkpt>
      <trkpt lat="40.01385" lon="-4.27947">
        <ele>549</ele>
        <time>2020-08-16 09:43:34</time>
      </trkpt>
      <trkpt lat="40.01381" lon="-4.2795">
        <ele>549</ele>
        <time>2020-08-16 09:43:35</time>
      </trkpt>
      <trkpt lat="40.01378" lon="-4.27952">
        <ele>548.8</ele>
        <time>2020-08-16 09:43:36</time>
      </trkpt>
      <trkpt lat="40.01374" lon="-4.27954">
        <ele>548.8</ele>
        <time>2020-08-16 09:43:37</time>
      </trkpt>
      <trkpt lat="40.0137" lon="-4.27955">
        <ele>548.6</ele>
        <time>2020-08-16 09:43:38</time>
      </trkpt>
      <trkpt lat="40.01367" lon="-4.27957">
        <ele>548.6</ele>
        <time>2020-08-16 09:43:39</time>
      </trkpt>
      <trkpt lat="40.01363" lon="-4.27959">
        <ele>548.6</ele>
        <time>2020-08-16 09:43:40</time>
      </trkpt>
      <trkpt lat="40.0136" lon="-4.27961">
        <ele>548.6</ele>
        <time>2020-08-16 09:43:41</time>
      </trkpt>
      <trkpt lat="40.01357" lon="-4.27963">
        <ele>548.4</ele>
        <time>2020-08-16 09:43:42</time>
      </trkpt>
      <trkpt lat="40.01353" lon="-4.27966">
        <ele>548.4</ele>
        <time>2020-08-16 09:43:43</time>
      </trkpt>
      <trkpt lat="40.01349" lon="-4.27968">
        <ele>548.4</ele>
        <time>2020-08-16 09:43:44</time>
      </trkpt>
      <trkpt lat="40.01345" lon="-4.2797">
        <ele>548.4</ele>
        <time>2020-08-16 09:43:45</time>
      </trkpt>
      <trkpt lat="40.01328" lon="-4.27979">
        <ele>548.2</ele>
        <time>2020-08-16 09:43:49</time>
      </trkpt>
      <trkpt lat="40.01324" lon="-4.27981">
        <ele>548.2</ele>
        <time>2020-08-16 09:43:50</time>
      </trkpt>
      <trkpt lat="40.01305" lon="-4.2799">
        <ele>548.6</ele>
        <time>2020-08-16 09:43:55</time>
      </trkpt>
      <trkpt lat="40.01301" lon="-4.27992">
        <ele>548.6</ele>
        <time>2020-08-16 09:43:56</time>
      </trkpt>
      <trkpt lat="40.01298" lon="-4.27995">
        <ele>548.6</ele>
        <time>2020-08-16 09:43:57</time>
      </trkpt>
      <trkpt lat="40.01294" lon="-4.27997">
        <ele>548.8</ele>
        <time>2020-08-16 09:43:58</time>
      </trkpt>
      <trkpt lat="40.01291" lon="-4.27998">
        <ele>548.8</ele>
        <time>2020-08-16 09:43:59</time>
      </trkpt>
      <trkpt lat="40.01288" lon="-4.28">
        <ele>548.8</ele>
        <time>2020-08-16 09:44:00</time>
      </trkpt>
      <trkpt lat="40.01285" lon="-4.28001">
        <ele>548.8</ele>
        <time>2020-08-16 09:44:01</time>
      </trkpt>
      <trkpt lat="40.01282" lon="-4.28003">
        <ele>548.8</ele>
        <time>2020-08-16 09:44:02</time>
      </trkpt>
      <trkpt lat="40.01279" lon="-4.28005">
        <ele>548.8</ele>
        <time>2020-08-16 09:44:03</time>
      </trkpt>
      <trkpt lat="40.01276" lon="-4.28007">
        <ele>548.8</ele>
        <time>2020-08-16 09:44:04</time>
      </trkpt>
      <trkpt lat="40.01273" lon="-4.2801">
        <ele>548.8</ele>
        <time>2020-08-16 09:44:05</time>
      </trkpt>
      <trkpt lat="40.01269" lon="-4.28012">
        <ele>548.8</ele>
        <time>2020-08-16 09:44:06</time>
      </trkpt>
      <trkpt lat="40.01266" lon="-4.28015">
        <ele>548.8</ele>
        <time>2020-08-16 09:44:07</time>
      </trkpt>
      <trkpt lat="40.01262" lon="-4.28018">
        <ele>548.8</ele>
        <time>2020-08-16 09:44:08</time>
      </trkpt>
      <trkpt lat="40.01259" lon="-4.2802">
        <ele>548.8</ele>
        <time>2020-08-16 09:44:09</time>
      </trkpt>
      <trkpt lat="40.01255" lon="-4.28022">
        <ele>548.8</ele>
        <time>2020-08-16 09:44:10</time>
      </trkpt>
      <trkpt lat="40.0124" lon="-4.28031">
        <ele>548.8</ele>
        <time>2020-08-16 09:44:14</time>
      </trkpt>
      <trkpt lat="40.01232" lon="-4.28035">
        <ele>548.8</ele>
        <time>2020-08-16 09:44:16</time>
      </trkpt>
      <trkpt lat="40.01228" lon="-4.28037">
        <ele>548.8</ele>
        <time>2020-08-16 09:44:17</time>
      </trkpt>
      <trkpt lat="40.01217" lon="-4.28044">
        <ele>548.6</ele>
        <time>2020-08-16 09:44:20</time>
      </trkpt>
      <trkpt lat="40.01192" lon="-4.28057">
        <ele>548.4</ele>
        <time>2020-08-16 09:44:26</time>
      </trkpt>
      <trkpt lat="40.01174" lon="-4.28066">
        <ele>548.2</ele>
        <time>2020-08-16 09:44:30</time>
      </trkpt>
      <trkpt lat="40.01152" lon="-4.28079">
        <ele>547.8</ele>
        <time>2020-08-16 09:44:35</time>
      </trkpt>
      <trkpt lat="40.01148" lon="-4.28081">
        <ele>547.8</ele>
        <time>2020-08-16 09:44:36</time>
      </trkpt>
      <trkpt lat="40.01144" lon="-4.28084">
        <ele>547.6</ele>
        <time>2020-08-16 09:44:37</time>
      </trkpt>
      <trkpt lat="40.0114" lon="-4.28087">
        <ele>547.6</ele>
        <time>2020-08-16 09:44:38</time>
      </trkpt>
      <trkpt lat="40.01136" lon="-4.2809">
        <ele>547.8</ele>
        <time>2020-08-16 09:44:39</time>
      </trkpt>
      <trkpt lat="40.01132" lon="-4.28092">
        <ele>547.6</ele>
        <time>2020-08-16 09:44:40</time>
      </trkpt>
      <trkpt lat="40.01127" lon="-4.28094">
        <ele>547.6</ele>
        <time>2020-08-16 09:44:41</time>
      </trkpt>
      <trkpt lat="40.01123" lon="-4.28097">
        <ele>547.6</ele>
        <time>2020-08-16 09:44:42</time>
      </trkpt>
      <trkpt lat="40.01118" lon="-4.28099">
        <ele>547.6</ele>
        <time>2020-08-16 09:44:43</time>
      </trkpt>
      <trkpt lat="40.01114" lon="-4.28102">
        <ele>547.6</ele>
        <time>2020-08-16 09:44:44</time>
      </trkpt>
      <trkpt lat="40.01102" lon="-4.28109">
        <ele>547.8</ele>
        <time>2020-08-16 09:44:47</time>
      </trkpt>
      <trkpt lat="40.01094" lon="-4.28114">
        <ele>547.8</ele>
        <time>2020-08-16 09:44:49</time>
      </trkpt>
      <trkpt lat="40.01085" lon="-4.28118">
        <ele>547.8</ele>
        <time>2020-08-16 09:44:51</time>
      </trkpt>
      <trkpt lat="40.01081" lon="-4.28121">
        <ele>547.8</ele>
        <time>2020-08-16 09:44:52</time>
      </trkpt>
      <trkpt lat="40.01077" lon="-4.28123">
        <ele>547.8</ele>
        <time>2020-08-16 09:44:53</time>
      </trkpt>
      <trkpt lat="40.01073" lon="-4.28125">
        <ele>548</ele>
        <time>2020-08-16 09:44:54</time>
      </trkpt>
      <trkpt lat="40.01069" lon="-4.28128">
        <ele>548</ele>
        <time>2020-08-16 09:44:55</time>
      </trkpt>
      <trkpt lat="40.01065" lon="-4.2813">
        <ele>548</ele>
        <time>2020-08-16 09:44:56</time>
      </trkpt>
      <trkpt lat="40.01061" lon="-4.28132">
        <ele>548</ele>
        <time>2020-08-16 09:44:57</time>
      </trkpt>
      <trkpt lat="40.01057" lon="-4.28134">
        <ele>548.2</ele>
        <time>2020-08-16 09:44:58</time>
      </trkpt>
      <trkpt lat="40.01053" lon="-4.28136">
        <ele>548.4</ele>
        <time>2020-08-16 09:44:59</time>
      </trkpt>
      <trkpt lat="40.01049" lon="-4.28138">
        <ele>548.4</ele>
        <time>2020-08-16 09:45:00</time>
      </trkpt>
      <trkpt lat="40.01046" lon="-4.2814">
        <ele>548.6</ele>
        <time>2020-08-16 09:45:01</time>
      </trkpt>
      <trkpt lat="40.01042" lon="-4.28143">
        <ele>548.6</ele>
        <time>2020-08-16 09:45:02</time>
      </trkpt>
      <trkpt lat="40.01038" lon="-4.28145">
        <ele>548.6</ele>
        <time>2020-08-16 09:45:03</time>
      </trkpt>
      <trkpt lat="40.01034" lon="-4.28148">
        <ele>548.8</ele>
        <time>2020-08-16 09:45:04</time>
      </trkpt>
      <trkpt lat="40.0103" lon="-4.2815">
        <ele>549</ele>
        <time>2020-08-16 09:45:05</time>
      </trkpt>
      <trkpt lat="40.01026" lon="-4.28152">
        <ele>549</ele>
        <time>2020-08-16 09:45:06</time>
      </trkpt>
      <trkpt lat="40.01022" lon="-4.28155">
        <ele>549.2</ele>
        <time>2020-08-16 09:45:07</time>
      </trkpt>
      <trkpt lat="40.01018" lon="-4.28157">
        <ele>549.2</ele>
        <time>2020-08-16 09:45:08</time>
      </trkpt>
      <trkpt lat="40.01014" lon="-4.28159">
        <ele>549.2</ele>
        <time>2020-08-16 09:45:09</time>
      </trkpt>
      <trkpt lat="40.0101" lon="-4.28161">
        <ele>549.4</ele>
        <time>2020-08-16 09:45:10</time>
      </trkpt>
      <trkpt lat="40.01007" lon="-4.28163">
        <ele>549.4</ele>
        <time>2020-08-16 09:45:11</time>
      </trkpt>
      <trkpt lat="40.01003" lon="-4.28166">
        <ele>549.4</ele>
        <time>2020-08-16 09:45:12</time>
      </trkpt>
      <trkpt lat="40.00999" lon="-4.28168">
        <ele>549.6</ele>
        <time>2020-08-16 09:45:13</time>
      </trkpt>
      <trkpt lat="40.00995" lon="-4.2817">
        <ele>549.6</ele>
        <time>2020-08-16 09:45:14</time>
      </trkpt>
      <trkpt lat="40.00992" lon="-4.28172">
        <ele>549.6</ele>
        <time>2020-08-16 09:45:15</time>
      </trkpt>
      <trkpt lat="40.00988" lon="-4.28174">
        <ele>549.6</ele>
        <time>2020-08-16 09:45:16</time>
      </trkpt>
      <trkpt lat="40.00984" lon="-4.28176">
        <ele>549.6</ele>
        <time>2020-08-16 09:45:17</time>
      </trkpt>
      <trkpt lat="40.00981" lon="-4.28178">
        <ele>549.6</ele>
        <time>2020-08-16 09:45:18</time>
      </trkpt>
      <trkpt lat="40.00977" lon="-4.28181">
        <ele>549.6</ele>
        <time>2020-08-16 09:45:19</time>
      </trkpt>
      <trkpt lat="40.00974" lon="-4.28182">
        <ele>549.6</ele>
        <time>2020-08-16 09:45:20</time>
      </trkpt>
      <trkpt lat="40.0097" lon="-4.28185">
        <ele>549.6</ele>
        <time>2020-08-16 09:45:21</time>
      </trkpt>
      <trkpt lat="40.00967" lon="-4.28187">
        <ele>549.8</ele>
        <time>2020-08-16 09:45:22</time>
      </trkpt>
      <trkpt lat="40.00963" lon="-4.28189">
        <ele>549.8</ele>
        <time>2020-08-16 09:45:23</time>
      </trkpt>
      <trkpt lat="40.0096" lon="-4.28191">
        <ele>549.8</ele>
        <time>2020-08-16 09:45:24</time>
      </trkpt>
      <trkpt lat="40.00956" lon="-4.28193">
        <ele>550</ele>
        <time>2020-08-16 09:45:25</time>
      </trkpt>
      <trkpt lat="40.00952" lon="-4.28195">
        <ele>550</ele>
        <time>2020-08-16 09:45:26</time>
      </trkpt>
      <trkpt lat="40.00948" lon="-4.28197">
        <ele>550</ele>
        <time>2020-08-16 09:45:27</time>
      </trkpt>
      <trkpt lat="40.00944" lon="-4.28199">
        <ele>550.2</ele>
        <time>2020-08-16 09:45:28</time>
      </trkpt>
      <trkpt lat="40.00941" lon="-4.28202">
        <ele>550.2</ele>
        <time>2020-08-16 09:45:29</time>
      </trkpt>
      <trkpt lat="40.00919" lon="-4.28214">
        <ele>550.6</ele>
        <time>2020-08-16 09:45:35</time>
      </trkpt>
      <trkpt lat="40.00915" lon="-4.28217">
        <ele>550.6</ele>
        <time>2020-08-16 09:45:36</time>
      </trkpt>
      <trkpt lat="40.00912" lon="-4.28219">
        <ele>550.6</ele>
        <time>2020-08-16 09:45:37</time>
      </trkpt>
      <trkpt lat="40.00908" lon="-4.28221">
        <ele>550.6</ele>
        <time>2020-08-16 09:45:38</time>
      </trkpt>
      <trkpt lat="40.00905" lon="-4.28224">
        <ele>550.8</ele>
        <time>2020-08-16 09:45:39</time>
      </trkpt>
      <trkpt lat="40.00902" lon="-4.28227">
        <ele>550.8</ele>
        <time>2020-08-16 09:45:40</time>
      </trkpt>
      <trkpt lat="40.00898" lon="-4.2823">
        <ele>550.8</ele>
        <time>2020-08-16 09:45:41</time>
      </trkpt>
      <trkpt lat="40.00894" lon="-4.28232">
        <ele>550.8</ele>
        <time>2020-08-16 09:45:42</time>
      </trkpt>
      <trkpt lat="40.00891" lon="-4.28235">
        <ele>550.8</ele>
        <time>2020-08-16 09:45:43</time>
      </trkpt>
      <trkpt lat="40.00887" lon="-4.28236">
        <ele>550.8</ele>
        <time>2020-08-16 09:45:44</time>
      </trkpt>
      <trkpt lat="40.00868" lon="-4.28244">
        <ele>550.8</ele>
        <time>2020-08-16 09:45:49</time>
      </trkpt>
      <trkpt lat="40.0086" lon="-4.28248">
        <ele>551</ele>
        <time>2020-08-16 09:45:51</time>
      </trkpt>
      <trkpt lat="40.00857" lon="-4.2825">
        <ele>551</ele>
        <time>2020-08-16 09:45:52</time>
      </trkpt>
      <trkpt lat="40.00853" lon="-4.28252">
        <ele>551</ele>
        <time>2020-08-16 09:45:53</time>
      </trkpt>
      <trkpt lat="40.00849" lon="-4.28254">
        <ele>551</ele>
        <time>2020-08-16 09:45:54</time>
      </trkpt>
      <trkpt lat="40.00834" lon="-4.28263">
        <ele>551.2</ele>
        <time>2020-08-16 09:45:58</time>
      </trkpt>
      <trkpt lat="40.00826" lon="-4.28269">
        <ele>551.4</ele>
        <time>2020-08-16 09:46:00</time>
      </trkpt>
      <trkpt lat="40.00783" lon="-4.28295">
        <ele>551.6</ele>
        <time>2020-08-16 09:46:11</time>
      </trkpt>
      <trkpt lat="40.00779" lon="-4.28298">
        <ele>551.8</ele>
        <time>2020-08-16 09:46:12</time>
      </trkpt>
      <trkpt lat="40.00775" lon="-4.283">
        <ele>551.8</ele>
        <time>2020-08-16 09:46:13</time>
      </trkpt>
      <trkpt lat="40.00771" lon="-4.28303">
        <ele>551.8</ele>
        <time>2020-08-16 09:46:14</time>
      </trkpt>
      <trkpt lat="40.00768" lon="-4.28306">
        <ele>552</ele>
        <time>2020-08-16 09:46:15</time>
      </trkpt>
      <trkpt lat="40.0076" lon="-4.28311">
        <ele>552.2</ele>
        <time>2020-08-16 09:46:17</time>
      </trkpt>
      <trkpt lat="40.00749" lon="-4.28318">
        <ele>552.2</ele>
        <time>2020-08-16 09:46:20</time>
      </trkpt>
      <trkpt lat="40.00745" lon="-4.28319">
        <ele>552.2</ele>
        <time>2020-08-16 09:46:21</time>
      </trkpt>
      <trkpt lat="40.00741" lon="-4.28321">
        <ele>552.2</ele>
        <time>2020-08-16 09:46:22</time>
      </trkpt>
      <trkpt lat="40.00737" lon="-4.28323">
        <ele>552.2</ele>
        <time>2020-08-16 09:46:23</time>
      </trkpt>
      <trkpt lat="40.00733" lon="-4.28325">
        <ele>552.2</ele>
        <time>2020-08-16 09:46:24</time>
      </trkpt>
      <trkpt lat="40.0073" lon="-4.28327">
        <ele>552.2</ele>
        <time>2020-08-16 09:46:25</time>
      </trkpt>
      <trkpt lat="40.00726" lon="-4.28328">
        <ele>552.4</ele>
        <time>2020-08-16 09:46:26</time>
      </trkpt>
      <trkpt lat="40.00723" lon="-4.2833">
        <ele>552.4</ele>
        <time>2020-08-16 09:46:27</time>
      </trkpt>
      <trkpt lat="40.00719" lon="-4.28333">
        <ele>552.4</ele>
        <time>2020-08-16 09:46:28</time>
      </trkpt>
      <trkpt lat="40.00716" lon="-4.28335">
        <ele>552.4</ele>
        <time>2020-08-16 09:46:29</time>
      </trkpt>
      <trkpt lat="40.00712" lon="-4.28337">
        <ele>552.6</ele>
        <time>2020-08-16 09:46:30</time>
      </trkpt>
      <trkpt lat="40.00709" lon="-4.28339">
        <ele>552.6</ele>
        <time>2020-08-16 09:46:31</time>
      </trkpt>
      <trkpt lat="40.00705" lon="-4.28341">
        <ele>552.6</ele>
        <time>2020-08-16 09:46:32</time>
      </trkpt>
      <trkpt lat="40.00701" lon="-4.28343">
        <ele>552.6</ele>
        <time>2020-08-16 09:46:33</time>
      </trkpt>
      <trkpt lat="40.00697" lon="-4.28346">
        <ele>552.6</ele>
        <time>2020-08-16 09:46:34</time>
      </trkpt>
      <trkpt lat="40.00693" lon="-4.28348">
        <ele>552.8</ele>
        <time>2020-08-16 09:46:35</time>
      </trkpt>
      <trkpt lat="40.00689" lon="-4.2835">
        <ele>552.8</ele>
        <time>2020-08-16 09:46:36</time>
      </trkpt>
      <trkpt lat="40.00677" lon="-4.28357">
        <ele>552.8</ele>
        <time>2020-08-16 09:46:39</time>
      </trkpt>
      <trkpt lat="40.00647" lon="-4.28372">
        <ele>552.8</ele>
        <time>2020-08-16 09:46:46</time>
      </trkpt>
      <trkpt lat="40.00637" lon="-4.28373">
        <ele>552.6</ele>
        <time>2020-08-16 09:46:48</time>
      </trkpt>
      <trkpt lat="40.00632" lon="-4.28373">
        <ele>552.6</ele>
        <time>2020-08-16 09:46:49</time>
      </trkpt>
      <trkpt lat="40.00617" lon="-4.28371">
        <ele>552.4</ele>
        <time>2020-08-16 09:46:52</time>
      </trkpt>
      <trkpt lat="40.00613" lon="-4.28371">
        <ele>552.4</ele>
        <time>2020-08-16 09:46:53</time>
      </trkpt>
      <trkpt lat="40.00598" lon="-4.28372">
        <ele>552.2</ele>
        <time>2020-08-16 09:46:56</time>
      </trkpt>
      <trkpt lat="40.00593" lon="-4.28371">
        <ele>552.2</ele>
        <time>2020-08-16 09:46:57</time>
      </trkpt>
      <trkpt lat="40.00588" lon="-4.28369">
        <ele>552.2</ele>
        <time>2020-08-16 09:46:58</time>
      </trkpt>
      <trkpt lat="40.00567" lon="-4.28362">
        <ele>552.2</ele>
        <time>2020-08-16 09:47:02</time>
      </trkpt>
      <trkpt lat="40.00561" lon="-4.28362">
        <ele>552.2</ele>
        <time>2020-08-16 09:47:03</time>
      </trkpt>
      <trkpt lat="40.00551" lon="-4.28361">
        <ele>552.2</ele>
        <time>2020-08-16 09:47:05</time>
      </trkpt>
      <trkpt lat="40.00509" lon="-4.28359">
        <ele>551.4</ele>
        <time>2020-08-16 09:47:12</time>
      </trkpt>
      <trkpt lat="40.00488" lon="-4.28355">
        <ele>551</ele>
        <time>2020-08-16 09:47:15</time>
      </trkpt>
      <trkpt lat="40.00473" lon="-4.28352">
        <ele>549.4</ele>
        <time>2020-08-16 09:47:17</time>
      </trkpt>
      <trkpt lat="40.00458" lon="-4.28351">
        <ele>548.2</ele>
        <time>2020-08-16 09:47:19</time>
      </trkpt>
      <trkpt lat="40.0045" lon="-4.28351">
        <ele>547.8</ele>
        <time>2020-08-16 09:47:20</time>
      </trkpt>
      <trkpt lat="40.00436" lon="-4.28351">
        <ele>547</ele>
        <time>2020-08-16 09:47:22</time>
      </trkpt>
      <trkpt lat="40.00422" lon="-4.28352">
        <ele>546.6</ele>
        <time>2020-08-16 09:47:24</time>
      </trkpt>
      <trkpt lat="40.00408" lon="-4.28355">
        <ele>545.8</ele>
        <time>2020-08-16 09:47:26</time>
      </trkpt>
      <trkpt lat="40.00401" lon="-4.28356">
        <ele>545.6</ele>
        <time>2020-08-16 09:47:27</time>
      </trkpt>
      <trkpt lat="40.00394" lon="-4.28357">
        <ele>545.4</ele>
        <time>2020-08-16 09:47:28</time>
      </trkpt>
      <trkpt lat="40.00387" lon="-4.28358">
        <ele>545.2</ele>
        <time>2020-08-16 09:47:29</time>
      </trkpt>
      <trkpt lat="40.00381" lon="-4.28358">
        <ele>545</ele>
        <time>2020-08-16 09:47:30</time>
      </trkpt>
      <trkpt lat="40.00374" lon="-4.28359">
        <ele>544.8</ele>
        <time>2020-08-16 09:47:31</time>
      </trkpt>
      <trkpt lat="40.00368" lon="-4.2836">
        <ele>544.6</ele>
        <time>2020-08-16 09:47:32</time>
      </trkpt>
      <trkpt lat="40.00361" lon="-4.28361">
        <ele>544.6</ele>
        <time>2020-08-16 09:47:33</time>
      </trkpt>
      <trkpt lat="40.00355" lon="-4.28362">
        <ele>544.6</ele>
        <time>2020-08-16 09:47:34</time>
      </trkpt>
      <trkpt lat="40.00349" lon="-4.28364">
        <ele>544.6</ele>
        <time>2020-08-16 09:47:35</time>
      </trkpt>
      <trkpt lat="40.00342" lon="-4.28365">
        <ele>544.6</ele>
        <time>2020-08-16 09:47:36</time>
      </trkpt>
      <trkpt lat="40.00336" lon="-4.28366">
        <ele>544.4</ele>
        <time>2020-08-16 09:47:37</time>
      </trkpt>
      <trkpt lat="40.00329" lon="-4.28367">
        <ele>544.2</ele>
        <time>2020-08-16 09:47:38</time>
      </trkpt>
      <trkpt lat="40.00323" lon="-4.28369">
        <ele>543.8</ele>
        <time>2020-08-16 09:47:39</time>
      </trkpt>
      <trkpt lat="40.00309" lon="-4.28371">
        <ele>543.2</ele>
        <time>2020-08-16 09:47:41</time>
      </trkpt>
      <trkpt lat="40.0029" lon="-4.28374">
        <ele>542.6</ele>
        <time>2020-08-16 09:47:44</time>
      </trkpt>
      <trkpt lat="40.00257" lon="-4.2838">
        <ele>541.4</ele>
        <time>2020-08-16 09:47:49</time>
      </trkpt>
      <trkpt lat="40.00244" lon="-4.28383">
        <ele>540.8</ele>
        <time>2020-08-16 09:47:51</time>
      </trkpt>
      <trkpt lat="40.00217" lon="-4.28391">
        <ele>540.2</ele>
        <time>2020-08-16 09:47:55</time>
      </trkpt>
      <trkpt lat="40.00204" lon="-4.28395">
        <ele>540.2</ele>
        <time>2020-08-16 09:47:57</time>
      </trkpt>
      <trkpt lat="40.00185" lon="-4.28402">
        <ele>539.8</ele>
        <time>2020-08-16 09:48:00</time>
      </trkpt>
      <trkpt lat="40.00179" lon="-4.28404">
        <ele>539.6</ele>
        <time>2020-08-16 09:48:01</time>
      </trkpt>
      <trkpt lat="40.00173" lon="-4.28407">
        <ele>539.6</ele>
        <time>2020-08-16 09:48:02</time>
      </trkpt>
      <trkpt lat="40.00167" lon="-4.28409">
        <ele>539.6</ele>
        <time>2020-08-16 09:48:03</time>
      </trkpt>
      <trkpt lat="40.0016" lon="-4.2841">
        <ele>539.4</ele>
        <time>2020-08-16 09:48:04</time>
      </trkpt>
      <trkpt lat="40.00153" lon="-4.28412">
        <ele>539.2</ele>
        <time>2020-08-16 09:48:05</time>
      </trkpt>
      <trkpt lat="40.00147" lon="-4.28412">
        <ele>539.2</ele>
        <time>2020-08-16 09:48:06</time>
      </trkpt>
      <trkpt lat="40.0014" lon="-4.28412">
        <ele>539.2</ele>
        <time>2020-08-16 09:48:07</time>
      </trkpt>
      <trkpt lat="40.00134" lon="-4.28412">
        <ele>539.2</ele>
        <time>2020-08-16 09:48:08</time>
      </trkpt>
      <trkpt lat="40.00127" lon="-4.28411">
        <ele>539</ele>
        <time>2020-08-16 09:48:09</time>
      </trkpt>
      <trkpt lat="40.00121" lon="-4.2841">
        <ele>539</ele>
        <time>2020-08-16 09:48:10</time>
      </trkpt>
      <trkpt lat="40.00115" lon="-4.28408">
        <ele>539</ele>
        <time>2020-08-16 09:48:11</time>
      </trkpt>
      <trkpt lat="40.00109" lon="-4.28406">
        <ele>538.8</ele>
        <time>2020-08-16 09:48:12</time>
      </trkpt>
      <trkpt lat="40.00103" lon="-4.28404">
        <ele>538.4</ele>
        <time>2020-08-16 09:48:13</time>
      </trkpt>
      <trkpt lat="40.00096" lon="-4.28401">
        <ele>538.4</ele>
        <time>2020-08-16 09:48:14</time>
      </trkpt>
      <trkpt lat="40.0009" lon="-4.28398">
        <ele>538.2</ele>
        <time>2020-08-16 09:48:15</time>
      </trkpt>
      <trkpt lat="40.00085" lon="-4.28395">
        <ele>538.2</ele>
        <time>2020-08-16 09:48:16</time>
      </trkpt>
      <trkpt lat="40.00079" lon="-4.28392">
        <ele>538.2</ele>
        <time>2020-08-16 09:48:17</time>
      </trkpt>
      <trkpt lat="40.00073" lon="-4.28389">
        <ele>538</ele>
        <time>2020-08-16 09:48:18</time>
      </trkpt>
      <trkpt lat="40.00067" lon="-4.28385">
        <ele>538</ele>
        <time>2020-08-16 09:48:19</time>
      </trkpt>
      <trkpt lat="40.00061" lon="-4.28382">
        <ele>537.8</ele>
        <time>2020-08-16 09:48:20</time>
      </trkpt>
      <trkpt lat="40.00055" lon="-4.28377">
        <ele>537.6</ele>
        <time>2020-08-16 09:48:21</time>
      </trkpt>
      <trkpt lat="40.0004" lon="-4.28363">
        <ele>537</ele>
        <time>2020-08-16 09:48:24</time>
      </trkpt>
      <trkpt lat="40.00034" lon="-4.28358">
        <ele>536.8</ele>
        <time>2020-08-16 09:48:25</time>
      </trkpt>
      <trkpt lat="40.00011" lon="-4.2833">
        <ele>536.4</ele>
        <time>2020-08-16 09:48:30</time>
      </trkpt>
      <trkpt lat="40.00006" lon="-4.28324">
        <ele>536.2</ele>
        <time>2020-08-16 09:48:31</time>
      </trkpt>
      <trkpt lat="40.00002" lon="-4.28318">
        <ele>536.2</ele>
        <time>2020-08-16 09:48:32</time>
      </trkpt>
      <trkpt lat="39.99997" lon="-4.28313">
        <ele>536.2</ele>
        <time>2020-08-16 09:48:33</time>
      </trkpt>
      <trkpt lat="39.99993" lon="-4.28307">
        <ele>536</ele>
        <time>2020-08-16 09:48:34</time>
      </trkpt>
      <trkpt lat="39.99988" lon="-4.28301">
        <ele>536</ele>
        <time>2020-08-16 09:48:35</time>
      </trkpt>
      <trkpt lat="39.99984" lon="-4.28295">
        <ele>535.8</ele>
        <time>2020-08-16 09:48:36</time>
      </trkpt>
      <trkpt lat="39.99979" lon="-4.28289">
        <ele>535.6</ele>
        <time>2020-08-16 09:48:37</time>
      </trkpt>
      <trkpt lat="39.99974" lon="-4.28283">
        <ele>535.4</ele>
        <time>2020-08-16 09:48:38</time>
      </trkpt>
      <trkpt lat="39.99969" lon="-4.28278">
        <ele>535.2</ele>
        <time>2020-08-16 09:48:39</time>
      </trkpt>
      <trkpt lat="39.99964" lon="-4.28273">
        <ele>534.8</ele>
        <time>2020-08-16 09:48:40</time>
      </trkpt>
      <trkpt lat="39.99958" lon="-4.28267">
        <ele>534.4</ele>
        <time>2020-08-16 09:48:41</time>
      </trkpt>
      <trkpt lat="39.99941" lon="-4.28253">
        <ele>534</ele>
        <time>2020-08-16 09:48:44</time>
      </trkpt>
      <trkpt lat="39.99921" lon="-4.28235">
        <ele>533.8</ele>
        <time>2020-08-16 09:48:48</time>
      </trkpt>
      <trkpt lat="39.99916" lon="-4.2823">
        <ele>533.8</ele>
        <time>2020-08-16 09:48:49</time>
      </trkpt>
      <trkpt lat="39.99911" lon="-4.28226">
        <ele>533.8</ele>
        <time>2020-08-16 09:48:50</time>
      </trkpt>
      <trkpt lat="39.99907" lon="-4.28222">
        <ele>533.8</ele>
        <time>2020-08-16 09:48:51</time>
      </trkpt>
      <trkpt lat="39.99903" lon="-4.28218">
        <ele>533.8</ele>
        <time>2020-08-16 09:48:52</time>
      </trkpt>
      <trkpt lat="39.99879" lon="-4.28194">
        <ele>533.8</ele>
        <time>2020-08-16 09:48:57</time>
      </trkpt>
      <trkpt lat="39.99874" lon="-4.28189">
        <ele>533.8</ele>
        <time>2020-08-16 09:48:58</time>
      </trkpt>
      <trkpt lat="39.9987" lon="-4.28184">
        <ele>533.8</ele>
        <time>2020-08-16 09:48:59</time>
      </trkpt>
      <trkpt lat="39.99842" lon="-4.28156">
        <ele>533</ele>
        <time>2020-08-16 09:49:05</time>
      </trkpt>
      <trkpt lat="39.99837" lon="-4.28151">
        <ele>532.8</ele>
        <time>2020-08-16 09:49:06</time>
      </trkpt>
      <trkpt lat="39.99833" lon="-4.28147">
        <ele>532.8</ele>
        <time>2020-08-16 09:49:07</time>
      </trkpt>
      <trkpt lat="39.99828" lon="-4.28143">
        <ele>532.8</ele>
        <time>2020-08-16 09:49:08</time>
      </trkpt>
      <trkpt lat="39.99823" lon="-4.28138">
        <ele>532.6</ele>
        <time>2020-08-16 09:49:09</time>
      </trkpt>
      <trkpt lat="39.99819" lon="-4.28133">
        <ele>532.6</ele>
        <time>2020-08-16 09:49:10</time>
      </trkpt>
      <trkpt lat="39.99813" lon="-4.28129">
        <ele>532.4</ele>
        <time>2020-08-16 09:49:11</time>
      </trkpt>
      <trkpt lat="39.99808" lon="-4.28124">
        <ele>532.4</ele>
        <time>2020-08-16 09:49:12</time>
      </trkpt>
      <trkpt lat="39.99803" lon="-4.2812">
        <ele>532.4</ele>
        <time>2020-08-16 09:49:13</time>
      </trkpt>
      <trkpt lat="39.99777" lon="-4.28099">
        <ele>532.2</ele>
        <time>2020-08-16 09:49:18</time>
      </trkpt>
      <trkpt lat="39.99761" lon="-4.28087">
        <ele>531.6</ele>
        <time>2020-08-16 09:49:21</time>
      </trkpt>
      <trkpt lat="39.99745" lon="-4.28076">
        <ele>531.4</ele>
        <time>2020-08-16 09:49:24</time>
      </trkpt>
      <trkpt lat="39.99739" lon="-4.28073">
        <ele>531.4</ele>
        <time>2020-08-16 09:49:25</time>
      </trkpt>
      <trkpt lat="39.99734" lon="-4.2807">
        <ele>531.2</ele>
        <time>2020-08-16 09:49:26</time>
      </trkpt>
      <trkpt lat="39.99728" lon="-4.28067">
        <ele>531.2</ele>
        <time>2020-08-16 09:49:27</time>
      </trkpt>
      <trkpt lat="39.99723" lon="-4.28064">
        <ele>531</ele>
        <time>2020-08-16 09:49:28</time>
      </trkpt>
      <trkpt lat="39.99718" lon="-4.28061">
        <ele>531</ele>
        <time>2020-08-16 09:49:29</time>
      </trkpt>
      <trkpt lat="39.99712" lon="-4.28058">
        <ele>531</ele>
        <time>2020-08-16 09:49:30</time>
      </trkpt>
      <trkpt lat="39.99707" lon="-4.28055">
        <ele>531</ele>
        <time>2020-08-16 09:49:31</time>
      </trkpt>
      <trkpt lat="39.99702" lon="-4.28051">
        <ele>530.8</ele>
        <time>2020-08-16 09:49:32</time>
      </trkpt>
      <trkpt lat="39.99697" lon="-4.28048">
        <ele>530.8</ele>
        <time>2020-08-16 09:49:33</time>
      </trkpt>
      <trkpt lat="39.99692" lon="-4.28044">
        <ele>530.8</ele>
        <time>2020-08-16 09:49:34</time>
      </trkpt>
      <trkpt lat="39.99688" lon="-4.28041">
        <ele>530.6</ele>
        <time>2020-08-16 09:49:35</time>
      </trkpt>
      <trkpt lat="39.99683" lon="-4.28037">
        <ele>530.6</ele>
        <time>2020-08-16 09:49:36</time>
      </trkpt>
      <trkpt lat="39.99679" lon="-4.28033">
        <ele>530.6</ele>
        <time>2020-08-16 09:49:37</time>
      </trkpt>
      <trkpt lat="39.99674" lon="-4.2803">
        <ele>530.6</ele>
        <time>2020-08-16 09:49:38</time>
      </trkpt>
      <trkpt lat="39.9967" lon="-4.28027">
        <ele>530.6</ele>
        <time>2020-08-16 09:49:39</time>
      </trkpt>
      <trkpt lat="39.99666" lon="-4.28024">
        <ele>530.6</ele>
        <time>2020-08-16 09:49:40</time>
      </trkpt>
      <trkpt lat="39.99661" lon="-4.28022">
        <ele>530.4</ele>
        <time>2020-08-16 09:49:41</time>
      </trkpt>
      <trkpt lat="39.99656" lon="-4.28021">
        <ele>530.4</ele>
        <time>2020-08-16 09:49:42</time>
      </trkpt>
      <trkpt lat="39.99651" lon="-4.28021">
        <ele>530.4</ele>
        <time>2020-08-16 09:49:43</time>
      </trkpt>
      <trkpt lat="39.99647" lon="-4.28021">
        <ele>530.4</ele>
        <time>2020-08-16 09:49:44</time>
      </trkpt>
      <trkpt lat="39.99642" lon="-4.28022">
        <ele>530.6</ele>
        <time>2020-08-16 09:49:45</time>
      </trkpt>
      <trkpt lat="39.99638" lon="-4.28024">
        <ele>530.6</ele>
        <time>2020-08-16 09:49:46</time>
      </trkpt>
      <trkpt lat="39.99634" lon="-4.28026">
        <ele>530.6</ele>
        <time>2020-08-16 09:49:47</time>
      </trkpt>
      <trkpt lat="39.99631" lon="-4.28029">
        <ele>530.6</ele>
        <time>2020-08-16 09:49:48</time>
      </trkpt>
      <trkpt lat="39.99627" lon="-4.28032">
        <ele>530.8</ele>
        <time>2020-08-16 09:49:49</time>
      </trkpt>
      <trkpt lat="39.99624" lon="-4.28035">
        <ele>531</ele>
        <time>2020-08-16 09:49:50</time>
      </trkpt>
      <trkpt lat="39.99622" lon="-4.28038">
        <ele>531.4</ele>
        <time>2020-08-16 09:49:51</time>
      </trkpt>
      <trkpt lat="39.99619" lon="-4.28041">
        <ele>531.6</ele>
        <time>2020-08-16 09:49:52</time>
      </trkpt>
      <trkpt lat="39.99615" lon="-4.28044">
        <ele>531.8</ele>
        <time>2020-08-16 09:49:53</time>
      </trkpt>
      <trkpt lat="39.99612" lon="-4.28046">
        <ele>532.2</ele>
        <time>2020-08-16 09:49:54</time>
      </trkpt>
      <trkpt lat="39.99609" lon="-4.28049">
        <ele>532.2</ele>
        <time>2020-08-16 09:49:55</time>
      </trkpt>
      <trkpt lat="39.99606" lon="-4.28052">
        <ele>532.4</ele>
        <time>2020-08-16 09:49:56</time>
      </trkpt>
      <trkpt lat="39.99603" lon="-4.28055">
        <ele>532.4</ele>
        <time>2020-08-16 09:49:57</time>
      </trkpt>
      <trkpt lat="39.99599" lon="-4.28058">
        <ele>532.6</ele>
        <time>2020-08-16 09:49:58</time>
      </trkpt>
      <trkpt lat="39.99596" lon="-4.2806">
        <ele>532.8</ele>
        <time>2020-08-16 09:49:59</time>
      </trkpt>
      <trkpt lat="39.99594" lon="-4.28063">
        <ele>533</ele>
        <time>2020-08-16 09:50:00</time>
      </trkpt>
      <trkpt lat="39.9959" lon="-4.28066">
        <ele>533</ele>
        <time>2020-08-16 09:50:01</time>
      </trkpt>
      <trkpt lat="39.99587" lon="-4.28068">
        <ele>533</ele>
        <time>2020-08-16 09:50:02</time>
      </trkpt>
      <trkpt lat="39.99584" lon="-4.28071">
        <ele>533.2</ele>
        <time>2020-08-16 09:50:03</time>
      </trkpt>
      <trkpt lat="39.99581" lon="-4.28073">
        <ele>533.2</ele>
        <time>2020-08-16 09:50:04</time>
      </trkpt>
      <trkpt lat="39.99578" lon="-4.28076">
        <ele>533.4</ele>
        <time>2020-08-16 09:50:05</time>
      </trkpt>
      <trkpt lat="39.99575" lon="-4.28079">
        <ele>534</ele>
        <time>2020-08-16 09:50:06</time>
      </trkpt>
      <trkpt lat="39.99572" lon="-4.28082">
        <ele>534.2</ele>
        <time>2020-08-16 09:50:07</time>
      </trkpt>
      <trkpt lat="39.99569" lon="-4.28085">
        <ele>534.4</ele>
        <time>2020-08-16 09:50:08</time>
      </trkpt>
      <trkpt lat="39.99566" lon="-4.28088">
        <ele>534.6</ele>
        <time>2020-08-16 09:50:09</time>
      </trkpt>
      <trkpt lat="39.99563" lon="-4.28091">
        <ele>534.8</ele>
        <time>2020-08-16 09:50:10</time>
      </trkpt>
      <trkpt lat="39.9956" lon="-4.28093">
        <ele>535</ele>
        <time>2020-08-16 09:50:11</time>
      </trkpt>
      <trkpt lat="39.99557" lon="-4.28096">
        <ele>535.4</ele>
        <time>2020-08-16 09:50:12</time>
      </trkpt>
      <trkpt lat="39.99554" lon="-4.28099">
        <ele>535.6</ele>
        <time>2020-08-16 09:50:13</time>
      </trkpt>
      <trkpt lat="39.99551" lon="-4.28101">
        <ele>535.6</ele>
        <time>2020-08-16 09:50:14</time>
      </trkpt>
      <trkpt lat="39.99548" lon="-4.28104">
        <ele>535.8</ele>
        <time>2020-08-16 09:50:15</time>
      </trkpt>
      <trkpt lat="39.99545" lon="-4.28106">
        <ele>535.8</ele>
        <time>2020-08-16 09:50:16</time>
      </trkpt>
      <trkpt lat="39.99543" lon="-4.28108">
        <ele>536</ele>
        <time>2020-08-16 09:50:17</time>
      </trkpt>
      <trkpt lat="39.9954" lon="-4.28111">
        <ele>536</ele>
        <time>2020-08-16 09:50:18</time>
      </trkpt>
      <trkpt lat="39.99538" lon="-4.28113">
        <ele>536</ele>
        <time>2020-08-16 09:50:19</time>
      </trkpt>
      <trkpt lat="39.99535" lon="-4.28115">
        <ele>536.4</ele>
        <time>2020-08-16 09:50:20</time>
      </trkpt>
      <trkpt lat="39.99533" lon="-4.28118">
        <ele>536.4</ele>
        <time>2020-08-16 09:50:21</time>
      </trkpt>
      <trkpt lat="39.9953" lon="-4.2812">
        <ele>536.8</ele>
        <time>2020-08-16 09:50:22</time>
      </trkpt>
      <trkpt lat="39.99528" lon="-4.28122">
        <ele>537</ele>
        <time>2020-08-16 09:50:23</time>
      </trkpt>
      <trkpt lat="39.99525" lon="-4.28124">
        <ele>537.2</ele>
        <time>2020-08-16 09:50:24</time>
      </trkpt>
      <trkpt lat="39.99523" lon="-4.28126">
        <ele>537.4</ele>
        <time>2020-08-16 09:50:25</time>
      </trkpt>
      <trkpt lat="39.9952" lon="-4.28128">
        <ele>537.6</ele>
        <time>2020-08-16 09:50:26</time>
      </trkpt>
      <trkpt lat="39.99518" lon="-4.2813">
        <ele>537.8</ele>
        <time>2020-08-16 09:50:27</time>
      </trkpt>
      <trkpt lat="39.99515" lon="-4.28132">
        <ele>537.8</ele>
        <time>2020-08-16 09:50:28</time>
      </trkpt>
      <trkpt lat="39.99513" lon="-4.28134">
        <ele>538</ele>
        <time>2020-08-16 09:50:29</time>
      </trkpt>
      <trkpt lat="39.99511" lon="-4.28135">
        <ele>538</ele>
        <time>2020-08-16 09:50:30</time>
      </trkpt>
      <trkpt lat="39.99508" lon="-4.28137">
        <ele>538.4</ele>
        <time>2020-08-16 09:50:31</time>
      </trkpt>
      <trkpt lat="39.99506" lon="-4.28138">
        <ele>538.6</ele>
        <time>2020-08-16 09:50:32</time>
      </trkpt>
      <trkpt lat="39.99503" lon="-4.2814">
        <ele>538.6</ele>
        <time>2020-08-16 09:50:33</time>
      </trkpt>
      <trkpt lat="39.995" lon="-4.28141">
        <ele>538.8</ele>
        <time>2020-08-16 09:50:34</time>
      </trkpt>
      <trkpt lat="39.99496" lon="-4.28142">
        <ele>538.8</ele>
        <time>2020-08-16 09:50:35</time>
      </trkpt>
      <trkpt lat="39.99492" lon="-4.28143">
        <ele>538.8</ele>
        <time>2020-08-16 09:50:36</time>
      </trkpt>
      <trkpt lat="39.99488" lon="-4.28144">
        <ele>538.8</ele>
        <time>2020-08-16 09:50:37</time>
      </trkpt>
      <trkpt lat="39.99456" lon="-4.28148">
        <ele>538</ele>
        <time>2020-08-16 09:50:42</time>
      </trkpt>
      <trkpt lat="39.99434" lon="-4.28152">
        <ele>536.6</ele>
        <time>2020-08-16 09:50:45</time>
      </trkpt>
      <trkpt lat="39.99427" lon="-4.28154">
        <ele>536.2</ele>
        <time>2020-08-16 09:50:46</time>
      </trkpt>
      <trkpt lat="39.99412" lon="-4.2816">
        <ele>535</ele>
        <time>2020-08-16 09:50:48</time>
      </trkpt>
      <trkpt lat="39.99397" lon="-4.28167">
        <ele>534.4</ele>
        <time>2020-08-16 09:50:50</time>
      </trkpt>
      <trkpt lat="39.9939" lon="-4.28171">
        <ele>534.2</ele>
        <time>2020-08-16 09:50:51</time>
      </trkpt>
      <trkpt lat="39.99383" lon="-4.28175">
        <ele>533.8</ele>
        <time>2020-08-16 09:50:52</time>
      </trkpt>
      <trkpt lat="39.99361" lon="-4.28187">
        <ele>532.2</ele>
        <time>2020-08-16 09:50:55</time>
      </trkpt>
      <trkpt lat="39.99354" lon="-4.28191">
        <ele>532</ele>
        <time>2020-08-16 09:50:56</time>
      </trkpt>
      <trkpt lat="39.99347" lon="-4.28195">
        <ele>531.6</ele>
        <time>2020-08-16 09:50:57</time>
      </trkpt>
      <trkpt lat="39.9934" lon="-4.28199">
        <ele>531.2</ele>
        <time>2020-08-16 09:50:58</time>
      </trkpt>
      <trkpt lat="39.99333" lon="-4.28203">
        <ele>531.2</ele>
        <time>2020-08-16 09:50:59</time>
      </trkpt>
      <trkpt lat="39.99326" lon="-4.28206">
        <ele>531</ele>
        <time>2020-08-16 09:51:00</time>
      </trkpt>
      <trkpt lat="39.99319" lon="-4.28209">
        <ele>530.8</ele>
        <time>2020-08-16 09:51:01</time>
      </trkpt>
      <trkpt lat="39.99313" lon="-4.28214">
        <ele>530.4</ele>
        <time>2020-08-16 09:51:02</time>
      </trkpt>
      <trkpt lat="39.99308" lon="-4.28218">
        <ele>530.2</ele>
        <time>2020-08-16 09:51:03</time>
      </trkpt>
      <trkpt lat="39.99304" lon="-4.28225">
        <ele>530</ele>
        <time>2020-08-16 09:51:04</time>
      </trkpt>
      <trkpt lat="39.99301" lon="-4.28231">
        <ele>529.6</ele>
        <time>2020-08-16 09:51:05</time>
      </trkpt>
      <trkpt lat="39.99298" lon="-4.28237">
        <ele>529.4</ele>
        <time>2020-08-16 09:51:06</time>
      </trkpt>
      <trkpt lat="39.99295" lon="-4.28243">
        <ele>529.2</ele>
        <time>2020-08-16 09:51:07</time>
      </trkpt>
      <trkpt lat="39.9929" lon="-4.28249">
        <ele>529.2</ele>
        <time>2020-08-16 09:51:08</time>
      </trkpt>
      <trkpt lat="39.99285" lon="-4.28253">
        <ele>529.2</ele>
        <time>2020-08-16 09:51:09</time>
      </trkpt>
      <trkpt lat="39.9928" lon="-4.28259">
        <ele>529</ele>
        <time>2020-08-16 09:51:10</time>
      </trkpt>
      <trkpt lat="39.99275" lon="-4.28265">
        <ele>528.4</ele>
        <time>2020-08-16 09:51:11</time>
      </trkpt>
      <trkpt lat="39.9927" lon="-4.28271">
        <ele>528.2</ele>
        <time>2020-08-16 09:51:12</time>
      </trkpt>
      <trkpt lat="39.99267" lon="-4.28275">
        <ele>528</ele>
        <time>2020-08-16 09:51:13</time>
      </trkpt>
      <trkpt lat="39.99263" lon="-4.2828">
        <ele>527.8</ele>
        <time>2020-08-16 09:51:14</time>
      </trkpt>
      <trkpt lat="39.99258" lon="-4.28285">
        <ele>527.8</ele>
        <time>2020-08-16 09:51:15</time>
      </trkpt>
      <trkpt lat="39.99252" lon="-4.2829">
        <ele>527.6</ele>
        <time>2020-08-16 09:51:16</time>
      </trkpt>
      <trkpt lat="39.99247" lon="-4.28292">
        <ele>527.4</ele>
        <time>2020-08-16 09:51:17</time>
      </trkpt>
      <trkpt lat="39.99243" lon="-4.28293">
        <ele>527.2</ele>
        <time>2020-08-16 09:51:18</time>
      </trkpt>
      <trkpt lat="39.99239" lon="-4.28295">
        <ele>527.2</ele>
        <time>2020-08-16 09:51:19</time>
      </trkpt>
      <trkpt lat="39.99234" lon="-4.28297">
        <ele>527.2</ele>
        <time>2020-08-16 09:51:20</time>
      </trkpt>
      <trkpt lat="39.9923" lon="-4.28299">
        <ele>527</ele>
        <time>2020-08-16 09:51:21</time>
      </trkpt>
      <trkpt lat="39.99227" lon="-4.28301">
        <ele>527</ele>
        <time>2020-08-16 09:51:22</time>
      </trkpt>
      <trkpt lat="39.99219" lon="-4.28304">
        <ele>527</ele>
        <time>2020-08-16 09:51:24</time>
      </trkpt>
      <trkpt lat="39.99214" lon="-4.28306">
        <ele>527.2</ele>
        <time>2020-08-16 09:51:25</time>
      </trkpt>
      <trkpt lat="39.99211" lon="-4.28308">
        <ele>527.4</ele>
        <time>2020-08-16 09:51:26</time>
      </trkpt>
      <trkpt lat="39.99207" lon="-4.2831">
        <ele>527.4</ele>
        <time>2020-08-16 09:51:27</time>
      </trkpt>
      <trkpt lat="39.99203" lon="-4.28312">
        <ele>527.6</ele>
        <time>2020-08-16 09:51:28</time>
      </trkpt>
      <trkpt lat="39.99199" lon="-4.28314">
        <ele>527.6</ele>
        <time>2020-08-16 09:51:29</time>
      </trkpt>
      <trkpt lat="39.99195" lon="-4.28316">
        <ele>527.6</ele>
        <time>2020-08-16 09:51:30</time>
      </trkpt>
      <trkpt lat="39.99192" lon="-4.28318">
        <ele>527.6</ele>
        <time>2020-08-16 09:51:31</time>
      </trkpt>
      <trkpt lat="39.99188" lon="-4.28319">
        <ele>527.6</ele>
        <time>2020-08-16 09:51:32</time>
      </trkpt>
      <trkpt lat="39.99184" lon="-4.28321">
        <ele>527.6</ele>
        <time>2020-08-16 09:51:33</time>
      </trkpt>
      <trkpt lat="39.9918" lon="-4.28322">
        <ele>527.8</ele>
        <time>2020-08-16 09:51:34</time>
      </trkpt>
      <trkpt lat="39.99176" lon="-4.28324">
        <ele>527.8</ele>
        <time>2020-08-16 09:51:35</time>
      </trkpt>
      <trkpt lat="39.99172" lon="-4.28325">
        <ele>527.8</ele>
        <time>2020-08-16 09:51:36</time>
      </trkpt>
      <trkpt lat="39.99168" lon="-4.28327">
        <ele>528</ele>
        <time>2020-08-16 09:51:37</time>
      </trkpt>
      <trkpt lat="39.99164" lon="-4.28328">
        <ele>528</ele>
        <time>2020-08-16 09:51:38</time>
      </trkpt>
      <trkpt lat="39.9916" lon="-4.2833">
        <ele>528</ele>
        <time>2020-08-16 09:51:39</time>
      </trkpt>
      <trkpt lat="39.99146" lon="-4.28335">
        <ele>528</ele>
        <time>2020-08-16 09:51:42</time>
      </trkpt>
      <trkpt lat="39.99137" lon="-4.28338">
        <ele>528.2</ele>
        <time>2020-08-16 09:51:44</time>
      </trkpt>
      <trkpt lat="39.99128" lon="-4.2834">
        <ele>528.4</ele>
        <time>2020-08-16 09:51:46</time>
      </trkpt>
      <trkpt lat="39.99089" lon="-4.28352">
        <ele>527.6</ele>
        <time>2020-08-16 09:51:54</time>
      </trkpt>
      <trkpt lat="39.99079" lon="-4.28355">
        <ele>527.2</ele>
        <time>2020-08-16 09:51:56</time>
      </trkpt>
      <trkpt lat="39.99058" lon="-4.28361">
        <ele>526.8</ele>
        <time>2020-08-16 09:52:00</time>
      </trkpt>
      <trkpt lat="39.99047" lon="-4.28363">
        <ele>526.2</ele>
        <time>2020-08-16 09:52:02</time>
      </trkpt>
      <trkpt lat="39.9901" lon="-4.28371">
        <ele>525</ele>
        <time>2020-08-16 09:52:09</time>
      </trkpt>
      <trkpt lat="39.98993" lon="-4.28375">
        <ele>524.6</ele>
        <time>2020-08-16 09:52:12</time>
      </trkpt>
      <trkpt lat="39.98971" lon="-4.28382">
        <ele>524.4</ele>
        <time>2020-08-16 09:52:16</time>
      </trkpt>
      <trkpt lat="39.98966" lon="-4.28384">
        <ele>524.2</ele>
        <time>2020-08-16 09:52:17</time>
      </trkpt>
      <trkpt lat="39.98955" lon="-4.28388">
        <ele>524</ele>
        <time>2020-08-16 09:52:19</time>
      </trkpt>
      <trkpt lat="39.98939" lon="-4.28394">
        <ele>523.8</ele>
        <time>2020-08-16 09:52:22</time>
      </trkpt>
      <trkpt lat="39.98934" lon="-4.28395">
        <ele>523.6</ele>
        <time>2020-08-16 09:52:23</time>
      </trkpt>
      <trkpt lat="39.98928" lon="-4.28396">
        <ele>523.6</ele>
        <time>2020-08-16 09:52:24</time>
      </trkpt>
      <trkpt lat="39.98923" lon="-4.28398">
        <ele>523.4</ele>
        <time>2020-08-16 09:52:25</time>
      </trkpt>
      <trkpt lat="39.98918" lon="-4.28399">
        <ele>523.4</ele>
        <time>2020-08-16 09:52:26</time>
      </trkpt>
      <trkpt lat="39.98913" lon="-4.28401">
        <ele>523.4</ele>
        <time>2020-08-16 09:52:27</time>
      </trkpt>
      <trkpt lat="39.98908" lon="-4.28402">
        <ele>523.2</ele>
        <time>2020-08-16 09:52:28</time>
      </trkpt>
      <trkpt lat="39.98903" lon="-4.28404">
        <ele>523</ele>
        <time>2020-08-16 09:52:29</time>
      </trkpt>
      <trkpt lat="39.98898" lon="-4.28406">
        <ele>522.8</ele>
        <time>2020-08-16 09:52:30</time>
      </trkpt>
      <trkpt lat="39.98893" lon="-4.28408">
        <ele>522.8</ele>
        <time>2020-08-16 09:52:31</time>
      </trkpt>
      <trkpt lat="39.98889" lon="-4.28409">
        <ele>522.8</ele>
        <time>2020-08-16 09:52:32</time>
      </trkpt>
      <trkpt lat="39.98884" lon="-4.2841">
        <ele>522.8</ele>
        <time>2020-08-16 09:52:33</time>
      </trkpt>
      <trkpt lat="39.98879" lon="-4.28412">
        <ele>522.8</ele>
        <time>2020-08-16 09:52:34</time>
      </trkpt>
      <trkpt lat="39.98869" lon="-4.28416">
        <ele>522.8</ele>
        <time>2020-08-16 09:52:36</time>
      </trkpt>
      <trkpt lat="39.98864" lon="-4.28418">
        <ele>522.8</ele>
        <time>2020-08-16 09:52:37</time>
      </trkpt>
      <trkpt lat="39.9884" lon="-4.28429">
        <ele>522.8</ele>
        <time>2020-08-16 09:52:42</time>
      </trkpt>
      <trkpt lat="39.9882" lon="-4.28438">
        <ele>522.4</ele>
        <time>2020-08-16 09:52:46</time>
      </trkpt>
      <trkpt lat="39.98815" lon="-4.2844">
        <ele>522.4</ele>
        <time>2020-08-16 09:52:47</time>
      </trkpt>
      <trkpt lat="39.9881" lon="-4.28442">
        <ele>522.4</ele>
        <time>2020-08-16 09:52:48</time>
      </trkpt>
      <trkpt lat="39.98806" lon="-4.28444">
        <ele>522.2</ele>
        <time>2020-08-16 09:52:49</time>
      </trkpt>
      <trkpt lat="39.98801" lon="-4.28446">
        <ele>522</ele>
        <time>2020-08-16 09:52:50</time>
      </trkpt>
      <trkpt lat="39.98796" lon="-4.28448">
        <ele>521.8</ele>
        <time>2020-08-16 09:52:51</time>
      </trkpt>
      <trkpt lat="39.98792" lon="-4.2845">
        <ele>521.8</ele>
        <time>2020-08-16 09:52:52</time>
      </trkpt>
      <trkpt lat="39.98789" lon="-4.28451">
        <ele>521.6</ele>
        <time>2020-08-16 09:52:53</time>
      </trkpt>
      <trkpt lat="39.98787" lon="-4.28451">
        <ele>521.6</ele>
        <time>2020-08-16 09:52:54</time>
      </trkpt>
      <trkpt lat="39.98786" lon="-4.28451">
        <ele>521.6</ele>
        <time>2020-08-16 09:52:55</time>
      </trkpt>
      <trkpt lat="39.98786" lon="-4.28451">
        <ele>521.6</ele>
        <time>2020-08-16 09:52:57</time>
      </trkpt>
      <trkpt lat="39.98782" lon="-4.2845">
        <ele>520.8</ele>
        <time>2020-08-16 09:55:40</time>
      </trkpt>
      <trkpt lat="39.9878" lon="-4.28451">
        <ele>520.8</ele>
        <time>2020-08-16 09:55:41</time>
      </trkpt>
      <trkpt lat="39.98778" lon="-4.28453">
        <ele>520.8</ele>
        <time>2020-08-16 09:55:42</time>
      </trkpt>
      <trkpt lat="39.98774" lon="-4.28458">
        <ele>521</ele>
        <time>2020-08-16 09:55:45</time>
      </trkpt>
      <trkpt lat="39.98765" lon="-4.28468">
        <ele>521</ele>
        <time>2020-08-16 09:55:48</time>
      </trkpt>
      <trkpt lat="39.98763" lon="-4.2847">
        <ele>520.8</ele>
        <time>2020-08-16 09:55:49</time>
      </trkpt>
      <trkpt lat="39.98761" lon="-4.28471">
        <ele>520.8</ele>
        <time>2020-08-16 09:55:50</time>
      </trkpt>
      <trkpt lat="39.98758" lon="-4.28473">
        <ele>520.8</ele>
        <time>2020-08-16 09:55:51</time>
      </trkpt>
      <trkpt lat="39.98754" lon="-4.28474">
        <ele>520.8</ele>
        <time>2020-08-16 09:55:52</time>
      </trkpt>
      <trkpt lat="39.98751" lon="-4.28476">
        <ele>520.6</ele>
        <time>2020-08-16 09:55:53</time>
      </trkpt>
      <trkpt lat="39.98751" lon="-4.28476">
        <ele>520.6</ele>
        <time>2020-08-16 09:55:54</time>
      </trkpt>
      <trkpt lat="39.9874" lon="-4.28482">
        <ele>520.4</ele>
        <time>2020-08-16 09:55:56</time>
      </trkpt>
      <trkpt lat="39.98733" lon="-4.28486">
        <ele>520.4</ele>
        <time>2020-08-16 09:55:58</time>
      </trkpt>
      <trkpt lat="39.98726" lon="-4.2849">
        <ele>520.2</ele>
        <time>2020-08-16 09:56:00</time>
      </trkpt>
      <trkpt lat="39.98722" lon="-4.28491">
        <ele>520.2</ele>
        <time>2020-08-16 09:56:01</time>
      </trkpt>
      <trkpt lat="39.9871" lon="-4.28497">
        <ele>520.2</ele>
        <time>2020-08-16 09:56:04</time>
      </trkpt>
      <trkpt lat="39.98701" lon="-4.28501">
        <ele>520</ele>
        <time>2020-08-16 09:56:06</time>
      </trkpt>
      <trkpt lat="39.9868" lon="-4.28511">
        <ele>520</ele>
        <time>2020-08-16 09:56:11</time>
      </trkpt>
      <trkpt lat="39.98672" lon="-4.28515">
        <ele>519.8</ele>
        <time>2020-08-16 09:56:13</time>
      </trkpt>
      <trkpt lat="39.98663" lon="-4.28519">
        <ele>519.8</ele>
        <time>2020-08-16 09:56:15</time>
      </trkpt>
      <trkpt lat="39.98658" lon="-4.28521">
        <ele>519.6</ele>
        <time>2020-08-16 09:56:17</time>
      </trkpt>
      <trkpt lat="39.98636" lon="-4.2853">
        <ele>519.4</ele>
        <time>2020-08-16 09:56:21</time>
      </trkpt>
      <trkpt lat="39.98628" lon="-4.28534">
        <ele>519.4</ele>
        <time>2020-08-16 09:56:23</time>
      </trkpt>
      <trkpt lat="39.98624" lon="-4.28537">
        <ele>519.4</ele>
        <time>2020-08-16 09:56:24</time>
      </trkpt>
      <trkpt lat="39.9862" lon="-4.2854">
        <ele>519.4</ele>
        <time>2020-08-16 09:56:25</time>
      </trkpt>
      <trkpt lat="39.9862" lon="-4.2854">
        <ele>519.2</ele>
        <time>2020-08-16 09:56:26</time>
      </trkpt>
      <trkpt lat="39.98613" lon="-4.28548">
        <ele>519.2</ele>
        <time>2020-08-16 09:56:27</time>
      </trkpt>
      <trkpt lat="39.98609" lon="-4.28553">
        <ele>519</ele>
        <time>2020-08-16 09:56:28</time>
      </trkpt>
      <trkpt lat="39.98609" lon="-4.28553">
        <ele>519</ele>
        <time>2020-08-16 09:56:29</time>
      </trkpt>
      <trkpt lat="39.98602" lon="-4.28561">
        <ele>519</ele>
        <time>2020-08-16 09:56:30</time>
      </trkpt>
      <trkpt lat="39.98598" lon="-4.28563">
        <ele>519</ele>
        <time>2020-08-16 09:56:31</time>
      </trkpt>
      <trkpt lat="39.98594" lon="-4.28563">
        <ele>519</ele>
        <time>2020-08-16 09:56:32</time>
      </trkpt>
      <trkpt lat="39.9859" lon="-4.28564">
        <ele>519</ele>
        <time>2020-08-16 09:56:33</time>
      </trkpt>
      <trkpt lat="39.98585" lon="-4.28564">
        <ele>519</ele>
        <time>2020-08-16 09:56:34</time>
      </trkpt>
      <trkpt lat="39.9857" lon="-4.28566">
        <ele>518.8</ele>
        <time>2020-08-16 09:56:37</time>
      </trkpt>
      <trkpt lat="39.9855" lon="-4.28571">
        <ele>518.8</ele>
        <time>2020-08-16 09:56:41</time>
      </trkpt>
      <trkpt lat="39.98531" lon="-4.2858">
        <ele>518.8</ele>
        <time>2020-08-16 09:56:45</time>
      </trkpt>
      <trkpt lat="39.98518" lon="-4.28589">
        <ele>518.6</ele>
        <time>2020-08-16 09:56:49</time>
      </trkpt>
      <trkpt lat="39.9851" lon="-4.28595">
        <ele>518.6</ele>
        <time>2020-08-16 09:56:50</time>
      </trkpt>
      <trkpt lat="39.98507" lon="-4.28599">
        <ele>518.6</ele>
        <time>2020-08-16 09:56:51</time>
      </trkpt>
      <trkpt lat="39.98503" lon="-4.28603">
        <ele>518.6</ele>
        <time>2020-08-16 09:56:52</time>
      </trkpt>
      <trkpt lat="39.98499" lon="-4.28607">
        <ele>518.6</ele>
        <time>2020-08-16 09:56:53</time>
      </trkpt>
      <trkpt lat="39.98496" lon="-4.28612">
        <ele>518.6</ele>
        <time>2020-08-16 09:56:54</time>
      </trkpt>
      <trkpt lat="39.98493" lon="-4.28617">
        <ele>518.6</ele>
        <time>2020-08-16 09:56:55</time>
      </trkpt>
      <trkpt lat="39.98491" lon="-4.28623">
        <ele>518.6</ele>
        <time>2020-08-16 09:56:56</time>
      </trkpt>
      <trkpt lat="39.98489" lon="-4.28628">
        <ele>518.6</ele>
        <time>2020-08-16 09:56:57</time>
      </trkpt>
      <trkpt lat="39.98489" lon="-4.28628">
        <ele>518.6</ele>
        <time>2020-08-16 09:56:58</time>
      </trkpt>
      <trkpt lat="39.98487" lon="-4.28639">
        <ele>518.6</ele>
        <time>2020-08-16 09:56:59</time>
      </trkpt>
      <trkpt lat="39.98485" lon="-4.28644">
        <ele>518.4</ele>
        <time>2020-08-16 09:57:00</time>
      </trkpt>
      <trkpt lat="39.98485" lon="-4.28644">
        <ele>518.4</ele>
        <time>2020-08-16 09:57:01</time>
      </trkpt>
      <trkpt lat="39.98482" lon="-4.28654">
        <ele>518.4</ele>
        <time>2020-08-16 09:57:02</time>
      </trkpt>
      <trkpt lat="39.98481" lon="-4.28659">
        <ele>518.4</ele>
        <time>2020-08-16 09:57:03</time>
      </trkpt>
      <trkpt lat="39.9848" lon="-4.28664">
        <ele>518.4</ele>
        <time>2020-08-16 09:57:04</time>
      </trkpt>
      <trkpt lat="39.98478" lon="-4.28669">
        <ele>518.4</ele>
        <time>2020-08-16 09:57:05</time>
      </trkpt>
      <trkpt lat="39.98477" lon="-4.28674">
        <ele>518.4</ele>
        <time>2020-08-16 09:57:06</time>
      </trkpt>
      <trkpt lat="39.98476" lon="-4.28679">
        <ele>518.4</ele>
        <time>2020-08-16 09:57:07</time>
      </trkpt>
      <trkpt lat="39.98475" lon="-4.28684">
        <ele>518.6</ele>
        <time>2020-08-16 09:57:08</time>
      </trkpt>
      <trkpt lat="39.98474" lon="-4.28688">
        <ele>518.6</ele>
        <time>2020-08-16 09:57:09</time>
      </trkpt>
      <trkpt lat="39.98472" lon="-4.28692">
        <ele>518.8</ele>
        <time>2020-08-16 09:57:10</time>
      </trkpt>
      <trkpt lat="39.98471" lon="-4.28695">
        <ele>518.8</ele>
        <time>2020-08-16 09:57:11</time>
      </trkpt>
      <trkpt lat="39.98469" lon="-4.28697">
        <ele>518.8</ele>
        <time>2020-08-16 09:57:12</time>
      </trkpt>
      <trkpt lat="39.98467" lon="-4.28699">
        <ele>518.8</ele>
        <time>2020-08-16 09:57:13</time>
      </trkpt>
      <trkpt lat="39.98465" lon="-4.287">
        <ele>519</ele>
        <time>2020-08-16 09:57:14</time>
      </trkpt>
      <trkpt lat="39.98463" lon="-4.28702">
        <ele>519</ele>
        <time>2020-08-16 09:57:15</time>
      </trkpt>
      <trkpt lat="39.98461" lon="-4.28705">
        <ele>519</ele>
        <time>2020-08-16 09:57:16</time>
      </trkpt>
      <trkpt lat="39.9846" lon="-4.28709">
        <ele>519</ele>
        <time>2020-08-16 09:57:17</time>
      </trkpt>
      <trkpt lat="39.98459" lon="-4.28713">
        <ele>519</ele>
        <time>2020-08-16 09:57:18</time>
      </trkpt>
      <trkpt lat="39.98458" lon="-4.28717">
        <ele>519</ele>
        <time>2020-08-16 09:57:19</time>
      </trkpt>
      <trkpt lat="39.98452" lon="-4.28738">
        <ele>519.2</ele>
        <time>2020-08-16 09:57:24</time>
      </trkpt>
      <trkpt lat="39.98451" lon="-4.28742">
        <ele>519.2</ele>
        <time>2020-08-16 09:57:25</time>
      </trkpt>
      <trkpt lat="39.98444" lon="-4.2876">
        <ele>519.4</ele>
        <time>2020-08-16 09:57:29</time>
      </trkpt>
      <trkpt lat="39.98441" lon="-4.28768">
        <ele>519.4</ele>
        <time>2020-08-16 09:57:31</time>
      </trkpt>
      <trkpt lat="39.9844" lon="-4.28772">
        <ele>519.4</ele>
        <time>2020-08-16 09:57:32</time>
      </trkpt>
      <trkpt lat="39.9844" lon="-4.28772">
        <ele>519.4</ele>
        <time>2020-08-16 09:57:33</time>
      </trkpt>
      <trkpt lat="39.98436" lon="-4.2878">
        <ele>519.4</ele>
        <time>2020-08-16 09:57:34</time>
      </trkpt>
      <trkpt lat="39.98434" lon="-4.28783">
        <ele>519.6</ele>
        <time>2020-08-16 09:57:35</time>
      </trkpt>
      <trkpt lat="39.98432" lon="-4.28785">
        <ele>519.6</ele>
        <time>2020-08-16 09:57:36</time>
      </trkpt>
      <trkpt lat="39.98429" lon="-4.28787">
        <ele>519.6</ele>
        <time>2020-08-16 09:57:37</time>
      </trkpt>
      <trkpt lat="39.98427" lon="-4.28789">
        <ele>519.6</ele>
        <time>2020-08-16 09:57:38</time>
      </trkpt>
      <trkpt lat="39.98424" lon="-4.28791">
        <ele>519.8</ele>
        <time>2020-08-16 09:57:39</time>
      </trkpt>
      <trkpt lat="39.98417" lon="-4.28794">
        <ele>519.8</ele>
        <time>2020-08-16 09:57:41</time>
      </trkpt>
      <trkpt lat="39.98415" lon="-4.28796">
        <ele>519.8</ele>
        <time>2020-08-16 09:57:42</time>
      </trkpt>
      <trkpt lat="39.98413" lon="-4.28797">
        <ele>520</ele>
        <time>2020-08-16 09:57:43</time>
      </trkpt>
      <trkpt lat="39.98411" lon="-4.28799">
        <ele>520.2</ele>
        <time>2020-08-16 09:57:44</time>
      </trkpt>
      <trkpt lat="39.9841" lon="-4.28799">
        <ele>520.4</ele>
        <time>2020-08-16 09:57:45</time>
      </trkpt>
      <trkpt lat="39.9841" lon="-4.28799">
        <ele>520.6</ele>
        <time>2020-08-16 09:57:46</time>
      </trkpt>
      <trkpt lat="39.9841" lon="-4.28799">
        <ele>520.8</ele>
        <time>2020-08-16 09:57:47</time>
      </trkpt>
      <trkpt lat="39.98404" lon="-4.28801">
        <ele>521</ele>
        <time>2020-08-16 09:57:54</time>
      </trkpt>
      <trkpt lat="39.98402" lon="-4.28802">
        <ele>521</ele>
        <time>2020-08-16 09:57:55</time>
      </trkpt>
      <trkpt lat="39.98398" lon="-4.28804">
        <ele>521.2</ele>
        <time>2020-08-16 09:57:57</time>
      </trkpt>
      <trkpt lat="39.98394" lon="-4.28806">
        <ele>521.2</ele>
        <time>2020-08-16 09:57:59</time>
      </trkpt>
      <trkpt lat="39.98392" lon="-4.28808">
        <ele>521.2</ele>
        <time>2020-08-16 09:58:00</time>
      </trkpt>
      <trkpt lat="39.9839" lon="-4.28809">
        <ele>521.2</ele>
        <time>2020-08-16 09:58:01</time>
      </trkpt>
      <trkpt lat="39.9839" lon="-4.28809">
        <ele>521.2</ele>
        <time>2020-08-16 09:58:02</time>
      </trkpt>
      <trkpt lat="39.98385" lon="-4.28811">
        <ele>521.2</ele>
        <time>2020-08-16 09:58:03</time>
      </trkpt>
      <trkpt lat="39.98374" lon="-4.28813">
        <ele>521.2</ele>
        <time>2020-08-16 09:58:06</time>
      </trkpt>
      <trkpt lat="39.98367" lon="-4.28812">
        <ele>521.2</ele>
        <time>2020-08-16 09:58:08</time>
      </trkpt>
      <trkpt lat="39.98363" lon="-4.28809">
        <ele>521.2</ele>
        <time>2020-08-16 09:58:09</time>
      </trkpt>
      <trkpt lat="39.9836" lon="-4.28805">
        <ele>521.4</ele>
        <time>2020-08-16 09:58:10</time>
      </trkpt>
      <trkpt lat="39.98356" lon="-4.28801">
        <ele>521.2</ele>
        <time>2020-08-16 09:58:11</time>
      </trkpt>
      <trkpt lat="39.98354" lon="-4.28798">
        <ele>521.2</ele>
        <time>2020-08-16 09:58:12</time>
      </trkpt>
      <trkpt lat="39.9835" lon="-4.28797">
        <ele>521.2</ele>
        <time>2020-08-16 09:58:13</time>
      </trkpt>
      <trkpt lat="39.98348" lon="-4.28796">
        <ele>521.2</ele>
        <time>2020-08-16 09:58:14</time>
      </trkpt>
      <trkpt lat="39.98347" lon="-4.28796">
        <ele>521.2</ele>
        <time>2020-08-16 09:58:15</time>
      </trkpt>
      <trkpt lat="39.98345" lon="-4.28795">
        <ele>521.2</ele>
        <time>2020-08-16 09:58:16</time>
      </trkpt>
      <trkpt lat="39.98345" lon="-4.28796">
        <ele>521.2</ele>
        <time>2020-08-16 09:58:17</time>
      </trkpt>
      <trkpt lat="39.98344" lon="-4.28796">
        <ele>521.2</ele>
        <time>2020-08-16 09:58:18</time>
      </trkpt>
      <trkpt lat="39.98343" lon="-4.28796">
        <ele>521.2</ele>
        <time>2020-08-16 09:58:19</time>
      </trkpt>
      <trkpt lat="39.98343" lon="-4.28794">
        <ele>521.2</ele>
        <time>2020-08-16 09:58:20</time>
      </trkpt>
      <trkpt lat="39.98344" lon="-4.28792">
        <ele>521.2</ele>
        <time>2020-08-16 09:58:21</time>
      </trkpt>
      <trkpt lat="39.98346" lon="-4.2879">
        <ele>521.2</ele>
        <time>2020-08-16 09:58:22</time>
      </trkpt>
      <trkpt lat="39.98347" lon="-4.28788">
        <ele>521.2</ele>
        <time>2020-08-16 09:58:23</time>
      </trkpt>
      <trkpt lat="39.98347" lon="-4.28786">
        <ele>521.2</ele>
        <time>2020-08-16 09:58:24</time>
      </trkpt>
      <trkpt lat="39.98346" lon="-4.28784">
        <ele>521.2</ele>
        <time>2020-08-16 09:58:25</time>
      </trkpt>
      <trkpt lat="39.98345" lon="-4.28783">
        <ele>521.2</ele>
        <time>2020-08-16 09:58:26</time>
      </trkpt>
      <trkpt lat="39.98345" lon="-4.28782">
        <ele>521.2</ele>
        <time>2020-08-16 09:58:27</time>
      </trkpt>
      <trkpt lat="39.98344" lon="-4.2878">
        <ele>521.2</ele>
        <time>2020-08-16 09:58:28</time>
      </trkpt>
      <trkpt lat="39.98344" lon="-4.28779">
        <ele>521.2</ele>
        <time>2020-08-16 09:58:29</time>
      </trkpt>
      <trkpt lat="39.98343" lon="-4.28777">
        <ele>521.2</ele>
        <time>2020-08-16 09:58:30</time>
      </trkpt>
      <trkpt lat="39.98342" lon="-4.28774">
        <ele>521.2</ele>
        <time>2020-08-16 09:58:31</time>
      </trkpt>
      <trkpt lat="39.9834" lon="-4.28772">
        <ele>521.2</ele>
        <time>2020-08-16 09:58:32</time>
      </trkpt>
      <trkpt lat="39.98339" lon="-4.28769">
        <ele>521.2</ele>
        <time>2020-08-16 09:58:33</time>
      </trkpt>
      <trkpt lat="39.98337" lon="-4.28766">
        <ele>521.2</ele>
        <time>2020-08-16 09:58:34</time>
      </trkpt>
      <trkpt lat="39.98332" lon="-4.28759">
        <ele>521.4</ele>
        <time>2020-08-16 09:58:36</time>
      </trkpt>
      <trkpt lat="39.98329" lon="-4.28755">
        <ele>521.4</ele>
        <time>2020-08-16 09:58:37</time>
      </trkpt>
      <trkpt lat="39.98326" lon="-4.28752">
        <ele>521.4</ele>
        <time>2020-08-16 09:58:38</time>
      </trkpt>
      <trkpt lat="39.98323" lon="-4.28748">
        <ele>521.4</ele>
        <time>2020-08-16 09:58:39</time>
      </trkpt>
      <trkpt lat="39.9832" lon="-4.28744">
        <ele>521.4</ele>
        <time>2020-08-16 09:58:40</time>
      </trkpt>
      <trkpt lat="39.98314" lon="-4.2874">
        <ele>521.4</ele>
        <time>2020-08-16 09:58:42</time>
      </trkpt>
      <trkpt lat="39.98312" lon="-4.28739">
        <ele>521.6</ele>
        <time>2020-08-16 09:58:43</time>
      </trkpt>
      <trkpt lat="39.9831" lon="-4.2874">
        <ele>521.6</ele>
        <time>2020-08-16 09:58:44</time>
      </trkpt>
      <trkpt lat="39.9831" lon="-4.2874">
        <ele>521.6</ele>
        <time>2020-08-16 09:58:45</time>
      </trkpt>
      <trkpt lat="39.98309" lon="-4.28743">
        <ele>521.6</ele>
        <time>2020-08-16 09:58:47</time>
      </trkpt>
      <trkpt lat="39.98309" lon="-4.28745">
        <ele>521.6</ele>
        <time>2020-08-16 09:58:48</time>
      </trkpt>
      <trkpt lat="39.98307" lon="-4.28751">
        <ele>521.8</ele>
        <time>2020-08-16 09:58:51</time>
      </trkpt>
      <trkpt lat="39.98306" lon="-4.28753">
        <ele>521.8</ele>
        <time>2020-08-16 09:58:52</time>
      </trkpt>
      <trkpt lat="39.98304" lon="-4.28757">
        <ele>522</ele>
        <time>2020-08-16 09:58:54</time>
      </trkpt>
      <trkpt lat="39.98302" lon="-4.2876">
        <ele>522</ele>
        <time>2020-08-16 09:58:55</time>
      </trkpt>
      <trkpt lat="39.98302" lon="-4.28761">
        <ele>522</ele>
        <time>2020-08-16 09:58:56</time>
      </trkpt>
      <trkpt lat="39.98302" lon="-4.28762">
        <ele>522.2</ele>
        <time>2020-08-16 09:58:57</time>
      </trkpt>
      <trkpt lat="39.98302" lon="-4.28762">
        <ele>522.2</ele>
        <time>2020-08-16 09:58:58</time>
      </trkpt>
      <trkpt lat="39.98302" lon="-4.28762">
        <ele>522.2</ele>
        <time>2020-08-16 09:58:59</time>
      </trkpt>
      <trkpt lat="39.98303" lon="-4.28764">
        <ele>522.6</ele>
        <time>2020-08-16 10:00:04</time>
      </trkpt>
      <trkpt lat="39.98304" lon="-4.28766">
        <ele>522.6</ele>
        <time>2020-08-16 10:00:05</time>
      </trkpt>
      <trkpt lat="39.98308" lon="-4.28771">
        <ele>522.6</ele>
        <time>2020-08-16 10:00:07</time>
      </trkpt>
      <trkpt lat="39.98311" lon="-4.28778">
        <ele>522.6</ele>
        <time>2020-08-16 10:00:09</time>
      </trkpt>
      <trkpt lat="39.98313" lon="-4.28782">
        <ele>522.6</ele>
        <time>2020-08-16 10:00:10</time>
      </trkpt>
      <trkpt lat="39.98315" lon="-4.28786">
        <ele>522.6</ele>
        <time>2020-08-16 10:00:11</time>
      </trkpt>
      <trkpt lat="39.98318" lon="-4.28788">
        <ele>522.6</ele>
        <time>2020-08-16 10:00:12</time>
      </trkpt>
      <trkpt lat="39.98322" lon="-4.28789">
        <ele>522.6</ele>
        <time>2020-08-16 10:00:13</time>
      </trkpt>
      <trkpt lat="39.98328" lon="-4.28792">
        <ele>522.6</ele>
        <time>2020-08-16 10:00:15</time>
      </trkpt>
      <trkpt lat="39.98331" lon="-4.28793">
        <ele>522.6</ele>
        <time>2020-08-16 10:00:16</time>
      </trkpt>
      <trkpt lat="39.98334" lon="-4.28796">
        <ele>522.6</ele>
        <time>2020-08-16 10:00:17</time>
      </trkpt>
      <trkpt lat="39.98337" lon="-4.28798">
        <ele>522.6</ele>
        <time>2020-08-16 10:00:18</time>
      </trkpt>
      <trkpt lat="39.9834" lon="-4.288">
        <ele>522.6</ele>
        <time>2020-08-16 10:00:19</time>
      </trkpt>
      <trkpt lat="39.98342" lon="-4.28801">
        <ele>522.6</ele>
        <time>2020-08-16 10:00:20</time>
      </trkpt>
      <trkpt lat="39.98343" lon="-4.28801">
        <ele>522.6</ele>
        <time>2020-08-16 10:00:21</time>
      </trkpt>
      <trkpt lat="39.98343" lon="-4.28801">
        <ele>522.6</ele>
        <time>2020-08-16 10:00:22</time>
      </trkpt>
      <trkpt lat="39.98344" lon="-4.28799">
        <ele>522.4</ele>
        <time>2020-08-16 10:00:23</time>
      </trkpt>
      <trkpt lat="39.98346" lon="-4.28798">
        <ele>522.4</ele>
        <time>2020-08-16 10:00:24</time>
      </trkpt>
      <trkpt lat="39.98348" lon="-4.28797">
        <ele>522.2</ele>
        <time>2020-08-16 10:00:25</time>
      </trkpt>
      <trkpt lat="39.98351" lon="-4.28797">
        <ele>522.2</ele>
        <time>2020-08-16 10:00:26</time>
      </trkpt>
      <trkpt lat="39.98363" lon="-4.28795">
        <ele>522</ele>
        <time>2020-08-16 10:00:30</time>
      </trkpt>
      <trkpt lat="39.98367" lon="-4.28796">
        <ele>521.8</ele>
        <time>2020-08-16 10:00:31</time>
      </trkpt>
      <trkpt lat="39.9837" lon="-4.28798">
        <ele>521.6</ele>
        <time>2020-08-16 10:00:32</time>
      </trkpt>
      <trkpt lat="39.98372" lon="-4.28801">
        <ele>521.6</ele>
        <time>2020-08-16 10:00:33</time>
      </trkpt>
      <trkpt lat="39.98373" lon="-4.28805">
        <ele>521.6</ele>
        <time>2020-08-16 10:00:34</time>
      </trkpt>
      <trkpt lat="39.98373" lon="-4.28809">
        <ele>521.6</ele>
        <time>2020-08-16 10:00:35</time>
      </trkpt>
      <trkpt lat="39.98371" lon="-4.28813">
        <ele>521.6</ele>
        <time>2020-08-16 10:00:36</time>
      </trkpt>
      <trkpt lat="39.98369" lon="-4.28817">
        <ele>521.6</ele>
        <time>2020-08-16 10:00:37</time>
      </trkpt>
      <trkpt lat="39.98367" lon="-4.2882">
        <ele>521.6</ele>
        <time>2020-08-16 10:00:38</time>
      </trkpt>
      <trkpt lat="39.98365" lon="-4.28823">
        <ele>521.6</ele>
        <time>2020-08-16 10:00:39</time>
      </trkpt>
      <trkpt lat="39.98365" lon="-4.28825">
        <ele>521.6</ele>
        <time>2020-08-16 10:00:40</time>
      </trkpt>
      <trkpt lat="39.98364" lon="-4.28826">
        <ele>521.6</ele>
        <time>2020-08-16 10:00:41</time>
      </trkpt>
      <trkpt lat="39.98364" lon="-4.28827">
        <ele>521.6</ele>
        <time>2020-08-16 10:00:42</time>
      </trkpt>
      <trkpt lat="39.98364" lon="-4.28828">
        <ele>521.6</ele>
        <time>2020-08-16 10:00:43</time>
      </trkpt>
      <trkpt lat="39.98364" lon="-4.2883">
        <ele>521.8</ele>
        <time>2020-08-16 10:00:44</time>
      </trkpt>
      <trkpt lat="39.98364" lon="-4.2883">
        <ele>521.8</ele>
        <time>2020-08-16 10:00:45</time>
      </trkpt>
      <trkpt lat="39.98366" lon="-4.2883">
        <ele>521.8</ele>
        <time>2020-08-16 10:00:46</time>
      </trkpt>
      <trkpt lat="39.98367" lon="-4.28828">
        <ele>521.8</ele>
        <time>2020-08-16 10:00:47</time>
      </trkpt>
      <trkpt lat="39.98367" lon="-4.28826">
        <ele>521.8</ele>
        <time>2020-08-16 10:00:48</time>
      </trkpt>
      <trkpt lat="39.98365" lon="-4.28824">
        <ele>521.8</ele>
        <time>2020-08-16 10:00:49</time>
      </trkpt>
      <trkpt lat="39.98363" lon="-4.28824">
        <ele>521.8</ele>
        <time>2020-08-16 10:00:50</time>
      </trkpt>
      <trkpt lat="39.98358" lon="-4.28829">
        <ele>521.8</ele>
        <time>2020-08-16 10:00:52</time>
      </trkpt>
      <trkpt lat="39.98355" lon="-4.28831">
        <ele>521.8</ele>
        <time>2020-08-16 10:00:53</time>
      </trkpt>
      <trkpt lat="39.98352" lon="-4.28833">
        <ele>521.8</ele>
        <time>2020-08-16 10:00:54</time>
      </trkpt>
      <trkpt lat="39.98341" lon="-4.28838">
        <ele>521.8</ele>
        <time>2020-08-16 10:00:57</time>
      </trkpt>
      <trkpt lat="39.98337" lon="-4.28839">
        <ele>521.8</ele>
        <time>2020-08-16 10:00:58</time>
      </trkpt>
      <trkpt lat="39.98334" lon="-4.2884">
        <ele>521.8</ele>
        <time>2020-08-16 10:00:59</time>
      </trkpt>
      <trkpt lat="39.98331" lon="-4.28841">
        <ele>521.8</ele>
        <time>2020-08-16 10:01:00</time>
      </trkpt>
      <trkpt lat="39.98327" lon="-4.28842">
        <ele>522</ele>
        <time>2020-08-16 10:01:01</time>
      </trkpt>
      <trkpt lat="39.98312" lon="-4.28845">
        <ele>522.2</ele>
        <time>2020-08-16 10:01:05</time>
      </trkpt>
      <trkpt lat="39.98306" lon="-4.28845">
        <ele>522.2</ele>
        <time>2020-08-16 10:01:07</time>
      </trkpt>
      <trkpt lat="39.98302" lon="-4.28846">
        <ele>522.4</ele>
        <time>2020-08-16 10:01:08</time>
      </trkpt>
      <trkpt lat="39.98298" lon="-4.28846">
        <ele>522.4</ele>
        <time>2020-08-16 10:01:09</time>
      </trkpt>
      <trkpt lat="39.98295" lon="-4.28846">
        <ele>522.4</ele>
        <time>2020-08-16 10:01:10</time>
      </trkpt>
      <trkpt lat="39.98292" lon="-4.28847">
        <ele>522.4</ele>
        <time>2020-08-16 10:01:11</time>
      </trkpt>
      <trkpt lat="39.98289" lon="-4.28847">
        <ele>522.8</ele>
        <time>2020-08-16 10:01:12</time>
      </trkpt>
      <trkpt lat="39.98285" lon="-4.28847">
        <ele>522.8</ele>
        <time>2020-08-16 10:01:13</time>
      </trkpt>
      <trkpt lat="39.98282" lon="-4.28848">
        <ele>523</ele>
        <time>2020-08-16 10:01:14</time>
      </trkpt>
      <trkpt lat="39.98279" lon="-4.28848">
        <ele>523</ele>
        <time>2020-08-16 10:01:15</time>
      </trkpt>
      <trkpt lat="39.98276" lon="-4.28848">
        <ele>523</ele>
        <time>2020-08-16 10:01:16</time>
      </trkpt>
      <trkpt lat="39.98272" lon="-4.28848">
        <ele>523</ele>
        <time>2020-08-16 10:01:17</time>
      </trkpt>
      <trkpt lat="39.98269" lon="-4.28849">
        <ele>523</ele>
        <time>2020-08-16 10:01:18</time>
      </trkpt>
      <trkpt lat="39.98265" lon="-4.28849">
        <ele>523</ele>
        <time>2020-08-16 10:01:19</time>
      </trkpt>
      <trkpt lat="39.98261" lon="-4.28849">
        <ele>523</ele>
        <time>2020-08-16 10:01:20</time>
      </trkpt>
      <trkpt lat="39.98257" lon="-4.2885">
        <ele>522.8</ele>
        <time>2020-08-16 10:01:21</time>
      </trkpt>
      <trkpt lat="39.98236" lon="-4.28854">
        <ele>522.6</ele>
        <time>2020-08-16 10:01:26</time>
      </trkpt>
      <trkpt lat="39.98223" lon="-4.28854">
        <ele>522.2</ele>
        <time>2020-08-16 10:01:29</time>
      </trkpt>
      <trkpt lat="39.98219" lon="-4.28853">
        <ele>522.2</ele>
        <time>2020-08-16 10:01:30</time>
      </trkpt>
      <trkpt lat="39.98216" lon="-4.28852">
        <ele>522</ele>
        <time>2020-08-16 10:01:31</time>
      </trkpt>
      <trkpt lat="39.98212" lon="-4.28849">
        <ele>522</ele>
        <time>2020-08-16 10:01:32</time>
      </trkpt>
      <trkpt lat="39.98209" lon="-4.28847">
        <ele>521.8</ele>
        <time>2020-08-16 10:01:33</time>
      </trkpt>
      <trkpt lat="39.98206" lon="-4.28844">
        <ele>521.8</ele>
        <time>2020-08-16 10:01:34</time>
      </trkpt>
      <trkpt lat="39.98202" lon="-4.28841">
        <ele>521.6</ele>
        <time>2020-08-16 10:01:35</time>
      </trkpt>
      <trkpt lat="39.98199" lon="-4.28838">
        <ele>521.6</ele>
        <time>2020-08-16 10:01:36</time>
      </trkpt>
      <trkpt lat="39.98196" lon="-4.28834">
        <ele>521.6</ele>
        <time>2020-08-16 10:01:37</time>
      </trkpt>
      <trkpt lat="39.98192" lon="-4.2883">
        <ele>521.6</ele>
        <time>2020-08-16 10:01:38</time>
      </trkpt>
      <trkpt lat="39.98189" lon="-4.28827">
        <ele>521.6</ele>
        <time>2020-08-16 10:01:39</time>
      </trkpt>
      <trkpt lat="39.98186" lon="-4.28823">
        <ele>521.4</ele>
        <time>2020-08-16 10:01:40</time>
      </trkpt>
      <trkpt lat="39.98183" lon="-4.28819">
        <ele>521.4</ele>
        <time>2020-08-16 10:01:41</time>
      </trkpt>
      <trkpt lat="39.98179" lon="-4.28815">
        <ele>521.4</ele>
        <time>2020-08-16 10:01:42</time>
      </trkpt>
      <trkpt lat="39.98169" lon="-4.28803">
        <ele>521.2</ele>
        <time>2020-08-16 10:01:45</time>
      </trkpt>
      <trkpt lat="39.98165" lon="-4.28799">
        <ele>521.2</ele>
        <time>2020-08-16 10:01:46</time>
      </trkpt>
      <trkpt lat="39.9814" lon="-4.28773">
        <ele>521</ele>
        <time>2020-08-16 10:01:52</time>
      </trkpt>
      <trkpt lat="39.98129" lon="-4.28761">
        <ele>520.8</ele>
        <time>2020-08-16 10:01:55</time>
      </trkpt>
      <trkpt lat="39.98125" lon="-4.28757">
        <ele>520.8</ele>
        <time>2020-08-16 10:01:56</time>
      </trkpt>
      <trkpt lat="39.98113" lon="-4.28743">
        <ele>520.6</ele>
        <time>2020-08-16 10:01:59</time>
      </trkpt>
      <trkpt lat="39.98109" lon="-4.28738">
        <ele>520.6</ele>
        <time>2020-08-16 10:02:00</time>
      </trkpt>
      <trkpt lat="39.98106" lon="-4.28734">
        <ele>520.6</ele>
        <time>2020-08-16 10:02:01</time>
      </trkpt>
      <trkpt lat="39.98102" lon="-4.28729">
        <ele>520.6</ele>
        <time>2020-08-16 10:02:02</time>
      </trkpt>
      <trkpt lat="39.98097" lon="-4.28726">
        <ele>520.6</ele>
        <time>2020-08-16 10:02:03</time>
      </trkpt>
      <trkpt lat="39.98093" lon="-4.28722">
        <ele>520.6</ele>
        <time>2020-08-16 10:02:04</time>
      </trkpt>
      <trkpt lat="39.98088" lon="-4.28718">
        <ele>520.6</ele>
        <time>2020-08-16 10:02:05</time>
      </trkpt>
      <trkpt lat="39.98084" lon="-4.28714">
        <ele>520.4</ele>
        <time>2020-08-16 10:02:06</time>
      </trkpt>
      <trkpt lat="39.9808" lon="-4.28709">
        <ele>520.4</ele>
        <time>2020-08-16 10:02:07</time>
      </trkpt>
      <trkpt lat="39.98076" lon="-4.28704">
        <ele>520.4</ele>
        <time>2020-08-16 10:02:08</time>
      </trkpt>
      <trkpt lat="39.98073" lon="-4.28699">
        <ele>520.4</ele>
        <time>2020-08-16 10:02:09</time>
      </trkpt>
      <trkpt lat="39.98071" lon="-4.28693">
        <ele>520.2</ele>
        <time>2020-08-16 10:02:10</time>
      </trkpt>
      <trkpt lat="39.9807" lon="-4.28687">
        <ele>520.2</ele>
        <time>2020-08-16 10:02:11</time>
      </trkpt>
      <trkpt lat="39.98068" lon="-4.2868">
        <ele>520</ele>
        <time>2020-08-16 10:02:12</time>
      </trkpt>
      <trkpt lat="39.98067" lon="-4.28674">
        <ele>520</ele>
        <time>2020-08-16 10:02:13</time>
      </trkpt>
      <trkpt lat="39.98067" lon="-4.28667">
        <ele>520</ele>
        <time>2020-08-16 10:02:14</time>
      </trkpt>
      <trkpt lat="39.98066" lon="-4.28661">
        <ele>519.8</ele>
        <time>2020-08-16 10:02:15</time>
      </trkpt>
      <trkpt lat="39.98064" lon="-4.28655">
        <ele>519.8</ele>
        <time>2020-08-16 10:02:16</time>
      </trkpt>
      <trkpt lat="39.98063" lon="-4.28651">
        <ele>519.8</ele>
        <time>2020-08-16 10:02:17</time>
      </trkpt>
      <trkpt lat="39.98061" lon="-4.28649">
        <ele>519.8</ele>
        <time>2020-08-16 10:02:18</time>
      </trkpt>
      <trkpt lat="39.98058" lon="-4.28648">
        <ele>519.6</ele>
        <time>2020-08-16 10:02:19</time>
      </trkpt>
      <trkpt lat="39.98055" lon="-4.28649">
        <ele>519.6</ele>
        <time>2020-08-16 10:02:20</time>
      </trkpt>
      <trkpt lat="39.98052" lon="-4.28651">
        <ele>519.6</ele>
        <time>2020-08-16 10:02:21</time>
      </trkpt>
      <trkpt lat="39.98048" lon="-4.28652">
        <ele>519.6</ele>
        <time>2020-08-16 10:02:22</time>
      </trkpt>
      <trkpt lat="39.98042" lon="-4.28656">
        <ele>519.6</ele>
        <time>2020-08-16 10:02:24</time>
      </trkpt>
      <trkpt lat="39.98038" lon="-4.28658">
        <ele>519.6</ele>
        <time>2020-08-16 10:02:25</time>
      </trkpt>
      <trkpt lat="39.98035" lon="-4.2866">
        <ele>519.6</ele>
        <time>2020-08-16 10:02:26</time>
      </trkpt>
      <trkpt lat="39.98031" lon="-4.28664">
        <ele>519.6</ele>
        <time>2020-08-16 10:02:28</time>
      </trkpt>
      <trkpt lat="39.9803" lon="-4.28666">
        <ele>519.6</ele>
        <time>2020-08-16 10:02:29</time>
      </trkpt>
      <trkpt lat="39.9803" lon="-4.28666">
        <ele>519.6</ele>
        <time>2020-08-16 10:02:30</time>
      </trkpt>
      <trkpt lat="39.98026" lon="-4.28671">
        <ele>519.8</ele>
        <time>2020-08-16 10:02:31</time>
      </trkpt>
      <trkpt lat="39.98024" lon="-4.28674">
        <ele>519.8</ele>
        <time>2020-08-16 10:02:32</time>
      </trkpt>
      <trkpt lat="39.98022" lon="-4.28677">
        <ele>519.8</ele>
        <time>2020-08-16 10:02:33</time>
      </trkpt>
      <trkpt lat="39.98014" lon="-4.28687">
        <ele>519.8</ele>
        <time>2020-08-16 10:02:36</time>
      </trkpt>
      <trkpt lat="39.98006" lon="-4.28697">
        <ele>519.8</ele>
        <time>2020-08-16 10:02:39</time>
      </trkpt>
      <trkpt lat="39.97986" lon="-4.28722">
        <ele>520.2</ele>
        <time>2020-08-16 10:02:46</time>
      </trkpt>
      <trkpt lat="39.97982" lon="-4.28724">
        <ele>520.2</ele>
        <time>2020-08-16 10:02:47</time>
      </trkpt>
      <trkpt lat="39.97979" lon="-4.28725">
        <ele>520.2</ele>
        <time>2020-08-16 10:02:48</time>
      </trkpt>
      <trkpt lat="39.97972" lon="-4.28726">
        <ele>520.2</ele>
        <time>2020-08-16 10:02:50</time>
      </trkpt>
      <trkpt lat="39.97968" lon="-4.28725">
        <ele>520.2</ele>
        <time>2020-08-16 10:02:51</time>
      </trkpt>
      <trkpt lat="39.97965" lon="-4.28723">
        <ele>520.2</ele>
        <time>2020-08-16 10:02:52</time>
      </trkpt>
      <trkpt lat="39.97963" lon="-4.28721">
        <ele>520.2</ele>
        <time>2020-08-16 10:02:53</time>
      </trkpt>
      <trkpt lat="39.97962" lon="-4.28717">
        <ele>520.2</ele>
        <time>2020-08-16 10:02:54</time>
      </trkpt>
      <trkpt lat="39.97961" lon="-4.28713">
        <ele>520.2</ele>
        <time>2020-08-16 10:02:55</time>
      </trkpt>
      <trkpt lat="39.97959" lon="-4.28709">
        <ele>520.2</ele>
        <time>2020-08-16 10:02:56</time>
      </trkpt>
      <trkpt lat="39.97958" lon="-4.28705">
        <ele>520.2</ele>
        <time>2020-08-16 10:02:57</time>
      </trkpt>
      <trkpt lat="39.97957" lon="-4.28701">
        <ele>520.2</ele>
        <time>2020-08-16 10:02:58</time>
      </trkpt>
      <trkpt lat="39.97956" lon="-4.28696">
        <ele>520.2</ele>
        <time>2020-08-16 10:02:59</time>
      </trkpt>
      <trkpt lat="39.97954" lon="-4.28693">
        <ele>520.2</ele>
        <time>2020-08-16 10:03:00</time>
      </trkpt>
      <trkpt lat="39.97953" lon="-4.28692">
        <ele>520.2</ele>
        <time>2020-08-16 10:03:01</time>
      </trkpt>
      <trkpt lat="39.97951" lon="-4.28692">
        <ele>520.2</ele>
        <time>2020-08-16 10:03:02</time>
      </trkpt>
      <trkpt lat="39.9795" lon="-4.28695">
        <ele>520</ele>
        <time>2020-08-16 10:03:03</time>
      </trkpt>
      <trkpt lat="39.97949" lon="-4.28698">
        <ele>520</ele>
        <time>2020-08-16 10:03:04</time>
      </trkpt>
      <trkpt lat="39.97947" lon="-4.28701">
        <ele>520</ele>
        <time>2020-08-16 10:03:05</time>
      </trkpt>
      <trkpt lat="39.97945" lon="-4.28705">
        <ele>520</ele>
        <time>2020-08-16 10:03:06</time>
      </trkpt>
      <trkpt lat="39.97938" lon="-4.28723">
        <ele>519.6</ele>
        <time>2020-08-16 10:03:10</time>
      </trkpt>
      <trkpt lat="39.97934" lon="-4.28732">
        <ele>519.4</ele>
        <time>2020-08-16 10:03:12</time>
      </trkpt>
      <trkpt lat="39.97932" lon="-4.28737">
        <ele>519.4</ele>
        <time>2020-08-16 10:03:13</time>
      </trkpt>
      <trkpt lat="39.97928" lon="-4.28745">
        <ele>519.4</ele>
        <time>2020-08-16 10:03:15</time>
      </trkpt>
      <trkpt lat="39.97926" lon="-4.28749">
        <ele>519.4</ele>
        <time>2020-08-16 10:03:16</time>
      </trkpt>
      <trkpt lat="39.97914" lon="-4.28774">
        <ele>519.4</ele>
        <time>2020-08-16 10:03:22</time>
      </trkpt>
      <trkpt lat="39.97912" lon="-4.28778">
        <ele>519.4</ele>
        <time>2020-08-16 10:03:23</time>
      </trkpt>
      <trkpt lat="39.9791" lon="-4.28781">
        <ele>519.4</ele>
        <time>2020-08-16 10:03:24</time>
      </trkpt>
      <trkpt lat="39.97909" lon="-4.28785">
        <ele>519.4</ele>
        <time>2020-08-16 10:03:25</time>
      </trkpt>
      <trkpt lat="39.97907" lon="-4.28789">
        <ele>519.4</ele>
        <time>2020-08-16 10:03:26</time>
      </trkpt>
      <trkpt lat="39.97905" lon="-4.28793">
        <ele>519.4</ele>
        <time>2020-08-16 10:03:27</time>
      </trkpt>
      <trkpt lat="39.97902" lon="-4.28797">
        <ele>519.4</ele>
        <time>2020-08-16 10:03:28</time>
      </trkpt>
      <trkpt lat="39.979" lon="-4.28802">
        <ele>519.6</ele>
        <time>2020-08-16 10:03:29</time>
      </trkpt>
      <trkpt lat="39.97897" lon="-4.28806">
        <ele>519.6</ele>
        <time>2020-08-16 10:03:30</time>
      </trkpt>
      <trkpt lat="39.97893" lon="-4.28814">
        <ele>519.8</ele>
        <time>2020-08-16 10:03:32</time>
      </trkpt>
      <trkpt lat="39.97891" lon="-4.28818">
        <ele>519.8</ele>
        <time>2020-08-16 10:03:33</time>
      </trkpt>
      <trkpt lat="39.97889" lon="-4.28823">
        <ele>519.8</ele>
        <time>2020-08-16 10:03:34</time>
      </trkpt>
      <trkpt lat="39.97886" lon="-4.28827">
        <ele>519.8</ele>
        <time>2020-08-16 10:03:35</time>
      </trkpt>
      <trkpt lat="39.97877" lon="-4.28843">
        <ele>520.2</ele>
        <time>2020-08-16 10:03:39</time>
      </trkpt>
      <trkpt lat="39.97875" lon="-4.28847">
        <ele>520.2</ele>
        <time>2020-08-16 10:03:40</time>
      </trkpt>
      <trkpt lat="39.97869" lon="-4.28855">
        <ele>520.4</ele>
        <time>2020-08-16 10:03:42</time>
      </trkpt>
      <trkpt lat="39.97861" lon="-4.28865">
        <ele>520.6</ele>
        <time>2020-08-16 10:03:45</time>
      </trkpt>
      <trkpt lat="39.97858" lon="-4.28869">
        <ele>520.6</ele>
        <time>2020-08-16 10:03:46</time>
      </trkpt>
      <trkpt lat="39.97855" lon="-4.28872">
        <ele>520.8</ele>
        <time>2020-08-16 10:03:47</time>
      </trkpt>
      <trkpt lat="39.97852" lon="-4.28875">
        <ele>520.8</ele>
        <time>2020-08-16 10:03:48</time>
      </trkpt>
      <trkpt lat="39.97849" lon="-4.28878">
        <ele>520.8</ele>
        <time>2020-08-16 10:03:49</time>
      </trkpt>
      <trkpt lat="39.97847" lon="-4.28882">
        <ele>520.8</ele>
        <time>2020-08-16 10:03:50</time>
      </trkpt>
      <trkpt lat="39.97844" lon="-4.28885">
        <ele>520.6</ele>
        <time>2020-08-16 10:03:51</time>
      </trkpt>
      <trkpt lat="39.97844" lon="-4.28885">
        <ele>520.6</ele>
        <time>2020-08-16 10:03:52</time>
      </trkpt>
      <trkpt lat="39.97838" lon="-4.28892">
        <ele>520.6</ele>
        <time>2020-08-16 10:03:53</time>
      </trkpt>
      <trkpt lat="39.97835" lon="-4.28895">
        <ele>520.6</ele>
        <time>2020-08-16 10:03:54</time>
      </trkpt>
      <trkpt lat="39.97833" lon="-4.28898">
        <ele>520.6</ele>
        <time>2020-08-16 10:03:55</time>
      </trkpt>
      <trkpt lat="39.97831" lon="-4.28901">
        <ele>520.8</ele>
        <time>2020-08-16 10:03:56</time>
      </trkpt>
      <trkpt lat="39.97828" lon="-4.28904">
        <ele>520.8</ele>
        <time>2020-08-16 10:03:57</time>
      </trkpt>
      <trkpt lat="39.97826" lon="-4.28908">
        <ele>521.2</ele>
        <time>2020-08-16 10:03:58</time>
      </trkpt>
      <trkpt lat="39.97823" lon="-4.28911">
        <ele>521.2</ele>
        <time>2020-08-16 10:03:59</time>
      </trkpt>
      <trkpt lat="39.9782" lon="-4.28914">
        <ele>521.2</ele>
        <time>2020-08-16 10:04:00</time>
      </trkpt>
      <trkpt lat="39.97817" lon="-4.28917">
        <ele>521.2</ele>
        <time>2020-08-16 10:04:01</time>
      </trkpt>
      <trkpt lat="39.97815" lon="-4.28921">
        <ele>521.4</ele>
        <time>2020-08-16 10:04:02</time>
      </trkpt>
      <trkpt lat="39.97812" lon="-4.28924">
        <ele>521.4</ele>
        <time>2020-08-16 10:04:03</time>
      </trkpt>
      <trkpt lat="39.9781" lon="-4.28927">
        <ele>521.6</ele>
        <time>2020-08-16 10:04:04</time>
      </trkpt>
      <trkpt lat="39.97807" lon="-4.2893">
        <ele>521.6</ele>
        <time>2020-08-16 10:04:05</time>
      </trkpt>
      <trkpt lat="39.97805" lon="-4.28933">
        <ele>521.8</ele>
        <time>2020-08-16 10:04:06</time>
      </trkpt>
      <trkpt lat="39.97802" lon="-4.28936">
        <ele>521.8</ele>
        <time>2020-08-16 10:04:07</time>
      </trkpt>
      <trkpt lat="39.978" lon="-4.28939">
        <ele>521.8</ele>
        <time>2020-08-16 10:04:08</time>
      </trkpt>
      <trkpt lat="39.97797" lon="-4.28942">
        <ele>522</ele>
        <time>2020-08-16 10:04:09</time>
      </trkpt>
      <trkpt lat="39.9778" lon="-4.28961">
        <ele>522.2</ele>
        <time>2020-08-16 10:04:15</time>
      </trkpt>
      <trkpt lat="39.97775" lon="-4.28967">
        <ele>522.4</ele>
        <time>2020-08-16 10:04:17</time>
      </trkpt>
      <trkpt lat="39.97772" lon="-4.2897">
        <ele>522.4</ele>
        <time>2020-08-16 10:04:18</time>
      </trkpt>
      <trkpt lat="39.97757" lon="-4.2899">
        <ele>523</ele>
        <time>2020-08-16 10:04:24</time>
      </trkpt>
      <trkpt lat="39.97754" lon="-4.28993">
        <ele>523</ele>
        <time>2020-08-16 10:04:25</time>
      </trkpt>
      <trkpt lat="39.97744" lon="-4.29005">
        <ele>523.4</ele>
        <time>2020-08-16 10:04:29</time>
      </trkpt>
      <trkpt lat="39.97742" lon="-4.29008">
        <ele>523.4</ele>
        <time>2020-08-16 10:04:30</time>
      </trkpt>
      <trkpt lat="39.9774" lon="-4.29011">
        <ele>523.6</ele>
        <time>2020-08-16 10:04:31</time>
      </trkpt>
      <trkpt lat="39.97737" lon="-4.29015">
        <ele>523.6</ele>
        <time>2020-08-16 10:04:32</time>
      </trkpt>
      <trkpt lat="39.97735" lon="-4.29018">
        <ele>523.6</ele>
        <time>2020-08-16 10:04:33</time>
      </trkpt>
      <trkpt lat="39.97732" lon="-4.29021">
        <ele>523.6</ele>
        <time>2020-08-16 10:04:34</time>
      </trkpt>
      <trkpt lat="39.97729" lon="-4.29024">
        <ele>523.6</ele>
        <time>2020-08-16 10:04:35</time>
      </trkpt>
      <trkpt lat="39.97727" lon="-4.29027">
        <ele>523.8</ele>
        <time>2020-08-16 10:04:36</time>
      </trkpt>
      <trkpt lat="39.97725" lon="-4.2903">
        <ele>523.8</ele>
        <time>2020-08-16 10:04:37</time>
      </trkpt>
      <trkpt lat="39.97723" lon="-4.29033">
        <ele>523.8</ele>
        <time>2020-08-16 10:04:38</time>
      </trkpt>
      <trkpt lat="39.97721" lon="-4.29036">
        <ele>523.8</ele>
        <time>2020-08-16 10:04:39</time>
      </trkpt>
      <trkpt lat="39.97719" lon="-4.2904">
        <ele>523.8</ele>
        <time>2020-08-16 10:04:40</time>
      </trkpt>
      <trkpt lat="39.97717" lon="-4.29043">
        <ele>524</ele>
        <time>2020-08-16 10:04:41</time>
      </trkpt>
      <trkpt lat="39.97715" lon="-4.29046">
        <ele>524</ele>
        <time>2020-08-16 10:04:42</time>
      </trkpt>
      <trkpt lat="39.97712" lon="-4.29049">
        <ele>524</ele>
        <time>2020-08-16 10:04:43</time>
      </trkpt>
      <trkpt lat="39.9771" lon="-4.29053">
        <ele>524.2</ele>
        <time>2020-08-16 10:04:44</time>
      </trkpt>
      <trkpt lat="39.97706" lon="-4.2906">
        <ele>524.2</ele>
        <time>2020-08-16 10:04:46</time>
      </trkpt>
      <trkpt lat="39.97701" lon="-4.29068">
        <ele>524.4</ele>
        <time>2020-08-16 10:04:48</time>
      </trkpt>
      <trkpt lat="39.97692" lon="-4.29084">
        <ele>524.4</ele>
        <time>2020-08-16 10:04:52</time>
      </trkpt>
      <trkpt lat="39.97689" lon="-4.29088">
        <ele>524.4</ele>
        <time>2020-08-16 10:04:53</time>
      </trkpt>
      <trkpt lat="39.97687" lon="-4.29092">
        <ele>524.6</ele>
        <time>2020-08-16 10:04:54</time>
      </trkpt>
      <trkpt lat="39.97677" lon="-4.29107">
        <ele>524.6</ele>
        <time>2020-08-16 10:04:58</time>
      </trkpt>
      <trkpt lat="39.97672" lon="-4.29115">
        <ele>524.8</ele>
        <time>2020-08-16 10:05:00</time>
      </trkpt>
      <trkpt lat="39.9767" lon="-4.29119">
        <ele>524.8</ele>
        <time>2020-08-16 10:05:01</time>
      </trkpt>
      <trkpt lat="39.97667" lon="-4.29123">
        <ele>524.8</ele>
        <time>2020-08-16 10:05:02</time>
      </trkpt>
      <trkpt lat="39.97663" lon="-4.29131">
        <ele>524.8</ele>
        <time>2020-08-16 10:05:04</time>
      </trkpt>
      <trkpt lat="39.9766" lon="-4.29135">
        <ele>524.8</ele>
        <time>2020-08-16 10:05:05</time>
      </trkpt>
      <trkpt lat="39.9765" lon="-4.29151">
        <ele>525</ele>
        <time>2020-08-16 10:05:09</time>
      </trkpt>
      <trkpt lat="39.97641" lon="-4.29169">
        <ele>525.4</ele>
        <time>2020-08-16 10:05:13</time>
      </trkpt>
      <trkpt lat="39.9764" lon="-4.29173">
        <ele>525.4</ele>
        <time>2020-08-16 10:05:14</time>
      </trkpt>
      <trkpt lat="39.97639" lon="-4.29177">
        <ele>525.4</ele>
        <time>2020-08-16 10:05:15</time>
      </trkpt>
      <trkpt lat="39.97638" lon="-4.29181">
        <ele>525.6</ele>
        <time>2020-08-16 10:05:16</time>
      </trkpt>
      <trkpt lat="39.97636" lon="-4.29186">
        <ele>525.6</ele>
        <time>2020-08-16 10:05:17</time>
      </trkpt>
      <trkpt lat="39.97635" lon="-4.2919">
        <ele>525.6</ele>
        <time>2020-08-16 10:05:18</time>
      </trkpt>
      <trkpt lat="39.97633" lon="-4.29193">
        <ele>525.6</ele>
        <time>2020-08-16 10:05:19</time>
      </trkpt>
      <trkpt lat="39.97631" lon="-4.29195">
        <ele>525.6</ele>
        <time>2020-08-16 10:05:20</time>
      </trkpt>
      <trkpt lat="39.97629" lon="-4.29195">
        <ele>525.6</ele>
        <time>2020-08-16 10:05:21</time>
      </trkpt>
      <trkpt lat="39.97627" lon="-4.29195">
        <ele>525.8</ele>
        <time>2020-08-16 10:05:22</time>
      </trkpt>
      <trkpt lat="39.97625" lon="-4.29193">
        <ele>525.8</ele>
        <time>2020-08-16 10:05:23</time>
      </trkpt>
      <trkpt lat="39.97623" lon="-4.29192">
        <ele>525.8</ele>
        <time>2020-08-16 10:05:24</time>
      </trkpt>
      <trkpt lat="39.97621" lon="-4.2919">
        <ele>525.8</ele>
        <time>2020-08-16 10:05:25</time>
      </trkpt>
      <trkpt lat="39.97619" lon="-4.29189">
        <ele>525.8</ele>
        <time>2020-08-16 10:05:26</time>
      </trkpt>
      <trkpt lat="39.97618" lon="-4.29187">
        <ele>525.8</ele>
        <time>2020-08-16 10:05:27</time>
      </trkpt>
      <trkpt lat="39.97617" lon="-4.29186">
        <ele>525.8</ele>
        <time>2020-08-16 10:05:28</time>
      </trkpt>
      <trkpt lat="39.97617" lon="-4.29185">
        <ele>525.8</ele>
        <time>2020-08-16 10:05:29</time>
      </trkpt>
      <trkpt lat="39.97617" lon="-4.29184">
        <ele>525.8</ele>
        <time>2020-08-16 10:05:30</time>
      </trkpt>
      <trkpt lat="39.97617" lon="-4.29184">
        <ele>525.8</ele>
        <time>2020-08-16 10:05:31</time>
      </trkpt>
      <trkpt lat="39.97617" lon="-4.29184">
        <ele>525.8</ele>
        <time>2020-08-16 10:05:32</time>
      </trkpt>
      <trkpt lat="39.97616" lon="-4.29186">
        <ele>525.8</ele>
        <time>2020-08-16 10:06:02</time>
      </trkpt>
      <trkpt lat="39.97616" lon="-4.29188">
        <ele>525.6</ele>
        <time>2020-08-16 10:06:03</time>
      </trkpt>
      <trkpt lat="39.97617" lon="-4.2919">
        <ele>525.6</ele>
        <time>2020-08-16 10:06:04</time>
      </trkpt>
      <trkpt lat="39.97618" lon="-4.29194">
        <ele>525.4</ele>
        <time>2020-08-16 10:06:06</time>
      </trkpt>
      <trkpt lat="39.97617" lon="-4.29197">
        <ele>525.4</ele>
        <time>2020-08-16 10:06:07</time>
      </trkpt>
      <trkpt lat="39.97617" lon="-4.292">
        <ele>525.2</ele>
        <time>2020-08-16 10:06:08</time>
      </trkpt>
      <trkpt lat="39.97615" lon="-4.29202">
        <ele>525.4</ele>
        <time>2020-08-16 10:06:09</time>
      </trkpt>
      <trkpt lat="39.97614" lon="-4.29204">
        <ele>525.2</ele>
        <time>2020-08-16 10:06:10</time>
      </trkpt>
      <trkpt lat="39.97612" lon="-4.29206">
        <ele>525.2</ele>
        <time>2020-08-16 10:06:11</time>
      </trkpt>
      <trkpt lat="39.97611" lon="-4.29207">
        <ele>525.2</ele>
        <time>2020-08-16 10:06:12</time>
      </trkpt>
      <trkpt lat="39.9761" lon="-4.29209">
        <ele>525.4</ele>
        <time>2020-08-16 10:06:13</time>
      </trkpt>
      <trkpt lat="39.97609" lon="-4.29211">
        <ele>525.4</ele>
        <time>2020-08-16 10:06:14</time>
      </trkpt>
      <trkpt lat="39.97608" lon="-4.29213">
        <ele>525.4</ele>
        <time>2020-08-16 10:06:15</time>
      </trkpt>
      <trkpt lat="39.97607" lon="-4.29215">
        <ele>525.6</ele>
        <time>2020-08-16 10:06:16</time>
      </trkpt>
      <trkpt lat="39.97603" lon="-4.29221">
        <ele>525.6</ele>
        <time>2020-08-16 10:06:18</time>
      </trkpt>
      <trkpt lat="39.97602" lon="-4.29225">
        <ele>525.6</ele>
        <time>2020-08-16 10:06:19</time>
      </trkpt>
      <trkpt lat="39.976" lon="-4.29228">
        <ele>525.6</ele>
        <time>2020-08-16 10:06:20</time>
      </trkpt>
      <trkpt lat="39.97596" lon="-4.29234">
        <ele>525.6</ele>
        <time>2020-08-16 10:06:22</time>
      </trkpt>
      <trkpt lat="39.97594" lon="-4.29237">
        <ele>525.8</ele>
        <time>2020-08-16 10:06:23</time>
      </trkpt>
      <trkpt lat="39.97592" lon="-4.2924">
        <ele>525.8</ele>
        <time>2020-08-16 10:06:24</time>
      </trkpt>
      <trkpt lat="39.97589" lon="-4.29245">
        <ele>525.6</ele>
        <time>2020-08-16 10:06:26</time>
      </trkpt>
      <trkpt lat="39.97588" lon="-4.29247">
        <ele>525.8</ele>
        <time>2020-08-16 10:06:27</time>
      </trkpt>
      <trkpt lat="39.97586" lon="-4.2925">
        <ele>525.6</ele>
        <time>2020-08-16 10:06:28</time>
      </trkpt>
      <trkpt lat="39.97583" lon="-4.29255">
        <ele>525.8</ele>
        <time>2020-08-16 10:06:30</time>
      </trkpt>
      <trkpt lat="39.97581" lon="-4.29258">
        <ele>525.8</ele>
        <time>2020-08-16 10:06:31</time>
      </trkpt>
      <trkpt lat="39.9758" lon="-4.29262">
        <ele>526</ele>
        <time>2020-08-16 10:06:32</time>
      </trkpt>
      <trkpt lat="39.97578" lon="-4.29264">
        <ele>526</ele>
        <time>2020-08-16 10:06:33</time>
      </trkpt>
      <trkpt lat="39.97576" lon="-4.29267">
        <ele>526.2</ele>
        <time>2020-08-16 10:06:34</time>
      </trkpt>
      <trkpt lat="39.97574" lon="-4.2927">
        <ele>526.2</ele>
        <time>2020-08-16 10:06:35</time>
      </trkpt>
      <trkpt lat="39.97572" lon="-4.29273">
        <ele>526.2</ele>
        <time>2020-08-16 10:06:36</time>
      </trkpt>
      <trkpt lat="39.97565" lon="-4.29285">
        <ele>526.4</ele>
        <time>2020-08-16 10:06:40</time>
      </trkpt>
      <trkpt lat="39.97562" lon="-4.29289">
        <ele>526.6</ele>
        <time>2020-08-16 10:06:41</time>
      </trkpt>
      <trkpt lat="39.97556" lon="-4.29301">
        <ele>526.8</ele>
        <time>2020-08-16 10:06:44</time>
      </trkpt>
      <trkpt lat="39.97555" lon="-4.29305">
        <ele>526.8</ele>
        <time>2020-08-16 10:06:45</time>
      </trkpt>
      <trkpt lat="39.97553" lon="-4.29309">
        <ele>526.8</ele>
        <time>2020-08-16 10:06:46</time>
      </trkpt>
      <trkpt lat="39.9755" lon="-4.29312">
        <ele>526.8</ele>
        <time>2020-08-16 10:06:47</time>
      </trkpt>
      <trkpt lat="39.97548" lon="-4.29316">
        <ele>527</ele>
        <time>2020-08-16 10:06:48</time>
      </trkpt>
      <trkpt lat="39.97546" lon="-4.29319">
        <ele>527</ele>
        <time>2020-08-16 10:06:49</time>
      </trkpt>
      <trkpt lat="39.97543" lon="-4.29322">
        <ele>527.2</ele>
        <time>2020-08-16 10:06:50</time>
      </trkpt>
      <trkpt lat="39.97541" lon="-4.29325">
        <ele>527.4</ele>
        <time>2020-08-16 10:06:51</time>
      </trkpt>
      <trkpt lat="39.97539" lon="-4.29329">
        <ele>527.4</ele>
        <time>2020-08-16 10:06:52</time>
      </trkpt>
      <trkpt lat="39.97537" lon="-4.29332">
        <ele>527.4</ele>
        <time>2020-08-16 10:06:53</time>
      </trkpt>
      <trkpt lat="39.97535" lon="-4.29336">
        <ele>527.4</ele>
        <time>2020-08-16 10:06:54</time>
      </trkpt>
      <trkpt lat="39.97533" lon="-4.29339">
        <ele>527.6</ele>
        <time>2020-08-16 10:06:55</time>
      </trkpt>
      <trkpt lat="39.9753" lon="-4.29342">
        <ele>527.6</ele>
        <time>2020-08-16 10:06:56</time>
      </trkpt>
      <trkpt lat="39.97527" lon="-4.29345">
        <ele>527.8</ele>
        <time>2020-08-16 10:06:57</time>
      </trkpt>
      <trkpt lat="39.97524" lon="-4.29348">
        <ele>528</ele>
        <time>2020-08-16 10:06:58</time>
      </trkpt>
      <trkpt lat="39.97522" lon="-4.2935">
        <ele>528</ele>
        <time>2020-08-16 10:06:59</time>
      </trkpt>
      <trkpt lat="39.9752" lon="-4.29353">
        <ele>528.2</ele>
        <time>2020-08-16 10:07:00</time>
      </trkpt>
      <trkpt lat="39.97517" lon="-4.29356">
        <ele>528.2</ele>
        <time>2020-08-16 10:07:01</time>
      </trkpt>
      <trkpt lat="39.97515" lon="-4.2936">
        <ele>528.2</ele>
        <time>2020-08-16 10:07:02</time>
      </trkpt>
      <trkpt lat="39.97513" lon="-4.29363">
        <ele>528.4</ele>
        <time>2020-08-16 10:07:03</time>
      </trkpt>
      <trkpt lat="39.9751" lon="-4.29367">
        <ele>528.4</ele>
        <time>2020-08-16 10:07:04</time>
      </trkpt>
      <trkpt lat="39.97508" lon="-4.29371">
        <ele>528.6</ele>
        <time>2020-08-16 10:07:05</time>
      </trkpt>
      <trkpt lat="39.97505" lon="-4.29374">
        <ele>528.6</ele>
        <time>2020-08-16 10:07:06</time>
      </trkpt>
      <trkpt lat="39.9749" lon="-4.29394">
        <ele>529.2</ele>
        <time>2020-08-16 10:07:12</time>
      </trkpt>
      <trkpt lat="39.97482" lon="-4.29404">
        <ele>529.2</ele>
        <time>2020-08-16 10:07:15</time>
      </trkpt>
      <trkpt lat="39.97475" lon="-4.29414">
        <ele>529.4</ele>
        <time>2020-08-16 10:07:18</time>
      </trkpt>
      <trkpt lat="39.97454" lon="-4.29442">
        <ele>530</ele>
        <time>2020-08-16 10:07:26</time>
      </trkpt>
      <trkpt lat="39.97445" lon="-4.29454">
        <ele>530</ele>
        <time>2020-08-16 10:07:29</time>
      </trkpt>
      <trkpt lat="39.97433" lon="-4.29469">
        <ele>530</ele>
        <time>2020-08-16 10:07:33</time>
      </trkpt>
      <trkpt lat="39.97427" lon="-4.29476">
        <ele>530</ele>
        <time>2020-08-16 10:07:35</time>
      </trkpt>
      <trkpt lat="39.97421" lon="-4.29484">
        <ele>530.2</ele>
        <time>2020-08-16 10:07:37</time>
      </trkpt>
      <trkpt lat="39.97418" lon="-4.29487">
        <ele>530.2</ele>
        <time>2020-08-16 10:07:38</time>
      </trkpt>
      <trkpt lat="39.97415" lon="-4.29491">
        <ele>530.2</ele>
        <time>2020-08-16 10:07:39</time>
      </trkpt>
      <trkpt lat="39.97412" lon="-4.29495">
        <ele>530.2</ele>
        <time>2020-08-16 10:07:40</time>
      </trkpt>
      <trkpt lat="39.9741" lon="-4.29498">
        <ele>530.4</ele>
        <time>2020-08-16 10:07:41</time>
      </trkpt>
      <trkpt lat="39.97407" lon="-4.29502">
        <ele>530.4</ele>
        <time>2020-08-16 10:07:42</time>
      </trkpt>
      <trkpt lat="39.97404" lon="-4.29506">
        <ele>530.6</ele>
        <time>2020-08-16 10:07:43</time>
      </trkpt>
      <trkpt lat="39.97401" lon="-4.2951">
        <ele>530.8</ele>
        <time>2020-08-16 10:07:44</time>
      </trkpt>
      <trkpt lat="39.97398" lon="-4.29513">
        <ele>530.8</ele>
        <time>2020-08-16 10:07:45</time>
      </trkpt>
      <trkpt lat="39.97396" lon="-4.29517">
        <ele>531</ele>
        <time>2020-08-16 10:07:46</time>
      </trkpt>
      <trkpt lat="39.97362" lon="-4.2956">
        <ele>531</ele>
        <time>2020-08-16 10:07:57</time>
      </trkpt>
      <trkpt lat="39.97359" lon="-4.29563">
        <ele>531</ele>
        <time>2020-08-16 10:07:58</time>
      </trkpt>
      <trkpt lat="39.97356" lon="-4.29567">
        <ele>531</ele>
        <time>2020-08-16 10:07:59</time>
      </trkpt>
      <trkpt lat="39.97353" lon="-4.29571">
        <ele>531</ele>
        <time>2020-08-16 10:08:00</time>
      </trkpt>
      <trkpt lat="39.9735" lon="-4.29575">
        <ele>531</ele>
        <time>2020-08-16 10:08:01</time>
      </trkpt>
      <trkpt lat="39.97347" lon="-4.29579">
        <ele>531</ele>
        <time>2020-08-16 10:08:02</time>
      </trkpt>
      <trkpt lat="39.97344" lon="-4.29584">
        <ele>531</ele>
        <time>2020-08-16 10:08:03</time>
      </trkpt>
      <trkpt lat="39.97334" lon="-4.29596">
        <ele>531</ele>
        <time>2020-08-16 10:08:06</time>
      </trkpt>
      <trkpt lat="39.97322" lon="-4.29611">
        <ele>531.2</ele>
        <time>2020-08-16 10:08:10</time>
      </trkpt>
      <trkpt lat="39.9732" lon="-4.29614">
        <ele>531.2</ele>
        <time>2020-08-16 10:08:11</time>
      </trkpt>
      <trkpt lat="39.97317" lon="-4.29618">
        <ele>531.2</ele>
        <time>2020-08-16 10:08:12</time>
      </trkpt>
      <trkpt lat="39.97314" lon="-4.29622">
        <ele>531.2</ele>
        <time>2020-08-16 10:08:13</time>
      </trkpt>
      <trkpt lat="39.97311" lon="-4.29625">
        <ele>531.2</ele>
        <time>2020-08-16 10:08:14</time>
      </trkpt>
      <trkpt lat="39.97308" lon="-4.29629">
        <ele>531.2</ele>
        <time>2020-08-16 10:08:15</time>
      </trkpt>
      <trkpt lat="39.97305" lon="-4.29633">
        <ele>531.2</ele>
        <time>2020-08-16 10:08:16</time>
      </trkpt>
      <trkpt lat="39.97303" lon="-4.29637">
        <ele>531.2</ele>
        <time>2020-08-16 10:08:17</time>
      </trkpt>
      <trkpt lat="39.973" lon="-4.29641">
        <ele>531.2</ele>
        <time>2020-08-16 10:08:18</time>
      </trkpt>
      <trkpt lat="39.97297" lon="-4.29645">
        <ele>531.2</ele>
        <time>2020-08-16 10:08:19</time>
      </trkpt>
      <trkpt lat="39.97294" lon="-4.29649">
        <ele>531.2</ele>
        <time>2020-08-16 10:08:20</time>
      </trkpt>
      <trkpt lat="39.97291" lon="-4.29652">
        <ele>531.2</ele>
        <time>2020-08-16 10:08:21</time>
      </trkpt>
      <trkpt lat="39.97285" lon="-4.29659">
        <ele>531.4</ele>
        <time>2020-08-16 10:08:23</time>
      </trkpt>
      <trkpt lat="39.97276" lon="-4.29671">
        <ele>531.6</ele>
        <time>2020-08-16 10:08:26</time>
      </trkpt>
      <trkpt lat="39.97271" lon="-4.29678">
        <ele>531.6</ele>
        <time>2020-08-16 10:08:28</time>
      </trkpt>
      <trkpt lat="39.97268" lon="-4.29681">
        <ele>531.6</ele>
        <time>2020-08-16 10:08:29</time>
      </trkpt>
      <trkpt lat="39.97265" lon="-4.29685">
        <ele>531.8</ele>
        <time>2020-08-16 10:08:30</time>
      </trkpt>
      <trkpt lat="39.97263" lon="-4.29688">
        <ele>531.8</ele>
        <time>2020-08-16 10:08:31</time>
      </trkpt>
      <trkpt lat="39.9726" lon="-4.29691">
        <ele>531.8</ele>
        <time>2020-08-16 10:08:32</time>
      </trkpt>
      <trkpt lat="39.97257" lon="-4.29695">
        <ele>531.8</ele>
        <time>2020-08-16 10:08:33</time>
      </trkpt>
      <trkpt lat="39.97255" lon="-4.29699">
        <ele>532</ele>
        <time>2020-08-16 10:08:34</time>
      </trkpt>
      <trkpt lat="39.97252" lon="-4.29702">
        <ele>532</ele>
        <time>2020-08-16 10:08:35</time>
      </trkpt>
      <trkpt lat="39.97249" lon="-4.29706">
        <ele>532.2</ele>
        <time>2020-08-16 10:08:36</time>
      </trkpt>
      <trkpt lat="39.97247" lon="-4.29709">
        <ele>532.2</ele>
        <time>2020-08-16 10:08:37</time>
      </trkpt>
      <trkpt lat="39.97245" lon="-4.29713">
        <ele>532.4</ele>
        <time>2020-08-16 10:08:38</time>
      </trkpt>
      <trkpt lat="39.97243" lon="-4.29717">
        <ele>532.4</ele>
        <time>2020-08-16 10:08:39</time>
      </trkpt>
      <trkpt lat="39.97241" lon="-4.29721">
        <ele>532.4</ele>
        <time>2020-08-16 10:08:40</time>
      </trkpt>
      <trkpt lat="39.97239" lon="-4.29724">
        <ele>532.6</ele>
        <time>2020-08-16 10:08:41</time>
      </trkpt>
      <trkpt lat="39.97238" lon="-4.29727">
        <ele>532.6</ele>
        <time>2020-08-16 10:08:42</time>
      </trkpt>
      <trkpt lat="39.97236" lon="-4.2973">
        <ele>532.6</ele>
        <time>2020-08-16 10:08:43</time>
      </trkpt>
      <trkpt lat="39.97235" lon="-4.29732">
        <ele>532.6</ele>
        <time>2020-08-16 10:08:44</time>
      </trkpt>
      <trkpt lat="39.97235" lon="-4.29732">
        <ele>532.6</ele>
        <time>2020-08-16 10:08:45</time>
      </trkpt>
      <trkpt lat="39.97233" lon="-4.29737">
        <ele>532.8</ele>
        <time>2020-08-16 10:08:46</time>
      </trkpt>
      <trkpt lat="39.97232" lon="-4.2974">
        <ele>532.8</ele>
        <time>2020-08-16 10:08:47</time>
      </trkpt>
      <trkpt lat="39.97231" lon="-4.29743">
        <ele>532.8</ele>
        <time>2020-08-16 10:08:48</time>
      </trkpt>
      <trkpt lat="39.97229" lon="-4.2975">
        <ele>533</ele>
        <time>2020-08-16 10:08:50</time>
      </trkpt>
      <trkpt lat="39.97228" lon="-4.29753">
        <ele>533</ele>
        <time>2020-08-16 10:08:51</time>
      </trkpt>
      <trkpt lat="39.97227" lon="-4.29756">
        <ele>533.2</ele>
        <time>2020-08-16 10:08:52</time>
      </trkpt>
      <trkpt lat="39.97227" lon="-4.29759">
        <ele>533.2</ele>
        <time>2020-08-16 10:08:53</time>
      </trkpt>
      <trkpt lat="39.97226" lon="-4.29763">
        <ele>533.2</ele>
        <time>2020-08-16 10:08:54</time>
      </trkpt>
      <trkpt lat="39.97226" lon="-4.29766">
        <ele>533.2</ele>
        <time>2020-08-16 10:08:55</time>
      </trkpt>
      <trkpt lat="39.97226" lon="-4.29769">
        <ele>533.2</ele>
        <time>2020-08-16 10:08:56</time>
      </trkpt>
      <trkpt lat="39.97226" lon="-4.29771">
        <ele>533.2</ele>
        <time>2020-08-16 10:08:57</time>
      </trkpt>
      <trkpt lat="39.97225" lon="-4.29773">
        <ele>533.4</ele>
        <time>2020-08-16 10:08:58</time>
      </trkpt>
      <trkpt lat="39.97225" lon="-4.29775">
        <ele>533.4</ele>
        <time>2020-08-16 10:08:59</time>
      </trkpt>
      <trkpt lat="39.97224" lon="-4.29776">
        <ele>533.4</ele>
        <time>2020-08-16 10:09:00</time>
      </trkpt>
      <trkpt lat="39.97223" lon="-4.29777">
        <ele>533.4</ele>
        <time>2020-08-16 10:09:01</time>
      </trkpt>
      <trkpt lat="39.97222" lon="-4.29777">
        <ele>533.6</ele>
        <time>2020-08-16 10:09:02</time>
      </trkpt>
      <trkpt lat="39.97222" lon="-4.29777">
        <ele>533.6</ele>
        <time>2020-08-16 10:09:03</time>
      </trkpt>
      <trkpt lat="39.97222" lon="-4.29777">
        <ele>533.6</ele>
        <time>2020-08-16 10:09:04</time>
      </trkpt>
      <trkpt lat="39.97211" lon="-4.29787">
        <ele>534.4</ele>
        <time>2020-08-16 10:12:27</time>
      </trkpt>
      <trkpt lat="39.97209" lon="-4.29787">
        <ele>534.4</ele>
        <time>2020-08-16 10:12:28</time>
      </trkpt>
      <trkpt lat="39.97205" lon="-4.29787">
        <ele>534.4</ele>
        <time>2020-08-16 10:12:30</time>
      </trkpt>
      <trkpt lat="39.97202" lon="-4.29787">
        <ele>534.4</ele>
        <time>2020-08-16 10:12:31</time>
      </trkpt>
      <trkpt lat="39.97198" lon="-4.29789">
        <ele>534.4</ele>
        <time>2020-08-16 10:12:33</time>
      </trkpt>
      <trkpt lat="39.97196" lon="-4.29791">
        <ele>534.4</ele>
        <time>2020-08-16 10:12:34</time>
      </trkpt>
      <trkpt lat="39.97191" lon="-4.29796">
        <ele>534.4</ele>
        <time>2020-08-16 10:12:36</time>
      </trkpt>
      <trkpt lat="39.97189" lon="-4.29799">
        <ele>534.4</ele>
        <time>2020-08-16 10:12:37</time>
      </trkpt>
      <trkpt lat="39.97188" lon="-4.29801">
        <ele>534.4</ele>
        <time>2020-08-16 10:12:38</time>
      </trkpt>
      <trkpt lat="39.97185" lon="-4.29804">
        <ele>534.4</ele>
        <time>2020-08-16 10:12:39</time>
      </trkpt>
      <trkpt lat="39.97182" lon="-4.29807">
        <ele>534.4</ele>
        <time>2020-08-16 10:12:40</time>
      </trkpt>
      <trkpt lat="39.9718" lon="-4.29809">
        <ele>534.4</ele>
        <time>2020-08-16 10:12:41</time>
      </trkpt>
      <trkpt lat="39.97178" lon="-4.29812">
        <ele>534.4</ele>
        <time>2020-08-16 10:12:42</time>
      </trkpt>
      <trkpt lat="39.97175" lon="-4.29815">
        <ele>534.4</ele>
        <time>2020-08-16 10:12:43</time>
      </trkpt>
      <trkpt lat="39.97171" lon="-4.29819">
        <ele>534.6</ele>
        <time>2020-08-16 10:12:45</time>
      </trkpt>
      <trkpt lat="39.97167" lon="-4.29823">
        <ele>534.8</ele>
        <time>2020-08-16 10:12:47</time>
      </trkpt>
      <trkpt lat="39.97163" lon="-4.29827">
        <ele>535</ele>
        <time>2020-08-16 10:12:49</time>
      </trkpt>
      <trkpt lat="39.97161" lon="-4.2983">
        <ele>535.2</ele>
        <time>2020-08-16 10:12:50</time>
      </trkpt>
      <trkpt lat="39.97159" lon="-4.29832">
        <ele>535.4</ele>
        <time>2020-08-16 10:12:51</time>
      </trkpt>
      <trkpt lat="39.97147" lon="-4.29845">
        <ele>535.6</ele>
        <time>2020-08-16 10:12:56</time>
      </trkpt>
      <trkpt lat="39.97145" lon="-4.29848">
        <ele>535.6</ele>
        <time>2020-08-16 10:12:57</time>
      </trkpt>
      <trkpt lat="39.97139" lon="-4.29855">
        <ele>536</ele>
        <time>2020-08-16 10:13:00</time>
      </trkpt>
      <trkpt lat="39.97134" lon="-4.2986">
        <ele>536.2</ele>
        <time>2020-08-16 10:13:02</time>
      </trkpt>
      <trkpt lat="39.97132" lon="-4.29862">
        <ele>536.2</ele>
        <time>2020-08-16 10:13:03</time>
      </trkpt>
      <trkpt lat="39.97125" lon="-4.29871">
        <ele>536.6</ele>
        <time>2020-08-16 10:13:06</time>
      </trkpt>
      <trkpt lat="39.97122" lon="-4.29873">
        <ele>536.6</ele>
        <time>2020-08-16 10:13:07</time>
      </trkpt>
      <trkpt lat="39.97119" lon="-4.29876">
        <ele>536.6</ele>
        <time>2020-08-16 10:13:08</time>
      </trkpt>
      <trkpt lat="39.97115" lon="-4.29881">
        <ele>536.6</ele>
        <time>2020-08-16 10:13:10</time>
      </trkpt>
      <trkpt lat="39.97091" lon="-4.2991">
        <ele>537.4</ele>
        <time>2020-08-16 10:13:20</time>
      </trkpt>
      <trkpt lat="39.97089" lon="-4.29913">
        <ele>537.6</ele>
        <time>2020-08-16 10:13:21</time>
      </trkpt>
      <trkpt lat="39.97086" lon="-4.29916">
        <ele>537.6</ele>
        <time>2020-08-16 10:13:22</time>
      </trkpt>
      <trkpt lat="39.97084" lon="-4.29919">
        <ele>537.8</ele>
        <time>2020-08-16 10:13:23</time>
      </trkpt>
      <trkpt lat="39.97081" lon="-4.29922">
        <ele>538</ele>
        <time>2020-08-16 10:13:24</time>
      </trkpt>
      <trkpt lat="39.97078" lon="-4.29924">
        <ele>538</ele>
        <time>2020-08-16 10:13:25</time>
      </trkpt>
      <trkpt lat="39.97076" lon="-4.29927">
        <ele>538.2</ele>
        <time>2020-08-16 10:13:26</time>
      </trkpt>
      <trkpt lat="39.97074" lon="-4.2993">
        <ele>538.2</ele>
        <time>2020-08-16 10:13:27</time>
      </trkpt>
      <trkpt lat="39.97072" lon="-4.29933">
        <ele>538.2</ele>
        <time>2020-08-16 10:13:28</time>
      </trkpt>
      <trkpt lat="39.97069" lon="-4.29936">
        <ele>538.4</ele>
        <time>2020-08-16 10:13:29</time>
      </trkpt>
      <trkpt lat="39.9706" lon="-4.29947">
        <ele>538.8</ele>
        <time>2020-08-16 10:13:33</time>
      </trkpt>
      <trkpt lat="39.97058" lon="-4.2995">
        <ele>538.8</ele>
        <time>2020-08-16 10:13:34</time>
      </trkpt>
      <trkpt lat="39.97056" lon="-4.29954">
        <ele>538.8</ele>
        <time>2020-08-16 10:13:35</time>
      </trkpt>
      <trkpt lat="39.97043" lon="-4.29969">
        <ele>539.4</ele>
        <time>2020-08-16 10:13:40</time>
      </trkpt>
      <trkpt lat="39.97038" lon="-4.29976">
        <ele>539.6</ele>
        <time>2020-08-16 10:13:42</time>
      </trkpt>
      <trkpt lat="39.97035" lon="-4.29978">
        <ele>539.8</ele>
        <time>2020-08-16 10:13:43</time>
      </trkpt>
      <trkpt lat="39.97033" lon="-4.29981">
        <ele>539.8</ele>
        <time>2020-08-16 10:13:44</time>
      </trkpt>
      <trkpt lat="39.97031" lon="-4.29984">
        <ele>540</ele>
        <time>2020-08-16 10:13:45</time>
      </trkpt>
      <trkpt lat="39.97028" lon="-4.29988">
        <ele>540</ele>
        <time>2020-08-16 10:13:46</time>
      </trkpt>
      <trkpt lat="39.97026" lon="-4.29991">
        <ele>540</ele>
        <time>2020-08-16 10:13:47</time>
      </trkpt>
      <trkpt lat="39.97019" lon="-4.3">
        <ele>540.2</ele>
        <time>2020-08-16 10:13:50</time>
      </trkpt>
      <trkpt lat="39.97014" lon="-4.30007">
        <ele>540.4</ele>
        <time>2020-08-16 10:13:52</time>
      </trkpt>
      <trkpt lat="39.97011" lon="-4.3001">
        <ele>540.4</ele>
        <time>2020-08-16 10:13:53</time>
      </trkpt>
      <trkpt lat="39.97009" lon="-4.30013">
        <ele>540.4</ele>
        <time>2020-08-16 10:13:54</time>
      </trkpt>
      <trkpt lat="39.97007" lon="-4.30016">
        <ele>540.6</ele>
        <time>2020-08-16 10:13:55</time>
      </trkpt>
      <trkpt lat="39.97004" lon="-4.3002">
        <ele>540.8</ele>
        <time>2020-08-16 10:13:56</time>
      </trkpt>
      <trkpt lat="39.97002" lon="-4.30023">
        <ele>540.8</ele>
        <time>2020-08-16 10:13:57</time>
      </trkpt>
      <trkpt lat="39.96999" lon="-4.30026">
        <ele>541</ele>
        <time>2020-08-16 10:13:58</time>
      </trkpt>
      <trkpt lat="39.96997" lon="-4.30029">
        <ele>541</ele>
        <time>2020-08-16 10:13:59</time>
      </trkpt>
      <trkpt lat="39.96994" lon="-4.30033">
        <ele>541</ele>
        <time>2020-08-16 10:14:00</time>
      </trkpt>
      <trkpt lat="39.96992" lon="-4.30036">
        <ele>541</ele>
        <time>2020-08-16 10:14:01</time>
      </trkpt>
      <trkpt lat="39.96989" lon="-4.30039">
        <ele>541.2</ele>
        <time>2020-08-16 10:14:02</time>
      </trkpt>
      <trkpt lat="39.96983" lon="-4.30046">
        <ele>541.2</ele>
        <time>2020-08-16 10:14:04</time>
      </trkpt>
      <trkpt lat="39.96973" lon="-4.30059">
        <ele>541.4</ele>
        <time>2020-08-16 10:14:08</time>
      </trkpt>
      <trkpt lat="39.96971" lon="-4.30062">
        <ele>541.4</ele>
        <time>2020-08-16 10:14:09</time>
      </trkpt>
      <trkpt lat="39.96961" lon="-4.30075">
        <ele>541.6</ele>
        <time>2020-08-16 10:14:13</time>
      </trkpt>
      <trkpt lat="39.96946" lon="-4.30095">
        <ele>541.8</ele>
        <time>2020-08-16 10:14:19</time>
      </trkpt>
      <trkpt lat="39.96944" lon="-4.30098">
        <ele>541.8</ele>
        <time>2020-08-16 10:14:20</time>
      </trkpt>
      <trkpt lat="39.96941" lon="-4.30102">
        <ele>541.8</ele>
        <time>2020-08-16 10:14:21</time>
      </trkpt>
      <trkpt lat="39.96924" lon="-4.30123">
        <ele>542</ele>
        <time>2020-08-16 10:14:27</time>
      </trkpt>
      <trkpt lat="39.96907" lon="-4.30145">
        <ele>542.4</ele>
        <time>2020-08-16 10:14:33</time>
      </trkpt>
      <trkpt lat="39.96898" lon="-4.30157">
        <ele>542.6</ele>
        <time>2020-08-16 10:14:36</time>
      </trkpt>
      <trkpt lat="39.96884" lon="-4.30174">
        <ele>542.8</ele>
        <time>2020-08-16 10:14:41</time>
      </trkpt>
      <trkpt lat="39.9687" lon="-4.3019">
        <ele>543</ele>
        <time>2020-08-16 10:14:46</time>
      </trkpt>
      <trkpt lat="39.96867" lon="-4.30193">
        <ele>543</ele>
        <time>2020-08-16 10:14:47</time>
      </trkpt>
      <trkpt lat="39.96865" lon="-4.30196">
        <ele>543</ele>
        <time>2020-08-16 10:14:48</time>
      </trkpt>
      <trkpt lat="39.96862" lon="-4.30199">
        <ele>543.2</ele>
        <time>2020-08-16 10:14:49</time>
      </trkpt>
      <trkpt lat="39.96859" lon="-4.30203">
        <ele>543.2</ele>
        <time>2020-08-16 10:14:50</time>
      </trkpt>
      <trkpt lat="39.96848" lon="-4.30216">
        <ele>543.2</ele>
        <time>2020-08-16 10:14:54</time>
      </trkpt>
      <trkpt lat="39.96842" lon="-4.30222">
        <ele>543.4</ele>
        <time>2020-08-16 10:14:56</time>
      </trkpt>
      <trkpt lat="39.9684" lon="-4.30226">
        <ele>543.4</ele>
        <time>2020-08-16 10:14:57</time>
      </trkpt>
      <trkpt lat="39.96837" lon="-4.30229">
        <ele>543.4</ele>
        <time>2020-08-16 10:14:58</time>
      </trkpt>
      <trkpt lat="39.96835" lon="-4.30232">
        <ele>543.4</ele>
        <time>2020-08-16 10:14:59</time>
      </trkpt>
      <trkpt lat="39.96832" lon="-4.30235">
        <ele>543.6</ele>
        <time>2020-08-16 10:15:00</time>
      </trkpt>
      <trkpt lat="39.96829" lon="-4.30238">
        <ele>543.6</ele>
        <time>2020-08-16 10:15:01</time>
      </trkpt>
      <trkpt lat="39.96827" lon="-4.30242">
        <ele>543.6</ele>
        <time>2020-08-16 10:15:02</time>
      </trkpt>
      <trkpt lat="39.96824" lon="-4.30246">
        <ele>543.8</ele>
        <time>2020-08-16 10:15:03</time>
      </trkpt>
      <trkpt lat="39.96821" lon="-4.3025">
        <ele>543.6</ele>
        <time>2020-08-16 10:15:04</time>
      </trkpt>
      <trkpt lat="39.96818" lon="-4.30253">
        <ele>543.6</ele>
        <time>2020-08-16 10:15:05</time>
      </trkpt>
      <trkpt lat="39.96816" lon="-4.30256">
        <ele>543.8</ele>
        <time>2020-08-16 10:15:06</time>
      </trkpt>
      <trkpt lat="39.96813" lon="-4.30258">
        <ele>543.8</ele>
        <time>2020-08-16 10:15:07</time>
      </trkpt>
      <trkpt lat="39.96811" lon="-4.3026">
        <ele>543.8</ele>
        <time>2020-08-16 10:15:08</time>
      </trkpt>
      <trkpt lat="39.96808" lon="-4.30263">
        <ele>543.8</ele>
        <time>2020-08-16 10:15:09</time>
      </trkpt>
      <trkpt lat="39.96805" lon="-4.30265">
        <ele>544</ele>
        <time>2020-08-16 10:15:10</time>
      </trkpt>
      <trkpt lat="39.96803" lon="-4.30267">
        <ele>544</ele>
        <time>2020-08-16 10:15:11</time>
      </trkpt>
      <trkpt lat="39.968" lon="-4.30269">
        <ele>544</ele>
        <time>2020-08-16 10:15:12</time>
      </trkpt>
      <trkpt lat="39.96797" lon="-4.3027">
        <ele>544</ele>
        <time>2020-08-16 10:15:13</time>
      </trkpt>
      <trkpt lat="39.96796" lon="-4.30271">
        <ele>544</ele>
        <time>2020-08-16 10:15:14</time>
      </trkpt>
      <trkpt lat="39.96796" lon="-4.30271">
        <ele>544</ele>
        <time>2020-08-16 10:15:15</time>
      </trkpt>
      <trkpt lat="39.96796" lon="-4.30271">
        <ele>544</ele>
        <time>2020-08-16 10:15:17</time>
      </trkpt>
      <trkpt lat="39.96794" lon="-4.30271">
        <ele>543.8</ele>
        <time>2020-08-16 10:15:35</time>
      </trkpt>
      <trkpt lat="39.96791" lon="-4.30271">
        <ele>543.8</ele>
        <time>2020-08-16 10:15:36</time>
      </trkpt>
      <trkpt lat="39.96788" lon="-4.30272">
        <ele>543.8</ele>
        <time>2020-08-16 10:15:37</time>
      </trkpt>
      <trkpt lat="39.96785" lon="-4.30273">
        <ele>543.6</ele>
        <time>2020-08-16 10:15:38</time>
      </trkpt>
      <trkpt lat="39.96778" lon="-4.30275">
        <ele>543.6</ele>
        <time>2020-08-16 10:15:40</time>
      </trkpt>
      <trkpt lat="39.96774" lon="-4.30277">
        <ele>543.6</ele>
        <time>2020-08-16 10:15:41</time>
      </trkpt>
      <trkpt lat="39.96755" lon="-4.30283">
        <ele>543.4</ele>
        <time>2020-08-16 10:15:46</time>
      </trkpt>
      <trkpt lat="39.96743" lon="-4.30289">
        <ele>543.4</ele>
        <time>2020-08-16 10:15:49</time>
      </trkpt>
      <trkpt lat="39.96737" lon="-4.30292">
        <ele>543.4</ele>
        <time>2020-08-16 10:15:51</time>
      </trkpt>
      <trkpt lat="39.96734" lon="-4.30294">
        <ele>543.6</ele>
        <time>2020-08-16 10:15:52</time>
      </trkpt>
      <trkpt lat="39.96731" lon="-4.30295">
        <ele>543.6</ele>
        <time>2020-08-16 10:15:53</time>
      </trkpt>
      <trkpt lat="39.96729" lon="-4.30297">
        <ele>543.6</ele>
        <time>2020-08-16 10:15:54</time>
      </trkpt>
      <trkpt lat="39.96727" lon="-4.30298">
        <ele>543.6</ele>
        <time>2020-08-16 10:15:55</time>
      </trkpt>
      <trkpt lat="39.96724" lon="-4.30299">
        <ele>543.6</ele>
        <time>2020-08-16 10:15:56</time>
      </trkpt>
      <trkpt lat="39.96721" lon="-4.303">
        <ele>543.6</ele>
        <time>2020-08-16 10:15:57</time>
      </trkpt>
      <trkpt lat="39.96715" lon="-4.30302">
        <ele>543.8</ele>
        <time>2020-08-16 10:15:59</time>
      </trkpt>
      <trkpt lat="39.96712" lon="-4.30304">
        <ele>543.8</ele>
        <time>2020-08-16 10:16:00</time>
      </trkpt>
      <trkpt lat="39.96709" lon="-4.30305">
        <ele>543.8</ele>
        <time>2020-08-16 10:16:01</time>
      </trkpt>
      <trkpt lat="39.96706" lon="-4.30307">
        <ele>543.8</ele>
        <time>2020-08-16 10:16:02</time>
      </trkpt>
      <trkpt lat="39.96703" lon="-4.30308">
        <ele>543.8</ele>
        <time>2020-08-16 10:16:03</time>
      </trkpt>
      <trkpt lat="39.967" lon="-4.30309">
        <ele>543.8</ele>
        <time>2020-08-16 10:16:04</time>
      </trkpt>
      <trkpt lat="39.96698" lon="-4.3031">
        <ele>543.8</ele>
        <time>2020-08-16 10:16:05</time>
      </trkpt>
      <trkpt lat="39.96697" lon="-4.3031">
        <ele>543.8</ele>
        <time>2020-08-16 10:16:06</time>
      </trkpt>
      <trkpt lat="39.96695" lon="-4.30311">
        <ele>543.8</ele>
        <time>2020-08-16 10:16:07</time>
      </trkpt>
      <trkpt lat="39.96692" lon="-4.30312">
        <ele>543.8</ele>
        <time>2020-08-16 10:16:08</time>
      </trkpt>
      <trkpt lat="39.96689" lon="-4.30312">
        <ele>543.8</ele>
        <time>2020-08-16 10:16:09</time>
      </trkpt>
      <trkpt lat="39.96685" lon="-4.30312">
        <ele>543.8</ele>
        <time>2020-08-16 10:16:11</time>
      </trkpt>
      <trkpt lat="39.96682" lon="-4.30312">
        <ele>543.8</ele>
        <time>2020-08-16 10:16:12</time>
      </trkpt>
      <trkpt lat="39.96677" lon="-4.30314">
        <ele>543.8</ele>
        <time>2020-08-16 10:16:14</time>
      </trkpt>
      <trkpt lat="39.96674" lon="-4.30314">
        <ele>543.8</ele>
        <time>2020-08-16 10:16:15</time>
      </trkpt>
      <trkpt lat="39.96672" lon="-4.30315">
        <ele>543.8</ele>
        <time>2020-08-16 10:16:16</time>
      </trkpt>
      <trkpt lat="39.9667" lon="-4.30315">
        <ele>543.8</ele>
        <time>2020-08-16 10:16:17</time>
      </trkpt>
      <trkpt lat="39.96668" lon="-4.30316">
        <ele>543.8</ele>
        <time>2020-08-16 10:16:18</time>
      </trkpt>
      <trkpt lat="39.96666" lon="-4.30316">
        <ele>543.8</ele>
        <time>2020-08-16 10:16:19</time>
      </trkpt>
      <trkpt lat="39.96664" lon="-4.30316">
        <ele>543.8</ele>
        <time>2020-08-16 10:16:20</time>
      </trkpt>
      <trkpt lat="39.96661" lon="-4.30317">
        <ele>543.8</ele>
        <time>2020-08-16 10:16:21</time>
      </trkpt>
      <trkpt lat="39.96661" lon="-4.3032">
        <ele>543.8</ele>
        <time>2020-08-16 10:16:22</time>
      </trkpt>
      <trkpt lat="39.96659" lon="-4.30321">
        <ele>543.8</ele>
        <time>2020-08-16 10:16:23</time>
      </trkpt>
      <trkpt lat="39.96659" lon="-4.30321">
        <ele>543.8</ele>
        <time>2020-08-16 10:16:24</time>
      </trkpt>
      <trkpt lat="39.96659" lon="-4.30321">
        <ele>543.8</ele>
        <time>2020-08-16 10:16:25</time>
      </trkpt>
      <trkpt lat="39.96658" lon="-4.30322">
        <ele>543.8</ele>
        <time>2020-08-16 10:16:26</time>
      </trkpt>
      <trkpt lat="39.96656" lon="-4.30323">
        <ele>543.8</ele>
        <time>2020-08-16 10:16:27</time>
      </trkpt>
      <trkpt lat="39.96653" lon="-4.30323">
        <ele>543.8</ele>
        <time>2020-08-16 10:16:28</time>
      </trkpt>
      <trkpt lat="39.96646" lon="-4.30325">
        <ele>543.8</ele>
        <time>2020-08-16 10:16:30</time>
      </trkpt>
      <trkpt lat="39.96644" lon="-4.30326">
        <ele>543.8</ele>
        <time>2020-08-16 10:16:31</time>
      </trkpt>
      <trkpt lat="39.96642" lon="-4.30328">
        <ele>543.8</ele>
        <time>2020-08-16 10:16:32</time>
      </trkpt>
      <trkpt lat="39.9664" lon="-4.3033">
        <ele>543.8</ele>
        <time>2020-08-16 10:16:33</time>
      </trkpt>
      <trkpt lat="39.96639" lon="-4.30335">
        <ele>543.8</ele>
        <time>2020-08-16 10:16:34</time>
      </trkpt>
      <trkpt lat="39.96638" lon="-4.3034">
        <ele>543.8</ele>
        <time>2020-08-16 10:16:35</time>
      </trkpt>
      <trkpt lat="39.96637" lon="-4.30344">
        <ele>543.8</ele>
        <time>2020-08-16 10:16:36</time>
      </trkpt>
      <trkpt lat="39.96636" lon="-4.30347">
        <ele>543.8</ele>
        <time>2020-08-16 10:16:37</time>
      </trkpt>
      <trkpt lat="39.96634" lon="-4.30355">
        <ele>543.6</ele>
        <time>2020-08-16 10:16:40</time>
      </trkpt>
      <trkpt lat="39.96633" lon="-4.30359">
        <ele>543.6</ele>
        <time>2020-08-16 10:16:41</time>
      </trkpt>
      <trkpt lat="39.96633" lon="-4.30363">
        <ele>543.6</ele>
        <time>2020-08-16 10:16:42</time>
      </trkpt>
      <trkpt lat="39.96632" lon="-4.30367">
        <ele>543.6</ele>
        <time>2020-08-16 10:16:43</time>
      </trkpt>
      <trkpt lat="39.96631" lon="-4.30371">
        <ele>543.6</ele>
        <time>2020-08-16 10:16:44</time>
      </trkpt>
      <trkpt lat="39.9663" lon="-4.30373">
        <ele>543.6</ele>
        <time>2020-08-16 10:16:45</time>
      </trkpt>
      <trkpt lat="39.96628" lon="-4.30376">
        <ele>543.6</ele>
        <time>2020-08-16 10:16:46</time>
      </trkpt>
      <trkpt lat="39.96626" lon="-4.30378">
        <ele>543.6</ele>
        <time>2020-08-16 10:16:47</time>
      </trkpt>
      <trkpt lat="39.96624" lon="-4.30379">
        <ele>543.6</ele>
        <time>2020-08-16 10:16:48</time>
      </trkpt>
      <trkpt lat="39.96622" lon="-4.30381">
        <ele>543.6</ele>
        <time>2020-08-16 10:16:49</time>
      </trkpt>
      <trkpt lat="39.96622" lon="-4.30381">
        <ele>543.6</ele>
        <time>2020-08-16 10:16:50</time>
      </trkpt>
      <trkpt lat="39.96622" lon="-4.30381">
        <ele>543.8</ele>
        <time>2020-08-16 10:16:52</time>
      </trkpt>
      <trkpt lat="39.96624" lon="-4.30392">
        <ele>543.8</ele>
        <time>2020-08-16 10:21:40</time>
      </trkpt>
      <trkpt lat="39.96624" lon="-4.30396">
        <ele>543.8</ele>
        <time>2020-08-16 10:21:41</time>
      </trkpt>
      <trkpt lat="39.96624" lon="-4.304">
        <ele>543.8</ele>
        <time>2020-08-16 10:21:42</time>
      </trkpt>
      <trkpt lat="39.96623" lon="-4.30408">
        <ele>543.8</ele>
        <time>2020-08-16 10:21:44</time>
      </trkpt>
      <trkpt lat="39.96623" lon="-4.30412">
        <ele>543.8</ele>
        <time>2020-08-16 10:21:45</time>
      </trkpt>
      <trkpt lat="39.96622" lon="-4.30421">
        <ele>543.8</ele>
        <time>2020-08-16 10:21:47</time>
      </trkpt>
      <trkpt lat="39.96621" lon="-4.30425">
        <ele>543.8</ele>
        <time>2020-08-16 10:21:48</time>
      </trkpt>
      <trkpt lat="39.9662" lon="-4.30435">
        <ele>543.6</ele>
        <time>2020-08-16 10:21:50</time>
      </trkpt>
      <trkpt lat="39.96618" lon="-4.3044">
        <ele>543.6</ele>
        <time>2020-08-16 10:21:51</time>
      </trkpt>
      <trkpt lat="39.96613" lon="-4.30451">
        <ele>543.6</ele>
        <time>2020-08-16 10:21:53</time>
      </trkpt>
      <trkpt lat="39.96609" lon="-4.3046">
        <ele>543.6</ele>
        <time>2020-08-16 10:21:55</time>
      </trkpt>
      <trkpt lat="39.96602" lon="-4.3047">
        <ele>543.4</ele>
        <time>2020-08-16 10:21:57</time>
      </trkpt>
      <trkpt lat="39.96595" lon="-4.3048">
        <ele>543.4</ele>
        <time>2020-08-16 10:21:59</time>
      </trkpt>
      <trkpt lat="39.96588" lon="-4.30489">
        <ele>543.4</ele>
        <time>2020-08-16 10:22:01</time>
      </trkpt>
      <trkpt lat="39.96585" lon="-4.30495">
        <ele>543.4</ele>
        <time>2020-08-16 10:22:02</time>
      </trkpt>
      <trkpt lat="39.96583" lon="-4.30501">
        <ele>543.2</ele>
        <time>2020-08-16 10:22:03</time>
      </trkpt>
      <trkpt lat="39.96582" lon="-4.30506">
        <ele>543</ele>
        <time>2020-08-16 10:22:04</time>
      </trkpt>
      <trkpt lat="39.96581" lon="-4.30511">
        <ele>543</ele>
        <time>2020-08-16 10:22:05</time>
      </trkpt>
      <trkpt lat="39.96581" lon="-4.30516">
        <ele>542.8</ele>
        <time>2020-08-16 10:22:06</time>
      </trkpt>
      <trkpt lat="39.96581" lon="-4.30521">
        <ele>542.6</ele>
        <time>2020-08-16 10:22:07</time>
      </trkpt>
      <trkpt lat="39.96581" lon="-4.30526">
        <ele>542.6</ele>
        <time>2020-08-16 10:22:08</time>
      </trkpt>
      <trkpt lat="39.96581" lon="-4.3053">
        <ele>542.6</ele>
        <time>2020-08-16 10:22:09</time>
      </trkpt>
      <trkpt lat="39.96581" lon="-4.30534">
        <ele>542.6</ele>
        <time>2020-08-16 10:22:10</time>
      </trkpt>
      <trkpt lat="39.96582" lon="-4.30538">
        <ele>542.6</ele>
        <time>2020-08-16 10:22:11</time>
      </trkpt>
      <trkpt lat="39.96582" lon="-4.30543">
        <ele>542.6</ele>
        <time>2020-08-16 10:22:12</time>
      </trkpt>
      <trkpt lat="39.96583" lon="-4.30548">
        <ele>542.8</ele>
        <time>2020-08-16 10:22:13</time>
      </trkpt>
      <trkpt lat="39.96583" lon="-4.30552">
        <ele>543</ele>
        <time>2020-08-16 10:22:14</time>
      </trkpt>
      <trkpt lat="39.96584" lon="-4.30556">
        <ele>543.4</ele>
        <time>2020-08-16 10:22:15</time>
      </trkpt>
      <trkpt lat="39.96585" lon="-4.3056">
        <ele>543.4</ele>
        <time>2020-08-16 10:22:16</time>
      </trkpt>
      <trkpt lat="39.96586" lon="-4.30564">
        <ele>543.8</ele>
        <time>2020-08-16 10:22:17</time>
      </trkpt>
      <trkpt lat="39.96586" lon="-4.30568">
        <ele>544</ele>
        <time>2020-08-16 10:22:18</time>
      </trkpt>
      <trkpt lat="39.96587" lon="-4.30572">
        <ele>544</ele>
        <time>2020-08-16 10:22:19</time>
      </trkpt>
      <trkpt lat="39.96589" lon="-4.30576">
        <ele>544.2</ele>
        <time>2020-08-16 10:22:20</time>
      </trkpt>
      <trkpt lat="39.9659" lon="-4.3058">
        <ele>544.4</ele>
        <time>2020-08-16 10:22:21</time>
      </trkpt>
      <trkpt lat="39.96591" lon="-4.30584">
        <ele>544.6</ele>
        <time>2020-08-16 10:22:22</time>
      </trkpt>
      <trkpt lat="39.96592" lon="-4.30588">
        <ele>544.6</ele>
        <time>2020-08-16 10:22:23</time>
      </trkpt>
      <trkpt lat="39.96593" lon="-4.30592">
        <ele>544.8</ele>
        <time>2020-08-16 10:22:24</time>
      </trkpt>
      <trkpt lat="39.96594" lon="-4.30597">
        <ele>544.8</ele>
        <time>2020-08-16 10:22:25</time>
      </trkpt>
      <trkpt lat="39.96595" lon="-4.30602">
        <ele>545</ele>
        <time>2020-08-16 10:22:26</time>
      </trkpt>
      <trkpt lat="39.96595" lon="-4.30607">
        <ele>545</ele>
        <time>2020-08-16 10:22:27</time>
      </trkpt>
      <trkpt lat="39.96596" lon="-4.30612">
        <ele>545</ele>
        <time>2020-08-16 10:22:28</time>
      </trkpt>
      <trkpt lat="39.96598" lon="-4.30621">
        <ele>545.2</ele>
        <time>2020-08-16 10:22:30</time>
      </trkpt>
      <trkpt lat="39.966" lon="-4.30625">
        <ele>545.2</ele>
        <time>2020-08-16 10:22:31</time>
      </trkpt>
      <trkpt lat="39.96605" lon="-4.30632">
        <ele>545.4</ele>
        <time>2020-08-16 10:22:33</time>
      </trkpt>
      <trkpt lat="39.96607" lon="-4.30637">
        <ele>545.4</ele>
        <time>2020-08-16 10:22:34</time>
      </trkpt>
      <trkpt lat="39.96608" lon="-4.30642">
        <ele>545.4</ele>
        <time>2020-08-16 10:22:35</time>
      </trkpt>
      <trkpt lat="39.96612" lon="-4.30659">
        <ele>545.8</ele>
        <time>2020-08-16 10:22:38</time>
      </trkpt>
      <trkpt lat="39.96615" lon="-4.3067">
        <ele>545.8</ele>
        <time>2020-08-16 10:22:40</time>
      </trkpt>
      <trkpt lat="39.96622" lon="-4.30698">
        <ele>545.6</ele>
        <time>2020-08-16 10:22:45</time>
      </trkpt>
      <trkpt lat="39.96626" lon="-4.3072">
        <ele>545.2</ele>
        <time>2020-08-16 10:22:49</time>
      </trkpt>
      <trkpt lat="39.96627" lon="-4.30725">
        <ele>545</ele>
        <time>2020-08-16 10:22:50</time>
      </trkpt>
      <trkpt lat="39.96628" lon="-4.3073">
        <ele>545</ele>
        <time>2020-08-16 10:22:51</time>
      </trkpt>
      <trkpt lat="39.96628" lon="-4.30736">
        <ele>545</ele>
        <time>2020-08-16 10:22:52</time>
      </trkpt>
      <trkpt lat="39.9663" lon="-4.30741">
        <ele>544.8</ele>
        <time>2020-08-16 10:22:53</time>
      </trkpt>
      <trkpt lat="39.96631" lon="-4.30746">
        <ele>544.8</ele>
        <time>2020-08-16 10:22:54</time>
      </trkpt>
      <trkpt lat="39.96632" lon="-4.30752">
        <ele>544.8</ele>
        <time>2020-08-16 10:22:55</time>
      </trkpt>
      <trkpt lat="39.96633" lon="-4.30757">
        <ele>544.8</ele>
        <time>2020-08-16 10:22:56</time>
      </trkpt>
      <trkpt lat="39.96634" lon="-4.30763">
        <ele>544.8</ele>
        <time>2020-08-16 10:22:57</time>
      </trkpt>
      <trkpt lat="39.96634" lon="-4.30769">
        <ele>544.8</ele>
        <time>2020-08-16 10:22:58</time>
      </trkpt>
      <trkpt lat="39.96636" lon="-4.30786">
        <ele>544.8</ele>
        <time>2020-08-16 10:23:01</time>
      </trkpt>
      <trkpt lat="39.96638" lon="-4.30791">
        <ele>544.8</ele>
        <time>2020-08-16 10:23:02</time>
      </trkpt>
      <trkpt lat="39.96641" lon="-4.30813">
        <ele>545.2</ele>
        <time>2020-08-16 10:23:06</time>
      </trkpt>
      <trkpt lat="39.96642" lon="-4.30819">
        <ele>545.2</ele>
        <time>2020-08-16 10:23:07</time>
      </trkpt>
      <trkpt lat="39.96642" lon="-4.30824">
        <ele>545.2</ele>
        <time>2020-08-16 10:23:08</time>
      </trkpt>
      <trkpt lat="39.96642" lon="-4.3083">
        <ele>545.4</ele>
        <time>2020-08-16 10:23:09</time>
      </trkpt>
      <trkpt lat="39.96642" lon="-4.30836">
        <ele>545.4</ele>
        <time>2020-08-16 10:23:10</time>
      </trkpt>
      <trkpt lat="39.96642" lon="-4.30842">
        <ele>545.4</ele>
        <time>2020-08-16 10:23:11</time>
      </trkpt>
      <trkpt lat="39.96642" lon="-4.30847">
        <ele>545.6</ele>
        <time>2020-08-16 10:23:12</time>
      </trkpt>
      <trkpt lat="39.96643" lon="-4.30853">
        <ele>545.6</ele>
        <time>2020-08-16 10:23:13</time>
      </trkpt>
      <trkpt lat="39.96643" lon="-4.30858">
        <ele>545.6</ele>
        <time>2020-08-16 10:23:14</time>
      </trkpt>
      <trkpt lat="39.96644" lon="-4.30863">
        <ele>545.8</ele>
        <time>2020-08-16 10:23:15</time>
      </trkpt>
      <trkpt lat="39.96644" lon="-4.30868">
        <ele>545.8</ele>
        <time>2020-08-16 10:23:16</time>
      </trkpt>
      <trkpt lat="39.96644" lon="-4.30874">
        <ele>546</ele>
        <time>2020-08-16 10:23:17</time>
      </trkpt>
      <trkpt lat="39.96645" lon="-4.30879">
        <ele>546</ele>
        <time>2020-08-16 10:23:18</time>
      </trkpt>
      <trkpt lat="39.96645" lon="-4.30884">
        <ele>546</ele>
        <time>2020-08-16 10:23:19</time>
      </trkpt>
      <trkpt lat="39.96646" lon="-4.30889">
        <ele>546.2</ele>
        <time>2020-08-16 10:23:20</time>
      </trkpt>
      <trkpt lat="39.96646" lon="-4.30894">
        <ele>546.2</ele>
        <time>2020-08-16 10:23:21</time>
      </trkpt>
      <trkpt lat="39.96647" lon="-4.30899">
        <ele>546.2</ele>
        <time>2020-08-16 10:23:22</time>
      </trkpt>
      <trkpt lat="39.96648" lon="-4.30904">
        <ele>546.2</ele>
        <time>2020-08-16 10:23:23</time>
      </trkpt>
      <trkpt lat="39.96648" lon="-4.30909">
        <ele>546.4</ele>
        <time>2020-08-16 10:23:24</time>
      </trkpt>
      <trkpt lat="39.96649" lon="-4.30914">
        <ele>546.4</ele>
        <time>2020-08-16 10:23:25</time>
      </trkpt>
      <trkpt lat="39.96649" lon="-4.30918">
        <ele>546.6</ele>
        <time>2020-08-16 10:23:26</time>
      </trkpt>
      <trkpt lat="39.9665" lon="-4.30924">
        <ele>546.8</ele>
        <time>2020-08-16 10:23:27</time>
      </trkpt>
      <trkpt lat="39.9665" lon="-4.30928">
        <ele>546.8</ele>
        <time>2020-08-16 10:23:28</time>
      </trkpt>
      <trkpt lat="39.96651" lon="-4.30933">
        <ele>547</ele>
        <time>2020-08-16 10:23:29</time>
      </trkpt>
      <trkpt lat="39.96651" lon="-4.30938">
        <ele>547.2</ele>
        <time>2020-08-16 10:23:30</time>
      </trkpt>
      <trkpt lat="39.96652" lon="-4.30943">
        <ele>547.4</ele>
        <time>2020-08-16 10:23:31</time>
      </trkpt>
      <trkpt lat="39.96652" lon="-4.30948">
        <ele>547.4</ele>
        <time>2020-08-16 10:23:32</time>
      </trkpt>
      <trkpt lat="39.96653" lon="-4.30953">
        <ele>547.6</ele>
        <time>2020-08-16 10:23:33</time>
      </trkpt>
      <trkpt lat="39.96653" lon="-4.30958">
        <ele>547.8</ele>
        <time>2020-08-16 10:23:34</time>
      </trkpt>
      <trkpt lat="39.96654" lon="-4.30963">
        <ele>548</ele>
        <time>2020-08-16 10:23:35</time>
      </trkpt>
      <trkpt lat="39.96654" lon="-4.30968">
        <ele>547.8</ele>
        <time>2020-08-16 10:23:36</time>
      </trkpt>
      <trkpt lat="39.96655" lon="-4.30973">
        <ele>548.2</ele>
        <time>2020-08-16 10:23:37</time>
      </trkpt>
      <trkpt lat="39.96656" lon="-4.30978">
        <ele>548.4</ele>
        <time>2020-08-16 10:23:38</time>
      </trkpt>
      <trkpt lat="39.96657" lon="-4.30983">
        <ele>548.6</ele>
        <time>2020-08-16 10:23:39</time>
      </trkpt>
      <trkpt lat="39.96658" lon="-4.30988">
        <ele>548.6</ele>
        <time>2020-08-16 10:23:40</time>
      </trkpt>
      <trkpt lat="39.96659" lon="-4.30993">
        <ele>548.8</ele>
        <time>2020-08-16 10:23:41</time>
      </trkpt>
      <trkpt lat="39.9666" lon="-4.30998">
        <ele>548.8</ele>
        <time>2020-08-16 10:23:42</time>
      </trkpt>
      <trkpt lat="39.9666" lon="-4.31003">
        <ele>549</ele>
        <time>2020-08-16 10:23:43</time>
      </trkpt>
      <trkpt lat="39.96661" lon="-4.31008">
        <ele>549</ele>
        <time>2020-08-16 10:23:44</time>
      </trkpt>
      <trkpt lat="39.96662" lon="-4.31013">
        <ele>549</ele>
        <time>2020-08-16 10:23:45</time>
      </trkpt>
      <trkpt lat="39.96662" lon="-4.31018">
        <ele>549.2</ele>
        <time>2020-08-16 10:23:46</time>
      </trkpt>
      <trkpt lat="39.96662" lon="-4.31029">
        <ele>549.4</ele>
        <time>2020-08-16 10:23:48</time>
      </trkpt>
      <trkpt lat="39.96663" lon="-4.31033">
        <ele>549.6</ele>
        <time>2020-08-16 10:23:49</time>
      </trkpt>
      <trkpt lat="39.96663" lon="-4.31038">
        <ele>549.6</ele>
        <time>2020-08-16 10:23:50</time>
      </trkpt>
      <trkpt lat="39.96664" lon="-4.31043">
        <ele>549.8</ele>
        <time>2020-08-16 10:23:51</time>
      </trkpt>
      <trkpt lat="39.96664" lon="-4.31048">
        <ele>549.8</ele>
        <time>2020-08-16 10:23:52</time>
      </trkpt>
      <trkpt lat="39.96665" lon="-4.31053">
        <ele>550</ele>
        <time>2020-08-16 10:23:53</time>
      </trkpt>
      <trkpt lat="39.96665" lon="-4.31058">
        <ele>550</ele>
        <time>2020-08-16 10:23:54</time>
      </trkpt>
      <trkpt lat="39.96665" lon="-4.31063">
        <ele>550</ele>
        <time>2020-08-16 10:23:55</time>
      </trkpt>
      <trkpt lat="39.96665" lon="-4.3108">
        <ele>550.2</ele>
        <time>2020-08-16 10:23:58</time>
      </trkpt>
      <trkpt lat="39.96665" lon="-4.31086">
        <ele>550.4</ele>
        <time>2020-08-16 10:23:59</time>
      </trkpt>
      <trkpt lat="39.96666" lon="-4.31091">
        <ele>550.4</ele>
        <time>2020-08-16 10:24:00</time>
      </trkpt>
      <trkpt lat="39.96666" lon="-4.31129">
        <ele>550.6</ele>
        <time>2020-08-16 10:24:07</time>
      </trkpt>
      <trkpt lat="39.96666" lon="-4.31134">
        <ele>550.6</ele>
        <time>2020-08-16 10:24:08</time>
      </trkpt>
      <trkpt lat="39.96667" lon="-4.31139">
        <ele>550.8</ele>
        <time>2020-08-16 10:24:09</time>
      </trkpt>
      <trkpt lat="39.96668" lon="-4.31145">
        <ele>551</ele>
        <time>2020-08-16 10:24:10</time>
      </trkpt>
      <trkpt lat="39.96668" lon="-4.3115">
        <ele>551</ele>
        <time>2020-08-16 10:24:11</time>
      </trkpt>
      <trkpt lat="39.96668" lon="-4.31155">
        <ele>551</ele>
        <time>2020-08-16 10:24:12</time>
      </trkpt>
      <trkpt lat="39.96669" lon="-4.3116">
        <ele>551</ele>
        <time>2020-08-16 10:24:13</time>
      </trkpt>
      <trkpt lat="39.96669" lon="-4.31165">
        <ele>551.2</ele>
        <time>2020-08-16 10:24:14</time>
      </trkpt>
      <trkpt lat="39.9667" lon="-4.31175">
        <ele>551.2</ele>
        <time>2020-08-16 10:24:16</time>
      </trkpt>
      <trkpt lat="39.96671" lon="-4.3118">
        <ele>551.2</ele>
        <time>2020-08-16 10:24:17</time>
      </trkpt>
      <trkpt lat="39.96673" lon="-4.31211">
        <ele>551.8</ele>
        <time>2020-08-16 10:24:23</time>
      </trkpt>
      <trkpt lat="39.96674" lon="-4.31216">
        <ele>551.8</ele>
        <time>2020-08-16 10:24:24</time>
      </trkpt>
      <trkpt lat="39.96674" lon="-4.31221">
        <ele>552</ele>
        <time>2020-08-16 10:24:25</time>
      </trkpt>
      <trkpt lat="39.96675" lon="-4.31226">
        <ele>552</ele>
        <time>2020-08-16 10:24:26</time>
      </trkpt>
      <trkpt lat="39.96675" lon="-4.31231">
        <ele>552.2</ele>
        <time>2020-08-16 10:24:27</time>
      </trkpt>
      <trkpt lat="39.96676" lon="-4.31236">
        <ele>552.2</ele>
        <time>2020-08-16 10:24:28</time>
      </trkpt>
      <trkpt lat="39.96677" lon="-4.3124">
        <ele>552.2</ele>
        <time>2020-08-16 10:24:29</time>
      </trkpt>
      <trkpt lat="39.96677" lon="-4.31245">
        <ele>552.2</ele>
        <time>2020-08-16 10:24:30</time>
      </trkpt>
      <trkpt lat="39.96678" lon="-4.3125">
        <ele>552.2</ele>
        <time>2020-08-16 10:24:31</time>
      </trkpt>
      <trkpt lat="39.96678" lon="-4.31255">
        <ele>552.2</ele>
        <time>2020-08-16 10:24:32</time>
      </trkpt>
      <trkpt lat="39.96679" lon="-4.31259">
        <ele>552.4</ele>
        <time>2020-08-16 10:24:33</time>
      </trkpt>
      <trkpt lat="39.96679" lon="-4.31264">
        <ele>552.4</ele>
        <time>2020-08-16 10:24:34</time>
      </trkpt>
      <trkpt lat="39.9668" lon="-4.31268">
        <ele>552.4</ele>
        <time>2020-08-16 10:24:35</time>
      </trkpt>
      <trkpt lat="39.96681" lon="-4.31273">
        <ele>552.4</ele>
        <time>2020-08-16 10:24:36</time>
      </trkpt>
      <trkpt lat="39.96682" lon="-4.31277">
        <ele>552.4</ele>
        <time>2020-08-16 10:24:37</time>
      </trkpt>
      <trkpt lat="39.96683" lon="-4.31281">
        <ele>552.6</ele>
        <time>2020-08-16 10:24:38</time>
      </trkpt>
      <trkpt lat="39.96683" lon="-4.31286">
        <ele>552.6</ele>
        <time>2020-08-16 10:24:39</time>
      </trkpt>
      <trkpt lat="39.96684" lon="-4.31291">
        <ele>552.6</ele>
        <time>2020-08-16 10:24:40</time>
      </trkpt>
      <trkpt lat="39.96685" lon="-4.31295">
        <ele>552.8</ele>
        <time>2020-08-16 10:24:41</time>
      </trkpt>
      <trkpt lat="39.96686" lon="-4.313">
        <ele>552.8</ele>
        <time>2020-08-16 10:24:42</time>
      </trkpt>
      <trkpt lat="39.96686" lon="-4.31304">
        <ele>552.8</ele>
        <time>2020-08-16 10:24:43</time>
      </trkpt>
      <trkpt lat="39.96687" lon="-4.31309">
        <ele>553</ele>
        <time>2020-08-16 10:24:44</time>
      </trkpt>
      <trkpt lat="39.96687" lon="-4.31314">
        <ele>553</ele>
        <time>2020-08-16 10:24:45</time>
      </trkpt>
      <trkpt lat="39.96688" lon="-4.3135">
        <ele>553.6</ele>
        <time>2020-08-16 10:24:52</time>
      </trkpt>
      <trkpt lat="39.96689" lon="-4.31376">
        <ele>554</ele>
        <time>2020-08-16 10:24:57</time>
      </trkpt>
      <trkpt lat="39.96688" lon="-4.31392">
        <ele>554</ele>
        <time>2020-08-16 10:25:00</time>
      </trkpt>
      <trkpt lat="39.96688" lon="-4.31398">
        <ele>554</ele>
        <time>2020-08-16 10:25:01</time>
      </trkpt>
      <trkpt lat="39.96689" lon="-4.3142">
        <ele>554.4</ele>
        <time>2020-08-16 10:25:05</time>
      </trkpt>
      <trkpt lat="39.9669" lon="-4.31425">
        <ele>554.4</ele>
        <time>2020-08-16 10:25:06</time>
      </trkpt>
      <trkpt lat="39.96691" lon="-4.3143">
        <ele>554.4</ele>
        <time>2020-08-16 10:25:07</time>
      </trkpt>
      <trkpt lat="39.96697" lon="-4.31478">
        <ele>554</ele>
        <time>2020-08-16 10:25:16</time>
      </trkpt>
      <trkpt lat="39.96698" lon="-4.31484">
        <ele>554</ele>
        <time>2020-08-16 10:25:17</time>
      </trkpt>
      <trkpt lat="39.96699" lon="-4.31489">
        <ele>554</ele>
        <time>2020-08-16 10:25:18</time>
      </trkpt>
      <trkpt lat="39.96699" lon="-4.31494">
        <ele>554</ele>
        <time>2020-08-16 10:25:19</time>
      </trkpt>
      <trkpt lat="39.967" lon="-4.31505">
        <ele>554.2</ele>
        <time>2020-08-16 10:25:21</time>
      </trkpt>
      <trkpt lat="39.96701" lon="-4.3151">
        <ele>554.2</ele>
        <time>2020-08-16 10:25:22</time>
      </trkpt>
      <trkpt lat="39.96701" lon="-4.31515">
        <ele>554.2</ele>
        <time>2020-08-16 10:25:23</time>
      </trkpt>
      <trkpt lat="39.96702" lon="-4.3152">
        <ele>554.2</ele>
        <time>2020-08-16 10:25:24</time>
      </trkpt>
      <trkpt lat="39.96703" lon="-4.31525">
        <ele>554.2</ele>
        <time>2020-08-16 10:25:25</time>
      </trkpt>
      <trkpt lat="39.96703" lon="-4.3153">
        <ele>554.2</ele>
        <time>2020-08-16 10:25:26</time>
      </trkpt>
      <trkpt lat="39.96704" lon="-4.31535">
        <ele>554.2</ele>
        <time>2020-08-16 10:25:27</time>
      </trkpt>
      <trkpt lat="39.96705" lon="-4.3154">
        <ele>554.2</ele>
        <time>2020-08-16 10:25:28</time>
      </trkpt>
      <trkpt lat="39.96705" lon="-4.31545">
        <ele>554.4</ele>
        <time>2020-08-16 10:25:29</time>
      </trkpt>
      <trkpt lat="39.96705" lon="-4.3155">
        <ele>554.4</ele>
        <time>2020-08-16 10:25:30</time>
      </trkpt>
      <trkpt lat="39.96706" lon="-4.31554">
        <ele>554.4</ele>
        <time>2020-08-16 10:25:31</time>
      </trkpt>
      <trkpt lat="39.96706" lon="-4.31559">
        <ele>554.4</ele>
        <time>2020-08-16 10:25:32</time>
      </trkpt>
      <trkpt lat="39.96707" lon="-4.31563">
        <ele>554.4</ele>
        <time>2020-08-16 10:25:33</time>
      </trkpt>
      <trkpt lat="39.96708" lon="-4.31567">
        <ele>554.4</ele>
        <time>2020-08-16 10:25:34</time>
      </trkpt>
      <trkpt lat="39.96709" lon="-4.31572">
        <ele>554.4</ele>
        <time>2020-08-16 10:25:35</time>
      </trkpt>
      <trkpt lat="39.9671" lon="-4.31577">
        <ele>554.6</ele>
        <time>2020-08-16 10:25:36</time>
      </trkpt>
      <trkpt lat="39.9671" lon="-4.31582">
        <ele>554.6</ele>
        <time>2020-08-16 10:25:37</time>
      </trkpt>
      <trkpt lat="39.96711" lon="-4.31586">
        <ele>554.8</ele>
        <time>2020-08-16 10:25:38</time>
      </trkpt>
      <trkpt lat="39.96712" lon="-4.31591">
        <ele>554.8</ele>
        <time>2020-08-16 10:25:39</time>
      </trkpt>
      <trkpt lat="39.96712" lon="-4.31595">
        <ele>554.8</ele>
        <time>2020-08-16 10:25:40</time>
      </trkpt>
      <trkpt lat="39.96713" lon="-4.316">
        <ele>554.8</ele>
        <time>2020-08-16 10:25:41</time>
      </trkpt>
      <trkpt lat="39.96714" lon="-4.31604">
        <ele>555</ele>
        <time>2020-08-16 10:25:42</time>
      </trkpt>
      <trkpt lat="39.96718" lon="-4.31642">
        <ele>555.6</ele>
        <time>2020-08-16 10:25:50</time>
      </trkpt>
      <trkpt lat="39.96722" lon="-4.31666">
        <ele>556</ele>
        <time>2020-08-16 10:25:55</time>
      </trkpt>
      <trkpt lat="39.96722" lon="-4.31672">
        <ele>556</ele>
        <time>2020-08-16 10:25:56</time>
      </trkpt>
      <trkpt lat="39.96723" lon="-4.31688">
        <ele>556</ele>
        <time>2020-08-16 10:25:59</time>
      </trkpt>
      <trkpt lat="39.96725" lon="-4.31698">
        <ele>556</ele>
        <time>2020-08-16 10:26:01</time>
      </trkpt>
      <trkpt lat="39.96729" lon="-4.31719">
        <ele>556</ele>
        <time>2020-08-16 10:26:05</time>
      </trkpt>
      <trkpt lat="39.9673" lon="-4.31741">
        <ele>556.2</ele>
        <time>2020-08-16 10:26:09</time>
      </trkpt>
      <trkpt lat="39.96733" lon="-4.31763">
        <ele>556.2</ele>
        <time>2020-08-16 10:26:13</time>
      </trkpt>
      <trkpt lat="39.96734" lon="-4.31768">
        <ele>556.2</ele>
        <time>2020-08-16 10:26:14</time>
      </trkpt>
      <trkpt lat="39.96734" lon="-4.31774">
        <ele>556.4</ele>
        <time>2020-08-16 10:26:15</time>
      </trkpt>
      <trkpt lat="39.96736" lon="-4.31784">
        <ele>556.6</ele>
        <time>2020-08-16 10:26:17</time>
      </trkpt>
      <trkpt lat="39.96737" lon="-4.3179">
        <ele>556.6</ele>
        <time>2020-08-16 10:26:18</time>
      </trkpt>
      <trkpt lat="39.96737" lon="-4.31795">
        <ele>556.6</ele>
        <time>2020-08-16 10:26:19</time>
      </trkpt>
      <trkpt lat="39.96738" lon="-4.318">
        <ele>556.6</ele>
        <time>2020-08-16 10:26:20</time>
      </trkpt>
      <trkpt lat="39.96739" lon="-4.31805">
        <ele>556.8</ele>
        <time>2020-08-16 10:26:21</time>
      </trkpt>
      <trkpt lat="39.9674" lon="-4.31816">
        <ele>556.8</ele>
        <time>2020-08-16 10:26:23</time>
      </trkpt>
      <trkpt lat="39.96741" lon="-4.31821">
        <ele>556.8</ele>
        <time>2020-08-16 10:26:24</time>
      </trkpt>
      <trkpt lat="39.96742" lon="-4.31832">
        <ele>557</ele>
        <time>2020-08-16 10:26:26</time>
      </trkpt>
      <trkpt lat="39.96743" lon="-4.31837">
        <ele>557</ele>
        <time>2020-08-16 10:26:27</time>
      </trkpt>
      <trkpt lat="39.96743" lon="-4.31842">
        <ele>557</ele>
        <time>2020-08-16 10:26:28</time>
      </trkpt>
      <trkpt lat="39.96744" lon="-4.31847">
        <ele>557</ele>
        <time>2020-08-16 10:26:29</time>
      </trkpt>
      <trkpt lat="39.96744" lon="-4.31852">
        <ele>557.2</ele>
        <time>2020-08-16 10:26:30</time>
      </trkpt>
      <trkpt lat="39.96745" lon="-4.31857">
        <ele>557.4</ele>
        <time>2020-08-16 10:26:31</time>
      </trkpt>
      <trkpt lat="39.96746" lon="-4.31862">
        <ele>557.4</ele>
        <time>2020-08-16 10:26:32</time>
      </trkpt>
      <trkpt lat="39.96747" lon="-4.31867">
        <ele>557.4</ele>
        <time>2020-08-16 10:26:33</time>
      </trkpt>
      <trkpt lat="39.96747" lon="-4.31872">
        <ele>557.6</ele>
        <time>2020-08-16 10:26:34</time>
      </trkpt>
      <trkpt lat="39.96748" lon="-4.31878">
        <ele>557.8</ele>
        <time>2020-08-16 10:26:35</time>
      </trkpt>
      <trkpt lat="39.96749" lon="-4.31883">
        <ele>557.8</ele>
        <time>2020-08-16 10:26:36</time>
      </trkpt>
      <trkpt lat="39.96749" lon="-4.31888">
        <ele>558</ele>
        <time>2020-08-16 10:26:37</time>
      </trkpt>
      <trkpt lat="39.9675" lon="-4.31893">
        <ele>558</ele>
        <time>2020-08-16 10:26:38</time>
      </trkpt>
      <trkpt lat="39.9675" lon="-4.31898">
        <ele>558.2</ele>
        <time>2020-08-16 10:26:39</time>
      </trkpt>
      <trkpt lat="39.96751" lon="-4.31903">
        <ele>558.4</ele>
        <time>2020-08-16 10:26:40</time>
      </trkpt>
      <trkpt lat="39.96751" lon="-4.31908">
        <ele>558.4</ele>
        <time>2020-08-16 10:26:41</time>
      </trkpt>
      <trkpt lat="39.96752" lon="-4.31913">
        <ele>558.6</ele>
        <time>2020-08-16 10:26:42</time>
      </trkpt>
      <trkpt lat="39.96753" lon="-4.31918">
        <ele>558.6</ele>
        <time>2020-08-16 10:26:43</time>
      </trkpt>
      <trkpt lat="39.96753" lon="-4.31923">
        <ele>558.8</ele>
        <time>2020-08-16 10:26:44</time>
      </trkpt>
      <trkpt lat="39.96754" lon="-4.31928">
        <ele>559</ele>
        <time>2020-08-16 10:26:45</time>
      </trkpt>
      <trkpt lat="39.96755" lon="-4.31932">
        <ele>559</ele>
        <time>2020-08-16 10:26:46</time>
      </trkpt>
      <trkpt lat="39.96756" lon="-4.31937">
        <ele>559.2</ele>
        <time>2020-08-16 10:26:47</time>
      </trkpt>
      <trkpt lat="39.96756" lon="-4.31942">
        <ele>559.4</ele>
        <time>2020-08-16 10:26:48</time>
      </trkpt>
      <trkpt lat="39.96757" lon="-4.31946">
        <ele>559.8</ele>
        <time>2020-08-16 10:26:49</time>
      </trkpt>
      <trkpt lat="39.96757" lon="-4.31951">
        <ele>559.8</ele>
        <time>2020-08-16 10:26:50</time>
      </trkpt>
      <trkpt lat="39.96758" lon="-4.31955">
        <ele>560</ele>
        <time>2020-08-16 10:26:51</time>
      </trkpt>
      <trkpt lat="39.96759" lon="-4.31959">
        <ele>560.2</ele>
        <time>2020-08-16 10:26:52</time>
      </trkpt>
      <trkpt lat="39.96759" lon="-4.31964">
        <ele>560.2</ele>
        <time>2020-08-16 10:26:53</time>
      </trkpt>
      <trkpt lat="39.9676" lon="-4.31968">
        <ele>560.2</ele>
        <time>2020-08-16 10:26:54</time>
      </trkpt>
      <trkpt lat="39.9676" lon="-4.31973">
        <ele>560.4</ele>
        <time>2020-08-16 10:26:55</time>
      </trkpt>
      <trkpt lat="39.96761" lon="-4.31977">
        <ele>560.6</ele>
        <time>2020-08-16 10:26:56</time>
      </trkpt>
      <trkpt lat="39.96762" lon="-4.31982">
        <ele>560.6</ele>
        <time>2020-08-16 10:26:57</time>
      </trkpt>
      <trkpt lat="39.96762" lon="-4.31986">
        <ele>560.8</ele>
        <time>2020-08-16 10:26:58</time>
      </trkpt>
      <trkpt lat="39.96763" lon="-4.31991">
        <ele>561</ele>
        <time>2020-08-16 10:26:59</time>
      </trkpt>
      <trkpt lat="39.96764" lon="-4.31996">
        <ele>561</ele>
        <time>2020-08-16 10:27:00</time>
      </trkpt>
      <trkpt lat="39.96764" lon="-4.32001">
        <ele>561</ele>
        <time>2020-08-16 10:27:01</time>
      </trkpt>
      <trkpt lat="39.96765" lon="-4.32007">
        <ele>561</ele>
        <time>2020-08-16 10:27:02</time>
      </trkpt>
      <trkpt lat="39.96767" lon="-4.32022">
        <ele>561.2</ele>
        <time>2020-08-16 10:27:05</time>
      </trkpt>
      <trkpt lat="39.96767" lon="-4.32028">
        <ele>561.4</ele>
        <time>2020-08-16 10:27:06</time>
      </trkpt>
      <trkpt lat="39.96769" lon="-4.32045">
        <ele>561</ele>
        <time>2020-08-16 10:27:09</time>
      </trkpt>
      <trkpt lat="39.96768" lon="-4.3205">
        <ele>561</ele>
        <time>2020-08-16 10:27:10</time>
      </trkpt>
      <trkpt lat="39.96766" lon="-4.32056">
        <ele>561</ele>
        <time>2020-08-16 10:27:11</time>
      </trkpt>
      <trkpt lat="39.96764" lon="-4.32061">
        <ele>561</ele>
        <time>2020-08-16 10:27:12</time>
      </trkpt>
      <trkpt lat="39.96761" lon="-4.32066">
        <ele>561</ele>
        <time>2020-08-16 10:27:13</time>
      </trkpt>
      <trkpt lat="39.96752" lon="-4.32081">
        <ele>560.6</ele>
        <time>2020-08-16 10:27:16</time>
      </trkpt>
      <trkpt lat="39.96749" lon="-4.32087">
        <ele>560.6</ele>
        <time>2020-08-16 10:27:17</time>
      </trkpt>
      <trkpt lat="39.96737" lon="-4.32113">
        <ele>560.4</ele>
        <time>2020-08-16 10:27:22</time>
      </trkpt>
      <trkpt lat="39.96725" lon="-4.32132">
        <ele>560.4</ele>
        <time>2020-08-16 10:27:26</time>
      </trkpt>
      <trkpt lat="39.96722" lon="-4.32137">
        <ele>560.2</ele>
        <time>2020-08-16 10:27:27</time>
      </trkpt>
      <trkpt lat="39.96718" lon="-4.32143">
        <ele>560</ele>
        <time>2020-08-16 10:27:28</time>
      </trkpt>
      <trkpt lat="39.96715" lon="-4.32149">
        <ele>559.8</ele>
        <time>2020-08-16 10:27:29</time>
      </trkpt>
      <trkpt lat="39.96705" lon="-4.32167">
        <ele>559.6</ele>
        <time>2020-08-16 10:27:32</time>
      </trkpt>
      <trkpt lat="39.96701" lon="-4.32174">
        <ele>559.6</ele>
        <time>2020-08-16 10:27:33</time>
      </trkpt>
      <trkpt lat="39.96696" lon="-4.3218">
        <ele>559.4</ele>
        <time>2020-08-16 10:27:34</time>
      </trkpt>
      <trkpt lat="39.96692" lon="-4.32186">
        <ele>559.2</ele>
        <time>2020-08-16 10:27:35</time>
      </trkpt>
      <trkpt lat="39.96688" lon="-4.32193">
        <ele>559</ele>
        <time>2020-08-16 10:27:36</time>
      </trkpt>
      <trkpt lat="39.96685" lon="-4.32199">
        <ele>558.6</ele>
        <time>2020-08-16 10:27:37</time>
      </trkpt>
      <trkpt lat="39.96682" lon="-4.32205">
        <ele>558.4</ele>
        <time>2020-08-16 10:27:38</time>
      </trkpt>
      <trkpt lat="39.96679" lon="-4.32211">
        <ele>558.2</ele>
        <time>2020-08-16 10:27:39</time>
      </trkpt>
      <trkpt lat="39.96676" lon="-4.32218">
        <ele>558.2</ele>
        <time>2020-08-16 10:27:40</time>
      </trkpt>
      <trkpt lat="39.96673" lon="-4.32224">
        <ele>558</ele>
        <time>2020-08-16 10:27:41</time>
      </trkpt>
      <trkpt lat="39.96669" lon="-4.32229">
        <ele>558</ele>
        <time>2020-08-16 10:27:42</time>
      </trkpt>
      <trkpt lat="39.96666" lon="-4.32235">
        <ele>557.8</ele>
        <time>2020-08-16 10:27:43</time>
      </trkpt>
      <trkpt lat="39.96661" lon="-4.32239">
        <ele>557.8</ele>
        <time>2020-08-16 10:27:44</time>
      </trkpt>
      <trkpt lat="39.96657" lon="-4.32244">
        <ele>557.8</ele>
        <time>2020-08-16 10:27:45</time>
      </trkpt>
      <trkpt lat="39.96653" lon="-4.32248">
        <ele>557.8</ele>
        <time>2020-08-16 10:27:46</time>
      </trkpt>
      <trkpt lat="39.96649" lon="-4.32252">
        <ele>557.6</ele>
        <time>2020-08-16 10:27:47</time>
      </trkpt>
      <trkpt lat="39.96645" lon="-4.32256">
        <ele>557.6</ele>
        <time>2020-08-16 10:27:48</time>
      </trkpt>
      <trkpt lat="39.9664" lon="-4.32259">
        <ele>557.6</ele>
        <time>2020-08-16 10:27:49</time>
      </trkpt>
      <trkpt lat="39.96636" lon="-4.32263">
        <ele>557.6</ele>
        <time>2020-08-16 10:27:50</time>
      </trkpt>
      <trkpt lat="39.96632" lon="-4.32266">
        <ele>557.6</ele>
        <time>2020-08-16 10:27:51</time>
      </trkpt>
      <trkpt lat="39.96628" lon="-4.3227">
        <ele>557.6</ele>
        <time>2020-08-16 10:27:52</time>
      </trkpt>
      <trkpt lat="39.96623" lon="-4.32274">
        <ele>557.6</ele>
        <time>2020-08-16 10:27:53</time>
      </trkpt>
      <trkpt lat="39.96619" lon="-4.32277">
        <ele>557.4</ele>
        <time>2020-08-16 10:27:54</time>
      </trkpt>
      <trkpt lat="39.96615" lon="-4.3228">
        <ele>557.4</ele>
        <time>2020-08-16 10:27:55</time>
      </trkpt>
      <trkpt lat="39.96611" lon="-4.32284">
        <ele>557.6</ele>
        <time>2020-08-16 10:27:56</time>
      </trkpt>
      <trkpt lat="39.96607" lon="-4.32287">
        <ele>557.6</ele>
        <time>2020-08-16 10:27:57</time>
      </trkpt>
      <trkpt lat="39.96602" lon="-4.32291">
        <ele>557.8</ele>
        <time>2020-08-16 10:27:58</time>
      </trkpt>
      <trkpt lat="39.96598" lon="-4.32294">
        <ele>557.8</ele>
        <time>2020-08-16 10:27:59</time>
      </trkpt>
      <trkpt lat="39.96594" lon="-4.32297">
        <ele>558</ele>
        <time>2020-08-16 10:28:00</time>
      </trkpt>
      <trkpt lat="39.9659" lon="-4.323">
        <ele>558</ele>
        <time>2020-08-16 10:28:01</time>
      </trkpt>
      <trkpt lat="39.96586" lon="-4.32303">
        <ele>558.2</ele>
        <time>2020-08-16 10:28:02</time>
      </trkpt>
      <trkpt lat="39.96582" lon="-4.32307">
        <ele>558.2</ele>
        <time>2020-08-16 10:28:03</time>
      </trkpt>
      <trkpt lat="39.96578" lon="-4.3231">
        <ele>558.2</ele>
        <time>2020-08-16 10:28:04</time>
      </trkpt>
      <trkpt lat="39.96574" lon="-4.32313">
        <ele>558.4</ele>
        <time>2020-08-16 10:28:05</time>
      </trkpt>
      <trkpt lat="39.9657" lon="-4.32316">
        <ele>558.4</ele>
        <time>2020-08-16 10:28:06</time>
      </trkpt>
      <trkpt lat="39.96566" lon="-4.3232">
        <ele>558.6</ele>
        <time>2020-08-16 10:28:07</time>
      </trkpt>
      <trkpt lat="39.96562" lon="-4.32323">
        <ele>558.8</ele>
        <time>2020-08-16 10:28:08</time>
      </trkpt>
      <trkpt lat="39.96559" lon="-4.32326">
        <ele>558.8</ele>
        <time>2020-08-16 10:28:09</time>
      </trkpt>
      <trkpt lat="39.96555" lon="-4.3233">
        <ele>559</ele>
        <time>2020-08-16 10:28:10</time>
      </trkpt>
      <trkpt lat="39.96551" lon="-4.32333">
        <ele>559</ele>
        <time>2020-08-16 10:28:11</time>
      </trkpt>
      <trkpt lat="39.96547" lon="-4.32336">
        <ele>559</ele>
        <time>2020-08-16 10:28:12</time>
      </trkpt>
      <trkpt lat="39.96543" lon="-4.32339">
        <ele>559</ele>
        <time>2020-08-16 10:28:13</time>
      </trkpt>
      <trkpt lat="39.96539" lon="-4.32342">
        <ele>559</ele>
        <time>2020-08-16 10:28:14</time>
      </trkpt>
      <trkpt lat="39.96535" lon="-4.32345">
        <ele>559</ele>
        <time>2020-08-16 10:28:15</time>
      </trkpt>
      <trkpt lat="39.96532" lon="-4.32348">
        <ele>559</ele>
        <time>2020-08-16 10:28:16</time>
      </trkpt>
      <trkpt lat="39.96528" lon="-4.32351">
        <ele>559.2</ele>
        <time>2020-08-16 10:28:17</time>
      </trkpt>
      <trkpt lat="39.96525" lon="-4.32354">
        <ele>559.4</ele>
        <time>2020-08-16 10:28:18</time>
      </trkpt>
      <trkpt lat="39.96521" lon="-4.32357">
        <ele>559.4</ele>
        <time>2020-08-16 10:28:19</time>
      </trkpt>
      <trkpt lat="39.96518" lon="-4.3236">
        <ele>559.4</ele>
        <time>2020-08-16 10:28:20</time>
      </trkpt>
      <trkpt lat="39.96514" lon="-4.32363">
        <ele>559.6</ele>
        <time>2020-08-16 10:28:21</time>
      </trkpt>
      <trkpt lat="39.9651" lon="-4.32366">
        <ele>559.8</ele>
        <time>2020-08-16 10:28:22</time>
      </trkpt>
      <trkpt lat="39.96507" lon="-4.32369">
        <ele>559.8</ele>
        <time>2020-08-16 10:28:23</time>
      </trkpt>
      <trkpt lat="39.96503" lon="-4.32372">
        <ele>560</ele>
        <time>2020-08-16 10:28:24</time>
      </trkpt>
      <trkpt lat="39.96499" lon="-4.32375">
        <ele>560</ele>
        <time>2020-08-16 10:28:25</time>
      </trkpt>
      <trkpt lat="39.96496" lon="-4.32378">
        <ele>560.2</ele>
        <time>2020-08-16 10:28:26</time>
      </trkpt>
      <trkpt lat="39.96492" lon="-4.32382">
        <ele>560.2</ele>
        <time>2020-08-16 10:28:27</time>
      </trkpt>
      <trkpt lat="39.96488" lon="-4.32385">
        <ele>560.2</ele>
        <time>2020-08-16 10:28:28</time>
      </trkpt>
      <trkpt lat="39.96484" lon="-4.32388">
        <ele>560.4</ele>
        <time>2020-08-16 10:28:29</time>
      </trkpt>
      <trkpt lat="39.96469" lon="-4.324">
        <ele>561</ele>
        <time>2020-08-16 10:28:33</time>
      </trkpt>
      <trkpt lat="39.96465" lon="-4.32403">
        <ele>561</ele>
        <time>2020-08-16 10:28:34</time>
      </trkpt>
      <trkpt lat="39.96461" lon="-4.32406">
        <ele>561.2</ele>
        <time>2020-08-16 10:28:35</time>
      </trkpt>
      <trkpt lat="39.96457" lon="-4.3241">
        <ele>561.4</ele>
        <time>2020-08-16 10:28:36</time>
      </trkpt>
      <trkpt lat="39.96454" lon="-4.32414">
        <ele>561.4</ele>
        <time>2020-08-16 10:28:37</time>
      </trkpt>
      <trkpt lat="39.9645" lon="-4.32417">
        <ele>561.8</ele>
        <time>2020-08-16 10:28:38</time>
      </trkpt>
      <trkpt lat="39.96447" lon="-4.32421">
        <ele>561.8</ele>
        <time>2020-08-16 10:28:39</time>
      </trkpt>
      <trkpt lat="39.96443" lon="-4.32425">
        <ele>562</ele>
        <time>2020-08-16 10:28:40</time>
      </trkpt>
      <trkpt lat="39.9644" lon="-4.32429">
        <ele>562</ele>
        <time>2020-08-16 10:28:41</time>
      </trkpt>
      <trkpt lat="39.96437" lon="-4.32433">
        <ele>562</ele>
        <time>2020-08-16 10:28:42</time>
      </trkpt>
      <trkpt lat="39.96433" lon="-4.32436">
        <ele>562</ele>
        <time>2020-08-16 10:28:43</time>
      </trkpt>
      <trkpt lat="39.9643" lon="-4.3244">
        <ele>561.8</ele>
        <time>2020-08-16 10:28:44</time>
      </trkpt>
      <trkpt lat="39.96426" lon="-4.32443">
        <ele>561.6</ele>
        <time>2020-08-16 10:28:45</time>
      </trkpt>
      <trkpt lat="39.96422" lon="-4.32446">
        <ele>561.6</ele>
        <time>2020-08-16 10:28:46</time>
      </trkpt>
      <trkpt lat="39.96419" lon="-4.32448">
        <ele>561.6</ele>
        <time>2020-08-16 10:28:47</time>
      </trkpt>
      <trkpt lat="39.96415" lon="-4.32451">
        <ele>561.6</ele>
        <time>2020-08-16 10:28:48</time>
      </trkpt>
      <trkpt lat="39.96412" lon="-4.32454">
        <ele>561.6</ele>
        <time>2020-08-16 10:28:49</time>
      </trkpt>
      <trkpt lat="39.96408" lon="-4.32457">
        <ele>561.6</ele>
        <time>2020-08-16 10:28:50</time>
      </trkpt>
      <trkpt lat="39.96404" lon="-4.3246">
        <ele>561.6</ele>
        <time>2020-08-16 10:28:51</time>
      </trkpt>
      <trkpt lat="39.964" lon="-4.32463">
        <ele>561.6</ele>
        <time>2020-08-16 10:28:52</time>
      </trkpt>
      <trkpt lat="39.96362" lon="-4.32491">
        <ele>561.6</ele>
        <time>2020-08-16 10:29:01</time>
      </trkpt>
      <trkpt lat="39.96337" lon="-4.32508">
        <ele>562</ele>
        <time>2020-08-16 10:29:07</time>
      </trkpt>
      <trkpt lat="39.96333" lon="-4.32511">
        <ele>562</ele>
        <time>2020-08-16 10:29:08</time>
      </trkpt>
      <trkpt lat="39.96329" lon="-4.32514">
        <ele>562</ele>
        <time>2020-08-16 10:29:09</time>
      </trkpt>
      <trkpt lat="39.96325" lon="-4.32517">
        <ele>562.2</ele>
        <time>2020-08-16 10:29:10</time>
      </trkpt>
      <trkpt lat="39.96322" lon="-4.32521">
        <ele>562.2</ele>
        <time>2020-08-16 10:29:11</time>
      </trkpt>
      <trkpt lat="39.96319" lon="-4.32524">
        <ele>562.2</ele>
        <time>2020-08-16 10:29:12</time>
      </trkpt>
      <trkpt lat="39.96315" lon="-4.32527">
        <ele>562.6</ele>
        <time>2020-08-16 10:29:13</time>
      </trkpt>
      <trkpt lat="39.96312" lon="-4.3253">
        <ele>563.2</ele>
        <time>2020-08-16 10:29:14</time>
      </trkpt>
      <trkpt lat="39.96309" lon="-4.32533">
        <ele>563.4</ele>
        <time>2020-08-16 10:29:15</time>
      </trkpt>
      <trkpt lat="39.96307" lon="-4.32536">
        <ele>564</ele>
        <time>2020-08-16 10:29:16</time>
      </trkpt>
      <trkpt lat="39.96303" lon="-4.32539">
        <ele>564</ele>
        <time>2020-08-16 10:29:17</time>
      </trkpt>
      <trkpt lat="39.963" lon="-4.32542">
        <ele>564.2</ele>
        <time>2020-08-16 10:29:18</time>
      </trkpt>
      <trkpt lat="39.96297" lon="-4.32544">
        <ele>564.4</ele>
        <time>2020-08-16 10:29:19</time>
      </trkpt>
      <trkpt lat="39.96294" lon="-4.32547">
        <ele>565</ele>
        <time>2020-08-16 10:29:20</time>
      </trkpt>
      <trkpt lat="39.96291" lon="-4.32549">
        <ele>565.4</ele>
        <time>2020-08-16 10:29:21</time>
      </trkpt>
      <trkpt lat="39.96288" lon="-4.32551">
        <ele>565.4</ele>
        <time>2020-08-16 10:29:22</time>
      </trkpt>
      <trkpt lat="39.96285" lon="-4.32554">
        <ele>565.6</ele>
        <time>2020-08-16 10:29:23</time>
      </trkpt>
      <trkpt lat="39.96282" lon="-4.32556">
        <ele>565.6</ele>
        <time>2020-08-16 10:29:24</time>
      </trkpt>
      <trkpt lat="39.96279" lon="-4.32558">
        <ele>565.8</ele>
        <time>2020-08-16 10:29:25</time>
      </trkpt>
      <trkpt lat="39.96276" lon="-4.3256">
        <ele>565.8</ele>
        <time>2020-08-16 10:29:26</time>
      </trkpt>
      <trkpt lat="39.96273" lon="-4.32562">
        <ele>566</ele>
        <time>2020-08-16 10:29:27</time>
      </trkpt>
      <trkpt lat="39.9627" lon="-4.32564">
        <ele>566</ele>
        <time>2020-08-16 10:29:28</time>
      </trkpt>
      <trkpt lat="39.96267" lon="-4.32566">
        <ele>566</ele>
        <time>2020-08-16 10:29:29</time>
      </trkpt>
      <trkpt lat="39.96264" lon="-4.32568">
        <ele>566.4</ele>
        <time>2020-08-16 10:29:30</time>
      </trkpt>
      <trkpt lat="39.96262" lon="-4.3257">
        <ele>566.6</ele>
        <time>2020-08-16 10:29:31</time>
      </trkpt>
      <trkpt lat="39.96259" lon="-4.32572">
        <ele>566.8</ele>
        <time>2020-08-16 10:29:32</time>
      </trkpt>
      <trkpt lat="39.96256" lon="-4.32574">
        <ele>567.4</ele>
        <time>2020-08-16 10:29:33</time>
      </trkpt>
      <trkpt lat="39.96253" lon="-4.32576">
        <ele>567.4</ele>
        <time>2020-08-16 10:29:34</time>
      </trkpt>
      <trkpt lat="39.9625" lon="-4.32578">
        <ele>567.6</ele>
        <time>2020-08-16 10:29:35</time>
      </trkpt>
      <trkpt lat="39.96248" lon="-4.32581">
        <ele>567.6</ele>
        <time>2020-08-16 10:29:36</time>
      </trkpt>
      <trkpt lat="39.96245" lon="-4.32584">
        <ele>567.8</ele>
        <time>2020-08-16 10:29:37</time>
      </trkpt>
      <trkpt lat="39.96242" lon="-4.32587">
        <ele>567.8</ele>
        <time>2020-08-16 10:29:38</time>
      </trkpt>
      <trkpt lat="39.9624" lon="-4.32589">
        <ele>567.8</ele>
        <time>2020-08-16 10:29:39</time>
      </trkpt>
      <trkpt lat="39.96237" lon="-4.32591">
        <ele>567.8</ele>
        <time>2020-08-16 10:29:40</time>
      </trkpt>
      <trkpt lat="39.96231" lon="-4.32596">
        <ele>567.8</ele>
        <time>2020-08-16 10:29:42</time>
      </trkpt>
      <trkpt lat="39.96221" lon="-4.32604">
        <ele>567.6</ele>
        <time>2020-08-16 10:29:45</time>
      </trkpt>
      <trkpt lat="39.96218" lon="-4.32606">
        <ele>567.6</ele>
        <time>2020-08-16 10:29:46</time>
      </trkpt>
      <trkpt lat="39.96207" lon="-4.32615">
        <ele>567.2</ele>
        <time>2020-08-16 10:29:49</time>
      </trkpt>
      <trkpt lat="39.96186" lon="-4.32631">
        <ele>566.8</ele>
        <time>2020-08-16 10:29:54</time>
      </trkpt>
      <trkpt lat="39.96182" lon="-4.32634">
        <ele>566.8</ele>
        <time>2020-08-16 10:29:55</time>
      </trkpt>
      <trkpt lat="39.96177" lon="-4.32638">
        <ele>566.4</ele>
        <time>2020-08-16 10:29:56</time>
      </trkpt>
      <trkpt lat="39.96165" lon="-4.32649">
        <ele>565.8</ele>
        <time>2020-08-16 10:29:59</time>
      </trkpt>
      <trkpt lat="39.96151" lon="-4.32661">
        <ele>565.6</ele>
        <time>2020-08-16 10:30:02</time>
      </trkpt>
      <trkpt lat="39.96143" lon="-4.32668">
        <ele>565.6</ele>
        <time>2020-08-16 10:30:04</time>
      </trkpt>
      <trkpt lat="39.96138" lon="-4.32671">
        <ele>565.4</ele>
        <time>2020-08-16 10:30:05</time>
      </trkpt>
      <trkpt lat="39.96134" lon="-4.32674">
        <ele>565.4</ele>
        <time>2020-08-16 10:30:06</time>
      </trkpt>
      <trkpt lat="39.9613" lon="-4.32676">
        <ele>565.4</ele>
        <time>2020-08-16 10:30:07</time>
      </trkpt>
      <trkpt lat="39.96125" lon="-4.32679">
        <ele>565</ele>
        <time>2020-08-16 10:30:08</time>
      </trkpt>
      <trkpt lat="39.96121" lon="-4.32681">
        <ele>565</ele>
        <time>2020-08-16 10:30:09</time>
      </trkpt>
      <trkpt lat="39.96117" lon="-4.32682">
        <ele>564.8</ele>
        <time>2020-08-16 10:30:10</time>
      </trkpt>
      <trkpt lat="39.96112" lon="-4.32684">
        <ele>564.6</ele>
        <time>2020-08-16 10:30:11</time>
      </trkpt>
      <trkpt lat="39.96108" lon="-4.32686">
        <ele>564.6</ele>
        <time>2020-08-16 10:30:12</time>
      </trkpt>
      <trkpt lat="39.96104" lon="-4.32688">
        <ele>564.6</ele>
        <time>2020-08-16 10:30:13</time>
      </trkpt>
      <trkpt lat="39.961" lon="-4.3269">
        <ele>564.6</ele>
        <time>2020-08-16 10:30:14</time>
      </trkpt>
      <trkpt lat="39.96096" lon="-4.32693">
        <ele>564.4</ele>
        <time>2020-08-16 10:30:15</time>
      </trkpt>
      <trkpt lat="39.96091" lon="-4.32696">
        <ele>564.4</ele>
        <time>2020-08-16 10:30:16</time>
      </trkpt>
      <trkpt lat="39.96087" lon="-4.32699">
        <ele>564.4</ele>
        <time>2020-08-16 10:30:17</time>
      </trkpt>
      <trkpt lat="39.96083" lon="-4.32701">
        <ele>564.4</ele>
        <time>2020-08-16 10:30:18</time>
      </trkpt>
      <trkpt lat="39.96079" lon="-4.32704">
        <ele>564.2</ele>
        <time>2020-08-16 10:30:19</time>
      </trkpt>
      <trkpt lat="39.96075" lon="-4.32707">
        <ele>564.4</ele>
        <time>2020-08-16 10:30:20</time>
      </trkpt>
      <trkpt lat="39.96062" lon="-4.32714">
        <ele>564.6</ele>
        <time>2020-08-16 10:30:23</time>
      </trkpt>
      <trkpt lat="39.96031" lon="-4.3273">
        <ele>563.8</ele>
        <time>2020-08-16 10:30:30</time>
      </trkpt>
      <trkpt lat="39.96017" lon="-4.32736">
        <ele>563.6</ele>
        <time>2020-08-16 10:30:33</time>
      </trkpt>
      <trkpt lat="39.96013" lon="-4.3274">
        <ele>563.4</ele>
        <time>2020-08-16 10:30:34</time>
      </trkpt>
      <trkpt lat="39.96009" lon="-4.32743">
        <ele>563.4</ele>
        <time>2020-08-16 10:30:35</time>
      </trkpt>
      <trkpt lat="39.96004" lon="-4.32746">
        <ele>563.4</ele>
        <time>2020-08-16 10:30:36</time>
      </trkpt>
      <trkpt lat="39.96" lon="-4.32749">
        <ele>563.4</ele>
        <time>2020-08-16 10:30:37</time>
      </trkpt>
      <trkpt lat="39.95995" lon="-4.32751">
        <ele>563.2</ele>
        <time>2020-08-16 10:30:38</time>
      </trkpt>
      <trkpt lat="39.9599" lon="-4.32752">
        <ele>563.2</ele>
        <time>2020-08-16 10:30:39</time>
      </trkpt>
      <trkpt lat="39.95985" lon="-4.32752">
        <ele>563.2</ele>
        <time>2020-08-16 10:30:40</time>
      </trkpt>
      <trkpt lat="39.95975" lon="-4.32753">
        <ele>563.2</ele>
        <time>2020-08-16 10:30:42</time>
      </trkpt>
      <trkpt lat="39.95965" lon="-4.32755">
        <ele>563.2</ele>
        <time>2020-08-16 10:30:44</time>
      </trkpt>
      <trkpt lat="39.95955" lon="-4.32759">
        <ele>563</ele>
        <time>2020-08-16 10:30:46</time>
      </trkpt>
      <trkpt lat="39.95951" lon="-4.32761">
        <ele>563</ele>
        <time>2020-08-16 10:30:47</time>
      </trkpt>
      <trkpt lat="39.95946" lon="-4.32763">
        <ele>563.4</ele>
        <time>2020-08-16 10:30:48</time>
      </trkpt>
      <trkpt lat="39.95942" lon="-4.32765">
        <ele>563.4</ele>
        <time>2020-08-16 10:30:49</time>
      </trkpt>
      <trkpt lat="39.95937" lon="-4.32767">
        <ele>563.4</ele>
        <time>2020-08-16 10:30:50</time>
      </trkpt>
      <trkpt lat="39.95933" lon="-4.32769">
        <ele>563.6</ele>
        <time>2020-08-16 10:30:51</time>
      </trkpt>
      <trkpt lat="39.95929" lon="-4.32771">
        <ele>563.6</ele>
        <time>2020-08-16 10:30:52</time>
      </trkpt>
      <trkpt lat="39.95925" lon="-4.32773">
        <ele>563.6</ele>
        <time>2020-08-16 10:30:53</time>
      </trkpt>
      <trkpt lat="39.9592" lon="-4.32775">
        <ele>563.6</ele>
        <time>2020-08-16 10:30:54</time>
      </trkpt>
      <trkpt lat="39.95916" lon="-4.32777">
        <ele>563.6</ele>
        <time>2020-08-16 10:30:55</time>
      </trkpt>
      <trkpt lat="39.95911" lon="-4.32779">
        <ele>563.8</ele>
        <time>2020-08-16 10:30:56</time>
      </trkpt>
      <trkpt lat="39.95906" lon="-4.32781">
        <ele>563.6</ele>
        <time>2020-08-16 10:30:57</time>
      </trkpt>
      <trkpt lat="39.95902" lon="-4.32783">
        <ele>563.4</ele>
        <time>2020-08-16 10:30:58</time>
      </trkpt>
      <trkpt lat="39.95865" lon="-4.328">
        <ele>563</ele>
        <time>2020-08-16 10:31:05</time>
      </trkpt>
      <trkpt lat="39.9586" lon="-4.32802">
        <ele>563</ele>
        <time>2020-08-16 10:31:06</time>
      </trkpt>
      <trkpt lat="39.9581" lon="-4.32825">
        <ele>562.4</ele>
        <time>2020-08-16 10:31:14</time>
      </trkpt>
      <trkpt lat="39.95782" lon="-4.32837">
        <ele>562</ele>
        <time>2020-08-16 10:31:18</time>
      </trkpt>
      <trkpt lat="39.95767" lon="-4.32842">
        <ele>561.6</ele>
        <time>2020-08-16 10:31:20</time>
      </trkpt>
      <trkpt lat="39.9576" lon="-4.32845">
        <ele>561.2</ele>
        <time>2020-08-16 10:31:21</time>
      </trkpt>
      <trkpt lat="39.95752" lon="-4.32848">
        <ele>560.8</ele>
        <time>2020-08-16 10:31:22</time>
      </trkpt>
      <trkpt lat="39.95707" lon="-4.32868">
        <ele>560</ele>
        <time>2020-08-16 10:31:28</time>
      </trkpt>
      <trkpt lat="39.95693" lon="-4.32874">
        <ele>559.6</ele>
        <time>2020-08-16 10:31:30</time>
      </trkpt>
      <trkpt lat="39.9567" lon="-4.3288">
        <ele>559</ele>
        <time>2020-08-16 10:31:33</time>
      </trkpt>
      <trkpt lat="39.95663" lon="-4.32882">
        <ele>558.8</ele>
        <time>2020-08-16 10:31:34</time>
      </trkpt>
      <trkpt lat="39.95655" lon="-4.32885">
        <ele>558.6</ele>
        <time>2020-08-16 10:31:35</time>
      </trkpt>
      <trkpt lat="39.95649" lon="-4.32889">
        <ele>558.2</ele>
        <time>2020-08-16 10:31:36</time>
      </trkpt>
      <trkpt lat="39.95642" lon="-4.32893">
        <ele>558.2</ele>
        <time>2020-08-16 10:31:37</time>
      </trkpt>
      <trkpt lat="39.95636" lon="-4.32897">
        <ele>558</ele>
        <time>2020-08-16 10:31:38</time>
      </trkpt>
      <trkpt lat="39.9563" lon="-4.32901">
        <ele>557.8</ele>
        <time>2020-08-16 10:31:39</time>
      </trkpt>
      <trkpt lat="39.95624" lon="-4.32904">
        <ele>557.8</ele>
        <time>2020-08-16 10:31:40</time>
      </trkpt>
      <trkpt lat="39.95618" lon="-4.32908">
        <ele>557.8</ele>
        <time>2020-08-16 10:31:41</time>
      </trkpt>
      <trkpt lat="39.95611" lon="-4.32911">
        <ele>557.8</ele>
        <time>2020-08-16 10:31:42</time>
      </trkpt>
      <trkpt lat="39.95605" lon="-4.32914">
        <ele>557.8</ele>
        <time>2020-08-16 10:31:43</time>
      </trkpt>
      <trkpt lat="39.95599" lon="-4.32917">
        <ele>557.8</ele>
        <time>2020-08-16 10:31:44</time>
      </trkpt>
      <trkpt lat="39.95588" lon="-4.32923">
        <ele>557.8</ele>
        <time>2020-08-16 10:31:46</time>
      </trkpt>
      <trkpt lat="39.95582" lon="-4.32925">
        <ele>557.8</ele>
        <time>2020-08-16 10:31:47</time>
      </trkpt>
      <trkpt lat="39.95577" lon="-4.32928">
        <ele>557.8</ele>
        <time>2020-08-16 10:31:48</time>
      </trkpt>
      <trkpt lat="39.95571" lon="-4.3293">
        <ele>557.8</ele>
        <time>2020-08-16 10:31:49</time>
      </trkpt>
      <trkpt lat="39.95565" lon="-4.32932">
        <ele>557.8</ele>
        <time>2020-08-16 10:31:50</time>
      </trkpt>
      <trkpt lat="39.9556" lon="-4.32934">
        <ele>558</ele>
        <time>2020-08-16 10:31:51</time>
      </trkpt>
      <trkpt lat="39.95555" lon="-4.32937">
        <ele>557.8</ele>
        <time>2020-08-16 10:31:52</time>
      </trkpt>
      <trkpt lat="39.95549" lon="-4.32939">
        <ele>557.8</ele>
        <time>2020-08-16 10:31:53</time>
      </trkpt>
      <trkpt lat="39.95544" lon="-4.32942">
        <ele>557.8</ele>
        <time>2020-08-16 10:31:54</time>
      </trkpt>
      <trkpt lat="39.95539" lon="-4.32945">
        <ele>557.8</ele>
        <time>2020-08-16 10:31:55</time>
      </trkpt>
      <trkpt lat="39.95534" lon="-4.32948">
        <ele>557.8</ele>
        <time>2020-08-16 10:31:56</time>
      </trkpt>
      <trkpt lat="39.95529" lon="-4.3295">
        <ele>557.6</ele>
        <time>2020-08-16 10:31:57</time>
      </trkpt>
      <trkpt lat="39.95524" lon="-4.32953">
        <ele>557.6</ele>
        <time>2020-08-16 10:31:58</time>
      </trkpt>
      <trkpt lat="39.95518" lon="-4.32955">
        <ele>557.6</ele>
        <time>2020-08-16 10:31:59</time>
      </trkpt>
      <trkpt lat="39.95513" lon="-4.32957">
        <ele>557.6</ele>
        <time>2020-08-16 10:32:00</time>
      </trkpt>
      <trkpt lat="39.95508" lon="-4.32959">
        <ele>557.6</ele>
        <time>2020-08-16 10:32:01</time>
      </trkpt>
      <trkpt lat="39.95503" lon="-4.32962">
        <ele>557.6</ele>
        <time>2020-08-16 10:32:02</time>
      </trkpt>
      <trkpt lat="39.95497" lon="-4.32964">
        <ele>557.6</ele>
        <time>2020-08-16 10:32:03</time>
      </trkpt>
      <trkpt lat="39.95492" lon="-4.32966">
        <ele>557.8</ele>
        <time>2020-08-16 10:32:04</time>
      </trkpt>
      <trkpt lat="39.95487" lon="-4.32969">
        <ele>557.8</ele>
        <time>2020-08-16 10:32:05</time>
      </trkpt>
      <trkpt lat="39.95482" lon="-4.3297">
        <ele>558</ele>
        <time>2020-08-16 10:32:06</time>
      </trkpt>
      <trkpt lat="39.95477" lon="-4.32971">
        <ele>558</ele>
        <time>2020-08-16 10:32:07</time>
      </trkpt>
      <trkpt lat="39.95473" lon="-4.32973">
        <ele>558</ele>
        <time>2020-08-16 10:32:08</time>
      </trkpt>
      <trkpt lat="39.95468" lon="-4.32975">
        <ele>558.4</ele>
        <time>2020-08-16 10:32:09</time>
      </trkpt>
      <trkpt lat="39.95462" lon="-4.32977">
        <ele>558.4</ele>
        <time>2020-08-16 10:32:10</time>
      </trkpt>
      <trkpt lat="39.95458" lon="-4.32979">
        <ele>558.4</ele>
        <time>2020-08-16 10:32:11</time>
      </trkpt>
      <trkpt lat="39.95452" lon="-4.3298">
        <ele>558.4</ele>
        <time>2020-08-16 10:32:12</time>
      </trkpt>
      <trkpt lat="39.95447" lon="-4.32982">
        <ele>558.4</ele>
        <time>2020-08-16 10:32:13</time>
      </trkpt>
      <trkpt lat="39.95442" lon="-4.32985">
        <ele>558.6</ele>
        <time>2020-08-16 10:32:14</time>
      </trkpt>
      <trkpt lat="39.95438" lon="-4.32988">
        <ele>558.6</ele>
        <time>2020-08-16 10:32:15</time>
      </trkpt>
      <trkpt lat="39.95436" lon="-4.32993">
        <ele>558.8</ele>
        <time>2020-08-16 10:32:16</time>
      </trkpt>
      <trkpt lat="39.95435" lon="-4.32998">
        <ele>558.8</ele>
        <time>2020-08-16 10:32:17</time>
      </trkpt>
      <trkpt lat="39.95436" lon="-4.33003">
        <ele>558.8</ele>
        <time>2020-08-16 10:32:18</time>
      </trkpt>
      <trkpt lat="39.95437" lon="-4.33008">
        <ele>559</ele>
        <time>2020-08-16 10:32:19</time>
      </trkpt>
      <trkpt lat="39.95438" lon="-4.33014">
        <ele>559.2</ele>
        <time>2020-08-16 10:32:20</time>
      </trkpt>
      <trkpt lat="39.9544" lon="-4.33019">
        <ele>559.2</ele>
        <time>2020-08-16 10:32:21</time>
      </trkpt>
      <trkpt lat="39.95455" lon="-4.33073">
        <ele>559.4</ele>
        <time>2020-08-16 10:32:30</time>
      </trkpt>
      <trkpt lat="39.95469" lon="-4.33147">
        <ele>559.2</ele>
        <time>2020-08-16 10:32:41</time>
      </trkpt>
      <trkpt lat="39.95474" lon="-4.33174">
        <ele>559</ele>
        <time>2020-08-16 10:32:45</time>
      </trkpt>
      <trkpt lat="39.95477" lon="-4.33189">
        <ele>558.8</ele>
        <time>2020-08-16 10:32:47</time>
      </trkpt>
      <trkpt lat="39.95478" lon="-4.33195">
        <ele>558.6</ele>
        <time>2020-08-16 10:32:48</time>
      </trkpt>
      <trkpt lat="39.95481" lon="-4.3321">
        <ele>558.4</ele>
        <time>2020-08-16 10:32:50</time>
      </trkpt>
      <trkpt lat="39.95491" lon="-4.33262">
        <ele>557.4</ele>
        <time>2020-08-16 10:32:57</time>
      </trkpt>
      <trkpt lat="39.95493" lon="-4.33269">
        <ele>557.2</ele>
        <time>2020-08-16 10:32:58</time>
      </trkpt>
      <trkpt lat="39.955" lon="-4.33299">
        <ele>556.8</ele>
        <time>2020-08-16 10:33:02</time>
      </trkpt>
      <trkpt lat="39.95506" lon="-4.33322">
        <ele>556.2</ele>
        <time>2020-08-16 10:33:05</time>
      </trkpt>
      <trkpt lat="39.95509" lon="-4.33337">
        <ele>556</ele>
        <time>2020-08-16 10:33:07</time>
      </trkpt>
      <trkpt lat="39.9552" lon="-4.33384">
        <ele>555.4</ele>
        <time>2020-08-16 10:33:13</time>
      </trkpt>
      <trkpt lat="39.95521" lon="-4.33392">
        <ele>555.4</ele>
        <time>2020-08-16 10:33:14</time>
      </trkpt>
      <trkpt lat="39.95521" lon="-4.334">
        <ele>555</ele>
        <time>2020-08-16 10:33:15</time>
      </trkpt>
      <trkpt lat="39.95519" lon="-4.33408">
        <ele>554.8</ele>
        <time>2020-08-16 10:33:16</time>
      </trkpt>
      <trkpt lat="39.95517" lon="-4.33416">
        <ele>554.8</ele>
        <time>2020-08-16 10:33:17</time>
      </trkpt>
      <trkpt lat="39.95512" lon="-4.3343">
        <ele>554.6</ele>
        <time>2020-08-16 10:33:19</time>
      </trkpt>
      <trkpt lat="39.95509" lon="-4.33437">
        <ele>554.4</ele>
        <time>2020-08-16 10:33:20</time>
      </trkpt>
      <trkpt lat="39.95506" lon="-4.33444">
        <ele>554.2</ele>
        <time>2020-08-16 10:33:21</time>
      </trkpt>
      <trkpt lat="39.95504" lon="-4.33451">
        <ele>554</ele>
        <time>2020-08-16 10:33:22</time>
      </trkpt>
      <trkpt lat="39.95501" lon="-4.33457">
        <ele>553.8</ele>
        <time>2020-08-16 10:33:23</time>
      </trkpt>
      <trkpt lat="39.95498" lon="-4.33464">
        <ele>553.6</ele>
        <time>2020-08-16 10:33:24</time>
      </trkpt>
      <trkpt lat="39.95495" lon="-4.33471">
        <ele>553.4</ele>
        <time>2020-08-16 10:33:25</time>
      </trkpt>
      <trkpt lat="39.95492" lon="-4.33477">
        <ele>553.2</ele>
        <time>2020-08-16 10:33:26</time>
      </trkpt>
      <trkpt lat="39.95489" lon="-4.33484">
        <ele>552.8</ele>
        <time>2020-08-16 10:33:27</time>
      </trkpt>
      <trkpt lat="39.95486" lon="-4.3349">
        <ele>552.8</ele>
        <time>2020-08-16 10:33:28</time>
      </trkpt>
      <trkpt lat="39.95484" lon="-4.33497">
        <ele>552.8</ele>
        <time>2020-08-16 10:33:29</time>
      </trkpt>
      <trkpt lat="39.95481" lon="-4.33504">
        <ele>552.6</ele>
        <time>2020-08-16 10:33:30</time>
      </trkpt>
      <trkpt lat="39.95474" lon="-4.33526">
        <ele>552.4</ele>
        <time>2020-08-16 10:33:33</time>
      </trkpt>
      <trkpt lat="39.95473" lon="-4.33532">
        <ele>552.4</ele>
        <time>2020-08-16 10:33:34</time>
      </trkpt>
      <trkpt lat="39.95471" lon="-4.33539">
        <ele>552.2</ele>
        <time>2020-08-16 10:33:35</time>
      </trkpt>
      <trkpt lat="39.95469" lon="-4.33546">
        <ele>552.2</ele>
        <time>2020-08-16 10:33:36</time>
      </trkpt>
      <trkpt lat="39.95467" lon="-4.33553">
        <ele>551.8</ele>
        <time>2020-08-16 10:33:37</time>
      </trkpt>
      <trkpt lat="39.95465" lon="-4.33559">
        <ele>551.8</ele>
        <time>2020-08-16 10:33:38</time>
      </trkpt>
      <trkpt lat="39.95463" lon="-4.33566">
        <ele>551.4</ele>
        <time>2020-08-16 10:33:39</time>
      </trkpt>
      <trkpt lat="39.95461" lon="-4.33573">
        <ele>551.2</ele>
        <time>2020-08-16 10:33:40</time>
      </trkpt>
      <trkpt lat="39.95458" lon="-4.3358">
        <ele>551.2</ele>
        <time>2020-08-16 10:33:41</time>
      </trkpt>
      <trkpt lat="39.95456" lon="-4.33586">
        <ele>551</ele>
        <time>2020-08-16 10:33:42</time>
      </trkpt>
      <trkpt lat="39.95454" lon="-4.33593">
        <ele>550.8</ele>
        <time>2020-08-16 10:33:43</time>
      </trkpt>
      <trkpt lat="39.95451" lon="-4.336">
        <ele>550.6</ele>
        <time>2020-08-16 10:33:44</time>
      </trkpt>
      <trkpt lat="39.95449" lon="-4.33606">
        <ele>550.4</ele>
        <time>2020-08-16 10:33:45</time>
      </trkpt>
      <trkpt lat="39.95446" lon="-4.33612">
        <ele>550</ele>
        <time>2020-08-16 10:33:46</time>
      </trkpt>
      <trkpt lat="39.95443" lon="-4.33618">
        <ele>550</ele>
        <time>2020-08-16 10:33:47</time>
      </trkpt>
      <trkpt lat="39.9544" lon="-4.33624">
        <ele>550</ele>
        <time>2020-08-16 10:33:48</time>
      </trkpt>
      <trkpt lat="39.95437" lon="-4.3363">
        <ele>549.8</ele>
        <time>2020-08-16 10:33:49</time>
      </trkpt>
      <trkpt lat="39.95435" lon="-4.33636">
        <ele>549.8</ele>
        <time>2020-08-16 10:33:50</time>
      </trkpt>
      <trkpt lat="39.95433" lon="-4.33642">
        <ele>549.6</ele>
        <time>2020-08-16 10:33:51</time>
      </trkpt>
      <trkpt lat="39.95431" lon="-4.33649">
        <ele>549.6</ele>
        <time>2020-08-16 10:33:52</time>
      </trkpt>
      <trkpt lat="39.95429" lon="-4.33656">
        <ele>549.8</ele>
        <time>2020-08-16 10:33:53</time>
      </trkpt>
      <trkpt lat="39.95428" lon="-4.33663">
        <ele>549.6</ele>
        <time>2020-08-16 10:33:54</time>
      </trkpt>
      <trkpt lat="39.95427" lon="-4.3367">
        <ele>549.6</ele>
        <time>2020-08-16 10:33:55</time>
      </trkpt>
      <trkpt lat="39.95426" lon="-4.33676">
        <ele>549.6</ele>
        <time>2020-08-16 10:33:56</time>
      </trkpt>
      <trkpt lat="39.95425" lon="-4.33683">
        <ele>549.6</ele>
        <time>2020-08-16 10:33:57</time>
      </trkpt>
      <trkpt lat="39.95425" lon="-4.3369">
        <ele>549.6</ele>
        <time>2020-08-16 10:33:58</time>
      </trkpt>
      <trkpt lat="39.95424" lon="-4.33696">
        <ele>549.6</ele>
        <time>2020-08-16 10:33:59</time>
      </trkpt>
      <trkpt lat="39.95424" lon="-4.33703">
        <ele>549.6</ele>
        <time>2020-08-16 10:34:00</time>
      </trkpt>
      <trkpt lat="39.95423" lon="-4.33709">
        <ele>549.6</ele>
        <time>2020-08-16 10:34:01</time>
      </trkpt>
      <trkpt lat="39.95422" lon="-4.33716">
        <ele>549.6</ele>
        <time>2020-08-16 10:34:02</time>
      </trkpt>
      <trkpt lat="39.9542" lon="-4.33722">
        <ele>549.4</ele>
        <time>2020-08-16 10:34:03</time>
      </trkpt>
      <trkpt lat="39.95417" lon="-4.33727">
        <ele>549.4</ele>
        <time>2020-08-16 10:34:04</time>
      </trkpt>
      <trkpt lat="39.95414" lon="-4.33733">
        <ele>549.4</ele>
        <time>2020-08-16 10:34:05</time>
      </trkpt>
      <trkpt lat="39.95411" lon="-4.33738">
        <ele>549.4</ele>
        <time>2020-08-16 10:34:06</time>
      </trkpt>
      <trkpt lat="39.95408" lon="-4.33743">
        <ele>549.2</ele>
        <time>2020-08-16 10:34:07</time>
      </trkpt>
      <trkpt lat="39.95406" lon="-4.33749">
        <ele>549.2</ele>
        <time>2020-08-16 10:34:08</time>
      </trkpt>
      <trkpt lat="39.95403" lon="-4.33754">
        <ele>549.2</ele>
        <time>2020-08-16 10:34:09</time>
      </trkpt>
      <trkpt lat="39.95401" lon="-4.3376">
        <ele>549.2</ele>
        <time>2020-08-16 10:34:10</time>
      </trkpt>
      <trkpt lat="39.95382" lon="-4.33803">
        <ele>548.8</ele>
        <time>2020-08-16 10:34:17</time>
      </trkpt>
      <trkpt lat="39.95371" lon="-4.33831">
        <ele>548.4</ele>
        <time>2020-08-16 10:34:21</time>
      </trkpt>
      <trkpt lat="39.95366" lon="-4.33845">
        <ele>548.2</ele>
        <time>2020-08-16 10:34:23</time>
      </trkpt>
      <trkpt lat="39.95363" lon="-4.3386">
        <ele>548</ele>
        <time>2020-08-16 10:34:25</time>
      </trkpt>
      <trkpt lat="39.95361" lon="-4.33883">
        <ele>547.8</ele>
        <time>2020-08-16 10:34:28</time>
      </trkpt>
      <trkpt lat="39.95362" lon="-4.3389">
        <ele>547.8</ele>
        <time>2020-08-16 10:34:29</time>
      </trkpt>
      <trkpt lat="39.95362" lon="-4.33897">
        <ele>547.6</ele>
        <time>2020-08-16 10:34:30</time>
      </trkpt>
      <trkpt lat="39.95365" lon="-4.33912">
        <ele>547.6</ele>
        <time>2020-08-16 10:34:32</time>
      </trkpt>
      <trkpt lat="39.95367" lon="-4.33919">
        <ele>547.4</ele>
        <time>2020-08-16 10:34:33</time>
      </trkpt>
      <trkpt lat="39.95369" lon="-4.33926">
        <ele>547.4</ele>
        <time>2020-08-16 10:34:34</time>
      </trkpt>
      <trkpt lat="39.9537" lon="-4.33933">
        <ele>547.4</ele>
        <time>2020-08-16 10:34:35</time>
      </trkpt>
      <trkpt lat="39.95371" lon="-4.3394">
        <ele>547.2</ele>
        <time>2020-08-16 10:34:36</time>
      </trkpt>
      <trkpt lat="39.95371" lon="-4.33947">
        <ele>547.2</ele>
        <time>2020-08-16 10:34:37</time>
      </trkpt>
      <trkpt lat="39.95371" lon="-4.33955">
        <ele>547.2</ele>
        <time>2020-08-16 10:34:38</time>
      </trkpt>
      <trkpt lat="39.95369" lon="-4.33962">
        <ele>547.2</ele>
        <time>2020-08-16 10:34:39</time>
      </trkpt>
      <trkpt lat="39.95366" lon="-4.33968">
        <ele>547.2</ele>
        <time>2020-08-16 10:34:40</time>
      </trkpt>
      <trkpt lat="39.9536" lon="-4.33981">
        <ele>547</ele>
        <time>2020-08-16 10:34:42</time>
      </trkpt>
      <trkpt lat="39.95353" lon="-4.33992">
        <ele>547</ele>
        <time>2020-08-16 10:34:44</time>
      </trkpt>
      <trkpt lat="39.9535" lon="-4.33997">
        <ele>547</ele>
        <time>2020-08-16 10:34:45</time>
      </trkpt>
      <trkpt lat="39.95346" lon="-4.34003">
        <ele>547</ele>
        <time>2020-08-16 10:34:46</time>
      </trkpt>
      <trkpt lat="39.95343" lon="-4.34009">
        <ele>547</ele>
        <time>2020-08-16 10:34:47</time>
      </trkpt>
      <trkpt lat="39.9534" lon="-4.34015">
        <ele>547</ele>
        <time>2020-08-16 10:34:48</time>
      </trkpt>
      <trkpt lat="39.95337" lon="-4.34021">
        <ele>546.8</ele>
        <time>2020-08-16 10:34:49</time>
      </trkpt>
      <trkpt lat="39.95334" lon="-4.34028">
        <ele>546.6</ele>
        <time>2020-08-16 10:34:50</time>
      </trkpt>
      <trkpt lat="39.95332" lon="-4.34034">
        <ele>546.4</ele>
        <time>2020-08-16 10:34:51</time>
      </trkpt>
      <trkpt lat="39.9533" lon="-4.3404">
        <ele>546.2</ele>
        <time>2020-08-16 10:34:52</time>
      </trkpt>
      <trkpt lat="39.95328" lon="-4.34047">
        <ele>546.2</ele>
        <time>2020-08-16 10:34:53</time>
      </trkpt>
      <trkpt lat="39.95326" lon="-4.34054">
        <ele>546.2</ele>
        <time>2020-08-16 10:34:54</time>
      </trkpt>
      <trkpt lat="39.95326" lon="-4.34062">
        <ele>546</ele>
        <time>2020-08-16 10:34:55</time>
      </trkpt>
      <trkpt lat="39.95323" lon="-4.34091">
        <ele>545.6</ele>
        <time>2020-08-16 10:34:59</time>
      </trkpt>
      <trkpt lat="39.95321" lon="-4.34112">
        <ele>545.4</ele>
        <time>2020-08-16 10:35:02</time>
      </trkpt>
      <trkpt lat="39.9532" lon="-4.34119">
        <ele>545.2</ele>
        <time>2020-08-16 10:35:03</time>
      </trkpt>
      <trkpt lat="39.95317" lon="-4.34125">
        <ele>545.2</ele>
        <time>2020-08-16 10:35:04</time>
      </trkpt>
      <trkpt lat="39.95314" lon="-4.34131">
        <ele>545.2</ele>
        <time>2020-08-16 10:35:05</time>
      </trkpt>
      <trkpt lat="39.95311" lon="-4.34136">
        <ele>545.2</ele>
        <time>2020-08-16 10:35:06</time>
      </trkpt>
      <trkpt lat="39.95307" lon="-4.34142">
        <ele>545.2</ele>
        <time>2020-08-16 10:35:07</time>
      </trkpt>
      <trkpt lat="39.95303" lon="-4.34148">
        <ele>545.2</ele>
        <time>2020-08-16 10:35:08</time>
      </trkpt>
      <trkpt lat="39.953" lon="-4.34154">
        <ele>545.2</ele>
        <time>2020-08-16 10:35:09</time>
      </trkpt>
      <trkpt lat="39.95296" lon="-4.3416">
        <ele>545.2</ele>
        <time>2020-08-16 10:35:10</time>
      </trkpt>
      <trkpt lat="39.95288" lon="-4.34171">
        <ele>545.2</ele>
        <time>2020-08-16 10:35:12</time>
      </trkpt>
      <trkpt lat="39.95267" lon="-4.34195">
        <ele>544.8</ele>
        <time>2020-08-16 10:35:17</time>
      </trkpt>
      <trkpt lat="39.95263" lon="-4.34199">
        <ele>544.6</ele>
        <time>2020-08-16 10:35:18</time>
      </trkpt>
      <trkpt lat="39.95258" lon="-4.34204">
        <ele>544.6</ele>
        <time>2020-08-16 10:35:19</time>
      </trkpt>
      <trkpt lat="39.95253" lon="-4.34208">
        <ele>544.4</ele>
        <time>2020-08-16 10:35:20</time>
      </trkpt>
      <trkpt lat="39.95249" lon="-4.34213">
        <ele>544.4</ele>
        <time>2020-08-16 10:35:21</time>
      </trkpt>
      <trkpt lat="39.95244" lon="-4.34219">
        <ele>544.2</ele>
        <time>2020-08-16 10:35:22</time>
      </trkpt>
      <trkpt lat="39.9524" lon="-4.34224">
        <ele>544</ele>
        <time>2020-08-16 10:35:23</time>
      </trkpt>
      <trkpt lat="39.95228" lon="-4.34241">
        <ele>543.8</ele>
        <time>2020-08-16 10:35:26</time>
      </trkpt>
      <trkpt lat="39.95207" lon="-4.34271">
        <ele>543.6</ele>
        <time>2020-08-16 10:35:31</time>
      </trkpt>
      <trkpt lat="39.95194" lon="-4.34288">
        <ele>543.2</ele>
        <time>2020-08-16 10:35:34</time>
      </trkpt>
      <trkpt lat="39.95181" lon="-4.34306">
        <ele>542.8</ele>
        <time>2020-08-16 10:35:37</time>
      </trkpt>
      <trkpt lat="39.95172" lon="-4.34318">
        <ele>542.4</ele>
        <time>2020-08-16 10:35:39</time>
      </trkpt>
      <trkpt lat="39.95163" lon="-4.3433">
        <ele>542.2</ele>
        <time>2020-08-16 10:35:41</time>
      </trkpt>
      <trkpt lat="39.95155" lon="-4.34342">
        <ele>541.8</ele>
        <time>2020-08-16 10:35:43</time>
      </trkpt>
      <trkpt lat="39.95137" lon="-4.34365">
        <ele>541</ele>
        <time>2020-08-16 10:35:47</time>
      </trkpt>
      <trkpt lat="39.95123" lon="-4.34381">
        <ele>540.4</ele>
        <time>2020-08-16 10:35:50</time>
      </trkpt>
      <trkpt lat="39.95109" lon="-4.34398">
        <ele>540</ele>
        <time>2020-08-16 10:35:53</time>
      </trkpt>
      <trkpt lat="39.95105" lon="-4.34403">
        <ele>540</ele>
        <time>2020-08-16 10:35:54</time>
      </trkpt>
      <trkpt lat="39.95096" lon="-4.34414">
        <ele>539.8</ele>
        <time>2020-08-16 10:35:56</time>
      </trkpt>
      <trkpt lat="39.95091" lon="-4.34419">
        <ele>539.8</ele>
        <time>2020-08-16 10:35:57</time>
      </trkpt>
      <trkpt lat="39.95087" lon="-4.34425">
        <ele>539.6</ele>
        <time>2020-08-16 10:35:58</time>
      </trkpt>
      <trkpt lat="39.95082" lon="-4.34431">
        <ele>539.6</ele>
        <time>2020-08-16 10:35:59</time>
      </trkpt>
      <trkpt lat="39.95078" lon="-4.34437">
        <ele>539.4</ele>
        <time>2020-08-16 10:36:00</time>
      </trkpt>
      <trkpt lat="39.95074" lon="-4.34443">
        <ele>539.4</ele>
        <time>2020-08-16 10:36:01</time>
      </trkpt>
      <trkpt lat="39.9507" lon="-4.34449">
        <ele>539.2</ele>
        <time>2020-08-16 10:36:02</time>
      </trkpt>
      <trkpt lat="39.95061" lon="-4.3446">
        <ele>539</ele>
        <time>2020-08-16 10:36:04</time>
      </trkpt>
      <trkpt lat="39.95049" lon="-4.34477">
        <ele>538.8</ele>
        <time>2020-08-16 10:36:07</time>
      </trkpt>
      <trkpt lat="39.95046" lon="-4.34483">
        <ele>538.6</ele>
        <time>2020-08-16 10:36:08</time>
      </trkpt>
      <trkpt lat="39.95043" lon="-4.3449">
        <ele>538.4</ele>
        <time>2020-08-16 10:36:09</time>
      </trkpt>
      <trkpt lat="39.95041" lon="-4.34496">
        <ele>538.4</ele>
        <time>2020-08-16 10:36:10</time>
      </trkpt>
      <trkpt lat="39.95038" lon="-4.34503">
        <ele>538.2</ele>
        <time>2020-08-16 10:36:11</time>
      </trkpt>
      <trkpt lat="39.95035" lon="-4.34509">
        <ele>538.2</ele>
        <time>2020-08-16 10:36:12</time>
      </trkpt>
      <trkpt lat="39.95032" lon="-4.34515">
        <ele>538</ele>
        <time>2020-08-16 10:36:13</time>
      </trkpt>
      <trkpt lat="39.9503" lon="-4.34522">
        <ele>538</ele>
        <time>2020-08-16 10:36:14</time>
      </trkpt>
      <trkpt lat="39.95027" lon="-4.34528">
        <ele>537.8</ele>
        <time>2020-08-16 10:36:15</time>
      </trkpt>
      <trkpt lat="39.95025" lon="-4.34534">
        <ele>537.8</ele>
        <time>2020-08-16 10:36:16</time>
      </trkpt>
      <trkpt lat="39.95023" lon="-4.3454">
        <ele>537.8</ele>
        <time>2020-08-16 10:36:17</time>
      </trkpt>
      <trkpt lat="39.9502" lon="-4.34546">
        <ele>537.8</ele>
        <time>2020-08-16 10:36:18</time>
      </trkpt>
      <trkpt lat="39.95018" lon="-4.34552">
        <ele>537.6</ele>
        <time>2020-08-16 10:36:19</time>
      </trkpt>
      <trkpt lat="39.95015" lon="-4.34559">
        <ele>537.6</ele>
        <time>2020-08-16 10:36:20</time>
      </trkpt>
      <trkpt lat="39.95008" lon="-4.3458">
        <ele>536.8</ele>
        <time>2020-08-16 10:36:23</time>
      </trkpt>
      <trkpt lat="39.95006" lon="-4.34586">
        <ele>536.6</ele>
        <time>2020-08-16 10:36:24</time>
      </trkpt>
      <trkpt lat="39.95004" lon="-4.34593">
        <ele>536.6</ele>
        <time>2020-08-16 10:36:25</time>
      </trkpt>
      <trkpt lat="39.95003" lon="-4.34601">
        <ele>536.6</ele>
        <time>2020-08-16 10:36:26</time>
      </trkpt>
      <trkpt lat="39.95003" lon="-4.34638">
        <ele>536</ele>
        <time>2020-08-16 10:36:31</time>
      </trkpt>
      <trkpt lat="39.95003" lon="-4.34645">
        <ele>536</ele>
        <time>2020-08-16 10:36:32</time>
      </trkpt>
      <trkpt lat="39.95004" lon="-4.34652">
        <ele>535.8</ele>
        <time>2020-08-16 10:36:33</time>
      </trkpt>
      <trkpt lat="39.95005" lon="-4.34659">
        <ele>535.8</ele>
        <time>2020-08-16 10:36:34</time>
      </trkpt>
      <trkpt lat="39.95007" lon="-4.34666">
        <ele>535.8</ele>
        <time>2020-08-16 10:36:35</time>
      </trkpt>
      <trkpt lat="39.95008" lon="-4.34673">
        <ele>535.8</ele>
        <time>2020-08-16 10:36:36</time>
      </trkpt>
      <trkpt lat="39.95009" lon="-4.3468">
        <ele>535.6</ele>
        <time>2020-08-16 10:36:37</time>
      </trkpt>
      <trkpt lat="39.9501" lon="-4.34688">
        <ele>535.6</ele>
        <time>2020-08-16 10:36:38</time>
      </trkpt>
      <trkpt lat="39.95007" lon="-4.34727">
        <ele>535.4</ele>
        <time>2020-08-16 10:36:43</time>
      </trkpt>
      <trkpt lat="39.95004" lon="-4.3475">
        <ele>535</ele>
        <time>2020-08-16 10:36:46</time>
      </trkpt>
      <trkpt lat="39.94999" lon="-4.34774">
        <ele>534.4</ele>
        <time>2020-08-16 10:36:49</time>
      </trkpt>
      <trkpt lat="39.94996" lon="-4.3478">
        <ele>534.4</ele>
        <time>2020-08-16 10:36:50</time>
      </trkpt>
      <trkpt lat="39.94981" lon="-4.34807">
        <ele>534</ele>
        <time>2020-08-16 10:36:54</time>
      </trkpt>
      <trkpt lat="39.94978" lon="-4.34814">
        <ele>534</ele>
        <time>2020-08-16 10:36:55</time>
      </trkpt>
      <trkpt lat="39.94973" lon="-4.34829">
        <ele>533.2</ele>
        <time>2020-08-16 10:36:57</time>
      </trkpt>
      <trkpt lat="39.94971" lon="-4.34837">
        <ele>533.2</ele>
        <time>2020-08-16 10:36:58</time>
      </trkpt>
      <trkpt lat="39.94969" lon="-4.34844">
        <ele>533</ele>
        <time>2020-08-16 10:36:59</time>
      </trkpt>
      <trkpt lat="39.94967" lon="-4.34851">
        <ele>532.8</ele>
        <time>2020-08-16 10:37:00</time>
      </trkpt>
      <trkpt lat="39.94964" lon="-4.34858">
        <ele>532.8</ele>
        <time>2020-08-16 10:37:01</time>
      </trkpt>
      <trkpt lat="39.94961" lon="-4.34865">
        <ele>532.8</ele>
        <time>2020-08-16 10:37:02</time>
      </trkpt>
      <trkpt lat="39.94959" lon="-4.34872">
        <ele>532.8</ele>
        <time>2020-08-16 10:37:03</time>
      </trkpt>
      <trkpt lat="39.94956" lon="-4.34879">
        <ele>532.6</ele>
        <time>2020-08-16 10:37:04</time>
      </trkpt>
      <trkpt lat="39.94953" lon="-4.34886">
        <ele>532.6</ele>
        <time>2020-08-16 10:37:05</time>
      </trkpt>
      <trkpt lat="39.94951" lon="-4.34893">
        <ele>532.6</ele>
        <time>2020-08-16 10:37:06</time>
      </trkpt>
      <trkpt lat="39.94948" lon="-4.34899">
        <ele>532.6</ele>
        <time>2020-08-16 10:37:07</time>
      </trkpt>
      <trkpt lat="39.94945" lon="-4.34906">
        <ele>532.6</ele>
        <time>2020-08-16 10:37:08</time>
      </trkpt>
      <trkpt lat="39.94943" lon="-4.34913">
        <ele>532.6</ele>
        <time>2020-08-16 10:37:09</time>
      </trkpt>
      <trkpt lat="39.94941" lon="-4.34919">
        <ele>532.4</ele>
        <time>2020-08-16 10:37:10</time>
      </trkpt>
      <trkpt lat="39.94939" lon="-4.34926">
        <ele>532.2</ele>
        <time>2020-08-16 10:37:11</time>
      </trkpt>
      <trkpt lat="39.94937" lon="-4.34933">
        <ele>532.2</ele>
        <time>2020-08-16 10:37:12</time>
      </trkpt>
      <trkpt lat="39.94935" lon="-4.34939">
        <ele>532</ele>
        <time>2020-08-16 10:37:13</time>
      </trkpt>
      <trkpt lat="39.94933" lon="-4.34946">
        <ele>531.8</ele>
        <time>2020-08-16 10:37:14</time>
      </trkpt>
      <trkpt lat="39.9493" lon="-4.34952">
        <ele>531.6</ele>
        <time>2020-08-16 10:37:15</time>
      </trkpt>
      <trkpt lat="39.94927" lon="-4.34958">
        <ele>531.4</ele>
        <time>2020-08-16 10:37:16</time>
      </trkpt>
      <trkpt lat="39.94924" lon="-4.34963">
        <ele>531.4</ele>
        <time>2020-08-16 10:37:17</time>
      </trkpt>
      <trkpt lat="39.94921" lon="-4.34969">
        <ele>531.2</ele>
        <time>2020-08-16 10:37:18</time>
      </trkpt>
      <trkpt lat="39.94918" lon="-4.34975">
        <ele>531</ele>
        <time>2020-08-16 10:37:19</time>
      </trkpt>
      <trkpt lat="39.94916" lon="-4.34981">
        <ele>530.8</ele>
        <time>2020-08-16 10:37:20</time>
      </trkpt>
      <trkpt lat="39.94913" lon="-4.34987">
        <ele>530.8</ele>
        <time>2020-08-16 10:37:21</time>
      </trkpt>
      <trkpt lat="39.94911" lon="-4.34993">
        <ele>530.8</ele>
        <time>2020-08-16 10:37:22</time>
      </trkpt>
      <trkpt lat="39.94909" lon="-4.34999">
        <ele>530.8</ele>
        <time>2020-08-16 10:37:23</time>
      </trkpt>
      <trkpt lat="39.94908" lon="-4.35006">
        <ele>530.8</ele>
        <time>2020-08-16 10:37:24</time>
      </trkpt>
      <trkpt lat="39.94908" lon="-4.35012">
        <ele>530.6</ele>
        <time>2020-08-16 10:37:25</time>
      </trkpt>
      <trkpt lat="39.94908" lon="-4.35019">
        <ele>530.6</ele>
        <time>2020-08-16 10:37:26</time>
      </trkpt>
      <trkpt lat="39.94907" lon="-4.35025">
        <ele>530.6</ele>
        <time>2020-08-16 10:37:27</time>
      </trkpt>
      <trkpt lat="39.94906" lon="-4.35031">
        <ele>530.6</ele>
        <time>2020-08-16 10:37:28</time>
      </trkpt>
      <trkpt lat="39.94905" lon="-4.35036">
        <ele>530.4</ele>
        <time>2020-08-16 10:37:29</time>
      </trkpt>
      <trkpt lat="39.94904" lon="-4.35041">
        <ele>530.4</ele>
        <time>2020-08-16 10:37:30</time>
      </trkpt>
      <trkpt lat="39.94902" lon="-4.35046">
        <ele>530.4</ele>
        <time>2020-08-16 10:37:31</time>
      </trkpt>
      <trkpt lat="39.949" lon="-4.3505">
        <ele>530.4</ele>
        <time>2020-08-16 10:37:32</time>
      </trkpt>
      <trkpt lat="39.94898" lon="-4.35054">
        <ele>530.4</ele>
        <time>2020-08-16 10:37:33</time>
      </trkpt>
      <trkpt lat="39.94897" lon="-4.35059">
        <ele>530.4</ele>
        <time>2020-08-16 10:37:34</time>
      </trkpt>
      <trkpt lat="39.94896" lon="-4.35065">
        <ele>530.6</ele>
        <time>2020-08-16 10:37:35</time>
      </trkpt>
      <trkpt lat="39.94896" lon="-4.35071">
        <ele>530.6</ele>
        <time>2020-08-16 10:37:36</time>
      </trkpt>
      <trkpt lat="39.94894" lon="-4.35097">
        <ele>530.6</ele>
        <time>2020-08-16 10:37:40</time>
      </trkpt>
      <trkpt lat="39.94893" lon="-4.35118">
        <ele>530.6</ele>
        <time>2020-08-16 10:37:43</time>
      </trkpt>
      <trkpt lat="39.94892" lon="-4.35145">
        <ele>530</ele>
        <time>2020-08-16 10:37:47</time>
      </trkpt>
      <trkpt lat="39.94891" lon="-4.35152">
        <ele>530</ele>
        <time>2020-08-16 10:37:48</time>
      </trkpt>
      <trkpt lat="39.94889" lon="-4.35158">
        <ele>529.8</ele>
        <time>2020-08-16 10:37:49</time>
      </trkpt>
      <trkpt lat="39.94887" lon="-4.35164">
        <ele>529.8</ele>
        <time>2020-08-16 10:37:50</time>
      </trkpt>
      <trkpt lat="39.94884" lon="-4.3517">
        <ele>529.6</ele>
        <time>2020-08-16 10:37:51</time>
      </trkpt>
      <trkpt lat="39.94882" lon="-4.35176">
        <ele>529.6</ele>
        <time>2020-08-16 10:37:52</time>
      </trkpt>
      <trkpt lat="39.94878" lon="-4.35181">
        <ele>529.6</ele>
        <time>2020-08-16 10:37:53</time>
      </trkpt>
      <trkpt lat="39.9487" lon="-4.35192">
        <ele>529.6</ele>
        <time>2020-08-16 10:37:55</time>
      </trkpt>
      <trkpt lat="39.94855" lon="-4.35214">
        <ele>529</ele>
        <time>2020-08-16 10:37:59</time>
      </trkpt>
      <trkpt lat="39.94853" lon="-4.35221">
        <ele>528.8</ele>
        <time>2020-08-16 10:38:00</time>
      </trkpt>
      <trkpt lat="39.94851" lon="-4.35228">
        <ele>528.6</ele>
        <time>2020-08-16 10:38:01</time>
      </trkpt>
      <trkpt lat="39.94846" lon="-4.35265">
        <ele>528</ele>
        <time>2020-08-16 10:38:06</time>
      </trkpt>
      <trkpt lat="39.94846" lon="-4.35279">
        <ele>527.6</ele>
        <time>2020-08-16 10:38:08</time>
      </trkpt>
      <trkpt lat="39.94845" lon="-4.35287">
        <ele>527.6</ele>
        <time>2020-08-16 10:38:09</time>
      </trkpt>
      <trkpt lat="39.94843" lon="-4.35294">
        <ele>527.6</ele>
        <time>2020-08-16 10:38:10</time>
      </trkpt>
      <trkpt lat="39.94841" lon="-4.353">
        <ele>527.6</ele>
        <time>2020-08-16 10:38:11</time>
      </trkpt>
      <trkpt lat="39.94837" lon="-4.35306">
        <ele>527.6</ele>
        <time>2020-08-16 10:38:12</time>
      </trkpt>
      <trkpt lat="39.94833" lon="-4.35311">
        <ele>527.6</ele>
        <time>2020-08-16 10:38:13</time>
      </trkpt>
      <trkpt lat="39.94829" lon="-4.35316">
        <ele>527.6</ele>
        <time>2020-08-16 10:38:14</time>
      </trkpt>
      <trkpt lat="39.94824" lon="-4.35321">
        <ele>527.4</ele>
        <time>2020-08-16 10:38:15</time>
      </trkpt>
      <trkpt lat="39.94809" lon="-4.35335">
        <ele>526.6</ele>
        <time>2020-08-16 10:38:18</time>
      </trkpt>
      <trkpt lat="39.948" lon="-4.35344">
        <ele>526.4</ele>
        <time>2020-08-16 10:38:20</time>
      </trkpt>
      <trkpt lat="39.94795" lon="-4.35348">
        <ele>526.2</ele>
        <time>2020-08-16 10:38:21</time>
      </trkpt>
      <trkpt lat="39.94791" lon="-4.35352">
        <ele>525.8</ele>
        <time>2020-08-16 10:38:22</time>
      </trkpt>
      <trkpt lat="39.94786" lon="-4.35356">
        <ele>525.8</ele>
        <time>2020-08-16 10:38:23</time>
      </trkpt>
      <trkpt lat="39.94782" lon="-4.35361">
        <ele>525.8</ele>
        <time>2020-08-16 10:38:24</time>
      </trkpt>
      <trkpt lat="39.94778" lon="-4.35365">
        <ele>525.6</ele>
        <time>2020-08-16 10:38:25</time>
      </trkpt>
      <trkpt lat="39.94774" lon="-4.3537">
        <ele>525.6</ele>
        <time>2020-08-16 10:38:26</time>
      </trkpt>
      <trkpt lat="39.9477" lon="-4.35375">
        <ele>525.6</ele>
        <time>2020-08-16 10:38:27</time>
      </trkpt>
      <trkpt lat="39.94767" lon="-4.3538">
        <ele>525.6</ele>
        <time>2020-08-16 10:38:28</time>
      </trkpt>
      <trkpt lat="39.94763" lon="-4.35385">
        <ele>525.6</ele>
        <time>2020-08-16 10:38:29</time>
      </trkpt>
      <trkpt lat="39.9476" lon="-4.3539">
        <ele>525.6</ele>
        <time>2020-08-16 10:38:30</time>
      </trkpt>
      <trkpt lat="39.94756" lon="-4.35396">
        <ele>525.6</ele>
        <time>2020-08-16 10:38:31</time>
      </trkpt>
      <trkpt lat="39.94753" lon="-4.35401">
        <ele>525.6</ele>
        <time>2020-08-16 10:38:32</time>
      </trkpt>
      <trkpt lat="39.9475" lon="-4.35407">
        <ele>525.6</ele>
        <time>2020-08-16 10:38:33</time>
      </trkpt>
      <trkpt lat="39.94747" lon="-4.35413">
        <ele>525.4</ele>
        <time>2020-08-16 10:38:34</time>
      </trkpt>
      <trkpt lat="39.94744" lon="-4.35419">
        <ele>525.4</ele>
        <time>2020-08-16 10:38:35</time>
      </trkpt>
      <trkpt lat="39.94742" lon="-4.35425">
        <ele>525.2</ele>
        <time>2020-08-16 10:38:36</time>
      </trkpt>
      <trkpt lat="39.94739" lon="-4.3543">
        <ele>525.2</ele>
        <time>2020-08-16 10:38:37</time>
      </trkpt>
      <trkpt lat="39.9473" lon="-4.35448">
        <ele>525</ele>
        <time>2020-08-16 10:38:40</time>
      </trkpt>
      <trkpt lat="39.94728" lon="-4.35454">
        <ele>525</ele>
        <time>2020-08-16 10:38:41</time>
      </trkpt>
      <trkpt lat="39.94725" lon="-4.3546">
        <ele>525</ele>
        <time>2020-08-16 10:38:42</time>
      </trkpt>
      <trkpt lat="39.94723" lon="-4.35466">
        <ele>524.8</ele>
        <time>2020-08-16 10:38:43</time>
      </trkpt>
      <trkpt lat="39.94721" lon="-4.35472">
        <ele>524.6</ele>
        <time>2020-08-16 10:38:44</time>
      </trkpt>
      <trkpt lat="39.94719" lon="-4.35478">
        <ele>524.4</ele>
        <time>2020-08-16 10:38:45</time>
      </trkpt>
      <trkpt lat="39.94716" lon="-4.35485">
        <ele>524.2</ele>
        <time>2020-08-16 10:38:46</time>
      </trkpt>
      <trkpt lat="39.94714" lon="-4.35491">
        <ele>524.2</ele>
        <time>2020-08-16 10:38:47</time>
      </trkpt>
      <trkpt lat="39.94711" lon="-4.35496">
        <ele>524.2</ele>
        <time>2020-08-16 10:38:48</time>
      </trkpt>
      <trkpt lat="39.94708" lon="-4.35501">
        <ele>524.2</ele>
        <time>2020-08-16 10:38:49</time>
      </trkpt>
      <trkpt lat="39.94705" lon="-4.35506">
        <ele>524.2</ele>
        <time>2020-08-16 10:38:50</time>
      </trkpt>
      <trkpt lat="39.94703" lon="-4.3551">
        <ele>524.2</ele>
        <time>2020-08-16 10:38:51</time>
      </trkpt>
      <trkpt lat="39.947" lon="-4.35514">
        <ele>524.2</ele>
        <time>2020-08-16 10:38:52</time>
      </trkpt>
      <trkpt lat="39.94697" lon="-4.35518">
        <ele>524.2</ele>
        <time>2020-08-16 10:38:53</time>
      </trkpt>
      <trkpt lat="39.94696" lon="-4.35523">
        <ele>524.2</ele>
        <time>2020-08-16 10:38:54</time>
      </trkpt>
      <trkpt lat="39.94697" lon="-4.35528">
        <ele>524.2</ele>
        <time>2020-08-16 10:38:55</time>
      </trkpt>
      <trkpt lat="39.94699" lon="-4.35532">
        <ele>524.2</ele>
        <time>2020-08-16 10:38:56</time>
      </trkpt>
      <trkpt lat="39.94701" lon="-4.35535">
        <ele>524.4</ele>
        <time>2020-08-16 10:38:57</time>
      </trkpt>
      <trkpt lat="39.94707" lon="-4.35542">
        <ele>524.4</ele>
        <time>2020-08-16 10:38:59</time>
      </trkpt>
      <trkpt lat="39.94712" lon="-4.3555">
        <ele>524.4</ele>
        <time>2020-08-16 10:39:01</time>
      </trkpt>
      <trkpt lat="39.94723" lon="-4.35564">
        <ele>524.6</ele>
        <time>2020-08-16 10:39:05</time>
      </trkpt>
      <trkpt lat="39.94732" lon="-4.35574">
        <ele>524.6</ele>
        <time>2020-08-16 10:39:08</time>
      </trkpt>
      <trkpt lat="39.94741" lon="-4.35584">
        <ele>524.8</ele>
        <time>2020-08-16 10:39:11</time>
      </trkpt>
      <trkpt lat="39.9475" lon="-4.35594">
        <ele>525.2</ele>
        <time>2020-08-16 10:39:14</time>
      </trkpt>
      <trkpt lat="39.94753" lon="-4.35597">
        <ele>525.2</ele>
        <time>2020-08-16 10:39:15</time>
      </trkpt>
      <trkpt lat="39.94756" lon="-4.35601">
        <ele>525.4</ele>
        <time>2020-08-16 10:39:16</time>
      </trkpt>
      <trkpt lat="39.94762" lon="-4.35608">
        <ele>525.4</ele>
        <time>2020-08-16 10:39:18</time>
      </trkpt>
      <trkpt lat="39.94765" lon="-4.35611">
        <ele>525.6</ele>
        <time>2020-08-16 10:39:19</time>
      </trkpt>
      <trkpt lat="39.94774" lon="-4.35621">
        <ele>525.8</ele>
        <time>2020-08-16 10:39:22</time>
      </trkpt>
      <trkpt lat="39.94777" lon="-4.35625">
        <ele>525.8</ele>
        <time>2020-08-16 10:39:23</time>
      </trkpt>
      <trkpt lat="39.9478" lon="-4.35628">
        <ele>526</ele>
        <time>2020-08-16 10:39:24</time>
      </trkpt>
      <trkpt lat="39.94783" lon="-4.35631">
        <ele>526</ele>
        <time>2020-08-16 10:39:25</time>
      </trkpt>
      <trkpt lat="39.94786" lon="-4.35635">
        <ele>526.2</ele>
        <time>2020-08-16 10:39:26</time>
      </trkpt>
      <trkpt lat="39.94789" lon="-4.35638">
        <ele>526.4</ele>
        <time>2020-08-16 10:39:27</time>
      </trkpt>
      <trkpt lat="39.94791" lon="-4.35641">
        <ele>526.6</ele>
        <time>2020-08-16 10:39:28</time>
      </trkpt>
      <trkpt lat="39.94794" lon="-4.35644">
        <ele>526.8</ele>
        <time>2020-08-16 10:39:29</time>
      </trkpt>
      <trkpt lat="39.94797" lon="-4.35648">
        <ele>526.8</ele>
        <time>2020-08-16 10:39:30</time>
      </trkpt>
      <trkpt lat="39.948" lon="-4.35651">
        <ele>527</ele>
        <time>2020-08-16 10:39:31</time>
      </trkpt>
      <trkpt lat="39.94803" lon="-4.35654">
        <ele>527.2</ele>
        <time>2020-08-16 10:39:32</time>
      </trkpt>
      <trkpt lat="39.94806" lon="-4.35657">
        <ele>527.4</ele>
        <time>2020-08-16 10:39:33</time>
      </trkpt>
      <trkpt lat="39.94808" lon="-4.3566">
        <ele>527.6</ele>
        <time>2020-08-16 10:39:34</time>
      </trkpt>
      <trkpt lat="39.94811" lon="-4.35663">
        <ele>527.6</ele>
        <time>2020-08-16 10:39:35</time>
      </trkpt>
      <trkpt lat="39.94813" lon="-4.35666">
        <ele>527.8</ele>
        <time>2020-08-16 10:39:36</time>
      </trkpt>
      <trkpt lat="39.94816" lon="-4.35669">
        <ele>528</ele>
        <time>2020-08-16 10:39:37</time>
      </trkpt>
      <trkpt lat="39.94818" lon="-4.35672">
        <ele>528.2</ele>
        <time>2020-08-16 10:39:38</time>
      </trkpt>
      <trkpt lat="39.94821" lon="-4.35675">
        <ele>528.2</ele>
        <time>2020-08-16 10:39:39</time>
      </trkpt>
      <trkpt lat="39.94824" lon="-4.35678">
        <ele>528.4</ele>
        <time>2020-08-16 10:39:40</time>
      </trkpt>
      <trkpt lat="39.94826" lon="-4.35681">
        <ele>528.6</ele>
        <time>2020-08-16 10:39:41</time>
      </trkpt>
      <trkpt lat="39.94829" lon="-4.35684">
        <ele>528.6</ele>
        <time>2020-08-16 10:39:42</time>
      </trkpt>
      <trkpt lat="39.94831" lon="-4.35687">
        <ele>528.8</ele>
        <time>2020-08-16 10:39:43</time>
      </trkpt>
      <trkpt lat="39.94834" lon="-4.35691">
        <ele>529</ele>
        <time>2020-08-16 10:39:44</time>
      </trkpt>
      <trkpt lat="39.94836" lon="-4.35694">
        <ele>529.2</ele>
        <time>2020-08-16 10:39:45</time>
      </trkpt>
      <trkpt lat="39.94838" lon="-4.35697">
        <ele>529.4</ele>
        <time>2020-08-16 10:39:46</time>
      </trkpt>
      <trkpt lat="39.9484" lon="-4.35701">
        <ele>529.6</ele>
        <time>2020-08-16 10:39:47</time>
      </trkpt>
      <trkpt lat="39.94843" lon="-4.35704">
        <ele>529.8</ele>
        <time>2020-08-16 10:39:48</time>
      </trkpt>
      <trkpt lat="39.94845" lon="-4.35707">
        <ele>530</ele>
        <time>2020-08-16 10:39:49</time>
      </trkpt>
      <trkpt lat="39.94847" lon="-4.35711">
        <ele>530.2</ele>
        <time>2020-08-16 10:39:50</time>
      </trkpt>
      <trkpt lat="39.9485" lon="-4.35714">
        <ele>530.2</ele>
        <time>2020-08-16 10:39:51</time>
      </trkpt>
      <trkpt lat="39.94852" lon="-4.35717">
        <ele>530.4</ele>
        <time>2020-08-16 10:39:52</time>
      </trkpt>
      <trkpt lat="39.94854" lon="-4.3572">
        <ele>530.8</ele>
        <time>2020-08-16 10:39:53</time>
      </trkpt>
      <trkpt lat="39.94857" lon="-4.35723">
        <ele>530.8</ele>
        <time>2020-08-16 10:39:54</time>
      </trkpt>
      <trkpt lat="39.94859" lon="-4.35726">
        <ele>531</ele>
        <time>2020-08-16 10:39:55</time>
      </trkpt>
      <trkpt lat="39.94862" lon="-4.3573">
        <ele>531</ele>
        <time>2020-08-16 10:39:56</time>
      </trkpt>
      <trkpt lat="39.94865" lon="-4.35732">
        <ele>531.2</ele>
        <time>2020-08-16 10:39:57</time>
      </trkpt>
      <trkpt lat="39.94867" lon="-4.35736">
        <ele>531.2</ele>
        <time>2020-08-16 10:39:58</time>
      </trkpt>
      <trkpt lat="39.9487" lon="-4.35739">
        <ele>531.4</ele>
        <time>2020-08-16 10:39:59</time>
      </trkpt>
      <trkpt lat="39.94872" lon="-4.35742">
        <ele>531.6</ele>
        <time>2020-08-16 10:40:00</time>
      </trkpt>
      <trkpt lat="39.94875" lon="-4.35745">
        <ele>531.4</ele>
        <time>2020-08-16 10:40:01</time>
      </trkpt>
      <trkpt lat="39.94878" lon="-4.35748">
        <ele>531.6</ele>
        <time>2020-08-16 10:40:02</time>
      </trkpt>
      <trkpt lat="39.9488" lon="-4.35751">
        <ele>531.8</ele>
        <time>2020-08-16 10:40:03</time>
      </trkpt>
      <trkpt lat="39.94883" lon="-4.35753">
        <ele>531.6</ele>
        <time>2020-08-16 10:40:04</time>
      </trkpt>
      <trkpt lat="39.94886" lon="-4.35756">
        <ele>531.8</ele>
        <time>2020-08-16 10:40:05</time>
      </trkpt>
      <trkpt lat="39.94889" lon="-4.35759">
        <ele>532</ele>
        <time>2020-08-16 10:40:06</time>
      </trkpt>
      <trkpt lat="39.94892" lon="-4.35761">
        <ele>532.2</ele>
        <time>2020-08-16 10:40:07</time>
      </trkpt>
      <trkpt lat="39.94894" lon="-4.35765">
        <ele>532.2</ele>
        <time>2020-08-16 10:40:08</time>
      </trkpt>
      <trkpt lat="39.94897" lon="-4.35768">
        <ele>532.6</ele>
        <time>2020-08-16 10:40:09</time>
      </trkpt>
      <trkpt lat="39.94899" lon="-4.35771">
        <ele>532.6</ele>
        <time>2020-08-16 10:40:10</time>
      </trkpt>
      <trkpt lat="39.94902" lon="-4.35773">
        <ele>532.8</ele>
        <time>2020-08-16 10:40:11</time>
      </trkpt>
      <trkpt lat="39.94904" lon="-4.35776">
        <ele>532.8</ele>
        <time>2020-08-16 10:40:12</time>
      </trkpt>
      <trkpt lat="39.94907" lon="-4.35779">
        <ele>533</ele>
        <time>2020-08-16 10:40:13</time>
      </trkpt>
      <trkpt lat="39.94909" lon="-4.35782">
        <ele>533</ele>
        <time>2020-08-16 10:40:14</time>
      </trkpt>
      <trkpt lat="39.94912" lon="-4.35784">
        <ele>533</ele>
        <time>2020-08-16 10:40:15</time>
      </trkpt>
      <trkpt lat="39.94914" lon="-4.35788">
        <ele>533.2</ele>
        <time>2020-08-16 10:40:16</time>
      </trkpt>
      <trkpt lat="39.94916" lon="-4.35791">
        <ele>533.2</ele>
        <time>2020-08-16 10:40:17</time>
      </trkpt>
      <trkpt lat="39.94919" lon="-4.35794">
        <ele>533.4</ele>
        <time>2020-08-16 10:40:18</time>
      </trkpt>
      <trkpt lat="39.94921" lon="-4.35797">
        <ele>533.4</ele>
        <time>2020-08-16 10:40:19</time>
      </trkpt>
      <trkpt lat="39.94924" lon="-4.358">
        <ele>533.4</ele>
        <time>2020-08-16 10:40:20</time>
      </trkpt>
      <trkpt lat="39.94926" lon="-4.35803">
        <ele>533.4</ele>
        <time>2020-08-16 10:40:21</time>
      </trkpt>
      <trkpt lat="39.94928" lon="-4.35806">
        <ele>533.6</ele>
        <time>2020-08-16 10:40:22</time>
      </trkpt>
      <trkpt lat="39.9493" lon="-4.35809">
        <ele>533.6</ele>
        <time>2020-08-16 10:40:23</time>
      </trkpt>
      <trkpt lat="39.94933" lon="-4.35812">
        <ele>533.8</ele>
        <time>2020-08-16 10:40:24</time>
      </trkpt>
      <trkpt lat="39.94935" lon="-4.35815">
        <ele>534.2</ele>
        <time>2020-08-16 10:40:25</time>
      </trkpt>
      <trkpt lat="39.94937" lon="-4.35818">
        <ele>534.4</ele>
        <time>2020-08-16 10:40:26</time>
      </trkpt>
      <trkpt lat="39.9494" lon="-4.3582">
        <ele>534.6</ele>
        <time>2020-08-16 10:40:27</time>
      </trkpt>
      <trkpt lat="39.94942" lon="-4.35823">
        <ele>534.8</ele>
        <time>2020-08-16 10:40:28</time>
      </trkpt>
      <trkpt lat="39.94945" lon="-4.35826">
        <ele>535</ele>
        <time>2020-08-16 10:40:29</time>
      </trkpt>
      <trkpt lat="39.94947" lon="-4.35829">
        <ele>535.2</ele>
        <time>2020-08-16 10:40:30</time>
      </trkpt>
      <trkpt lat="39.9495" lon="-4.35832">
        <ele>535.6</ele>
        <time>2020-08-16 10:40:31</time>
      </trkpt>
      <trkpt lat="39.94952" lon="-4.35835">
        <ele>535.8</ele>
        <time>2020-08-16 10:40:32</time>
      </trkpt>
      <trkpt lat="39.94955" lon="-4.35838">
        <ele>536</ele>
        <time>2020-08-16 10:40:33</time>
      </trkpt>
      <trkpt lat="39.94958" lon="-4.35841">
        <ele>536</ele>
        <time>2020-08-16 10:40:34</time>
      </trkpt>
      <trkpt lat="39.9496" lon="-4.35844">
        <ele>536.2</ele>
        <time>2020-08-16 10:40:35</time>
      </trkpt>
      <trkpt lat="39.94963" lon="-4.35847">
        <ele>536.2</ele>
        <time>2020-08-16 10:40:36</time>
      </trkpt>
      <trkpt lat="39.94965" lon="-4.3585">
        <ele>536.4</ele>
        <time>2020-08-16 10:40:37</time>
      </trkpt>
      <trkpt lat="39.94968" lon="-4.35853">
        <ele>536.6</ele>
        <time>2020-08-16 10:40:38</time>
      </trkpt>
      <trkpt lat="39.94971" lon="-4.35856">
        <ele>536.6</ele>
        <time>2020-08-16 10:40:39</time>
      </trkpt>
      <trkpt lat="39.94973" lon="-4.35858">
        <ele>536.8</ele>
        <time>2020-08-16 10:40:40</time>
      </trkpt>
      <trkpt lat="39.94976" lon="-4.35861">
        <ele>536.8</ele>
        <time>2020-08-16 10:40:41</time>
      </trkpt>
      <trkpt lat="39.94978" lon="-4.35864">
        <ele>536.8</ele>
        <time>2020-08-16 10:40:42</time>
      </trkpt>
      <trkpt lat="39.94981" lon="-4.35867">
        <ele>537</ele>
        <time>2020-08-16 10:40:43</time>
      </trkpt>
      <trkpt lat="39.94984" lon="-4.3587">
        <ele>537.4</ele>
        <time>2020-08-16 10:40:44</time>
      </trkpt>
      <trkpt lat="39.94986" lon="-4.35874">
        <ele>537.6</ele>
        <time>2020-08-16 10:40:45</time>
      </trkpt>
      <trkpt lat="39.94989" lon="-4.35876">
        <ele>537.8</ele>
        <time>2020-08-16 10:40:46</time>
      </trkpt>
      <trkpt lat="39.94992" lon="-4.35879">
        <ele>537.8</ele>
        <time>2020-08-16 10:40:47</time>
      </trkpt>
      <trkpt lat="39.94995" lon="-4.35882">
        <ele>538</ele>
        <time>2020-08-16 10:40:48</time>
      </trkpt>
      <trkpt lat="39.94997" lon="-4.35885">
        <ele>538</ele>
        <time>2020-08-16 10:40:49</time>
      </trkpt>
      <trkpt lat="39.95" lon="-4.35888">
        <ele>538.2</ele>
        <time>2020-08-16 10:40:50</time>
      </trkpt>
      <trkpt lat="39.95003" lon="-4.35891">
        <ele>538.4</ele>
        <time>2020-08-16 10:40:51</time>
      </trkpt>
      <trkpt lat="39.95005" lon="-4.35894">
        <ele>538.6</ele>
        <time>2020-08-16 10:40:52</time>
      </trkpt>
      <trkpt lat="39.95008" lon="-4.35897">
        <ele>538.6</ele>
        <time>2020-08-16 10:40:53</time>
      </trkpt>
      <trkpt lat="39.9501" lon="-4.359">
        <ele>538.6</ele>
        <time>2020-08-16 10:40:54</time>
      </trkpt>
      <trkpt lat="39.95013" lon="-4.35903">
        <ele>538.8</ele>
        <time>2020-08-16 10:40:55</time>
      </trkpt>
      <trkpt lat="39.95015" lon="-4.35906">
        <ele>538.8</ele>
        <time>2020-08-16 10:40:56</time>
      </trkpt>
      <trkpt lat="39.95018" lon="-4.35909">
        <ele>539</ele>
        <time>2020-08-16 10:40:57</time>
      </trkpt>
      <trkpt lat="39.9502" lon="-4.35913">
        <ele>539</ele>
        <time>2020-08-16 10:40:58</time>
      </trkpt>
      <trkpt lat="39.95023" lon="-4.35916">
        <ele>539.2</ele>
        <time>2020-08-16 10:40:59</time>
      </trkpt>
      <trkpt lat="39.95025" lon="-4.3592">
        <ele>539.4</ele>
        <time>2020-08-16 10:41:00</time>
      </trkpt>
      <trkpt lat="39.95027" lon="-4.35923">
        <ele>539.4</ele>
        <time>2020-08-16 10:41:01</time>
      </trkpt>
      <trkpt lat="39.95029" lon="-4.35927">
        <ele>539.6</ele>
        <time>2020-08-16 10:41:02</time>
      </trkpt>
      <trkpt lat="39.95031" lon="-4.35931">
        <ele>539.6</ele>
        <time>2020-08-16 10:41:03</time>
      </trkpt>
      <trkpt lat="39.95033" lon="-4.35935">
        <ele>539.8</ele>
        <time>2020-08-16 10:41:04</time>
      </trkpt>
      <trkpt lat="39.95035" lon="-4.35938">
        <ele>539.8</ele>
        <time>2020-08-16 10:41:05</time>
      </trkpt>
      <trkpt lat="39.95037" lon="-4.35942">
        <ele>540</ele>
        <time>2020-08-16 10:41:06</time>
      </trkpt>
      <trkpt lat="39.95039" lon="-4.35947">
        <ele>540</ele>
        <time>2020-08-16 10:41:07</time>
      </trkpt>
      <trkpt lat="39.95041" lon="-4.3595">
        <ele>540.2</ele>
        <time>2020-08-16 10:41:08</time>
      </trkpt>
      <trkpt lat="39.95042" lon="-4.35955">
        <ele>540.4</ele>
        <time>2020-08-16 10:41:09</time>
      </trkpt>
      <trkpt lat="39.95044" lon="-4.35959">
        <ele>540.4</ele>
        <time>2020-08-16 10:41:10</time>
      </trkpt>
      <trkpt lat="39.95046" lon="-4.35962">
        <ele>540.6</ele>
        <time>2020-08-16 10:41:11</time>
      </trkpt>
      <trkpt lat="39.95048" lon="-4.35966">
        <ele>540.6</ele>
        <time>2020-08-16 10:41:12</time>
      </trkpt>
      <trkpt lat="39.95049" lon="-4.3597">
        <ele>540.6</ele>
        <time>2020-08-16 10:41:13</time>
      </trkpt>
      <trkpt lat="39.95051" lon="-4.35974">
        <ele>540.8</ele>
        <time>2020-08-16 10:41:14</time>
      </trkpt>
      <trkpt lat="39.95053" lon="-4.35978">
        <ele>540.8</ele>
        <time>2020-08-16 10:41:15</time>
      </trkpt>
      <trkpt lat="39.95055" lon="-4.35982">
        <ele>540.8</ele>
        <time>2020-08-16 10:41:16</time>
      </trkpt>
      <trkpt lat="39.95056" lon="-4.35986">
        <ele>541</ele>
        <time>2020-08-16 10:41:17</time>
      </trkpt>
      <trkpt lat="39.95058" lon="-4.3599">
        <ele>541.2</ele>
        <time>2020-08-16 10:41:18</time>
      </trkpt>
      <trkpt lat="39.9506" lon="-4.35993">
        <ele>541.2</ele>
        <time>2020-08-16 10:41:19</time>
      </trkpt>
      <trkpt lat="39.95062" lon="-4.35997">
        <ele>541.4</ele>
        <time>2020-08-16 10:41:20</time>
      </trkpt>
      <trkpt lat="39.95063" lon="-4.36001">
        <ele>541.4</ele>
        <time>2020-08-16 10:41:21</time>
      </trkpt>
      <trkpt lat="39.95065" lon="-4.36006">
        <ele>541.8</ele>
        <time>2020-08-16 10:41:22</time>
      </trkpt>
      <trkpt lat="39.95066" lon="-4.3601">
        <ele>542</ele>
        <time>2020-08-16 10:41:23</time>
      </trkpt>
      <trkpt lat="39.95068" lon="-4.36014">
        <ele>542</ele>
        <time>2020-08-16 10:41:24</time>
      </trkpt>
      <trkpt lat="39.95069" lon="-4.36018">
        <ele>542.2</ele>
        <time>2020-08-16 10:41:25</time>
      </trkpt>
      <trkpt lat="39.9507" lon="-4.36022">
        <ele>542.2</ele>
        <time>2020-08-16 10:41:26</time>
      </trkpt>
      <trkpt lat="39.95071" lon="-4.36027">
        <ele>542.4</ele>
        <time>2020-08-16 10:41:27</time>
      </trkpt>
      <trkpt lat="39.95073" lon="-4.36031">
        <ele>542.4</ele>
        <time>2020-08-16 10:41:28</time>
      </trkpt>
      <trkpt lat="39.95074" lon="-4.36035">
        <ele>542.6</ele>
        <time>2020-08-16 10:41:29</time>
      </trkpt>
      <trkpt lat="39.95075" lon="-4.36039">
        <ele>542.6</ele>
        <time>2020-08-16 10:41:30</time>
      </trkpt>
      <trkpt lat="39.95077" lon="-4.36043">
        <ele>542.8</ele>
        <time>2020-08-16 10:41:31</time>
      </trkpt>
      <trkpt lat="39.95078" lon="-4.36046">
        <ele>542.8</ele>
        <time>2020-08-16 10:41:32</time>
      </trkpt>
      <trkpt lat="39.95079" lon="-4.3605">
        <ele>542.8</ele>
        <time>2020-08-16 10:41:33</time>
      </trkpt>
      <trkpt lat="39.9508" lon="-4.36054">
        <ele>543</ele>
        <time>2020-08-16 10:41:34</time>
      </trkpt>
      <trkpt lat="39.95081" lon="-4.36058">
        <ele>543</ele>
        <time>2020-08-16 10:41:35</time>
      </trkpt>
      <trkpt lat="39.95082" lon="-4.36062">
        <ele>543.2</ele>
        <time>2020-08-16 10:41:36</time>
      </trkpt>
      <trkpt lat="39.95083" lon="-4.36066">
        <ele>543.4</ele>
        <time>2020-08-16 10:41:37</time>
      </trkpt>
      <trkpt lat="39.95084" lon="-4.3607">
        <ele>543.4</ele>
        <time>2020-08-16 10:41:38</time>
      </trkpt>
      <trkpt lat="39.95085" lon="-4.36075">
        <ele>543.6</ele>
        <time>2020-08-16 10:41:39</time>
      </trkpt>
      <trkpt lat="39.95086" lon="-4.36079">
        <ele>543.8</ele>
        <time>2020-08-16 10:41:40</time>
      </trkpt>
      <trkpt lat="39.95087" lon="-4.36083">
        <ele>543.8</ele>
        <time>2020-08-16 10:41:41</time>
      </trkpt>
      <trkpt lat="39.95088" lon="-4.36088">
        <ele>543.8</ele>
        <time>2020-08-16 10:41:42</time>
      </trkpt>
      <trkpt lat="39.95089" lon="-4.36092">
        <ele>543.8</ele>
        <time>2020-08-16 10:41:43</time>
      </trkpt>
      <trkpt lat="39.95092" lon="-4.36107">
        <ele>543.8</ele>
        <time>2020-08-16 10:41:46</time>
      </trkpt>
      <trkpt lat="39.95093" lon="-4.36112">
        <ele>543.8</ele>
        <time>2020-08-16 10:41:47</time>
      </trkpt>
      <trkpt lat="39.95095" lon="-4.36117">
        <ele>543.6</ele>
        <time>2020-08-16 10:41:48</time>
      </trkpt>
      <trkpt lat="39.95096" lon="-4.36122">
        <ele>543.4</ele>
        <time>2020-08-16 10:41:49</time>
      </trkpt>
      <trkpt lat="39.95099" lon="-4.36138">
        <ele>543</ele>
        <time>2020-08-16 10:41:52</time>
      </trkpt>
      <trkpt lat="39.95103" lon="-4.36156">
        <ele>542.6</ele>
        <time>2020-08-16 10:41:55</time>
      </trkpt>
      <trkpt lat="39.95104" lon="-4.36162">
        <ele>542.4</ele>
        <time>2020-08-16 10:41:56</time>
      </trkpt>
      <trkpt lat="39.95105" lon="-4.36168">
        <ele>542.4</ele>
        <time>2020-08-16 10:41:57</time>
      </trkpt>
      <trkpt lat="39.9511" lon="-4.36188">
        <ele>542</ele>
        <time>2020-08-16 10:42:00</time>
      </trkpt>
      <trkpt lat="39.95112" lon="-4.36194">
        <ele>541.8</ele>
        <time>2020-08-16 10:42:01</time>
      </trkpt>
      <trkpt lat="39.95119" lon="-4.36215">
        <ele>541.4</ele>
        <time>2020-08-16 10:42:04</time>
      </trkpt>
      <trkpt lat="39.95126" lon="-4.36236">
        <ele>541</ele>
        <time>2020-08-16 10:42:07</time>
      </trkpt>
      <trkpt lat="39.95129" lon="-4.36243">
        <ele>540.8</ele>
        <time>2020-08-16 10:42:08</time>
      </trkpt>
      <trkpt lat="39.95131" lon="-4.3625">
        <ele>540.8</ele>
        <time>2020-08-16 10:42:09</time>
      </trkpt>
      <trkpt lat="39.95139" lon="-4.36279">
        <ele>539.8</ele>
        <time>2020-08-16 10:42:13</time>
      </trkpt>
      <trkpt lat="39.95148" lon="-4.3631">
        <ele>538.6</ele>
        <time>2020-08-16 10:42:17</time>
      </trkpt>
      <trkpt lat="39.9515" lon="-4.36318">
        <ele>538.4</ele>
        <time>2020-08-16 10:42:18</time>
      </trkpt>
      <trkpt lat="39.95158" lon="-4.36352">
        <ele>538.2</ele>
        <time>2020-08-16 10:42:22</time>
      </trkpt>
      <trkpt lat="39.95164" lon="-4.36379">
        <ele>537.4</ele>
        <time>2020-08-16 10:42:25</time>
      </trkpt>
      <trkpt lat="39.95166" lon="-4.36388">
        <ele>537.2</ele>
        <time>2020-08-16 10:42:26</time>
      </trkpt>
      <trkpt lat="39.95172" lon="-4.36414">
        <ele>536.2</ele>
        <time>2020-08-16 10:42:29</time>
      </trkpt>
      <trkpt lat="39.95178" lon="-4.36451">
        <ele>535</ele>
        <time>2020-08-16 10:42:33</time>
      </trkpt>
      <trkpt lat="39.95179" lon="-4.36469">
        <ele>534.8</ele>
        <time>2020-08-16 10:42:35</time>
      </trkpt>
      <trkpt lat="39.95182" lon="-4.36487">
        <ele>534.4</ele>
        <time>2020-08-16 10:42:37</time>
      </trkpt>
      <trkpt lat="39.95183" lon="-4.36497">
        <ele>534.2</ele>
        <time>2020-08-16 10:42:38</time>
      </trkpt>
      <trkpt lat="39.95184" lon="-4.36505">
        <ele>534</ele>
        <time>2020-08-16 10:42:39</time>
      </trkpt>
      <trkpt lat="39.95185" lon="-4.36514">
        <ele>533.8</ele>
        <time>2020-08-16 10:42:40</time>
      </trkpt>
      <trkpt lat="39.95186" lon="-4.36523">
        <ele>533.6</ele>
        <time>2020-08-16 10:42:41</time>
      </trkpt>
      <trkpt lat="39.95187" lon="-4.36532">
        <ele>533.6</ele>
        <time>2020-08-16 10:42:42</time>
      </trkpt>
      <trkpt lat="39.95188" lon="-4.36541">
        <ele>533.4</ele>
        <time>2020-08-16 10:42:43</time>
      </trkpt>
      <trkpt lat="39.95189" lon="-4.3655">
        <ele>533.2</ele>
        <time>2020-08-16 10:42:44</time>
      </trkpt>
      <trkpt lat="39.9519" lon="-4.36558">
        <ele>533.2</ele>
        <time>2020-08-16 10:42:45</time>
      </trkpt>
      <trkpt lat="39.95191" lon="-4.36567">
        <ele>533</ele>
        <time>2020-08-16 10:42:46</time>
      </trkpt>
      <trkpt lat="39.95191" lon="-4.36575">
        <ele>532.8</ele>
        <time>2020-08-16 10:42:47</time>
      </trkpt>
      <trkpt lat="39.95192" lon="-4.36583">
        <ele>532.6</ele>
        <time>2020-08-16 10:42:48</time>
      </trkpt>
      <trkpt lat="39.95193" lon="-4.36591">
        <ele>532.4</ele>
        <time>2020-08-16 10:42:49</time>
      </trkpt>
      <trkpt lat="39.95195" lon="-4.36599">
        <ele>532.2</ele>
        <time>2020-08-16 10:42:50</time>
      </trkpt>
      <trkpt lat="39.95197" lon="-4.36607">
        <ele>532</ele>
        <time>2020-08-16 10:42:51</time>
      </trkpt>
      <trkpt lat="39.95199" lon="-4.36615">
        <ele>532</ele>
        <time>2020-08-16 10:42:52</time>
      </trkpt>
      <trkpt lat="39.95202" lon="-4.36622">
        <ele>532</ele>
        <time>2020-08-16 10:42:53</time>
      </trkpt>
      <trkpt lat="39.95205" lon="-4.36628">
        <ele>531.8</ele>
        <time>2020-08-16 10:42:54</time>
      </trkpt>
      <trkpt lat="39.95207" lon="-4.36636">
        <ele>531.6</ele>
        <time>2020-08-16 10:42:55</time>
      </trkpt>
      <trkpt lat="39.95209" lon="-4.36643">
        <ele>531.4</ele>
        <time>2020-08-16 10:42:56</time>
      </trkpt>
      <trkpt lat="39.95211" lon="-4.36651">
        <ele>531.2</ele>
        <time>2020-08-16 10:42:57</time>
      </trkpt>
      <trkpt lat="39.95213" lon="-4.36659">
        <ele>530.8</ele>
        <time>2020-08-16 10:42:58</time>
      </trkpt>
      <trkpt lat="39.95215" lon="-4.36667">
        <ele>530.8</ele>
        <time>2020-08-16 10:42:59</time>
      </trkpt>
      <trkpt lat="39.95217" lon="-4.36675">
        <ele>530.4</ele>
        <time>2020-08-16 10:43:00</time>
      </trkpt>
      <trkpt lat="39.95218" lon="-4.36683">
        <ele>530.2</ele>
        <time>2020-08-16 10:43:01</time>
      </trkpt>
      <trkpt lat="39.95221" lon="-4.367">
        <ele>529.8</ele>
        <time>2020-08-16 10:43:03</time>
      </trkpt>
      <trkpt lat="39.95225" lon="-4.36735">
        <ele>528.8</ele>
        <time>2020-08-16 10:43:07</time>
      </trkpt>
      <trkpt lat="39.95225" lon="-4.36752">
        <ele>528.4</ele>
        <time>2020-08-16 10:43:09</time>
      </trkpt>
      <trkpt lat="39.95228" lon="-4.36787">
        <ele>527.8</ele>
        <time>2020-08-16 10:43:13</time>
      </trkpt>
      <trkpt lat="39.9523" lon="-4.36795">
        <ele>527.6</ele>
        <time>2020-08-16 10:43:14</time>
      </trkpt>
      <trkpt lat="39.95231" lon="-4.36804">
        <ele>527.6</ele>
        <time>2020-08-16 10:43:15</time>
      </trkpt>
      <trkpt lat="39.95239" lon="-4.36847">
        <ele>526.8</ele>
        <time>2020-08-16 10:43:20</time>
      </trkpt>
      <trkpt lat="39.9524" lon="-4.36855">
        <ele>526.8</ele>
        <time>2020-08-16 10:43:21</time>
      </trkpt>
      <trkpt lat="39.95241" lon="-4.36863">
        <ele>526.4</ele>
        <time>2020-08-16 10:43:22</time>
      </trkpt>
      <trkpt lat="39.95242" lon="-4.36871">
        <ele>526.2</ele>
        <time>2020-08-16 10:43:23</time>
      </trkpt>
      <trkpt lat="39.95243" lon="-4.36878">
        <ele>526.2</ele>
        <time>2020-08-16 10:43:24</time>
      </trkpt>
      <trkpt lat="39.95244" lon="-4.36886">
        <ele>526</ele>
        <time>2020-08-16 10:43:25</time>
      </trkpt>
      <trkpt lat="39.95245" lon="-4.36894">
        <ele>525.6</ele>
        <time>2020-08-16 10:43:26</time>
      </trkpt>
      <trkpt lat="39.95246" lon="-4.36902">
        <ele>525.4</ele>
        <time>2020-08-16 10:43:27</time>
      </trkpt>
      <trkpt lat="39.95248" lon="-4.3691">
        <ele>525.4</ele>
        <time>2020-08-16 10:43:28</time>
      </trkpt>
      <trkpt lat="39.9525" lon="-4.36918">
        <ele>525</ele>
        <time>2020-08-16 10:43:29</time>
      </trkpt>
      <trkpt lat="39.95252" lon="-4.36926">
        <ele>524.8</ele>
        <time>2020-08-16 10:43:30</time>
      </trkpt>
      <trkpt lat="39.95255" lon="-4.36934">
        <ele>524.8</ele>
        <time>2020-08-16 10:43:31</time>
      </trkpt>
      <trkpt lat="39.95257" lon="-4.36941">
        <ele>524.6</ele>
        <time>2020-08-16 10:43:32</time>
      </trkpt>
      <trkpt lat="39.95268" lon="-4.36971">
        <ele>523.8</ele>
        <time>2020-08-16 10:43:36</time>
      </trkpt>
      <trkpt lat="39.95274" lon="-4.36986">
        <ele>523.6</ele>
        <time>2020-08-16 10:43:38</time>
      </trkpt>
      <trkpt lat="39.95276" lon="-4.36993">
        <ele>523.6</ele>
        <time>2020-08-16 10:43:39</time>
      </trkpt>
      <trkpt lat="39.95279" lon="-4.36999">
        <ele>523.4</ele>
        <time>2020-08-16 10:43:40</time>
      </trkpt>
      <trkpt lat="39.95281" lon="-4.37006">
        <ele>523.4</ele>
        <time>2020-08-16 10:43:41</time>
      </trkpt>
      <trkpt lat="39.95283" lon="-4.37013">
        <ele>523.2</ele>
        <time>2020-08-16 10:43:42</time>
      </trkpt>
      <trkpt lat="39.95284" lon="-4.3702">
        <ele>523.2</ele>
        <time>2020-08-16 10:43:43</time>
      </trkpt>
      <trkpt lat="39.95285" lon="-4.37027">
        <ele>523.2</ele>
        <time>2020-08-16 10:43:44</time>
      </trkpt>
      <trkpt lat="39.95285" lon="-4.37034">
        <ele>523</ele>
        <time>2020-08-16 10:43:45</time>
      </trkpt>
      <trkpt lat="39.95285" lon="-4.37041">
        <ele>523</ele>
        <time>2020-08-16 10:43:46</time>
      </trkpt>
      <trkpt lat="39.95285" lon="-4.37048">
        <ele>523</ele>
        <time>2020-08-16 10:43:47</time>
      </trkpt>
      <trkpt lat="39.95285" lon="-4.37054">
        <ele>523</ele>
        <time>2020-08-16 10:43:48</time>
      </trkpt>
      <trkpt lat="39.95286" lon="-4.37061">
        <ele>523</ele>
        <time>2020-08-16 10:43:49</time>
      </trkpt>
      <trkpt lat="39.95287" lon="-4.37067">
        <ele>522.8</ele>
        <time>2020-08-16 10:43:50</time>
      </trkpt>
      <trkpt lat="39.95287" lon="-4.37073">
        <ele>522.8</ele>
        <time>2020-08-16 10:43:51</time>
      </trkpt>
      <trkpt lat="39.95288" lon="-4.37079">
        <ele>522.8</ele>
        <time>2020-08-16 10:43:52</time>
      </trkpt>
      <trkpt lat="39.95288" lon="-4.37085">
        <ele>523</ele>
        <time>2020-08-16 10:43:53</time>
      </trkpt>
      <trkpt lat="39.95289" lon="-4.3709">
        <ele>523</ele>
        <time>2020-08-16 10:43:54</time>
      </trkpt>
      <trkpt lat="39.9529" lon="-4.37095">
        <ele>523.2</ele>
        <time>2020-08-16 10:43:55</time>
      </trkpt>
      <trkpt lat="39.9529" lon="-4.371">
        <ele>523.2</ele>
        <time>2020-08-16 10:43:56</time>
      </trkpt>
      <trkpt lat="39.95291" lon="-4.37104">
        <ele>523.2</ele>
        <time>2020-08-16 10:43:57</time>
      </trkpt>
      <trkpt lat="39.95291" lon="-4.37108">
        <ele>523.2</ele>
        <time>2020-08-16 10:43:58</time>
      </trkpt>
      <trkpt lat="39.95291" lon="-4.3711">
        <ele>523.4</ele>
        <time>2020-08-16 10:43:59</time>
      </trkpt>
      <trkpt lat="39.95291" lon="-4.3711">
        <ele>523.4</ele>
        <time>2020-08-16 10:44:00</time>
      </trkpt>
      <trkpt lat="39.95291" lon="-4.3711">
        <ele>523.4</ele>
        <time>2020-08-16 10:44:01</time>
      </trkpt>
      <trkpt lat="39.95293" lon="-4.37114">
        <ele>523.6</ele>
        <time>2020-08-16 10:44:42</time>
      </trkpt>
      <trkpt lat="39.95293" lon="-4.37117">
        <ele>523.6</ele>
        <time>2020-08-16 10:44:43</time>
      </trkpt>
      <trkpt lat="39.95293" lon="-4.3712">
        <ele>523.6</ele>
        <time>2020-08-16 10:44:44</time>
      </trkpt>
      <trkpt lat="39.95293" lon="-4.37122">
        <ele>523.6</ele>
        <time>2020-08-16 10:44:45</time>
      </trkpt>
      <trkpt lat="39.95294" lon="-4.37124">
        <ele>523.6</ele>
        <time>2020-08-16 10:44:46</time>
      </trkpt>
      <trkpt lat="39.95294" lon="-4.37127">
        <ele>523.6</ele>
        <time>2020-08-16 10:44:47</time>
      </trkpt>
      <trkpt lat="39.95295" lon="-4.37141">
        <ele>523.6</ele>
        <time>2020-08-16 10:44:51</time>
      </trkpt>
      <trkpt lat="39.95297" lon="-4.37149">
        <ele>523.6</ele>
        <time>2020-08-16 10:44:53</time>
      </trkpt>
      <trkpt lat="39.95298" lon="-4.37157">
        <ele>523.6</ele>
        <time>2020-08-16 10:44:55</time>
      </trkpt>
      <trkpt lat="39.95298" lon="-4.37162">
        <ele>523.6</ele>
        <time>2020-08-16 10:44:56</time>
      </trkpt>
      <trkpt lat="39.95299" lon="-4.37167">
        <ele>523.8</ele>
        <time>2020-08-16 10:44:57</time>
      </trkpt>
      <trkpt lat="39.953" lon="-4.37172">
        <ele>523.8</ele>
        <time>2020-08-16 10:44:58</time>
      </trkpt>
      <trkpt lat="39.95302" lon="-4.37181">
        <ele>524</ele>
        <time>2020-08-16 10:45:00</time>
      </trkpt>
      <trkpt lat="39.95305" lon="-4.37196">
        <ele>524.2</ele>
        <time>2020-08-16 10:45:03</time>
      </trkpt>
      <trkpt lat="39.95308" lon="-4.37206">
        <ele>524.6</ele>
        <time>2020-08-16 10:45:05</time>
      </trkpt>
      <trkpt lat="39.9531" lon="-4.3721">
        <ele>524.8</ele>
        <time>2020-08-16 10:45:06</time>
      </trkpt>
      <trkpt lat="39.95311" lon="-4.37215">
        <ele>525</ele>
        <time>2020-08-16 10:45:07</time>
      </trkpt>
      <trkpt lat="39.95313" lon="-4.3722">
        <ele>525.2</ele>
        <time>2020-08-16 10:45:08</time>
      </trkpt>
      <trkpt lat="39.95315" lon="-4.37225">
        <ele>525.2</ele>
        <time>2020-08-16 10:45:09</time>
      </trkpt>
      <trkpt lat="39.95316" lon="-4.37229">
        <ele>525.2</ele>
        <time>2020-08-16 10:45:10</time>
      </trkpt>
      <trkpt lat="39.95318" lon="-4.37234">
        <ele>525.4</ele>
        <time>2020-08-16 10:45:11</time>
      </trkpt>
      <trkpt lat="39.9532" lon="-4.37239">
        <ele>525.4</ele>
        <time>2020-08-16 10:45:12</time>
      </trkpt>
      <trkpt lat="39.95321" lon="-4.37243">
        <ele>525.4</ele>
        <time>2020-08-16 10:45:13</time>
      </trkpt>
      <trkpt lat="39.95325" lon="-4.37252">
        <ele>525.6</ele>
        <time>2020-08-16 10:45:15</time>
      </trkpt>
      <trkpt lat="39.95327" lon="-4.37257">
        <ele>525.6</ele>
        <time>2020-08-16 10:45:16</time>
      </trkpt>
      <trkpt lat="39.9533" lon="-4.37266">
        <ele>525.8</ele>
        <time>2020-08-16 10:45:18</time>
      </trkpt>
      <trkpt lat="39.95332" lon="-4.37271">
        <ele>525.8</ele>
        <time>2020-08-16 10:45:19</time>
      </trkpt>
      <trkpt lat="39.95334" lon="-4.37275">
        <ele>526</ele>
        <time>2020-08-16 10:45:20</time>
      </trkpt>
      <trkpt lat="39.95335" lon="-4.3728">
        <ele>526.2</ele>
        <time>2020-08-16 10:45:21</time>
      </trkpt>
      <trkpt lat="39.95338" lon="-4.37285">
        <ele>526.4</ele>
        <time>2020-08-16 10:45:22</time>
      </trkpt>
      <trkpt lat="39.9534" lon="-4.37289">
        <ele>526.6</ele>
        <time>2020-08-16 10:45:23</time>
      </trkpt>
      <trkpt lat="39.95341" lon="-4.37294">
        <ele>526.6</ele>
        <time>2020-08-16 10:45:24</time>
      </trkpt>
      <trkpt lat="39.95344" lon="-4.37299">
        <ele>526.8</ele>
        <time>2020-08-16 10:45:25</time>
      </trkpt>
      <trkpt lat="39.95346" lon="-4.37304">
        <ele>526.8</ele>
        <time>2020-08-16 10:45:26</time>
      </trkpt>
      <trkpt lat="39.95348" lon="-4.37308">
        <ele>527</ele>
        <time>2020-08-16 10:45:27</time>
      </trkpt>
      <trkpt lat="39.9535" lon="-4.37313">
        <ele>527</ele>
        <time>2020-08-16 10:45:28</time>
      </trkpt>
      <trkpt lat="39.95352" lon="-4.37318">
        <ele>527.2</ele>
        <time>2020-08-16 10:45:29</time>
      </trkpt>
      <trkpt lat="39.95354" lon="-4.37323">
        <ele>527.2</ele>
        <time>2020-08-16 10:45:30</time>
      </trkpt>
      <trkpt lat="39.95356" lon="-4.37328">
        <ele>527.4</ele>
        <time>2020-08-16 10:45:31</time>
      </trkpt>
      <trkpt lat="39.95358" lon="-4.37333">
        <ele>527.4</ele>
        <time>2020-08-16 10:45:32</time>
      </trkpt>
      <trkpt lat="39.9536" lon="-4.37337">
        <ele>527.4</ele>
        <time>2020-08-16 10:45:33</time>
      </trkpt>
      <trkpt lat="39.95362" lon="-4.37342">
        <ele>527.6</ele>
        <time>2020-08-16 10:45:34</time>
      </trkpt>
      <trkpt lat="39.95364" lon="-4.37346">
        <ele>527.8</ele>
        <time>2020-08-16 10:45:35</time>
      </trkpt>
      <trkpt lat="39.95366" lon="-4.37351">
        <ele>528</ele>
        <time>2020-08-16 10:45:36</time>
      </trkpt>
      <trkpt lat="39.95368" lon="-4.37356">
        <ele>528.2</ele>
        <time>2020-08-16 10:45:37</time>
      </trkpt>
      <trkpt lat="39.95371" lon="-4.3736">
        <ele>528.4</ele>
        <time>2020-08-16 10:45:38</time>
      </trkpt>
      <trkpt lat="39.95373" lon="-4.37365">
        <ele>528.6</ele>
        <time>2020-08-16 10:45:39</time>
      </trkpt>
      <trkpt lat="39.95375" lon="-4.3737">
        <ele>528.6</ele>
        <time>2020-08-16 10:45:40</time>
      </trkpt>
      <trkpt lat="39.95377" lon="-4.37375">
        <ele>528.8</ele>
        <time>2020-08-16 10:45:41</time>
      </trkpt>
      <trkpt lat="39.95378" lon="-4.37381">
        <ele>529</ele>
        <time>2020-08-16 10:45:42</time>
      </trkpt>
      <trkpt lat="39.9538" lon="-4.37386">
        <ele>529</ele>
        <time>2020-08-16 10:45:43</time>
      </trkpt>
      <trkpt lat="39.95381" lon="-4.37391">
        <ele>529.2</ele>
        <time>2020-08-16 10:45:44</time>
      </trkpt>
      <trkpt lat="39.95383" lon="-4.37397">
        <ele>529.4</ele>
        <time>2020-08-16 10:45:45</time>
      </trkpt>
      <trkpt lat="39.95384" lon="-4.37402">
        <ele>529.6</ele>
        <time>2020-08-16 10:45:46</time>
      </trkpt>
      <trkpt lat="39.95385" lon="-4.37407">
        <ele>529.6</ele>
        <time>2020-08-16 10:45:47</time>
      </trkpt>
      <trkpt lat="39.95385" lon="-4.37413">
        <ele>529.8</ele>
        <time>2020-08-16 10:45:48</time>
      </trkpt>
      <trkpt lat="39.95386" lon="-4.37418">
        <ele>529.8</ele>
        <time>2020-08-16 10:45:49</time>
      </trkpt>
      <trkpt lat="39.95386" lon="-4.37423">
        <ele>530</ele>
        <time>2020-08-16 10:45:50</time>
      </trkpt>
      <trkpt lat="39.95387" lon="-4.37429">
        <ele>530</ele>
        <time>2020-08-16 10:45:51</time>
      </trkpt>
      <trkpt lat="39.95387" lon="-4.37434">
        <ele>530.2</ele>
        <time>2020-08-16 10:45:52</time>
      </trkpt>
      <trkpt lat="39.95387" lon="-4.37439">
        <ele>530.2</ele>
        <time>2020-08-16 10:45:53</time>
      </trkpt>
      <trkpt lat="39.95387" lon="-4.37445">
        <ele>530.4</ele>
        <time>2020-08-16 10:45:54</time>
      </trkpt>
      <trkpt lat="39.95387" lon="-4.3745">
        <ele>530.6</ele>
        <time>2020-08-16 10:45:55</time>
      </trkpt>
      <trkpt lat="39.95387" lon="-4.37456">
        <ele>531</ele>
        <time>2020-08-16 10:45:56</time>
      </trkpt>
      <trkpt lat="39.95387" lon="-4.37461">
        <ele>531</ele>
        <time>2020-08-16 10:45:57</time>
      </trkpt>
      <trkpt lat="39.95386" lon="-4.37466">
        <ele>531.2</ele>
        <time>2020-08-16 10:45:58</time>
      </trkpt>
      <trkpt lat="39.95386" lon="-4.37471">
        <ele>531.2</ele>
        <time>2020-08-16 10:45:59</time>
      </trkpt>
      <trkpt lat="39.95385" lon="-4.37476">
        <ele>531.4</ele>
        <time>2020-08-16 10:46:00</time>
      </trkpt>
      <trkpt lat="39.95385" lon="-4.3748">
        <ele>531.4</ele>
        <time>2020-08-16 10:46:01</time>
      </trkpt>
      <trkpt lat="39.95384" lon="-4.37485">
        <ele>531.4</ele>
        <time>2020-08-16 10:46:02</time>
      </trkpt>
      <trkpt lat="39.95383" lon="-4.37489">
        <ele>531.4</ele>
        <time>2020-08-16 10:46:03</time>
      </trkpt>
      <trkpt lat="39.95382" lon="-4.37493">
        <ele>531.4</ele>
        <time>2020-08-16 10:46:04</time>
      </trkpt>
      <trkpt lat="39.95381" lon="-4.37498">
        <ele>531.4</ele>
        <time>2020-08-16 10:46:05</time>
      </trkpt>
      <trkpt lat="39.9538" lon="-4.37502">
        <ele>531.4</ele>
        <time>2020-08-16 10:46:06</time>
      </trkpt>
      <trkpt lat="39.95378" lon="-4.37507">
        <ele>531.4</ele>
        <time>2020-08-16 10:46:07</time>
      </trkpt>
      <trkpt lat="39.95377" lon="-4.37512">
        <ele>531.4</ele>
        <time>2020-08-16 10:46:08</time>
      </trkpt>
      <trkpt lat="39.95376" lon="-4.37517">
        <ele>531.4</ele>
        <time>2020-08-16 10:46:09</time>
      </trkpt>
      <trkpt lat="39.95373" lon="-4.37533">
        <ele>531.4</ele>
        <time>2020-08-16 10:46:12</time>
      </trkpt>
      <trkpt lat="39.9537" lon="-4.37549">
        <ele>531.2</ele>
        <time>2020-08-16 10:46:15</time>
      </trkpt>
      <trkpt lat="39.95369" lon="-4.37555">
        <ele>531.2</ele>
        <time>2020-08-16 10:46:16</time>
      </trkpt>
      <trkpt lat="39.95362" lon="-4.37587">
        <ele>530.8</ele>
        <time>2020-08-16 10:46:22</time>
      </trkpt>
      <trkpt lat="39.95359" lon="-4.37597">
        <ele>530.6</ele>
        <time>2020-08-16 10:46:24</time>
      </trkpt>
      <trkpt lat="39.95356" lon="-4.37614">
        <ele>530.6</ele>
        <time>2020-08-16 10:46:27</time>
      </trkpt>
      <trkpt lat="39.95354" lon="-4.37625">
        <ele>530.4</ele>
        <time>2020-08-16 10:46:29</time>
      </trkpt>
      <trkpt lat="39.9535" lon="-4.37641">
        <ele>530.6</ele>
        <time>2020-08-16 10:46:32</time>
      </trkpt>
      <trkpt lat="39.95349" lon="-4.37646">
        <ele>530.6</ele>
        <time>2020-08-16 10:46:33</time>
      </trkpt>
      <trkpt lat="39.95347" lon="-4.37651">
        <ele>530.6</ele>
        <time>2020-08-16 10:46:34</time>
      </trkpt>
      <trkpt lat="39.95346" lon="-4.37656">
        <ele>530.6</ele>
        <time>2020-08-16 10:46:35</time>
      </trkpt>
      <trkpt lat="39.95345" lon="-4.37662">
        <ele>530.6</ele>
        <time>2020-08-16 10:46:36</time>
      </trkpt>
      <trkpt lat="39.95344" lon="-4.37667">
        <ele>530.6</ele>
        <time>2020-08-16 10:46:37</time>
      </trkpt>
      <trkpt lat="39.95342" lon="-4.37672">
        <ele>530.8</ele>
        <time>2020-08-16 10:46:38</time>
      </trkpt>
      <trkpt lat="39.95341" lon="-4.37677">
        <ele>530.8</ele>
        <time>2020-08-16 10:46:39</time>
      </trkpt>
      <trkpt lat="39.9534" lon="-4.37681">
        <ele>530.8</ele>
        <time>2020-08-16 10:46:40</time>
      </trkpt>
      <trkpt lat="39.95339" lon="-4.37686">
        <ele>530.8</ele>
        <time>2020-08-16 10:46:41</time>
      </trkpt>
      <trkpt lat="39.95339" lon="-4.37691">
        <ele>530.8</ele>
        <time>2020-08-16 10:46:42</time>
      </trkpt>
      <trkpt lat="39.95338" lon="-4.37695">
        <ele>530.8</ele>
        <time>2020-08-16 10:46:43</time>
      </trkpt>
      <trkpt lat="39.95336" lon="-4.37704">
        <ele>531</ele>
        <time>2020-08-16 10:46:45</time>
      </trkpt>
      <trkpt lat="39.95336" lon="-4.37709">
        <ele>531</ele>
        <time>2020-08-16 10:46:46</time>
      </trkpt>
      <trkpt lat="39.95335" lon="-4.37713">
        <ele>531</ele>
        <time>2020-08-16 10:46:47</time>
      </trkpt>
      <trkpt lat="39.95334" lon="-4.37718">
        <ele>531</ele>
        <time>2020-08-16 10:46:48</time>
      </trkpt>
      <trkpt lat="39.95333" lon="-4.37722">
        <ele>531</ele>
        <time>2020-08-16 10:46:49</time>
      </trkpt>
      <trkpt lat="39.95332" lon="-4.37727">
        <ele>531</ele>
        <time>2020-08-16 10:46:50</time>
      </trkpt>
      <trkpt lat="39.9533" lon="-4.37731">
        <ele>531.2</ele>
        <time>2020-08-16 10:46:51</time>
      </trkpt>
      <trkpt lat="39.95329" lon="-4.37735">
        <ele>531.2</ele>
        <time>2020-08-16 10:46:52</time>
      </trkpt>
      <trkpt lat="39.95327" lon="-4.37739">
        <ele>531.2</ele>
        <time>2020-08-16 10:46:53</time>
      </trkpt>
      <trkpt lat="39.95326" lon="-4.37744">
        <ele>531.2</ele>
        <time>2020-08-16 10:46:54</time>
      </trkpt>
      <trkpt lat="39.95325" lon="-4.37748">
        <ele>531.4</ele>
        <time>2020-08-16 10:46:55</time>
      </trkpt>
      <trkpt lat="39.95324" lon="-4.37752">
        <ele>531.4</ele>
        <time>2020-08-16 10:46:56</time>
      </trkpt>
      <trkpt lat="39.95322" lon="-4.37757">
        <ele>531.6</ele>
        <time>2020-08-16 10:46:57</time>
      </trkpt>
      <trkpt lat="39.95317" lon="-4.37774">
        <ele>531.8</ele>
        <time>2020-08-16 10:47:01</time>
      </trkpt>
      <trkpt lat="39.95314" lon="-4.37782">
        <ele>531.8</ele>
        <time>2020-08-16 10:47:03</time>
      </trkpt>
      <trkpt lat="39.95313" lon="-4.37787">
        <ele>531.8</ele>
        <time>2020-08-16 10:47:04</time>
      </trkpt>
      <trkpt lat="39.95312" lon="-4.37791">
        <ele>531.8</ele>
        <time>2020-08-16 10:47:05</time>
      </trkpt>
      <trkpt lat="39.9531" lon="-4.37795">
        <ele>532</ele>
        <time>2020-08-16 10:47:06</time>
      </trkpt>
      <trkpt lat="39.95308" lon="-4.378">
        <ele>532</ele>
        <time>2020-08-16 10:47:07</time>
      </trkpt>
      <trkpt lat="39.95307" lon="-4.37805">
        <ele>532.2</ele>
        <time>2020-08-16 10:47:08</time>
      </trkpt>
      <trkpt lat="39.95303" lon="-4.37819">
        <ele>532.6</ele>
        <time>2020-08-16 10:47:11</time>
      </trkpt>
      <trkpt lat="39.95302" lon="-4.37823">
        <ele>532.6</ele>
        <time>2020-08-16 10:47:12</time>
      </trkpt>
      <trkpt lat="39.95302" lon="-4.37827">
        <ele>532.6</ele>
        <time>2020-08-16 10:47:13</time>
      </trkpt>
      <trkpt lat="39.95301" lon="-4.37832">
        <ele>532.6</ele>
        <time>2020-08-16 10:47:14</time>
      </trkpt>
      <trkpt lat="39.95298" lon="-4.37846">
        <ele>533</ele>
        <time>2020-08-16 10:47:17</time>
      </trkpt>
      <trkpt lat="39.95297" lon="-4.3785">
        <ele>533</ele>
        <time>2020-08-16 10:47:18</time>
      </trkpt>
      <trkpt lat="39.95296" lon="-4.37854">
        <ele>533</ele>
        <time>2020-08-16 10:47:19</time>
      </trkpt>
      <trkpt lat="39.95295" lon="-4.37859">
        <ele>533</ele>
        <time>2020-08-16 10:47:20</time>
      </trkpt>
      <trkpt lat="39.95292" lon="-4.37882">
        <ele>533.2</ele>
        <time>2020-08-16 10:47:25</time>
      </trkpt>
      <trkpt lat="39.9529" lon="-4.37901">
        <ele>533.6</ele>
        <time>2020-08-16 10:47:29</time>
      </trkpt>
      <trkpt lat="39.95291" lon="-4.3791">
        <ele>533.8</ele>
        <time>2020-08-16 10:47:31</time>
      </trkpt>
      <trkpt lat="39.95291" lon="-4.37914">
        <ele>533.8</ele>
        <time>2020-08-16 10:47:32</time>
      </trkpt>
      <trkpt lat="39.95291" lon="-4.37919">
        <ele>533.8</ele>
        <time>2020-08-16 10:47:33</time>
      </trkpt>
      <trkpt lat="39.95291" lon="-4.37923">
        <ele>534</ele>
        <time>2020-08-16 10:47:34</time>
      </trkpt>
      <trkpt lat="39.95291" lon="-4.37927">
        <ele>534.2</ele>
        <time>2020-08-16 10:47:35</time>
      </trkpt>
      <trkpt lat="39.95291" lon="-4.37932">
        <ele>534.2</ele>
        <time>2020-08-16 10:47:36</time>
      </trkpt>
      <trkpt lat="39.9529" lon="-4.37936">
        <ele>534.4</ele>
        <time>2020-08-16 10:47:37</time>
      </trkpt>
      <trkpt lat="39.9529" lon="-4.37941">
        <ele>534.4</ele>
        <time>2020-08-16 10:47:38</time>
      </trkpt>
      <trkpt lat="39.9529" lon="-4.37946">
        <ele>534.6</ele>
        <time>2020-08-16 10:47:39</time>
      </trkpt>
      <trkpt lat="39.9529" lon="-4.3795">
        <ele>534.6</ele>
        <time>2020-08-16 10:47:40</time>
      </trkpt>
      <trkpt lat="39.9529" lon="-4.37955">
        <ele>534.6</ele>
        <time>2020-08-16 10:47:41</time>
      </trkpt>
      <trkpt lat="39.9529" lon="-4.37959">
        <ele>534.6</ele>
        <time>2020-08-16 10:47:42</time>
      </trkpt>
      <trkpt lat="39.9529" lon="-4.37964">
        <ele>534.8</ele>
        <time>2020-08-16 10:47:43</time>
      </trkpt>
      <trkpt lat="39.9529" lon="-4.37973">
        <ele>535</ele>
        <time>2020-08-16 10:47:45</time>
      </trkpt>
      <trkpt lat="39.95289" lon="-4.37986">
        <ele>535.4</ele>
        <time>2020-08-16 10:47:48</time>
      </trkpt>
      <trkpt lat="39.95289" lon="-4.37991">
        <ele>535.6</ele>
        <time>2020-08-16 10:47:49</time>
      </trkpt>
      <trkpt lat="39.95288" lon="-4.37995">
        <ele>535.6</ele>
        <time>2020-08-16 10:47:50</time>
      </trkpt>
      <trkpt lat="39.95288" lon="-4.37999">
        <ele>535.8</ele>
        <time>2020-08-16 10:47:51</time>
      </trkpt>
      <trkpt lat="39.95288" lon="-4.38004">
        <ele>535.8</ele>
        <time>2020-08-16 10:47:52</time>
      </trkpt>
      <trkpt lat="39.95288" lon="-4.38008">
        <ele>535.8</ele>
        <time>2020-08-16 10:47:53</time>
      </trkpt>
      <trkpt lat="39.95288" lon="-4.38013">
        <ele>535.8</ele>
        <time>2020-08-16 10:47:54</time>
      </trkpt>
      <trkpt lat="39.95288" lon="-4.38017">
        <ele>536</ele>
        <time>2020-08-16 10:47:55</time>
      </trkpt>
      <trkpt lat="39.95287" lon="-4.38022">
        <ele>536</ele>
        <time>2020-08-16 10:47:56</time>
      </trkpt>
      <trkpt lat="39.95287" lon="-4.38027">
        <ele>536</ele>
        <time>2020-08-16 10:47:57</time>
      </trkpt>
      <trkpt lat="39.95287" lon="-4.38031">
        <ele>536.2</ele>
        <time>2020-08-16 10:47:58</time>
      </trkpt>
      <trkpt lat="39.95287" lon="-4.38036">
        <ele>536.4</ele>
        <time>2020-08-16 10:47:59</time>
      </trkpt>
      <trkpt lat="39.95287" lon="-4.38045">
        <ele>536.4</ele>
        <time>2020-08-16 10:48:01</time>
      </trkpt>
      <trkpt lat="39.95287" lon="-4.38059">
        <ele>537.2</ele>
        <time>2020-08-16 10:48:04</time>
      </trkpt>
      <trkpt lat="39.95287" lon="-4.38063">
        <ele>537.2</ele>
        <time>2020-08-16 10:48:05</time>
      </trkpt>
      <trkpt lat="39.95286" lon="-4.38067">
        <ele>537.4</ele>
        <time>2020-08-16 10:48:06</time>
      </trkpt>
      <trkpt lat="39.95286" lon="-4.38071">
        <ele>537.4</ele>
        <time>2020-08-16 10:48:07</time>
      </trkpt>
      <trkpt lat="39.95286" lon="-4.38076">
        <ele>537.6</ele>
        <time>2020-08-16 10:48:08</time>
      </trkpt>
      <trkpt lat="39.95286" lon="-4.3808">
        <ele>537.6</ele>
        <time>2020-08-16 10:48:09</time>
      </trkpt>
      <trkpt lat="39.95286" lon="-4.38084">
        <ele>537.8</ele>
        <time>2020-08-16 10:48:10</time>
      </trkpt>
      <trkpt lat="39.95286" lon="-4.38088">
        <ele>537.8</ele>
        <time>2020-08-16 10:48:11</time>
      </trkpt>
      <trkpt lat="39.95286" lon="-4.38092">
        <ele>538</ele>
        <time>2020-08-16 10:48:12</time>
      </trkpt>
      <trkpt lat="39.95286" lon="-4.38097">
        <ele>538</ele>
        <time>2020-08-16 10:48:13</time>
      </trkpt>
      <trkpt lat="39.95286" lon="-4.38101">
        <ele>538</ele>
        <time>2020-08-16 10:48:14</time>
      </trkpt>
      <trkpt lat="39.95287" lon="-4.38106">
        <ele>538</ele>
        <time>2020-08-16 10:48:15</time>
      </trkpt>
      <trkpt lat="39.95287" lon="-4.3811">
        <ele>538</ele>
        <time>2020-08-16 10:48:16</time>
      </trkpt>
      <trkpt lat="39.95287" lon="-4.38115">
        <ele>538</ele>
        <time>2020-08-16 10:48:17</time>
      </trkpt>
      <trkpt lat="39.95288" lon="-4.38119">
        <ele>538.2</ele>
        <time>2020-08-16 10:48:18</time>
      </trkpt>
      <trkpt lat="39.95288" lon="-4.38123">
        <ele>538.2</ele>
        <time>2020-08-16 10:48:19</time>
      </trkpt>
      <trkpt lat="39.95292" lon="-4.38154">
        <ele>539</ele>
        <time>2020-08-16 10:48:26</time>
      </trkpt>
      <trkpt lat="39.95293" lon="-4.38159">
        <ele>539.2</ele>
        <time>2020-08-16 10:48:27</time>
      </trkpt>
      <trkpt lat="39.95293" lon="-4.38163">
        <ele>539.2</ele>
        <time>2020-08-16 10:48:28</time>
      </trkpt>
      <trkpt lat="39.95295" lon="-4.38172">
        <ele>539.2</ele>
        <time>2020-08-16 10:48:30</time>
      </trkpt>
      <trkpt lat="39.95295" lon="-4.38177">
        <ele>539.2</ele>
        <time>2020-08-16 10:48:31</time>
      </trkpt>
      <trkpt lat="39.95296" lon="-4.38181">
        <ele>539.2</ele>
        <time>2020-08-16 10:48:32</time>
      </trkpt>
      <trkpt lat="39.95298" lon="-4.38185">
        <ele>539.2</ele>
        <time>2020-08-16 10:48:33</time>
      </trkpt>
      <trkpt lat="39.95301" lon="-4.38198">
        <ele>539.4</ele>
        <time>2020-08-16 10:48:36</time>
      </trkpt>
      <trkpt lat="39.95307" lon="-4.3822">
        <ele>539.8</ele>
        <time>2020-08-16 10:48:41</time>
      </trkpt>
      <trkpt lat="39.95308" lon="-4.38224">
        <ele>539.8</ele>
        <time>2020-08-16 10:48:42</time>
      </trkpt>
      <trkpt lat="39.9531" lon="-4.38228">
        <ele>539.8</ele>
        <time>2020-08-16 10:48:43</time>
      </trkpt>
      <trkpt lat="39.95311" lon="-4.38232">
        <ele>540</ele>
        <time>2020-08-16 10:48:44</time>
      </trkpt>
      <trkpt lat="39.95312" lon="-4.38237">
        <ele>540</ele>
        <time>2020-08-16 10:48:45</time>
      </trkpt>
      <trkpt lat="39.95314" lon="-4.38241">
        <ele>540.2</ele>
        <time>2020-08-16 10:48:46</time>
      </trkpt>
      <trkpt lat="39.95315" lon="-4.38245">
        <ele>540.2</ele>
        <time>2020-08-16 10:48:47</time>
      </trkpt>
      <trkpt lat="39.95316" lon="-4.38249">
        <ele>540.2</ele>
        <time>2020-08-16 10:48:48</time>
      </trkpt>
      <trkpt lat="39.9532" lon="-4.38263">
        <ele>540.4</ele>
        <time>2020-08-16 10:48:51</time>
      </trkpt>
      <trkpt lat="39.95322" lon="-4.38266">
        <ele>540.4</ele>
        <time>2020-08-16 10:48:52</time>
      </trkpt>
      <trkpt lat="39.95325" lon="-4.38274">
        <ele>540.4</ele>
        <time>2020-08-16 10:48:54</time>
      </trkpt>
      <trkpt lat="39.95329" lon="-4.38287">
        <ele>540.4</ele>
        <time>2020-08-16 10:48:57</time>
      </trkpt>
      <trkpt lat="39.95335" lon="-4.38305">
        <ele>540.8</ele>
        <time>2020-08-16 10:49:01</time>
      </trkpt>
      <trkpt lat="39.95336" lon="-4.38309">
        <ele>541</ele>
        <time>2020-08-16 10:49:02</time>
      </trkpt>
      <trkpt lat="39.95337" lon="-4.38313">
        <ele>541</ele>
        <time>2020-08-16 10:49:03</time>
      </trkpt>
      <trkpt lat="39.95338" lon="-4.38318">
        <ele>541.2</ele>
        <time>2020-08-16 10:49:04</time>
      </trkpt>
      <trkpt lat="39.9534" lon="-4.38322">
        <ele>541.2</ele>
        <time>2020-08-16 10:49:05</time>
      </trkpt>
      <trkpt lat="39.95343" lon="-4.38335">
        <ele>541.4</ele>
        <time>2020-08-16 10:49:08</time>
      </trkpt>
      <trkpt lat="39.95345" lon="-4.38339">
        <ele>541.6</ele>
        <time>2020-08-16 10:49:09</time>
      </trkpt>
      <trkpt lat="39.95346" lon="-4.38343">
        <ele>541.8</ele>
        <time>2020-08-16 10:49:10</time>
      </trkpt>
      <trkpt lat="39.95347" lon="-4.38348">
        <ele>541.8</ele>
        <time>2020-08-16 10:49:11</time>
      </trkpt>
      <trkpt lat="39.95348" lon="-4.38352">
        <ele>542</ele>
        <time>2020-08-16 10:49:12</time>
      </trkpt>
      <trkpt lat="39.9535" lon="-4.38356">
        <ele>542.2</ele>
        <time>2020-08-16 10:49:13</time>
      </trkpt>
      <trkpt lat="39.9535" lon="-4.3836">
        <ele>542.2</ele>
        <time>2020-08-16 10:49:14</time>
      </trkpt>
      <trkpt lat="39.95351" lon="-4.38365">
        <ele>542.4</ele>
        <time>2020-08-16 10:49:15</time>
      </trkpt>
      <trkpt lat="39.95353" lon="-4.38369">
        <ele>542.4</ele>
        <time>2020-08-16 10:49:16</time>
      </trkpt>
      <trkpt lat="39.95354" lon="-4.38373">
        <ele>542.6</ele>
        <time>2020-08-16 10:49:17</time>
      </trkpt>
      <trkpt lat="39.95355" lon="-4.38378">
        <ele>542.6</ele>
        <time>2020-08-16 10:49:18</time>
      </trkpt>
      <trkpt lat="39.95356" lon="-4.38382">
        <ele>542.6</ele>
        <time>2020-08-16 10:49:19</time>
      </trkpt>
      <trkpt lat="39.95357" lon="-4.38387">
        <ele>542.6</ele>
        <time>2020-08-16 10:49:20</time>
      </trkpt>
      <trkpt lat="39.95358" lon="-4.38391">
        <ele>542.6</ele>
        <time>2020-08-16 10:49:21</time>
      </trkpt>
      <trkpt lat="39.95359" lon="-4.38395">
        <ele>542.8</ele>
        <time>2020-08-16 10:49:22</time>
      </trkpt>
      <trkpt lat="39.9536" lon="-4.38399">
        <ele>542.8</ele>
        <time>2020-08-16 10:49:23</time>
      </trkpt>
      <trkpt lat="39.95361" lon="-4.38403">
        <ele>542.8</ele>
        <time>2020-08-16 10:49:24</time>
      </trkpt>
      <trkpt lat="39.95362" lon="-4.38407">
        <ele>542.8</ele>
        <time>2020-08-16 10:49:25</time>
      </trkpt>
      <trkpt lat="39.95364" lon="-4.38411">
        <ele>542.8</ele>
        <time>2020-08-16 10:49:26</time>
      </trkpt>
      <trkpt lat="39.95364" lon="-4.38416">
        <ele>542.8</ele>
        <time>2020-08-16 10:49:27</time>
      </trkpt>
      <trkpt lat="39.95365" lon="-4.3842">
        <ele>542.8</ele>
        <time>2020-08-16 10:49:28</time>
      </trkpt>
      <trkpt lat="39.95366" lon="-4.38425">
        <ele>542.8</ele>
        <time>2020-08-16 10:49:29</time>
      </trkpt>
      <trkpt lat="39.95367" lon="-4.38429">
        <ele>542.8</ele>
        <time>2020-08-16 10:49:30</time>
      </trkpt>
      <trkpt lat="39.9537" lon="-4.38442">
        <ele>543</ele>
        <time>2020-08-16 10:49:33</time>
      </trkpt>
      <trkpt lat="39.95374" lon="-4.3846">
        <ele>543.2</ele>
        <time>2020-08-16 10:49:37</time>
      </trkpt>
      <trkpt lat="39.95377" lon="-4.38473">
        <ele>543.4</ele>
        <time>2020-08-16 10:49:40</time>
      </trkpt>
      <trkpt lat="39.95381" lon="-4.38491">
        <ele>543.4</ele>
        <time>2020-08-16 10:49:44</time>
      </trkpt>
      <trkpt lat="39.95383" lon="-4.385">
        <ele>543.6</ele>
        <time>2020-08-16 10:49:46</time>
      </trkpt>
      <trkpt lat="39.95388" lon="-4.38517">
        <ele>544.2</ele>
        <time>2020-08-16 10:49:50</time>
      </trkpt>
      <trkpt lat="39.95389" lon="-4.38522">
        <ele>544.2</ele>
        <time>2020-08-16 10:49:51</time>
      </trkpt>
      <trkpt lat="39.9539" lon="-4.38526">
        <ele>544.4</ele>
        <time>2020-08-16 10:49:52</time>
      </trkpt>
      <trkpt lat="39.95391" lon="-4.38531">
        <ele>544.4</ele>
        <time>2020-08-16 10:49:53</time>
      </trkpt>
      <trkpt lat="39.95392" lon="-4.38536">
        <ele>544.6</ele>
        <time>2020-08-16 10:49:54</time>
      </trkpt>
      <trkpt lat="39.95394" lon="-4.38541">
        <ele>544.6</ele>
        <time>2020-08-16 10:49:55</time>
      </trkpt>
      <trkpt lat="39.95395" lon="-4.38545">
        <ele>544.6</ele>
        <time>2020-08-16 10:49:56</time>
      </trkpt>
      <trkpt lat="39.954" lon="-4.38567">
        <ele>545</ele>
        <time>2020-08-16 10:50:01</time>
      </trkpt>
      <trkpt lat="39.95401" lon="-4.38572">
        <ele>545.2</ele>
        <time>2020-08-16 10:50:02</time>
      </trkpt>
      <trkpt lat="39.95402" lon="-4.38576">
        <ele>545.2</ele>
        <time>2020-08-16 10:50:03</time>
      </trkpt>
      <trkpt lat="39.95403" lon="-4.38581">
        <ele>545.4</ele>
        <time>2020-08-16 10:50:04</time>
      </trkpt>
      <trkpt lat="39.95404" lon="-4.38585">
        <ele>545.4</ele>
        <time>2020-08-16 10:50:05</time>
      </trkpt>
      <trkpt lat="39.95405" lon="-4.3859">
        <ele>545.4</ele>
        <time>2020-08-16 10:50:06</time>
      </trkpt>
      <trkpt lat="39.95406" lon="-4.38594">
        <ele>545.4</ele>
        <time>2020-08-16 10:50:07</time>
      </trkpt>
      <trkpt lat="39.95407" lon="-4.38599">
        <ele>545.4</ele>
        <time>2020-08-16 10:50:08</time>
      </trkpt>
      <trkpt lat="39.9541" lon="-4.38613">
        <ele>545.6</ele>
        <time>2020-08-16 10:50:11</time>
      </trkpt>
      <trkpt lat="39.95411" lon="-4.38618">
        <ele>545.6</ele>
        <time>2020-08-16 10:50:12</time>
      </trkpt>
      <trkpt lat="39.9542" lon="-4.38651">
        <ele>546</ele>
        <time>2020-08-16 10:50:19</time>
      </trkpt>
      <trkpt lat="39.95426" lon="-4.38674">
        <ele>546.8</ele>
        <time>2020-08-16 10:50:24</time>
      </trkpt>
      <trkpt lat="39.95427" lon="-4.38679">
        <ele>546.8</ele>
        <time>2020-08-16 10:50:25</time>
      </trkpt>
      <trkpt lat="39.95428" lon="-4.38683">
        <ele>547</ele>
        <time>2020-08-16 10:50:26</time>
      </trkpt>
      <trkpt lat="39.9543" lon="-4.38688">
        <ele>547.4</ele>
        <time>2020-08-16 10:50:27</time>
      </trkpt>
      <trkpt lat="39.95431" lon="-4.38693">
        <ele>547.6</ele>
        <time>2020-08-16 10:50:28</time>
      </trkpt>
      <trkpt lat="39.95432" lon="-4.38697">
        <ele>547.8</ele>
        <time>2020-08-16 10:50:29</time>
      </trkpt>
      <trkpt lat="39.95433" lon="-4.38702">
        <ele>547.8</ele>
        <time>2020-08-16 10:50:30</time>
      </trkpt>
      <trkpt lat="39.95435" lon="-4.38706">
        <ele>547.8</ele>
        <time>2020-08-16 10:50:31</time>
      </trkpt>
      <trkpt lat="39.95435" lon="-4.38711">
        <ele>547.8</ele>
        <time>2020-08-16 10:50:32</time>
      </trkpt>
      <trkpt lat="39.95437" lon="-4.38715">
        <ele>548</ele>
        <time>2020-08-16 10:50:33</time>
      </trkpt>
      <trkpt lat="39.95438" lon="-4.3872">
        <ele>548</ele>
        <time>2020-08-16 10:50:34</time>
      </trkpt>
      <trkpt lat="39.95439" lon="-4.38724">
        <ele>548.2</ele>
        <time>2020-08-16 10:50:35</time>
      </trkpt>
      <trkpt lat="39.95446" lon="-4.38751">
        <ele>548.4</ele>
        <time>2020-08-16 10:50:41</time>
      </trkpt>
      <trkpt lat="39.95456" lon="-4.38793">
        <ele>548.6</ele>
        <time>2020-08-16 10:50:50</time>
      </trkpt>
      <trkpt lat="39.95457" lon="-4.38798">
        <ele>548.8</ele>
        <time>2020-08-16 10:50:51</time>
      </trkpt>
      <trkpt lat="39.95458" lon="-4.38802">
        <ele>548.8</ele>
        <time>2020-08-16 10:50:52</time>
      </trkpt>
      <trkpt lat="39.9546" lon="-4.38807">
        <ele>549</ele>
        <time>2020-08-16 10:50:53</time>
      </trkpt>
      <trkpt lat="39.95461" lon="-4.38812">
        <ele>549.2</ele>
        <time>2020-08-16 10:50:54</time>
      </trkpt>
      <trkpt lat="39.95462" lon="-4.38817">
        <ele>549.4</ele>
        <time>2020-08-16 10:50:55</time>
      </trkpt>
      <trkpt lat="39.95463" lon="-4.38822">
        <ele>549.4</ele>
        <time>2020-08-16 10:50:56</time>
      </trkpt>
      <trkpt lat="39.95464" lon="-4.38827">
        <ele>549.4</ele>
        <time>2020-08-16 10:50:57</time>
      </trkpt>
      <trkpt lat="39.95466" lon="-4.38831">
        <ele>549.6</ele>
        <time>2020-08-16 10:50:58</time>
      </trkpt>
      <trkpt lat="39.95468" lon="-4.38841">
        <ele>549.6</ele>
        <time>2020-08-16 10:51:00</time>
      </trkpt>
      <trkpt lat="39.95473" lon="-4.38866">
        <ele>550.2</ele>
        <time>2020-08-16 10:51:05</time>
      </trkpt>
      <trkpt lat="39.95476" lon="-4.38875">
        <ele>550.4</ele>
        <time>2020-08-16 10:51:07</time>
      </trkpt>
      <trkpt lat="39.95477" lon="-4.3888">
        <ele>550.4</ele>
        <time>2020-08-16 10:51:08</time>
      </trkpt>
      <trkpt lat="39.95478" lon="-4.38885">
        <ele>550.6</ele>
        <time>2020-08-16 10:51:09</time>
      </trkpt>
      <trkpt lat="39.95479" lon="-4.38889">
        <ele>550.6</ele>
        <time>2020-08-16 10:51:10</time>
      </trkpt>
      <trkpt lat="39.9548" lon="-4.38894">
        <ele>550.6</ele>
        <time>2020-08-16 10:51:11</time>
      </trkpt>
      <trkpt lat="39.95481" lon="-4.38899">
        <ele>550.6</ele>
        <time>2020-08-16 10:51:12</time>
      </trkpt>
      <trkpt lat="39.95482" lon="-4.38903">
        <ele>550.6</ele>
        <time>2020-08-16 10:51:13</time>
      </trkpt>
      <trkpt lat="39.95484" lon="-4.38908">
        <ele>550.6</ele>
        <time>2020-08-16 10:51:14</time>
      </trkpt>
      <trkpt lat="39.95485" lon="-4.38912">
        <ele>550.6</ele>
        <time>2020-08-16 10:51:15</time>
      </trkpt>
      <trkpt lat="39.95486" lon="-4.38917">
        <ele>550.6</ele>
        <time>2020-08-16 10:51:16</time>
      </trkpt>
      <trkpt lat="39.95487" lon="-4.38921">
        <ele>550.6</ele>
        <time>2020-08-16 10:51:17</time>
      </trkpt>
      <trkpt lat="39.95489" lon="-4.38926">
        <ele>550.6</ele>
        <time>2020-08-16 10:51:18</time>
      </trkpt>
      <trkpt lat="39.9549" lon="-4.38931">
        <ele>550.6</ele>
        <time>2020-08-16 10:51:19</time>
      </trkpt>
      <trkpt lat="39.95492" lon="-4.38935">
        <ele>550.8</ele>
        <time>2020-08-16 10:51:20</time>
      </trkpt>
      <trkpt lat="39.95493" lon="-4.38939">
        <ele>550.8</ele>
        <time>2020-08-16 10:51:21</time>
      </trkpt>
      <trkpt lat="39.95494" lon="-4.38944">
        <ele>550.8</ele>
        <time>2020-08-16 10:51:22</time>
      </trkpt>
      <trkpt lat="39.95495" lon="-4.38948">
        <ele>550.8</ele>
        <time>2020-08-16 10:51:23</time>
      </trkpt>
      <trkpt lat="39.95498" lon="-4.38958">
        <ele>551.2</ele>
        <time>2020-08-16 10:51:25</time>
      </trkpt>
      <trkpt lat="39.95512" lon="-4.39016">
        <ele>551.6</ele>
        <time>2020-08-16 10:51:37</time>
      </trkpt>
      <trkpt lat="39.95516" lon="-4.39035">
        <ele>551.8</ele>
        <time>2020-08-16 10:51:41</time>
      </trkpt>
      <trkpt lat="39.95517" lon="-4.3904">
        <ele>551.8</ele>
        <time>2020-08-16 10:51:42</time>
      </trkpt>
      <trkpt lat="39.95518" lon="-4.39045">
        <ele>551.8</ele>
        <time>2020-08-16 10:51:43</time>
      </trkpt>
      <trkpt lat="39.9552" lon="-4.3905">
        <ele>551.8</ele>
        <time>2020-08-16 10:51:44</time>
      </trkpt>
      <trkpt lat="39.95521" lon="-4.39054">
        <ele>551.8</ele>
        <time>2020-08-16 10:51:45</time>
      </trkpt>
      <trkpt lat="39.95521" lon="-4.3906">
        <ele>551.8</ele>
        <time>2020-08-16 10:51:46</time>
      </trkpt>
      <trkpt lat="39.95522" lon="-4.39065">
        <ele>551.8</ele>
        <time>2020-08-16 10:51:47</time>
      </trkpt>
      <trkpt lat="39.95522" lon="-4.3907">
        <ele>552</ele>
        <time>2020-08-16 10:51:48</time>
      </trkpt>
      <trkpt lat="39.95522" lon="-4.39075">
        <ele>552</ele>
        <time>2020-08-16 10:51:49</time>
      </trkpt>
      <trkpt lat="39.95523" lon="-4.3908">
        <ele>552</ele>
        <time>2020-08-16 10:51:50</time>
      </trkpt>
      <trkpt lat="39.95524" lon="-4.39096">
        <ele>552.4</ele>
        <time>2020-08-16 10:51:53</time>
      </trkpt>
      <trkpt lat="39.95522" lon="-4.39117">
        <ele>552.4</ele>
        <time>2020-08-16 10:51:57</time>
      </trkpt>
      <trkpt lat="39.95521" lon="-4.39127">
        <ele>552.6</ele>
        <time>2020-08-16 10:51:59</time>
      </trkpt>
      <trkpt lat="39.9552" lon="-4.39142">
        <ele>552.6</ele>
        <time>2020-08-16 10:52:02</time>
      </trkpt>
      <trkpt lat="39.95519" lon="-4.39147">
        <ele>552.6</ele>
        <time>2020-08-16 10:52:03</time>
      </trkpt>
      <trkpt lat="39.95519" lon="-4.39152">
        <ele>552.6</ele>
        <time>2020-08-16 10:52:04</time>
      </trkpt>
      <trkpt lat="39.95518" lon="-4.39157">
        <ele>552.6</ele>
        <time>2020-08-16 10:52:05</time>
      </trkpt>
      <trkpt lat="39.95518" lon="-4.39162">
        <ele>552.6</ele>
        <time>2020-08-16 10:52:06</time>
      </trkpt>
      <trkpt lat="39.95517" lon="-4.39167">
        <ele>552.6</ele>
        <time>2020-08-16 10:52:07</time>
      </trkpt>
      <trkpt lat="39.95517" lon="-4.39171">
        <ele>552.8</ele>
        <time>2020-08-16 10:52:08</time>
      </trkpt>
      <trkpt lat="39.95516" lon="-4.39176">
        <ele>552.8</ele>
        <time>2020-08-16 10:52:09</time>
      </trkpt>
      <trkpt lat="39.95515" lon="-4.39181">
        <ele>552.8</ele>
        <time>2020-08-16 10:52:10</time>
      </trkpt>
      <trkpt lat="39.95515" lon="-4.39186">
        <ele>552.8</ele>
        <time>2020-08-16 10:52:11</time>
      </trkpt>
      <trkpt lat="39.95514" lon="-4.3919">
        <ele>552.8</ele>
        <time>2020-08-16 10:52:12</time>
      </trkpt>
      <trkpt lat="39.95514" lon="-4.39195">
        <ele>552.8</ele>
        <time>2020-08-16 10:52:13</time>
      </trkpt>
      <trkpt lat="39.95514" lon="-4.39201">
        <ele>552.8</ele>
        <time>2020-08-16 10:52:14</time>
      </trkpt>
      <trkpt lat="39.95514" lon="-4.39206">
        <ele>553</ele>
        <time>2020-08-16 10:52:15</time>
      </trkpt>
      <trkpt lat="39.95513" lon="-4.39211">
        <ele>552.8</ele>
        <time>2020-08-16 10:52:16</time>
      </trkpt>
      <trkpt lat="39.95512" lon="-4.39227">
        <ele>552.8</ele>
        <time>2020-08-16 10:52:19</time>
      </trkpt>
      <trkpt lat="39.95507" lon="-4.39293">
        <ele>552.8</ele>
        <time>2020-08-16 10:52:31</time>
      </trkpt>
      <trkpt lat="39.95504" lon="-4.39343">
        <ele>553</ele>
        <time>2020-08-16 10:52:40</time>
      </trkpt>
      <trkpt lat="39.95498" lon="-4.39403">
        <ele>552.8</ele>
        <time>2020-08-16 10:52:50</time>
      </trkpt>
      <trkpt lat="39.95497" lon="-4.39414">
        <ele>553</ele>
        <time>2020-08-16 10:52:52</time>
      </trkpt>
      <trkpt lat="39.95494" lon="-4.39451">
        <ele>553</ele>
        <time>2020-08-16 10:52:58</time>
      </trkpt>
      <trkpt lat="39.95492" lon="-4.39481">
        <ele>553</ele>
        <time>2020-08-16 10:53:03</time>
      </trkpt>
      <trkpt lat="39.9549" lon="-4.39512">
        <ele>552.6</ele>
        <time>2020-08-16 10:53:08</time>
      </trkpt>
      <trkpt lat="39.9549" lon="-4.39537">
        <ele>552.6</ele>
        <time>2020-08-16 10:53:12</time>
      </trkpt>
      <trkpt lat="39.95486" lon="-4.39581">
        <ele>552.4</ele>
        <time>2020-08-16 10:53:19</time>
      </trkpt>
      <trkpt lat="39.95486" lon="-4.39587">
        <ele>552.4</ele>
        <time>2020-08-16 10:53:20</time>
      </trkpt>
      <trkpt lat="39.95484" lon="-4.396">
        <ele>552.4</ele>
        <time>2020-08-16 10:53:22</time>
      </trkpt>
      <trkpt lat="39.95484" lon="-4.39606">
        <ele>552.4</ele>
        <time>2020-08-16 10:53:23</time>
      </trkpt>
      <trkpt lat="39.95483" lon="-4.39611">
        <ele>552.4</ele>
        <time>2020-08-16 10:53:24</time>
      </trkpt>
      <trkpt lat="39.95483" lon="-4.39617">
        <ele>552.2</ele>
        <time>2020-08-16 10:53:25</time>
      </trkpt>
      <trkpt lat="39.95482" lon="-4.39623">
        <ele>552.2</ele>
        <time>2020-08-16 10:53:26</time>
      </trkpt>
      <trkpt lat="39.95482" lon="-4.39628">
        <ele>552.2</ele>
        <time>2020-08-16 10:53:27</time>
      </trkpt>
      <trkpt lat="39.95482" lon="-4.39634">
        <ele>552.2</ele>
        <time>2020-08-16 10:53:28</time>
      </trkpt>
      <trkpt lat="39.95481" lon="-4.39639">
        <ele>552.2</ele>
        <time>2020-08-16 10:53:29</time>
      </trkpt>
      <trkpt lat="39.95481" lon="-4.39645">
        <ele>551.8</ele>
        <time>2020-08-16 10:53:30</time>
      </trkpt>
      <trkpt lat="39.95481" lon="-4.39651">
        <ele>552.2</ele>
        <time>2020-08-16 10:53:31</time>
      </trkpt>
      <trkpt lat="39.9548" lon="-4.39656">
        <ele>552.2</ele>
        <time>2020-08-16 10:53:32</time>
      </trkpt>
      <trkpt lat="39.9548" lon="-4.39661">
        <ele>552.2</ele>
        <time>2020-08-16 10:53:33</time>
      </trkpt>
      <trkpt lat="39.9548" lon="-4.39665">
        <ele>552.2</ele>
        <time>2020-08-16 10:53:34</time>
      </trkpt>
      <trkpt lat="39.95481" lon="-4.3967">
        <ele>552.2</ele>
        <time>2020-08-16 10:53:35</time>
      </trkpt>
      <trkpt lat="39.95481" lon="-4.39673">
        <ele>552</ele>
        <time>2020-08-16 10:53:36</time>
      </trkpt>
      <trkpt lat="39.95482" lon="-4.39676">
        <ele>552.2</ele>
        <time>2020-08-16 10:53:37</time>
      </trkpt>
      <trkpt lat="39.95483" lon="-4.39679">
        <ele>552.2</ele>
        <time>2020-08-16 10:53:38</time>
      </trkpt>
      <trkpt lat="39.95484" lon="-4.39681">
        <ele>552.4</ele>
        <time>2020-08-16 10:53:39</time>
      </trkpt>
      <trkpt lat="39.95485" lon="-4.39683">
        <ele>552.6</ele>
        <time>2020-08-16 10:53:40</time>
      </trkpt>
      <trkpt lat="39.95486" lon="-4.39686">
        <ele>552.6</ele>
        <time>2020-08-16 10:53:41</time>
      </trkpt>
      <trkpt lat="39.95487" lon="-4.39688">
        <ele>552.8</ele>
        <time>2020-08-16 10:53:42</time>
      </trkpt>
      <trkpt lat="39.95487" lon="-4.39691">
        <ele>552.8</ele>
        <time>2020-08-16 10:53:43</time>
      </trkpt>
      <trkpt lat="39.95486" lon="-4.39694">
        <ele>552.8</ele>
        <time>2020-08-16 10:53:44</time>
      </trkpt>
      <trkpt lat="39.95485" lon="-4.397">
        <ele>552.8</ele>
        <time>2020-08-16 10:53:46</time>
      </trkpt>
      <trkpt lat="39.95485" lon="-4.39706">
        <ele>552.8</ele>
        <time>2020-08-16 10:53:48</time>
      </trkpt>
      <trkpt lat="39.95486" lon="-4.3971">
        <ele>552.8</ele>
        <time>2020-08-16 10:53:49</time>
      </trkpt>
      <trkpt lat="39.95488" lon="-4.39718">
        <ele>552.6</ele>
        <time>2020-08-16 10:53:51</time>
      </trkpt>
      <trkpt lat="39.95488" lon="-4.39727">
        <ele>552.6</ele>
        <time>2020-08-16 10:53:53</time>
      </trkpt>
      <trkpt lat="39.9549" lon="-4.39746">
        <ele>552.2</ele>
        <time>2020-08-16 10:53:57</time>
      </trkpt>
      <trkpt lat="39.9549" lon="-4.39751">
        <ele>552</ele>
        <time>2020-08-16 10:53:58</time>
      </trkpt>
      <trkpt lat="39.9549" lon="-4.39762">
        <ele>552</ele>
        <time>2020-08-16 10:54:00</time>
      </trkpt>
      <trkpt lat="39.95491" lon="-4.39792">
        <ele>551.6</ele>
        <time>2020-08-16 10:54:05</time>
      </trkpt>
      <trkpt lat="39.95493" lon="-4.39815">
        <ele>551</ele>
        <time>2020-08-16 10:54:09</time>
      </trkpt>
      <trkpt lat="39.95495" lon="-4.39839">
        <ele>550.4</ele>
        <time>2020-08-16 10:54:13</time>
      </trkpt>
      <trkpt lat="39.95495" lon="-4.39844">
        <ele>550</ele>
        <time>2020-08-16 10:54:14</time>
      </trkpt>
      <trkpt lat="39.95495" lon="-4.39849">
        <ele>549.8</ele>
        <time>2020-08-16 10:54:15</time>
      </trkpt>
      <trkpt lat="39.95496" lon="-4.39854">
        <ele>549.8</ele>
        <time>2020-08-16 10:54:16</time>
      </trkpt>
      <trkpt lat="39.95496" lon="-4.39859">
        <ele>549.8</ele>
        <time>2020-08-16 10:54:17</time>
      </trkpt>
      <trkpt lat="39.95496" lon="-4.39864">
        <ele>549.8</ele>
        <time>2020-08-16 10:54:18</time>
      </trkpt>
      <trkpt lat="39.95497" lon="-4.39869">
        <ele>549.6</ele>
        <time>2020-08-16 10:54:19</time>
      </trkpt>
      <trkpt lat="39.95497" lon="-4.39873">
        <ele>549.6</ele>
        <time>2020-08-16 10:54:20</time>
      </trkpt>
      <trkpt lat="39.95497" lon="-4.39876">
        <ele>549.6</ele>
        <time>2020-08-16 10:54:21</time>
      </trkpt>
      <trkpt lat="39.95497" lon="-4.39877">
        <ele>549.4</ele>
        <time>2020-08-16 10:54:22</time>
      </trkpt>
      <trkpt lat="39.95496" lon="-4.39878">
        <ele>549.4</ele>
        <time>2020-08-16 10:54:23</time>
      </trkpt>
      <trkpt lat="39.95496" lon="-4.39878">
        <ele>549.4</ele>
        <time>2020-08-16 10:54:24</time>
      </trkpt>
      <trkpt lat="39.95496" lon="-4.39878">
        <ele>549</ele>
        <time>2020-08-16 10:54:26</time>
      </trkpt>
      <trkpt lat="39.95497" lon="-4.39881">
        <ele>547.4</ele>
        <time>2020-08-16 10:55:16</time>
      </trkpt>
      <trkpt lat="39.95497" lon="-4.39884">
        <ele>547.6</ele>
        <time>2020-08-16 10:55:17</time>
      </trkpt>
      <trkpt lat="39.95497" lon="-4.39891">
        <ele>547.6</ele>
        <time>2020-08-16 10:55:19</time>
      </trkpt>
      <trkpt lat="39.95497" lon="-4.39903">
        <ele>547.6</ele>
        <time>2020-08-16 10:55:22</time>
      </trkpt>
      <trkpt lat="39.955" lon="-4.39938">
        <ele>547.6</ele>
        <time>2020-08-16 10:55:29</time>
      </trkpt>
      <trkpt lat="39.955" lon="-4.39942">
        <ele>547.6</ele>
        <time>2020-08-16 10:55:30</time>
      </trkpt>
      <trkpt lat="39.955" lon="-4.39945">
        <ele>547.6</ele>
        <time>2020-08-16 10:55:31</time>
      </trkpt>
      <trkpt lat="39.95499" lon="-4.39949">
        <ele>547.4</ele>
        <time>2020-08-16 10:55:32</time>
      </trkpt>
      <trkpt lat="39.95498" lon="-4.39952">
        <ele>547.4</ele>
        <time>2020-08-16 10:55:33</time>
      </trkpt>
      <trkpt lat="39.95497" lon="-4.39956">
        <ele>547.4</ele>
        <time>2020-08-16 10:55:34</time>
      </trkpt>
      <trkpt lat="39.95496" lon="-4.39959">
        <ele>547.2</ele>
        <time>2020-08-16 10:55:35</time>
      </trkpt>
      <trkpt lat="39.95495" lon="-4.39964">
        <ele>547.2</ele>
        <time>2020-08-16 10:55:36</time>
      </trkpt>
      <trkpt lat="39.95494" lon="-4.39968">
        <ele>547</ele>
        <time>2020-08-16 10:55:37</time>
      </trkpt>
      <trkpt lat="39.95492" lon="-4.39972">
        <ele>547</ele>
        <time>2020-08-16 10:55:38</time>
      </trkpt>
      <trkpt lat="39.9549" lon="-4.39976">
        <ele>546.8</ele>
        <time>2020-08-16 10:55:39</time>
      </trkpt>
      <trkpt lat="39.95488" lon="-4.39979">
        <ele>546.6</ele>
        <time>2020-08-16 10:55:40</time>
      </trkpt>
      <trkpt lat="39.95486" lon="-4.39982">
        <ele>546.4</ele>
        <time>2020-08-16 10:55:41</time>
      </trkpt>
      <trkpt lat="39.95486" lon="-4.39986">
        <ele>546.2</ele>
        <time>2020-08-16 10:55:42</time>
      </trkpt>
      <trkpt lat="39.95487" lon="-4.39989">
        <ele>546.2</ele>
        <time>2020-08-16 10:55:43</time>
      </trkpt>
      <trkpt lat="39.95488" lon="-4.39992">
        <ele>546</ele>
        <time>2020-08-16 10:55:44</time>
      </trkpt>
      <trkpt lat="39.95489" lon="-4.39995">
        <ele>546</ele>
        <time>2020-08-16 10:55:45</time>
      </trkpt>
      <trkpt lat="39.9549" lon="-4.39998">
        <ele>546</ele>
        <time>2020-08-16 10:55:46</time>
      </trkpt>
      <trkpt lat="39.9549" lon="-4.40001">
        <ele>546</ele>
        <time>2020-08-16 10:55:47</time>
      </trkpt>
      <trkpt lat="39.95491" lon="-4.40004">
        <ele>546</ele>
        <time>2020-08-16 10:55:48</time>
      </trkpt>
      <trkpt lat="39.95493" lon="-4.40007">
        <ele>546</ele>
        <time>2020-08-16 10:55:49</time>
      </trkpt>
      <trkpt lat="39.95494" lon="-4.4001">
        <ele>546</ele>
        <time>2020-08-16 10:55:50</time>
      </trkpt>
      <trkpt lat="39.95495" lon="-4.40012">
        <ele>546.2</ele>
        <time>2020-08-16 10:55:51</time>
      </trkpt>
      <trkpt lat="39.95497" lon="-4.40015">
        <ele>546.2</ele>
        <time>2020-08-16 10:55:52</time>
      </trkpt>
      <trkpt lat="39.95498" lon="-4.40019">
        <ele>546.2</ele>
        <time>2020-08-16 10:55:53</time>
      </trkpt>
      <trkpt lat="39.955" lon="-4.40022">
        <ele>546.6</ele>
        <time>2020-08-16 10:55:54</time>
      </trkpt>
      <trkpt lat="39.95501" lon="-4.40025">
        <ele>546.8</ele>
        <time>2020-08-16 10:55:55</time>
      </trkpt>
      <trkpt lat="39.95502" lon="-4.40028">
        <ele>547.2</ele>
        <time>2020-08-16 10:55:56</time>
      </trkpt>
      <trkpt lat="39.95502" lon="-4.40031">
        <ele>547.2</ele>
        <time>2020-08-16 10:55:57</time>
      </trkpt>
      <trkpt lat="39.95503" lon="-4.40033">
        <ele>547.4</ele>
        <time>2020-08-16 10:55:58</time>
      </trkpt>
      <trkpt lat="39.95503" lon="-4.40036">
        <ele>547.6</ele>
        <time>2020-08-16 10:55:59</time>
      </trkpt>
      <trkpt lat="39.95504" lon="-4.40039">
        <ele>547.8</ele>
        <time>2020-08-16 10:56:00</time>
      </trkpt>
      <trkpt lat="39.95504" lon="-4.40042">
        <ele>548</ele>
        <time>2020-08-16 10:56:01</time>
      </trkpt>
      <trkpt lat="39.95504" lon="-4.40044">
        <ele>548</ele>
        <time>2020-08-16 10:56:02</time>
      </trkpt>
      <trkpt lat="39.95505" lon="-4.40045">
        <ele>548</ele>
        <time>2020-08-16 10:56:03</time>
      </trkpt>
      <trkpt lat="39.95506" lon="-4.40047">
        <ele>548.2</ele>
        <time>2020-08-16 10:56:04</time>
      </trkpt>
      <trkpt lat="39.95506" lon="-4.40049">
        <ele>548.2</ele>
        <time>2020-08-16 10:56:05</time>
      </trkpt>
      <trkpt lat="39.95505" lon="-4.40051">
        <ele>548.4</ele>
        <time>2020-08-16 10:56:06</time>
      </trkpt>
      <trkpt lat="39.95504" lon="-4.40051">
        <ele>548.4</ele>
        <time>2020-08-16 10:56:07</time>
      </trkpt>
      <trkpt lat="39.95504" lon="-4.4005">
        <ele>548.4</ele>
        <time>2020-08-16 10:56:08</time>
      </trkpt>
      <trkpt lat="39.95504" lon="-4.4005">
        <ele>548.4</ele>
        <time>2020-08-16 10:56:09</time>
      </trkpt>
      <trkpt lat="39.95504" lon="-4.4005">
        <ele>548.4</ele>
        <time>2020-08-16 10:56:10</time>
      </trkpt>
      <trkpt lat="39.95504" lon="-4.4005">
        <ele>548.4</ele>
        <time>2020-08-16 10:56:11</time>
      </trkpt>
      <trkpt lat="39.95503" lon="-4.4005">
        <ele>548.4</ele>
        <time>2020-08-16 10:56:12</time>
      </trkpt>
      <trkpt lat="39.95503" lon="-4.4005">
        <ele>548.2</ele>
        <time>2020-08-16 10:56:14</time>
      </trkpt>
      <trkpt lat="39.95505" lon="-4.40054">
        <ele>548.2</ele>
        <time>2020-08-16 10:56:47</time>
      </trkpt>
      <trkpt lat="39.95504" lon="-4.40058">
        <ele>548.2</ele>
        <time>2020-08-16 10:56:48</time>
      </trkpt>
      <trkpt lat="39.95503" lon="-4.40061">
        <ele>548.4</ele>
        <time>2020-08-16 10:56:49</time>
      </trkpt>
      <trkpt lat="39.95503" lon="-4.40064">
        <ele>548.4</ele>
        <time>2020-08-16 10:56:50</time>
      </trkpt>
      <trkpt lat="39.95503" lon="-4.40067">
        <ele>548.4</ele>
        <time>2020-08-16 10:56:51</time>
      </trkpt>
      <trkpt lat="39.95503" lon="-4.40069">
        <ele>548.4</ele>
        <time>2020-08-16 10:56:52</time>
      </trkpt>
      <trkpt lat="39.95502" lon="-4.4007">
        <ele>548.6</ele>
        <time>2020-08-16 10:56:53</time>
      </trkpt>
      <trkpt lat="39.95502" lon="-4.40072">
        <ele>548.6</ele>
        <time>2020-08-16 10:56:54</time>
      </trkpt>
      <trkpt lat="39.95502" lon="-4.40074">
        <ele>548.6</ele>
        <time>2020-08-16 10:56:55</time>
      </trkpt>
      <trkpt lat="39.95502" lon="-4.40076">
        <ele>548.6</ele>
        <time>2020-08-16 10:56:56</time>
      </trkpt>
      <trkpt lat="39.95502" lon="-4.40078">
        <ele>548.6</ele>
        <time>2020-08-16 10:56:57</time>
      </trkpt>
      <trkpt lat="39.95502" lon="-4.40079">
        <ele>548.6</ele>
        <time>2020-08-16 10:56:58</time>
      </trkpt>
      <trkpt lat="39.95502" lon="-4.40079">
        <ele>548.6</ele>
        <time>2020-08-16 10:56:59</time>
      </trkpt>
      <trkpt lat="39.95502" lon="-4.40079">
        <ele>548.4</ele>
        <time>2020-08-16 10:57:00</time>
      </trkpt>
      <trkpt lat="39.95506" lon="-4.40083">
        <ele>548</ele>
        <time>2020-08-16 10:57:24</time>
      </trkpt>
      <trkpt lat="39.95509" lon="-4.40086">
        <ele>548</ele>
        <time>2020-08-16 10:57:25</time>
      </trkpt>
      <trkpt lat="39.95511" lon="-4.4009">
        <ele>548</ele>
        <time>2020-08-16 10:57:26</time>
      </trkpt>
      <trkpt lat="39.95518" lon="-4.40103">
        <ele>547.6</ele>
        <time>2020-08-16 10:57:29</time>
      </trkpt>
      <trkpt lat="39.95521" lon="-4.40107">
        <ele>547.2</ele>
        <time>2020-08-16 10:57:30</time>
      </trkpt>
      <trkpt lat="39.95524" lon="-4.4011">
        <ele>547.2</ele>
        <time>2020-08-16 10:57:31</time>
      </trkpt>
      <trkpt lat="39.95527" lon="-4.40111">
        <ele>547</ele>
        <time>2020-08-16 10:57:32</time>
      </trkpt>
      <trkpt lat="39.95531" lon="-4.40112">
        <ele>546.6</ele>
        <time>2020-08-16 10:57:33</time>
      </trkpt>
      <trkpt lat="39.95535" lon="-4.40112">
        <ele>546.6</ele>
        <time>2020-08-16 10:57:34</time>
      </trkpt>
      <trkpt lat="39.95538" lon="-4.40116">
        <ele>546.4</ele>
        <time>2020-08-16 10:57:35</time>
      </trkpt>
      <trkpt lat="39.95544" lon="-4.40124">
        <ele>546.4</ele>
        <time>2020-08-16 10:57:37</time>
      </trkpt>
      <trkpt lat="39.95546" lon="-4.40128">
        <ele>546.4</ele>
        <time>2020-08-16 10:57:38</time>
      </trkpt>
      <trkpt lat="39.95549" lon="-4.40133">
        <ele>546.4</ele>
        <time>2020-08-16 10:57:39</time>
      </trkpt>
      <trkpt lat="39.9555" lon="-4.40137">
        <ele>546.6</ele>
        <time>2020-08-16 10:57:40</time>
      </trkpt>
      <trkpt lat="39.95552" lon="-4.40141">
        <ele>546.8</ele>
        <time>2020-08-16 10:57:41</time>
      </trkpt>
      <trkpt lat="39.95554" lon="-4.40145">
        <ele>546.8</ele>
        <time>2020-08-16 10:57:42</time>
      </trkpt>
      <trkpt lat="39.95555" lon="-4.40149">
        <ele>546.8</ele>
        <time>2020-08-16 10:57:43</time>
      </trkpt>
      <trkpt lat="39.95557" lon="-4.40152">
        <ele>547</ele>
        <time>2020-08-16 10:57:44</time>
      </trkpt>
      <trkpt lat="39.95559" lon="-4.40156">
        <ele>547.2</ele>
        <time>2020-08-16 10:57:45</time>
      </trkpt>
      <trkpt lat="39.95562" lon="-4.4016">
        <ele>547.2</ele>
        <time>2020-08-16 10:57:46</time>
      </trkpt>
      <trkpt lat="39.95563" lon="-4.40164">
        <ele>547.2</ele>
        <time>2020-08-16 10:57:47</time>
      </trkpt>
      <trkpt lat="39.95566" lon="-4.40166">
        <ele>547.4</ele>
        <time>2020-08-16 10:57:48</time>
      </trkpt>
      <trkpt lat="39.95569" lon="-4.40165">
        <ele>547.4</ele>
        <time>2020-08-16 10:57:49</time>
      </trkpt>
      <trkpt lat="39.95571" lon="-4.40162">
        <ele>547.6</ele>
        <time>2020-08-16 10:57:50</time>
      </trkpt>
      <trkpt lat="39.95573" lon="-4.40161">
        <ele>547.6</ele>
        <time>2020-08-16 10:57:51</time>
      </trkpt>
      <trkpt lat="39.95573" lon="-4.4016">
        <ele>547.6</ele>
        <time>2020-08-16 10:57:52</time>
      </trkpt>
      <trkpt lat="39.95573" lon="-4.4016">
        <ele>547.6</ele>
        <time>2020-08-16 10:57:53</time>
      </trkpt>
      <trkpt lat="39.95573" lon="-4.4016">
        <ele>547.8</ele>
        <time>2020-08-16 10:57:54</time>
      </trkpt>
      <trkpt lat="39.95572" lon="-4.40164">
        <ele>548</ele>
        <time>2020-08-16 10:59:27</time>
      </trkpt>
      <trkpt lat="39.95571" lon="-4.40167">
        <ele>548</ele>
        <time>2020-08-16 10:59:28</time>
      </trkpt>
      <trkpt lat="39.9557" lon="-4.4017">
        <ele>548</ele>
        <time>2020-08-16 10:59:29</time>
      </trkpt>
      <trkpt lat="39.9557" lon="-4.40174">
        <ele>548</ele>
        <time>2020-08-16 10:59:30</time>
      </trkpt>
      <trkpt lat="39.9557" lon="-4.40178">
        <ele>548</ele>
        <time>2020-08-16 10:59:31</time>
      </trkpt>
      <trkpt lat="39.95571" lon="-4.40182">
        <ele>548</ele>
        <time>2020-08-16 10:59:32</time>
      </trkpt>
      <trkpt lat="39.95572" lon="-4.40185">
        <ele>548.2</ele>
        <time>2020-08-16 10:59:33</time>
      </trkpt>
      <trkpt lat="39.95577" lon="-4.40196">
        <ele>548.2</ele>
        <time>2020-08-16 10:59:36</time>
      </trkpt>
      <trkpt lat="39.95579" lon="-4.402">
        <ele>548.2</ele>
        <time>2020-08-16 10:59:37</time>
      </trkpt>
      <trkpt lat="39.9558" lon="-4.40203">
        <ele>548.2</ele>
        <time>2020-08-16 10:59:38</time>
      </trkpt>
      <trkpt lat="39.9558" lon="-4.40207">
        <ele>548.2</ele>
        <time>2020-08-16 10:59:39</time>
      </trkpt>
      <trkpt lat="39.95579" lon="-4.40212">
        <ele>548.2</ele>
        <time>2020-08-16 10:59:40</time>
      </trkpt>
      <trkpt lat="39.95577" lon="-4.40217">
        <ele>548.2</ele>
        <time>2020-08-16 10:59:41</time>
      </trkpt>
      <trkpt lat="39.95574" lon="-4.40227">
        <ele>548</ele>
        <time>2020-08-16 10:59:43</time>
      </trkpt>
      <trkpt lat="39.9557" lon="-4.40238">
        <ele>548</ele>
        <time>2020-08-16 10:59:45</time>
      </trkpt>
      <trkpt lat="39.95566" lon="-4.40249">
        <ele>547.6</ele>
        <time>2020-08-16 10:59:47</time>
      </trkpt>
      <trkpt lat="39.95564" lon="-4.40253">
        <ele>547.2</ele>
        <time>2020-08-16 10:59:48</time>
      </trkpt>
      <trkpt lat="39.95562" lon="-4.40257">
        <ele>547</ele>
        <time>2020-08-16 10:59:49</time>
      </trkpt>
      <trkpt lat="39.9556" lon="-4.40261">
        <ele>546.6</ele>
        <time>2020-08-16 10:59:50</time>
      </trkpt>
      <trkpt lat="39.95558" lon="-4.40264">
        <ele>546.2</ele>
        <time>2020-08-16 10:59:51</time>
      </trkpt>
      <trkpt lat="39.95557" lon="-4.40267">
        <ele>545.8</ele>
        <time>2020-08-16 10:59:52</time>
      </trkpt>
      <trkpt lat="39.95556" lon="-4.4027">
        <ele>545</ele>
        <time>2020-08-16 10:59:53</time>
      </trkpt>
      <trkpt lat="39.95556" lon="-4.40272">
        <ele>544.8</ele>
        <time>2020-08-16 10:59:54</time>
      </trkpt>
      <trkpt lat="39.95556" lon="-4.40275">
        <ele>544.2</ele>
        <time>2020-08-16 10:59:55</time>
      </trkpt>
      <trkpt lat="39.95555" lon="-4.40277">
        <ele>544.2</ele>
        <time>2020-08-16 10:59:56</time>
      </trkpt>
      <trkpt lat="39.95554" lon="-4.40279">
        <ele>543.8</ele>
        <time>2020-08-16 10:59:57</time>
      </trkpt>
      <trkpt lat="39.95552" lon="-4.40284">
        <ele>543.6</ele>
        <time>2020-08-16 10:59:59</time>
      </trkpt>
      <trkpt lat="39.95552" lon="-4.40285">
        <ele>543.6</ele>
        <time>2020-08-16 11:00:00</time>
      </trkpt>
      <trkpt lat="39.95551" lon="-4.40287">
        <ele>543.6</ele>
        <time>2020-08-16 11:00:01</time>
      </trkpt>
      <trkpt lat="39.95551" lon="-4.40287">
        <ele>543.6</ele>
        <time>2020-08-16 11:00:02</time>
      </trkpt>
      <trkpt lat="39.95551" lon="-4.40287">
        <ele>543.6</ele>
        <time>2020-08-16 11:00:04</time>
      </trkpt>
      <trkpt lat="39.95539" lon="-4.40284">
        <ele>543.8</ele>
        <time>2020-08-16 11:02:11</time>
      </trkpt>
      <trkpt lat="39.95537" lon="-4.40281">
        <ele>543.8</ele>
        <time>2020-08-16 11:02:12</time>
      </trkpt>
      <trkpt lat="39.9553" lon="-4.40268">
        <ele>543.6</ele>
        <time>2020-08-16 11:02:15</time>
      </trkpt>
      <trkpt lat="39.95527" lon="-4.40265">
        <ele>543.6</ele>
        <time>2020-08-16 11:02:16</time>
      </trkpt>
      <trkpt lat="39.95525" lon="-4.40263">
        <ele>543.6</ele>
        <time>2020-08-16 11:02:17</time>
      </trkpt>
      <trkpt lat="39.95513" lon="-4.40246">
        <ele>543.2</ele>
        <time>2020-08-16 11:02:22</time>
      </trkpt>
      <trkpt lat="39.95511" lon="-4.40243">
        <ele>543.2</ele>
        <time>2020-08-16 11:02:23</time>
      </trkpt>
      <trkpt lat="39.95506" lon="-4.40236">
        <ele>543</ele>
        <time>2020-08-16 11:02:25</time>
      </trkpt>
      <trkpt lat="39.95497" lon="-4.40223">
        <ele>542.8</ele>
        <time>2020-08-16 11:02:29</time>
      </trkpt>
      <trkpt lat="39.95494" lon="-4.4022">
        <ele>542.8</ele>
        <time>2020-08-16 11:02:30</time>
      </trkpt>
      <trkpt lat="39.95492" lon="-4.40217">
        <ele>542.8</ele>
        <time>2020-08-16 11:02:31</time>
      </trkpt>
      <trkpt lat="39.9549" lon="-4.40213">
        <ele>542.8</ele>
        <time>2020-08-16 11:02:32</time>
      </trkpt>
      <trkpt lat="39.95488" lon="-4.4021">
        <ele>542.6</ele>
        <time>2020-08-16 11:02:33</time>
      </trkpt>
      <trkpt lat="39.95485" lon="-4.40207">
        <ele>542.6</ele>
        <time>2020-08-16 11:02:34</time>
      </trkpt>
      <trkpt lat="39.95483" lon="-4.40204">
        <ele>542.6</ele>
        <time>2020-08-16 11:02:35</time>
      </trkpt>
      <trkpt lat="39.95481" lon="-4.40201">
        <ele>542.6</ele>
        <time>2020-08-16 11:02:36</time>
      </trkpt>
      <trkpt lat="39.95479" lon="-4.40198">
        <ele>542.6</ele>
        <time>2020-08-16 11:02:37</time>
      </trkpt>
      <trkpt lat="39.95477" lon="-4.40196">
        <ele>542.6</ele>
        <time>2020-08-16 11:02:38</time>
      </trkpt>
      <trkpt lat="39.95476" lon="-4.40194">
        <ele>542.8</ele>
        <time>2020-08-16 11:02:39</time>
      </trkpt>
      <trkpt lat="39.95474" lon="-4.40193">
        <ele>542.8</ele>
        <time>2020-08-16 11:02:40</time>
      </trkpt>
      <trkpt lat="39.95473" lon="-4.40193">
        <ele>542.8</ele>
        <time>2020-08-16 11:02:41</time>
      </trkpt>
      <trkpt lat="39.95472" lon="-4.40194">
        <ele>542.8</ele>
        <time>2020-08-16 11:02:42</time>
      </trkpt>
      <trkpt lat="39.9547" lon="-4.40194">
        <ele>542.8</ele>
        <time>2020-08-16 11:02:43</time>
      </trkpt>
      <trkpt lat="39.95468" lon="-4.40194">
        <ele>542.6</ele>
        <time>2020-08-16 11:02:45</time>
      </trkpt>
      <trkpt lat="39.95467" lon="-4.40194">
        <ele>542.6</ele>
        <time>2020-08-16 11:02:46</time>
      </trkpt>
      <trkpt lat="39.95466" lon="-4.40194">
        <ele>542.6</ele>
        <time>2020-08-16 11:02:47</time>
      </trkpt>
      <trkpt lat="39.95465" lon="-4.40193">
        <ele>542.4</ele>
        <time>2020-08-16 11:02:48</time>
      </trkpt>
      <trkpt lat="39.95464" lon="-4.40193">
        <ele>542.4</ele>
        <time>2020-08-16 11:02:49</time>
      </trkpt>
      <trkpt lat="39.95464" lon="-4.40193">
        <ele>542.4</ele>
        <time>2020-08-16 11:02:50</time>
      </trkpt>
      <trkpt lat="39.95464" lon="-4.40193">
        <ele>542.4</ele>
        <time>2020-08-16 11:02:51</time>
      </trkpt>
      <trkpt lat="39.95458" lon="-4.40211">
        <ele>542.8</ele>
        <time>2020-08-16 11:06:26</time>
      </trkpt>
      <trkpt lat="39.95457" lon="-4.40213">
        <ele>542.8</ele>
        <time>2020-08-16 11:06:27</time>
      </trkpt>
      <trkpt lat="39.95455" lon="-4.40215">
        <ele>542.8</ele>
        <time>2020-08-16 11:06:28</time>
      </trkpt>
      <trkpt lat="39.95453" lon="-4.40218">
        <ele>542.8</ele>
        <time>2020-08-16 11:06:29</time>
      </trkpt>
      <trkpt lat="39.9545" lon="-4.40224">
        <ele>542.8</ele>
        <time>2020-08-16 11:06:31</time>
      </trkpt>
      <trkpt lat="39.95449" lon="-4.40226">
        <ele>542.8</ele>
        <time>2020-08-16 11:06:32</time>
      </trkpt>
      <trkpt lat="39.95447" lon="-4.40228">
        <ele>542.8</ele>
        <time>2020-08-16 11:06:33</time>
      </trkpt>
      <trkpt lat="39.95446" lon="-4.4023">
        <ele>542.8</ele>
        <time>2020-08-16 11:06:34</time>
      </trkpt>
      <trkpt lat="39.95446" lon="-4.40232">
        <ele>542.8</ele>
        <time>2020-08-16 11:06:35</time>
      </trkpt>
      <trkpt lat="39.95445" lon="-4.40233">
        <ele>543</ele>
        <time>2020-08-16 11:06:36</time>
      </trkpt>
      <trkpt lat="39.95444" lon="-4.40235">
        <ele>543</ele>
        <time>2020-08-16 11:06:37</time>
      </trkpt>
      <trkpt lat="39.95443" lon="-4.40236">
        <ele>543</ele>
        <time>2020-08-16 11:06:38</time>
      </trkpt>
      <trkpt lat="39.95443" lon="-4.40236">
        <ele>543</ele>
        <time>2020-08-16 11:06:39</time>
      </trkpt>
      <trkpt lat="39.95442" lon="-4.40237">
        <ele>543.2</ele>
        <time>2020-08-16 11:06:40</time>
      </trkpt>
      <trkpt lat="39.95441" lon="-4.40239">
        <ele>543.2</ele>
        <time>2020-08-16 11:06:41</time>
      </trkpt>
      <trkpt lat="39.9544" lon="-4.4024">
        <ele>543.2</ele>
        <time>2020-08-16 11:06:42</time>
      </trkpt>
      <trkpt lat="39.9544" lon="-4.40241">
        <ele>543.2</ele>
        <time>2020-08-16 11:06:43</time>
      </trkpt>
      <trkpt lat="39.95439" lon="-4.40243">
        <ele>543.2</ele>
        <time>2020-08-16 11:06:44</time>
      </trkpt>
      <trkpt lat="39.95438" lon="-4.40244">
        <ele>543.2</ele>
        <time>2020-08-16 11:06:45</time>
      </trkpt>
      <trkpt lat="39.95437" lon="-4.40247">
        <ele>543.2</ele>
        <time>2020-08-16 11:06:47</time>
      </trkpt>
      <trkpt lat="39.95436" lon="-4.4025">
        <ele>543.4</ele>
        <time>2020-08-16 11:06:49</time>
      </trkpt>
      <trkpt lat="39.95433" lon="-4.40254">
        <ele>543.4</ele>
        <time>2020-08-16 11:06:51</time>
      </trkpt>
      <trkpt lat="39.95431" lon="-4.40255">
        <ele>543.6</ele>
        <time>2020-08-16 11:06:52</time>
      </trkpt>
      <trkpt lat="39.9543" lon="-4.40257">
        <ele>543.6</ele>
        <time>2020-08-16 11:06:53</time>
      </trkpt>
      <trkpt lat="39.95424" lon="-4.40268">
        <ele>543.8</ele>
        <time>2020-08-16 11:06:58</time>
      </trkpt>
      <trkpt lat="39.95423" lon="-4.4027">
        <ele>543.8</ele>
        <time>2020-08-16 11:06:59</time>
      </trkpt>
      <trkpt lat="39.95422" lon="-4.40271">
        <ele>543.8</ele>
        <time>2020-08-16 11:07:00</time>
      </trkpt>
      <trkpt lat="39.95421" lon="-4.40272">
        <ele>543.8</ele>
        <time>2020-08-16 11:07:01</time>
      </trkpt>
      <trkpt lat="39.9542" lon="-4.40274">
        <ele>544</ele>
        <time>2020-08-16 11:07:02</time>
      </trkpt>
      <trkpt lat="39.95419" lon="-4.40276">
        <ele>544</ele>
        <time>2020-08-16 11:07:03</time>
      </trkpt>
      <trkpt lat="39.95417" lon="-4.40278">
        <ele>544</ele>
        <time>2020-08-16 11:07:04</time>
      </trkpt>
      <trkpt lat="39.95416" lon="-4.40279">
        <ele>544</ele>
        <time>2020-08-16 11:07:05</time>
      </trkpt>
      <trkpt lat="39.95414" lon="-4.40281">
        <ele>544</ele>
        <time>2020-08-16 11:07:06</time>
      </trkpt>
      <trkpt lat="39.95413" lon="-4.40282">
        <ele>544</ele>
        <time>2020-08-16 11:07:07</time>
      </trkpt>
      <trkpt lat="39.95412" lon="-4.40283">
        <ele>544.2</ele>
        <time>2020-08-16 11:07:08</time>
      </trkpt>
      <trkpt lat="39.9541" lon="-4.40285">
        <ele>544.2</ele>
        <time>2020-08-16 11:07:09</time>
      </trkpt>
      <trkpt lat="39.95409" lon="-4.40286">
        <ele>544.2</ele>
        <time>2020-08-16 11:07:10</time>
      </trkpt>
      <trkpt lat="39.95409" lon="-4.40288">
        <ele>544.2</ele>
        <time>2020-08-16 11:07:11</time>
      </trkpt>
      <trkpt lat="39.95408" lon="-4.4029">
        <ele>544.2</ele>
        <time>2020-08-16 11:07:12</time>
      </trkpt>
      <trkpt lat="39.95406" lon="-4.40291">
        <ele>544.2</ele>
        <time>2020-08-16 11:07:13</time>
      </trkpt>
      <trkpt lat="39.95405" lon="-4.40292">
        <ele>544.2</ele>
        <time>2020-08-16 11:07:14</time>
      </trkpt>
      <trkpt lat="39.95404" lon="-4.40294">
        <ele>544</ele>
        <time>2020-08-16 11:07:15</time>
      </trkpt>
      <trkpt lat="39.95403" lon="-4.40295">
        <ele>544.2</ele>
        <time>2020-08-16 11:07:16</time>
      </trkpt>
      <trkpt lat="39.95402" lon="-4.40296">
        <ele>544.2</ele>
        <time>2020-08-16 11:07:17</time>
      </trkpt>
      <trkpt lat="39.954" lon="-4.40298">
        <ele>544.2</ele>
        <time>2020-08-16 11:07:18</time>
      </trkpt>
      <trkpt lat="39.95399" lon="-4.40299">
        <ele>544.2</ele>
        <time>2020-08-16 11:07:19</time>
      </trkpt>
      <trkpt lat="39.95398" lon="-4.40301">
        <ele>544.2</ele>
        <time>2020-08-16 11:07:20</time>
      </trkpt>
      <trkpt lat="39.95397" lon="-4.40302">
        <ele>544.2</ele>
        <time>2020-08-16 11:07:21</time>
      </trkpt>
      <trkpt lat="39.95395" lon="-4.40306">
        <ele>544.2</ele>
        <time>2020-08-16 11:07:23</time>
      </trkpt>
      <trkpt lat="39.95394" lon="-4.40308">
        <ele>544.2</ele>
        <time>2020-08-16 11:07:24</time>
      </trkpt>
      <trkpt lat="39.95392" lon="-4.40311">
        <ele>544.2</ele>
        <time>2020-08-16 11:07:26</time>
      </trkpt>
      <trkpt lat="39.95391" lon="-4.40312">
        <ele>544.2</ele>
        <time>2020-08-16 11:07:27</time>
      </trkpt>
      <trkpt lat="39.95387" lon="-4.40314">
        <ele>544.2</ele>
        <time>2020-08-16 11:07:30</time>
      </trkpt>
      <trkpt lat="39.95384" lon="-4.40315">
        <ele>544.2</ele>
        <time>2020-08-16 11:07:32</time>
      </trkpt>
      <trkpt lat="39.95383" lon="-4.40316">
        <ele>544.4</ele>
        <time>2020-08-16 11:07:33</time>
      </trkpt>
      <trkpt lat="39.95381" lon="-4.40317">
        <ele>544.4</ele>
        <time>2020-08-16 11:07:34</time>
      </trkpt>
      <trkpt lat="39.9538" lon="-4.40317">
        <ele>544.6</ele>
        <time>2020-08-16 11:07:35</time>
      </trkpt>
      <trkpt lat="39.95379" lon="-4.40317">
        <ele>544.6</ele>
        <time>2020-08-16 11:07:36</time>
      </trkpt>
      <trkpt lat="39.95377" lon="-4.40318">
        <ele>544.6</ele>
        <time>2020-08-16 11:07:37</time>
      </trkpt>
      <trkpt lat="39.95376" lon="-4.4032">
        <ele>544.6</ele>
        <time>2020-08-16 11:07:38</time>
      </trkpt>
      <trkpt lat="39.95374" lon="-4.40321">
        <ele>544.6</ele>
        <time>2020-08-16 11:07:39</time>
      </trkpt>
      <trkpt lat="39.95373" lon="-4.40322">
        <ele>544.6</ele>
        <time>2020-08-16 11:07:40</time>
      </trkpt>
      <trkpt lat="39.95372" lon="-4.40322">
        <ele>544.6</ele>
        <time>2020-08-16 11:07:41</time>
      </trkpt>
      <trkpt lat="39.95369" lon="-4.40324">
        <ele>544.8</ele>
        <time>2020-08-16 11:07:43</time>
      </trkpt>
      <trkpt lat="39.95368" lon="-4.40325">
        <ele>544.8</ele>
        <time>2020-08-16 11:07:44</time>
      </trkpt>
      <trkpt lat="39.95366" lon="-4.40327">
        <ele>544.8</ele>
        <time>2020-08-16 11:07:45</time>
      </trkpt>
      <trkpt lat="39.9536" lon="-4.40333">
        <ele>544.6</ele>
        <time>2020-08-16 11:07:48</time>
      </trkpt>
      <trkpt lat="39.95357" lon="-4.40335">
        <ele>544.6</ele>
        <time>2020-08-16 11:07:49</time>
      </trkpt>
      <trkpt lat="39.95352" lon="-4.40339">
        <ele>544.8</ele>
        <time>2020-08-16 11:07:51</time>
      </trkpt>
      <trkpt lat="39.95349" lon="-4.40341">
        <ele>545</ele>
        <time>2020-08-16 11:07:52</time>
      </trkpt>
      <trkpt lat="39.95347" lon="-4.40342">
        <ele>545</ele>
        <time>2020-08-16 11:07:53</time>
      </trkpt>
      <trkpt lat="39.95343" lon="-4.40347">
        <ele>545.2</ele>
        <time>2020-08-16 11:07:55</time>
      </trkpt>
      <trkpt lat="39.9534" lon="-4.40349">
        <ele>545.2</ele>
        <time>2020-08-16 11:07:56</time>
      </trkpt>
      <trkpt lat="39.95338" lon="-4.40351">
        <ele>545.4</ele>
        <time>2020-08-16 11:07:57</time>
      </trkpt>
      <trkpt lat="39.95335" lon="-4.40354">
        <ele>545.4</ele>
        <time>2020-08-16 11:07:58</time>
      </trkpt>
      <trkpt lat="39.9532" lon="-4.40369">
        <ele>545.6</ele>
        <time>2020-08-16 11:08:03</time>
      </trkpt>
      <trkpt lat="39.95318" lon="-4.40372">
        <ele>545.4</ele>
        <time>2020-08-16 11:08:04</time>
      </trkpt>
      <trkpt lat="39.95309" lon="-4.4038">
        <ele>545.6</ele>
        <time>2020-08-16 11:08:07</time>
      </trkpt>
      <trkpt lat="39.95306" lon="-4.40383">
        <ele>545.8</ele>
        <time>2020-08-16 11:08:08</time>
      </trkpt>
      <trkpt lat="39.95304" lon="-4.40386">
        <ele>546</ele>
        <time>2020-08-16 11:08:09</time>
      </trkpt>
      <trkpt lat="39.95301" lon="-4.40388">
        <ele>546</ele>
        <time>2020-08-16 11:08:10</time>
      </trkpt>
      <trkpt lat="39.95294" lon="-4.40397">
        <ele>546.2</ele>
        <time>2020-08-16 11:08:13</time>
      </trkpt>
      <trkpt lat="39.95289" lon="-4.40403">
        <ele>546.2</ele>
        <time>2020-08-16 11:08:15</time>
      </trkpt>
      <trkpt lat="39.95287" lon="-4.40405">
        <ele>546.4</ele>
        <time>2020-08-16 11:08:16</time>
      </trkpt>
      <trkpt lat="39.95285" lon="-4.40408">
        <ele>546.4</ele>
        <time>2020-08-16 11:08:17</time>
      </trkpt>
      <trkpt lat="39.95282" lon="-4.40411">
        <ele>546.6</ele>
        <time>2020-08-16 11:08:18</time>
      </trkpt>
      <trkpt lat="39.9528" lon="-4.40413">
        <ele>546.6</ele>
        <time>2020-08-16 11:08:19</time>
      </trkpt>
      <trkpt lat="39.95278" lon="-4.40416">
        <ele>546.6</ele>
        <time>2020-08-16 11:08:20</time>
      </trkpt>
      <trkpt lat="39.95275" lon="-4.40419">
        <ele>546.8</ele>
        <time>2020-08-16 11:08:21</time>
      </trkpt>
      <trkpt lat="39.95272" lon="-4.40423">
        <ele>547</ele>
        <time>2020-08-16 11:08:22</time>
      </trkpt>
      <trkpt lat="39.9527" lon="-4.40426">
        <ele>547.2</ele>
        <time>2020-08-16 11:08:23</time>
      </trkpt>
      <trkpt lat="39.95267" lon="-4.4043">
        <ele>547.2</ele>
        <time>2020-08-16 11:08:24</time>
      </trkpt>
      <trkpt lat="39.95264" lon="-4.40434">
        <ele>547.4</ele>
        <time>2020-08-16 11:08:25</time>
      </trkpt>
      <trkpt lat="39.95261" lon="-4.40437">
        <ele>547.4</ele>
        <time>2020-08-16 11:08:26</time>
      </trkpt>
      <trkpt lat="39.95258" lon="-4.4044">
        <ele>547.6</ele>
        <time>2020-08-16 11:08:27</time>
      </trkpt>
      <trkpt lat="39.95244" lon="-4.40458">
        <ele>547.6</ele>
        <time>2020-08-16 11:08:32</time>
      </trkpt>
      <trkpt lat="39.95236" lon="-4.40469">
        <ele>547.6</ele>
        <time>2020-08-16 11:08:35</time>
      </trkpt>
      <trkpt lat="39.95218" lon="-4.40498">
        <ele>547.4</ele>
        <time>2020-08-16 11:08:42</time>
      </trkpt>
      <trkpt lat="39.95195" lon="-4.40546">
        <ele>547</ele>
        <time>2020-08-16 11:08:52</time>
      </trkpt>
      <trkpt lat="39.95176" lon="-4.40586">
        <ele>547</ele>
        <time>2020-08-16 11:09:00</time>
      </trkpt>
      <trkpt lat="39.95174" lon="-4.40591">
        <ele>547</ele>
        <time>2020-08-16 11:09:01</time>
      </trkpt>
      <trkpt lat="39.95171" lon="-4.40596">
        <ele>547</ele>
        <time>2020-08-16 11:09:02</time>
      </trkpt>
      <trkpt lat="39.95168" lon="-4.406">
        <ele>547</ele>
        <time>2020-08-16 11:09:03</time>
      </trkpt>
      <trkpt lat="39.95166" lon="-4.40605">
        <ele>547</ele>
        <time>2020-08-16 11:09:04</time>
      </trkpt>
      <trkpt lat="39.95164" lon="-4.4061">
        <ele>547</ele>
        <time>2020-08-16 11:09:05</time>
      </trkpt>
      <trkpt lat="39.95162" lon="-4.40615">
        <ele>547</ele>
        <time>2020-08-16 11:09:06</time>
      </trkpt>
      <trkpt lat="39.95159" lon="-4.4062">
        <ele>547.2</ele>
        <time>2020-08-16 11:09:07</time>
      </trkpt>
      <trkpt lat="39.95157" lon="-4.40625">
        <ele>547.2</ele>
        <time>2020-08-16 11:09:08</time>
      </trkpt>
      <trkpt lat="39.95155" lon="-4.40629">
        <ele>547.6</ele>
        <time>2020-08-16 11:09:09</time>
      </trkpt>
      <trkpt lat="39.95153" lon="-4.40634">
        <ele>547.4</ele>
        <time>2020-08-16 11:09:10</time>
      </trkpt>
      <trkpt lat="39.95151" lon="-4.40639">
        <ele>547.4</ele>
        <time>2020-08-16 11:09:11</time>
      </trkpt>
      <trkpt lat="39.95148" lon="-4.40644">
        <ele>547.4</ele>
        <time>2020-08-16 11:09:12</time>
      </trkpt>
      <trkpt lat="39.95146" lon="-4.40649">
        <ele>547.4</ele>
        <time>2020-08-16 11:09:13</time>
      </trkpt>
      <trkpt lat="39.95144" lon="-4.40653">
        <ele>547.4</ele>
        <time>2020-08-16 11:09:14</time>
      </trkpt>
      <trkpt lat="39.95137" lon="-4.40668">
        <ele>547.4</ele>
        <time>2020-08-16 11:09:17</time>
      </trkpt>
      <trkpt lat="39.95135" lon="-4.40673">
        <ele>547.4</ele>
        <time>2020-08-16 11:09:18</time>
      </trkpt>
      <trkpt lat="39.9513" lon="-4.40682">
        <ele>547.4</ele>
        <time>2020-08-16 11:09:20</time>
      </trkpt>
      <trkpt lat="39.95128" lon="-4.40687">
        <ele>547.4</ele>
        <time>2020-08-16 11:09:21</time>
      </trkpt>
      <trkpt lat="39.95125" lon="-4.40691">
        <ele>547.4</ele>
        <time>2020-08-16 11:09:22</time>
      </trkpt>
      <trkpt lat="39.95123" lon="-4.40696">
        <ele>547.6</ele>
        <time>2020-08-16 11:09:23</time>
      </trkpt>
      <trkpt lat="39.9512" lon="-4.407">
        <ele>547.6</ele>
        <time>2020-08-16 11:09:24</time>
      </trkpt>
      <trkpt lat="39.95118" lon="-4.40705">
        <ele>547.8</ele>
        <time>2020-08-16 11:09:25</time>
      </trkpt>
      <trkpt lat="39.95116" lon="-4.4071">
        <ele>547.8</ele>
        <time>2020-08-16 11:09:26</time>
      </trkpt>
      <trkpt lat="39.95113" lon="-4.40714">
        <ele>547.8</ele>
        <time>2020-08-16 11:09:27</time>
      </trkpt>
      <trkpt lat="39.95111" lon="-4.40719">
        <ele>547.8</ele>
        <time>2020-08-16 11:09:28</time>
      </trkpt>
      <trkpt lat="39.95108" lon="-4.40723">
        <ele>547.8</ele>
        <time>2020-08-16 11:09:29</time>
      </trkpt>
      <trkpt lat="39.95106" lon="-4.40728">
        <ele>548</ele>
        <time>2020-08-16 11:09:30</time>
      </trkpt>
      <trkpt lat="39.95104" lon="-4.40732">
        <ele>548</ele>
        <time>2020-08-16 11:09:31</time>
      </trkpt>
      <trkpt lat="39.95101" lon="-4.40737">
        <ele>548</ele>
        <time>2020-08-16 11:09:32</time>
      </trkpt>
      <trkpt lat="39.95099" lon="-4.40741">
        <ele>548</ele>
        <time>2020-08-16 11:09:33</time>
      </trkpt>
      <trkpt lat="39.95096" lon="-4.40745">
        <ele>548.2</ele>
        <time>2020-08-16 11:09:34</time>
      </trkpt>
      <trkpt lat="39.95094" lon="-4.4075">
        <ele>548.4</ele>
        <time>2020-08-16 11:09:35</time>
      </trkpt>
      <trkpt lat="39.95092" lon="-4.40754">
        <ele>548.4</ele>
        <time>2020-08-16 11:09:36</time>
      </trkpt>
      <trkpt lat="39.95089" lon="-4.40758">
        <ele>548.4</ele>
        <time>2020-08-16 11:09:37</time>
      </trkpt>
      <trkpt lat="39.95086" lon="-4.40762">
        <ele>548.4</ele>
        <time>2020-08-16 11:09:38</time>
      </trkpt>
      <trkpt lat="39.95084" lon="-4.40767">
        <ele>548.6</ele>
        <time>2020-08-16 11:09:39</time>
      </trkpt>
      <trkpt lat="39.95081" lon="-4.4077">
        <ele>548.6</ele>
        <time>2020-08-16 11:09:40</time>
      </trkpt>
      <trkpt lat="39.95078" lon="-4.40774">
        <ele>548.6</ele>
        <time>2020-08-16 11:09:41</time>
      </trkpt>
      <trkpt lat="39.95075" lon="-4.40779">
        <ele>548.6</ele>
        <time>2020-08-16 11:09:42</time>
      </trkpt>
      <trkpt lat="39.95072" lon="-4.40782">
        <ele>548.6</ele>
        <time>2020-08-16 11:09:43</time>
      </trkpt>
      <trkpt lat="39.95069" lon="-4.40786">
        <ele>548.6</ele>
        <time>2020-08-16 11:09:44</time>
      </trkpt>
      <trkpt lat="39.95066" lon="-4.4079">
        <ele>548.6</ele>
        <time>2020-08-16 11:09:45</time>
      </trkpt>
      <trkpt lat="39.95064" lon="-4.40793">
        <ele>548.6</ele>
        <time>2020-08-16 11:09:46</time>
      </trkpt>
      <trkpt lat="39.95061" lon="-4.40797">
        <ele>548.8</ele>
        <time>2020-08-16 11:09:47</time>
      </trkpt>
      <trkpt lat="39.95058" lon="-4.408">
        <ele>549</ele>
        <time>2020-08-16 11:09:48</time>
      </trkpt>
      <trkpt lat="39.95055" lon="-4.40803">
        <ele>549.2</ele>
        <time>2020-08-16 11:09:49</time>
      </trkpt>
      <trkpt lat="39.95052" lon="-4.40806">
        <ele>549.2</ele>
        <time>2020-08-16 11:09:50</time>
      </trkpt>
      <trkpt lat="39.95049" lon="-4.4081">
        <ele>549.4</ele>
        <time>2020-08-16 11:09:51</time>
      </trkpt>
      <trkpt lat="39.95046" lon="-4.40813">
        <ele>549.6</ele>
        <time>2020-08-16 11:09:52</time>
      </trkpt>
      <trkpt lat="39.95044" lon="-4.40816">
        <ele>549.6</ele>
        <time>2020-08-16 11:09:53</time>
      </trkpt>
      <trkpt lat="39.95041" lon="-4.40819">
        <ele>549.8</ele>
        <time>2020-08-16 11:09:54</time>
      </trkpt>
      <trkpt lat="39.95038" lon="-4.40822">
        <ele>549.8</ele>
        <time>2020-08-16 11:09:55</time>
      </trkpt>
      <trkpt lat="39.95034" lon="-4.40825">
        <ele>549.8</ele>
        <time>2020-08-16 11:09:56</time>
      </trkpt>
      <trkpt lat="39.95031" lon="-4.40829">
        <ele>549.8</ele>
        <time>2020-08-16 11:09:57</time>
      </trkpt>
      <trkpt lat="39.95028" lon="-4.40832">
        <ele>550</ele>
        <time>2020-08-16 11:09:58</time>
      </trkpt>
      <trkpt lat="39.95025" lon="-4.40835">
        <ele>550</ele>
        <time>2020-08-16 11:09:59</time>
      </trkpt>
      <trkpt lat="39.95022" lon="-4.40838">
        <ele>550</ele>
        <time>2020-08-16 11:10:00</time>
      </trkpt>
      <trkpt lat="39.95018" lon="-4.4084">
        <ele>550.2</ele>
        <time>2020-08-16 11:10:01</time>
      </trkpt>
      <trkpt lat="39.95015" lon="-4.40843">
        <ele>550.2</ele>
        <time>2020-08-16 11:10:02</time>
      </trkpt>
      <trkpt lat="39.95012" lon="-4.40846">
        <ele>550.4</ele>
        <time>2020-08-16 11:10:03</time>
      </trkpt>
      <trkpt lat="39.95009" lon="-4.40849">
        <ele>550.4</ele>
        <time>2020-08-16 11:10:04</time>
      </trkpt>
      <trkpt lat="39.95006" lon="-4.40852">
        <ele>550.6</ele>
        <time>2020-08-16 11:10:05</time>
      </trkpt>
      <trkpt lat="39.95004" lon="-4.40855">
        <ele>550.6</ele>
        <time>2020-08-16 11:10:06</time>
      </trkpt>
      <trkpt lat="39.95001" lon="-4.40859">
        <ele>550.8</ele>
        <time>2020-08-16 11:10:07</time>
      </trkpt>
      <trkpt lat="39.94998" lon="-4.40862">
        <ele>551</ele>
        <time>2020-08-16 11:10:08</time>
      </trkpt>
      <trkpt lat="39.94994" lon="-4.40865">
        <ele>551</ele>
        <time>2020-08-16 11:10:09</time>
      </trkpt>
      <trkpt lat="39.94991" lon="-4.40868">
        <ele>551.2</ele>
        <time>2020-08-16 11:10:10</time>
      </trkpt>
      <trkpt lat="39.94988" lon="-4.40871">
        <ele>551.4</ele>
        <time>2020-08-16 11:10:11</time>
      </trkpt>
      <trkpt lat="39.94985" lon="-4.40874">
        <ele>551.4</ele>
        <time>2020-08-16 11:10:12</time>
      </trkpt>
      <trkpt lat="39.94982" lon="-4.40877">
        <ele>551.6</ele>
        <time>2020-08-16 11:10:13</time>
      </trkpt>
      <trkpt lat="39.94979" lon="-4.4088">
        <ele>551.6</ele>
        <time>2020-08-16 11:10:14</time>
      </trkpt>
      <trkpt lat="39.94976" lon="-4.40883">
        <ele>552</ele>
        <time>2020-08-16 11:10:15</time>
      </trkpt>
      <trkpt lat="39.94973" lon="-4.40886">
        <ele>552.2</ele>
        <time>2020-08-16 11:10:16</time>
      </trkpt>
      <trkpt lat="39.9497" lon="-4.40889">
        <ele>552.4</ele>
        <time>2020-08-16 11:10:17</time>
      </trkpt>
      <trkpt lat="39.94967" lon="-4.40892">
        <ele>552.6</ele>
        <time>2020-08-16 11:10:18</time>
      </trkpt>
      <trkpt lat="39.94963" lon="-4.40895">
        <ele>552.6</ele>
        <time>2020-08-16 11:10:19</time>
      </trkpt>
      <trkpt lat="39.9496" lon="-4.40898">
        <ele>552.8</ele>
        <time>2020-08-16 11:10:20</time>
      </trkpt>
      <trkpt lat="39.94957" lon="-4.40901">
        <ele>552.8</ele>
        <time>2020-08-16 11:10:21</time>
      </trkpt>
      <trkpt lat="39.94954" lon="-4.40904">
        <ele>553</ele>
        <time>2020-08-16 11:10:22</time>
      </trkpt>
      <trkpt lat="39.94951" lon="-4.40907">
        <ele>553.2</ele>
        <time>2020-08-16 11:10:23</time>
      </trkpt>
      <trkpt lat="39.94948" lon="-4.4091">
        <ele>553.2</ele>
        <time>2020-08-16 11:10:24</time>
      </trkpt>
      <trkpt lat="39.94946" lon="-4.40913">
        <ele>553.4</ele>
        <time>2020-08-16 11:10:25</time>
      </trkpt>
      <trkpt lat="39.94943" lon="-4.40916">
        <ele>553.4</ele>
        <time>2020-08-16 11:10:26</time>
      </trkpt>
      <trkpt lat="39.9494" lon="-4.40919">
        <ele>553.6</ele>
        <time>2020-08-16 11:10:27</time>
      </trkpt>
      <trkpt lat="39.94937" lon="-4.40922">
        <ele>554</ele>
        <time>2020-08-16 11:10:28</time>
      </trkpt>
      <trkpt lat="39.94934" lon="-4.40925">
        <ele>554</ele>
        <time>2020-08-16 11:10:29</time>
      </trkpt>
      <trkpt lat="39.94932" lon="-4.40928">
        <ele>554.2</ele>
        <time>2020-08-16 11:10:30</time>
      </trkpt>
      <trkpt lat="39.94929" lon="-4.40931">
        <ele>554.2</ele>
        <time>2020-08-16 11:10:31</time>
      </trkpt>
      <trkpt lat="39.94926" lon="-4.40934">
        <ele>554.4</ele>
        <time>2020-08-16 11:10:32</time>
      </trkpt>
      <trkpt lat="39.94924" lon="-4.40936">
        <ele>554.6</ele>
        <time>2020-08-16 11:10:33</time>
      </trkpt>
      <trkpt lat="39.94921" lon="-4.40939">
        <ele>554.8</ele>
        <time>2020-08-16 11:10:34</time>
      </trkpt>
      <trkpt lat="39.94919" lon="-4.40942">
        <ele>555</ele>
        <time>2020-08-16 11:10:35</time>
      </trkpt>
      <trkpt lat="39.94916" lon="-4.40945">
        <ele>555</ele>
        <time>2020-08-16 11:10:36</time>
      </trkpt>
      <trkpt lat="39.94913" lon="-4.40948">
        <ele>555.2</ele>
        <time>2020-08-16 11:10:37</time>
      </trkpt>
      <trkpt lat="39.94911" lon="-4.40951">
        <ele>555.2</ele>
        <time>2020-08-16 11:10:38</time>
      </trkpt>
      <trkpt lat="39.94908" lon="-4.40955">
        <ele>555.4</ele>
        <time>2020-08-16 11:10:39</time>
      </trkpt>
      <trkpt lat="39.94905" lon="-4.40958">
        <ele>555.6</ele>
        <time>2020-08-16 11:10:40</time>
      </trkpt>
      <trkpt lat="39.94903" lon="-4.40961">
        <ele>555.6</ele>
        <time>2020-08-16 11:10:41</time>
      </trkpt>
      <trkpt lat="39.949" lon="-4.40964">
        <ele>555.6</ele>
        <time>2020-08-16 11:10:42</time>
      </trkpt>
      <trkpt lat="39.94897" lon="-4.40967">
        <ele>555.8</ele>
        <time>2020-08-16 11:10:43</time>
      </trkpt>
      <trkpt lat="39.94895" lon="-4.40971">
        <ele>555.8</ele>
        <time>2020-08-16 11:10:44</time>
      </trkpt>
      <trkpt lat="39.94892" lon="-4.40974">
        <ele>556</ele>
        <time>2020-08-16 11:10:45</time>
      </trkpt>
      <trkpt lat="39.94889" lon="-4.40978">
        <ele>556.2</ele>
        <time>2020-08-16 11:10:46</time>
      </trkpt>
      <trkpt lat="39.94886" lon="-4.40982">
        <ele>556.2</ele>
        <time>2020-08-16 11:10:47</time>
      </trkpt>
      <trkpt lat="39.94883" lon="-4.40986">
        <ele>556.2</ele>
        <time>2020-08-16 11:10:48</time>
      </trkpt>
      <trkpt lat="39.94881" lon="-4.4099">
        <ele>556.4</ele>
        <time>2020-08-16 11:10:49</time>
      </trkpt>
      <trkpt lat="39.94878" lon="-4.40994">
        <ele>556.8</ele>
        <time>2020-08-16 11:10:50</time>
      </trkpt>
      <trkpt lat="39.94876" lon="-4.40999">
        <ele>556.8</ele>
        <time>2020-08-16 11:10:51</time>
      </trkpt>
      <trkpt lat="39.94874" lon="-4.41003">
        <ele>556.6</ele>
        <time>2020-08-16 11:10:52</time>
      </trkpt>
      <trkpt lat="39.94872" lon="-4.41007">
        <ele>556.8</ele>
        <time>2020-08-16 11:10:53</time>
      </trkpt>
      <trkpt lat="39.94856" lon="-4.41036">
        <ele>556.6</ele>
        <time>2020-08-16 11:10:59</time>
      </trkpt>
      <trkpt lat="39.94848" lon="-4.4105">
        <ele>556.6</ele>
        <time>2020-08-16 11:11:02</time>
      </trkpt>
      <trkpt lat="39.94835" lon="-4.41076">
        <ele>556.8</ele>
        <time>2020-08-16 11:11:07</time>
      </trkpt>
      <trkpt lat="39.94824" lon="-4.41096">
        <ele>556.4</ele>
        <time>2020-08-16 11:11:11</time>
      </trkpt>
      <trkpt lat="39.94822" lon="-4.41102">
        <ele>556.4</ele>
        <time>2020-08-16 11:11:12</time>
      </trkpt>
      <trkpt lat="39.94801" lon="-4.41135">
        <ele>556.4</ele>
        <time>2020-08-16 11:11:19</time>
      </trkpt>
      <trkpt lat="39.94782" lon="-4.41157">
        <ele>556.2</ele>
        <time>2020-08-16 11:11:24</time>
      </trkpt>
      <trkpt lat="39.94771" lon="-4.41171">
        <ele>556</ele>
        <time>2020-08-16 11:11:27</time>
      </trkpt>
      <trkpt lat="39.9476" lon="-4.41185">
        <ele>556.2</ele>
        <time>2020-08-16 11:11:30</time>
      </trkpt>
      <trkpt lat="39.94748" lon="-4.41199">
        <ele>555.8</ele>
        <time>2020-08-16 11:11:33</time>
      </trkpt>
      <trkpt lat="39.94728" lon="-4.41223">
        <ele>555</ele>
        <time>2020-08-16 11:11:38</time>
      </trkpt>
      <trkpt lat="39.94716" lon="-4.41237">
        <ele>554.8</ele>
        <time>2020-08-16 11:11:41</time>
      </trkpt>
      <trkpt lat="39.94708" lon="-4.41246">
        <ele>554.8</ele>
        <time>2020-08-16 11:11:43</time>
      </trkpt>
      <trkpt lat="39.94695" lon="-4.4126">
        <ele>554.6</ele>
        <time>2020-08-16 11:11:46</time>
      </trkpt>
      <trkpt lat="39.94678" lon="-4.4128">
        <ele>554</ele>
        <time>2020-08-16 11:11:50</time>
      </trkpt>
      <trkpt lat="39.94663" lon="-4.41308">
        <ele>554</ele>
        <time>2020-08-16 11:11:55</time>
      </trkpt>
      <trkpt lat="39.9466" lon="-4.41314">
        <ele>554</ele>
        <time>2020-08-16 11:11:56</time>
      </trkpt>
      <trkpt lat="39.94658" lon="-4.41319">
        <ele>553.8</ele>
        <time>2020-08-16 11:11:57</time>
      </trkpt>
      <trkpt lat="39.94655" lon="-4.41325">
        <ele>553.8</ele>
        <time>2020-08-16 11:11:58</time>
      </trkpt>
      <trkpt lat="39.94652" lon="-4.41331">
        <ele>554</ele>
        <time>2020-08-16 11:11:59</time>
      </trkpt>
      <trkpt lat="39.9465" lon="-4.41337">
        <ele>553.8</ele>
        <time>2020-08-16 11:12:00</time>
      </trkpt>
      <trkpt lat="39.94647" lon="-4.41343">
        <ele>553.8</ele>
        <time>2020-08-16 11:12:01</time>
      </trkpt>
      <trkpt lat="39.94645" lon="-4.41348">
        <ele>553.6</ele>
        <time>2020-08-16 11:12:02</time>
      </trkpt>
      <trkpt lat="39.94642" lon="-4.41354">
        <ele>553.6</ele>
        <time>2020-08-16 11:12:03</time>
      </trkpt>
      <trkpt lat="39.9464" lon="-4.41359">
        <ele>553.8</ele>
        <time>2020-08-16 11:12:04</time>
      </trkpt>
      <trkpt lat="39.94637" lon="-4.41365">
        <ele>553.8</ele>
        <time>2020-08-16 11:12:05</time>
      </trkpt>
      <trkpt lat="39.94634" lon="-4.41371">
        <ele>553.8</ele>
        <time>2020-08-16 11:12:06</time>
      </trkpt>
      <trkpt lat="39.94632" lon="-4.41376">
        <ele>553.8</ele>
        <time>2020-08-16 11:12:07</time>
      </trkpt>
      <trkpt lat="39.94629" lon="-4.41381">
        <ele>554</ele>
        <time>2020-08-16 11:12:08</time>
      </trkpt>
      <trkpt lat="39.94627" lon="-4.41387">
        <ele>554</ele>
        <time>2020-08-16 11:12:09</time>
      </trkpt>
      <trkpt lat="39.94625" lon="-4.41392">
        <ele>554</ele>
        <time>2020-08-16 11:12:10</time>
      </trkpt>
      <trkpt lat="39.94622" lon="-4.41398">
        <ele>554</ele>
        <time>2020-08-16 11:12:11</time>
      </trkpt>
      <trkpt lat="39.9462" lon="-4.41403">
        <ele>554</ele>
        <time>2020-08-16 11:12:12</time>
      </trkpt>
      <trkpt lat="39.94618" lon="-4.41408">
        <ele>554</ele>
        <time>2020-08-16 11:12:13</time>
      </trkpt>
      <trkpt lat="39.94615" lon="-4.41414">
        <ele>554.2</ele>
        <time>2020-08-16 11:12:14</time>
      </trkpt>
      <trkpt lat="39.94613" lon="-4.4142">
        <ele>554.2</ele>
        <time>2020-08-16 11:12:15</time>
      </trkpt>
      <trkpt lat="39.94612" lon="-4.41426">
        <ele>554.2</ele>
        <time>2020-08-16 11:12:16</time>
      </trkpt>
      <trkpt lat="39.9461" lon="-4.41432">
        <ele>554.2</ele>
        <time>2020-08-16 11:12:17</time>
      </trkpt>
      <trkpt lat="39.94608" lon="-4.41438">
        <ele>554.2</ele>
        <time>2020-08-16 11:12:18</time>
      </trkpt>
      <trkpt lat="39.94607" lon="-4.41444">
        <ele>554.4</ele>
        <time>2020-08-16 11:12:19</time>
      </trkpt>
      <trkpt lat="39.94606" lon="-4.41449">
        <ele>554.4</ele>
        <time>2020-08-16 11:12:20</time>
      </trkpt>
      <trkpt lat="39.94604" lon="-4.41455">
        <ele>554.4</ele>
        <time>2020-08-16 11:12:21</time>
      </trkpt>
      <trkpt lat="39.94603" lon="-4.41461">
        <ele>554.6</ele>
        <time>2020-08-16 11:12:22</time>
      </trkpt>
      <trkpt lat="39.94602" lon="-4.41467">
        <ele>554.6</ele>
        <time>2020-08-16 11:12:23</time>
      </trkpt>
      <trkpt lat="39.94601" lon="-4.41473">
        <ele>554.6</ele>
        <time>2020-08-16 11:12:24</time>
      </trkpt>
      <trkpt lat="39.946" lon="-4.41479">
        <ele>554.6</ele>
        <time>2020-08-16 11:12:25</time>
      </trkpt>
      <trkpt lat="39.94599" lon="-4.41485">
        <ele>554.8</ele>
        <time>2020-08-16 11:12:26</time>
      </trkpt>
      <trkpt lat="39.94598" lon="-4.41491">
        <ele>554.8</ele>
        <time>2020-08-16 11:12:27</time>
      </trkpt>
      <trkpt lat="39.94596" lon="-4.41497">
        <ele>555</ele>
        <time>2020-08-16 11:12:28</time>
      </trkpt>
      <trkpt lat="39.94595" lon="-4.41503">
        <ele>555</ele>
        <time>2020-08-16 11:12:29</time>
      </trkpt>
      <trkpt lat="39.94594" lon="-4.41508">
        <ele>555</ele>
        <time>2020-08-16 11:12:30</time>
      </trkpt>
      <trkpt lat="39.94593" lon="-4.41514">
        <ele>555.2</ele>
        <time>2020-08-16 11:12:31</time>
      </trkpt>
      <trkpt lat="39.94591" lon="-4.41526">
        <ele>555.4</ele>
        <time>2020-08-16 11:12:33</time>
      </trkpt>
      <trkpt lat="39.94589" lon="-4.41538">
        <ele>555.6</ele>
        <time>2020-08-16 11:12:35</time>
      </trkpt>
      <trkpt lat="39.94589" lon="-4.41545">
        <ele>555.8</ele>
        <time>2020-08-16 11:12:36</time>
      </trkpt>
      <trkpt lat="39.94588" lon="-4.41551">
        <ele>555.8</ele>
        <time>2020-08-16 11:12:37</time>
      </trkpt>
      <trkpt lat="39.94587" lon="-4.41557">
        <ele>555.8</ele>
        <time>2020-08-16 11:12:38</time>
      </trkpt>
      <trkpt lat="39.94586" lon="-4.41563">
        <ele>556</ele>
        <time>2020-08-16 11:12:39</time>
      </trkpt>
      <trkpt lat="39.94584" lon="-4.41568">
        <ele>556</ele>
        <time>2020-08-16 11:12:40</time>
      </trkpt>
      <trkpt lat="39.94583" lon="-4.41574">
        <ele>556</ele>
        <time>2020-08-16 11:12:41</time>
      </trkpt>
      <trkpt lat="39.94578" lon="-4.41591">
        <ele>556.4</ele>
        <time>2020-08-16 11:12:44</time>
      </trkpt>
      <trkpt lat="39.94577" lon="-4.41597">
        <ele>556.4</ele>
        <time>2020-08-16 11:12:45</time>
      </trkpt>
      <trkpt lat="39.94576" lon="-4.41603">
        <ele>556.4</ele>
        <time>2020-08-16 11:12:46</time>
      </trkpt>
      <trkpt lat="39.94575" lon="-4.41609">
        <ele>556.4</ele>
        <time>2020-08-16 11:12:47</time>
      </trkpt>
      <trkpt lat="39.94573" lon="-4.41615">
        <ele>556.6</ele>
        <time>2020-08-16 11:12:48</time>
      </trkpt>
      <trkpt lat="39.94572" lon="-4.41621">
        <ele>556.6</ele>
        <time>2020-08-16 11:12:49</time>
      </trkpt>
      <trkpt lat="39.94571" lon="-4.41627">
        <ele>556.6</ele>
        <time>2020-08-16 11:12:50</time>
      </trkpt>
      <trkpt lat="39.94569" lon="-4.41633">
        <ele>556.6</ele>
        <time>2020-08-16 11:12:51</time>
      </trkpt>
      <trkpt lat="39.94568" lon="-4.41638">
        <ele>556.4</ele>
        <time>2020-08-16 11:12:52</time>
      </trkpt>
      <trkpt lat="39.94567" lon="-4.41644">
        <ele>556.4</ele>
        <time>2020-08-16 11:12:53</time>
      </trkpt>
      <trkpt lat="39.94565" lon="-4.4165">
        <ele>556.4</ele>
        <time>2020-08-16 11:12:54</time>
      </trkpt>
      <trkpt lat="39.94564" lon="-4.41656">
        <ele>556.4</ele>
        <time>2020-08-16 11:12:55</time>
      </trkpt>
      <trkpt lat="39.94564" lon="-4.41662">
        <ele>556.4</ele>
        <time>2020-08-16 11:12:56</time>
      </trkpt>
      <trkpt lat="39.94563" lon="-4.41668">
        <ele>556.6</ele>
        <time>2020-08-16 11:12:57</time>
      </trkpt>
      <trkpt lat="39.94562" lon="-4.41674">
        <ele>556.6</ele>
        <time>2020-08-16 11:12:58</time>
      </trkpt>
      <trkpt lat="39.9456" lon="-4.41692">
        <ele>556.6</ele>
        <time>2020-08-16 11:13:01</time>
      </trkpt>
      <trkpt lat="39.94558" lon="-4.41704">
        <ele>556.6</ele>
        <time>2020-08-16 11:13:03</time>
      </trkpt>
      <trkpt lat="39.94557" lon="-4.4171">
        <ele>556.6</ele>
        <time>2020-08-16 11:13:04</time>
      </trkpt>
      <trkpt lat="39.94554" lon="-4.41728">
        <ele>557</ele>
        <time>2020-08-16 11:13:07</time>
      </trkpt>
      <trkpt lat="39.94551" lon="-4.41746">
        <ele>557.4</ele>
        <time>2020-08-16 11:13:10</time>
      </trkpt>
      <trkpt lat="39.9455" lon="-4.41751">
        <ele>557.4</ele>
        <time>2020-08-16 11:13:11</time>
      </trkpt>
      <trkpt lat="39.94549" lon="-4.41757">
        <ele>557.6</ele>
        <time>2020-08-16 11:13:12</time>
      </trkpt>
      <trkpt lat="39.94548" lon="-4.41763">
        <ele>557.6</ele>
        <time>2020-08-16 11:13:13</time>
      </trkpt>
      <trkpt lat="39.94546" lon="-4.41769">
        <ele>557.8</ele>
        <time>2020-08-16 11:13:14</time>
      </trkpt>
      <trkpt lat="39.94545" lon="-4.41774">
        <ele>557.8</ele>
        <time>2020-08-16 11:13:15</time>
      </trkpt>
      <trkpt lat="39.94544" lon="-4.4178">
        <ele>557.8</ele>
        <time>2020-08-16 11:13:16</time>
      </trkpt>
      <trkpt lat="39.94542" lon="-4.41786">
        <ele>558</ele>
        <time>2020-08-16 11:13:17</time>
      </trkpt>
      <trkpt lat="39.94541" lon="-4.41791">
        <ele>558</ele>
        <time>2020-08-16 11:13:18</time>
      </trkpt>
      <trkpt lat="39.9454" lon="-4.41797">
        <ele>558</ele>
        <time>2020-08-16 11:13:19</time>
      </trkpt>
      <trkpt lat="39.94535" lon="-4.41819">
        <ele>558.2</ele>
        <time>2020-08-16 11:13:23</time>
      </trkpt>
      <trkpt lat="39.94535" lon="-4.41825">
        <ele>558.2</ele>
        <time>2020-08-16 11:13:24</time>
      </trkpt>
      <trkpt lat="39.94534" lon="-4.4183">
        <ele>558.4</ele>
        <time>2020-08-16 11:13:25</time>
      </trkpt>
      <trkpt lat="39.94534" lon="-4.41836">
        <ele>558.4</ele>
        <time>2020-08-16 11:13:26</time>
      </trkpt>
      <trkpt lat="39.94534" lon="-4.41842">
        <ele>558.6</ele>
        <time>2020-08-16 11:13:27</time>
      </trkpt>
      <trkpt lat="39.94534" lon="-4.41848">
        <ele>558.8</ele>
        <time>2020-08-16 11:13:28</time>
      </trkpt>
      <trkpt lat="39.94533" lon="-4.41853">
        <ele>558.8</ele>
        <time>2020-08-16 11:13:29</time>
      </trkpt>
      <trkpt lat="39.94533" lon="-4.41858">
        <ele>558.8</ele>
        <time>2020-08-16 11:13:30</time>
      </trkpt>
      <trkpt lat="39.94533" lon="-4.41864">
        <ele>558.8</ele>
        <time>2020-08-16 11:13:31</time>
      </trkpt>
      <trkpt lat="39.94532" lon="-4.4187">
        <ele>558.8</ele>
        <time>2020-08-16 11:13:32</time>
      </trkpt>
      <trkpt lat="39.94532" lon="-4.41875">
        <ele>558.8</ele>
        <time>2020-08-16 11:13:33</time>
      </trkpt>
      <trkpt lat="39.94532" lon="-4.41881">
        <ele>559</ele>
        <time>2020-08-16 11:13:34</time>
      </trkpt>
      <trkpt lat="39.94531" lon="-4.41887">
        <ele>559</ele>
        <time>2020-08-16 11:13:35</time>
      </trkpt>
      <trkpt lat="39.94531" lon="-4.41892">
        <ele>559</ele>
        <time>2020-08-16 11:13:36</time>
      </trkpt>
      <trkpt lat="39.9453" lon="-4.41899">
        <ele>559</ele>
        <time>2020-08-16 11:13:37</time>
      </trkpt>
      <trkpt lat="39.94529" lon="-4.41904">
        <ele>559</ele>
        <time>2020-08-16 11:13:38</time>
      </trkpt>
      <trkpt lat="39.94527" lon="-4.41916">
        <ele>559</ele>
        <time>2020-08-16 11:13:40</time>
      </trkpt>
      <trkpt lat="39.94524" lon="-4.41927">
        <ele>559.2</ele>
        <time>2020-08-16 11:13:42</time>
      </trkpt>
      <trkpt lat="39.94523" lon="-4.41932">
        <ele>559.2</ele>
        <time>2020-08-16 11:13:43</time>
      </trkpt>
      <trkpt lat="39.94517" lon="-4.41961">
        <ele>559.8</ele>
        <time>2020-08-16 11:13:48</time>
      </trkpt>
      <trkpt lat="39.94516" lon="-4.41966">
        <ele>560</ele>
        <time>2020-08-16 11:13:49</time>
      </trkpt>
      <trkpt lat="39.94515" lon="-4.41972">
        <ele>560.2</ele>
        <time>2020-08-16 11:13:50</time>
      </trkpt>
      <trkpt lat="39.94514" lon="-4.41977">
        <ele>560.2</ele>
        <time>2020-08-16 11:13:51</time>
      </trkpt>
      <trkpt lat="39.94513" lon="-4.41983">
        <ele>560.2</ele>
        <time>2020-08-16 11:13:52</time>
      </trkpt>
      <trkpt lat="39.94511" lon="-4.41989">
        <ele>560.2</ele>
        <time>2020-08-16 11:13:53</time>
      </trkpt>
      <trkpt lat="39.9451" lon="-4.41995">
        <ele>560.2</ele>
        <time>2020-08-16 11:13:54</time>
      </trkpt>
      <trkpt lat="39.94503" lon="-4.4204">
        <ele>560.6</ele>
        <time>2020-08-16 11:14:02</time>
      </trkpt>
      <trkpt lat="39.94502" lon="-4.42046">
        <ele>560.6</ele>
        <time>2020-08-16 11:14:03</time>
      </trkpt>
      <trkpt lat="39.94501" lon="-4.42052">
        <ele>560.8</ele>
        <time>2020-08-16 11:14:04</time>
      </trkpt>
      <trkpt lat="39.945" lon="-4.42057">
        <ele>560.8</ele>
        <time>2020-08-16 11:14:05</time>
      </trkpt>
      <trkpt lat="39.94499" lon="-4.42063">
        <ele>560.8</ele>
        <time>2020-08-16 11:14:06</time>
      </trkpt>
      <trkpt lat="39.94498" lon="-4.42068">
        <ele>560.8</ele>
        <time>2020-08-16 11:14:07</time>
      </trkpt>
      <trkpt lat="39.94497" lon="-4.42074">
        <ele>560.8</ele>
        <time>2020-08-16 11:14:08</time>
      </trkpt>
      <trkpt lat="39.94496" lon="-4.4208">
        <ele>560.8</ele>
        <time>2020-08-16 11:14:09</time>
      </trkpt>
      <trkpt lat="39.94494" lon="-4.42086">
        <ele>560.8</ele>
        <time>2020-08-16 11:14:10</time>
      </trkpt>
      <trkpt lat="39.94493" lon="-4.42092">
        <ele>560.8</ele>
        <time>2020-08-16 11:14:11</time>
      </trkpt>
      <trkpt lat="39.94491" lon="-4.42103">
        <ele>561</ele>
        <time>2020-08-16 11:14:13</time>
      </trkpt>
      <trkpt lat="39.94483" lon="-4.42144">
        <ele>561.2</ele>
        <time>2020-08-16 11:14:20</time>
      </trkpt>
      <trkpt lat="39.94482" lon="-4.42151">
        <ele>561.2</ele>
        <time>2020-08-16 11:14:21</time>
      </trkpt>
      <trkpt lat="39.94479" lon="-4.42168">
        <ele>561.2</ele>
        <time>2020-08-16 11:14:24</time>
      </trkpt>
      <trkpt lat="39.94478" lon="-4.42174">
        <ele>561.2</ele>
        <time>2020-08-16 11:14:25</time>
      </trkpt>
      <trkpt lat="39.94477" lon="-4.42179">
        <ele>561.4</ele>
        <time>2020-08-16 11:14:26</time>
      </trkpt>
      <trkpt lat="39.94475" lon="-4.42185">
        <ele>561.4</ele>
        <time>2020-08-16 11:14:27</time>
      </trkpt>
      <trkpt lat="39.94474" lon="-4.42191">
        <ele>561.4</ele>
        <time>2020-08-16 11:14:28</time>
      </trkpt>
      <trkpt lat="39.94472" lon="-4.42204">
        <ele>561.4</ele>
        <time>2020-08-16 11:14:30</time>
      </trkpt>
      <trkpt lat="39.94471" lon="-4.4221">
        <ele>561.4</ele>
        <time>2020-08-16 11:14:31</time>
      </trkpt>
      <trkpt lat="39.94467" lon="-4.42228">
        <ele>561.4</ele>
        <time>2020-08-16 11:14:34</time>
      </trkpt>
      <trkpt lat="39.9446" lon="-4.42265">
        <ele>561.6</ele>
        <time>2020-08-16 11:14:40</time>
      </trkpt>
      <trkpt lat="39.94459" lon="-4.42271">
        <ele>561.6</ele>
        <time>2020-08-16 11:14:41</time>
      </trkpt>
      <trkpt lat="39.94458" lon="-4.42276">
        <ele>561.6</ele>
        <time>2020-08-16 11:14:42</time>
      </trkpt>
      <trkpt lat="39.94457" lon="-4.42282">
        <ele>561.6</ele>
        <time>2020-08-16 11:14:43</time>
      </trkpt>
      <trkpt lat="39.94456" lon="-4.42288">
        <ele>561.6</ele>
        <time>2020-08-16 11:14:44</time>
      </trkpt>
      <trkpt lat="39.94455" lon="-4.42293">
        <ele>561.8</ele>
        <time>2020-08-16 11:14:45</time>
      </trkpt>
      <trkpt lat="39.94454" lon="-4.42299">
        <ele>561.8</ele>
        <time>2020-08-16 11:14:46</time>
      </trkpt>
      <trkpt lat="39.94452" lon="-4.42305">
        <ele>561.8</ele>
        <time>2020-08-16 11:14:47</time>
      </trkpt>
      <trkpt lat="39.94451" lon="-4.4231">
        <ele>561.8</ele>
        <time>2020-08-16 11:14:48</time>
      </trkpt>
      <trkpt lat="39.94451" lon="-4.42315">
        <ele>561.8</ele>
        <time>2020-08-16 11:14:49</time>
      </trkpt>
      <trkpt lat="39.94449" lon="-4.4232">
        <ele>561.8</ele>
        <time>2020-08-16 11:14:50</time>
      </trkpt>
      <trkpt lat="39.94448" lon="-4.42325">
        <ele>561.8</ele>
        <time>2020-08-16 11:14:51</time>
      </trkpt>
      <trkpt lat="39.94447" lon="-4.4233">
        <ele>561.8</ele>
        <time>2020-08-16 11:14:52</time>
      </trkpt>
      <trkpt lat="39.94446" lon="-4.42335">
        <ele>561.8</ele>
        <time>2020-08-16 11:14:53</time>
      </trkpt>
      <trkpt lat="39.94446" lon="-4.4234">
        <ele>562</ele>
        <time>2020-08-16 11:14:54</time>
      </trkpt>
      <trkpt lat="39.94445" lon="-4.42345">
        <ele>562</ele>
        <time>2020-08-16 11:14:55</time>
      </trkpt>
      <trkpt lat="39.94444" lon="-4.4235">
        <ele>562</ele>
        <time>2020-08-16 11:14:56</time>
      </trkpt>
      <trkpt lat="39.94443" lon="-4.42355">
        <ele>562</ele>
        <time>2020-08-16 11:14:57</time>
      </trkpt>
      <trkpt lat="39.94442" lon="-4.4236">
        <ele>562</ele>
        <time>2020-08-16 11:14:58</time>
      </trkpt>
      <trkpt lat="39.94441" lon="-4.42365">
        <ele>562.2</ele>
        <time>2020-08-16 11:14:59</time>
      </trkpt>
      <trkpt lat="39.9444" lon="-4.42371">
        <ele>562.2</ele>
        <time>2020-08-16 11:15:00</time>
      </trkpt>
      <trkpt lat="39.94439" lon="-4.42376">
        <ele>562.2</ele>
        <time>2020-08-16 11:15:01</time>
      </trkpt>
      <trkpt lat="39.94434" lon="-4.42397">
        <ele>562.6</ele>
        <time>2020-08-16 11:15:05</time>
      </trkpt>
      <trkpt lat="39.9443" lon="-4.42419">
        <ele>562.8</ele>
        <time>2020-08-16 11:15:09</time>
      </trkpt>
      <trkpt lat="39.94427" lon="-4.42435">
        <ele>563</ele>
        <time>2020-08-16 11:15:12</time>
      </trkpt>
      <trkpt lat="39.94424" lon="-4.4245">
        <ele>563.4</ele>
        <time>2020-08-16 11:15:15</time>
      </trkpt>
      <trkpt lat="39.94423" lon="-4.42455">
        <ele>563.6</ele>
        <time>2020-08-16 11:15:16</time>
      </trkpt>
      <trkpt lat="39.94422" lon="-4.4246">
        <ele>563.6</ele>
        <time>2020-08-16 11:15:17</time>
      </trkpt>
      <trkpt lat="39.94422" lon="-4.42465">
        <ele>563.6</ele>
        <time>2020-08-16 11:15:18</time>
      </trkpt>
      <trkpt lat="39.94421" lon="-4.4247">
        <ele>563.6</ele>
        <time>2020-08-16 11:15:19</time>
      </trkpt>
      <trkpt lat="39.9442" lon="-4.42475">
        <ele>563.8</ele>
        <time>2020-08-16 11:15:20</time>
      </trkpt>
      <trkpt lat="39.9442" lon="-4.4248">
        <ele>563.8</ele>
        <time>2020-08-16 11:15:21</time>
      </trkpt>
      <trkpt lat="39.94419" lon="-4.42485">
        <ele>563.8</ele>
        <time>2020-08-16 11:15:22</time>
      </trkpt>
      <trkpt lat="39.94419" lon="-4.4249">
        <ele>564</ele>
        <time>2020-08-16 11:15:23</time>
      </trkpt>
      <trkpt lat="39.94418" lon="-4.42495">
        <ele>564</ele>
        <time>2020-08-16 11:15:24</time>
      </trkpt>
      <trkpt lat="39.94417" lon="-4.425">
        <ele>564.2</ele>
        <time>2020-08-16 11:15:25</time>
      </trkpt>
      <trkpt lat="39.94417" lon="-4.42505">
        <ele>564.2</ele>
        <time>2020-08-16 11:15:26</time>
      </trkpt>
      <trkpt lat="39.94416" lon="-4.4251">
        <ele>564.4</ele>
        <time>2020-08-16 11:15:27</time>
      </trkpt>
      <trkpt lat="39.94415" lon="-4.42521">
        <ele>564.6</ele>
        <time>2020-08-16 11:15:29</time>
      </trkpt>
      <trkpt lat="39.94415" lon="-4.42526">
        <ele>564.8</ele>
        <time>2020-08-16 11:15:30</time>
      </trkpt>
      <trkpt lat="39.94414" lon="-4.4253">
        <ele>565</ele>
        <time>2020-08-16 11:15:31</time>
      </trkpt>
      <trkpt lat="39.94414" lon="-4.42535">
        <ele>565</ele>
        <time>2020-08-16 11:15:32</time>
      </trkpt>
      <trkpt lat="39.94413" lon="-4.4254">
        <ele>565</ele>
        <time>2020-08-16 11:15:33</time>
      </trkpt>
      <trkpt lat="39.94413" lon="-4.42545">
        <ele>565</ele>
        <time>2020-08-16 11:15:34</time>
      </trkpt>
      <trkpt lat="39.94412" lon="-4.4255">
        <ele>565.2</ele>
        <time>2020-08-16 11:15:35</time>
      </trkpt>
      <trkpt lat="39.94412" lon="-4.42555">
        <ele>565.2</ele>
        <time>2020-08-16 11:15:36</time>
      </trkpt>
      <trkpt lat="39.94411" lon="-4.4256">
        <ele>565.4</ele>
        <time>2020-08-16 11:15:37</time>
      </trkpt>
      <trkpt lat="39.94411" lon="-4.42565">
        <ele>565.6</ele>
        <time>2020-08-16 11:15:38</time>
      </trkpt>
      <trkpt lat="39.9441" lon="-4.4257">
        <ele>565.6</ele>
        <time>2020-08-16 11:15:39</time>
      </trkpt>
      <trkpt lat="39.94409" lon="-4.42575">
        <ele>565.6</ele>
        <time>2020-08-16 11:15:40</time>
      </trkpt>
      <trkpt lat="39.94409" lon="-4.4258">
        <ele>565.6</ele>
        <time>2020-08-16 11:15:41</time>
      </trkpt>
      <trkpt lat="39.94408" lon="-4.42585">
        <ele>565.6</ele>
        <time>2020-08-16 11:15:42</time>
      </trkpt>
      <trkpt lat="39.94408" lon="-4.42589">
        <ele>565.6</ele>
        <time>2020-08-16 11:15:43</time>
      </trkpt>
      <trkpt lat="39.94407" lon="-4.42594">
        <ele>565.6</ele>
        <time>2020-08-16 11:15:44</time>
      </trkpt>
      <trkpt lat="39.94406" lon="-4.42599">
        <ele>565.8</ele>
        <time>2020-08-16 11:15:45</time>
      </trkpt>
      <trkpt lat="39.94405" lon="-4.42604">
        <ele>566</ele>
        <time>2020-08-16 11:15:46</time>
      </trkpt>
      <trkpt lat="39.94404" lon="-4.42619">
        <ele>566.4</ele>
        <time>2020-08-16 11:15:49</time>
      </trkpt>
      <trkpt lat="39.94403" lon="-4.42629">
        <ele>566.8</ele>
        <time>2020-08-16 11:15:51</time>
      </trkpt>
      <trkpt lat="39.94403" lon="-4.42635">
        <ele>567</ele>
        <time>2020-08-16 11:15:52</time>
      </trkpt>
      <trkpt lat="39.94402" lon="-4.4264">
        <ele>566.8</ele>
        <time>2020-08-16 11:15:53</time>
      </trkpt>
      <trkpt lat="39.94402" lon="-4.42645">
        <ele>567</ele>
        <time>2020-08-16 11:15:54</time>
      </trkpt>
      <trkpt lat="39.94401" lon="-4.4265">
        <ele>567.2</ele>
        <time>2020-08-16 11:15:55</time>
      </trkpt>
      <trkpt lat="39.94401" lon="-4.42656">
        <ele>567.2</ele>
        <time>2020-08-16 11:15:56</time>
      </trkpt>
      <trkpt lat="39.94399" lon="-4.42667">
        <ele>567.2</ele>
        <time>2020-08-16 11:15:58</time>
      </trkpt>
      <trkpt lat="39.94399" lon="-4.42672">
        <ele>567.2</ele>
        <time>2020-08-16 11:15:59</time>
      </trkpt>
      <trkpt lat="39.94392" lon="-4.42733">
        <ele>566.2</ele>
        <time>2020-08-16 11:16:10</time>
      </trkpt>
      <trkpt lat="39.94391" lon="-4.42743">
        <ele>566.6</ele>
        <time>2020-08-16 11:16:12</time>
      </trkpt>
      <trkpt lat="39.94391" lon="-4.42748">
        <ele>566.6</ele>
        <time>2020-08-16 11:16:13</time>
      </trkpt>
      <trkpt lat="39.9439" lon="-4.42752">
        <ele>566.6</ele>
        <time>2020-08-16 11:16:14</time>
      </trkpt>
      <trkpt lat="39.9439" lon="-4.42755">
        <ele>566.6</ele>
        <time>2020-08-16 11:16:15</time>
      </trkpt>
      <trkpt lat="39.9439" lon="-4.42759">
        <ele>566.6</ele>
        <time>2020-08-16 11:16:16</time>
      </trkpt>
      <trkpt lat="39.9439" lon="-4.42763">
        <ele>566.6</ele>
        <time>2020-08-16 11:16:17</time>
      </trkpt>
      <trkpt lat="39.94389" lon="-4.4277">
        <ele>566.6</ele>
        <time>2020-08-16 11:16:19</time>
      </trkpt>
      <trkpt lat="39.94389" lon="-4.42774">
        <ele>566.6</ele>
        <time>2020-08-16 11:16:20</time>
      </trkpt>
      <trkpt lat="39.94388" lon="-4.42778">
        <ele>566.8</ele>
        <time>2020-08-16 11:16:21</time>
      </trkpt>
      <trkpt lat="39.94388" lon="-4.42782">
        <ele>566.8</ele>
        <time>2020-08-16 11:16:22</time>
      </trkpt>
      <trkpt lat="39.94387" lon="-4.42786">
        <ele>566.8</ele>
        <time>2020-08-16 11:16:23</time>
      </trkpt>
      <trkpt lat="39.94387" lon="-4.4279">
        <ele>566.8</ele>
        <time>2020-08-16 11:16:24</time>
      </trkpt>
      <trkpt lat="39.94387" lon="-4.42794">
        <ele>566.8</ele>
        <time>2020-08-16 11:16:25</time>
      </trkpt>
      <trkpt lat="39.94383" lon="-4.42821">
        <ele>567.4</ele>
        <time>2020-08-16 11:16:32</time>
      </trkpt>
      <trkpt lat="39.94383" lon="-4.4283">
        <ele>568</ele>
        <time>2020-08-16 11:16:34</time>
      </trkpt>
      <trkpt lat="39.94383" lon="-4.42835">
        <ele>568</ele>
        <time>2020-08-16 11:16:35</time>
      </trkpt>
      <trkpt lat="39.94382" lon="-4.42839">
        <ele>567.8</ele>
        <time>2020-08-16 11:16:36</time>
      </trkpt>
      <trkpt lat="39.9438" lon="-4.42864">
        <ele>568.2</ele>
        <time>2020-08-16 11:16:42</time>
      </trkpt>
      <trkpt lat="39.94379" lon="-4.42872">
        <ele>568</ele>
        <time>2020-08-16 11:16:44</time>
      </trkpt>
      <trkpt lat="39.94378" lon="-4.42885">
        <ele>568.4</ele>
        <time>2020-08-16 11:16:47</time>
      </trkpt>
      <trkpt lat="39.94377" lon="-4.42894">
        <ele>568.8</ele>
        <time>2020-08-16 11:16:49</time>
      </trkpt>
      <trkpt lat="39.94376" lon="-4.42898">
        <ele>569</ele>
        <time>2020-08-16 11:16:50</time>
      </trkpt>
      <trkpt lat="39.94375" lon="-4.42902">
        <ele>569.2</ele>
        <time>2020-08-16 11:16:51</time>
      </trkpt>
      <trkpt lat="39.94375" lon="-4.42906">
        <ele>569.4</ele>
        <time>2020-08-16 11:16:52</time>
      </trkpt>
      <trkpt lat="39.94374" lon="-4.42911">
        <ele>569.4</ele>
        <time>2020-08-16 11:16:53</time>
      </trkpt>
      <trkpt lat="39.94374" lon="-4.42915">
        <ele>569.4</ele>
        <time>2020-08-16 11:16:54</time>
      </trkpt>
      <trkpt lat="39.94374" lon="-4.4292">
        <ele>569.4</ele>
        <time>2020-08-16 11:16:55</time>
      </trkpt>
      <trkpt lat="39.94373" lon="-4.42924">
        <ele>569.6</ele>
        <time>2020-08-16 11:16:56</time>
      </trkpt>
      <trkpt lat="39.9437" lon="-4.42946">
        <ele>570</ele>
        <time>2020-08-16 11:17:01</time>
      </trkpt>
      <trkpt lat="39.94362" lon="-4.42988">
        <ele>570.2</ele>
        <time>2020-08-16 11:17:10</time>
      </trkpt>
      <trkpt lat="39.94354" lon="-4.43029">
        <ele>570</ele>
        <time>2020-08-16 11:17:18</time>
      </trkpt>
      <trkpt lat="39.94346" lon="-4.43066">
        <ele>569.6</ele>
        <time>2020-08-16 11:17:25</time>
      </trkpt>
      <trkpt lat="39.94342" lon="-4.43081">
        <ele>569.6</ele>
        <time>2020-08-16 11:17:28</time>
      </trkpt>
      <trkpt lat="39.94341" lon="-4.43086">
        <ele>569.4</ele>
        <time>2020-08-16 11:17:29</time>
      </trkpt>
      <trkpt lat="39.9434" lon="-4.43091">
        <ele>569.6</ele>
        <time>2020-08-16 11:17:30</time>
      </trkpt>
      <trkpt lat="39.94339" lon="-4.43096">
        <ele>569.6</ele>
        <time>2020-08-16 11:17:31</time>
      </trkpt>
      <trkpt lat="39.94338" lon="-4.43101">
        <ele>569.6</ele>
        <time>2020-08-16 11:17:32</time>
      </trkpt>
      <trkpt lat="39.94337" lon="-4.43106">
        <ele>569.6</ele>
        <time>2020-08-16 11:17:33</time>
      </trkpt>
      <trkpt lat="39.94336" lon="-4.43111">
        <ele>569.6</ele>
        <time>2020-08-16 11:17:34</time>
      </trkpt>
      <trkpt lat="39.94335" lon="-4.43116">
        <ele>569.6</ele>
        <time>2020-08-16 11:17:35</time>
      </trkpt>
      <trkpt lat="39.94333" lon="-4.43121">
        <ele>569.8</ele>
        <time>2020-08-16 11:17:36</time>
      </trkpt>
      <trkpt lat="39.94332" lon="-4.43125">
        <ele>570</ele>
        <time>2020-08-16 11:17:37</time>
      </trkpt>
      <trkpt lat="39.94331" lon="-4.4313">
        <ele>570.2</ele>
        <time>2020-08-16 11:17:38</time>
      </trkpt>
      <trkpt lat="39.94331" lon="-4.43135">
        <ele>570.2</ele>
        <time>2020-08-16 11:17:39</time>
      </trkpt>
      <trkpt lat="39.94329" lon="-4.4314">
        <ele>570.2</ele>
        <time>2020-08-16 11:17:40</time>
      </trkpt>
      <trkpt lat="39.94328" lon="-4.43144">
        <ele>570.4</ele>
        <time>2020-08-16 11:17:41</time>
      </trkpt>
      <trkpt lat="39.94327" lon="-4.43149">
        <ele>570.4</ele>
        <time>2020-08-16 11:17:42</time>
      </trkpt>
      <trkpt lat="39.94326" lon="-4.43154">
        <ele>570.4</ele>
        <time>2020-08-16 11:17:43</time>
      </trkpt>
      <trkpt lat="39.94324" lon="-4.43164">
        <ele>570.4</ele>
        <time>2020-08-16 11:17:45</time>
      </trkpt>
      <trkpt lat="39.94323" lon="-4.43169">
        <ele>570.4</ele>
        <time>2020-08-16 11:17:46</time>
      </trkpt>
      <trkpt lat="39.94322" lon="-4.43173">
        <ele>570.4</ele>
        <time>2020-08-16 11:17:47</time>
      </trkpt>
      <trkpt lat="39.94321" lon="-4.43178">
        <ele>570.4</ele>
        <time>2020-08-16 11:17:48</time>
      </trkpt>
      <trkpt lat="39.94319" lon="-4.43183">
        <ele>570.4</ele>
        <time>2020-08-16 11:17:49</time>
      </trkpt>
      <trkpt lat="39.94318" lon="-4.43188">
        <ele>570.4</ele>
        <time>2020-08-16 11:17:50</time>
      </trkpt>
      <trkpt lat="39.94317" lon="-4.43193">
        <ele>570.4</ele>
        <time>2020-08-16 11:17:51</time>
      </trkpt>
      <trkpt lat="39.94316" lon="-4.43197">
        <ele>570.4</ele>
        <time>2020-08-16 11:17:52</time>
      </trkpt>
      <trkpt lat="39.94315" lon="-4.43202">
        <ele>570.4</ele>
        <time>2020-08-16 11:17:53</time>
      </trkpt>
      <trkpt lat="39.94314" lon="-4.43207">
        <ele>570.2</ele>
        <time>2020-08-16 11:17:54</time>
      </trkpt>
      <trkpt lat="39.94313" lon="-4.43212">
        <ele>570.2</ele>
        <time>2020-08-16 11:17:55</time>
      </trkpt>
      <trkpt lat="39.94312" lon="-4.43217">
        <ele>570</ele>
        <time>2020-08-16 11:17:56</time>
      </trkpt>
      <trkpt lat="39.94311" lon="-4.43222">
        <ele>570</ele>
        <time>2020-08-16 11:17:57</time>
      </trkpt>
      <trkpt lat="39.94308" lon="-4.43232">
        <ele>570</ele>
        <time>2020-08-16 11:17:59</time>
      </trkpt>
      <trkpt lat="39.94301" lon="-4.43262">
        <ele>569.8</ele>
        <time>2020-08-16 11:18:05</time>
      </trkpt>
      <trkpt lat="39.94297" lon="-4.43279">
        <ele>569.8</ele>
        <time>2020-08-16 11:18:08</time>
      </trkpt>
      <trkpt lat="39.94291" lon="-4.43307">
        <ele>569.8</ele>
        <time>2020-08-16 11:18:13</time>
      </trkpt>
      <trkpt lat="39.94291" lon="-4.43313">
        <ele>569.6</ele>
        <time>2020-08-16 11:18:14</time>
      </trkpt>
      <trkpt lat="39.94289" lon="-4.43325">
        <ele>569.4</ele>
        <time>2020-08-16 11:18:16</time>
      </trkpt>
      <trkpt lat="39.9429" lon="-4.43351">
        <ele>568.6</ele>
        <time>2020-08-16 11:18:20</time>
      </trkpt>
      <trkpt lat="39.94291" lon="-4.43357">
        <ele>568.6</ele>
        <time>2020-08-16 11:18:21</time>
      </trkpt>
      <trkpt lat="39.94293" lon="-4.43371">
        <ele>568.4</ele>
        <time>2020-08-16 11:18:23</time>
      </trkpt>
      <trkpt lat="39.94297" lon="-4.43399">
        <ele>567.6</ele>
        <time>2020-08-16 11:18:27</time>
      </trkpt>
      <trkpt lat="39.94298" lon="-4.43406">
        <ele>567.6</ele>
        <time>2020-08-16 11:18:28</time>
      </trkpt>
      <trkpt lat="39.94302" lon="-4.43426">
        <ele>567</ele>
        <time>2020-08-16 11:18:31</time>
      </trkpt>
      <trkpt lat="39.94304" lon="-4.43439">
        <ele>566.6</ele>
        <time>2020-08-16 11:18:33</time>
      </trkpt>
      <trkpt lat="39.94307" lon="-4.43452">
        <ele>566.4</ele>
        <time>2020-08-16 11:18:35</time>
      </trkpt>
      <trkpt lat="39.94309" lon="-4.43458">
        <ele>566.4</ele>
        <time>2020-08-16 11:18:36</time>
      </trkpt>
      <trkpt lat="39.94311" lon="-4.43464">
        <ele>566.2</ele>
        <time>2020-08-16 11:18:37</time>
      </trkpt>
      <trkpt lat="39.94313" lon="-4.4347">
        <ele>566</ele>
        <time>2020-08-16 11:18:38</time>
      </trkpt>
      <trkpt lat="39.94314" lon="-4.43477">
        <ele>565.8</ele>
        <time>2020-08-16 11:18:39</time>
      </trkpt>
      <trkpt lat="39.94316" lon="-4.43483">
        <ele>565.8</ele>
        <time>2020-08-16 11:18:40</time>
      </trkpt>
      <trkpt lat="39.94318" lon="-4.43489">
        <ele>565.4</ele>
        <time>2020-08-16 11:18:41</time>
      </trkpt>
      <trkpt lat="39.9432" lon="-4.43496">
        <ele>565.4</ele>
        <time>2020-08-16 11:18:42</time>
      </trkpt>
      <trkpt lat="39.94322" lon="-4.43502">
        <ele>565.2</ele>
        <time>2020-08-16 11:18:43</time>
      </trkpt>
      <trkpt lat="39.94323" lon="-4.43509">
        <ele>565</ele>
        <time>2020-08-16 11:18:44</time>
      </trkpt>
      <trkpt lat="39.94325" lon="-4.43515">
        <ele>565</ele>
        <time>2020-08-16 11:18:45</time>
      </trkpt>
      <trkpt lat="39.94326" lon="-4.43521">
        <ele>564.8</ele>
        <time>2020-08-16 11:18:46</time>
      </trkpt>
      <trkpt lat="39.94328" lon="-4.43527">
        <ele>564.8</ele>
        <time>2020-08-16 11:18:47</time>
      </trkpt>
      <trkpt lat="39.94329" lon="-4.43532">
        <ele>564.4</ele>
        <time>2020-08-16 11:18:48</time>
      </trkpt>
      <trkpt lat="39.9433" lon="-4.43538">
        <ele>564.2</ele>
        <time>2020-08-16 11:18:49</time>
      </trkpt>
      <trkpt lat="39.94331" lon="-4.43544">
        <ele>563.8</ele>
        <time>2020-08-16 11:18:50</time>
      </trkpt>
      <trkpt lat="39.94332" lon="-4.4355">
        <ele>563.6</ele>
        <time>2020-08-16 11:18:51</time>
      </trkpt>
      <trkpt lat="39.94333" lon="-4.43555">
        <ele>563.4</ele>
        <time>2020-08-16 11:18:52</time>
      </trkpt>
      <trkpt lat="39.94334" lon="-4.43561">
        <ele>563</ele>
        <time>2020-08-16 11:18:53</time>
      </trkpt>
      <trkpt lat="39.94336" lon="-4.43567">
        <ele>562.8</ele>
        <time>2020-08-16 11:18:54</time>
      </trkpt>
      <trkpt lat="39.94337" lon="-4.43573">
        <ele>562.6</ele>
        <time>2020-08-16 11:18:55</time>
      </trkpt>
      <trkpt lat="39.94338" lon="-4.43578">
        <ele>562.4</ele>
        <time>2020-08-16 11:18:56</time>
      </trkpt>
      <trkpt lat="39.9434" lon="-4.43584">
        <ele>562.4</ele>
        <time>2020-08-16 11:18:57</time>
      </trkpt>
      <trkpt lat="39.94345" lon="-4.43608">
        <ele>562</ele>
        <time>2020-08-16 11:19:01</time>
      </trkpt>
      <trkpt lat="39.94347" lon="-4.43622">
        <ele>561.8</ele>
        <time>2020-08-16 11:19:03</time>
      </trkpt>
      <trkpt lat="39.94349" lon="-4.43629">
        <ele>561.6</ele>
        <time>2020-08-16 11:19:04</time>
      </trkpt>
      <trkpt lat="39.94351" lon="-4.43644">
        <ele>561.2</ele>
        <time>2020-08-16 11:19:06</time>
      </trkpt>
      <trkpt lat="39.94352" lon="-4.43651">
        <ele>561</ele>
        <time>2020-08-16 11:19:07</time>
      </trkpt>
      <trkpt lat="39.94353" lon="-4.43659">
        <ele>561</ele>
        <time>2020-08-16 11:19:08</time>
      </trkpt>
      <trkpt lat="39.94355" lon="-4.43675">
        <ele>560.4</ele>
        <time>2020-08-16 11:19:10</time>
      </trkpt>
      <trkpt lat="39.94356" lon="-4.43684">
        <ele>560</ele>
        <time>2020-08-16 11:19:11</time>
      </trkpt>
      <trkpt lat="39.94357" lon="-4.43706">
        <ele>559.4</ele>
        <time>2020-08-16 11:19:14</time>
      </trkpt>
      <trkpt lat="39.94358" lon="-4.43713">
        <ele>559.2</ele>
        <time>2020-08-16 11:19:15</time>
      </trkpt>
      <trkpt lat="39.94359" lon="-4.43719">
        <ele>559</ele>
        <time>2020-08-16 11:19:16</time>
      </trkpt>
      <trkpt lat="39.9436" lon="-4.43726">
        <ele>558.6</ele>
        <time>2020-08-16 11:19:17</time>
      </trkpt>
      <trkpt lat="39.9436" lon="-4.43732">
        <ele>558.4</ele>
        <time>2020-08-16 11:19:18</time>
      </trkpt>
      <trkpt lat="39.94361" lon="-4.43738">
        <ele>558.2</ele>
        <time>2020-08-16 11:19:19</time>
      </trkpt>
      <trkpt lat="39.94364" lon="-4.4375">
        <ele>558.2</ele>
        <time>2020-08-16 11:19:21</time>
      </trkpt>
      <trkpt lat="39.94365" lon="-4.43755">
        <ele>558.2</ele>
        <time>2020-08-16 11:19:22</time>
      </trkpt>
      <trkpt lat="39.94366" lon="-4.4376">
        <ele>558.2</ele>
        <time>2020-08-16 11:19:23</time>
      </trkpt>
      <trkpt lat="39.94367" lon="-4.43765">
        <ele>558.2</ele>
        <time>2020-08-16 11:19:24</time>
      </trkpt>
      <trkpt lat="39.94368" lon="-4.4377">
        <ele>558.2</ele>
        <time>2020-08-16 11:19:25</time>
      </trkpt>
      <trkpt lat="39.94368" lon="-4.43775">
        <ele>558.2</ele>
        <time>2020-08-16 11:19:26</time>
      </trkpt>
      <trkpt lat="39.94369" lon="-4.43779">
        <ele>558.4</ele>
        <time>2020-08-16 11:19:27</time>
      </trkpt>
      <trkpt lat="39.9437" lon="-4.43784">
        <ele>558.4</ele>
        <time>2020-08-16 11:19:28</time>
      </trkpt>
      <trkpt lat="39.9437" lon="-4.43789">
        <ele>558.4</ele>
        <time>2020-08-16 11:19:29</time>
      </trkpt>
      <trkpt lat="39.9437" lon="-4.43799">
        <ele>558.6</ele>
        <time>2020-08-16 11:19:31</time>
      </trkpt>
      <trkpt lat="39.94369" lon="-4.43803">
        <ele>558.6</ele>
        <time>2020-08-16 11:19:32</time>
      </trkpt>
      <trkpt lat="39.94369" lon="-4.43807">
        <ele>558.6</ele>
        <time>2020-08-16 11:19:33</time>
      </trkpt>
      <trkpt lat="39.94369" lon="-4.4381">
        <ele>558.6</ele>
        <time>2020-08-16 11:19:34</time>
      </trkpt>
      <trkpt lat="39.94369" lon="-4.43812">
        <ele>558.6</ele>
        <time>2020-08-16 11:19:35</time>
      </trkpt>
      <trkpt lat="39.94369" lon="-4.43814">
        <ele>558.4</ele>
        <time>2020-08-16 11:19:36</time>
      </trkpt>
      <trkpt lat="39.94369" lon="-4.43815">
        <ele>558.4</ele>
        <time>2020-08-16 11:19:37</time>
      </trkpt>
      <trkpt lat="39.94369" lon="-4.43815">
        <ele>558.2</ele>
        <time>2020-08-16 11:19:39</time>
      </trkpt>
      <trkpt lat="39.94365" lon="-4.4383">
        <ele>557</ele>
        <time>2020-08-16 11:21:27</time>
      </trkpt>
      <trkpt lat="39.94363" lon="-4.43831">
        <ele>557</ele>
        <time>2020-08-16 11:21:28</time>
      </trkpt>
      <trkpt lat="39.9436" lon="-4.43831">
        <ele>557</ele>
        <time>2020-08-16 11:21:29</time>
      </trkpt>
      <trkpt lat="39.94356" lon="-4.43831">
        <ele>557</ele>
        <time>2020-08-16 11:21:30</time>
      </trkpt>
      <trkpt lat="39.94348" lon="-4.43831">
        <ele>557</ele>
        <time>2020-08-16 11:21:32</time>
      </trkpt>
      <trkpt lat="39.9434" lon="-4.43832">
        <ele>557</ele>
        <time>2020-08-16 11:21:34</time>
      </trkpt>
      <trkpt lat="39.94332" lon="-4.43833">
        <ele>556.8</ele>
        <time>2020-08-16 11:21:36</time>
      </trkpt>
      <trkpt lat="39.94325" lon="-4.43832">
        <ele>556.6</ele>
        <time>2020-08-16 11:21:38</time>
      </trkpt>
      <trkpt lat="39.94321" lon="-4.43832">
        <ele>556.6</ele>
        <time>2020-08-16 11:21:39</time>
      </trkpt>
      <trkpt lat="39.94314" lon="-4.43832">
        <ele>556.2</ele>
        <time>2020-08-16 11:21:41</time>
      </trkpt>
      <trkpt lat="39.94307" lon="-4.43831">
        <ele>556</ele>
        <time>2020-08-16 11:21:43</time>
      </trkpt>
      <trkpt lat="39.94304" lon="-4.43831">
        <ele>556</ele>
        <time>2020-08-16 11:21:44</time>
      </trkpt>
      <trkpt lat="39.94302" lon="-4.4383">
        <ele>555.8</ele>
        <time>2020-08-16 11:21:45</time>
      </trkpt>
      <trkpt lat="39.94301" lon="-4.4383">
        <ele>555.8</ele>
        <time>2020-08-16 11:21:46</time>
      </trkpt>
      <trkpt lat="39.94301" lon="-4.4383">
        <ele>555.6</ele>
        <time>2020-08-16 11:21:48</time>
      </trkpt>
      <trkpt lat="39.94296" lon="-4.43829">
        <ele>554.2</ele>
        <time>2020-08-16 11:24:58</time>
      </trkpt>
      <trkpt lat="39.94287" lon="-4.43828">
        <ele>554.4</ele>
        <time>2020-08-16 11:25:01</time>
      </trkpt>
      <trkpt lat="39.94281" lon="-4.43827">
        <ele>554.2</ele>
        <time>2020-08-16 11:25:03</time>
      </trkpt>
      <trkpt lat="39.94278" lon="-4.43827">
        <ele>554.2</ele>
        <time>2020-08-16 11:25:04</time>
      </trkpt>
      <trkpt lat="39.94272" lon="-4.43828">
        <ele>554.2</ele>
        <time>2020-08-16 11:25:06</time>
      </trkpt>
      <trkpt lat="39.94268" lon="-4.43828">
        <ele>554.2</ele>
        <time>2020-08-16 11:25:08</time>
      </trkpt>
      <trkpt lat="39.94265" lon="-4.43828">
        <ele>554.2</ele>
        <time>2020-08-16 11:25:09</time>
      </trkpt>
      <trkpt lat="39.94264" lon="-4.43829">
        <ele>554</ele>
        <time>2020-08-16 11:25:10</time>
      </trkpt>
      <trkpt lat="39.94264" lon="-4.4383">
        <ele>554</ele>
        <time>2020-08-16 11:25:11</time>
      </trkpt>
      <trkpt lat="39.94264" lon="-4.4383">
        <ele>554</ele>
        <time>2020-08-16 11:25:12</time>
      </trkpt>
      <trkpt lat="39.94264" lon="-4.4383">
        <ele>554</ele>
        <time>2020-08-16 11:25:13</time>
      </trkpt>
      <trkpt lat="39.94264" lon="-4.4383">
        <ele>554</ele>
        <time>2020-08-16 11:25:14</time>
      </trkpt>
      <trkpt lat="39.9426" lon="-4.43829">
        <ele>554.6</ele>
        <time>2020-08-16 11:29:02</time>
      </trkpt>
      <trkpt lat="39.94258" lon="-4.43829">
        <ele>554.6</ele>
        <time>2020-08-16 11:29:03</time>
      </trkpt>
      <trkpt lat="39.94253" lon="-4.43829">
        <ele>554.4</ele>
        <time>2020-08-16 11:29:05</time>
      </trkpt>
      <trkpt lat="39.94236" lon="-4.43828">
        <ele>554.4</ele>
        <time>2020-08-16 11:29:10</time>
      </trkpt>
      <trkpt lat="39.94229" lon="-4.43827">
        <ele>554.2</ele>
        <time>2020-08-16 11:29:12</time>
      </trkpt>
      <trkpt lat="39.94225" lon="-4.43827">
        <ele>554.2</ele>
        <time>2020-08-16 11:29:13</time>
      </trkpt>
      <trkpt lat="39.94222" lon="-4.43828">
        <ele>554.2</ele>
        <time>2020-08-16 11:29:14</time>
      </trkpt>
      <trkpt lat="39.94193" lon="-4.43834">
        <ele>554.2</ele>
        <time>2020-08-16 11:29:21</time>
      </trkpt>
      <trkpt lat="39.94189" lon="-4.43835">
        <ele>554.2</ele>
        <time>2020-08-16 11:29:22</time>
      </trkpt>
      <trkpt lat="39.94183" lon="-4.43836">
        <ele>554</ele>
        <time>2020-08-16 11:29:24</time>
      </trkpt>
      <trkpt lat="39.9418" lon="-4.43837">
        <ele>553.8</ele>
        <time>2020-08-16 11:29:25</time>
      </trkpt>
      <trkpt lat="39.94176" lon="-4.43837">
        <ele>553.6</ele>
        <time>2020-08-16 11:29:26</time>
      </trkpt>
      <trkpt lat="39.94173" lon="-4.43838">
        <ele>553.8</ele>
        <time>2020-08-16 11:29:27</time>
      </trkpt>
      <trkpt lat="39.94171" lon="-4.43838">
        <ele>553.8</ele>
        <time>2020-08-16 11:29:28</time>
      </trkpt>
      <trkpt lat="39.94169" lon="-4.43836">
        <ele>553.8</ele>
        <time>2020-08-16 11:29:29</time>
      </trkpt>
      <trkpt lat="39.94168" lon="-4.43834">
        <ele>553.6</ele>
        <time>2020-08-16 11:29:30</time>
      </trkpt>
      <trkpt lat="39.94167" lon="-4.43833">
        <ele>553.4</ele>
        <time>2020-08-16 11:29:31</time>
      </trkpt>
      <trkpt lat="39.94167" lon="-4.43834">
        <ele>553.4</ele>
        <time>2020-08-16 11:29:32</time>
      </trkpt>
      <trkpt lat="39.94167" lon="-4.43834">
        <ele>553.6</ele>
        <time>2020-08-16 11:29:33</time>
      </trkpt>
      <trkpt lat="39.94167" lon="-4.43835">
        <ele>553.6</ele>
        <time>2020-08-16 11:29:34</time>
      </trkpt>
      <trkpt lat="39.94167" lon="-4.43835">
        <ele>553.8</ele>
        <time>2020-08-16 11:29:36</time>
      </trkpt>
      <trkpt lat="39.94169" lon="-4.43833">
        <ele>552.8</ele>
        <time>2020-08-16 11:58:00</time>
      </trkpt>
      <trkpt lat="39.94172" lon="-4.43833">
        <ele>552.8</ele>
        <time>2020-08-16 11:58:01</time>
      </trkpt>
      <trkpt lat="39.94176" lon="-4.43833">
        <ele>552.8</ele>
        <time>2020-08-16 11:58:03</time>
      </trkpt>
      <trkpt lat="39.94179" lon="-4.43832">
        <ele>552.8</ele>
        <time>2020-08-16 11:58:04</time>
      </trkpt>
      <trkpt lat="39.94188" lon="-4.43831">
        <ele>553</ele>
        <time>2020-08-16 11:58:07</time>
      </trkpt>
      <trkpt lat="39.94191" lon="-4.43831">
        <ele>553</ele>
        <time>2020-08-16 11:58:08</time>
      </trkpt>
      <trkpt lat="39.94193" lon="-4.4383">
        <ele>553.2</ele>
        <time>2020-08-16 11:58:09</time>
      </trkpt>
      <trkpt lat="39.94196" lon="-4.43829">
        <ele>553.2</ele>
        <time>2020-08-16 11:58:10</time>
      </trkpt>
      <trkpt lat="39.94199" lon="-4.43827">
        <ele>553.2</ele>
        <time>2020-08-16 11:58:11</time>
      </trkpt>
      <trkpt lat="39.94202" lon="-4.43827">
        <ele>553.4</ele>
        <time>2020-08-16 11:58:12</time>
      </trkpt>
      <trkpt lat="39.94213" lon="-4.43825">
        <ele>553.6</ele>
        <time>2020-08-16 11:58:15</time>
      </trkpt>
      <trkpt lat="39.94217" lon="-4.43824">
        <ele>553.6</ele>
        <time>2020-08-16 11:58:16</time>
      </trkpt>
      <trkpt lat="39.94221" lon="-4.43823">
        <ele>553.8</ele>
        <time>2020-08-16 11:58:17</time>
      </trkpt>
      <trkpt lat="39.94226" lon="-4.43822">
        <ele>553.8</ele>
        <time>2020-08-16 11:58:18</time>
      </trkpt>
      <trkpt lat="39.94229" lon="-4.43822">
        <ele>553.8</ele>
        <time>2020-08-16 11:58:19</time>
      </trkpt>
      <trkpt lat="39.94234" lon="-4.43822">
        <ele>554</ele>
        <time>2020-08-16 11:58:20</time>
      </trkpt>
      <trkpt lat="39.94237" lon="-4.43823">
        <ele>554</ele>
        <time>2020-08-16 11:58:21</time>
      </trkpt>
      <trkpt lat="39.94241" lon="-4.43824">
        <ele>554.2</ele>
        <time>2020-08-16 11:58:22</time>
      </trkpt>
      <trkpt lat="39.94244" lon="-4.43828">
        <ele>554.2</ele>
        <time>2020-08-16 11:58:23</time>
      </trkpt>
      <trkpt lat="39.94245" lon="-4.43833">
        <ele>554.2</ele>
        <time>2020-08-16 11:58:24</time>
      </trkpt>
      <trkpt lat="39.94246" lon="-4.43838">
        <ele>554.4</ele>
        <time>2020-08-16 11:58:25</time>
      </trkpt>
      <trkpt lat="39.94247" lon="-4.43843">
        <ele>554.4</ele>
        <time>2020-08-16 11:58:26</time>
      </trkpt>
      <trkpt lat="39.94246" lon="-4.43847">
        <ele>554.4</ele>
        <time>2020-08-16 11:58:27</time>
      </trkpt>
      <trkpt lat="39.94245" lon="-4.43851">
        <ele>554.4</ele>
        <time>2020-08-16 11:58:28</time>
      </trkpt>
      <trkpt lat="39.94245" lon="-4.43854">
        <ele>554.4</ele>
        <time>2020-08-16 11:58:29</time>
      </trkpt>
      <trkpt lat="39.94244" lon="-4.43857">
        <ele>554.4</ele>
        <time>2020-08-16 11:58:30</time>
      </trkpt>
      <trkpt lat="39.94243" lon="-4.43859">
        <ele>554.4</ele>
        <time>2020-08-16 11:58:31</time>
      </trkpt>
      <trkpt lat="39.94241" lon="-4.43864">
        <ele>554.6</ele>
        <time>2020-08-16 11:58:32</time>
      </trkpt>
      <trkpt lat="39.9424" lon="-4.4387">
        <ele>554.6</ele>
        <time>2020-08-16 11:58:34</time>
      </trkpt>
      <trkpt lat="39.94239" lon="-4.43873">
        <ele>554.6</ele>
        <time>2020-08-16 11:58:35</time>
      </trkpt>
      <trkpt lat="39.94238" lon="-4.43876">
        <ele>554.8</ele>
        <time>2020-08-16 11:58:36</time>
      </trkpt>
      <trkpt lat="39.94237" lon="-4.43879">
        <ele>554.8</ele>
        <time>2020-08-16 11:58:37</time>
      </trkpt>
      <trkpt lat="39.94235" lon="-4.43882">
        <ele>554.8</ele>
        <time>2020-08-16 11:58:38</time>
      </trkpt>
      <trkpt lat="39.94233" lon="-4.43885">
        <ele>555</ele>
        <time>2020-08-16 11:58:39</time>
      </trkpt>
      <trkpt lat="39.94232" lon="-4.43888">
        <ele>555</ele>
        <time>2020-08-16 11:58:40</time>
      </trkpt>
      <trkpt lat="39.9423" lon="-4.43892">
        <ele>555.2</ele>
        <time>2020-08-16 11:58:41</time>
      </trkpt>
      <trkpt lat="39.94229" lon="-4.43896">
        <ele>555.2</ele>
        <time>2020-08-16 11:58:42</time>
      </trkpt>
      <trkpt lat="39.94228" lon="-4.43899">
        <ele>555.4</ele>
        <time>2020-08-16 11:58:43</time>
      </trkpt>
      <trkpt lat="39.94226" lon="-4.43903">
        <ele>555.4</ele>
        <time>2020-08-16 11:58:44</time>
      </trkpt>
      <trkpt lat="39.94223" lon="-4.43914">
        <ele>555.4</ele>
        <time>2020-08-16 11:58:47</time>
      </trkpt>
      <trkpt lat="39.94223" lon="-4.43918">
        <ele>555.6</ele>
        <time>2020-08-16 11:58:48</time>
      </trkpt>
      <trkpt lat="39.94223" lon="-4.43928">
        <ele>555.6</ele>
        <time>2020-08-16 11:58:50</time>
      </trkpt>
      <trkpt lat="39.94224" lon="-4.43932">
        <ele>555.6</ele>
        <time>2020-08-16 11:58:51</time>
      </trkpt>
      <trkpt lat="39.94224" lon="-4.43936">
        <ele>555.6</ele>
        <time>2020-08-16 11:58:52</time>
      </trkpt>
      <trkpt lat="39.94223" lon="-4.4394">
        <ele>555.6</ele>
        <time>2020-08-16 11:58:53</time>
      </trkpt>
      <trkpt lat="39.94223" lon="-4.43944">
        <ele>555.8</ele>
        <time>2020-08-16 11:58:54</time>
      </trkpt>
      <trkpt lat="39.94223" lon="-4.43948">
        <ele>555.8</ele>
        <time>2020-08-16 11:58:55</time>
      </trkpt>
      <trkpt lat="39.94223" lon="-4.43953">
        <ele>555.8</ele>
        <time>2020-08-16 11:58:56</time>
      </trkpt>
      <trkpt lat="39.94223" lon="-4.43956">
        <ele>556</ele>
        <time>2020-08-16 11:58:57</time>
      </trkpt>
      <trkpt lat="39.94223" lon="-4.4396">
        <ele>556</ele>
        <time>2020-08-16 11:58:58</time>
      </trkpt>
      <trkpt lat="39.94222" lon="-4.43964">
        <ele>556.2</ele>
        <time>2020-08-16 11:58:59</time>
      </trkpt>
      <trkpt lat="39.94222" lon="-4.43968">
        <ele>556.2</ele>
        <time>2020-08-16 11:59:00</time>
      </trkpt>
      <trkpt lat="39.94222" lon="-4.43972">
        <ele>556.2</ele>
        <time>2020-08-16 11:59:01</time>
      </trkpt>
      <trkpt lat="39.94222" lon="-4.43975">
        <ele>556.4</ele>
        <time>2020-08-16 11:59:02</time>
      </trkpt>
      <trkpt lat="39.94222" lon="-4.43979">
        <ele>556.4</ele>
        <time>2020-08-16 11:59:03</time>
      </trkpt>
      <trkpt lat="39.94222" lon="-4.43982">
        <ele>556.6</ele>
        <time>2020-08-16 11:59:04</time>
      </trkpt>
      <trkpt lat="39.94223" lon="-4.43986">
        <ele>556.6</ele>
        <time>2020-08-16 11:59:05</time>
      </trkpt>
      <trkpt lat="39.94224" lon="-4.4399">
        <ele>556.6</ele>
        <time>2020-08-16 11:59:06</time>
      </trkpt>
      <trkpt lat="39.94225" lon="-4.43994">
        <ele>556.6</ele>
        <time>2020-08-16 11:59:07</time>
      </trkpt>
      <trkpt lat="39.94231" lon="-4.44017">
        <ele>557.2</ele>
        <time>2020-08-16 11:59:13</time>
      </trkpt>
      <trkpt lat="39.94238" lon="-4.44041">
        <ele>557.2</ele>
        <time>2020-08-16 11:59:19</time>
      </trkpt>
      <trkpt lat="39.9424" lon="-4.44044">
        <ele>557.2</ele>
        <time>2020-08-16 11:59:20</time>
      </trkpt>
      <trkpt lat="39.94242" lon="-4.44047">
        <ele>557.2</ele>
        <time>2020-08-16 11:59:21</time>
      </trkpt>
      <trkpt lat="39.94247" lon="-4.44052">
        <ele>557.2</ele>
        <time>2020-08-16 11:59:23</time>
      </trkpt>
      <trkpt lat="39.9425" lon="-4.44055">
        <ele>557.2</ele>
        <time>2020-08-16 11:59:24</time>
      </trkpt>
      <trkpt lat="39.94253" lon="-4.44056">
        <ele>557.2</ele>
        <time>2020-08-16 11:59:25</time>
      </trkpt>
      <trkpt lat="39.94259" lon="-4.44061">
        <ele>557.2</ele>
        <time>2020-08-16 11:59:27</time>
      </trkpt>
      <trkpt lat="39.94261" lon="-4.44063">
        <ele>557.2</ele>
        <time>2020-08-16 11:59:28</time>
      </trkpt>
      <trkpt lat="39.94266" lon="-4.44068">
        <ele>557.4</ele>
        <time>2020-08-16 11:59:30</time>
      </trkpt>
      <trkpt lat="39.94271" lon="-4.44072">
        <ele>557.8</ele>
        <time>2020-08-16 11:59:32</time>
      </trkpt>
      <trkpt lat="39.94274" lon="-4.44074">
        <ele>558</ele>
        <time>2020-08-16 11:59:33</time>
      </trkpt>
      <trkpt lat="39.94276" lon="-4.44075">
        <ele>558</ele>
        <time>2020-08-16 11:59:34</time>
      </trkpt>
      <trkpt lat="39.9428" lon="-4.44075">
        <ele>558.2</ele>
        <time>2020-08-16 11:59:35</time>
      </trkpt>
      <trkpt lat="39.94283" lon="-4.44075">
        <ele>558.2</ele>
        <time>2020-08-16 11:59:36</time>
      </trkpt>
      <trkpt lat="39.94287" lon="-4.44074">
        <ele>558.4</ele>
        <time>2020-08-16 11:59:37</time>
      </trkpt>
      <trkpt lat="39.9429" lon="-4.44073">
        <ele>558.4</ele>
        <time>2020-08-16 11:59:38</time>
      </trkpt>
      <trkpt lat="39.94293" lon="-4.44071">
        <ele>558.4</ele>
        <time>2020-08-16 11:59:39</time>
      </trkpt>
      <trkpt lat="39.94296" lon="-4.44069">
        <ele>558.4</ele>
        <time>2020-08-16 11:59:40</time>
      </trkpt>
      <trkpt lat="39.94298" lon="-4.44067">
        <ele>558.6</ele>
        <time>2020-08-16 11:59:41</time>
      </trkpt>
      <trkpt lat="39.94301" lon="-4.44065">
        <ele>558.6</ele>
        <time>2020-08-16 11:59:42</time>
      </trkpt>
      <trkpt lat="39.94303" lon="-4.44063">
        <ele>558.6</ele>
        <time>2020-08-16 11:59:43</time>
      </trkpt>
      <trkpt lat="39.94305" lon="-4.44062">
        <ele>558.6</ele>
        <time>2020-08-16 11:59:44</time>
      </trkpt>
      <trkpt lat="39.94306" lon="-4.44061">
        <ele>558.8</ele>
        <time>2020-08-16 11:59:45</time>
      </trkpt>
      <trkpt lat="39.94307" lon="-4.4406">
        <ele>558.8</ele>
        <time>2020-08-16 11:59:46</time>
      </trkpt>
      <trkpt lat="39.94307" lon="-4.4406">
        <ele>559</ele>
        <time>2020-08-16 11:59:47</time>
      </trkpt>
      <trkpt lat="39.94308" lon="-4.44059">
        <ele>559</ele>
        <time>2020-08-16 11:59:48</time>
      </trkpt>
      <trkpt lat="39.94309" lon="-4.44058">
        <ele>559</ele>
        <time>2020-08-16 11:59:49</time>
      </trkpt>
      <trkpt lat="39.94312" lon="-4.44056">
        <ele>559</ele>
        <time>2020-08-16 11:59:51</time>
      </trkpt>
      <trkpt lat="39.94315" lon="-4.44053">
        <ele>559.2</ele>
        <time>2020-08-16 11:59:53</time>
      </trkpt>
      <trkpt lat="39.94322" lon="-4.44047">
        <ele>559.2</ele>
        <time>2020-08-16 11:59:57</time>
      </trkpt>
      <trkpt lat="39.94324" lon="-4.44046">
        <ele>559.4</ele>
        <time>2020-08-16 11:59:58</time>
      </trkpt>
      <trkpt lat="39.94326" lon="-4.44044">
        <ele>559.4</ele>
        <time>2020-08-16 11:59:59</time>
      </trkpt>
      <trkpt lat="39.94333" lon="-4.44036">
        <ele>559.4</ele>
        <time>2020-08-16 12:00:03</time>
      </trkpt>
      <trkpt lat="39.94335" lon="-4.44034">
        <ele>559.4</ele>
        <time>2020-08-16 12:00:04</time>
      </trkpt>
      <trkpt lat="39.94341" lon="-4.44028">
        <ele>559.6</ele>
        <time>2020-08-16 12:00:07</time>
      </trkpt>
      <trkpt lat="39.94343" lon="-4.44025">
        <ele>559.6</ele>
        <time>2020-08-16 12:00:08</time>
      </trkpt>
      <trkpt lat="39.94345" lon="-4.44023">
        <ele>559.6</ele>
        <time>2020-08-16 12:00:09</time>
      </trkpt>
      <trkpt lat="39.94355" lon="-4.44013">
        <ele>560.2</ele>
        <time>2020-08-16 12:00:14</time>
      </trkpt>
      <trkpt lat="39.94357" lon="-4.44011">
        <ele>560.2</ele>
        <time>2020-08-16 12:00:15</time>
      </trkpt>
      <trkpt lat="39.94358" lon="-4.44009">
        <ele>560.2</ele>
        <time>2020-08-16 12:00:16</time>
      </trkpt>
      <trkpt lat="39.94359" lon="-4.44008">
        <ele>560.2</ele>
        <time>2020-08-16 12:00:17</time>
      </trkpt>
      <trkpt lat="39.94359" lon="-4.44006">
        <ele>560.2</ele>
        <time>2020-08-16 12:00:18</time>
      </trkpt>
      <trkpt lat="39.9436" lon="-4.44004">
        <ele>560.2</ele>
        <time>2020-08-16 12:00:19</time>
      </trkpt>
      <trkpt lat="39.9436" lon="-4.44003">
        <ele>560.2</ele>
        <time>2020-08-16 12:00:20</time>
      </trkpt>
      <trkpt lat="39.9436" lon="-4.44003">
        <ele>560.2</ele>
        <time>2020-08-16 12:00:21</time>
      </trkpt>
      <trkpt lat="39.9436" lon="-4.44003">
        <ele>560</ele>
        <time>2020-08-16 12:00:23</time>
      </trkpt>
      <trkpt lat="39.94363" lon="-4.44006">
        <ele>559.6</ele>
        <time>2020-08-16 12:01:08</time>
      </trkpt>
      <trkpt lat="39.94364" lon="-4.4401">
        <ele>559.6</ele>
        <time>2020-08-16 12:01:09</time>
      </trkpt>
      <trkpt lat="39.94366" lon="-4.44014">
        <ele>559.6</ele>
        <time>2020-08-16 12:01:10</time>
      </trkpt>
      <trkpt lat="39.94367" lon="-4.44017">
        <ele>559.6</ele>
        <time>2020-08-16 12:01:11</time>
      </trkpt>
      <trkpt lat="39.94369" lon="-4.44022">
        <ele>559.6</ele>
        <time>2020-08-16 12:01:12</time>
      </trkpt>
      <trkpt lat="39.9437" lon="-4.44025">
        <ele>559.8</ele>
        <time>2020-08-16 12:01:13</time>
      </trkpt>
      <trkpt lat="39.94372" lon="-4.44034">
        <ele>559.8</ele>
        <time>2020-08-16 12:01:15</time>
      </trkpt>
      <trkpt lat="39.94373" lon="-4.44039">
        <ele>560</ele>
        <time>2020-08-16 12:01:16</time>
      </trkpt>
      <trkpt lat="39.94374" lon="-4.44043">
        <ele>560</ele>
        <time>2020-08-16 12:01:17</time>
      </trkpt>
      <trkpt lat="39.94375" lon="-4.44047">
        <ele>560</ele>
        <time>2020-08-16 12:01:18</time>
      </trkpt>
      <trkpt lat="39.94375" lon="-4.44051">
        <ele>560</ele>
        <time>2020-08-16 12:01:19</time>
      </trkpt>
      <trkpt lat="39.94376" lon="-4.44055">
        <ele>560.2</ele>
        <time>2020-08-16 12:01:20</time>
      </trkpt>
      <trkpt lat="39.94377" lon="-4.44058">
        <ele>560.4</ele>
        <time>2020-08-16 12:01:21</time>
      </trkpt>
      <trkpt lat="39.94378" lon="-4.44061">
        <ele>560.6</ele>
        <time>2020-08-16 12:01:22</time>
      </trkpt>
      <trkpt lat="39.94378" lon="-4.44064">
        <ele>560.8</ele>
        <time>2020-08-16 12:01:23</time>
      </trkpt>
      <trkpt lat="39.94379" lon="-4.44066">
        <ele>560.8</ele>
        <time>2020-08-16 12:01:24</time>
      </trkpt>
      <trkpt lat="39.9438" lon="-4.44069">
        <ele>561</ele>
        <time>2020-08-16 12:01:25</time>
      </trkpt>
      <trkpt lat="39.94381" lon="-4.44073">
        <ele>561</ele>
        <time>2020-08-16 12:01:26</time>
      </trkpt>
      <trkpt lat="39.94381" lon="-4.44077">
        <ele>561.2</ele>
        <time>2020-08-16 12:01:27</time>
      </trkpt>
      <trkpt lat="39.94382" lon="-4.4408">
        <ele>561.4</ele>
        <time>2020-08-16 12:01:28</time>
      </trkpt>
      <trkpt lat="39.94383" lon="-4.44084">
        <ele>561.4</ele>
        <time>2020-08-16 12:01:29</time>
      </trkpt>
      <trkpt lat="39.94384" lon="-4.44087">
        <ele>561.4</ele>
        <time>2020-08-16 12:01:30</time>
      </trkpt>
      <trkpt lat="39.94385" lon="-4.44091">
        <ele>561.6</ele>
        <time>2020-08-16 12:01:31</time>
      </trkpt>
      <trkpt lat="39.94388" lon="-4.44102">
        <ele>561.6</ele>
        <time>2020-08-16 12:01:34</time>
      </trkpt>
      <trkpt lat="39.94391" lon="-4.44113">
        <ele>561.8</ele>
        <time>2020-08-16 12:01:37</time>
      </trkpt>
      <trkpt lat="39.94398" lon="-4.4413">
        <ele>562</ele>
        <time>2020-08-16 12:01:42</time>
      </trkpt>
      <trkpt lat="39.94401" lon="-4.44142">
        <ele>562.2</ele>
        <time>2020-08-16 12:01:45</time>
      </trkpt>
      <trkpt lat="39.94404" lon="-4.44151">
        <ele>562.4</ele>
        <time>2020-08-16 12:01:47</time>
      </trkpt>
      <trkpt lat="39.94412" lon="-4.44175">
        <ele>562.8</ele>
        <time>2020-08-16 12:01:53</time>
      </trkpt>
      <trkpt lat="39.94414" lon="-4.44183">
        <ele>563</ele>
        <time>2020-08-16 12:01:55</time>
      </trkpt>
      <trkpt lat="39.94416" lon="-4.44187">
        <ele>563</ele>
        <time>2020-08-16 12:01:56</time>
      </trkpt>
      <trkpt lat="39.94417" lon="-4.44191">
        <ele>563</ele>
        <time>2020-08-16 12:01:57</time>
      </trkpt>
      <trkpt lat="39.94418" lon="-4.44195">
        <ele>563</ele>
        <time>2020-08-16 12:01:58</time>
      </trkpt>
      <trkpt lat="39.94419" lon="-4.44199">
        <ele>563</ele>
        <time>2020-08-16 12:01:59</time>
      </trkpt>
      <trkpt lat="39.94425" lon="-4.44221">
        <ele>563.2</ele>
        <time>2020-08-16 12:02:04</time>
      </trkpt>
      <trkpt lat="39.94434" lon="-4.44253">
        <ele>563.4</ele>
        <time>2020-08-16 12:02:11</time>
      </trkpt>
      <trkpt lat="39.94435" lon="-4.44258">
        <ele>563.4</ele>
        <time>2020-08-16 12:02:12</time>
      </trkpt>
      <trkpt lat="39.94436" lon="-4.44267">
        <ele>563.6</ele>
        <time>2020-08-16 12:02:14</time>
      </trkpt>
      <trkpt lat="39.94436" lon="-4.44272">
        <ele>563.6</ele>
        <time>2020-08-16 12:02:15</time>
      </trkpt>
      <trkpt lat="39.94436" lon="-4.44276">
        <ele>563.6</ele>
        <time>2020-08-16 12:02:16</time>
      </trkpt>
      <trkpt lat="39.94436" lon="-4.44279">
        <ele>563.6</ele>
        <time>2020-08-16 12:02:17</time>
      </trkpt>
      <trkpt lat="39.94435" lon="-4.44281">
        <ele>563.8</ele>
        <time>2020-08-16 12:02:18</time>
      </trkpt>
      <trkpt lat="39.94435" lon="-4.44283">
        <ele>563.8</ele>
        <time>2020-08-16 12:02:19</time>
      </trkpt>
      <trkpt lat="39.94435" lon="-4.44284">
        <ele>564</ele>
        <time>2020-08-16 12:02:20</time>
      </trkpt>
      <trkpt lat="39.94435" lon="-4.44284">
        <ele>564</ele>
        <time>2020-08-16 12:02:22</time>
      </trkpt>
      <trkpt lat="39.94437" lon="-4.44287">
        <ele>564.2</ele>
        <time>2020-08-16 12:03:12</time>
      </trkpt>
      <trkpt lat="39.94438" lon="-4.44288">
        <ele>564.2</ele>
        <time>2020-08-16 12:03:13</time>
      </trkpt>
      <trkpt lat="39.94438" lon="-4.4429">
        <ele>564.4</ele>
        <time>2020-08-16 12:03:14</time>
      </trkpt>
      <trkpt lat="39.94438" lon="-4.44292">
        <ele>564.4</ele>
        <time>2020-08-16 12:03:15</time>
      </trkpt>
      <trkpt lat="39.94439" lon="-4.44293">
        <ele>564.4</ele>
        <time>2020-08-16 12:03:16</time>
      </trkpt>
      <trkpt lat="39.94439" lon="-4.44296">
        <ele>564.6</ele>
        <time>2020-08-16 12:03:18</time>
      </trkpt>
      <trkpt lat="39.94441" lon="-4.44302">
        <ele>564.6</ele>
        <time>2020-08-16 12:03:21</time>
      </trkpt>
      <trkpt lat="39.94441" lon="-4.44304">
        <ele>564.6</ele>
        <time>2020-08-16 12:03:22</time>
      </trkpt>
      <trkpt lat="39.94443" lon="-4.4431">
        <ele>564.6</ele>
        <time>2020-08-16 12:03:24</time>
      </trkpt>
      <trkpt lat="39.94443" lon="-4.44312">
        <ele>564.6</ele>
        <time>2020-08-16 12:03:25</time>
      </trkpt>
      <trkpt lat="39.94445" lon="-4.44317">
        <ele>564.8</ele>
        <time>2020-08-16 12:03:27</time>
      </trkpt>
      <trkpt lat="39.94447" lon="-4.44325">
        <ele>565</ele>
        <time>2020-08-16 12:03:31</time>
      </trkpt>
      <trkpt lat="39.94448" lon="-4.44327">
        <ele>565</ele>
        <time>2020-08-16 12:03:32</time>
      </trkpt>
      <trkpt lat="39.94448" lon="-4.44334">
        <ele>565</ele>
        <time>2020-08-16 12:03:34</time>
      </trkpt>
      <trkpt lat="39.94449" lon="-4.44339">
        <ele>565</ele>
        <time>2020-08-16 12:03:36</time>
      </trkpt>
      <trkpt lat="39.9445" lon="-4.44342">
        <ele>565</ele>
        <time>2020-08-16 12:03:37</time>
      </trkpt>
      <trkpt lat="39.94453" lon="-4.44362">
        <ele>565.4</ele>
        <time>2020-08-16 12:03:43</time>
      </trkpt>
      <trkpt lat="39.94454" lon="-4.44372">
        <ele>565.4</ele>
        <time>2020-08-16 12:03:46</time>
      </trkpt>
      <trkpt lat="39.94455" lon="-4.44384">
        <ele>565.8</ele>
        <time>2020-08-16 12:03:49</time>
      </trkpt>
      <trkpt lat="39.94458" lon="-4.44402">
        <ele>566</ele>
        <time>2020-08-16 12:03:54</time>
      </trkpt>
      <trkpt lat="39.9446" lon="-4.44414">
        <ele>566</ele>
        <time>2020-08-16 12:03:57</time>
      </trkpt>
      <trkpt lat="39.94463" lon="-4.44431">
        <ele>566.2</ele>
        <time>2020-08-16 12:04:01</time>
      </trkpt>
      <trkpt lat="39.94463" lon="-4.44435">
        <ele>566.2</ele>
        <time>2020-08-16 12:04:02</time>
      </trkpt>
      <trkpt lat="39.94464" lon="-4.44447">
        <ele>566.4</ele>
        <time>2020-08-16 12:04:05</time>
      </trkpt>
      <trkpt lat="39.94465" lon="-4.44456">
        <ele>566.6</ele>
        <time>2020-08-16 12:04:07</time>
      </trkpt>
      <trkpt lat="39.94465" lon="-4.4446">
        <ele>566.8</ele>
        <time>2020-08-16 12:04:08</time>
      </trkpt>
      <trkpt lat="39.94466" lon="-4.44469">
        <ele>566.8</ele>
        <time>2020-08-16 12:04:10</time>
      </trkpt>
      <trkpt lat="39.94466" lon="-4.44473">
        <ele>566.8</ele>
        <time>2020-08-16 12:04:11</time>
      </trkpt>
      <trkpt lat="39.94466" lon="-4.44482">
        <ele>567</ele>
        <time>2020-08-16 12:04:13</time>
      </trkpt>
      <trkpt lat="39.94466" lon="-4.44487">
        <ele>567</ele>
        <time>2020-08-16 12:04:14</time>
      </trkpt>
      <trkpt lat="39.94467" lon="-4.44513">
        <ele>567</ele>
        <time>2020-08-16 12:04:20</time>
      </trkpt>
      <trkpt lat="39.94466" lon="-4.44541">
        <ele>567.6</ele>
        <time>2020-08-16 12:04:26</time>
      </trkpt>
      <trkpt lat="39.94466" lon="-4.44546">
        <ele>567.8</ele>
        <time>2020-08-16 12:04:27</time>
      </trkpt>
      <trkpt lat="39.94467" lon="-4.44559">
        <ele>567.8</ele>
        <time>2020-08-16 12:04:30</time>
      </trkpt>
      <trkpt lat="39.94467" lon="-4.44563">
        <ele>568</ele>
        <time>2020-08-16 12:04:31</time>
      </trkpt>
      <trkpt lat="39.94467" lon="-4.44567">
        <ele>568</ele>
        <time>2020-08-16 12:04:32</time>
      </trkpt>
      <trkpt lat="39.94467" lon="-4.44571">
        <ele>568</ele>
        <time>2020-08-16 12:04:33</time>
      </trkpt>
      <trkpt lat="39.94467" lon="-4.44576">
        <ele>568.2</ele>
        <time>2020-08-16 12:04:34</time>
      </trkpt>
      <trkpt lat="39.94467" lon="-4.44581">
        <ele>568.2</ele>
        <time>2020-08-16 12:04:35</time>
      </trkpt>
      <trkpt lat="39.94467" lon="-4.44585">
        <ele>568.6</ele>
        <time>2020-08-16 12:04:36</time>
      </trkpt>
      <trkpt lat="39.94467" lon="-4.4459">
        <ele>568.8</ele>
        <time>2020-08-16 12:04:37</time>
      </trkpt>
      <trkpt lat="39.94467" lon="-4.44594">
        <ele>569</ele>
        <time>2020-08-16 12:04:38</time>
      </trkpt>
      <trkpt lat="39.94466" lon="-4.44598">
        <ele>569.2</ele>
        <time>2020-08-16 12:04:39</time>
      </trkpt>
      <trkpt lat="39.94466" lon="-4.44603">
        <ele>569.2</ele>
        <time>2020-08-16 12:04:40</time>
      </trkpt>
      <trkpt lat="39.94467" lon="-4.44608">
        <ele>569.2</ele>
        <time>2020-08-16 12:04:41</time>
      </trkpt>
      <trkpt lat="39.94467" lon="-4.44613">
        <ele>569.2</ele>
        <time>2020-08-16 12:04:42</time>
      </trkpt>
      <trkpt lat="39.94467" lon="-4.44617">
        <ele>569.2</ele>
        <time>2020-08-16 12:04:43</time>
      </trkpt>
      <trkpt lat="39.94467" lon="-4.44621">
        <ele>569.2</ele>
        <time>2020-08-16 12:04:44</time>
      </trkpt>
      <trkpt lat="39.94467" lon="-4.44626">
        <ele>569.4</ele>
        <time>2020-08-16 12:04:45</time>
      </trkpt>
      <trkpt lat="39.94468" lon="-4.44631">
        <ele>569.6</ele>
        <time>2020-08-16 12:04:46</time>
      </trkpt>
      <trkpt lat="39.94468" lon="-4.44635">
        <ele>569.6</ele>
        <time>2020-08-16 12:04:47</time>
      </trkpt>
      <trkpt lat="39.94468" lon="-4.44639">
        <ele>569.8</ele>
        <time>2020-08-16 12:04:48</time>
      </trkpt>
      <trkpt lat="39.94468" lon="-4.44643">
        <ele>569.8</ele>
        <time>2020-08-16 12:04:49</time>
      </trkpt>
      <trkpt lat="39.94469" lon="-4.44647">
        <ele>570</ele>
        <time>2020-08-16 12:04:50</time>
      </trkpt>
      <trkpt lat="39.94469" lon="-4.44651">
        <ele>570</ele>
        <time>2020-08-16 12:04:51</time>
      </trkpt>
      <trkpt lat="39.9447" lon="-4.44655">
        <ele>570.2</ele>
        <time>2020-08-16 12:04:52</time>
      </trkpt>
      <trkpt lat="39.9447" lon="-4.44659">
        <ele>570.2</ele>
        <time>2020-08-16 12:04:53</time>
      </trkpt>
      <trkpt lat="39.94471" lon="-4.44663">
        <ele>570.2</ele>
        <time>2020-08-16 12:04:54</time>
      </trkpt>
      <trkpt lat="39.94471" lon="-4.44667">
        <ele>570.4</ele>
        <time>2020-08-16 12:04:55</time>
      </trkpt>
      <trkpt lat="39.94472" lon="-4.44672">
        <ele>570.4</ele>
        <time>2020-08-16 12:04:56</time>
      </trkpt>
      <trkpt lat="39.94473" lon="-4.44681">
        <ele>570.6</ele>
        <time>2020-08-16 12:04:58</time>
      </trkpt>
      <trkpt lat="39.94475" lon="-4.44693">
        <ele>571</ele>
        <time>2020-08-16 12:05:01</time>
      </trkpt>
      <trkpt lat="39.94475" lon="-4.44697">
        <ele>571.2</ele>
        <time>2020-08-16 12:05:02</time>
      </trkpt>
      <trkpt lat="39.94475" lon="-4.44702">
        <ele>571.4</ele>
        <time>2020-08-16 12:05:03</time>
      </trkpt>
      <trkpt lat="39.94476" lon="-4.44706">
        <ele>571.6</ele>
        <time>2020-08-16 12:05:04</time>
      </trkpt>
      <trkpt lat="39.94476" lon="-4.4471">
        <ele>571.6</ele>
        <time>2020-08-16 12:05:05</time>
      </trkpt>
      <trkpt lat="39.94476" lon="-4.44714">
        <ele>571.6</ele>
        <time>2020-08-16 12:05:06</time>
      </trkpt>
      <trkpt lat="39.94477" lon="-4.44719">
        <ele>571.8</ele>
        <time>2020-08-16 12:05:07</time>
      </trkpt>
      <trkpt lat="39.94477" lon="-4.44723">
        <ele>571.8</ele>
        <time>2020-08-16 12:05:08</time>
      </trkpt>
      <trkpt lat="39.94478" lon="-4.44727">
        <ele>571.8</ele>
        <time>2020-08-16 12:05:09</time>
      </trkpt>
      <trkpt lat="39.94479" lon="-4.44745">
        <ele>572</ele>
        <time>2020-08-16 12:05:13</time>
      </trkpt>
      <trkpt lat="39.94479" lon="-4.44753">
        <ele>572.2</ele>
        <time>2020-08-16 12:05:15</time>
      </trkpt>
      <trkpt lat="39.94479" lon="-4.44762">
        <ele>572.6</ele>
        <time>2020-08-16 12:05:17</time>
      </trkpt>
      <trkpt lat="39.94479" lon="-4.44766">
        <ele>572.6</ele>
        <time>2020-08-16 12:05:18</time>
      </trkpt>
      <trkpt lat="39.94478" lon="-4.4477">
        <ele>572.8</ele>
        <time>2020-08-16 12:05:19</time>
      </trkpt>
      <trkpt lat="39.94478" lon="-4.44775">
        <ele>572.8</ele>
        <time>2020-08-16 12:05:20</time>
      </trkpt>
      <trkpt lat="39.94478" lon="-4.44779">
        <ele>572.8</ele>
        <time>2020-08-16 12:05:21</time>
      </trkpt>
      <trkpt lat="39.94477" lon="-4.44783">
        <ele>573</ele>
        <time>2020-08-16 12:05:22</time>
      </trkpt>
      <trkpt lat="39.94477" lon="-4.44787">
        <ele>573</ele>
        <time>2020-08-16 12:05:23</time>
      </trkpt>
      <trkpt lat="39.94476" lon="-4.4479">
        <ele>573</ele>
        <time>2020-08-16 12:05:24</time>
      </trkpt>
      <trkpt lat="39.94476" lon="-4.44794">
        <ele>573.2</ele>
        <time>2020-08-16 12:05:25</time>
      </trkpt>
      <trkpt lat="39.94475" lon="-4.44798">
        <ele>573.4</ele>
        <time>2020-08-16 12:05:26</time>
      </trkpt>
      <trkpt lat="39.94475" lon="-4.44802">
        <ele>573.6</ele>
        <time>2020-08-16 12:05:27</time>
      </trkpt>
      <trkpt lat="39.94475" lon="-4.44806">
        <ele>573.8</ele>
        <time>2020-08-16 12:05:28</time>
      </trkpt>
      <trkpt lat="39.94475" lon="-4.44809">
        <ele>574</ele>
        <time>2020-08-16 12:05:29</time>
      </trkpt>
      <trkpt lat="39.94474" lon="-4.44813">
        <ele>574</ele>
        <time>2020-08-16 12:05:30</time>
      </trkpt>
      <trkpt lat="39.94474" lon="-4.44817">
        <ele>574.4</ele>
        <time>2020-08-16 12:05:31</time>
      </trkpt>
      <trkpt lat="39.94474" lon="-4.4482">
        <ele>574.4</ele>
        <time>2020-08-16 12:05:32</time>
      </trkpt>
      <trkpt lat="39.94474" lon="-4.44824">
        <ele>574.6</ele>
        <time>2020-08-16 12:05:33</time>
      </trkpt>
      <trkpt lat="39.94473" lon="-4.44827">
        <ele>574.8</ele>
        <time>2020-08-16 12:05:34</time>
      </trkpt>
      <trkpt lat="39.94473" lon="-4.44831">
        <ele>574.8</ele>
        <time>2020-08-16 12:05:35</time>
      </trkpt>
      <trkpt lat="39.94473" lon="-4.44835">
        <ele>575</ele>
        <time>2020-08-16 12:05:36</time>
      </trkpt>
      <trkpt lat="39.94473" lon="-4.44838">
        <ele>575</ele>
        <time>2020-08-16 12:05:37</time>
      </trkpt>
      <trkpt lat="39.94472" lon="-4.44841">
        <ele>575.4</ele>
        <time>2020-08-16 12:05:38</time>
      </trkpt>
      <trkpt lat="39.94472" lon="-4.44845">
        <ele>575.6</ele>
        <time>2020-08-16 12:05:39</time>
      </trkpt>
      <trkpt lat="39.94472" lon="-4.44848">
        <ele>576</ele>
        <time>2020-08-16 12:05:40</time>
      </trkpt>
      <trkpt lat="39.94471" lon="-4.44851">
        <ele>576.2</ele>
        <time>2020-08-16 12:05:41</time>
      </trkpt>
      <trkpt lat="39.94471" lon="-4.44855">
        <ele>576.2</ele>
        <time>2020-08-16 12:05:42</time>
      </trkpt>
      <trkpt lat="39.94471" lon="-4.44858">
        <ele>576.4</ele>
        <time>2020-08-16 12:05:43</time>
      </trkpt>
      <trkpt lat="39.9447" lon="-4.44862">
        <ele>576.6</ele>
        <time>2020-08-16 12:05:44</time>
      </trkpt>
      <trkpt lat="39.9447" lon="-4.44865">
        <ele>576.6</ele>
        <time>2020-08-16 12:05:45</time>
      </trkpt>
      <trkpt lat="39.9447" lon="-4.44869">
        <ele>576.8</ele>
        <time>2020-08-16 12:05:46</time>
      </trkpt>
      <trkpt lat="39.9447" lon="-4.44873">
        <ele>577</ele>
        <time>2020-08-16 12:05:47</time>
      </trkpt>
      <trkpt lat="39.9447" lon="-4.44876">
        <ele>577.2</ele>
        <time>2020-08-16 12:05:48</time>
      </trkpt>
      <trkpt lat="39.9447" lon="-4.4488">
        <ele>577.4</ele>
        <time>2020-08-16 12:05:49</time>
      </trkpt>
      <trkpt lat="39.94469" lon="-4.44884">
        <ele>577.4</ele>
        <time>2020-08-16 12:05:50</time>
      </trkpt>
      <trkpt lat="39.94469" lon="-4.44888">
        <ele>577.6</ele>
        <time>2020-08-16 12:05:51</time>
      </trkpt>
      <trkpt lat="39.94469" lon="-4.44892">
        <ele>577.8</ele>
        <time>2020-08-16 12:05:52</time>
      </trkpt>
      <trkpt lat="39.94468" lon="-4.44896">
        <ele>577.8</ele>
        <time>2020-08-16 12:05:53</time>
      </trkpt>
      <trkpt lat="39.94468" lon="-4.44899">
        <ele>578</ele>
        <time>2020-08-16 12:05:54</time>
      </trkpt>
      <trkpt lat="39.94468" lon="-4.44903">
        <ele>578</ele>
        <time>2020-08-16 12:05:55</time>
      </trkpt>
      <trkpt lat="39.94467" lon="-4.44907">
        <ele>578.2</ele>
        <time>2020-08-16 12:05:56</time>
      </trkpt>
      <trkpt lat="39.94467" lon="-4.44911">
        <ele>578.2</ele>
        <time>2020-08-16 12:05:57</time>
      </trkpt>
      <trkpt lat="39.94467" lon="-4.44914">
        <ele>578.4</ele>
        <time>2020-08-16 12:05:58</time>
      </trkpt>
      <trkpt lat="39.94466" lon="-4.44918">
        <ele>578.4</ele>
        <time>2020-08-16 12:05:59</time>
      </trkpt>
      <trkpt lat="39.94465" lon="-4.44929">
        <ele>578.6</ele>
        <time>2020-08-16 12:06:02</time>
      </trkpt>
      <trkpt lat="39.94464" lon="-4.44937">
        <ele>579</ele>
        <time>2020-08-16 12:06:04</time>
      </trkpt>
      <trkpt lat="39.94463" lon="-4.44941">
        <ele>579</ele>
        <time>2020-08-16 12:06:05</time>
      </trkpt>
      <trkpt lat="39.94463" lon="-4.44945">
        <ele>579.2</ele>
        <time>2020-08-16 12:06:06</time>
      </trkpt>
      <trkpt lat="39.94462" lon="-4.44949">
        <ele>579.2</ele>
        <time>2020-08-16 12:06:07</time>
      </trkpt>
      <trkpt lat="39.94462" lon="-4.44953">
        <ele>579.4</ele>
        <time>2020-08-16 12:06:08</time>
      </trkpt>
      <trkpt lat="39.94461" lon="-4.44956">
        <ele>579.4</ele>
        <time>2020-08-16 12:06:09</time>
      </trkpt>
      <trkpt lat="39.94461" lon="-4.4496">
        <ele>579.6</ele>
        <time>2020-08-16 12:06:10</time>
      </trkpt>
      <trkpt lat="39.9446" lon="-4.44964">
        <ele>579.8</ele>
        <time>2020-08-16 12:06:11</time>
      </trkpt>
      <trkpt lat="39.9446" lon="-4.44968">
        <ele>580</ele>
        <time>2020-08-16 12:06:12</time>
      </trkpt>
      <trkpt lat="39.94459" lon="-4.44972">
        <ele>580</ele>
        <time>2020-08-16 12:06:13</time>
      </trkpt>
      <trkpt lat="39.94459" lon="-4.44977">
        <ele>580.2</ele>
        <time>2020-08-16 12:06:14</time>
      </trkpt>
      <trkpt lat="39.94458" lon="-4.44981">
        <ele>580.4</ele>
        <time>2020-08-16 12:06:15</time>
      </trkpt>
      <trkpt lat="39.94457" lon="-4.44985">
        <ele>580.4</ele>
        <time>2020-08-16 12:06:16</time>
      </trkpt>
      <trkpt lat="39.94457" lon="-4.44989">
        <ele>580.4</ele>
        <time>2020-08-16 12:06:17</time>
      </trkpt>
      <trkpt lat="39.94456" lon="-4.44993">
        <ele>580.6</ele>
        <time>2020-08-16 12:06:18</time>
      </trkpt>
      <trkpt lat="39.94456" lon="-4.44998">
        <ele>580.8</ele>
        <time>2020-08-16 12:06:19</time>
      </trkpt>
      <trkpt lat="39.94455" lon="-4.45002">
        <ele>581</ele>
        <time>2020-08-16 12:06:20</time>
      </trkpt>
      <trkpt lat="39.94455" lon="-4.45006">
        <ele>581</ele>
        <time>2020-08-16 12:06:21</time>
      </trkpt>
      <trkpt lat="39.94454" lon="-4.45011">
        <ele>581.2</ele>
        <time>2020-08-16 12:06:22</time>
      </trkpt>
      <trkpt lat="39.94454" lon="-4.45016">
        <ele>581.4</ele>
        <time>2020-08-16 12:06:23</time>
      </trkpt>
      <trkpt lat="39.94453" lon="-4.4502">
        <ele>581.4</ele>
        <time>2020-08-16 12:06:24</time>
      </trkpt>
      <trkpt lat="39.94453" lon="-4.45025">
        <ele>581.6</ele>
        <time>2020-08-16 12:06:25</time>
      </trkpt>
      <trkpt lat="39.94452" lon="-4.45029">
        <ele>581.8</ele>
        <time>2020-08-16 12:06:26</time>
      </trkpt>
      <trkpt lat="39.94451" lon="-4.45034">
        <ele>581.8</ele>
        <time>2020-08-16 12:06:27</time>
      </trkpt>
      <trkpt lat="39.94451" lon="-4.45038">
        <ele>582</ele>
        <time>2020-08-16 12:06:28</time>
      </trkpt>
      <trkpt lat="39.94451" lon="-4.45043">
        <ele>582</ele>
        <time>2020-08-16 12:06:29</time>
      </trkpt>
      <trkpt lat="39.94451" lon="-4.45048">
        <ele>582</ele>
        <time>2020-08-16 12:06:30</time>
      </trkpt>
      <trkpt lat="39.9445" lon="-4.45071">
        <ele>582.6</ele>
        <time>2020-08-16 12:06:35</time>
      </trkpt>
      <trkpt lat="39.9445" lon="-4.45076">
        <ele>582.8</ele>
        <time>2020-08-16 12:06:36</time>
      </trkpt>
      <trkpt lat="39.9445" lon="-4.45081">
        <ele>582.8</ele>
        <time>2020-08-16 12:06:37</time>
      </trkpt>
      <trkpt lat="39.9445" lon="-4.45085">
        <ele>583</ele>
        <time>2020-08-16 12:06:38</time>
      </trkpt>
      <trkpt lat="39.9445" lon="-4.4509">
        <ele>583</ele>
        <time>2020-08-16 12:06:39</time>
      </trkpt>
      <trkpt lat="39.9445" lon="-4.45095">
        <ele>583</ele>
        <time>2020-08-16 12:06:40</time>
      </trkpt>
      <trkpt lat="39.9445" lon="-4.45099">
        <ele>583</ele>
        <time>2020-08-16 12:06:41</time>
      </trkpt>
      <trkpt lat="39.9445" lon="-4.45104">
        <ele>583</ele>
        <time>2020-08-16 12:06:42</time>
      </trkpt>
      <trkpt lat="39.9445" lon="-4.45108">
        <ele>583.2</ele>
        <time>2020-08-16 12:06:43</time>
      </trkpt>
      <trkpt lat="39.94449" lon="-4.45113">
        <ele>583.4</ele>
        <time>2020-08-16 12:06:44</time>
      </trkpt>
      <trkpt lat="39.94449" lon="-4.45118">
        <ele>583.4</ele>
        <time>2020-08-16 12:06:45</time>
      </trkpt>
      <trkpt lat="39.94449" lon="-4.45122">
        <ele>583.6</ele>
        <time>2020-08-16 12:06:46</time>
      </trkpt>
      <trkpt lat="39.94449" lon="-4.45127">
        <ele>583.6</ele>
        <time>2020-08-16 12:06:47</time>
      </trkpt>
      <trkpt lat="39.94449" lon="-4.45131">
        <ele>583.6</ele>
        <time>2020-08-16 12:06:48</time>
      </trkpt>
      <trkpt lat="39.94449" lon="-4.45136">
        <ele>583.6</ele>
        <time>2020-08-16 12:06:49</time>
      </trkpt>
      <trkpt lat="39.94449" lon="-4.4514">
        <ele>583.6</ele>
        <time>2020-08-16 12:06:50</time>
      </trkpt>
      <trkpt lat="39.94448" lon="-4.45145">
        <ele>583.6</ele>
        <time>2020-08-16 12:06:51</time>
      </trkpt>
      <trkpt lat="39.94448" lon="-4.4515">
        <ele>583.6</ele>
        <time>2020-08-16 12:06:52</time>
      </trkpt>
      <trkpt lat="39.94448" lon="-4.45154">
        <ele>583.8</ele>
        <time>2020-08-16 12:06:53</time>
      </trkpt>
      <trkpt lat="39.94448" lon="-4.45159">
        <ele>584</ele>
        <time>2020-08-16 12:06:54</time>
      </trkpt>
      <trkpt lat="39.94448" lon="-4.45163">
        <ele>584</ele>
        <time>2020-08-16 12:06:55</time>
      </trkpt>
      <trkpt lat="39.94448" lon="-4.45167">
        <ele>584.2</ele>
        <time>2020-08-16 12:06:56</time>
      </trkpt>
      <trkpt lat="39.94448" lon="-4.45171">
        <ele>584.4</ele>
        <time>2020-08-16 12:06:57</time>
      </trkpt>
      <trkpt lat="39.94448" lon="-4.45176">
        <ele>584.4</ele>
        <time>2020-08-16 12:06:58</time>
      </trkpt>
      <trkpt lat="39.94448" lon="-4.4518">
        <ele>584.6</ele>
        <time>2020-08-16 12:06:59</time>
      </trkpt>
      <trkpt lat="39.94448" lon="-4.45185">
        <ele>584.6</ele>
        <time>2020-08-16 12:07:00</time>
      </trkpt>
      <trkpt lat="39.94448" lon="-4.45189">
        <ele>584.8</ele>
        <time>2020-08-16 12:07:01</time>
      </trkpt>
      <trkpt lat="39.94448" lon="-4.45194">
        <ele>584.8</ele>
        <time>2020-08-16 12:07:02</time>
      </trkpt>
      <trkpt lat="39.94448" lon="-4.45198">
        <ele>584.8</ele>
        <time>2020-08-16 12:07:03</time>
      </trkpt>
      <trkpt lat="39.94447" lon="-4.45202">
        <ele>585</ele>
        <time>2020-08-16 12:07:04</time>
      </trkpt>
      <trkpt lat="39.94447" lon="-4.45206">
        <ele>585.2</ele>
        <time>2020-08-16 12:07:05</time>
      </trkpt>
      <trkpt lat="39.94447" lon="-4.45211">
        <ele>585.8</ele>
        <time>2020-08-16 12:07:06</time>
      </trkpt>
      <trkpt lat="39.94447" lon="-4.45215">
        <ele>586</ele>
        <time>2020-08-16 12:07:07</time>
      </trkpt>
      <trkpt lat="39.94447" lon="-4.4522">
        <ele>586.2</ele>
        <time>2020-08-16 12:07:08</time>
      </trkpt>
      <trkpt lat="39.94447" lon="-4.45224">
        <ele>586.4</ele>
        <time>2020-08-16 12:07:09</time>
      </trkpt>
      <trkpt lat="39.94447" lon="-4.45229">
        <ele>586.4</ele>
        <time>2020-08-16 12:07:10</time>
      </trkpt>
      <trkpt lat="39.94447" lon="-4.45234">
        <ele>586.6</ele>
        <time>2020-08-16 12:07:11</time>
      </trkpt>
      <trkpt lat="39.94447" lon="-4.45239">
        <ele>586.6</ele>
        <time>2020-08-16 12:07:12</time>
      </trkpt>
      <trkpt lat="39.94447" lon="-4.45243">
        <ele>586.8</ele>
        <time>2020-08-16 12:07:13</time>
      </trkpt>
      <trkpt lat="39.94447" lon="-4.45248">
        <ele>586.8</ele>
        <time>2020-08-16 12:07:14</time>
      </trkpt>
      <trkpt lat="39.94447" lon="-4.45253">
        <ele>587</ele>
        <time>2020-08-16 12:07:15</time>
      </trkpt>
      <trkpt lat="39.94447" lon="-4.45258">
        <ele>587</ele>
        <time>2020-08-16 12:07:16</time>
      </trkpt>
      <trkpt lat="39.94447" lon="-4.45262">
        <ele>587</ele>
        <time>2020-08-16 12:07:17</time>
      </trkpt>
      <trkpt lat="39.94446" lon="-4.45267">
        <ele>587</ele>
        <time>2020-08-16 12:07:18</time>
      </trkpt>
      <trkpt lat="39.94446" lon="-4.45292">
        <ele>587.2</ele>
        <time>2020-08-16 12:07:23</time>
      </trkpt>
      <trkpt lat="39.94446" lon="-4.45297">
        <ele>587.2</ele>
        <time>2020-08-16 12:07:24</time>
      </trkpt>
      <trkpt lat="39.94445" lon="-4.45311">
        <ele>587.4</ele>
        <time>2020-08-16 12:07:27</time>
      </trkpt>
      <trkpt lat="39.94445" lon="-4.45316">
        <ele>587.6</ele>
        <time>2020-08-16 12:07:28</time>
      </trkpt>
      <trkpt lat="39.94444" lon="-4.45321">
        <ele>587.6</ele>
        <time>2020-08-16 12:07:29</time>
      </trkpt>
      <trkpt lat="39.94441" lon="-4.45335">
        <ele>588.2</ele>
        <time>2020-08-16 12:07:32</time>
      </trkpt>
      <trkpt lat="39.9444" lon="-4.4534">
        <ele>588.2</ele>
        <time>2020-08-16 12:07:33</time>
      </trkpt>
      <trkpt lat="39.94438" lon="-4.45345">
        <ele>588.4</ele>
        <time>2020-08-16 12:07:34</time>
      </trkpt>
      <trkpt lat="39.94437" lon="-4.45349">
        <ele>588.4</ele>
        <time>2020-08-16 12:07:35</time>
      </trkpt>
      <trkpt lat="39.94436" lon="-4.45354">
        <ele>588.4</ele>
        <time>2020-08-16 12:07:36</time>
      </trkpt>
      <trkpt lat="39.94434" lon="-4.45359">
        <ele>588.6</ele>
        <time>2020-08-16 12:07:37</time>
      </trkpt>
      <trkpt lat="39.94427" lon="-4.45382">
        <ele>588.8</ele>
        <time>2020-08-16 12:07:42</time>
      </trkpt>
      <trkpt lat="39.94422" lon="-4.45401">
        <ele>589</ele>
        <time>2020-08-16 12:07:46</time>
      </trkpt>
      <trkpt lat="39.94406" lon="-4.45459">
        <ele>589.2</ele>
        <time>2020-08-16 12:07:57</time>
      </trkpt>
      <trkpt lat="39.94396" lon="-4.45492">
        <ele>588.8</ele>
        <time>2020-08-16 12:08:03</time>
      </trkpt>
      <trkpt lat="39.9439" lon="-4.45515">
        <ele>588.8</ele>
        <time>2020-08-16 12:08:07</time>
      </trkpt>
      <trkpt lat="39.9438" lon="-4.45548">
        <ele>589</ele>
        <time>2020-08-16 12:08:13</time>
      </trkpt>
      <trkpt lat="39.94379" lon="-4.45553">
        <ele>589</ele>
        <time>2020-08-16 12:08:14</time>
      </trkpt>
      <trkpt lat="39.94377" lon="-4.45559">
        <ele>589</ele>
        <time>2020-08-16 12:08:15</time>
      </trkpt>
      <trkpt lat="39.94376" lon="-4.45564">
        <ele>589</ele>
        <time>2020-08-16 12:08:16</time>
      </trkpt>
      <trkpt lat="39.94374" lon="-4.4557">
        <ele>589.2</ele>
        <time>2020-08-16 12:08:17</time>
      </trkpt>
      <trkpt lat="39.94373" lon="-4.45575">
        <ele>589.2</ele>
        <time>2020-08-16 12:08:18</time>
      </trkpt>
      <trkpt lat="39.94371" lon="-4.4558">
        <ele>589.2</ele>
        <time>2020-08-16 12:08:19</time>
      </trkpt>
      <trkpt lat="39.9437" lon="-4.45586">
        <ele>589.2</ele>
        <time>2020-08-16 12:08:20</time>
      </trkpt>
      <trkpt lat="39.94368" lon="-4.45591">
        <ele>589.4</ele>
        <time>2020-08-16 12:08:21</time>
      </trkpt>
      <trkpt lat="39.94367" lon="-4.45596">
        <ele>589.4</ele>
        <time>2020-08-16 12:08:22</time>
      </trkpt>
      <trkpt lat="39.94365" lon="-4.45602">
        <ele>589.4</ele>
        <time>2020-08-16 12:08:23</time>
      </trkpt>
      <trkpt lat="39.94364" lon="-4.45607">
        <ele>589.6</ele>
        <time>2020-08-16 12:08:24</time>
      </trkpt>
      <trkpt lat="39.94362" lon="-4.45613">
        <ele>589.6</ele>
        <time>2020-08-16 12:08:25</time>
      </trkpt>
      <trkpt lat="39.9436" lon="-4.45618">
        <ele>589.6</ele>
        <time>2020-08-16 12:08:26</time>
      </trkpt>
      <trkpt lat="39.94359" lon="-4.45623">
        <ele>589.8</ele>
        <time>2020-08-16 12:08:27</time>
      </trkpt>
      <trkpt lat="39.94358" lon="-4.45629">
        <ele>589.8</ele>
        <time>2020-08-16 12:08:28</time>
      </trkpt>
      <trkpt lat="39.94354" lon="-4.4564">
        <ele>589.8</ele>
        <time>2020-08-16 12:08:30</time>
      </trkpt>
      <trkpt lat="39.9435" lon="-4.45656">
        <ele>589.8</ele>
        <time>2020-08-16 12:08:33</time>
      </trkpt>
      <trkpt lat="39.94348" lon="-4.45661">
        <ele>590</ele>
        <time>2020-08-16 12:08:34</time>
      </trkpt>
      <trkpt lat="39.94346" lon="-4.45667">
        <ele>590</ele>
        <time>2020-08-16 12:08:35</time>
      </trkpt>
      <trkpt lat="39.94345" lon="-4.45672">
        <ele>590</ele>
        <time>2020-08-16 12:08:36</time>
      </trkpt>
      <trkpt lat="39.94344" lon="-4.45677">
        <ele>590</ele>
        <time>2020-08-16 12:08:37</time>
      </trkpt>
      <trkpt lat="39.94342" lon="-4.45682">
        <ele>590</ele>
        <time>2020-08-16 12:08:38</time>
      </trkpt>
      <trkpt lat="39.94341" lon="-4.45687">
        <ele>590.2</ele>
        <time>2020-08-16 12:08:39</time>
      </trkpt>
      <trkpt lat="39.94339" lon="-4.45692">
        <ele>590.2</ele>
        <time>2020-08-16 12:08:40</time>
      </trkpt>
      <trkpt lat="39.94338" lon="-4.45697">
        <ele>590.2</ele>
        <time>2020-08-16 12:08:41</time>
      </trkpt>
      <trkpt lat="39.94337" lon="-4.45701">
        <ele>590.6</ele>
        <time>2020-08-16 12:08:42</time>
      </trkpt>
      <trkpt lat="39.94336" lon="-4.45706">
        <ele>590.8</ele>
        <time>2020-08-16 12:08:43</time>
      </trkpt>
      <trkpt lat="39.94335" lon="-4.4571">
        <ele>591</ele>
        <time>2020-08-16 12:08:44</time>
      </trkpt>
      <trkpt lat="39.94333" lon="-4.45714">
        <ele>591</ele>
        <time>2020-08-16 12:08:45</time>
      </trkpt>
      <trkpt lat="39.94332" lon="-4.45719">
        <ele>591.2</ele>
        <time>2020-08-16 12:08:46</time>
      </trkpt>
      <trkpt lat="39.94331" lon="-4.45723">
        <ele>591.4</ele>
        <time>2020-08-16 12:08:47</time>
      </trkpt>
      <trkpt lat="39.9433" lon="-4.45728">
        <ele>591.6</ele>
        <time>2020-08-16 12:08:48</time>
      </trkpt>
      <trkpt lat="39.94328" lon="-4.45732">
        <ele>591.8</ele>
        <time>2020-08-16 12:08:49</time>
      </trkpt>
      <trkpt lat="39.94327" lon="-4.45735">
        <ele>592</ele>
        <time>2020-08-16 12:08:50</time>
      </trkpt>
      <trkpt lat="39.94326" lon="-4.45739">
        <ele>592.4</ele>
        <time>2020-08-16 12:08:51</time>
      </trkpt>
      <trkpt lat="39.94325" lon="-4.45743">
        <ele>592.6</ele>
        <time>2020-08-16 12:08:52</time>
      </trkpt>
      <trkpt lat="39.94324" lon="-4.45746">
        <ele>592.8</ele>
        <time>2020-08-16 12:08:53</time>
      </trkpt>
      <trkpt lat="39.94323" lon="-4.4575">
        <ele>592.8</ele>
        <time>2020-08-16 12:08:54</time>
      </trkpt>
      <trkpt lat="39.94322" lon="-4.45754">
        <ele>593</ele>
        <time>2020-08-16 12:08:55</time>
      </trkpt>
      <trkpt lat="39.94321" lon="-4.45757">
        <ele>593.2</ele>
        <time>2020-08-16 12:08:56</time>
      </trkpt>
      <trkpt lat="39.9432" lon="-4.45761">
        <ele>593.4</ele>
        <time>2020-08-16 12:08:57</time>
      </trkpt>
      <trkpt lat="39.94319" lon="-4.45764">
        <ele>593.6</ele>
        <time>2020-08-16 12:08:58</time>
      </trkpt>
      <trkpt lat="39.94317" lon="-4.45768">
        <ele>593.8</ele>
        <time>2020-08-16 12:08:59</time>
      </trkpt>
      <trkpt lat="39.94316" lon="-4.45772">
        <ele>594</ele>
        <time>2020-08-16 12:09:00</time>
      </trkpt>
      <trkpt lat="39.94315" lon="-4.45776">
        <ele>594.2</ele>
        <time>2020-08-16 12:09:01</time>
      </trkpt>
      <trkpt lat="39.94313" lon="-4.4578">
        <ele>594.2</ele>
        <time>2020-08-16 12:09:02</time>
      </trkpt>
      <trkpt lat="39.94312" lon="-4.45785">
        <ele>594.4</ele>
        <time>2020-08-16 12:09:03</time>
      </trkpt>
      <trkpt lat="39.94311" lon="-4.45789">
        <ele>594.6</ele>
        <time>2020-08-16 12:09:04</time>
      </trkpt>
      <trkpt lat="39.9431" lon="-4.45793">
        <ele>594.8</ele>
        <time>2020-08-16 12:09:05</time>
      </trkpt>
      <trkpt lat="39.94308" lon="-4.45798">
        <ele>595</ele>
        <time>2020-08-16 12:09:06</time>
      </trkpt>
      <trkpt lat="39.94307" lon="-4.45802">
        <ele>595</ele>
        <time>2020-08-16 12:09:07</time>
      </trkpt>
      <trkpt lat="39.94306" lon="-4.45807">
        <ele>595</ele>
        <time>2020-08-16 12:09:08</time>
      </trkpt>
      <trkpt lat="39.94305" lon="-4.45811">
        <ele>595.2</ele>
        <time>2020-08-16 12:09:09</time>
      </trkpt>
      <trkpt lat="39.94304" lon="-4.45816">
        <ele>595.2</ele>
        <time>2020-08-16 12:09:10</time>
      </trkpt>
      <trkpt lat="39.94302" lon="-4.4582">
        <ele>595.2</ele>
        <time>2020-08-16 12:09:11</time>
      </trkpt>
      <trkpt lat="39.94301" lon="-4.45825">
        <ele>595.4</ele>
        <time>2020-08-16 12:09:12</time>
      </trkpt>
      <trkpt lat="39.94297" lon="-4.45838">
        <ele>595.4</ele>
        <time>2020-08-16 12:09:15</time>
      </trkpt>
      <trkpt lat="39.94285" lon="-4.45886">
        <ele>595.4</ele>
        <time>2020-08-16 12:09:24</time>
      </trkpt>
      <trkpt lat="39.94281" lon="-4.45924">
        <ele>595.2</ele>
        <time>2020-08-16 12:09:30</time>
      </trkpt>
      <trkpt lat="39.9428" lon="-4.4593">
        <ele>595.2</ele>
        <time>2020-08-16 12:09:31</time>
      </trkpt>
      <trkpt lat="39.94279" lon="-4.45936">
        <ele>595.2</ele>
        <time>2020-08-16 12:09:32</time>
      </trkpt>
      <trkpt lat="39.94271" lon="-4.46006">
        <ele>595</ele>
        <time>2020-08-16 12:09:42</time>
      </trkpt>
      <trkpt lat="39.94268" lon="-4.4605">
        <ele>594.6</ele>
        <time>2020-08-16 12:09:48</time>
      </trkpt>
      <trkpt lat="39.94268" lon="-4.46066">
        <ele>594.4</ele>
        <time>2020-08-16 12:09:50</time>
      </trkpt>
      <trkpt lat="39.9427" lon="-4.46088">
        <ele>594</ele>
        <time>2020-08-16 12:09:53</time>
      </trkpt>
      <trkpt lat="39.94272" lon="-4.46102">
        <ele>594</ele>
        <time>2020-08-16 12:09:55</time>
      </trkpt>
      <trkpt lat="39.94274" lon="-4.46109">
        <ele>594</ele>
        <time>2020-08-16 12:09:56</time>
      </trkpt>
      <trkpt lat="39.94274" lon="-4.46116">
        <ele>594</ele>
        <time>2020-08-16 12:09:57</time>
      </trkpt>
      <trkpt lat="39.94275" lon="-4.46122">
        <ele>594</ele>
        <time>2020-08-16 12:09:58</time>
      </trkpt>
      <trkpt lat="39.94276" lon="-4.46129">
        <ele>594</ele>
        <time>2020-08-16 12:09:59</time>
      </trkpt>
      <trkpt lat="39.94276" lon="-4.46136">
        <ele>594.2</ele>
        <time>2020-08-16 12:10:00</time>
      </trkpt>
      <trkpt lat="39.94276" lon="-4.46143">
        <ele>594.2</ele>
        <time>2020-08-16 12:10:01</time>
      </trkpt>
      <trkpt lat="39.94276" lon="-4.4615">
        <ele>594.2</ele>
        <time>2020-08-16 12:10:02</time>
      </trkpt>
      <trkpt lat="39.94276" lon="-4.46156">
        <ele>594.4</ele>
        <time>2020-08-16 12:10:03</time>
      </trkpt>
      <trkpt lat="39.94275" lon="-4.46163">
        <ele>594.4</ele>
        <time>2020-08-16 12:10:04</time>
      </trkpt>
      <trkpt lat="39.94274" lon="-4.46169">
        <ele>594.4</ele>
        <time>2020-08-16 12:10:05</time>
      </trkpt>
      <trkpt lat="39.94274" lon="-4.46176">
        <ele>594.6</ele>
        <time>2020-08-16 12:10:06</time>
      </trkpt>
      <trkpt lat="39.94273" lon="-4.46183">
        <ele>594.6</ele>
        <time>2020-08-16 12:10:07</time>
      </trkpt>
      <trkpt lat="39.94272" lon="-4.46189">
        <ele>594.6</ele>
        <time>2020-08-16 12:10:08</time>
      </trkpt>
      <trkpt lat="39.94271" lon="-4.46196">
        <ele>594.6</ele>
        <time>2020-08-16 12:10:09</time>
      </trkpt>
      <trkpt lat="39.9427" lon="-4.46203">
        <ele>594.6</ele>
        <time>2020-08-16 12:10:10</time>
      </trkpt>
      <trkpt lat="39.94268" lon="-4.46209">
        <ele>594.6</ele>
        <time>2020-08-16 12:10:11</time>
      </trkpt>
      <trkpt lat="39.94267" lon="-4.46216">
        <ele>594.6</ele>
        <time>2020-08-16 12:10:12</time>
      </trkpt>
      <trkpt lat="39.94265" lon="-4.46223">
        <ele>594.6</ele>
        <time>2020-08-16 12:10:13</time>
      </trkpt>
      <trkpt lat="39.94257" lon="-4.46269">
        <ele>594.2</ele>
        <time>2020-08-16 12:10:20</time>
      </trkpt>
      <trkpt lat="39.94256" lon="-4.46276">
        <ele>594</ele>
        <time>2020-08-16 12:10:21</time>
      </trkpt>
      <trkpt lat="39.94256" lon="-4.46283">
        <ele>594.2</ele>
        <time>2020-08-16 12:10:22</time>
      </trkpt>
      <trkpt lat="39.94255" lon="-4.46289">
        <ele>594.2</ele>
        <time>2020-08-16 12:10:23</time>
      </trkpt>
      <trkpt lat="39.94255" lon="-4.46296">
        <ele>594.2</ele>
        <time>2020-08-16 12:10:24</time>
      </trkpt>
      <trkpt lat="39.94255" lon="-4.46302">
        <ele>594.2</ele>
        <time>2020-08-16 12:10:25</time>
      </trkpt>
      <trkpt lat="39.94255" lon="-4.46309">
        <ele>594.2</ele>
        <time>2020-08-16 12:10:26</time>
      </trkpt>
      <trkpt lat="39.94254" lon="-4.46315">
        <ele>594.2</ele>
        <time>2020-08-16 12:10:27</time>
      </trkpt>
      <trkpt lat="39.94254" lon="-4.46322">
        <ele>594.2</ele>
        <time>2020-08-16 12:10:28</time>
      </trkpt>
      <trkpt lat="39.94254" lon="-4.46328">
        <ele>594.4</ele>
        <time>2020-08-16 12:10:29</time>
      </trkpt>
      <trkpt lat="39.94254" lon="-4.46335">
        <ele>594.4</ele>
        <time>2020-08-16 12:10:30</time>
      </trkpt>
      <trkpt lat="39.94254" lon="-4.46341">
        <ele>594.4</ele>
        <time>2020-08-16 12:10:31</time>
      </trkpt>
      <trkpt lat="39.94254" lon="-4.46348">
        <ele>594.6</ele>
        <time>2020-08-16 12:10:32</time>
      </trkpt>
      <trkpt lat="39.94254" lon="-4.46354">
        <ele>594.8</ele>
        <time>2020-08-16 12:10:33</time>
      </trkpt>
      <trkpt lat="39.94254" lon="-4.46361">
        <ele>594.8</ele>
        <time>2020-08-16 12:10:34</time>
      </trkpt>
      <trkpt lat="39.94254" lon="-4.46367">
        <ele>595</ele>
        <time>2020-08-16 12:10:35</time>
      </trkpt>
      <trkpt lat="39.94254" lon="-4.46373">
        <ele>595</ele>
        <time>2020-08-16 12:10:36</time>
      </trkpt>
      <trkpt lat="39.94253" lon="-4.46379">
        <ele>595</ele>
        <time>2020-08-16 12:10:37</time>
      </trkpt>
      <trkpt lat="39.94253" lon="-4.46385">
        <ele>595</ele>
        <time>2020-08-16 12:10:38</time>
      </trkpt>
      <trkpt lat="39.94253" lon="-4.46391">
        <ele>595.2</ele>
        <time>2020-08-16 12:10:39</time>
      </trkpt>
      <trkpt lat="39.94252" lon="-4.46397">
        <ele>595.2</ele>
        <time>2020-08-16 12:10:40</time>
      </trkpt>
      <trkpt lat="39.94252" lon="-4.46403">
        <ele>595.4</ele>
        <time>2020-08-16 12:10:41</time>
      </trkpt>
      <trkpt lat="39.94252" lon="-4.46409">
        <ele>595.4</ele>
        <time>2020-08-16 12:10:42</time>
      </trkpt>
      <trkpt lat="39.94251" lon="-4.46415">
        <ele>595.4</ele>
        <time>2020-08-16 12:10:43</time>
      </trkpt>
      <trkpt lat="39.94251" lon="-4.46421">
        <ele>595.6</ele>
        <time>2020-08-16 12:10:44</time>
      </trkpt>
      <trkpt lat="39.94251" lon="-4.46427">
        <ele>595.6</ele>
        <time>2020-08-16 12:10:45</time>
      </trkpt>
      <trkpt lat="39.94251" lon="-4.46433">
        <ele>595.8</ele>
        <time>2020-08-16 12:10:46</time>
      </trkpt>
      <trkpt lat="39.94251" lon="-4.4644">
        <ele>595.8</ele>
        <time>2020-08-16 12:10:47</time>
      </trkpt>
      <trkpt lat="39.94251" lon="-4.46446">
        <ele>595.8</ele>
        <time>2020-08-16 12:10:48</time>
      </trkpt>
      <trkpt lat="39.94251" lon="-4.46452">
        <ele>595.8</ele>
        <time>2020-08-16 12:10:49</time>
      </trkpt>
      <trkpt lat="39.94251" lon="-4.46458">
        <ele>595.8</ele>
        <time>2020-08-16 12:10:50</time>
      </trkpt>
      <trkpt lat="39.94251" lon="-4.46464">
        <ele>596</ele>
        <time>2020-08-16 12:10:51</time>
      </trkpt>
      <trkpt lat="39.94251" lon="-4.46469">
        <ele>596.2</ele>
        <time>2020-08-16 12:10:52</time>
      </trkpt>
      <trkpt lat="39.94251" lon="-4.46475">
        <ele>596.2</ele>
        <time>2020-08-16 12:10:53</time>
      </trkpt>
      <trkpt lat="39.94252" lon="-4.4648">
        <ele>596.4</ele>
        <time>2020-08-16 12:10:54</time>
      </trkpt>
      <trkpt lat="39.94252" lon="-4.46485">
        <ele>596.2</ele>
        <time>2020-08-16 12:10:55</time>
      </trkpt>
      <trkpt lat="39.94252" lon="-4.46491">
        <ele>596.4</ele>
        <time>2020-08-16 12:10:56</time>
      </trkpt>
      <trkpt lat="39.94252" lon="-4.46496">
        <ele>596.6</ele>
        <time>2020-08-16 12:10:57</time>
      </trkpt>
      <trkpt lat="39.94253" lon="-4.46502">
        <ele>596.8</ele>
        <time>2020-08-16 12:10:58</time>
      </trkpt>
      <trkpt lat="39.94253" lon="-4.46507">
        <ele>597.2</ele>
        <time>2020-08-16 12:10:59</time>
      </trkpt>
      <trkpt lat="39.94253" lon="-4.46513">
        <ele>597.2</ele>
        <time>2020-08-16 12:11:00</time>
      </trkpt>
      <trkpt lat="39.94253" lon="-4.46518">
        <ele>597.4</ele>
        <time>2020-08-16 12:11:01</time>
      </trkpt>
      <trkpt lat="39.94254" lon="-4.46523">
        <ele>597.6</ele>
        <time>2020-08-16 12:11:02</time>
      </trkpt>
      <trkpt lat="39.94255" lon="-4.46529">
        <ele>597.8</ele>
        <time>2020-08-16 12:11:03</time>
      </trkpt>
      <trkpt lat="39.94256" lon="-4.46534">
        <ele>598</ele>
        <time>2020-08-16 12:11:04</time>
      </trkpt>
      <trkpt lat="39.94257" lon="-4.4654">
        <ele>598</ele>
        <time>2020-08-16 12:11:05</time>
      </trkpt>
      <trkpt lat="39.94258" lon="-4.46546">
        <ele>598.2</ele>
        <time>2020-08-16 12:11:06</time>
      </trkpt>
      <trkpt lat="39.94259" lon="-4.46553">
        <ele>598.2</ele>
        <time>2020-08-16 12:11:07</time>
      </trkpt>
      <trkpt lat="39.9426" lon="-4.46559">
        <ele>598.2</ele>
        <time>2020-08-16 12:11:08</time>
      </trkpt>
      <trkpt lat="39.94262" lon="-4.46566">
        <ele>598.2</ele>
        <time>2020-08-16 12:11:09</time>
      </trkpt>
      <trkpt lat="39.94266" lon="-4.46586">
        <ele>598</ele>
        <time>2020-08-16 12:11:12</time>
      </trkpt>
      <trkpt lat="39.94271" lon="-4.46608">
        <ele>598</ele>
        <time>2020-08-16 12:11:15</time>
      </trkpt>
      <trkpt lat="39.94286" lon="-4.46673">
        <ele>596.8</ele>
        <time>2020-08-16 12:11:24</time>
      </trkpt>
      <trkpt lat="39.94294" lon="-4.46703">
        <ele>596.4</ele>
        <time>2020-08-16 12:11:28</time>
      </trkpt>
      <trkpt lat="39.943" lon="-4.46726">
        <ele>596</ele>
        <time>2020-08-16 12:11:31</time>
      </trkpt>
      <trkpt lat="39.94305" lon="-4.4675">
        <ele>595.8</ele>
        <time>2020-08-16 12:11:34</time>
      </trkpt>
      <trkpt lat="39.94313" lon="-4.46798">
        <ele>595.6</ele>
        <time>2020-08-16 12:11:40</time>
      </trkpt>
      <trkpt lat="39.94314" lon="-4.46805">
        <ele>595.4</ele>
        <time>2020-08-16 12:11:41</time>
      </trkpt>
      <trkpt lat="39.94314" lon="-4.46813">
        <ele>595.4</ele>
        <time>2020-08-16 12:11:42</time>
      </trkpt>
      <trkpt lat="39.94315" lon="-4.46821">
        <ele>595.4</ele>
        <time>2020-08-16 12:11:43</time>
      </trkpt>
      <trkpt lat="39.94316" lon="-4.46829">
        <ele>595.2</ele>
        <time>2020-08-16 12:11:44</time>
      </trkpt>
      <trkpt lat="39.94317" lon="-4.46836">
        <ele>595.2</ele>
        <time>2020-08-16 12:11:45</time>
      </trkpt>
      <trkpt lat="39.94318" lon="-4.46844">
        <ele>594.8</ele>
        <time>2020-08-16 12:11:46</time>
      </trkpt>
      <trkpt lat="39.94319" lon="-4.46851">
        <ele>594.6</ele>
        <time>2020-08-16 12:11:47</time>
      </trkpt>
      <trkpt lat="39.9432" lon="-4.46859">
        <ele>594.4</ele>
        <time>2020-08-16 12:11:48</time>
      </trkpt>
      <trkpt lat="39.94321" lon="-4.46866">
        <ele>594.2</ele>
        <time>2020-08-16 12:11:49</time>
      </trkpt>
      <trkpt lat="39.94322" lon="-4.46874">
        <ele>594.2</ele>
        <time>2020-08-16 12:11:50</time>
      </trkpt>
      <trkpt lat="39.94323" lon="-4.46882">
        <ele>594</ele>
        <time>2020-08-16 12:11:51</time>
      </trkpt>
      <trkpt lat="39.94325" lon="-4.4689">
        <ele>593.8</ele>
        <time>2020-08-16 12:11:52</time>
      </trkpt>
      <trkpt lat="39.94326" lon="-4.46898">
        <ele>593.8</ele>
        <time>2020-08-16 12:11:53</time>
      </trkpt>
      <trkpt lat="39.94331" lon="-4.46925">
        <ele>593</ele>
        <time>2020-08-16 12:11:56</time>
      </trkpt>
      <trkpt lat="39.94335" lon="-4.46944">
        <ele>592.8</ele>
        <time>2020-08-16 12:11:58</time>
      </trkpt>
      <trkpt lat="39.94342" lon="-4.46977">
        <ele>591.8</ele>
        <time>2020-08-16 12:12:01</time>
      </trkpt>
      <trkpt lat="39.94349" lon="-4.47011">
        <ele>590.8</ele>
        <time>2020-08-16 12:12:04</time>
      </trkpt>
      <trkpt lat="39.94351" lon="-4.47022">
        <ele>590.2</ele>
        <time>2020-08-16 12:12:05</time>
      </trkpt>
      <trkpt lat="39.94354" lon="-4.47034">
        <ele>589.2</ele>
        <time>2020-08-16 12:12:06</time>
      </trkpt>
      <trkpt lat="39.94359" lon="-4.47057">
        <ele>587.2</ele>
        <time>2020-08-16 12:12:08</time>
      </trkpt>
      <trkpt lat="39.94366" lon="-4.47093">
        <ele>585.8</ele>
        <time>2020-08-16 12:12:11</time>
      </trkpt>
      <trkpt lat="39.94369" lon="-4.47105">
        <ele>585.4</ele>
        <time>2020-08-16 12:12:12</time>
      </trkpt>
      <trkpt lat="39.94371" lon="-4.47117">
        <ele>584.6</ele>
        <time>2020-08-16 12:12:13</time>
      </trkpt>
      <trkpt lat="39.94376" lon="-4.47141">
        <ele>583.4</ele>
        <time>2020-08-16 12:12:15</time>
      </trkpt>
      <trkpt lat="39.94384" lon="-4.47178">
        <ele>582</ele>
        <time>2020-08-16 12:12:18</time>
      </trkpt>
      <trkpt lat="39.94389" lon="-4.47202">
        <ele>581</ele>
        <time>2020-08-16 12:12:20</time>
      </trkpt>
      <trkpt lat="39.94394" lon="-4.47226">
        <ele>580</ele>
        <time>2020-08-16 12:12:22</time>
      </trkpt>
      <trkpt lat="39.94397" lon="-4.47237">
        <ele>579.6</ele>
        <time>2020-08-16 12:12:23</time>
      </trkpt>
      <trkpt lat="39.94399" lon="-4.47249">
        <ele>578.6</ele>
        <time>2020-08-16 12:12:24</time>
      </trkpt>
      <trkpt lat="39.94401" lon="-4.47261">
        <ele>578</ele>
        <time>2020-08-16 12:12:25</time>
      </trkpt>
      <trkpt lat="39.94404" lon="-4.47273">
        <ele>577.8</ele>
        <time>2020-08-16 12:12:26</time>
      </trkpt>
      <trkpt lat="39.94406" lon="-4.47285">
        <ele>577.2</ele>
        <time>2020-08-16 12:12:27</time>
      </trkpt>
      <trkpt lat="39.94409" lon="-4.47297">
        <ele>577</ele>
        <time>2020-08-16 12:12:28</time>
      </trkpt>
      <trkpt lat="39.94411" lon="-4.47308">
        <ele>576.4</ele>
        <time>2020-08-16 12:12:29</time>
      </trkpt>
      <trkpt lat="39.94414" lon="-4.4732">
        <ele>575.8</ele>
        <time>2020-08-16 12:12:30</time>
      </trkpt>
      <trkpt lat="39.94416" lon="-4.47332">
        <ele>575.4</ele>
        <time>2020-08-16 12:12:31</time>
      </trkpt>
      <trkpt lat="39.94419" lon="-4.47343">
        <ele>574.8</ele>
        <time>2020-08-16 12:12:32</time>
      </trkpt>
      <trkpt lat="39.94421" lon="-4.47355">
        <ele>574.4</ele>
        <time>2020-08-16 12:12:33</time>
      </trkpt>
      <trkpt lat="39.94424" lon="-4.47366">
        <ele>573.6</ele>
        <time>2020-08-16 12:12:34</time>
      </trkpt>
      <trkpt lat="39.94426" lon="-4.47377">
        <ele>573.4</ele>
        <time>2020-08-16 12:12:35</time>
      </trkpt>
      <trkpt lat="39.94428" lon="-4.47388">
        <ele>573</ele>
        <time>2020-08-16 12:12:36</time>
      </trkpt>
      <trkpt lat="39.9443" lon="-4.47399">
        <ele>572.4</ele>
        <time>2020-08-16 12:12:37</time>
      </trkpt>
      <trkpt lat="39.94433" lon="-4.47409">
        <ele>572.2</ele>
        <time>2020-08-16 12:12:38</time>
      </trkpt>
      <trkpt lat="39.94435" lon="-4.4742">
        <ele>571.6</ele>
        <time>2020-08-16 12:12:39</time>
      </trkpt>
      <trkpt lat="39.94437" lon="-4.4743">
        <ele>571.2</ele>
        <time>2020-08-16 12:12:40</time>
      </trkpt>
      <trkpt lat="39.94439" lon="-4.4744">
        <ele>570.6</ele>
        <time>2020-08-16 12:12:41</time>
      </trkpt>
      <trkpt lat="39.94442" lon="-4.4745">
        <ele>570.4</ele>
        <time>2020-08-16 12:12:42</time>
      </trkpt>
      <trkpt lat="39.94444" lon="-4.4746">
        <ele>570.2</ele>
        <time>2020-08-16 12:12:43</time>
      </trkpt>
      <trkpt lat="39.94446" lon="-4.47469">
        <ele>569.8</ele>
        <time>2020-08-16 12:12:44</time>
      </trkpt>
      <trkpt lat="39.94448" lon="-4.47479">
        <ele>569.6</ele>
        <time>2020-08-16 12:12:45</time>
      </trkpt>
      <trkpt lat="39.94449" lon="-4.47488">
        <ele>569.2</ele>
        <time>2020-08-16 12:12:46</time>
      </trkpt>
      <trkpt lat="39.94451" lon="-4.47497">
        <ele>569</ele>
        <time>2020-08-16 12:12:47</time>
      </trkpt>
      <trkpt lat="39.94453" lon="-4.47507">
        <ele>568.6</ele>
        <time>2020-08-16 12:12:48</time>
      </trkpt>
      <trkpt lat="39.94455" lon="-4.47516">
        <ele>568</ele>
        <time>2020-08-16 12:12:49</time>
      </trkpt>
      <trkpt lat="39.94457" lon="-4.47525">
        <ele>567.6</ele>
        <time>2020-08-16 12:12:50</time>
      </trkpt>
      <trkpt lat="39.94459" lon="-4.47535">
        <ele>567.2</ele>
        <time>2020-08-16 12:12:51</time>
      </trkpt>
      <trkpt lat="39.9446" lon="-4.47544">
        <ele>567</ele>
        <time>2020-08-16 12:12:52</time>
      </trkpt>
      <trkpt lat="39.94462" lon="-4.47553">
        <ele>566.8</ele>
        <time>2020-08-16 12:12:53</time>
      </trkpt>
      <trkpt lat="39.94465" lon="-4.47563">
        <ele>566.8</ele>
        <time>2020-08-16 12:12:54</time>
      </trkpt>
      <trkpt lat="39.94466" lon="-4.47572">
        <ele>566.6</ele>
        <time>2020-08-16 12:12:55</time>
      </trkpt>
      <trkpt lat="39.94468" lon="-4.47581">
        <ele>566.4</ele>
        <time>2020-08-16 12:12:56</time>
      </trkpt>
      <trkpt lat="39.9447" lon="-4.47591">
        <ele>566.4</ele>
        <time>2020-08-16 12:12:57</time>
      </trkpt>
      <trkpt lat="39.94477" lon="-4.47619">
        <ele>566.2</ele>
        <time>2020-08-16 12:13:00</time>
      </trkpt>
      <trkpt lat="39.94479" lon="-4.47629">
        <ele>565.8</ele>
        <time>2020-08-16 12:13:01</time>
      </trkpt>
      <trkpt lat="39.94483" lon="-4.47648">
        <ele>565.6</ele>
        <time>2020-08-16 12:13:03</time>
      </trkpt>
      <trkpt lat="39.94492" lon="-4.47687">
        <ele>565</ele>
        <time>2020-08-16 12:13:07</time>
      </trkpt>
      <trkpt lat="39.94493" lon="-4.47696">
        <ele>564.8</ele>
        <time>2020-08-16 12:13:08</time>
      </trkpt>
      <trkpt lat="39.94501" lon="-4.47735">
        <ele>564</ele>
        <time>2020-08-16 12:13:12</time>
      </trkpt>
      <trkpt lat="39.94503" lon="-4.47744">
        <ele>563.8</ele>
        <time>2020-08-16 12:13:13</time>
      </trkpt>
      <trkpt lat="39.94505" lon="-4.47754">
        <ele>563.8</ele>
        <time>2020-08-16 12:13:14</time>
      </trkpt>
      <trkpt lat="39.94507" lon="-4.47763">
        <ele>563.6</ele>
        <time>2020-08-16 12:13:15</time>
      </trkpt>
      <trkpt lat="39.94509" lon="-4.47773">
        <ele>563.6</ele>
        <time>2020-08-16 12:13:16</time>
      </trkpt>
      <trkpt lat="39.94511" lon="-4.47782">
        <ele>563.2</ele>
        <time>2020-08-16 12:13:17</time>
      </trkpt>
      <trkpt lat="39.94513" lon="-4.47792">
        <ele>563</ele>
        <time>2020-08-16 12:13:18</time>
      </trkpt>
      <trkpt lat="39.94514" lon="-4.47801">
        <ele>562.8</ele>
        <time>2020-08-16 12:13:19</time>
      </trkpt>
      <trkpt lat="39.94516" lon="-4.4781">
        <ele>562.6</ele>
        <time>2020-08-16 12:13:20</time>
      </trkpt>
      <trkpt lat="39.94519" lon="-4.4782">
        <ele>562.4</ele>
        <time>2020-08-16 12:13:21</time>
      </trkpt>
      <trkpt lat="39.94521" lon="-4.47829">
        <ele>561.8</ele>
        <time>2020-08-16 12:13:22</time>
      </trkpt>
      <trkpt lat="39.94523" lon="-4.47839">
        <ele>561.6</ele>
        <time>2020-08-16 12:13:23</time>
      </trkpt>
      <trkpt lat="39.94525" lon="-4.47848">
        <ele>561.4</ele>
        <time>2020-08-16 12:13:24</time>
      </trkpt>
      <trkpt lat="39.94527" lon="-4.47858">
        <ele>561</ele>
        <time>2020-08-16 12:13:25</time>
      </trkpt>
      <trkpt lat="39.94531" lon="-4.47878">
        <ele>560.6</ele>
        <time>2020-08-16 12:13:27</time>
      </trkpt>
      <trkpt lat="39.94541" lon="-4.47917">
        <ele>559.2</ele>
        <time>2020-08-16 12:13:31</time>
      </trkpt>
      <trkpt lat="39.94547" lon="-4.47936">
        <ele>558.4</ele>
        <time>2020-08-16 12:13:33</time>
      </trkpt>
      <trkpt lat="39.9455" lon="-4.47945">
        <ele>558</ele>
        <time>2020-08-16 12:13:34</time>
      </trkpt>
      <trkpt lat="39.94554" lon="-4.47953">
        <ele>557.8</ele>
        <time>2020-08-16 12:13:35</time>
      </trkpt>
      <trkpt lat="39.94558" lon="-4.47962">
        <ele>557.4</ele>
        <time>2020-08-16 12:13:36</time>
      </trkpt>
      <trkpt lat="39.94562" lon="-4.4797">
        <ele>557.4</ele>
        <time>2020-08-16 12:13:37</time>
      </trkpt>
      <trkpt lat="39.94565" lon="-4.47979">
        <ele>557</ele>
        <time>2020-08-16 12:13:38</time>
      </trkpt>
      <trkpt lat="39.94569" lon="-4.47988">
        <ele>556.8</ele>
        <time>2020-08-16 12:13:39</time>
      </trkpt>
      <trkpt lat="39.94572" lon="-4.47996">
        <ele>556.6</ele>
        <time>2020-08-16 12:13:40</time>
      </trkpt>
      <trkpt lat="39.94576" lon="-4.48005">
        <ele>556.2</ele>
        <time>2020-08-16 12:13:41</time>
      </trkpt>
      <trkpt lat="39.9458" lon="-4.48013">
        <ele>556.2</ele>
        <time>2020-08-16 12:13:42</time>
      </trkpt>
      <trkpt lat="39.94583" lon="-4.48021">
        <ele>556</ele>
        <time>2020-08-16 12:13:43</time>
      </trkpt>
      <trkpt lat="39.94587" lon="-4.4803">
        <ele>556</ele>
        <time>2020-08-16 12:13:44</time>
      </trkpt>
      <trkpt lat="39.9459" lon="-4.48038">
        <ele>555.8</ele>
        <time>2020-08-16 12:13:45</time>
      </trkpt>
      <trkpt lat="39.94594" lon="-4.48046">
        <ele>555.6</ele>
        <time>2020-08-16 12:13:46</time>
      </trkpt>
      <trkpt lat="39.94597" lon="-4.48054">
        <ele>555.6</ele>
        <time>2020-08-16 12:13:47</time>
      </trkpt>
      <trkpt lat="39.94601" lon="-4.48062">
        <ele>555.4</ele>
        <time>2020-08-16 12:13:48</time>
      </trkpt>
      <trkpt lat="39.94604" lon="-4.4807">
        <ele>555.4</ele>
        <time>2020-08-16 12:13:49</time>
      </trkpt>
      <trkpt lat="39.94608" lon="-4.48078">
        <ele>555.2</ele>
        <time>2020-08-16 12:13:50</time>
      </trkpt>
      <trkpt lat="39.94611" lon="-4.48086">
        <ele>555</ele>
        <time>2020-08-16 12:13:51</time>
      </trkpt>
      <trkpt lat="39.94615" lon="-4.48094">
        <ele>555</ele>
        <time>2020-08-16 12:13:52</time>
      </trkpt>
      <trkpt lat="39.94618" lon="-4.48103">
        <ele>554.8</ele>
        <time>2020-08-16 12:13:53</time>
      </trkpt>
      <trkpt lat="39.94622" lon="-4.48111">
        <ele>554.8</ele>
        <time>2020-08-16 12:13:54</time>
      </trkpt>
      <trkpt lat="39.94625" lon="-4.48119">
        <ele>554.8</ele>
        <time>2020-08-16 12:13:55</time>
      </trkpt>
      <trkpt lat="39.94628" lon="-4.48127">
        <ele>554.6</ele>
        <time>2020-08-16 12:13:56</time>
      </trkpt>
      <trkpt lat="39.94632" lon="-4.48135">
        <ele>554.6</ele>
        <time>2020-08-16 12:13:57</time>
      </trkpt>
      <trkpt lat="39.94635" lon="-4.48143">
        <ele>554.6</ele>
        <time>2020-08-16 12:13:58</time>
      </trkpt>
      <trkpt lat="39.94639" lon="-4.48151">
        <ele>554.4</ele>
        <time>2020-08-16 12:13:59</time>
      </trkpt>
      <trkpt lat="39.94642" lon="-4.48159">
        <ele>554.4</ele>
        <time>2020-08-16 12:14:00</time>
      </trkpt>
      <trkpt lat="39.94646" lon="-4.48168">
        <ele>554.2</ele>
        <time>2020-08-16 12:14:01</time>
      </trkpt>
      <trkpt lat="39.94649" lon="-4.48176">
        <ele>554</ele>
        <time>2020-08-16 12:14:02</time>
      </trkpt>
      <trkpt lat="39.94653" lon="-4.48184">
        <ele>554</ele>
        <time>2020-08-16 12:14:03</time>
      </trkpt>
      <trkpt lat="39.94656" lon="-4.48192">
        <ele>554</ele>
        <time>2020-08-16 12:14:04</time>
      </trkpt>
      <trkpt lat="39.94659" lon="-4.482">
        <ele>553.8</ele>
        <time>2020-08-16 12:14:05</time>
      </trkpt>
      <trkpt lat="39.94662" lon="-4.48208">
        <ele>553.6</ele>
        <time>2020-08-16 12:14:06</time>
      </trkpt>
      <trkpt lat="39.94666" lon="-4.48217">
        <ele>553.6</ele>
        <time>2020-08-16 12:14:07</time>
      </trkpt>
      <trkpt lat="39.94684" lon="-4.48258">
        <ele>552.8</ele>
        <time>2020-08-16 12:14:12</time>
      </trkpt>
      <trkpt lat="39.94691" lon="-4.48275">
        <ele>552.4</ele>
        <time>2020-08-16 12:14:14</time>
      </trkpt>
      <trkpt lat="39.94707" lon="-4.48317">
        <ele>551.8</ele>
        <time>2020-08-16 12:14:19</time>
      </trkpt>
      <trkpt lat="39.94711" lon="-4.48325">
        <ele>551.8</ele>
        <time>2020-08-16 12:14:20</time>
      </trkpt>
      <trkpt lat="39.94714" lon="-4.48333">
        <ele>551.6</ele>
        <time>2020-08-16 12:14:21</time>
      </trkpt>
      <trkpt lat="39.94717" lon="-4.48341">
        <ele>551.6</ele>
        <time>2020-08-16 12:14:22</time>
      </trkpt>
      <trkpt lat="39.9472" lon="-4.48349">
        <ele>551.4</ele>
        <time>2020-08-16 12:14:23</time>
      </trkpt>
      <trkpt lat="39.94723" lon="-4.48357">
        <ele>551.2</ele>
        <time>2020-08-16 12:14:24</time>
      </trkpt>
      <trkpt lat="39.94727" lon="-4.48365">
        <ele>551.2</ele>
        <time>2020-08-16 12:14:25</time>
      </trkpt>
      <trkpt lat="39.9473" lon="-4.48372">
        <ele>551</ele>
        <time>2020-08-16 12:14:26</time>
      </trkpt>
      <trkpt lat="39.94733" lon="-4.4838">
        <ele>551</ele>
        <time>2020-08-16 12:14:27</time>
      </trkpt>
      <trkpt lat="39.94736" lon="-4.48387">
        <ele>551</ele>
        <time>2020-08-16 12:14:28</time>
      </trkpt>
      <trkpt lat="39.9474" lon="-4.48394">
        <ele>551</ele>
        <time>2020-08-16 12:14:29</time>
      </trkpt>
      <trkpt lat="39.94743" lon="-4.48401">
        <ele>551</ele>
        <time>2020-08-16 12:14:30</time>
      </trkpt>
      <trkpt lat="39.94746" lon="-4.48408">
        <ele>551</ele>
        <time>2020-08-16 12:14:31</time>
      </trkpt>
      <trkpt lat="39.94749" lon="-4.48415">
        <ele>551</ele>
        <time>2020-08-16 12:14:32</time>
      </trkpt>
      <trkpt lat="39.94753" lon="-4.48421">
        <ele>551</ele>
        <time>2020-08-16 12:14:33</time>
      </trkpt>
      <trkpt lat="39.94756" lon="-4.48428">
        <ele>551</ele>
        <time>2020-08-16 12:14:34</time>
      </trkpt>
      <trkpt lat="39.94759" lon="-4.48434">
        <ele>551</ele>
        <time>2020-08-16 12:14:35</time>
      </trkpt>
      <trkpt lat="39.94762" lon="-4.48441">
        <ele>551</ele>
        <time>2020-08-16 12:14:36</time>
      </trkpt>
      <trkpt lat="39.94766" lon="-4.48447">
        <ele>551</ele>
        <time>2020-08-16 12:14:37</time>
      </trkpt>
      <trkpt lat="39.94769" lon="-4.48453">
        <ele>551</ele>
        <time>2020-08-16 12:14:38</time>
      </trkpt>
      <trkpt lat="39.94773" lon="-4.48459">
        <ele>551</ele>
        <time>2020-08-16 12:14:39</time>
      </trkpt>
      <trkpt lat="39.94776" lon="-4.48465">
        <ele>551</ele>
        <time>2020-08-16 12:14:40</time>
      </trkpt>
      <trkpt lat="39.9478" lon="-4.48472">
        <ele>551</ele>
        <time>2020-08-16 12:14:41</time>
      </trkpt>
      <trkpt lat="39.94784" lon="-4.48478">
        <ele>551</ele>
        <time>2020-08-16 12:14:42</time>
      </trkpt>
      <trkpt lat="39.94788" lon="-4.48484">
        <ele>551</ele>
        <time>2020-08-16 12:14:43</time>
      </trkpt>
      <trkpt lat="39.94822" lon="-4.48543">
        <ele>550.4</ele>
        <time>2020-08-16 12:14:52</time>
      </trkpt>
      <trkpt lat="39.94825" lon="-4.48549">
        <ele>550.2</ele>
        <time>2020-08-16 12:14:53</time>
      </trkpt>
      <trkpt lat="39.94828" lon="-4.48556">
        <ele>550.2</ele>
        <time>2020-08-16 12:14:54</time>
      </trkpt>
      <trkpt lat="39.94831" lon="-4.48562">
        <ele>550.2</ele>
        <time>2020-08-16 12:14:55</time>
      </trkpt>
      <trkpt lat="39.94834" lon="-4.48568">
        <ele>550.2</ele>
        <time>2020-08-16 12:14:56</time>
      </trkpt>
      <trkpt lat="39.94837" lon="-4.48574">
        <ele>550.2</ele>
        <time>2020-08-16 12:14:57</time>
      </trkpt>
      <trkpt lat="39.9484" lon="-4.4858">
        <ele>550.2</ele>
        <time>2020-08-16 12:14:58</time>
      </trkpt>
      <trkpt lat="39.94843" lon="-4.48585">
        <ele>550.2</ele>
        <time>2020-08-16 12:14:59</time>
      </trkpt>
      <trkpt lat="39.94845" lon="-4.48591">
        <ele>550</ele>
        <time>2020-08-16 12:15:00</time>
      </trkpt>
      <trkpt lat="39.94848" lon="-4.48596">
        <ele>550.2</ele>
        <time>2020-08-16 12:15:01</time>
      </trkpt>
      <trkpt lat="39.94851" lon="-4.48602">
        <ele>550.2</ele>
        <time>2020-08-16 12:15:02</time>
      </trkpt>
      <trkpt lat="39.94855" lon="-4.48607">
        <ele>550.2</ele>
        <time>2020-08-16 12:15:03</time>
      </trkpt>
      <trkpt lat="39.94858" lon="-4.48612">
        <ele>550.2</ele>
        <time>2020-08-16 12:15:04</time>
      </trkpt>
      <trkpt lat="39.94862" lon="-4.48617">
        <ele>550.2</ele>
        <time>2020-08-16 12:15:05</time>
      </trkpt>
      <trkpt lat="39.94865" lon="-4.48623">
        <ele>550.2</ele>
        <time>2020-08-16 12:15:06</time>
      </trkpt>
      <trkpt lat="39.94869" lon="-4.48627">
        <ele>550.2</ele>
        <time>2020-08-16 12:15:07</time>
      </trkpt>
      <trkpt lat="39.94872" lon="-4.48632">
        <ele>550.2</ele>
        <time>2020-08-16 12:15:08</time>
      </trkpt>
      <trkpt lat="39.94876" lon="-4.48636">
        <ele>550.2</ele>
        <time>2020-08-16 12:15:09</time>
      </trkpt>
      <trkpt lat="39.94879" lon="-4.4864">
        <ele>550.2</ele>
        <time>2020-08-16 12:15:10</time>
      </trkpt>
      <trkpt lat="39.94882" lon="-4.48644">
        <ele>550.2</ele>
        <time>2020-08-16 12:15:11</time>
      </trkpt>
      <trkpt lat="39.94885" lon="-4.48647">
        <ele>550.4</ele>
        <time>2020-08-16 12:15:12</time>
      </trkpt>
      <trkpt lat="39.94888" lon="-4.4865">
        <ele>550.4</ele>
        <time>2020-08-16 12:15:13</time>
      </trkpt>
      <trkpt lat="39.9489" lon="-4.48653">
        <ele>550.4</ele>
        <time>2020-08-16 12:15:14</time>
      </trkpt>
      <trkpt lat="39.94893" lon="-4.48656">
        <ele>550.4</ele>
        <time>2020-08-16 12:15:15</time>
      </trkpt>
      <trkpt lat="39.94896" lon="-4.48659">
        <ele>550.2</ele>
        <time>2020-08-16 12:15:16</time>
      </trkpt>
      <trkpt lat="39.94899" lon="-4.48662">
        <ele>550.2</ele>
        <time>2020-08-16 12:15:17</time>
      </trkpt>
      <trkpt lat="39.94902" lon="-4.48666">
        <ele>550.2</ele>
        <time>2020-08-16 12:15:18</time>
      </trkpt>
      <trkpt lat="39.94905" lon="-4.4867">
        <ele>550.2</ele>
        <time>2020-08-16 12:15:19</time>
      </trkpt>
      <trkpt lat="39.94917" lon="-4.48687">
        <ele>549.8</ele>
        <time>2020-08-16 12:15:23</time>
      </trkpt>
      <trkpt lat="39.94919" lon="-4.48691">
        <ele>549.6</ele>
        <time>2020-08-16 12:15:24</time>
      </trkpt>
      <trkpt lat="39.9492" lon="-4.48695">
        <ele>549.4</ele>
        <time>2020-08-16 12:15:25</time>
      </trkpt>
      <trkpt lat="39.94921" lon="-4.48698">
        <ele>549.2</ele>
        <time>2020-08-16 12:15:26</time>
      </trkpt>
      <trkpt lat="39.94921" lon="-4.487">
        <ele>549</ele>
        <time>2020-08-16 12:15:27</time>
      </trkpt>
      <trkpt lat="39.94921" lon="-4.48701">
        <ele>548.8</ele>
        <time>2020-08-16 12:15:28</time>
      </trkpt>
      <trkpt lat="39.94921" lon="-4.48701">
        <ele>548.4</ele>
        <time>2020-08-16 12:15:30</time>
      </trkpt>
      <trkpt lat="39.94919" lon="-4.48704">
        <ele>547.4</ele>
        <time>2020-08-16 12:15:48</time>
      </trkpt>
      <trkpt lat="39.94917" lon="-4.48706">
        <ele>547.4</ele>
        <time>2020-08-16 12:15:49</time>
      </trkpt>
      <trkpt lat="39.94914" lon="-4.48708">
        <ele>547.4</ele>
        <time>2020-08-16 12:15:51</time>
      </trkpt>
      <trkpt lat="39.94912" lon="-4.48713">
        <ele>547.6</ele>
        <time>2020-08-16 12:15:53</time>
      </trkpt>
      <trkpt lat="39.94911" lon="-4.48716">
        <ele>547.6</ele>
        <time>2020-08-16 12:15:54</time>
      </trkpt>
      <trkpt lat="39.9491" lon="-4.48718">
        <ele>547.6</ele>
        <time>2020-08-16 12:15:55</time>
      </trkpt>
      <trkpt lat="39.94909" lon="-4.4872">
        <ele>547.6</ele>
        <time>2020-08-16 12:15:56</time>
      </trkpt>
      <trkpt lat="39.94908" lon="-4.48723">
        <ele>547.6</ele>
        <time>2020-08-16 12:15:57</time>
      </trkpt>
      <trkpt lat="39.94905" lon="-4.48728">
        <ele>547.8</ele>
        <time>2020-08-16 12:15:59</time>
      </trkpt>
      <trkpt lat="39.94904" lon="-4.48731">
        <ele>547.8</ele>
        <time>2020-08-16 12:16:00</time>
      </trkpt>
      <trkpt lat="39.94902" lon="-4.48736">
        <ele>547.8</ele>
        <time>2020-08-16 12:16:02</time>
      </trkpt>
      <trkpt lat="39.94895" lon="-4.48749">
        <ele>547.8</ele>
        <time>2020-08-16 12:16:06</time>
      </trkpt>
      <trkpt lat="39.94894" lon="-4.48752">
        <ele>547.8</ele>
        <time>2020-08-16 12:16:07</time>
      </trkpt>
      <trkpt lat="39.94892" lon="-4.48755">
        <ele>548</ele>
        <time>2020-08-16 12:16:08</time>
      </trkpt>
      <trkpt lat="39.9489" lon="-4.48758">
        <ele>548</ele>
        <time>2020-08-16 12:16:09</time>
      </trkpt>
      <trkpt lat="39.94887" lon="-4.48764">
        <ele>548.2</ele>
        <time>2020-08-16 12:16:11</time>
      </trkpt>
      <trkpt lat="39.94884" lon="-4.48772">
        <ele>548.4</ele>
        <time>2020-08-16 12:16:13</time>
      </trkpt>
      <trkpt lat="39.94883" lon="-4.48776">
        <ele>548.6</ele>
        <time>2020-08-16 12:16:14</time>
      </trkpt>
      <trkpt lat="39.94873" lon="-4.48799">
        <ele>548.4</ele>
        <time>2020-08-16 12:16:19</time>
      </trkpt>
      <trkpt lat="39.94871" lon="-4.48804">
        <ele>548.4</ele>
        <time>2020-08-16 12:16:20</time>
      </trkpt>
      <trkpt lat="39.94869" lon="-4.4881">
        <ele>548.4</ele>
        <time>2020-08-16 12:16:21</time>
      </trkpt>
      <trkpt lat="39.94863" lon="-4.48824">
        <ele>548.4</ele>
        <time>2020-08-16 12:16:24</time>
      </trkpt>
      <trkpt lat="39.9486" lon="-4.48834">
        <ele>548.2</ele>
        <time>2020-08-16 12:16:26</time>
      </trkpt>
      <trkpt lat="39.94854" lon="-4.48849">
        <ele>548</ele>
        <time>2020-08-16 12:16:29</time>
      </trkpt>
      <trkpt lat="39.94851" lon="-4.4886">
        <ele>548</ele>
        <time>2020-08-16 12:16:31</time>
      </trkpt>
      <trkpt lat="39.94848" lon="-4.48878">
        <ele>547.6</ele>
        <time>2020-08-16 12:16:34</time>
      </trkpt>
      <trkpt lat="39.94847" lon="-4.48884">
        <ele>547.4</ele>
        <time>2020-08-16 12:16:35</time>
      </trkpt>
      <trkpt lat="39.9484" lon="-4.48928">
        <ele>546.6</ele>
        <time>2020-08-16 12:16:42</time>
      </trkpt>
      <trkpt lat="39.94838" lon="-4.4894">
        <ele>546.4</ele>
        <time>2020-08-16 12:16:44</time>
      </trkpt>
      <trkpt lat="39.94836" lon="-4.48966">
        <ele>546.2</ele>
        <time>2020-08-16 12:16:48</time>
      </trkpt>
      <trkpt lat="39.94837" lon="-4.48973">
        <ele>546.2</ele>
        <time>2020-08-16 12:16:49</time>
      </trkpt>
      <trkpt lat="39.94838" lon="-4.48979">
        <ele>546.2</ele>
        <time>2020-08-16 12:16:50</time>
      </trkpt>
      <trkpt lat="39.94841" lon="-4.48984">
        <ele>546.2</ele>
        <time>2020-08-16 12:16:51</time>
      </trkpt>
      <trkpt lat="39.94845" lon="-4.48989">
        <ele>546.2</ele>
        <time>2020-08-16 12:16:52</time>
      </trkpt>
      <trkpt lat="39.94849" lon="-4.48994">
        <ele>546.2</ele>
        <time>2020-08-16 12:16:53</time>
      </trkpt>
      <trkpt lat="39.94864" lon="-4.49008">
        <ele>546.4</ele>
        <time>2020-08-16 12:16:57</time>
      </trkpt>
      <trkpt lat="39.94868" lon="-4.49012">
        <ele>546.6</ele>
        <time>2020-08-16 12:16:58</time>
      </trkpt>
      <trkpt lat="39.94871" lon="-4.49015">
        <ele>546.6</ele>
        <time>2020-08-16 12:16:59</time>
      </trkpt>
      <trkpt lat="39.94875" lon="-4.49018">
        <ele>546.6</ele>
        <time>2020-08-16 12:17:00</time>
      </trkpt>
      <trkpt lat="39.94878" lon="-4.49021">
        <ele>546.8</ele>
        <time>2020-08-16 12:17:01</time>
      </trkpt>
      <trkpt lat="39.94881" lon="-4.49024">
        <ele>547</ele>
        <time>2020-08-16 12:17:02</time>
      </trkpt>
      <trkpt lat="39.94884" lon="-4.49026">
        <ele>547.2</ele>
        <time>2020-08-16 12:17:03</time>
      </trkpt>
      <trkpt lat="39.94887" lon="-4.49029">
        <ele>547.6</ele>
        <time>2020-08-16 12:17:04</time>
      </trkpt>
      <trkpt lat="39.94889" lon="-4.49032">
        <ele>547.8</ele>
        <time>2020-08-16 12:17:05</time>
      </trkpt>
      <trkpt lat="39.94892" lon="-4.49034">
        <ele>548</ele>
        <time>2020-08-16 12:17:06</time>
      </trkpt>
      <trkpt lat="39.94894" lon="-4.49036">
        <ele>548.2</ele>
        <time>2020-08-16 12:17:07</time>
      </trkpt>
      <trkpt lat="39.94897" lon="-4.49039">
        <ele>548.4</ele>
        <time>2020-08-16 12:17:08</time>
      </trkpt>
      <trkpt lat="39.94899" lon="-4.49041">
        <ele>548.8</ele>
        <time>2020-08-16 12:17:09</time>
      </trkpt>
      <trkpt lat="39.94902" lon="-4.49043">
        <ele>549</ele>
        <time>2020-08-16 12:17:10</time>
      </trkpt>
      <trkpt lat="39.94904" lon="-4.49045">
        <ele>549.4</ele>
        <time>2020-08-16 12:17:11</time>
      </trkpt>
      <trkpt lat="39.94906" lon="-4.49048">
        <ele>549.8</ele>
        <time>2020-08-16 12:17:12</time>
      </trkpt>
      <trkpt lat="39.94908" lon="-4.4905">
        <ele>550.2</ele>
        <time>2020-08-16 12:17:13</time>
      </trkpt>
      <trkpt lat="39.94911" lon="-4.49052">
        <ele>550.2</ele>
        <time>2020-08-16 12:17:14</time>
      </trkpt>
      <trkpt lat="39.94912" lon="-4.49054">
        <ele>550.4</ele>
        <time>2020-08-16 12:17:15</time>
      </trkpt>
      <trkpt lat="39.94914" lon="-4.49055">
        <ele>550.8</ele>
        <time>2020-08-16 12:17:16</time>
      </trkpt>
      <trkpt lat="39.94916" lon="-4.49057">
        <ele>551</ele>
        <time>2020-08-16 12:17:17</time>
      </trkpt>
      <trkpt lat="39.94918" lon="-4.49058">
        <ele>551.4</ele>
        <time>2020-08-16 12:17:18</time>
      </trkpt>
      <trkpt lat="39.94919" lon="-4.49059">
        <ele>551.4</ele>
        <time>2020-08-16 12:17:19</time>
      </trkpt>
      <trkpt lat="39.94921" lon="-4.49061">
        <ele>551.8</ele>
        <time>2020-08-16 12:17:20</time>
      </trkpt>
      <trkpt lat="39.94923" lon="-4.49063">
        <ele>552</ele>
        <time>2020-08-16 12:17:21</time>
      </trkpt>
      <trkpt lat="39.94924" lon="-4.49065">
        <ele>552</ele>
        <time>2020-08-16 12:17:22</time>
      </trkpt>
      <trkpt lat="39.94926" lon="-4.49066">
        <ele>552.2</ele>
        <time>2020-08-16 12:17:23</time>
      </trkpt>
      <trkpt lat="39.94927" lon="-4.49067">
        <ele>552.4</ele>
        <time>2020-08-16 12:17:24</time>
      </trkpt>
      <trkpt lat="39.94928" lon="-4.49068">
        <ele>552.6</ele>
        <time>2020-08-16 12:17:25</time>
      </trkpt>
      <trkpt lat="39.94929" lon="-4.49068">
        <ele>552.8</ele>
        <time>2020-08-16 12:17:26</time>
      </trkpt>
      <trkpt lat="39.94929" lon="-4.49068">
        <ele>552.8</ele>
        <time>2020-08-16 12:17:27</time>
      </trkpt>
      <trkpt lat="39.94933" lon="-4.49074">
        <ele>552.2</ele>
        <time>2020-08-16 12:19:03</time>
      </trkpt>
      <trkpt lat="39.94935" lon="-4.49076">
        <ele>552.2</ele>
        <time>2020-08-16 12:19:04</time>
      </trkpt>
      <trkpt lat="39.94938" lon="-4.49078">
        <ele>552.4</ele>
        <time>2020-08-16 12:19:05</time>
      </trkpt>
      <trkpt lat="39.94953" lon="-4.49092">
        <ele>552.4</ele>
        <time>2020-08-16 12:19:10</time>
      </trkpt>
      <trkpt lat="39.94972" lon="-4.49113">
        <ele>551.6</ele>
        <time>2020-08-16 12:19:15</time>
      </trkpt>
      <trkpt lat="39.95001" lon="-4.4914">
        <ele>550.8</ele>
        <time>2020-08-16 12:19:20</time>
      </trkpt>
      <trkpt lat="39.95007" lon="-4.49147">
        <ele>550.6</ele>
        <time>2020-08-16 12:19:21</time>
      </trkpt>
      <trkpt lat="39.95022" lon="-4.4916">
        <ele>549.6</ele>
        <time>2020-08-16 12:19:23</time>
      </trkpt>
      <trkpt lat="39.95037" lon="-4.49174">
        <ele>548.6</ele>
        <time>2020-08-16 12:19:25</time>
      </trkpt>
      <trkpt lat="39.95044" lon="-4.4918">
        <ele>548.4</ele>
        <time>2020-08-16 12:19:26</time>
      </trkpt>
      <trkpt lat="39.95051" lon="-4.49186">
        <ele>547.4</ele>
        <time>2020-08-16 12:19:27</time>
      </trkpt>
      <trkpt lat="39.95057" lon="-4.49193">
        <ele>547.2</ele>
        <time>2020-08-16 12:19:28</time>
      </trkpt>
      <trkpt lat="39.95062" lon="-4.49199">
        <ele>546.8</ele>
        <time>2020-08-16 12:19:29</time>
      </trkpt>
      <trkpt lat="39.95068" lon="-4.49206">
        <ele>546.6</ele>
        <time>2020-08-16 12:19:30</time>
      </trkpt>
      <trkpt lat="39.95072" lon="-4.49212">
        <ele>546.4</ele>
        <time>2020-08-16 12:19:31</time>
      </trkpt>
      <trkpt lat="39.95077" lon="-4.49218">
        <ele>546</ele>
        <time>2020-08-16 12:19:32</time>
      </trkpt>
      <trkpt lat="39.95081" lon="-4.49225">
        <ele>546</ele>
        <time>2020-08-16 12:19:33</time>
      </trkpt>
      <trkpt lat="39.95085" lon="-4.49231">
        <ele>545.8</ele>
        <time>2020-08-16 12:19:34</time>
      </trkpt>
      <trkpt lat="39.95089" lon="-4.49237">
        <ele>545.8</ele>
        <time>2020-08-16 12:19:35</time>
      </trkpt>
      <trkpt lat="39.95097" lon="-4.4925">
        <ele>545.4</ele>
        <time>2020-08-16 12:19:37</time>
      </trkpt>
      <trkpt lat="39.95101" lon="-4.49256">
        <ele>545.2</ele>
        <time>2020-08-16 12:19:38</time>
      </trkpt>
      <trkpt lat="39.95105" lon="-4.49262">
        <ele>545</ele>
        <time>2020-08-16 12:19:39</time>
      </trkpt>
      <trkpt lat="39.95109" lon="-4.49268">
        <ele>545</ele>
        <time>2020-08-16 12:19:40</time>
      </trkpt>
      <trkpt lat="39.95113" lon="-4.49275">
        <ele>544.6</ele>
        <time>2020-08-16 12:19:41</time>
      </trkpt>
      <trkpt lat="39.95117" lon="-4.49281">
        <ele>544.4</ele>
        <time>2020-08-16 12:19:42</time>
      </trkpt>
      <trkpt lat="39.9512" lon="-4.49288">
        <ele>544.4</ele>
        <time>2020-08-16 12:19:43</time>
      </trkpt>
      <trkpt lat="39.95124" lon="-4.49295">
        <ele>544.2</ele>
        <time>2020-08-16 12:19:44</time>
      </trkpt>
      <trkpt lat="39.95132" lon="-4.49308">
        <ele>544.2</ele>
        <time>2020-08-16 12:19:46</time>
      </trkpt>
      <trkpt lat="39.9514" lon="-4.49321">
        <ele>544</ele>
        <time>2020-08-16 12:19:48</time>
      </trkpt>
      <trkpt lat="39.95147" lon="-4.49334">
        <ele>543.8</ele>
        <time>2020-08-16 12:19:50</time>
      </trkpt>
      <trkpt lat="39.95158" lon="-4.49355">
        <ele>543.4</ele>
        <time>2020-08-16 12:19:53</time>
      </trkpt>
      <trkpt lat="39.95161" lon="-4.49362">
        <ele>543.2</ele>
        <time>2020-08-16 12:19:54</time>
      </trkpt>
      <trkpt lat="39.95165" lon="-4.49368">
        <ele>543.2</ele>
        <time>2020-08-16 12:19:55</time>
      </trkpt>
      <trkpt lat="39.95168" lon="-4.49375">
        <ele>543.2</ele>
        <time>2020-08-16 12:19:56</time>
      </trkpt>
      <trkpt lat="39.95171" lon="-4.49381">
        <ele>543</ele>
        <time>2020-08-16 12:19:57</time>
      </trkpt>
      <trkpt lat="39.95175" lon="-4.49388">
        <ele>543</ele>
        <time>2020-08-16 12:19:58</time>
      </trkpt>
      <trkpt lat="39.95178" lon="-4.49394">
        <ele>543</ele>
        <time>2020-08-16 12:19:59</time>
      </trkpt>
      <trkpt lat="39.95182" lon="-4.494">
        <ele>543</ele>
        <time>2020-08-16 12:20:00</time>
      </trkpt>
      <trkpt lat="39.95185" lon="-4.49406">
        <ele>543</ele>
        <time>2020-08-16 12:20:01</time>
      </trkpt>
      <trkpt lat="39.95188" lon="-4.49412">
        <ele>543</ele>
        <time>2020-08-16 12:20:02</time>
      </trkpt>
      <trkpt lat="39.95192" lon="-4.49418">
        <ele>543</ele>
        <time>2020-08-16 12:20:03</time>
      </trkpt>
      <trkpt lat="39.95195" lon="-4.49424">
        <ele>543</ele>
        <time>2020-08-16 12:20:04</time>
      </trkpt>
      <trkpt lat="39.95199" lon="-4.4943">
        <ele>543</ele>
        <time>2020-08-16 12:20:05</time>
      </trkpt>
      <trkpt lat="39.95204" lon="-4.49437">
        <ele>543</ele>
        <time>2020-08-16 12:20:06</time>
      </trkpt>
      <trkpt lat="39.95208" lon="-4.49443">
        <ele>543</ele>
        <time>2020-08-16 12:20:07</time>
      </trkpt>
      <trkpt lat="39.95226" lon="-4.49468">
        <ele>542.8</ele>
        <time>2020-08-16 12:20:11</time>
      </trkpt>
      <trkpt lat="39.95245" lon="-4.49493">
        <ele>542.2</ele>
        <time>2020-08-16 12:20:15</time>
      </trkpt>
      <trkpt lat="39.95284" lon="-4.49545">
        <ele>541.6</ele>
        <time>2020-08-16 12:20:23</time>
      </trkpt>
      <trkpt lat="39.95288" lon="-4.49551">
        <ele>541.6</ele>
        <time>2020-08-16 12:20:24</time>
      </trkpt>
      <trkpt lat="39.95292" lon="-4.49558">
        <ele>541.6</ele>
        <time>2020-08-16 12:20:25</time>
      </trkpt>
      <trkpt lat="39.95296" lon="-4.49564">
        <ele>541.4</ele>
        <time>2020-08-16 12:20:26</time>
      </trkpt>
      <trkpt lat="39.953" lon="-4.49571">
        <ele>541.4</ele>
        <time>2020-08-16 12:20:27</time>
      </trkpt>
      <trkpt lat="39.95303" lon="-4.49577">
        <ele>541.4</ele>
        <time>2020-08-16 12:20:28</time>
      </trkpt>
      <trkpt lat="39.95307" lon="-4.49583">
        <ele>541.4</ele>
        <time>2020-08-16 12:20:29</time>
      </trkpt>
      <trkpt lat="39.9531" lon="-4.49589">
        <ele>541.4</ele>
        <time>2020-08-16 12:20:30</time>
      </trkpt>
      <trkpt lat="39.95313" lon="-4.49593">
        <ele>541.2</ele>
        <time>2020-08-16 12:20:31</time>
      </trkpt>
      <trkpt lat="39.95316" lon="-4.49596">
        <ele>541.2</ele>
        <time>2020-08-16 12:20:32</time>
      </trkpt>
      <trkpt lat="39.9532" lon="-4.49598">
        <ele>541.2</ele>
        <time>2020-08-16 12:20:33</time>
      </trkpt>
      <trkpt lat="39.95323" lon="-4.49598">
        <ele>541.2</ele>
        <time>2020-08-16 12:20:34</time>
      </trkpt>
      <trkpt lat="39.95327" lon="-4.49597">
        <ele>541</ele>
        <time>2020-08-16 12:20:35</time>
      </trkpt>
      <trkpt lat="39.9534" lon="-4.49596">
        <ele>540.8</ele>
        <time>2020-08-16 12:20:38</time>
      </trkpt>
      <trkpt lat="39.95358" lon="-4.49597">
        <ele>540.6</ele>
        <time>2020-08-16 12:20:42</time>
      </trkpt>
      <trkpt lat="39.95369" lon="-4.49597">
        <ele>540.4</ele>
        <time>2020-08-16 12:20:44</time>
      </trkpt>
      <trkpt lat="39.95379" lon="-4.49598">
        <ele>540.2</ele>
        <time>2020-08-16 12:20:46</time>
      </trkpt>
      <trkpt lat="39.9539" lon="-4.49598">
        <ele>540</ele>
        <time>2020-08-16 12:20:48</time>
      </trkpt>
      <trkpt lat="39.95421" lon="-4.49597">
        <ele>539.4</ele>
        <time>2020-08-16 12:20:53</time>
      </trkpt>
      <trkpt lat="39.95435" lon="-4.49597">
        <ele>539</ele>
        <time>2020-08-16 12:20:55</time>
      </trkpt>
      <trkpt lat="39.95455" lon="-4.49597">
        <ele>538.2</ele>
        <time>2020-08-16 12:20:58</time>
      </trkpt>
      <trkpt lat="39.9546" lon="-4.49597">
        <ele>538</ele>
        <time>2020-08-16 12:20:59</time>
      </trkpt>
      <trkpt lat="39.95466" lon="-4.49597">
        <ele>537.6</ele>
        <time>2020-08-16 12:21:00</time>
      </trkpt>
      <trkpt lat="39.95471" lon="-4.49598">
        <ele>537.2</ele>
        <time>2020-08-16 12:21:01</time>
      </trkpt>
      <trkpt lat="39.95476" lon="-4.49598">
        <ele>537</ele>
        <time>2020-08-16 12:21:02</time>
      </trkpt>
      <trkpt lat="39.95487" lon="-4.49599">
        <ele>536.6</ele>
        <time>2020-08-16 12:21:04</time>
      </trkpt>
      <trkpt lat="39.95492" lon="-4.496">
        <ele>536.2</ele>
        <time>2020-08-16 12:21:05</time>
      </trkpt>
      <trkpt lat="39.95497" lon="-4.49601">
        <ele>536</ele>
        <time>2020-08-16 12:21:06</time>
      </trkpt>
      <trkpt lat="39.95502" lon="-4.49602">
        <ele>535.6</ele>
        <time>2020-08-16 12:21:07</time>
      </trkpt>
      <trkpt lat="39.95507" lon="-4.49603">
        <ele>535.6</ele>
        <time>2020-08-16 12:21:08</time>
      </trkpt>
      <trkpt lat="39.95512" lon="-4.49604">
        <ele>535.4</ele>
        <time>2020-08-16 12:21:09</time>
      </trkpt>
      <trkpt lat="39.95517" lon="-4.49605">
        <ele>535.4</ele>
        <time>2020-08-16 12:21:10</time>
      </trkpt>
      <trkpt lat="39.95522" lon="-4.49606">
        <ele>535.4</ele>
        <time>2020-08-16 12:21:11</time>
      </trkpt>
      <trkpt lat="39.95526" lon="-4.49608">
        <ele>535.2</ele>
        <time>2020-08-16 12:21:12</time>
      </trkpt>
      <trkpt lat="39.95531" lon="-4.4961">
        <ele>535.2</ele>
        <time>2020-08-16 12:21:13</time>
      </trkpt>
      <trkpt lat="39.95535" lon="-4.49611">
        <ele>535</ele>
        <time>2020-08-16 12:21:14</time>
      </trkpt>
      <trkpt lat="39.9554" lon="-4.49613">
        <ele>534.8</ele>
        <time>2020-08-16 12:21:15</time>
      </trkpt>
      <trkpt lat="39.95545" lon="-4.49613">
        <ele>534.6</ele>
        <time>2020-08-16 12:21:16</time>
      </trkpt>
      <trkpt lat="39.95549" lon="-4.49614">
        <ele>534.4</ele>
        <time>2020-08-16 12:21:17</time>
      </trkpt>
      <trkpt lat="39.95554" lon="-4.49616">
        <ele>534.4</ele>
        <time>2020-08-16 12:21:18</time>
      </trkpt>
      <trkpt lat="39.95559" lon="-4.49616">
        <ele>534.4</ele>
        <time>2020-08-16 12:21:19</time>
      </trkpt>
      <trkpt lat="39.95563" lon="-4.49617">
        <ele>534.2</ele>
        <time>2020-08-16 12:21:20</time>
      </trkpt>
      <trkpt lat="39.95567" lon="-4.49618">
        <ele>533.8</ele>
        <time>2020-08-16 12:21:21</time>
      </trkpt>
      <trkpt lat="39.95572" lon="-4.49618">
        <ele>533.4</ele>
        <time>2020-08-16 12:21:22</time>
      </trkpt>
      <trkpt lat="39.95581" lon="-4.49619">
        <ele>533</ele>
        <time>2020-08-16 12:21:24</time>
      </trkpt>
      <trkpt lat="39.95585" lon="-4.49619">
        <ele>533</ele>
        <time>2020-08-16 12:21:25</time>
      </trkpt>
      <trkpt lat="39.95589" lon="-4.49619">
        <ele>532.8</ele>
        <time>2020-08-16 12:21:26</time>
      </trkpt>
      <trkpt lat="39.95593" lon="-4.4962">
        <ele>532.6</ele>
        <time>2020-08-16 12:21:27</time>
      </trkpt>
      <trkpt lat="39.95597" lon="-4.4962">
        <ele>532.4</ele>
        <time>2020-08-16 12:21:28</time>
      </trkpt>
      <trkpt lat="39.95601" lon="-4.49621">
        <ele>532.4</ele>
        <time>2020-08-16 12:21:29</time>
      </trkpt>
      <trkpt lat="39.95606" lon="-4.49622">
        <ele>532.2</ele>
        <time>2020-08-16 12:21:30</time>
      </trkpt>
      <trkpt lat="39.9561" lon="-4.49623">
        <ele>532</ele>
        <time>2020-08-16 12:21:31</time>
      </trkpt>
      <trkpt lat="39.95614" lon="-4.49624">
        <ele>532</ele>
        <time>2020-08-16 12:21:32</time>
      </trkpt>
      <trkpt lat="39.95618" lon="-4.49625">
        <ele>531.8</ele>
        <time>2020-08-16 12:21:33</time>
      </trkpt>
      <trkpt lat="39.95621" lon="-4.49626">
        <ele>531.6</ele>
        <time>2020-08-16 12:21:34</time>
      </trkpt>
      <trkpt lat="39.95624" lon="-4.49628">
        <ele>531.4</ele>
        <time>2020-08-16 12:21:35</time>
      </trkpt>
      <trkpt lat="39.95628" lon="-4.4963">
        <ele>531</ele>
        <time>2020-08-16 12:21:36</time>
      </trkpt>
      <trkpt lat="39.95631" lon="-4.49631">
        <ele>531</ele>
        <time>2020-08-16 12:21:37</time>
      </trkpt>
      <trkpt lat="39.95633" lon="-4.49633">
        <ele>530.6</ele>
        <time>2020-08-16 12:21:38</time>
      </trkpt>
      <trkpt lat="39.95634" lon="-4.49634">
        <ele>530.4</ele>
        <time>2020-08-16 12:21:39</time>
      </trkpt>
      <trkpt lat="39.95636" lon="-4.49634">
        <ele>530.4</ele>
        <time>2020-08-16 12:21:40</time>
      </trkpt>
      <trkpt lat="39.95637" lon="-4.49634">
        <ele>530.2</ele>
        <time>2020-08-16 12:21:41</time>
      </trkpt>
      <trkpt lat="39.95639" lon="-4.49635">
        <ele>530</ele>
        <time>2020-08-16 12:21:42</time>
      </trkpt>
      <trkpt lat="39.95642" lon="-4.49635">
        <ele>529.8</ele>
        <time>2020-08-16 12:21:43</time>
      </trkpt>
      <trkpt lat="39.95644" lon="-4.49637">
        <ele>529.4</ele>
        <time>2020-08-16 12:21:44</time>
      </trkpt>
      <trkpt lat="39.95647" lon="-4.49638">
        <ele>529.2</ele>
        <time>2020-08-16 12:21:45</time>
      </trkpt>
      <trkpt lat="39.9565" lon="-4.49641">
        <ele>529</ele>
        <time>2020-08-16 12:21:46</time>
      </trkpt>
      <trkpt lat="39.95651" lon="-4.49645">
        <ele>529</ele>
        <time>2020-08-16 12:21:47</time>
      </trkpt>
      <trkpt lat="39.95652" lon="-4.49649">
        <ele>529</ele>
        <time>2020-08-16 12:21:48</time>
      </trkpt>
      <trkpt lat="39.95651" lon="-4.49653">
        <ele>528.8</ele>
        <time>2020-08-16 12:21:49</time>
      </trkpt>
      <trkpt lat="39.95651" lon="-4.49657">
        <ele>528.6</ele>
        <time>2020-08-16 12:21:50</time>
      </trkpt>
      <trkpt lat="39.9565" lon="-4.49661">
        <ele>528.6</ele>
        <time>2020-08-16 12:21:51</time>
      </trkpt>
      <trkpt lat="39.95649" lon="-4.49664">
        <ele>528.4</ele>
        <time>2020-08-16 12:21:52</time>
      </trkpt>
      <trkpt lat="39.95649" lon="-4.49668">
        <ele>528.2</ele>
        <time>2020-08-16 12:21:53</time>
      </trkpt>
      <trkpt lat="39.95649" lon="-4.49672">
        <ele>528.2</ele>
        <time>2020-08-16 12:21:54</time>
      </trkpt>
      <trkpt lat="39.95648" lon="-4.49675">
        <ele>528</ele>
        <time>2020-08-16 12:21:55</time>
      </trkpt>
      <trkpt lat="39.95648" lon="-4.49679">
        <ele>528</ele>
        <time>2020-08-16 12:21:56</time>
      </trkpt>
      <trkpt lat="39.95647" lon="-4.49683">
        <ele>527.8</ele>
        <time>2020-08-16 12:21:57</time>
      </trkpt>
      <trkpt lat="39.95647" lon="-4.49686">
        <ele>527.8</ele>
        <time>2020-08-16 12:21:58</time>
      </trkpt>
      <trkpt lat="39.95647" lon="-4.49687">
        <ele>527.8</ele>
        <time>2020-08-16 12:21:59</time>
      </trkpt>
      <trkpt lat="39.95647" lon="-4.49687">
        <ele>527.4</ele>
        <time>2020-08-16 12:22:01</time>
      </trkpt>
      <trkpt lat="39.95647" lon="-4.49691">
        <ele>526.8</ele>
        <time>2020-08-16 12:22:24</time>
      </trkpt>
      <trkpt lat="39.95648" lon="-4.49695">
        <ele>526.8</ele>
        <time>2020-08-16 12:22:25</time>
      </trkpt>
      <trkpt lat="39.95649" lon="-4.49699">
        <ele>526.8</ele>
        <time>2020-08-16 12:22:26</time>
      </trkpt>
      <trkpt lat="39.9565" lon="-4.49707">
        <ele>526.8</ele>
        <time>2020-08-16 12:22:28</time>
      </trkpt>
      <trkpt lat="39.9565" lon="-4.49709">
        <ele>526.6</ele>
        <time>2020-08-16 12:22:29</time>
      </trkpt>
      <trkpt lat="39.9565" lon="-4.4971">
        <ele>526.6</ele>
        <time>2020-08-16 12:22:30</time>
      </trkpt>
      <trkpt lat="39.9565" lon="-4.4971">
        <ele>526.4</ele>
        <time>2020-08-16 12:22:31</time>
      </trkpt>
      <trkpt lat="39.9565" lon="-4.49711">
        <ele>526.2</ele>
        <time>2020-08-16 12:22:32</time>
      </trkpt>
      <trkpt lat="39.95649" lon="-4.4972">
        <ele>525.8</ele>
        <time>2020-08-16 12:22:39</time>
      </trkpt>
      <trkpt lat="39.9565" lon="-4.49726">
        <ele>525.8</ele>
        <time>2020-08-16 12:22:41</time>
      </trkpt>
      <trkpt lat="39.95651" lon="-4.49728">
        <ele>525.8</ele>
        <time>2020-08-16 12:22:42</time>
      </trkpt>
      <trkpt lat="39.95653" lon="-4.49728">
        <ele>525.8</ele>
        <time>2020-08-16 12:22:43</time>
      </trkpt>
      <trkpt lat="39.95654" lon="-4.49728">
        <ele>525.8</ele>
        <time>2020-08-16 12:22:44</time>
      </trkpt>
      <trkpt lat="39.95654" lon="-4.49728">
        <ele>525.8</ele>
        <time>2020-08-16 12:22:45</time>
      </trkpt>
      <trkpt lat="39.95654" lon="-4.49728">
        <ele>525.8</ele>
        <time>2020-08-16 12:22:47</time>
      </trkpt>
      <trkpt lat="39.95651" lon="-4.49728">
        <ele>525.6</ele>
        <time>2020-08-16 12:23:04</time>
      </trkpt>
      <trkpt lat="39.95649" lon="-4.49727">
        <ele>525.6</ele>
        <time>2020-08-16 12:23:05</time>
      </trkpt>
      <trkpt lat="39.95647" lon="-4.49725">
        <ele>525.6</ele>
        <time>2020-08-16 12:23:06</time>
      </trkpt>
      <trkpt lat="39.95645" lon="-4.49723">
        <ele>525.6</ele>
        <time>2020-08-16 12:23:07</time>
      </trkpt>
      <trkpt lat="39.95643" lon="-4.49721">
        <ele>525.6</ele>
        <time>2020-08-16 12:23:08</time>
      </trkpt>
      <trkpt lat="39.9564" lon="-4.4972">
        <ele>525.4</ele>
        <time>2020-08-16 12:23:09</time>
      </trkpt>
      <trkpt lat="39.95638" lon="-4.49719">
        <ele>525.4</ele>
        <time>2020-08-16 12:23:10</time>
      </trkpt>
      <trkpt lat="39.95635" lon="-4.49718">
        <ele>525.4</ele>
        <time>2020-08-16 12:23:11</time>
      </trkpt>
      <trkpt lat="39.95632" lon="-4.49717">
        <ele>525.4</ele>
        <time>2020-08-16 12:23:12</time>
      </trkpt>
      <trkpt lat="39.95626" lon="-4.49715">
        <ele>525.6</ele>
        <time>2020-08-16 12:23:14</time>
      </trkpt>
      <trkpt lat="39.95623" lon="-4.49714">
        <ele>525.8</ele>
        <time>2020-08-16 12:23:15</time>
      </trkpt>
      <trkpt lat="39.95621" lon="-4.49712">
        <ele>525.8</ele>
        <time>2020-08-16 12:23:16</time>
      </trkpt>
      <trkpt lat="39.95619" lon="-4.4971">
        <ele>526</ele>
        <time>2020-08-16 12:23:17</time>
      </trkpt>
      <trkpt lat="39.95617" lon="-4.49707">
        <ele>526</ele>
        <time>2020-08-16 12:23:18</time>
      </trkpt>
      <trkpt lat="39.95617" lon="-4.49704">
        <ele>526.2</ele>
        <time>2020-08-16 12:23:19</time>
      </trkpt>
      <trkpt lat="39.95617" lon="-4.49702">
        <ele>526.4</ele>
        <time>2020-08-16 12:23:20</time>
      </trkpt>
      <trkpt lat="39.95617" lon="-4.49699">
        <ele>526.6</ele>
        <time>2020-08-16 12:23:21</time>
      </trkpt>
      <trkpt lat="39.95617" lon="-4.49696">
        <ele>526.8</ele>
        <time>2020-08-16 12:23:22</time>
      </trkpt>
      <trkpt lat="39.95617" lon="-4.49693">
        <ele>527</ele>
        <time>2020-08-16 12:23:23</time>
      </trkpt>
      <trkpt lat="39.95617" lon="-4.4969">
        <ele>527.2</ele>
        <time>2020-08-16 12:23:24</time>
      </trkpt>
      <trkpt lat="39.95617" lon="-4.49687">
        <ele>527.4</ele>
        <time>2020-08-16 12:23:25</time>
      </trkpt>
      <trkpt lat="39.95618" lon="-4.49684">
        <ele>527.6</ele>
        <time>2020-08-16 12:23:26</time>
      </trkpt>
      <trkpt lat="39.95618" lon="-4.49681">
        <ele>527.8</ele>
        <time>2020-08-16 12:23:27</time>
      </trkpt>
      <trkpt lat="39.95618" lon="-4.49678">
        <ele>528.2</ele>
        <time>2020-08-16 12:23:28</time>
      </trkpt>
      <trkpt lat="39.95618" lon="-4.49675">
        <ele>528.2</ele>
        <time>2020-08-16 12:23:29</time>
      </trkpt>
      <trkpt lat="39.95618" lon="-4.49673">
        <ele>528.4</ele>
        <time>2020-08-16 12:23:30</time>
      </trkpt>
      <trkpt lat="39.95618" lon="-4.4967">
        <ele>528.4</ele>
        <time>2020-08-16 12:23:31</time>
      </trkpt>
      <trkpt lat="39.95617" lon="-4.49668">
        <ele>528.6</ele>
        <time>2020-08-16 12:23:32</time>
      </trkpt>
      <trkpt lat="39.95618" lon="-4.49667">
        <ele>528.8</ele>
        <time>2020-08-16 12:23:33</time>
      </trkpt>
      <trkpt lat="39.95618" lon="-4.49666">
        <ele>529.2</ele>
        <time>2020-08-16 12:23:34</time>
      </trkpt>
      <trkpt lat="39.95618" lon="-4.49666">
        <ele>529.6</ele>
        <time>2020-08-16 12:23:36</time>
      </trkpt>
      <trkpt lat="39.95618" lon="-4.49673">
        <ele>530.2</ele>
        <time>2020-08-16 12:23:43</time>
      </trkpt>
      <trkpt lat="39.95618" lon="-4.49676">
        <ele>530.2</ele>
        <time>2020-08-16 12:23:44</time>
      </trkpt>
      <trkpt lat="39.95617" lon="-4.4968">
        <ele>530.2</ele>
        <time>2020-08-16 12:23:45</time>
      </trkpt>
      <trkpt lat="39.95617" lon="-4.49685">
        <ele>530.2</ele>
        <time>2020-08-16 12:23:46</time>
      </trkpt>
      <trkpt lat="39.95616" lon="-4.49696">
        <ele>530.2</ele>
        <time>2020-08-16 12:23:48</time>
      </trkpt>
      <trkpt lat="39.95616" lon="-4.49701">
        <ele>530</ele>
        <time>2020-08-16 12:23:49</time>
      </trkpt>
      <trkpt lat="39.95617" lon="-4.49706">
        <ele>530</ele>
        <time>2020-08-16 12:23:50</time>
      </trkpt>
      <trkpt lat="39.95618" lon="-4.4971">
        <ele>530</ele>
        <time>2020-08-16 12:23:51</time>
      </trkpt>
      <trkpt lat="39.9562" lon="-4.49713">
        <ele>529.6</ele>
        <time>2020-08-16 12:23:52</time>
      </trkpt>
      <trkpt lat="39.95623" lon="-4.49714">
        <ele>529.2</ele>
        <time>2020-08-16 12:23:53</time>
      </trkpt>
      <trkpt lat="39.95626" lon="-4.49714">
        <ele>529</ele>
        <time>2020-08-16 12:23:54</time>
      </trkpt>
      <trkpt lat="39.95634" lon="-4.49715">
        <ele>528.2</ele>
        <time>2020-08-16 12:23:56</time>
      </trkpt>
      <trkpt lat="39.95638" lon="-4.49716">
        <ele>528</ele>
        <time>2020-08-16 12:23:57</time>
      </trkpt>
      <trkpt lat="39.95645" lon="-4.49716">
        <ele>527.2</ele>
        <time>2020-08-16 12:23:59</time>
      </trkpt>
      <trkpt lat="39.95649" lon="-4.49717">
        <ele>526.6</ele>
        <time>2020-08-16 12:24:00</time>
      </trkpt>
      <trkpt lat="39.95652" lon="-4.49717">
        <ele>526.6</ele>
        <time>2020-08-16 12:24:01</time>
      </trkpt>
      <trkpt lat="39.95659" lon="-4.49718">
        <ele>526.2</ele>
        <time>2020-08-16 12:24:03</time>
      </trkpt>
      <trkpt lat="39.95664" lon="-4.49718">
        <ele>526</ele>
        <time>2020-08-16 12:24:04</time>
      </trkpt>
      <trkpt lat="39.95679" lon="-4.49715">
        <ele>525.6</ele>
        <time>2020-08-16 12:24:07</time>
      </trkpt>
      <trkpt lat="39.95695" lon="-4.49712">
        <ele>525</ele>
        <time>2020-08-16 12:24:10</time>
      </trkpt>
      <trkpt lat="39.95699" lon="-4.49712">
        <ele>525</ele>
        <time>2020-08-16 12:24:11</time>
      </trkpt>
      <trkpt lat="39.95704" lon="-4.49712">
        <ele>524.6</ele>
        <time>2020-08-16 12:24:12</time>
      </trkpt>
      <trkpt lat="39.95709" lon="-4.49712">
        <ele>524.4</ele>
        <time>2020-08-16 12:24:13</time>
      </trkpt>
      <trkpt lat="39.95713" lon="-4.49712">
        <ele>523.8</ele>
        <time>2020-08-16 12:24:14</time>
      </trkpt>
      <trkpt lat="39.95716" lon="-4.49712">
        <ele>523.8</ele>
        <time>2020-08-16 12:24:15</time>
      </trkpt>
      <trkpt lat="39.95719" lon="-4.49711">
        <ele>523.8</ele>
        <time>2020-08-16 12:24:16</time>
      </trkpt>
      <trkpt lat="39.95721" lon="-4.49711">
        <ele>523.6</ele>
        <time>2020-08-16 12:24:17</time>
      </trkpt>
      <trkpt lat="39.95722" lon="-4.49711">
        <ele>523.4</ele>
        <time>2020-08-16 12:24:18</time>
      </trkpt>
      <trkpt lat="39.95722" lon="-4.49711">
        <ele>523.2</ele>
        <time>2020-08-16 12:24:20</time>
      </trkpt>
      <trkpt lat="39.95716" lon="-4.49714">
        <ele>521.8</ele>
        <time>2020-08-16 12:27:27</time>
      </trkpt>
      <trkpt lat="39.95713" lon="-4.49714">
        <ele>521.8</ele>
        <time>2020-08-16 12:27:28</time>
      </trkpt>
      <trkpt lat="39.9571" lon="-4.49714">
        <ele>522</ele>
        <time>2020-08-16 12:27:29</time>
      </trkpt>
      <trkpt lat="39.95704" lon="-4.49715">
        <ele>522</ele>
        <time>2020-08-16 12:27:31</time>
      </trkpt>
      <trkpt lat="39.95701" lon="-4.49715">
        <ele>522.2</ele>
        <time>2020-08-16 12:27:32</time>
      </trkpt>
      <trkpt lat="39.95689" lon="-4.49716">
        <ele>522.4</ele>
        <time>2020-08-16 12:27:36</time>
      </trkpt>
      <trkpt lat="39.95683" lon="-4.49717">
        <ele>522.6</ele>
        <time>2020-08-16 12:27:38</time>
      </trkpt>
      <trkpt lat="39.95681" lon="-4.49717">
        <ele>522.8</ele>
        <time>2020-08-16 12:27:39</time>
      </trkpt>
      <trkpt lat="39.95678" lon="-4.49718">
        <ele>523</ele>
        <time>2020-08-16 12:27:40</time>
      </trkpt>
      <trkpt lat="39.95675" lon="-4.49719">
        <ele>523.2</ele>
        <time>2020-08-16 12:27:41</time>
      </trkpt>
      <trkpt lat="39.95672" lon="-4.49719">
        <ele>523.2</ele>
        <time>2020-08-16 12:27:42</time>
      </trkpt>
      <trkpt lat="39.95669" lon="-4.49719">
        <ele>523.4</ele>
        <time>2020-08-16 12:27:43</time>
      </trkpt>
      <trkpt lat="39.95666" lon="-4.49719">
        <ele>523.4</ele>
        <time>2020-08-16 12:27:44</time>
      </trkpt>
      <trkpt lat="39.95663" lon="-4.49719">
        <ele>523.6</ele>
        <time>2020-08-16 12:27:45</time>
      </trkpt>
      <trkpt lat="39.9566" lon="-4.49719">
        <ele>523.6</ele>
        <time>2020-08-16 12:27:46</time>
      </trkpt>
      <trkpt lat="39.95656" lon="-4.49719">
        <ele>523.6</ele>
        <time>2020-08-16 12:27:47</time>
      </trkpt>
      <trkpt lat="39.95653" lon="-4.4972">
        <ele>523.8</ele>
        <time>2020-08-16 12:27:48</time>
      </trkpt>
      <trkpt lat="39.9565" lon="-4.4972">
        <ele>524</ele>
        <time>2020-08-16 12:27:49</time>
      </trkpt>
      <trkpt lat="39.95647" lon="-4.4972">
        <ele>524.4</ele>
        <time>2020-08-16 12:27:50</time>
      </trkpt>
      <trkpt lat="39.95644" lon="-4.49721">
        <ele>524.6</ele>
        <time>2020-08-16 12:27:51</time>
      </trkpt>
      <trkpt lat="39.95641" lon="-4.49723">
        <ele>524.6</ele>
        <time>2020-08-16 12:27:52</time>
      </trkpt>
      <trkpt lat="39.9564" lon="-4.49726">
        <ele>524.8</ele>
        <time>2020-08-16 12:27:53</time>
      </trkpt>
      <trkpt lat="39.9564" lon="-4.4973">
        <ele>525</ele>
        <time>2020-08-16 12:27:54</time>
      </trkpt>
      <trkpt lat="39.95639" lon="-4.49734">
        <ele>525.2</ele>
        <time>2020-08-16 12:27:55</time>
      </trkpt>
      <trkpt lat="39.95639" lon="-4.49738">
        <ele>525.2</ele>
        <time>2020-08-16 12:27:56</time>
      </trkpt>
      <trkpt lat="39.95638" lon="-4.49742">
        <ele>525.2</ele>
        <time>2020-08-16 12:27:57</time>
      </trkpt>
      <trkpt lat="39.95638" lon="-4.49745">
        <ele>525.4</ele>
        <time>2020-08-16 12:27:58</time>
      </trkpt>
      <trkpt lat="39.95637" lon="-4.49749">
        <ele>525.4</ele>
        <time>2020-08-16 12:27:59</time>
      </trkpt>
      <trkpt lat="39.95637" lon="-4.49752">
        <ele>525.4</ele>
        <time>2020-08-16 12:28:00</time>
      </trkpt>
      <trkpt lat="39.95636" lon="-4.49756">
        <ele>525.4</ele>
        <time>2020-08-16 12:28:01</time>
      </trkpt>
      <trkpt lat="39.95636" lon="-4.49759">
        <ele>525.6</ele>
        <time>2020-08-16 12:28:02</time>
      </trkpt>
      <trkpt lat="39.95636" lon="-4.49763">
        <ele>525.6</ele>
        <time>2020-08-16 12:28:03</time>
      </trkpt>
      <trkpt lat="39.95636" lon="-4.49766">
        <ele>525.8</ele>
        <time>2020-08-16 12:28:04</time>
      </trkpt>
      <trkpt lat="39.95637" lon="-4.49769">
        <ele>525.8</ele>
        <time>2020-08-16 12:28:05</time>
      </trkpt>
      <trkpt lat="39.95638" lon="-4.49772">
        <ele>526</ele>
        <time>2020-08-16 12:28:06</time>
      </trkpt>
      <trkpt lat="39.95639" lon="-4.49775">
        <ele>526</ele>
        <time>2020-08-16 12:28:07</time>
      </trkpt>
      <trkpt lat="39.9564" lon="-4.49778">
        <ele>526.2</ele>
        <time>2020-08-16 12:28:08</time>
      </trkpt>
      <trkpt lat="39.9564" lon="-4.49781">
        <ele>526.4</ele>
        <time>2020-08-16 12:28:09</time>
      </trkpt>
      <trkpt lat="39.9564" lon="-4.49785">
        <ele>526.6</ele>
        <time>2020-08-16 12:28:10</time>
      </trkpt>
      <trkpt lat="39.9564" lon="-4.49788">
        <ele>526.6</ele>
        <time>2020-08-16 12:28:11</time>
      </trkpt>
      <trkpt lat="39.95639" lon="-4.49792">
        <ele>526.8</ele>
        <time>2020-08-16 12:28:12</time>
      </trkpt>
      <trkpt lat="39.95639" lon="-4.49795">
        <ele>527</ele>
        <time>2020-08-16 12:28:13</time>
      </trkpt>
      <trkpt lat="39.95639" lon="-4.49798">
        <ele>527.2</ele>
        <time>2020-08-16 12:28:14</time>
      </trkpt>
      <trkpt lat="39.95639" lon="-4.49801">
        <ele>527.2</ele>
        <time>2020-08-16 12:28:15</time>
      </trkpt>
      <trkpt lat="39.95639" lon="-4.49806">
        <ele>527.2</ele>
        <time>2020-08-16 12:28:16</time>
      </trkpt>
      <trkpt lat="39.95639" lon="-4.49811">
        <ele>527.2</ele>
        <time>2020-08-16 12:28:17</time>
      </trkpt>
      <trkpt lat="39.95638" lon="-4.49821">
        <ele>527.2</ele>
        <time>2020-08-16 12:28:19</time>
      </trkpt>
      <trkpt lat="39.95638" lon="-4.4983">
        <ele>527.2</ele>
        <time>2020-08-16 12:28:21</time>
      </trkpt>
      <trkpt lat="39.95638" lon="-4.49833">
        <ele>527.2</ele>
        <time>2020-08-16 12:28:22</time>
      </trkpt>
      <trkpt lat="39.95638" lon="-4.49835">
        <ele>527</ele>
        <time>2020-08-16 12:28:23</time>
      </trkpt>
      <trkpt lat="39.95638" lon="-4.49838">
        <ele>527</ele>
        <time>2020-08-16 12:28:24</time>
      </trkpt>
      <trkpt lat="39.95639" lon="-4.4984">
        <ele>526.6</ele>
        <time>2020-08-16 12:28:25</time>
      </trkpt>
      <trkpt lat="39.95639" lon="-4.49843">
        <ele>526.4</ele>
        <time>2020-08-16 12:28:26</time>
      </trkpt>
      <trkpt lat="39.9564" lon="-4.49845">
        <ele>526.2</ele>
        <time>2020-08-16 12:28:27</time>
      </trkpt>
      <trkpt lat="39.9564" lon="-4.49847">
        <ele>526</ele>
        <time>2020-08-16 12:28:28</time>
      </trkpt>
      <trkpt lat="39.95641" lon="-4.49849">
        <ele>526</ele>
        <time>2020-08-16 12:28:29</time>
      </trkpt>
      <trkpt lat="39.95642" lon="-4.49852">
        <ele>526</ele>
        <time>2020-08-16 12:28:30</time>
      </trkpt>
      <trkpt lat="39.95643" lon="-4.49855">
        <ele>525.8</ele>
        <time>2020-08-16 12:28:31</time>
      </trkpt>
      <trkpt lat="39.95644" lon="-4.49857">
        <ele>525.6</ele>
        <time>2020-08-16 12:28:32</time>
      </trkpt>
      <trkpt lat="39.95644" lon="-4.4986">
        <ele>525.6</ele>
        <time>2020-08-16 12:28:33</time>
      </trkpt>
      <trkpt lat="39.95645" lon="-4.49865">
        <ele>525.6</ele>
        <time>2020-08-16 12:28:35</time>
      </trkpt>
      <trkpt lat="39.95646" lon="-4.49866">
        <ele>525.4</ele>
        <time>2020-08-16 12:28:36</time>
      </trkpt>
      <trkpt lat="39.95646" lon="-4.49866">
        <ele>525.4</ele>
        <time>2020-08-16 12:28:38</time>
      </trkpt>
      <trkpt lat="39.95643" lon="-4.49871">
        <ele>525</ele>
        <time>2020-08-16 12:28:52</time>
      </trkpt>
      <trkpt lat="39.95641" lon="-4.49874">
        <ele>525</ele>
        <time>2020-08-16 12:28:53</time>
      </trkpt>
      <trkpt lat="39.95638" lon="-4.49878">
        <ele>525</ele>
        <time>2020-08-16 12:28:54</time>
      </trkpt>
      <trkpt lat="39.95638" lon="-4.49883">
        <ele>525</ele>
        <time>2020-08-16 12:28:55</time>
      </trkpt>
      <trkpt lat="39.95636" lon="-4.49894">
        <ele>524.8</ele>
        <time>2020-08-16 12:28:57</time>
      </trkpt>
      <trkpt lat="39.95634" lon="-4.49906">
        <ele>524.6</ele>
        <time>2020-08-16 12:28:59</time>
      </trkpt>
      <trkpt lat="39.95632" lon="-4.49912">
        <ele>524.6</ele>
        <time>2020-08-16 12:29:00</time>
      </trkpt>
      <trkpt lat="39.9563" lon="-4.49919">
        <ele>524.4</ele>
        <time>2020-08-16 12:29:01</time>
      </trkpt>
      <trkpt lat="39.95628" lon="-4.49925">
        <ele>524.4</ele>
        <time>2020-08-16 12:29:02</time>
      </trkpt>
      <trkpt lat="39.95626" lon="-4.49932">
        <ele>524.4</ele>
        <time>2020-08-16 12:29:03</time>
      </trkpt>
      <trkpt lat="39.95624" lon="-4.49939">
        <ele>524.4</ele>
        <time>2020-08-16 12:29:04</time>
      </trkpt>
      <trkpt lat="39.95623" lon="-4.49946">
        <ele>524.2</ele>
        <time>2020-08-16 12:29:05</time>
      </trkpt>
      <trkpt lat="39.95621" lon="-4.49953">
        <ele>524.2</ele>
        <time>2020-08-16 12:29:06</time>
      </trkpt>
      <trkpt lat="39.95619" lon="-4.4996">
        <ele>524.2</ele>
        <time>2020-08-16 12:29:07</time>
      </trkpt>
      <trkpt lat="39.95617" lon="-4.49967">
        <ele>524.4</ele>
        <time>2020-08-16 12:29:08</time>
      </trkpt>
      <trkpt lat="39.95616" lon="-4.49974">
        <ele>524.4</ele>
        <time>2020-08-16 12:29:09</time>
      </trkpt>
      <trkpt lat="39.95614" lon="-4.4998">
        <ele>524.4</ele>
        <time>2020-08-16 12:29:10</time>
      </trkpt>
      <trkpt lat="39.95614" lon="-4.49986">
        <ele>524.4</ele>
        <time>2020-08-16 12:29:11</time>
      </trkpt>
      <trkpt lat="39.95613" lon="-4.49992">
        <ele>524.6</ele>
        <time>2020-08-16 12:29:12</time>
      </trkpt>
      <trkpt lat="39.95613" lon="-4.49998">
        <ele>524.6</ele>
        <time>2020-08-16 12:29:13</time>
      </trkpt>
      <trkpt lat="39.95612" lon="-4.50004">
        <ele>524.6</ele>
        <time>2020-08-16 12:29:14</time>
      </trkpt>
      <trkpt lat="39.95611" lon="-4.50009">
        <ele>524.6</ele>
        <time>2020-08-16 12:29:15</time>
      </trkpt>
      <trkpt lat="39.95611" lon="-4.50014">
        <ele>524.6</ele>
        <time>2020-08-16 12:29:16</time>
      </trkpt>
      <trkpt lat="39.9561" lon="-4.50019">
        <ele>524.8</ele>
        <time>2020-08-16 12:29:17</time>
      </trkpt>
      <trkpt lat="39.95609" lon="-4.50023">
        <ele>525.2</ele>
        <time>2020-08-16 12:29:18</time>
      </trkpt>
      <trkpt lat="39.95608" lon="-4.50026">
        <ele>525.2</ele>
        <time>2020-08-16 12:29:19</time>
      </trkpt>
      <trkpt lat="39.95607" lon="-4.5003">
        <ele>525.4</ele>
        <time>2020-08-16 12:29:20</time>
      </trkpt>
      <trkpt lat="39.95606" lon="-4.50033">
        <ele>525.4</ele>
        <time>2020-08-16 12:29:21</time>
      </trkpt>
      <trkpt lat="39.95605" lon="-4.50036">
        <ele>525.6</ele>
        <time>2020-08-16 12:29:22</time>
      </trkpt>
      <trkpt lat="39.95605" lon="-4.5004">
        <ele>525.6</ele>
        <time>2020-08-16 12:29:23</time>
      </trkpt>
      <trkpt lat="39.95604" lon="-4.50044">
        <ele>525.6</ele>
        <time>2020-08-16 12:29:24</time>
      </trkpt>
      <trkpt lat="39.95604" lon="-4.50048">
        <ele>525.8</ele>
        <time>2020-08-16 12:29:25</time>
      </trkpt>
      <trkpt lat="39.95604" lon="-4.50052">
        <ele>525.8</ele>
        <time>2020-08-16 12:29:26</time>
      </trkpt>
      <trkpt lat="39.95604" lon="-4.50056">
        <ele>526</ele>
        <time>2020-08-16 12:29:27</time>
      </trkpt>
      <trkpt lat="39.95603" lon="-4.5006">
        <ele>526.2</ele>
        <time>2020-08-16 12:29:28</time>
      </trkpt>
      <trkpt lat="39.95602" lon="-4.50064">
        <ele>526.2</ele>
        <time>2020-08-16 12:29:29</time>
      </trkpt>
      <trkpt lat="39.95601" lon="-4.50068">
        <ele>526.4</ele>
        <time>2020-08-16 12:29:30</time>
      </trkpt>
      <trkpt lat="39.956" lon="-4.50072">
        <ele>526.6</ele>
        <time>2020-08-16 12:29:31</time>
      </trkpt>
      <trkpt lat="39.95599" lon="-4.50076">
        <ele>526.6</ele>
        <time>2020-08-16 12:29:32</time>
      </trkpt>
      <trkpt lat="39.95598" lon="-4.5008">
        <ele>526.6</ele>
        <time>2020-08-16 12:29:33</time>
      </trkpt>
      <trkpt lat="39.95598" lon="-4.50084">
        <ele>526.8</ele>
        <time>2020-08-16 12:29:34</time>
      </trkpt>
      <trkpt lat="39.95597" lon="-4.50088">
        <ele>527</ele>
        <time>2020-08-16 12:29:35</time>
      </trkpt>
      <trkpt lat="39.95596" lon="-4.50092">
        <ele>527</ele>
        <time>2020-08-16 12:29:36</time>
      </trkpt>
      <trkpt lat="39.95595" lon="-4.50096">
        <ele>527</ele>
        <time>2020-08-16 12:29:37</time>
      </trkpt>
      <trkpt lat="39.95595" lon="-4.501">
        <ele>527.2</ele>
        <time>2020-08-16 12:29:38</time>
      </trkpt>
      <trkpt lat="39.95594" lon="-4.50104">
        <ele>527.4</ele>
        <time>2020-08-16 12:29:39</time>
      </trkpt>
      <trkpt lat="39.95593" lon="-4.50108">
        <ele>527.6</ele>
        <time>2020-08-16 12:29:40</time>
      </trkpt>
      <trkpt lat="39.95593" lon="-4.50112">
        <ele>527.6</ele>
        <time>2020-08-16 12:29:41</time>
      </trkpt>
      <trkpt lat="39.95592" lon="-4.50116">
        <ele>527.8</ele>
        <time>2020-08-16 12:29:42</time>
      </trkpt>
      <trkpt lat="39.95591" lon="-4.5012">
        <ele>527.8</ele>
        <time>2020-08-16 12:29:43</time>
      </trkpt>
      <trkpt lat="39.9559" lon="-4.50124">
        <ele>528</ele>
        <time>2020-08-16 12:29:44</time>
      </trkpt>
      <trkpt lat="39.95589" lon="-4.50128">
        <ele>528.2</ele>
        <time>2020-08-16 12:29:45</time>
      </trkpt>
      <trkpt lat="39.95588" lon="-4.50132">
        <ele>528.2</ele>
        <time>2020-08-16 12:29:46</time>
      </trkpt>
      <trkpt lat="39.95588" lon="-4.50136">
        <ele>528.2</ele>
        <time>2020-08-16 12:29:47</time>
      </trkpt>
      <trkpt lat="39.95587" lon="-4.50141">
        <ele>528.4</ele>
        <time>2020-08-16 12:29:48</time>
      </trkpt>
      <trkpt lat="39.95586" lon="-4.50145">
        <ele>528.4</ele>
        <time>2020-08-16 12:29:49</time>
      </trkpt>
      <trkpt lat="39.95586" lon="-4.50149">
        <ele>528.4</ele>
        <time>2020-08-16 12:29:50</time>
      </trkpt>
      <trkpt lat="39.95585" lon="-4.50154">
        <ele>528.6</ele>
        <time>2020-08-16 12:29:51</time>
      </trkpt>
      <trkpt lat="39.95579" lon="-4.50181">
        <ele>529.2</ele>
        <time>2020-08-16 12:29:57</time>
      </trkpt>
      <trkpt lat="39.95579" lon="-4.50185">
        <ele>529.2</ele>
        <time>2020-08-16 12:29:58</time>
      </trkpt>
      <trkpt lat="39.95578" lon="-4.5019">
        <ele>529.6</ele>
        <time>2020-08-16 12:29:59</time>
      </trkpt>
      <trkpt lat="39.95577" lon="-4.50194">
        <ele>529.6</ele>
        <time>2020-08-16 12:30:00</time>
      </trkpt>
      <trkpt lat="39.95576" lon="-4.50199">
        <ele>530</ele>
        <time>2020-08-16 12:30:01</time>
      </trkpt>
      <trkpt lat="39.95575" lon="-4.50203">
        <ele>530</ele>
        <time>2020-08-16 12:30:02</time>
      </trkpt>
      <trkpt lat="39.95573" lon="-4.50207">
        <ele>530.2</ele>
        <time>2020-08-16 12:30:03</time>
      </trkpt>
      <trkpt lat="39.95572" lon="-4.50211">
        <ele>530.4</ele>
        <time>2020-08-16 12:30:04</time>
      </trkpt>
      <trkpt lat="39.9557" lon="-4.50215">
        <ele>530.4</ele>
        <time>2020-08-16 12:30:05</time>
      </trkpt>
      <trkpt lat="39.95569" lon="-4.50219">
        <ele>530.6</ele>
        <time>2020-08-16 12:30:06</time>
      </trkpt>
      <trkpt lat="39.95568" lon="-4.50224">
        <ele>530.6</ele>
        <time>2020-08-16 12:30:07</time>
      </trkpt>
      <trkpt lat="39.95568" lon="-4.50228">
        <ele>530.8</ele>
        <time>2020-08-16 12:30:08</time>
      </trkpt>
      <trkpt lat="39.95567" lon="-4.50232">
        <ele>531</ele>
        <time>2020-08-16 12:30:09</time>
      </trkpt>
      <trkpt lat="39.95567" lon="-4.50236">
        <ele>531</ele>
        <time>2020-08-16 12:30:10</time>
      </trkpt>
      <trkpt lat="39.95567" lon="-4.50241">
        <ele>531.2</ele>
        <time>2020-08-16 12:30:11</time>
      </trkpt>
      <trkpt lat="39.95566" lon="-4.50244">
        <ele>531.4</ele>
        <time>2020-08-16 12:30:12</time>
      </trkpt>
      <trkpt lat="39.95566" lon="-4.50248">
        <ele>531.4</ele>
        <time>2020-08-16 12:30:13</time>
      </trkpt>
      <trkpt lat="39.95564" lon="-4.50251">
        <ele>531.4</ele>
        <time>2020-08-16 12:30:14</time>
      </trkpt>
      <trkpt lat="39.95563" lon="-4.50254">
        <ele>531.6</ele>
        <time>2020-08-16 12:30:15</time>
      </trkpt>
      <trkpt lat="39.95562" lon="-4.50258">
        <ele>531.6</ele>
        <time>2020-08-16 12:30:16</time>
      </trkpt>
      <trkpt lat="39.95561" lon="-4.50262">
        <ele>531.8</ele>
        <time>2020-08-16 12:30:17</time>
      </trkpt>
      <trkpt lat="39.9556" lon="-4.50264">
        <ele>531.8</ele>
        <time>2020-08-16 12:30:18</time>
      </trkpt>
      <trkpt lat="39.9556" lon="-4.50265">
        <ele>532</ele>
        <time>2020-08-16 12:30:19</time>
      </trkpt>
      <trkpt lat="39.9556" lon="-4.50265">
        <ele>532.2</ele>
        <time>2020-08-16 12:30:21</time>
      </trkpt>
      <trkpt lat="39.9556" lon="-4.50268">
        <ele>532.2</ele>
        <time>2020-08-16 12:30:36</time>
      </trkpt>
      <trkpt lat="39.95559" lon="-4.50273">
        <ele>532.2</ele>
        <time>2020-08-16 12:30:38</time>
      </trkpt>
      <trkpt lat="39.95558" lon="-4.50277">
        <ele>532.2</ele>
        <time>2020-08-16 12:30:39</time>
      </trkpt>
      <trkpt lat="39.95557" lon="-4.50285">
        <ele>532.2</ele>
        <time>2020-08-16 12:30:41</time>
      </trkpt>
      <trkpt lat="39.95556" lon="-4.5029">
        <ele>532.2</ele>
        <time>2020-08-16 12:30:42</time>
      </trkpt>
      <trkpt lat="39.95554" lon="-4.50295">
        <ele>532.2</ele>
        <time>2020-08-16 12:30:43</time>
      </trkpt>
      <trkpt lat="39.9555" lon="-4.50303">
        <ele>532.4</ele>
        <time>2020-08-16 12:30:45</time>
      </trkpt>
      <trkpt lat="39.95549" lon="-4.50307">
        <ele>532.4</ele>
        <time>2020-08-16 12:30:46</time>
      </trkpt>
      <trkpt lat="39.95548" lon="-4.50312">
        <ele>532.6</ele>
        <time>2020-08-16 12:30:47</time>
      </trkpt>
      <trkpt lat="39.95547" lon="-4.50321">
        <ele>533</ele>
        <time>2020-08-16 12:30:49</time>
      </trkpt>
      <trkpt lat="39.95546" lon="-4.50326">
        <ele>533.2</ele>
        <time>2020-08-16 12:30:50</time>
      </trkpt>
      <trkpt lat="39.95545" lon="-4.5033">
        <ele>533.2</ele>
        <time>2020-08-16 12:30:51</time>
      </trkpt>
      <trkpt lat="39.95544" lon="-4.50335">
        <ele>533.4</ele>
        <time>2020-08-16 12:30:52</time>
      </trkpt>
      <trkpt lat="39.95543" lon="-4.5034">
        <ele>533.4</ele>
        <time>2020-08-16 12:30:53</time>
      </trkpt>
      <trkpt lat="39.95542" lon="-4.50344">
        <ele>533.4</ele>
        <time>2020-08-16 12:30:54</time>
      </trkpt>
      <trkpt lat="39.9554" lon="-4.50349">
        <ele>533.6</ele>
        <time>2020-08-16 12:30:55</time>
      </trkpt>
      <trkpt lat="39.95537" lon="-4.50362">
        <ele>533.8</ele>
        <time>2020-08-16 12:30:58</time>
      </trkpt>
      <trkpt lat="39.95536" lon="-4.50366">
        <ele>534</ele>
        <time>2020-08-16 12:30:59</time>
      </trkpt>
      <trkpt lat="39.95535" lon="-4.50369">
        <ele>534.2</ele>
        <time>2020-08-16 12:31:00</time>
      </trkpt>
      <trkpt lat="39.95534" lon="-4.50371">
        <ele>534.2</ele>
        <time>2020-08-16 12:31:01</time>
      </trkpt>
      <trkpt lat="39.95534" lon="-4.50371">
        <ele>534.2</ele>
        <time>2020-08-16 12:31:02</time>
      </trkpt>
      <trkpt lat="39.95534" lon="-4.50371">
        <ele>534.6</ele>
        <time>2020-08-16 12:31:04</time>
      </trkpt>
      <trkpt lat="39.95534" lon="-4.50377">
        <ele>535.2</ele>
        <time>2020-08-16 12:31:29</time>
      </trkpt>
      <trkpt lat="39.95533" lon="-4.50379">
        <ele>535.2</ele>
        <time>2020-08-16 12:31:30</time>
      </trkpt>
      <trkpt lat="39.95532" lon="-4.50381">
        <ele>535.2</ele>
        <time>2020-08-16 12:31:31</time>
      </trkpt>
      <trkpt lat="39.95529" lon="-4.50386">
        <ele>535.2</ele>
        <time>2020-08-16 12:31:33</time>
      </trkpt>
      <trkpt lat="39.95526" lon="-4.50388">
        <ele>535</ele>
        <time>2020-08-16 12:31:34</time>
      </trkpt>
      <trkpt lat="39.95523" lon="-4.5039">
        <ele>535</ele>
        <time>2020-08-16 12:31:35</time>
      </trkpt>
      <trkpt lat="39.95521" lon="-4.50392">
        <ele>535</ele>
        <time>2020-08-16 12:31:36</time>
      </trkpt>
      <trkpt lat="39.95515" lon="-4.50396">
        <ele>535</ele>
        <time>2020-08-16 12:31:38</time>
      </trkpt>
      <trkpt lat="39.95508" lon="-4.504">
        <ele>534.8</ele>
        <time>2020-08-16 12:31:40</time>
      </trkpt>
      <trkpt lat="39.95505" lon="-4.50401">
        <ele>535</ele>
        <time>2020-08-16 12:31:41</time>
      </trkpt>
      <trkpt lat="39.95502" lon="-4.50403">
        <ele>535.2</ele>
        <time>2020-08-16 12:31:42</time>
      </trkpt>
      <trkpt lat="39.95496" lon="-4.50407">
        <ele>535.4</ele>
        <time>2020-08-16 12:31:44</time>
      </trkpt>
      <trkpt lat="39.95487" lon="-4.50412">
        <ele>535.6</ele>
        <time>2020-08-16 12:31:47</time>
      </trkpt>
      <trkpt lat="39.95485" lon="-4.50413">
        <ele>536</ele>
        <time>2020-08-16 12:31:48</time>
      </trkpt>
      <trkpt lat="39.95482" lon="-4.50415">
        <ele>536.2</ele>
        <time>2020-08-16 12:31:49</time>
      </trkpt>
      <trkpt lat="39.95479" lon="-4.50416">
        <ele>536.4</ele>
        <time>2020-08-16 12:31:50</time>
      </trkpt>
      <trkpt lat="39.95476" lon="-4.50417">
        <ele>536.6</ele>
        <time>2020-08-16 12:31:51</time>
      </trkpt>
      <trkpt lat="39.95474" lon="-4.50419">
        <ele>536.6</ele>
        <time>2020-08-16 12:31:52</time>
      </trkpt>
      <trkpt lat="39.95472" lon="-4.5042">
        <ele>536.8</ele>
        <time>2020-08-16 12:31:53</time>
      </trkpt>
      <trkpt lat="39.95469" lon="-4.50421">
        <ele>537</ele>
        <time>2020-08-16 12:31:54</time>
      </trkpt>
      <trkpt lat="39.95467" lon="-4.50423">
        <ele>537.2</ele>
        <time>2020-08-16 12:31:55</time>
      </trkpt>
      <trkpt lat="39.95464" lon="-4.50424">
        <ele>537.2</ele>
        <time>2020-08-16 12:31:56</time>
      </trkpt>
      <trkpt lat="39.95462" lon="-4.50426">
        <ele>537.2</ele>
        <time>2020-08-16 12:31:57</time>
      </trkpt>
      <trkpt lat="39.95459" lon="-4.50428">
        <ele>537.4</ele>
        <time>2020-08-16 12:31:58</time>
      </trkpt>
      <trkpt lat="39.95457" lon="-4.50429">
        <ele>537.4</ele>
        <time>2020-08-16 12:31:59</time>
      </trkpt>
      <trkpt lat="39.95454" lon="-4.5043">
        <ele>537.6</ele>
        <time>2020-08-16 12:32:00</time>
      </trkpt>
      <trkpt lat="39.95451" lon="-4.50432">
        <ele>537.6</ele>
        <time>2020-08-16 12:32:01</time>
      </trkpt>
      <trkpt lat="39.95448" lon="-4.50434">
        <ele>537.8</ele>
        <time>2020-08-16 12:32:02</time>
      </trkpt>
      <trkpt lat="39.95445" lon="-4.50435">
        <ele>537.8</ele>
        <time>2020-08-16 12:32:03</time>
      </trkpt>
      <trkpt lat="39.95442" lon="-4.50437">
        <ele>537.8</ele>
        <time>2020-08-16 12:32:04</time>
      </trkpt>
      <trkpt lat="39.95432" lon="-4.50442">
        <ele>538</ele>
        <time>2020-08-16 12:32:07</time>
      </trkpt>
      <trkpt lat="39.95396" lon="-4.50461">
        <ele>538</ele>
        <time>2020-08-16 12:32:17</time>
      </trkpt>
      <trkpt lat="39.95376" lon="-4.50472">
        <ele>538</ele>
        <time>2020-08-16 12:32:22</time>
      </trkpt>
      <trkpt lat="39.95369" lon="-4.50476">
        <ele>537.8</ele>
        <time>2020-08-16 12:32:24</time>
      </trkpt>
      <trkpt lat="39.95357" lon="-4.50482">
        <ele>537.4</ele>
        <time>2020-08-16 12:32:27</time>
      </trkpt>
      <trkpt lat="39.95354" lon="-4.50485">
        <ele>537.4</ele>
        <time>2020-08-16 12:32:28</time>
      </trkpt>
      <trkpt lat="39.9535" lon="-4.50487">
        <ele>537.2</ele>
        <time>2020-08-16 12:32:29</time>
      </trkpt>
      <trkpt lat="39.95346" lon="-4.50489">
        <ele>537.2</ele>
        <time>2020-08-16 12:32:30</time>
      </trkpt>
      <trkpt lat="39.95342" lon="-4.50491">
        <ele>537.2</ele>
        <time>2020-08-16 12:32:31</time>
      </trkpt>
      <trkpt lat="39.95339" lon="-4.50493">
        <ele>537.2</ele>
        <time>2020-08-16 12:32:32</time>
      </trkpt>
      <trkpt lat="39.95335" lon="-4.50495">
        <ele>537.4</ele>
        <time>2020-08-16 12:32:33</time>
      </trkpt>
      <trkpt lat="39.95331" lon="-4.50497">
        <ele>538</ele>
        <time>2020-08-16 12:32:34</time>
      </trkpt>
      <trkpt lat="39.95328" lon="-4.50499">
        <ele>538.2</ele>
        <time>2020-08-16 12:32:35</time>
      </trkpt>
      <trkpt lat="39.95325" lon="-4.50501">
        <ele>538.4</ele>
        <time>2020-08-16 12:32:36</time>
      </trkpt>
      <trkpt lat="39.95321" lon="-4.50503">
        <ele>538.4</ele>
        <time>2020-08-16 12:32:37</time>
      </trkpt>
      <trkpt lat="39.95318" lon="-4.50505">
        <ele>538.6</ele>
        <time>2020-08-16 12:32:38</time>
      </trkpt>
      <trkpt lat="39.95314" lon="-4.50506">
        <ele>538.6</ele>
        <time>2020-08-16 12:32:39</time>
      </trkpt>
      <trkpt lat="39.95311" lon="-4.50508">
        <ele>538.8</ele>
        <time>2020-08-16 12:32:40</time>
      </trkpt>
      <trkpt lat="39.95308" lon="-4.5051">
        <ele>538.8</ele>
        <time>2020-08-16 12:32:41</time>
      </trkpt>
      <trkpt lat="39.95304" lon="-4.50512">
        <ele>539</ele>
        <time>2020-08-16 12:32:42</time>
      </trkpt>
      <trkpt lat="39.95301" lon="-4.50514">
        <ele>539</ele>
        <time>2020-08-16 12:32:43</time>
      </trkpt>
      <trkpt lat="39.95298" lon="-4.50515">
        <ele>539.2</ele>
        <time>2020-08-16 12:32:44</time>
      </trkpt>
      <trkpt lat="39.95294" lon="-4.50517">
        <ele>539.2</ele>
        <time>2020-08-16 12:32:45</time>
      </trkpt>
      <trkpt lat="39.95291" lon="-4.50519">
        <ele>539.4</ele>
        <time>2020-08-16 12:32:46</time>
      </trkpt>
      <trkpt lat="39.95287" lon="-4.50521">
        <ele>539.4</ele>
        <time>2020-08-16 12:32:47</time>
      </trkpt>
      <trkpt lat="39.95284" lon="-4.50522">
        <ele>539.6</ele>
        <time>2020-08-16 12:32:48</time>
      </trkpt>
      <trkpt lat="39.95281" lon="-4.50524">
        <ele>539.8</ele>
        <time>2020-08-16 12:32:49</time>
      </trkpt>
      <trkpt lat="39.95278" lon="-4.50526">
        <ele>540</ele>
        <time>2020-08-16 12:32:50</time>
      </trkpt>
      <trkpt lat="39.95275" lon="-4.50528">
        <ele>540</ele>
        <time>2020-08-16 12:32:51</time>
      </trkpt>
      <trkpt lat="39.95272" lon="-4.5053">
        <ele>540.2</ele>
        <time>2020-08-16 12:32:52</time>
      </trkpt>
      <trkpt lat="39.95268" lon="-4.50531">
        <ele>540.2</ele>
        <time>2020-08-16 12:32:53</time>
      </trkpt>
      <trkpt lat="39.95265" lon="-4.50533">
        <ele>540.2</ele>
        <time>2020-08-16 12:32:54</time>
      </trkpt>
      <trkpt lat="39.95262" lon="-4.50535">
        <ele>540.2</ele>
        <time>2020-08-16 12:32:55</time>
      </trkpt>
      <trkpt lat="39.95259" lon="-4.50537">
        <ele>540.4</ele>
        <time>2020-08-16 12:32:56</time>
      </trkpt>
      <trkpt lat="39.9524" lon="-4.50548">
        <ele>540.2</ele>
        <time>2020-08-16 12:33:02</time>
      </trkpt>
      <trkpt lat="39.95237" lon="-4.5055">
        <ele>540.2</ele>
        <time>2020-08-16 12:33:03</time>
      </trkpt>
      <trkpt lat="39.95234" lon="-4.50552">
        <ele>540.2</ele>
        <time>2020-08-16 12:33:04</time>
      </trkpt>
      <trkpt lat="39.95231" lon="-4.50553">
        <ele>540.4</ele>
        <time>2020-08-16 12:33:05</time>
      </trkpt>
      <trkpt lat="39.95229" lon="-4.50555">
        <ele>540.4</ele>
        <time>2020-08-16 12:33:06</time>
      </trkpt>
      <trkpt lat="39.95226" lon="-4.50556">
        <ele>540.4</ele>
        <time>2020-08-16 12:33:07</time>
      </trkpt>
      <trkpt lat="39.95223" lon="-4.50558">
        <ele>540.4</ele>
        <time>2020-08-16 12:33:08</time>
      </trkpt>
      <trkpt lat="39.95219" lon="-4.5056">
        <ele>540.4</ele>
        <time>2020-08-16 12:33:09</time>
      </trkpt>
      <trkpt lat="39.95207" lon="-4.50566">
        <ele>540.4</ele>
        <time>2020-08-16 12:33:12</time>
      </trkpt>
      <trkpt lat="39.95203" lon="-4.50568">
        <ele>540.4</ele>
        <time>2020-08-16 12:33:13</time>
      </trkpt>
      <trkpt lat="39.95199" lon="-4.5057">
        <ele>540.4</ele>
        <time>2020-08-16 12:33:14</time>
      </trkpt>
      <trkpt lat="39.95177" lon="-4.50581">
        <ele>540.4</ele>
        <time>2020-08-16 12:33:19</time>
      </trkpt>
      <trkpt lat="39.95169" lon="-4.50584">
        <ele>540.2</ele>
        <time>2020-08-16 12:33:21</time>
      </trkpt>
      <trkpt lat="39.95161" lon="-4.50589">
        <ele>540.6</ele>
        <time>2020-08-16 12:33:23</time>
      </trkpt>
      <trkpt lat="39.95158" lon="-4.50592">
        <ele>540.6</ele>
        <time>2020-08-16 12:33:24</time>
      </trkpt>
      <trkpt lat="39.95154" lon="-4.50595">
        <ele>540.6</ele>
        <time>2020-08-16 12:33:25</time>
      </trkpt>
      <trkpt lat="39.95149" lon="-4.50597">
        <ele>540.4</ele>
        <time>2020-08-16 12:33:26</time>
      </trkpt>
      <trkpt lat="39.95139" lon="-4.50603">
        <ele>540.4</ele>
        <time>2020-08-16 12:33:28</time>
      </trkpt>
      <trkpt lat="39.95133" lon="-4.50606">
        <ele>540.2</ele>
        <time>2020-08-16 12:33:29</time>
      </trkpt>
      <trkpt lat="39.9512" lon="-4.50613">
        <ele>540.2</ele>
        <time>2020-08-16 12:33:31</time>
      </trkpt>
      <trkpt lat="39.95102" lon="-4.50623">
        <ele>539.6</ele>
        <time>2020-08-16 12:33:34</time>
      </trkpt>
      <trkpt lat="39.95089" lon="-4.5063">
        <ele>539</ele>
        <time>2020-08-16 12:33:36</time>
      </trkpt>
      <trkpt lat="39.95083" lon="-4.50633">
        <ele>538.8</ele>
        <time>2020-08-16 12:33:37</time>
      </trkpt>
      <trkpt lat="39.95055" lon="-4.50652">
        <ele>537.6</ele>
        <time>2020-08-16 12:33:42</time>
      </trkpt>
      <trkpt lat="39.9505" lon="-4.50657">
        <ele>537.6</ele>
        <time>2020-08-16 12:33:43</time>
      </trkpt>
      <trkpt lat="39.95046" lon="-4.50662">
        <ele>537.6</ele>
        <time>2020-08-16 12:33:44</time>
      </trkpt>
      <trkpt lat="39.95041" lon="-4.50666">
        <ele>537.4</ele>
        <time>2020-08-16 12:33:45</time>
      </trkpt>
      <trkpt lat="39.95037" lon="-4.50671">
        <ele>537.4</ele>
        <time>2020-08-16 12:33:46</time>
      </trkpt>
      <trkpt lat="39.95033" lon="-4.50676">
        <ele>537.2</ele>
        <time>2020-08-16 12:33:47</time>
      </trkpt>
      <trkpt lat="39.95029" lon="-4.50681">
        <ele>537.2</ele>
        <time>2020-08-16 12:33:48</time>
      </trkpt>
      <trkpt lat="39.95025" lon="-4.50685">
        <ele>537.4</ele>
        <time>2020-08-16 12:33:49</time>
      </trkpt>
      <trkpt lat="39.95021" lon="-4.5069">
        <ele>537.4</ele>
        <time>2020-08-16 12:33:50</time>
      </trkpt>
      <trkpt lat="39.95018" lon="-4.50695">
        <ele>537.4</ele>
        <time>2020-08-16 12:33:51</time>
      </trkpt>
      <trkpt lat="39.95015" lon="-4.50699">
        <ele>537.4</ele>
        <time>2020-08-16 12:33:52</time>
      </trkpt>
      <trkpt lat="39.95011" lon="-4.50703">
        <ele>537.6</ele>
        <time>2020-08-16 12:33:53</time>
      </trkpt>
      <trkpt lat="39.95007" lon="-4.50707">
        <ele>537.6</ele>
        <time>2020-08-16 12:33:54</time>
      </trkpt>
      <trkpt lat="39.95004" lon="-4.50711">
        <ele>537.8</ele>
        <time>2020-08-16 12:33:55</time>
      </trkpt>
      <trkpt lat="39.95" lon="-4.50715">
        <ele>538.2</ele>
        <time>2020-08-16 12:33:56</time>
      </trkpt>
      <trkpt lat="39.94998" lon="-4.50719">
        <ele>538.2</ele>
        <time>2020-08-16 12:33:57</time>
      </trkpt>
      <trkpt lat="39.94995" lon="-4.50723">
        <ele>538.6</ele>
        <time>2020-08-16 12:33:58</time>
      </trkpt>
      <trkpt lat="39.94992" lon="-4.50727">
        <ele>538.8</ele>
        <time>2020-08-16 12:33:59</time>
      </trkpt>
      <trkpt lat="39.94989" lon="-4.5073">
        <ele>539</ele>
        <time>2020-08-16 12:34:00</time>
      </trkpt>
      <trkpt lat="39.94986" lon="-4.50734">
        <ele>539.2</ele>
        <time>2020-08-16 12:34:01</time>
      </trkpt>
      <trkpt lat="39.94984" lon="-4.50738">
        <ele>539.4</ele>
        <time>2020-08-16 12:34:02</time>
      </trkpt>
      <trkpt lat="39.94981" lon="-4.50743">
        <ele>539.6</ele>
        <time>2020-08-16 12:34:03</time>
      </trkpt>
      <trkpt lat="39.94978" lon="-4.50747">
        <ele>539.8</ele>
        <time>2020-08-16 12:34:04</time>
      </trkpt>
      <trkpt lat="39.94975" lon="-4.50751">
        <ele>539.8</ele>
        <time>2020-08-16 12:34:05</time>
      </trkpt>
      <trkpt lat="39.94973" lon="-4.50755">
        <ele>540</ele>
        <time>2020-08-16 12:34:06</time>
      </trkpt>
      <trkpt lat="39.94969" lon="-4.50759">
        <ele>540</ele>
        <time>2020-08-16 12:34:07</time>
      </trkpt>
      <trkpt lat="39.94966" lon="-4.50763">
        <ele>540.2</ele>
        <time>2020-08-16 12:34:08</time>
      </trkpt>
      <trkpt lat="39.94963" lon="-4.50768">
        <ele>540.4</ele>
        <time>2020-08-16 12:34:09</time>
      </trkpt>
      <trkpt lat="39.94959" lon="-4.50772">
        <ele>540.4</ele>
        <time>2020-08-16 12:34:10</time>
      </trkpt>
      <trkpt lat="39.94956" lon="-4.50776">
        <ele>540.6</ele>
        <time>2020-08-16 12:34:11</time>
      </trkpt>
      <trkpt lat="39.94952" lon="-4.50781">
        <ele>540.6</ele>
        <time>2020-08-16 12:34:12</time>
      </trkpt>
      <trkpt lat="39.94948" lon="-4.50785">
        <ele>540.6</ele>
        <time>2020-08-16 12:34:13</time>
      </trkpt>
      <trkpt lat="39.94921" lon="-4.50822">
        <ele>540</ele>
        <time>2020-08-16 12:34:20</time>
      </trkpt>
      <trkpt lat="39.94905" lon="-4.50844">
        <ele>539.6</ele>
        <time>2020-08-16 12:34:24</time>
      </trkpt>
      <trkpt lat="39.94897" lon="-4.50854">
        <ele>539.6</ele>
        <time>2020-08-16 12:34:26</time>
      </trkpt>
      <trkpt lat="39.94893" lon="-4.50859">
        <ele>539.6</ele>
        <time>2020-08-16 12:34:27</time>
      </trkpt>
      <trkpt lat="39.94885" lon="-4.5087">
        <ele>539.2</ele>
        <time>2020-08-16 12:34:29</time>
      </trkpt>
      <trkpt lat="39.94882" lon="-4.50875">
        <ele>539.2</ele>
        <time>2020-08-16 12:34:30</time>
      </trkpt>
      <trkpt lat="39.94878" lon="-4.50881">
        <ele>539.2</ele>
        <time>2020-08-16 12:34:31</time>
      </trkpt>
      <trkpt lat="39.94874" lon="-4.50886">
        <ele>539</ele>
        <time>2020-08-16 12:34:32</time>
      </trkpt>
      <trkpt lat="39.94871" lon="-4.50891">
        <ele>539</ele>
        <time>2020-08-16 12:34:33</time>
      </trkpt>
      <trkpt lat="39.94867" lon="-4.50896">
        <ele>539</ele>
        <time>2020-08-16 12:34:34</time>
      </trkpt>
      <trkpt lat="39.94863" lon="-4.50901">
        <ele>538.8</ele>
        <time>2020-08-16 12:34:35</time>
      </trkpt>
      <trkpt lat="39.9486" lon="-4.50906">
        <ele>538.8</ele>
        <time>2020-08-16 12:34:36</time>
      </trkpt>
      <trkpt lat="39.94856" lon="-4.50911">
        <ele>538.8</ele>
        <time>2020-08-16 12:34:37</time>
      </trkpt>
      <trkpt lat="39.94852" lon="-4.50915">
        <ele>538.8</ele>
        <time>2020-08-16 12:34:38</time>
      </trkpt>
      <trkpt lat="39.94848" lon="-4.5092">
        <ele>539</ele>
        <time>2020-08-16 12:34:39</time>
      </trkpt>
      <trkpt lat="39.94845" lon="-4.50925">
        <ele>539</ele>
        <time>2020-08-16 12:34:40</time>
      </trkpt>
      <trkpt lat="39.94841" lon="-4.5093">
        <ele>539</ele>
        <time>2020-08-16 12:34:41</time>
      </trkpt>
      <trkpt lat="39.94837" lon="-4.50935">
        <ele>539.2</ele>
        <time>2020-08-16 12:34:42</time>
      </trkpt>
      <trkpt lat="39.94834" lon="-4.50939">
        <ele>539.2</ele>
        <time>2020-08-16 12:34:43</time>
      </trkpt>
      <trkpt lat="39.9483" lon="-4.50944">
        <ele>539.2</ele>
        <time>2020-08-16 12:34:44</time>
      </trkpt>
      <trkpt lat="39.94827" lon="-4.50949">
        <ele>539.2</ele>
        <time>2020-08-16 12:34:45</time>
      </trkpt>
      <trkpt lat="39.94823" lon="-4.50953">
        <ele>539.4</ele>
        <time>2020-08-16 12:34:46</time>
      </trkpt>
      <trkpt lat="39.94819" lon="-4.50958">
        <ele>539.4</ele>
        <time>2020-08-16 12:34:47</time>
      </trkpt>
      <trkpt lat="39.94816" lon="-4.50963">
        <ele>539.6</ele>
        <time>2020-08-16 12:34:48</time>
      </trkpt>
      <trkpt lat="39.94812" lon="-4.50968">
        <ele>539.6</ele>
        <time>2020-08-16 12:34:49</time>
      </trkpt>
      <trkpt lat="39.94809" lon="-4.50973">
        <ele>539.8</ele>
        <time>2020-08-16 12:34:50</time>
      </trkpt>
      <trkpt lat="39.94805" lon="-4.50977">
        <ele>539.8</ele>
        <time>2020-08-16 12:34:51</time>
      </trkpt>
      <trkpt lat="39.94802" lon="-4.50982">
        <ele>539.8</ele>
        <time>2020-08-16 12:34:52</time>
      </trkpt>
      <trkpt lat="39.94798" lon="-4.50986">
        <ele>539.8</ele>
        <time>2020-08-16 12:34:53</time>
      </trkpt>
      <trkpt lat="39.94795" lon="-4.50991">
        <ele>540</ele>
        <time>2020-08-16 12:34:54</time>
      </trkpt>
      <trkpt lat="39.94791" lon="-4.50995">
        <ele>540.2</ele>
        <time>2020-08-16 12:34:55</time>
      </trkpt>
      <trkpt lat="39.94788" lon="-4.50999">
        <ele>540.2</ele>
        <time>2020-08-16 12:34:56</time>
      </trkpt>
      <trkpt lat="39.94784" lon="-4.51004">
        <ele>540.2</ele>
        <time>2020-08-16 12:34:57</time>
      </trkpt>
      <trkpt lat="39.94781" lon="-4.51009">
        <ele>540.2</ele>
        <time>2020-08-16 12:34:58</time>
      </trkpt>
      <trkpt lat="39.94778" lon="-4.51013">
        <ele>540.2</ele>
        <time>2020-08-16 12:34:59</time>
      </trkpt>
      <trkpt lat="39.94774" lon="-4.51018">
        <ele>540.4</ele>
        <time>2020-08-16 12:35:00</time>
      </trkpt>
      <trkpt lat="39.94771" lon="-4.51022">
        <ele>540.4</ele>
        <time>2020-08-16 12:35:01</time>
      </trkpt>
      <trkpt lat="39.94767" lon="-4.51027">
        <ele>540.4</ele>
        <time>2020-08-16 12:35:02</time>
      </trkpt>
      <trkpt lat="39.94764" lon="-4.51032">
        <ele>540.6</ele>
        <time>2020-08-16 12:35:03</time>
      </trkpt>
      <trkpt lat="39.94761" lon="-4.51036">
        <ele>540.6</ele>
        <time>2020-08-16 12:35:04</time>
      </trkpt>
      <trkpt lat="39.94758" lon="-4.51041">
        <ele>540.8</ele>
        <time>2020-08-16 12:35:05</time>
      </trkpt>
      <trkpt lat="39.94754" lon="-4.51046">
        <ele>540.8</ele>
        <time>2020-08-16 12:35:06</time>
      </trkpt>
      <trkpt lat="39.94751" lon="-4.5105">
        <ele>541</ele>
        <time>2020-08-16 12:35:07</time>
      </trkpt>
      <trkpt lat="39.94748" lon="-4.51055">
        <ele>541</ele>
        <time>2020-08-16 12:35:08</time>
      </trkpt>
      <trkpt lat="39.94745" lon="-4.5106">
        <ele>541</ele>
        <time>2020-08-16 12:35:09</time>
      </trkpt>
      <trkpt lat="39.94741" lon="-4.51064">
        <ele>541.2</ele>
        <time>2020-08-16 12:35:10</time>
      </trkpt>
      <trkpt lat="39.94738" lon="-4.51069">
        <ele>541.6</ele>
        <time>2020-08-16 12:35:11</time>
      </trkpt>
      <trkpt lat="39.94735" lon="-4.51073">
        <ele>541.6</ele>
        <time>2020-08-16 12:35:12</time>
      </trkpt>
      <trkpt lat="39.94731" lon="-4.51078">
        <ele>541.6</ele>
        <time>2020-08-16 12:35:13</time>
      </trkpt>
      <trkpt lat="39.94727" lon="-4.51083">
        <ele>541.8</ele>
        <time>2020-08-16 12:35:14</time>
      </trkpt>
      <trkpt lat="39.94724" lon="-4.51087">
        <ele>541.8</ele>
        <time>2020-08-16 12:35:15</time>
      </trkpt>
      <trkpt lat="39.94691" lon="-4.51131">
        <ele>541.8</ele>
        <time>2020-08-16 12:35:24</time>
      </trkpt>
      <trkpt lat="39.94656" lon="-4.51176">
        <ele>541.4</ele>
        <time>2020-08-16 12:35:33</time>
      </trkpt>
      <trkpt lat="39.94645" lon="-4.51192">
        <ele>541.2</ele>
        <time>2020-08-16 12:35:36</time>
      </trkpt>
      <trkpt lat="39.9461" lon="-4.5124">
        <ele>540.8</ele>
        <time>2020-08-16 12:35:44</time>
      </trkpt>
      <trkpt lat="39.94605" lon="-4.51247">
        <ele>540.4</ele>
        <time>2020-08-16 12:35:45</time>
      </trkpt>
      <trkpt lat="39.946" lon="-4.51254">
        <ele>539.8</ele>
        <time>2020-08-16 12:35:46</time>
      </trkpt>
      <trkpt lat="39.94582" lon="-4.51277">
        <ele>538.8</ele>
        <time>2020-08-16 12:35:49</time>
      </trkpt>
      <trkpt lat="39.94576" lon="-4.51285">
        <ele>538.6</ele>
        <time>2020-08-16 12:35:50</time>
      </trkpt>
      <trkpt lat="39.94564" lon="-4.51301">
        <ele>538.2</ele>
        <time>2020-08-16 12:35:52</time>
      </trkpt>
      <trkpt lat="39.94557" lon="-4.51309">
        <ele>537.4</ele>
        <time>2020-08-16 12:35:53</time>
      </trkpt>
      <trkpt lat="39.94551" lon="-4.51317">
        <ele>537</ele>
        <time>2020-08-16 12:35:54</time>
      </trkpt>
      <trkpt lat="39.94546" lon="-4.51325">
        <ele>536.4</ele>
        <time>2020-08-16 12:35:55</time>
      </trkpt>
      <trkpt lat="39.9454" lon="-4.51332">
        <ele>536.2</ele>
        <time>2020-08-16 12:35:56</time>
      </trkpt>
      <trkpt lat="39.94535" lon="-4.51339">
        <ele>535.8</ele>
        <time>2020-08-16 12:35:57</time>
      </trkpt>
      <trkpt lat="39.94529" lon="-4.51346">
        <ele>535.2</ele>
        <time>2020-08-16 12:35:58</time>
      </trkpt>
      <trkpt lat="39.94524" lon="-4.51353">
        <ele>535</ele>
        <time>2020-08-16 12:35:59</time>
      </trkpt>
      <trkpt lat="39.94519" lon="-4.5136">
        <ele>534.6</ele>
        <time>2020-08-16 12:36:00</time>
      </trkpt>
      <trkpt lat="39.94514" lon="-4.51367">
        <ele>534.6</ele>
        <time>2020-08-16 12:36:01</time>
      </trkpt>
      <trkpt lat="39.94509" lon="-4.51373">
        <ele>534.4</ele>
        <time>2020-08-16 12:36:02</time>
      </trkpt>
      <trkpt lat="39.94505" lon="-4.5138">
        <ele>534.4</ele>
        <time>2020-08-16 12:36:03</time>
      </trkpt>
      <trkpt lat="39.945" lon="-4.51386">
        <ele>534.2</ele>
        <time>2020-08-16 12:36:04</time>
      </trkpt>
      <trkpt lat="39.94496" lon="-4.51392">
        <ele>534.2</ele>
        <time>2020-08-16 12:36:05</time>
      </trkpt>
      <trkpt lat="39.94492" lon="-4.51397">
        <ele>534.2</ele>
        <time>2020-08-16 12:36:06</time>
      </trkpt>
      <trkpt lat="39.94488" lon="-4.51403">
        <ele>534.2</ele>
        <time>2020-08-16 12:36:07</time>
      </trkpt>
      <trkpt lat="39.94484" lon="-4.51408">
        <ele>534.2</ele>
        <time>2020-08-16 12:36:08</time>
      </trkpt>
      <trkpt lat="39.9448" lon="-4.51414">
        <ele>534.2</ele>
        <time>2020-08-16 12:36:09</time>
      </trkpt>
      <trkpt lat="39.94476" lon="-4.5142">
        <ele>534.4</ele>
        <time>2020-08-16 12:36:10</time>
      </trkpt>
      <trkpt lat="39.94472" lon="-4.51425">
        <ele>534.4</ele>
        <time>2020-08-16 12:36:11</time>
      </trkpt>
      <trkpt lat="39.94468" lon="-4.51431">
        <ele>534.6</ele>
        <time>2020-08-16 12:36:12</time>
      </trkpt>
      <trkpt lat="39.94463" lon="-4.51436">
        <ele>534.8</ele>
        <time>2020-08-16 12:36:13</time>
      </trkpt>
      <trkpt lat="39.9446" lon="-4.51441">
        <ele>535</ele>
        <time>2020-08-16 12:36:14</time>
      </trkpt>
      <trkpt lat="39.94455" lon="-4.51447">
        <ele>534.8</ele>
        <time>2020-08-16 12:36:15</time>
      </trkpt>
      <trkpt lat="39.94451" lon="-4.51452">
        <ele>534.8</ele>
        <time>2020-08-16 12:36:16</time>
      </trkpt>
      <trkpt lat="39.94447" lon="-4.51456">
        <ele>534.8</ele>
        <time>2020-08-16 12:36:17</time>
      </trkpt>
      <trkpt lat="39.94443" lon="-4.51461">
        <ele>534.8</ele>
        <time>2020-08-16 12:36:18</time>
      </trkpt>
      <trkpt lat="39.94439" lon="-4.51466">
        <ele>534.8</ele>
        <time>2020-08-16 12:36:19</time>
      </trkpt>
      <trkpt lat="39.94436" lon="-4.51471">
        <ele>535.2</ele>
        <time>2020-08-16 12:36:20</time>
      </trkpt>
      <trkpt lat="39.94432" lon="-4.51476">
        <ele>535.2</ele>
        <time>2020-08-16 12:36:21</time>
      </trkpt>
      <trkpt lat="39.94429" lon="-4.51481">
        <ele>535</ele>
        <time>2020-08-16 12:36:22</time>
      </trkpt>
      <trkpt lat="39.94425" lon="-4.51486">
        <ele>535.2</ele>
        <time>2020-08-16 12:36:23</time>
      </trkpt>
      <trkpt lat="39.94422" lon="-4.5149">
        <ele>535.2</ele>
        <time>2020-08-16 12:36:24</time>
      </trkpt>
      <trkpt lat="39.94418" lon="-4.51495">
        <ele>535.2</ele>
        <time>2020-08-16 12:36:25</time>
      </trkpt>
      <trkpt lat="39.94415" lon="-4.51499">
        <ele>535.2</ele>
        <time>2020-08-16 12:36:26</time>
      </trkpt>
      <trkpt lat="39.94412" lon="-4.51503">
        <ele>535.4</ele>
        <time>2020-08-16 12:36:27</time>
      </trkpt>
      <trkpt lat="39.94409" lon="-4.51507">
        <ele>535.6</ele>
        <time>2020-08-16 12:36:28</time>
      </trkpt>
      <trkpt lat="39.94406" lon="-4.51512">
        <ele>535.8</ele>
        <time>2020-08-16 12:36:29</time>
      </trkpt>
      <trkpt lat="39.94403" lon="-4.51516">
        <ele>535.8</ele>
        <time>2020-08-16 12:36:30</time>
      </trkpt>
      <trkpt lat="39.944" lon="-4.51519">
        <ele>536.2</ele>
        <time>2020-08-16 12:36:31</time>
      </trkpt>
      <trkpt lat="39.94397" lon="-4.51523">
        <ele>536.2</ele>
        <time>2020-08-16 12:36:32</time>
      </trkpt>
      <trkpt lat="39.94394" lon="-4.51527">
        <ele>536.2</ele>
        <time>2020-08-16 12:36:33</time>
      </trkpt>
      <trkpt lat="39.94391" lon="-4.51531">
        <ele>536.6</ele>
        <time>2020-08-16 12:36:34</time>
      </trkpt>
      <trkpt lat="39.94389" lon="-4.51535">
        <ele>536.6</ele>
        <time>2020-08-16 12:36:35</time>
      </trkpt>
      <trkpt lat="39.94386" lon="-4.51538">
        <ele>537</ele>
        <time>2020-08-16 12:36:36</time>
      </trkpt>
      <trkpt lat="39.94383" lon="-4.51541">
        <ele>537.2</ele>
        <time>2020-08-16 12:36:37</time>
      </trkpt>
      <trkpt lat="39.9438" lon="-4.51544">
        <ele>537.4</ele>
        <time>2020-08-16 12:36:38</time>
      </trkpt>
      <trkpt lat="39.94377" lon="-4.51548">
        <ele>537.8</ele>
        <time>2020-08-16 12:36:39</time>
      </trkpt>
      <trkpt lat="39.94375" lon="-4.51552">
        <ele>537.8</ele>
        <time>2020-08-16 12:36:40</time>
      </trkpt>
      <trkpt lat="39.94372" lon="-4.51555">
        <ele>538</ele>
        <time>2020-08-16 12:36:41</time>
      </trkpt>
      <trkpt lat="39.9437" lon="-4.51559">
        <ele>538</ele>
        <time>2020-08-16 12:36:42</time>
      </trkpt>
      <trkpt lat="39.94367" lon="-4.51562">
        <ele>538.2</ele>
        <time>2020-08-16 12:36:43</time>
      </trkpt>
      <trkpt lat="39.94365" lon="-4.51566">
        <ele>538.4</ele>
        <time>2020-08-16 12:36:44</time>
      </trkpt>
      <trkpt lat="39.94362" lon="-4.51569">
        <ele>538.6</ele>
        <time>2020-08-16 12:36:45</time>
      </trkpt>
      <trkpt lat="39.94359" lon="-4.51572">
        <ele>538.8</ele>
        <time>2020-08-16 12:36:46</time>
      </trkpt>
      <trkpt lat="39.94357" lon="-4.51576">
        <ele>539</ele>
        <time>2020-08-16 12:36:47</time>
      </trkpt>
      <trkpt lat="39.94354" lon="-4.51579">
        <ele>539.2</ele>
        <time>2020-08-16 12:36:48</time>
      </trkpt>
      <trkpt lat="39.94352" lon="-4.51583">
        <ele>539.4</ele>
        <time>2020-08-16 12:36:49</time>
      </trkpt>
      <trkpt lat="39.94349" lon="-4.51586">
        <ele>539.4</ele>
        <time>2020-08-16 12:36:50</time>
      </trkpt>
      <trkpt lat="39.94347" lon="-4.5159">
        <ele>539.6</ele>
        <time>2020-08-16 12:36:51</time>
      </trkpt>
      <trkpt lat="39.94344" lon="-4.51593">
        <ele>539.6</ele>
        <time>2020-08-16 12:36:52</time>
      </trkpt>
      <trkpt lat="39.94342" lon="-4.51597">
        <ele>539.8</ele>
        <time>2020-08-16 12:36:53</time>
      </trkpt>
      <trkpt lat="39.94339" lon="-4.516">
        <ele>540</ele>
        <time>2020-08-16 12:36:54</time>
      </trkpt>
      <trkpt lat="39.94336" lon="-4.51603">
        <ele>540</ele>
        <time>2020-08-16 12:36:55</time>
      </trkpt>
      <trkpt lat="39.94334" lon="-4.51607">
        <ele>540.4</ele>
        <time>2020-08-16 12:36:56</time>
      </trkpt>
      <trkpt lat="39.94332" lon="-4.5161">
        <ele>540.4</ele>
        <time>2020-08-16 12:36:57</time>
      </trkpt>
      <trkpt lat="39.94329" lon="-4.51613">
        <ele>540.6</ele>
        <time>2020-08-16 12:36:58</time>
      </trkpt>
      <trkpt lat="39.94327" lon="-4.51616">
        <ele>540.6</ele>
        <time>2020-08-16 12:36:59</time>
      </trkpt>
      <trkpt lat="39.94324" lon="-4.5162">
        <ele>540.8</ele>
        <time>2020-08-16 12:37:00</time>
      </trkpt>
      <trkpt lat="39.94322" lon="-4.51623">
        <ele>541</ele>
        <time>2020-08-16 12:37:01</time>
      </trkpt>
      <trkpt lat="39.9432" lon="-4.51626">
        <ele>541.2</ele>
        <time>2020-08-16 12:37:02</time>
      </trkpt>
      <trkpt lat="39.94317" lon="-4.51629">
        <ele>541.6</ele>
        <time>2020-08-16 12:37:03</time>
      </trkpt>
      <trkpt lat="39.94315" lon="-4.51633">
        <ele>541.6</ele>
        <time>2020-08-16 12:37:04</time>
      </trkpt>
      <trkpt lat="39.94313" lon="-4.51636">
        <ele>541.8</ele>
        <time>2020-08-16 12:37:05</time>
      </trkpt>
      <trkpt lat="39.9431" lon="-4.51639">
        <ele>542</ele>
        <time>2020-08-16 12:37:06</time>
      </trkpt>
      <trkpt lat="39.94307" lon="-4.51642">
        <ele>542</ele>
        <time>2020-08-16 12:37:07</time>
      </trkpt>
      <trkpt lat="39.94305" lon="-4.51646">
        <ele>542.4</ele>
        <time>2020-08-16 12:37:08</time>
      </trkpt>
      <trkpt lat="39.94302" lon="-4.51649">
        <ele>542.4</ele>
        <time>2020-08-16 12:37:09</time>
      </trkpt>
      <trkpt lat="39.943" lon="-4.51652">
        <ele>542.6</ele>
        <time>2020-08-16 12:37:10</time>
      </trkpt>
      <trkpt lat="39.94298" lon="-4.51655">
        <ele>542.8</ele>
        <time>2020-08-16 12:37:11</time>
      </trkpt>
      <trkpt lat="39.94295" lon="-4.51659">
        <ele>542.8</ele>
        <time>2020-08-16 12:37:12</time>
      </trkpt>
      <trkpt lat="39.94293" lon="-4.51662">
        <ele>543</ele>
        <time>2020-08-16 12:37:13</time>
      </trkpt>
      <trkpt lat="39.9429" lon="-4.51665">
        <ele>543</ele>
        <time>2020-08-16 12:37:14</time>
      </trkpt>
      <trkpt lat="39.94288" lon="-4.51668">
        <ele>543.2</ele>
        <time>2020-08-16 12:37:15</time>
      </trkpt>
      <trkpt lat="39.94286" lon="-4.51671">
        <ele>543.2</ele>
        <time>2020-08-16 12:37:16</time>
      </trkpt>
      <trkpt lat="39.94283" lon="-4.51674">
        <ele>543.4</ele>
        <time>2020-08-16 12:37:17</time>
      </trkpt>
      <trkpt lat="39.94281" lon="-4.51677">
        <ele>543.6</ele>
        <time>2020-08-16 12:37:18</time>
      </trkpt>
      <trkpt lat="39.94278" lon="-4.5168">
        <ele>543.6</ele>
        <time>2020-08-16 12:37:19</time>
      </trkpt>
      <trkpt lat="39.94276" lon="-4.51684">
        <ele>543.6</ele>
        <time>2020-08-16 12:37:20</time>
      </trkpt>
      <trkpt lat="39.94273" lon="-4.51687">
        <ele>543.8</ele>
        <time>2020-08-16 12:37:21</time>
      </trkpt>
      <trkpt lat="39.94268" lon="-4.51694">
        <ele>543.8</ele>
        <time>2020-08-16 12:37:23</time>
      </trkpt>
      <trkpt lat="39.94265" lon="-4.51697">
        <ele>544</ele>
        <time>2020-08-16 12:37:24</time>
      </trkpt>
      <trkpt lat="39.94262" lon="-4.51701">
        <ele>544</ele>
        <time>2020-08-16 12:37:25</time>
      </trkpt>
      <trkpt lat="39.94254" lon="-4.51712">
        <ele>544</ele>
        <time>2020-08-16 12:37:28</time>
      </trkpt>
      <trkpt lat="39.94229" lon="-4.51748">
        <ele>544.4</ele>
        <time>2020-08-16 12:37:37</time>
      </trkpt>
      <trkpt lat="39.94226" lon="-4.51752">
        <ele>544.4</ele>
        <time>2020-08-16 12:37:38</time>
      </trkpt>
      <trkpt lat="39.9421" lon="-4.51775">
        <ele>544.4</ele>
        <time>2020-08-16 12:37:43</time>
      </trkpt>
      <trkpt lat="39.94207" lon="-4.5178">
        <ele>544.4</ele>
        <time>2020-08-16 12:37:44</time>
      </trkpt>
      <trkpt lat="39.94206" lon="-4.51785">
        <ele>544.4</ele>
        <time>2020-08-16 12:37:45</time>
      </trkpt>
      <trkpt lat="39.94205" lon="-4.51792">
        <ele>544.4</ele>
        <time>2020-08-16 12:37:46</time>
      </trkpt>
      <trkpt lat="39.94205" lon="-4.51798">
        <ele>544.2</ele>
        <time>2020-08-16 12:37:47</time>
      </trkpt>
      <trkpt lat="39.94206" lon="-4.51804">
        <ele>544.2</ele>
        <time>2020-08-16 12:37:48</time>
      </trkpt>
      <trkpt lat="39.94207" lon="-4.51811">
        <ele>544</ele>
        <time>2020-08-16 12:37:49</time>
      </trkpt>
      <trkpt lat="39.94207" lon="-4.51817">
        <ele>543.8</ele>
        <time>2020-08-16 12:37:50</time>
      </trkpt>
      <trkpt lat="39.94209" lon="-4.51855">
        <ele>544</ele>
        <time>2020-08-16 12:37:56</time>
      </trkpt>
      <trkpt lat="39.94213" lon="-4.51909">
        <ele>543.8</ele>
        <time>2020-08-16 12:38:04</time>
      </trkpt>
      <trkpt lat="39.94216" lon="-4.51944">
        <ele>543.4</ele>
        <time>2020-08-16 12:38:09</time>
      </trkpt>
      <trkpt lat="39.94217" lon="-4.5195">
        <ele>543.6</ele>
        <time>2020-08-16 12:38:10</time>
      </trkpt>
      <trkpt lat="39.94218" lon="-4.51957">
        <ele>543.6</ele>
        <time>2020-08-16 12:38:11</time>
      </trkpt>
      <trkpt lat="39.94219" lon="-4.51964">
        <ele>543.6</ele>
        <time>2020-08-16 12:38:12</time>
      </trkpt>
      <trkpt lat="39.9422" lon="-4.5197">
        <ele>543.8</ele>
        <time>2020-08-16 12:38:13</time>
      </trkpt>
      <trkpt lat="39.94222" lon="-4.51998">
        <ele>543.8</ele>
        <time>2020-08-16 12:38:17</time>
      </trkpt>
      <trkpt lat="39.94224" lon="-4.52011">
        <ele>543.8</ele>
        <time>2020-08-16 12:38:19</time>
      </trkpt>
      <trkpt lat="39.94224" lon="-4.52017">
        <ele>543.8</ele>
        <time>2020-08-16 12:38:20</time>
      </trkpt>
      <trkpt lat="39.94225" lon="-4.52024">
        <ele>543.8</ele>
        <time>2020-08-16 12:38:21</time>
      </trkpt>
      <trkpt lat="39.94226" lon="-4.5203">
        <ele>543.8</ele>
        <time>2020-08-16 12:38:22</time>
      </trkpt>
      <trkpt lat="39.94226" lon="-4.52037">
        <ele>543.8</ele>
        <time>2020-08-16 12:38:23</time>
      </trkpt>
      <trkpt lat="39.94227" lon="-4.52043">
        <ele>544</ele>
        <time>2020-08-16 12:38:24</time>
      </trkpt>
      <trkpt lat="39.94227" lon="-4.52049">
        <ele>544</ele>
        <time>2020-08-16 12:38:25</time>
      </trkpt>
      <trkpt lat="39.94228" lon="-4.52055">
        <ele>544</ele>
        <time>2020-08-16 12:38:26</time>
      </trkpt>
      <trkpt lat="39.94229" lon="-4.52062">
        <ele>544</ele>
        <time>2020-08-16 12:38:27</time>
      </trkpt>
      <trkpt lat="39.9423" lon="-4.52068">
        <ele>544.2</ele>
        <time>2020-08-16 12:38:28</time>
      </trkpt>
      <trkpt lat="39.9423" lon="-4.52074">
        <ele>544.2</ele>
        <time>2020-08-16 12:38:29</time>
      </trkpt>
      <trkpt lat="39.94231" lon="-4.5208">
        <ele>544.2</ele>
        <time>2020-08-16 12:38:30</time>
      </trkpt>
      <trkpt lat="39.94232" lon="-4.52086">
        <ele>544.2</ele>
        <time>2020-08-16 12:38:31</time>
      </trkpt>
      <trkpt lat="39.94232" lon="-4.52092">
        <ele>544.2</ele>
        <time>2020-08-16 12:38:32</time>
      </trkpt>
      <trkpt lat="39.94233" lon="-4.52098">
        <ele>544.4</ele>
        <time>2020-08-16 12:38:33</time>
      </trkpt>
      <trkpt lat="39.94234" lon="-4.52104">
        <ele>544.2</ele>
        <time>2020-08-16 12:38:34</time>
      </trkpt>
      <trkpt lat="39.94235" lon="-4.5211">
        <ele>544.2</ele>
        <time>2020-08-16 12:38:35</time>
      </trkpt>
      <trkpt lat="39.94236" lon="-4.52116">
        <ele>544.2</ele>
        <time>2020-08-16 12:38:36</time>
      </trkpt>
      <trkpt lat="39.94237" lon="-4.52123">
        <ele>544.6</ele>
        <time>2020-08-16 12:38:37</time>
      </trkpt>
      <trkpt lat="39.9424" lon="-4.52142">
        <ele>544.6</ele>
        <time>2020-08-16 12:38:40</time>
      </trkpt>
      <trkpt lat="39.94243" lon="-4.52161">
        <ele>545</ele>
        <time>2020-08-16 12:38:43</time>
      </trkpt>
      <trkpt lat="39.94246" lon="-4.52175">
        <ele>545</ele>
        <time>2020-08-16 12:38:45</time>
      </trkpt>
      <trkpt lat="39.94248" lon="-4.52188">
        <ele>544.8</ele>
        <time>2020-08-16 12:38:47</time>
      </trkpt>
      <trkpt lat="39.94251" lon="-4.52201">
        <ele>544.6</ele>
        <time>2020-08-16 12:38:49</time>
      </trkpt>
      <trkpt lat="39.94257" lon="-4.52233">
        <ele>544.6</ele>
        <time>2020-08-16 12:38:54</time>
      </trkpt>
      <trkpt lat="39.94258" lon="-4.5224">
        <ele>544.6</ele>
        <time>2020-08-16 12:38:55</time>
      </trkpt>
      <trkpt lat="39.9426" lon="-4.52246">
        <ele>544.4</ele>
        <time>2020-08-16 12:38:56</time>
      </trkpt>
      <trkpt lat="39.94262" lon="-4.52253">
        <ele>544.4</ele>
        <time>2020-08-16 12:38:57</time>
      </trkpt>
      <trkpt lat="39.94263" lon="-4.5226">
        <ele>544.4</ele>
        <time>2020-08-16 12:38:58</time>
      </trkpt>
      <trkpt lat="39.94268" lon="-4.52294">
        <ele>544.2</ele>
        <time>2020-08-16 12:39:03</time>
      </trkpt>
      <trkpt lat="39.94274" lon="-4.52327">
        <ele>544</ele>
        <time>2020-08-16 12:39:08</time>
      </trkpt>
      <trkpt lat="39.94276" lon="-4.5234">
        <ele>544</ele>
        <time>2020-08-16 12:39:10</time>
      </trkpt>
      <trkpt lat="39.94277" lon="-4.52346">
        <ele>543.8</ele>
        <time>2020-08-16 12:39:11</time>
      </trkpt>
      <trkpt lat="39.94278" lon="-4.52353">
        <ele>543.8</ele>
        <time>2020-08-16 12:39:12</time>
      </trkpt>
      <trkpt lat="39.94279" lon="-4.52359">
        <ele>543.8</ele>
        <time>2020-08-16 12:39:13</time>
      </trkpt>
      <trkpt lat="39.94282" lon="-4.52379">
        <ele>543.8</ele>
        <time>2020-08-16 12:39:16</time>
      </trkpt>
      <trkpt lat="39.94283" lon="-4.52386">
        <ele>543.8</ele>
        <time>2020-08-16 12:39:17</time>
      </trkpt>
      <trkpt lat="39.9429" lon="-4.52426">
        <ele>544</ele>
        <time>2020-08-16 12:39:23</time>
      </trkpt>
      <trkpt lat="39.94291" lon="-4.52433">
        <ele>544</ele>
        <time>2020-08-16 12:39:24</time>
      </trkpt>
      <trkpt lat="39.94297" lon="-4.52469">
        <ele>543.8</ele>
        <time>2020-08-16 12:39:29</time>
      </trkpt>
      <trkpt lat="39.94301" lon="-4.52499">
        <ele>543.2</ele>
        <time>2020-08-16 12:39:33</time>
      </trkpt>
      <trkpt lat="39.94305" lon="-4.52524">
        <ele>543</ele>
        <time>2020-08-16 12:39:36</time>
      </trkpt>
      <trkpt lat="39.94306" lon="-4.52533">
        <ele>543</ele>
        <time>2020-08-16 12:39:37</time>
      </trkpt>
      <trkpt lat="39.94309" lon="-4.52551">
        <ele>542</ele>
        <time>2020-08-16 12:39:39</time>
      </trkpt>
      <trkpt lat="39.9431" lon="-4.5256">
        <ele>541.8</ele>
        <time>2020-08-16 12:39:40</time>
      </trkpt>
      <trkpt lat="39.94316" lon="-4.52596">
        <ele>540.2</ele>
        <time>2020-08-16 12:39:44</time>
      </trkpt>
      <trkpt lat="39.94318" lon="-4.52605">
        <ele>539.8</ele>
        <time>2020-08-16 12:39:45</time>
      </trkpt>
      <trkpt lat="39.9432" lon="-4.52614">
        <ele>539</ele>
        <time>2020-08-16 12:39:46</time>
      </trkpt>
      <trkpt lat="39.94321" lon="-4.52623">
        <ele>538.8</ele>
        <time>2020-08-16 12:39:47</time>
      </trkpt>
      <trkpt lat="39.94324" lon="-4.52641">
        <ele>538.2</ele>
        <time>2020-08-16 12:39:49</time>
      </trkpt>
      <trkpt lat="39.94326" lon="-4.52659">
        <ele>537.6</ele>
        <time>2020-08-16 12:39:51</time>
      </trkpt>
      <trkpt lat="39.94329" lon="-4.52677">
        <ele>537</ele>
        <time>2020-08-16 12:39:53</time>
      </trkpt>
      <trkpt lat="39.94332" lon="-4.52695">
        <ele>536.6</ele>
        <time>2020-08-16 12:39:55</time>
      </trkpt>
      <trkpt lat="39.94336" lon="-4.52722">
        <ele>535.8</ele>
        <time>2020-08-16 12:39:58</time>
      </trkpt>
      <trkpt lat="39.94338" lon="-4.5274">
        <ele>535.4</ele>
        <time>2020-08-16 12:40:00</time>
      </trkpt>
      <trkpt lat="39.94338" lon="-4.52749">
        <ele>535.2</ele>
        <time>2020-08-16 12:40:01</time>
      </trkpt>
      <trkpt lat="39.94339" lon="-4.52758">
        <ele>535</ele>
        <time>2020-08-16 12:40:02</time>
      </trkpt>
      <trkpt lat="39.9434" lon="-4.52768">
        <ele>534.6</ele>
        <time>2020-08-16 12:40:03</time>
      </trkpt>
      <trkpt lat="39.94341" lon="-4.52786">
        <ele>534.2</ele>
        <time>2020-08-16 12:40:05</time>
      </trkpt>
      <trkpt lat="39.94342" lon="-4.52815">
        <ele>533.4</ele>
        <time>2020-08-16 12:40:08</time>
      </trkpt>
      <trkpt lat="39.94343" lon="-4.52835">
        <ele>533</ele>
        <time>2020-08-16 12:40:10</time>
      </trkpt>
      <trkpt lat="39.94346" lon="-4.52875">
        <ele>532</ele>
        <time>2020-08-16 12:40:14</time>
      </trkpt>
      <trkpt lat="39.94348" lon="-4.52896">
        <ele>531</ele>
        <time>2020-08-16 12:40:16</time>
      </trkpt>
      <trkpt lat="39.94348" lon="-4.52906">
        <ele>530.6</ele>
        <time>2020-08-16 12:40:17</time>
      </trkpt>
      <trkpt lat="39.94351" lon="-4.52944">
        <ele>530.2</ele>
        <time>2020-08-16 12:40:21</time>
      </trkpt>
      <trkpt lat="39.94351" lon="-4.52953">
        <ele>529.6</ele>
        <time>2020-08-16 12:40:22</time>
      </trkpt>
      <trkpt lat="39.94352" lon="-4.52962">
        <ele>529.4</ele>
        <time>2020-08-16 12:40:23</time>
      </trkpt>
      <trkpt lat="39.94352" lon="-4.52972">
        <ele>529.2</ele>
        <time>2020-08-16 12:40:24</time>
      </trkpt>
      <trkpt lat="39.94353" lon="-4.52981">
        <ele>528.8</ele>
        <time>2020-08-16 12:40:25</time>
      </trkpt>
      <trkpt lat="39.94353" lon="-4.5299">
        <ele>528.8</ele>
        <time>2020-08-16 12:40:26</time>
      </trkpt>
      <trkpt lat="39.94353" lon="-4.53">
        <ele>528.4</ele>
        <time>2020-08-16 12:40:27</time>
      </trkpt>
      <trkpt lat="39.94354" lon="-4.53009">
        <ele>528.2</ele>
        <time>2020-08-16 12:40:28</time>
      </trkpt>
      <trkpt lat="39.94355" lon="-4.53018">
        <ele>528</ele>
        <time>2020-08-16 12:40:29</time>
      </trkpt>
      <trkpt lat="39.94355" lon="-4.53027">
        <ele>527.8</ele>
        <time>2020-08-16 12:40:30</time>
      </trkpt>
      <trkpt lat="39.94356" lon="-4.53036">
        <ele>527.8</ele>
        <time>2020-08-16 12:40:31</time>
      </trkpt>
      <trkpt lat="39.94356" lon="-4.53045">
        <ele>527.2</ele>
        <time>2020-08-16 12:40:32</time>
      </trkpt>
      <trkpt lat="39.94357" lon="-4.53053">
        <ele>527.2</ele>
        <time>2020-08-16 12:40:33</time>
      </trkpt>
      <trkpt lat="39.94357" lon="-4.53062">
        <ele>527</ele>
        <time>2020-08-16 12:40:34</time>
      </trkpt>
      <trkpt lat="39.94357" lon="-4.5307">
        <ele>527</ele>
        <time>2020-08-16 12:40:35</time>
      </trkpt>
      <trkpt lat="39.94358" lon="-4.53079">
        <ele>526.8</ele>
        <time>2020-08-16 12:40:36</time>
      </trkpt>
      <trkpt lat="39.94358" lon="-4.53087">
        <ele>526.8</ele>
        <time>2020-08-16 12:40:37</time>
      </trkpt>
      <trkpt lat="39.94359" lon="-4.53096">
        <ele>526.8</ele>
        <time>2020-08-16 12:40:38</time>
      </trkpt>
      <trkpt lat="39.9436" lon="-4.53104">
        <ele>526.8</ele>
        <time>2020-08-16 12:40:39</time>
      </trkpt>
      <trkpt lat="39.9436" lon="-4.53113">
        <ele>526.8</ele>
        <time>2020-08-16 12:40:40</time>
      </trkpt>
      <trkpt lat="39.94361" lon="-4.53121">
        <ele>526.8</ele>
        <time>2020-08-16 12:40:41</time>
      </trkpt>
      <trkpt lat="39.94361" lon="-4.53129">
        <ele>526.8</ele>
        <time>2020-08-16 12:40:42</time>
      </trkpt>
      <trkpt lat="39.94362" lon="-4.53136">
        <ele>526.8</ele>
        <time>2020-08-16 12:40:43</time>
      </trkpt>
      <trkpt lat="39.94363" lon="-4.53144">
        <ele>526.8</ele>
        <time>2020-08-16 12:40:44</time>
      </trkpt>
      <trkpt lat="39.94364" lon="-4.53152">
        <ele>526.8</ele>
        <time>2020-08-16 12:40:45</time>
      </trkpt>
      <trkpt lat="39.94364" lon="-4.5316">
        <ele>526.8</ele>
        <time>2020-08-16 12:40:46</time>
      </trkpt>
      <trkpt lat="39.94364" lon="-4.53167">
        <ele>527</ele>
        <time>2020-08-16 12:40:47</time>
      </trkpt>
      <trkpt lat="39.94365" lon="-4.53173">
        <ele>527.2</ele>
        <time>2020-08-16 12:40:48</time>
      </trkpt>
      <trkpt lat="39.94366" lon="-4.5318">
        <ele>527.2</ele>
        <time>2020-08-16 12:40:49</time>
      </trkpt>
      <trkpt lat="39.94366" lon="-4.53185">
        <ele>527.2</ele>
        <time>2020-08-16 12:40:50</time>
      </trkpt>
      <trkpt lat="39.94366" lon="-4.53191">
        <ele>527.4</ele>
        <time>2020-08-16 12:40:51</time>
      </trkpt>
      <trkpt lat="39.94366" lon="-4.53197">
        <ele>527.4</ele>
        <time>2020-08-16 12:40:52</time>
      </trkpt>
      <trkpt lat="39.94367" lon="-4.53203">
        <ele>527.6</ele>
        <time>2020-08-16 12:40:53</time>
      </trkpt>
      <trkpt lat="39.94367" lon="-4.53213">
        <ele>527.8</ele>
        <time>2020-08-16 12:40:55</time>
      </trkpt>
      <trkpt lat="39.94368" lon="-4.53219">
        <ele>528.4</ele>
        <time>2020-08-16 12:40:56</time>
      </trkpt>
      <trkpt lat="39.94368" lon="-4.53224">
        <ele>528.6</ele>
        <time>2020-08-16 12:40:57</time>
      </trkpt>
      <trkpt lat="39.94368" lon="-4.5323">
        <ele>528.8</ele>
        <time>2020-08-16 12:40:58</time>
      </trkpt>
      <trkpt lat="39.94369" lon="-4.53235">
        <ele>528.8</ele>
        <time>2020-08-16 12:40:59</time>
      </trkpt>
      <trkpt lat="39.94369" lon="-4.5324">
        <ele>528.8</ele>
        <time>2020-08-16 12:41:00</time>
      </trkpt>
      <trkpt lat="39.94368" lon="-4.53245">
        <ele>529</ele>
        <time>2020-08-16 12:41:01</time>
      </trkpt>
      <trkpt lat="39.94368" lon="-4.5325">
        <ele>529</ele>
        <time>2020-08-16 12:41:02</time>
      </trkpt>
      <trkpt lat="39.94368" lon="-4.53256">
        <ele>529.2</ele>
        <time>2020-08-16 12:41:03</time>
      </trkpt>
      <trkpt lat="39.94368" lon="-4.53261">
        <ele>529.2</ele>
        <time>2020-08-16 12:41:04</time>
      </trkpt>
      <trkpt lat="39.94367" lon="-4.53267">
        <ele>529.2</ele>
        <time>2020-08-16 12:41:05</time>
      </trkpt>
      <trkpt lat="39.94367" lon="-4.53272">
        <ele>529.6</ele>
        <time>2020-08-16 12:41:06</time>
      </trkpt>
      <trkpt lat="39.94367" lon="-4.53278">
        <ele>529.6</ele>
        <time>2020-08-16 12:41:07</time>
      </trkpt>
      <trkpt lat="39.94366" lon="-4.53284">
        <ele>529.8</ele>
        <time>2020-08-16 12:41:08</time>
      </trkpt>
      <trkpt lat="39.94366" lon="-4.53289">
        <ele>529.8</ele>
        <time>2020-08-16 12:41:09</time>
      </trkpt>
      <trkpt lat="39.94366" lon="-4.53295">
        <ele>530</ele>
        <time>2020-08-16 12:41:10</time>
      </trkpt>
      <trkpt lat="39.94366" lon="-4.533">
        <ele>530.2</ele>
        <time>2020-08-16 12:41:11</time>
      </trkpt>
      <trkpt lat="39.94366" lon="-4.53312">
        <ele>530.4</ele>
        <time>2020-08-16 12:41:13</time>
      </trkpt>
      <trkpt lat="39.94366" lon="-4.53317">
        <ele>530.4</ele>
        <time>2020-08-16 12:41:14</time>
      </trkpt>
      <trkpt lat="39.94366" lon="-4.53322">
        <ele>530.4</ele>
        <time>2020-08-16 12:41:15</time>
      </trkpt>
      <trkpt lat="39.94366" lon="-4.53327">
        <ele>530.8</ele>
        <time>2020-08-16 12:41:16</time>
      </trkpt>
      <trkpt lat="39.94367" lon="-4.53332">
        <ele>531</ele>
        <time>2020-08-16 12:41:17</time>
      </trkpt>
      <trkpt lat="39.94367" lon="-4.53337">
        <ele>531</ele>
        <time>2020-08-16 12:41:18</time>
      </trkpt>
      <trkpt lat="39.94367" lon="-4.53342">
        <ele>531</ele>
        <time>2020-08-16 12:41:19</time>
      </trkpt>
      <trkpt lat="39.94367" lon="-4.53347">
        <ele>531.2</ele>
        <time>2020-08-16 12:41:20</time>
      </trkpt>
      <trkpt lat="39.94368" lon="-4.53352">
        <ele>531.4</ele>
        <time>2020-08-16 12:41:21</time>
      </trkpt>
      <trkpt lat="39.94368" lon="-4.53358">
        <ele>531.4</ele>
        <time>2020-08-16 12:41:22</time>
      </trkpt>
      <trkpt lat="39.94368" lon="-4.53363">
        <ele>531.4</ele>
        <time>2020-08-16 12:41:23</time>
      </trkpt>
      <trkpt lat="39.94368" lon="-4.53369">
        <ele>531.4</ele>
        <time>2020-08-16 12:41:24</time>
      </trkpt>
      <trkpt lat="39.94368" lon="-4.53374">
        <ele>531.4</ele>
        <time>2020-08-16 12:41:25</time>
      </trkpt>
      <trkpt lat="39.94368" lon="-4.5338">
        <ele>531.2</ele>
        <time>2020-08-16 12:41:26</time>
      </trkpt>
      <trkpt lat="39.94367" lon="-4.53397">
        <ele>531.2</ele>
        <time>2020-08-16 12:41:29</time>
      </trkpt>
      <trkpt lat="39.94367" lon="-4.53416">
        <ele>531</ele>
        <time>2020-08-16 12:41:32</time>
      </trkpt>
      <trkpt lat="39.94366" lon="-4.53428">
        <ele>531</ele>
        <time>2020-08-16 12:41:34</time>
      </trkpt>
      <trkpt lat="39.94364" lon="-4.53447">
        <ele>530.8</ele>
        <time>2020-08-16 12:41:37</time>
      </trkpt>
      <trkpt lat="39.94363" lon="-4.53453">
        <ele>530.6</ele>
        <time>2020-08-16 12:41:38</time>
      </trkpt>
      <trkpt lat="39.94362" lon="-4.5346">
        <ele>530.6</ele>
        <time>2020-08-16 12:41:39</time>
      </trkpt>
      <trkpt lat="39.9436" lon="-4.53478">
        <ele>530.4</ele>
        <time>2020-08-16 12:41:42</time>
      </trkpt>
      <trkpt lat="39.9436" lon="-4.53483">
        <ele>530.4</ele>
        <time>2020-08-16 12:41:43</time>
      </trkpt>
      <trkpt lat="39.94359" lon="-4.53489">
        <ele>530.4</ele>
        <time>2020-08-16 12:41:44</time>
      </trkpt>
      <trkpt lat="39.94357" lon="-4.53495">
        <ele>530.4</ele>
        <time>2020-08-16 12:41:45</time>
      </trkpt>
      <trkpt lat="39.94356" lon="-4.535">
        <ele>530.4</ele>
        <time>2020-08-16 12:41:46</time>
      </trkpt>
      <trkpt lat="39.94354" lon="-4.53506">
        <ele>530.4</ele>
        <time>2020-08-16 12:41:47</time>
      </trkpt>
      <trkpt lat="39.94353" lon="-4.53512">
        <ele>530.2</ele>
        <time>2020-08-16 12:41:48</time>
      </trkpt>
      <trkpt lat="39.94352" lon="-4.53518">
        <ele>530.2</ele>
        <time>2020-08-16 12:41:49</time>
      </trkpt>
      <trkpt lat="39.94351" lon="-4.53524">
        <ele>530.2</ele>
        <time>2020-08-16 12:41:50</time>
      </trkpt>
      <trkpt lat="39.9435" lon="-4.5353">
        <ele>530.2</ele>
        <time>2020-08-16 12:41:51</time>
      </trkpt>
      <trkpt lat="39.94349" lon="-4.53543">
        <ele>530.2</ele>
        <time>2020-08-16 12:41:53</time>
      </trkpt>
      <trkpt lat="39.94349" lon="-4.53561">
        <ele>530.2</ele>
        <time>2020-08-16 12:41:56</time>
      </trkpt>
      <trkpt lat="39.94349" lon="-4.53567">
        <ele>530.4</ele>
        <time>2020-08-16 12:41:57</time>
      </trkpt>
      <trkpt lat="39.94349" lon="-4.53574">
        <ele>530.4</ele>
        <time>2020-08-16 12:41:58</time>
      </trkpt>
      <trkpt lat="39.94347" lon="-4.53586">
        <ele>530.4</ele>
        <time>2020-08-16 12:42:00</time>
      </trkpt>
      <trkpt lat="39.94346" lon="-4.53599">
        <ele>530.4</ele>
        <time>2020-08-16 12:42:02</time>
      </trkpt>
      <trkpt lat="39.94345" lon="-4.53605">
        <ele>530.2</ele>
        <time>2020-08-16 12:42:03</time>
      </trkpt>
      <trkpt lat="39.94344" lon="-4.53611">
        <ele>530.2</ele>
        <time>2020-08-16 12:42:04</time>
      </trkpt>
      <trkpt lat="39.94344" lon="-4.53617">
        <ele>530.2</ele>
        <time>2020-08-16 12:42:05</time>
      </trkpt>
      <trkpt lat="39.94343" lon="-4.53622">
        <ele>530</ele>
        <time>2020-08-16 12:42:06</time>
      </trkpt>
      <trkpt lat="39.94343" lon="-4.53628">
        <ele>530.2</ele>
        <time>2020-08-16 12:42:07</time>
      </trkpt>
      <trkpt lat="39.94342" lon="-4.53634">
        <ele>530.2</ele>
        <time>2020-08-16 12:42:08</time>
      </trkpt>
      <trkpt lat="39.94341" lon="-4.53639">
        <ele>530.2</ele>
        <time>2020-08-16 12:42:09</time>
      </trkpt>
      <trkpt lat="39.94341" lon="-4.53644">
        <ele>530.4</ele>
        <time>2020-08-16 12:42:10</time>
      </trkpt>
      <trkpt lat="39.9434" lon="-4.5365">
        <ele>530.4</ele>
        <time>2020-08-16 12:42:11</time>
      </trkpt>
      <trkpt lat="39.94339" lon="-4.53655">
        <ele>530.4</ele>
        <time>2020-08-16 12:42:12</time>
      </trkpt>
      <trkpt lat="39.94338" lon="-4.53661">
        <ele>530.6</ele>
        <time>2020-08-16 12:42:13</time>
      </trkpt>
      <trkpt lat="39.94338" lon="-4.53666">
        <ele>530.8</ele>
        <time>2020-08-16 12:42:14</time>
      </trkpt>
      <trkpt lat="39.94337" lon="-4.53672">
        <ele>531</ele>
        <time>2020-08-16 12:42:15</time>
      </trkpt>
      <trkpt lat="39.94337" lon="-4.53677">
        <ele>531.2</ele>
        <time>2020-08-16 12:42:16</time>
      </trkpt>
      <trkpt lat="39.94336" lon="-4.53683">
        <ele>531.2</ele>
        <time>2020-08-16 12:42:17</time>
      </trkpt>
      <trkpt lat="39.94335" lon="-4.53688">
        <ele>531.2</ele>
        <time>2020-08-16 12:42:18</time>
      </trkpt>
      <trkpt lat="39.94335" lon="-4.53693">
        <ele>531.2</ele>
        <time>2020-08-16 12:42:19</time>
      </trkpt>
      <trkpt lat="39.94334" lon="-4.53699">
        <ele>531.2</ele>
        <time>2020-08-16 12:42:20</time>
      </trkpt>
      <trkpt lat="39.94333" lon="-4.53705">
        <ele>531.2</ele>
        <time>2020-08-16 12:42:21</time>
      </trkpt>
      <trkpt lat="39.94333" lon="-4.5371">
        <ele>531.2</ele>
        <time>2020-08-16 12:42:22</time>
      </trkpt>
      <trkpt lat="39.94333" lon="-4.53716">
        <ele>531.4</ele>
        <time>2020-08-16 12:42:23</time>
      </trkpt>
      <trkpt lat="39.94333" lon="-4.53721">
        <ele>531.4</ele>
        <time>2020-08-16 12:42:24</time>
      </trkpt>
      <trkpt lat="39.94332" lon="-4.53726">
        <ele>531.4</ele>
        <time>2020-08-16 12:42:25</time>
      </trkpt>
      <trkpt lat="39.94332" lon="-4.53731">
        <ele>531.4</ele>
        <time>2020-08-16 12:42:26</time>
      </trkpt>
      <trkpt lat="39.94332" lon="-4.53736">
        <ele>531.6</ele>
        <time>2020-08-16 12:42:27</time>
      </trkpt>
      <trkpt lat="39.94332" lon="-4.53741">
        <ele>531.8</ele>
        <time>2020-08-16 12:42:28</time>
      </trkpt>
      <trkpt lat="39.94333" lon="-4.53746">
        <ele>532</ele>
        <time>2020-08-16 12:42:29</time>
      </trkpt>
      <trkpt lat="39.94333" lon="-4.53751">
        <ele>532.2</ele>
        <time>2020-08-16 12:42:30</time>
      </trkpt>
      <trkpt lat="39.94334" lon="-4.53756">
        <ele>532.4</ele>
        <time>2020-08-16 12:42:31</time>
      </trkpt>
      <trkpt lat="39.94334" lon="-4.5376">
        <ele>532.4</ele>
        <time>2020-08-16 12:42:32</time>
      </trkpt>
      <trkpt lat="39.94335" lon="-4.53765">
        <ele>532.4</ele>
        <time>2020-08-16 12:42:33</time>
      </trkpt>
      <trkpt lat="39.94335" lon="-4.5377">
        <ele>532.4</ele>
        <time>2020-08-16 12:42:34</time>
      </trkpt>
      <trkpt lat="39.94335" lon="-4.53775">
        <ele>532.6</ele>
        <time>2020-08-16 12:42:35</time>
      </trkpt>
      <trkpt lat="39.94335" lon="-4.53781">
        <ele>532.6</ele>
        <time>2020-08-16 12:42:36</time>
      </trkpt>
      <trkpt lat="39.94335" lon="-4.53787">
        <ele>532.6</ele>
        <time>2020-08-16 12:42:37</time>
      </trkpt>
      <trkpt lat="39.94335" lon="-4.53813">
        <ele>532.4</ele>
        <time>2020-08-16 12:42:41</time>
      </trkpt>
      <trkpt lat="39.94335" lon="-4.53827">
        <ele>532.2</ele>
        <time>2020-08-16 12:42:43</time>
      </trkpt>
      <trkpt lat="39.94335" lon="-4.53833">
        <ele>532.2</ele>
        <time>2020-08-16 12:42:44</time>
      </trkpt>
      <trkpt lat="39.94335" lon="-4.5384">
        <ele>532.2</ele>
        <time>2020-08-16 12:42:45</time>
      </trkpt>
      <trkpt lat="39.94335" lon="-4.53846">
        <ele>532.2</ele>
        <time>2020-08-16 12:42:46</time>
      </trkpt>
      <trkpt lat="39.94335" lon="-4.53852">
        <ele>532</ele>
        <time>2020-08-16 12:42:47</time>
      </trkpt>
      <trkpt lat="39.94336" lon="-4.53857">
        <ele>531.8</ele>
        <time>2020-08-16 12:42:48</time>
      </trkpt>
      <trkpt lat="39.94336" lon="-4.53863">
        <ele>531.8</ele>
        <time>2020-08-16 12:42:49</time>
      </trkpt>
      <trkpt lat="39.94337" lon="-4.53869">
        <ele>531.8</ele>
        <time>2020-08-16 12:42:50</time>
      </trkpt>
      <trkpt lat="39.94337" lon="-4.53874">
        <ele>531.6</ele>
        <time>2020-08-16 12:42:51</time>
      </trkpt>
      <trkpt lat="39.94337" lon="-4.53879">
        <ele>531.6</ele>
        <time>2020-08-16 12:42:52</time>
      </trkpt>
      <trkpt lat="39.94336" lon="-4.53884">
        <ele>531.6</ele>
        <time>2020-08-16 12:42:53</time>
      </trkpt>
      <trkpt lat="39.94336" lon="-4.53888">
        <ele>531.6</ele>
        <time>2020-08-16 12:42:54</time>
      </trkpt>
      <trkpt lat="39.94336" lon="-4.53892">
        <ele>531.6</ele>
        <time>2020-08-16 12:42:55</time>
      </trkpt>
      <trkpt lat="39.94335" lon="-4.53902">
        <ele>531.6</ele>
        <time>2020-08-16 12:42:57</time>
      </trkpt>
      <trkpt lat="39.94334" lon="-4.53907">
        <ele>531.6</ele>
        <time>2020-08-16 12:42:58</time>
      </trkpt>
      <trkpt lat="39.94333" lon="-4.53911">
        <ele>531.6</ele>
        <time>2020-08-16 12:42:59</time>
      </trkpt>
      <trkpt lat="39.94332" lon="-4.53916">
        <ele>531.6</ele>
        <time>2020-08-16 12:43:00</time>
      </trkpt>
      <trkpt lat="39.94332" lon="-4.5392">
        <ele>531.6</ele>
        <time>2020-08-16 12:43:01</time>
      </trkpt>
      <trkpt lat="39.94331" lon="-4.53925">
        <ele>531.6</ele>
        <time>2020-08-16 12:43:02</time>
      </trkpt>
      <trkpt lat="39.94332" lon="-4.53929">
        <ele>531.6</ele>
        <time>2020-08-16 12:43:03</time>
      </trkpt>
      <trkpt lat="39.94332" lon="-4.53933">
        <ele>531.6</ele>
        <time>2020-08-16 12:43:04</time>
      </trkpt>
      <trkpt lat="39.94332" lon="-4.53937">
        <ele>531.6</ele>
        <time>2020-08-16 12:43:05</time>
      </trkpt>
      <trkpt lat="39.94332" lon="-4.53942">
        <ele>531.6</ele>
        <time>2020-08-16 12:43:06</time>
      </trkpt>
      <trkpt lat="39.94332" lon="-4.53946">
        <ele>531.6</ele>
        <time>2020-08-16 12:43:07</time>
      </trkpt>
      <trkpt lat="39.94333" lon="-4.5395">
        <ele>531.6</ele>
        <time>2020-08-16 12:43:08</time>
      </trkpt>
      <trkpt lat="39.94333" lon="-4.53954">
        <ele>531.6</ele>
        <time>2020-08-16 12:43:09</time>
      </trkpt>
      <trkpt lat="39.94333" lon="-4.53958">
        <ele>531.6</ele>
        <time>2020-08-16 12:43:10</time>
      </trkpt>
      <trkpt lat="39.94334" lon="-4.53963">
        <ele>531.6</ele>
        <time>2020-08-16 12:43:11</time>
      </trkpt>
      <trkpt lat="39.94334" lon="-4.53967">
        <ele>531.6</ele>
        <time>2020-08-16 12:43:12</time>
      </trkpt>
      <trkpt lat="39.94334" lon="-4.53971">
        <ele>531.6</ele>
        <time>2020-08-16 12:43:13</time>
      </trkpt>
      <trkpt lat="39.94334" lon="-4.53975">
        <ele>531.6</ele>
        <time>2020-08-16 12:43:14</time>
      </trkpt>
      <trkpt lat="39.94334" lon="-4.53978">
        <ele>531.6</ele>
        <time>2020-08-16 12:43:15</time>
      </trkpt>
      <trkpt lat="39.94334" lon="-4.5398">
        <ele>531.6</ele>
        <time>2020-08-16 12:43:16</time>
      </trkpt>
      <trkpt lat="39.94334" lon="-4.53981">
        <ele>531.6</ele>
        <time>2020-08-16 12:43:17</time>
      </trkpt>
      <trkpt lat="39.94334" lon="-4.53982">
        <ele>531.6</ele>
        <time>2020-08-16 12:43:18</time>
      </trkpt>
      <trkpt lat="39.94334" lon="-4.53982">
        <ele>531.6</ele>
        <time>2020-08-16 12:43:20</time>
      </trkpt>
      <trkpt lat="39.94335" lon="-4.53987">
        <ele>531.6</ele>
        <time>2020-08-16 12:45:52</time>
      </trkpt>
      <trkpt lat="39.94335" lon="-4.5399">
        <ele>531.6</ele>
        <time>2020-08-16 12:45:53</time>
      </trkpt>
      <trkpt lat="39.94335" lon="-4.53993">
        <ele>531.4</ele>
        <time>2020-08-16 12:45:54</time>
      </trkpt>
      <trkpt lat="39.94335" lon="-4.54001">
        <ele>531.4</ele>
        <time>2020-08-16 12:45:56</time>
      </trkpt>
      <trkpt lat="39.94333" lon="-4.54021">
        <ele>531.4</ele>
        <time>2020-08-16 12:46:00</time>
      </trkpt>
      <trkpt lat="39.94332" lon="-4.54044">
        <ele>530.8</ele>
        <time>2020-08-16 12:46:04</time>
      </trkpt>
      <trkpt lat="39.94331" lon="-4.54056">
        <ele>530.6</ele>
        <time>2020-08-16 12:46:06</time>
      </trkpt>
      <trkpt lat="39.94331" lon="-4.54063">
        <ele>530.6</ele>
        <time>2020-08-16 12:46:07</time>
      </trkpt>
      <trkpt lat="39.94329" lon="-4.54109">
        <ele>530.2</ele>
        <time>2020-08-16 12:46:14</time>
      </trkpt>
      <trkpt lat="39.94329" lon="-4.54132">
        <ele>529.8</ele>
        <time>2020-08-16 12:46:17</time>
      </trkpt>
      <trkpt lat="39.94328" lon="-4.54164">
        <ele>528.8</ele>
        <time>2020-08-16 12:46:21</time>
      </trkpt>
      <trkpt lat="39.94328" lon="-4.54172">
        <ele>528.6</ele>
        <time>2020-08-16 12:46:22</time>
      </trkpt>
      <trkpt lat="39.94327" lon="-4.54179">
        <ele>528.2</ele>
        <time>2020-08-16 12:46:23</time>
      </trkpt>
      <trkpt lat="39.94327" lon="-4.54187">
        <ele>527.2</ele>
        <time>2020-08-16 12:46:24</time>
      </trkpt>
      <trkpt lat="39.94325" lon="-4.54219">
        <ele>526</ele>
        <time>2020-08-16 12:46:28</time>
      </trkpt>
      <trkpt lat="39.94324" lon="-4.54226">
        <ele>525.8</ele>
        <time>2020-08-16 12:46:29</time>
      </trkpt>
      <trkpt lat="39.94317" lon="-4.54282">
        <ele>525.4</ele>
        <time>2020-08-16 12:46:36</time>
      </trkpt>
      <trkpt lat="39.94312" lon="-4.54314">
        <ele>525.2</ele>
        <time>2020-08-16 12:46:40</time>
      </trkpt>
      <trkpt lat="39.9431" lon="-4.54322">
        <ele>524.8</ele>
        <time>2020-08-16 12:46:41</time>
      </trkpt>
      <trkpt lat="39.94308" lon="-4.54331">
        <ele>524.4</ele>
        <time>2020-08-16 12:46:42</time>
      </trkpt>
      <trkpt lat="39.94305" lon="-4.5434">
        <ele>523.6</ele>
        <time>2020-08-16 12:46:43</time>
      </trkpt>
      <trkpt lat="39.94294" lon="-4.54369">
        <ele>522.4</ele>
        <time>2020-08-16 12:46:46</time>
      </trkpt>
      <trkpt lat="39.9429" lon="-4.54379">
        <ele>522</ele>
        <time>2020-08-16 12:46:47</time>
      </trkpt>
      <trkpt lat="39.94287" lon="-4.54389">
        <ele>521.4</ele>
        <time>2020-08-16 12:46:48</time>
      </trkpt>
      <trkpt lat="39.94284" lon="-4.54399">
        <ele>521</ele>
        <time>2020-08-16 12:46:49</time>
      </trkpt>
      <trkpt lat="39.94281" lon="-4.54409">
        <ele>520.2</ele>
        <time>2020-08-16 12:46:50</time>
      </trkpt>
      <trkpt lat="39.94273" lon="-4.54429">
        <ele>519.6</ele>
        <time>2020-08-16 12:46:52</time>
      </trkpt>
      <trkpt lat="39.94268" lon="-4.5444">
        <ele>519</ele>
        <time>2020-08-16 12:46:53</time>
      </trkpt>
      <trkpt lat="39.94264" lon="-4.5445">
        <ele>518.6</ele>
        <time>2020-08-16 12:46:54</time>
      </trkpt>
      <trkpt lat="39.94261" lon="-4.5446">
        <ele>518</ele>
        <time>2020-08-16 12:46:55</time>
      </trkpt>
      <trkpt lat="39.94258" lon="-4.54472">
        <ele>517.6</ele>
        <time>2020-08-16 12:46:56</time>
      </trkpt>
      <trkpt lat="39.94257" lon="-4.54483">
        <ele>517</ele>
        <time>2020-08-16 12:46:57</time>
      </trkpt>
      <trkpt lat="39.94256" lon="-4.54495">
        <ele>516.6</ele>
        <time>2020-08-16 12:46:58</time>
      </trkpt>
      <trkpt lat="39.94253" lon="-4.54527">
        <ele>515.8</ele>
        <time>2020-08-16 12:47:01</time>
      </trkpt>
      <trkpt lat="39.94252" lon="-4.54537">
        <ele>515.4</ele>
        <time>2020-08-16 12:47:02</time>
      </trkpt>
      <trkpt lat="39.94251" lon="-4.54546">
        <ele>515.4</ele>
        <time>2020-08-16 12:47:03</time>
      </trkpt>
      <trkpt lat="39.94251" lon="-4.54556">
        <ele>515</ele>
        <time>2020-08-16 12:47:04</time>
      </trkpt>
      <trkpt lat="39.9425" lon="-4.54565">
        <ele>514.6</ele>
        <time>2020-08-16 12:47:05</time>
      </trkpt>
      <trkpt lat="39.9425" lon="-4.54574">
        <ele>514.6</ele>
        <time>2020-08-16 12:47:06</time>
      </trkpt>
      <trkpt lat="39.9425" lon="-4.54583">
        <ele>514</ele>
        <time>2020-08-16 12:47:07</time>
      </trkpt>
      <trkpt lat="39.9425" lon="-4.54592">
        <ele>513.2</ele>
        <time>2020-08-16 12:47:08</time>
      </trkpt>
      <trkpt lat="39.9425" lon="-4.54601">
        <ele>513</ele>
        <time>2020-08-16 12:47:09</time>
      </trkpt>
      <trkpt lat="39.9425" lon="-4.54609">
        <ele>512.4</ele>
        <time>2020-08-16 12:47:10</time>
      </trkpt>
      <trkpt lat="39.9425" lon="-4.54618">
        <ele>512.2</ele>
        <time>2020-08-16 12:47:11</time>
      </trkpt>
      <trkpt lat="39.9425" lon="-4.54626">
        <ele>511.6</ele>
        <time>2020-08-16 12:47:12</time>
      </trkpt>
      <trkpt lat="39.9425" lon="-4.54635">
        <ele>511.2</ele>
        <time>2020-08-16 12:47:13</time>
      </trkpt>
      <trkpt lat="39.94249" lon="-4.54644">
        <ele>510.8</ele>
        <time>2020-08-16 12:47:14</time>
      </trkpt>
      <trkpt lat="39.94249" lon="-4.54652">
        <ele>510.6</ele>
        <time>2020-08-16 12:47:15</time>
      </trkpt>
      <trkpt lat="39.94249" lon="-4.54661">
        <ele>510.6</ele>
        <time>2020-08-16 12:47:16</time>
      </trkpt>
      <trkpt lat="39.94248" lon="-4.5467">
        <ele>510</ele>
        <time>2020-08-16 12:47:17</time>
      </trkpt>
      <trkpt lat="39.94248" lon="-4.54679">
        <ele>509.8</ele>
        <time>2020-08-16 12:47:18</time>
      </trkpt>
      <trkpt lat="39.94247" lon="-4.54688">
        <ele>509.2</ele>
        <time>2020-08-16 12:47:19</time>
      </trkpt>
      <trkpt lat="39.94247" lon="-4.54697">
        <ele>508.6</ele>
        <time>2020-08-16 12:47:20</time>
      </trkpt>
      <trkpt lat="39.94244" lon="-4.54745">
        <ele>507.4</ele>
        <time>2020-08-16 12:47:25</time>
      </trkpt>
      <trkpt lat="39.94243" lon="-4.54755">
        <ele>507.2</ele>
        <time>2020-08-16 12:47:26</time>
      </trkpt>
      <trkpt lat="39.94241" lon="-4.54786">
        <ele>506.4</ele>
        <time>2020-08-16 12:47:29</time>
      </trkpt>
      <trkpt lat="39.94241" lon="-4.54797">
        <ele>506</ele>
        <time>2020-08-16 12:47:30</time>
      </trkpt>
      <trkpt lat="39.9424" lon="-4.54817">
        <ele>505.2</ele>
        <time>2020-08-16 12:47:32</time>
      </trkpt>
      <trkpt lat="39.94239" lon="-4.54828">
        <ele>505.2</ele>
        <time>2020-08-16 12:47:33</time>
      </trkpt>
      <trkpt lat="39.94239" lon="-4.54849">
        <ele>504.2</ele>
        <time>2020-08-16 12:47:35</time>
      </trkpt>
      <trkpt lat="39.94238" lon="-4.54879">
        <ele>503.2</ele>
        <time>2020-08-16 12:47:38</time>
      </trkpt>
      <trkpt lat="39.94238" lon="-4.54889">
        <ele>502.8</ele>
        <time>2020-08-16 12:47:39</time>
      </trkpt>
      <trkpt lat="39.94238" lon="-4.549">
        <ele>502.6</ele>
        <time>2020-08-16 12:47:40</time>
      </trkpt>
      <trkpt lat="39.94238" lon="-4.5491">
        <ele>502.2</ele>
        <time>2020-08-16 12:47:41</time>
      </trkpt>
      <trkpt lat="39.94238" lon="-4.5492">
        <ele>502</ele>
        <time>2020-08-16 12:47:42</time>
      </trkpt>
      <trkpt lat="39.94238" lon="-4.5493">
        <ele>501.6</ele>
        <time>2020-08-16 12:47:43</time>
      </trkpt>
      <trkpt lat="39.94237" lon="-4.5494">
        <ele>501.2</ele>
        <time>2020-08-16 12:47:44</time>
      </trkpt>
      <trkpt lat="39.94237" lon="-4.5495">
        <ele>500.8</ele>
        <time>2020-08-16 12:47:45</time>
      </trkpt>
      <trkpt lat="39.94237" lon="-4.5496">
        <ele>500.4</ele>
        <time>2020-08-16 12:47:46</time>
      </trkpt>
      <trkpt lat="39.94237" lon="-4.5497">
        <ele>500.2</ele>
        <time>2020-08-16 12:47:47</time>
      </trkpt>
      <trkpt lat="39.94237" lon="-4.54979">
        <ele>499.8</ele>
        <time>2020-08-16 12:47:48</time>
      </trkpt>
      <trkpt lat="39.94237" lon="-4.54989">
        <ele>499.2</ele>
        <time>2020-08-16 12:47:49</time>
      </trkpt>
      <trkpt lat="39.94238" lon="-4.54998">
        <ele>499</ele>
        <time>2020-08-16 12:47:50</time>
      </trkpt>
      <trkpt lat="39.94238" lon="-4.55008">
        <ele>498.8</ele>
        <time>2020-08-16 12:47:51</time>
      </trkpt>
      <trkpt lat="39.94239" lon="-4.55017">
        <ele>498.8</ele>
        <time>2020-08-16 12:47:52</time>
      </trkpt>
      <trkpt lat="39.94239" lon="-4.55026">
        <ele>498.6</ele>
        <time>2020-08-16 12:47:53</time>
      </trkpt>
      <trkpt lat="39.94238" lon="-4.55035">
        <ele>498.2</ele>
        <time>2020-08-16 12:47:54</time>
      </trkpt>
      <trkpt lat="39.94238" lon="-4.55044">
        <ele>498.2</ele>
        <time>2020-08-16 12:47:55</time>
      </trkpt>
      <trkpt lat="39.94237" lon="-4.55053">
        <ele>497.8</ele>
        <time>2020-08-16 12:47:56</time>
      </trkpt>
      <trkpt lat="39.94236" lon="-4.55061">
        <ele>497.6</ele>
        <time>2020-08-16 12:47:57</time>
      </trkpt>
      <trkpt lat="39.94235" lon="-4.55069">
        <ele>497.4</ele>
        <time>2020-08-16 12:47:58</time>
      </trkpt>
      <trkpt lat="39.94235" lon="-4.55077">
        <ele>497</ele>
        <time>2020-08-16 12:47:59</time>
      </trkpt>
      <trkpt lat="39.94234" lon="-4.55085">
        <ele>496.8</ele>
        <time>2020-08-16 12:48:00</time>
      </trkpt>
      <trkpt lat="39.94233" lon="-4.55092">
        <ele>496.6</ele>
        <time>2020-08-16 12:48:01</time>
      </trkpt>
      <trkpt lat="39.94232" lon="-4.55099">
        <ele>496.6</ele>
        <time>2020-08-16 12:48:02</time>
      </trkpt>
      <trkpt lat="39.94229" lon="-4.55112">
        <ele>495.6</ele>
        <time>2020-08-16 12:48:04</time>
      </trkpt>
      <trkpt lat="39.94228" lon="-4.55119">
        <ele>495.6</ele>
        <time>2020-08-16 12:48:05</time>
      </trkpt>
      <trkpt lat="39.94227" lon="-4.55126">
        <ele>495.2</ele>
        <time>2020-08-16 12:48:06</time>
      </trkpt>
      <trkpt lat="39.94226" lon="-4.55132">
        <ele>495.2</ele>
        <time>2020-08-16 12:48:07</time>
      </trkpt>
      <trkpt lat="39.94226" lon="-4.55138">
        <ele>495</ele>
        <time>2020-08-16 12:48:08</time>
      </trkpt>
      <trkpt lat="39.94225" lon="-4.55144">
        <ele>495</ele>
        <time>2020-08-16 12:48:09</time>
      </trkpt>
      <trkpt lat="39.94224" lon="-4.5517">
        <ele>494.6</ele>
        <time>2020-08-16 12:48:13</time>
      </trkpt>
      <trkpt lat="39.94224" lon="-4.55191">
        <ele>494.2</ele>
        <time>2020-08-16 12:48:16</time>
      </trkpt>
      <trkpt lat="39.94225" lon="-4.55198">
        <ele>494</ele>
        <time>2020-08-16 12:48:17</time>
      </trkpt>
      <trkpt lat="39.94227" lon="-4.55204">
        <ele>493.6</ele>
        <time>2020-08-16 12:48:18</time>
      </trkpt>
      <trkpt lat="39.94232" lon="-4.55226">
        <ele>492.4</ele>
        <time>2020-08-16 12:48:21</time>
      </trkpt>
      <trkpt lat="39.94235" lon="-4.55234">
        <ele>492.2</ele>
        <time>2020-08-16 12:48:22</time>
      </trkpt>
      <trkpt lat="39.94242" lon="-4.55258">
        <ele>491.6</ele>
        <time>2020-08-16 12:48:25</time>
      </trkpt>
      <trkpt lat="39.94244" lon="-4.55266">
        <ele>491.4</ele>
        <time>2020-08-16 12:48:26</time>
      </trkpt>
      <trkpt lat="39.94245" lon="-4.55275">
        <ele>490.8</ele>
        <time>2020-08-16 12:48:27</time>
      </trkpt>
      <trkpt lat="39.94247" lon="-4.55284">
        <ele>490</ele>
        <time>2020-08-16 12:48:28</time>
      </trkpt>
      <trkpt lat="39.94247" lon="-4.55313">
        <ele>488.8</ele>
        <time>2020-08-16 12:48:31</time>
      </trkpt>
      <trkpt lat="39.94246" lon="-4.55341">
        <ele>487.6</ele>
        <time>2020-08-16 12:48:34</time>
      </trkpt>
      <trkpt lat="39.94246" lon="-4.5537">
        <ele>486.4</ele>
        <time>2020-08-16 12:48:37</time>
      </trkpt>
      <trkpt lat="39.94247" lon="-4.55401">
        <ele>484.4</ele>
        <time>2020-08-16 12:48:40</time>
      </trkpt>
      <trkpt lat="39.94248" lon="-4.55412">
        <ele>484</ele>
        <time>2020-08-16 12:48:41</time>
      </trkpt>
      <trkpt lat="39.94249" lon="-4.55423">
        <ele>482.8</ele>
        <time>2020-08-16 12:48:42</time>
      </trkpt>
      <trkpt lat="39.9425" lon="-4.55445">
        <ele>481.2</ele>
        <time>2020-08-16 12:48:44</time>
      </trkpt>
      <trkpt lat="39.94251" lon="-4.55457">
        <ele>480.2</ele>
        <time>2020-08-16 12:48:45</time>
      </trkpt>
      <trkpt lat="39.94253" lon="-4.55469">
        <ele>479.6</ele>
        <time>2020-08-16 12:48:46</time>
      </trkpt>
      <trkpt lat="39.94256" lon="-4.55492">
        <ele>478.4</ele>
        <time>2020-08-16 12:48:48</time>
      </trkpt>
      <trkpt lat="39.94259" lon="-4.55503">
        <ele>477.8</ele>
        <time>2020-08-16 12:48:49</time>
      </trkpt>
      <trkpt lat="39.94262" lon="-4.55514">
        <ele>477.2</ele>
        <time>2020-08-16 12:48:50</time>
      </trkpt>
      <trkpt lat="39.94266" lon="-4.55523">
        <ele>476.8</ele>
        <time>2020-08-16 12:48:51</time>
      </trkpt>
      <trkpt lat="39.9427" lon="-4.55532">
        <ele>476</ele>
        <time>2020-08-16 12:48:52</time>
      </trkpt>
      <trkpt lat="39.94274" lon="-4.5554">
        <ele>475.8</ele>
        <time>2020-08-16 12:48:53</time>
      </trkpt>
      <trkpt lat="39.94278" lon="-4.55547">
        <ele>475.4</ele>
        <time>2020-08-16 12:48:54</time>
      </trkpt>
      <trkpt lat="39.94283" lon="-4.55554">
        <ele>474.8</ele>
        <time>2020-08-16 12:48:55</time>
      </trkpt>
      <trkpt lat="39.94289" lon="-4.55561">
        <ele>474</ele>
        <time>2020-08-16 12:48:56</time>
      </trkpt>
      <trkpt lat="39.94294" lon="-4.55567">
        <ele>473.2</ele>
        <time>2020-08-16 12:48:57</time>
      </trkpt>
      <trkpt lat="39.94305" lon="-4.55578">
        <ele>471.8</ele>
        <time>2020-08-16 12:48:59</time>
      </trkpt>
      <trkpt lat="39.94311" lon="-4.55584">
        <ele>471.2</ele>
        <time>2020-08-16 12:49:00</time>
      </trkpt>
      <trkpt lat="39.94316" lon="-4.5559">
        <ele>470.6</ele>
        <time>2020-08-16 12:49:01</time>
      </trkpt>
      <trkpt lat="39.94321" lon="-4.55596">
        <ele>470.2</ele>
        <time>2020-08-16 12:49:02</time>
      </trkpt>
      <trkpt lat="39.94325" lon="-4.55603">
        <ele>470</ele>
        <time>2020-08-16 12:49:03</time>
      </trkpt>
      <trkpt lat="39.94329" lon="-4.55611">
        <ele>469.8</ele>
        <time>2020-08-16 12:49:04</time>
      </trkpt>
      <trkpt lat="39.94331" lon="-4.55619">
        <ele>469.6</ele>
        <time>2020-08-16 12:49:05</time>
      </trkpt>
      <trkpt lat="39.94333" lon="-4.55627">
        <ele>469.4</ele>
        <time>2020-08-16 12:49:06</time>
      </trkpt>
      <trkpt lat="39.94335" lon="-4.55635">
        <ele>469.4</ele>
        <time>2020-08-16 12:49:07</time>
      </trkpt>
      <trkpt lat="39.94335" lon="-4.55643">
        <ele>469.2</ele>
        <time>2020-08-16 12:49:08</time>
      </trkpt>
      <trkpt lat="39.94335" lon="-4.55651">
        <ele>468.6</ele>
        <time>2020-08-16 12:49:09</time>
      </trkpt>
      <trkpt lat="39.94335" lon="-4.55659">
        <ele>468.4</ele>
        <time>2020-08-16 12:49:10</time>
      </trkpt>
      <trkpt lat="39.94335" lon="-4.55667">
        <ele>468</ele>
        <time>2020-08-16 12:49:11</time>
      </trkpt>
      <trkpt lat="39.94334" lon="-4.55675">
        <ele>467.8</ele>
        <time>2020-08-16 12:49:12</time>
      </trkpt>
      <trkpt lat="39.94334" lon="-4.55682">
        <ele>467.8</ele>
        <time>2020-08-16 12:49:13</time>
      </trkpt>
      <trkpt lat="39.94334" lon="-4.55689">
        <ele>467.6</ele>
        <time>2020-08-16 12:49:14</time>
      </trkpt>
      <trkpt lat="39.94334" lon="-4.55696">
        <ele>467.4</ele>
        <time>2020-08-16 12:49:15</time>
      </trkpt>
      <trkpt lat="39.94334" lon="-4.55703">
        <ele>467.2</ele>
        <time>2020-08-16 12:49:16</time>
      </trkpt>
      <trkpt lat="39.94334" lon="-4.5571">
        <ele>467.2</ele>
        <time>2020-08-16 12:49:17</time>
      </trkpt>
      <trkpt lat="39.94334" lon="-4.55718">
        <ele>467</ele>
        <time>2020-08-16 12:49:18</time>
      </trkpt>
      <trkpt lat="39.94334" lon="-4.55725">
        <ele>466.8</ele>
        <time>2020-08-16 12:49:19</time>
      </trkpt>
      <trkpt lat="39.94334" lon="-4.55732">
        <ele>466.8</ele>
        <time>2020-08-16 12:49:20</time>
      </trkpt>
      <trkpt lat="39.94334" lon="-4.55739">
        <ele>466.6</ele>
        <time>2020-08-16 12:49:21</time>
      </trkpt>
      <trkpt lat="39.94334" lon="-4.55746">
        <ele>466.6</ele>
        <time>2020-08-16 12:49:22</time>
      </trkpt>
      <trkpt lat="39.94334" lon="-4.55753">
        <ele>466.6</ele>
        <time>2020-08-16 12:49:23</time>
      </trkpt>
      <trkpt lat="39.94334" lon="-4.5576">
        <ele>466.4</ele>
        <time>2020-08-16 12:49:24</time>
      </trkpt>
      <trkpt lat="39.94333" lon="-4.55767">
        <ele>466.2</ele>
        <time>2020-08-16 12:49:25</time>
      </trkpt>
      <trkpt lat="39.94333" lon="-4.55774">
        <ele>466.2</ele>
        <time>2020-08-16 12:49:26</time>
      </trkpt>
      <trkpt lat="39.94332" lon="-4.55781">
        <ele>466.2</ele>
        <time>2020-08-16 12:49:27</time>
      </trkpt>
      <trkpt lat="39.94332" lon="-4.55788">
        <ele>466</ele>
        <time>2020-08-16 12:49:28</time>
      </trkpt>
      <trkpt lat="39.94333" lon="-4.55796">
        <ele>466</ele>
        <time>2020-08-16 12:49:29</time>
      </trkpt>
      <trkpt lat="39.94333" lon="-4.55803">
        <ele>465.6</ele>
        <time>2020-08-16 12:49:30</time>
      </trkpt>
      <trkpt lat="39.94333" lon="-4.5581">
        <ele>465.2</ele>
        <time>2020-08-16 12:49:31</time>
      </trkpt>
      <trkpt lat="39.94333" lon="-4.55817">
        <ele>465</ele>
        <time>2020-08-16 12:49:32</time>
      </trkpt>
      <trkpt lat="39.94333" lon="-4.55825">
        <ele>464.8</ele>
        <time>2020-08-16 12:49:33</time>
      </trkpt>
      <trkpt lat="39.94333" lon="-4.55848">
        <ele>463.8</ele>
        <time>2020-08-16 12:49:36</time>
      </trkpt>
      <trkpt lat="39.94334" lon="-4.55864">
        <ele>463</ele>
        <time>2020-08-16 12:49:38</time>
      </trkpt>
      <trkpt lat="39.94334" lon="-4.55872">
        <ele>462.8</ele>
        <time>2020-08-16 12:49:39</time>
      </trkpt>
      <trkpt lat="39.94334" lon="-4.5588">
        <ele>462.4</ele>
        <time>2020-08-16 12:49:40</time>
      </trkpt>
      <trkpt lat="39.94337" lon="-4.55912">
        <ele>461.6</ele>
        <time>2020-08-16 12:49:44</time>
      </trkpt>
      <trkpt lat="39.94337" lon="-4.5592">
        <ele>461.4</ele>
        <time>2020-08-16 12:49:45</time>
      </trkpt>
      <trkpt lat="39.94343" lon="-4.55951">
        <ele>461</ele>
        <time>2020-08-16 12:49:49</time>
      </trkpt>
      <trkpt lat="39.94344" lon="-4.55958">
        <ele>460.8</ele>
        <time>2020-08-16 12:49:50</time>
      </trkpt>
      <trkpt lat="39.94346" lon="-4.55966">
        <ele>460.8</ele>
        <time>2020-08-16 12:49:51</time>
      </trkpt>
      <trkpt lat="39.94347" lon="-4.55973">
        <ele>460.6</ele>
        <time>2020-08-16 12:49:52</time>
      </trkpt>
      <trkpt lat="39.94349" lon="-4.5598">
        <ele>460.4</ele>
        <time>2020-08-16 12:49:53</time>
      </trkpt>
      <trkpt lat="39.94351" lon="-4.55987">
        <ele>460.2</ele>
        <time>2020-08-16 12:49:54</time>
      </trkpt>
      <trkpt lat="39.94353" lon="-4.55994">
        <ele>460.2</ele>
        <time>2020-08-16 12:49:55</time>
      </trkpt>
      <trkpt lat="39.94355" lon="-4.56">
        <ele>460</ele>
        <time>2020-08-16 12:49:56</time>
      </trkpt>
      <trkpt lat="39.94357" lon="-4.56007">
        <ele>459.8</ele>
        <time>2020-08-16 12:49:57</time>
      </trkpt>
      <trkpt lat="39.9436" lon="-4.56013">
        <ele>459.6</ele>
        <time>2020-08-16 12:49:58</time>
      </trkpt>
      <trkpt lat="39.94362" lon="-4.56019">
        <ele>459.4</ele>
        <time>2020-08-16 12:49:59</time>
      </trkpt>
      <trkpt lat="39.94363" lon="-4.56024">
        <ele>459.2</ele>
        <time>2020-08-16 12:50:00</time>
      </trkpt>
      <trkpt lat="39.94365" lon="-4.5603">
        <ele>459.2</ele>
        <time>2020-08-16 12:50:01</time>
      </trkpt>
      <trkpt lat="39.94367" lon="-4.56035">
        <ele>459</ele>
        <time>2020-08-16 12:50:02</time>
      </trkpt>
      <trkpt lat="39.94368" lon="-4.56041">
        <ele>459</ele>
        <time>2020-08-16 12:50:03</time>
      </trkpt>
      <trkpt lat="39.9437" lon="-4.56047">
        <ele>459</ele>
        <time>2020-08-16 12:50:04</time>
      </trkpt>
      <trkpt lat="39.94372" lon="-4.56052">
        <ele>458.8</ele>
        <time>2020-08-16 12:50:05</time>
      </trkpt>
      <trkpt lat="39.94374" lon="-4.56058">
        <ele>458.8</ele>
        <time>2020-08-16 12:50:06</time>
      </trkpt>
      <trkpt lat="39.94375" lon="-4.56063">
        <ele>458.6</ele>
        <time>2020-08-16 12:50:07</time>
      </trkpt>
      <trkpt lat="39.94377" lon="-4.56069">
        <ele>458.6</ele>
        <time>2020-08-16 12:50:08</time>
      </trkpt>
      <trkpt lat="39.94378" lon="-4.56074">
        <ele>458.4</ele>
        <time>2020-08-16 12:50:09</time>
      </trkpt>
      <trkpt lat="39.9438" lon="-4.56079">
        <ele>458.4</ele>
        <time>2020-08-16 12:50:10</time>
      </trkpt>
      <trkpt lat="39.94381" lon="-4.56085">
        <ele>458.4</ele>
        <time>2020-08-16 12:50:11</time>
      </trkpt>
      <trkpt lat="39.94383" lon="-4.5609">
        <ele>458.2</ele>
        <time>2020-08-16 12:50:12</time>
      </trkpt>
      <trkpt lat="39.94384" lon="-4.56096">
        <ele>458.2</ele>
        <time>2020-08-16 12:50:13</time>
      </trkpt>
      <trkpt lat="39.94385" lon="-4.56101">
        <ele>458.2</ele>
        <time>2020-08-16 12:50:14</time>
      </trkpt>
      <trkpt lat="39.94387" lon="-4.56107">
        <ele>458.2</ele>
        <time>2020-08-16 12:50:15</time>
      </trkpt>
      <trkpt lat="39.94388" lon="-4.56113">
        <ele>458.2</ele>
        <time>2020-08-16 12:50:16</time>
      </trkpt>
      <trkpt lat="39.9439" lon="-4.56119">
        <ele>458</ele>
        <time>2020-08-16 12:50:17</time>
      </trkpt>
      <trkpt lat="39.94394" lon="-4.56137">
        <ele>458</ele>
        <time>2020-08-16 12:50:20</time>
      </trkpt>
      <trkpt lat="39.94397" lon="-4.56149">
        <ele>458.2</ele>
        <time>2020-08-16 12:50:22</time>
      </trkpt>
      <trkpt lat="39.94399" lon="-4.56156">
        <ele>458</ele>
        <time>2020-08-16 12:50:23</time>
      </trkpt>
      <trkpt lat="39.94405" lon="-4.56181">
        <ele>458</ele>
        <time>2020-08-16 12:50:27</time>
      </trkpt>
      <trkpt lat="39.94408" lon="-4.56193">
        <ele>457.4</ele>
        <time>2020-08-16 12:50:29</time>
      </trkpt>
      <trkpt lat="39.9441" lon="-4.56199">
        <ele>457.2</ele>
        <time>2020-08-16 12:50:30</time>
      </trkpt>
      <trkpt lat="39.94411" lon="-4.56205">
        <ele>457</ele>
        <time>2020-08-16 12:50:31</time>
      </trkpt>
      <trkpt lat="39.94413" lon="-4.56211">
        <ele>457</ele>
        <time>2020-08-16 12:50:32</time>
      </trkpt>
      <trkpt lat="39.94414" lon="-4.56217">
        <ele>456.8</ele>
        <time>2020-08-16 12:50:33</time>
      </trkpt>
      <trkpt lat="39.94416" lon="-4.56222">
        <ele>456.6</ele>
        <time>2020-08-16 12:50:34</time>
      </trkpt>
      <trkpt lat="39.94417" lon="-4.56228">
        <ele>456.6</ele>
        <time>2020-08-16 12:50:35</time>
      </trkpt>
      <trkpt lat="39.94418" lon="-4.56233">
        <ele>456.6</ele>
        <time>2020-08-16 12:50:36</time>
      </trkpt>
      <trkpt lat="39.94419" lon="-4.56238">
        <ele>456.6</ele>
        <time>2020-08-16 12:50:37</time>
      </trkpt>
      <trkpt lat="39.9442" lon="-4.56243">
        <ele>456.4</ele>
        <time>2020-08-16 12:50:38</time>
      </trkpt>
      <trkpt lat="39.94421" lon="-4.56248">
        <ele>456.2</ele>
        <time>2020-08-16 12:50:39</time>
      </trkpt>
      <trkpt lat="39.94422" lon="-4.56253">
        <ele>456.2</ele>
        <time>2020-08-16 12:50:40</time>
      </trkpt>
      <trkpt lat="39.94424" lon="-4.56263">
        <ele>456.2</ele>
        <time>2020-08-16 12:50:42</time>
      </trkpt>
      <trkpt lat="39.94426" lon="-4.56268">
        <ele>456</ele>
        <time>2020-08-16 12:50:43</time>
      </trkpt>
      <trkpt lat="39.94427" lon="-4.56273">
        <ele>455.8</ele>
        <time>2020-08-16 12:50:44</time>
      </trkpt>
      <trkpt lat="39.94428" lon="-4.56277">
        <ele>455.8</ele>
        <time>2020-08-16 12:50:45</time>
      </trkpt>
      <trkpt lat="39.9443" lon="-4.56282">
        <ele>455.8</ele>
        <time>2020-08-16 12:50:46</time>
      </trkpt>
      <trkpt lat="39.94431" lon="-4.56286">
        <ele>455.8</ele>
        <time>2020-08-16 12:50:47</time>
      </trkpt>
      <trkpt lat="39.94432" lon="-4.5629">
        <ele>455.6</ele>
        <time>2020-08-16 12:50:48</time>
      </trkpt>
      <trkpt lat="39.94433" lon="-4.56294">
        <ele>455.6</ele>
        <time>2020-08-16 12:50:49</time>
      </trkpt>
      <trkpt lat="39.94434" lon="-4.56297">
        <ele>455.6</ele>
        <time>2020-08-16 12:50:50</time>
      </trkpt>
      <trkpt lat="39.94435" lon="-4.563">
        <ele>455.6</ele>
        <time>2020-08-16 12:50:51</time>
      </trkpt>
      <trkpt lat="39.94435" lon="-4.56303">
        <ele>455.6</ele>
        <time>2020-08-16 12:50:52</time>
      </trkpt>
      <trkpt lat="39.94438" lon="-4.56314">
        <ele>455.4</ele>
        <time>2020-08-16 12:50:55</time>
      </trkpt>
      <trkpt lat="39.94439" lon="-4.56318">
        <ele>455.4</ele>
        <time>2020-08-16 12:50:56</time>
      </trkpt>
      <trkpt lat="39.94441" lon="-4.56327">
        <ele>455.4</ele>
        <time>2020-08-16 12:50:58</time>
      </trkpt>
      <trkpt lat="39.94443" lon="-4.56336">
        <ele>455.2</ele>
        <time>2020-08-16 12:51:00</time>
      </trkpt>
      <trkpt lat="39.9445" lon="-4.56362">
        <ele>454.4</ele>
        <time>2020-08-16 12:51:05</time>
      </trkpt>
      <trkpt lat="39.94451" lon="-4.56367">
        <ele>454.4</ele>
        <time>2020-08-16 12:51:06</time>
      </trkpt>
      <trkpt lat="39.94452" lon="-4.56373">
        <ele>454.2</ele>
        <time>2020-08-16 12:51:07</time>
      </trkpt>
      <trkpt lat="39.94453" lon="-4.56379">
        <ele>454</ele>
        <time>2020-08-16 12:51:08</time>
      </trkpt>
      <trkpt lat="39.94455" lon="-4.56384">
        <ele>453.8</ele>
        <time>2020-08-16 12:51:09</time>
      </trkpt>
      <trkpt lat="39.94456" lon="-4.5639">
        <ele>453.4</ele>
        <time>2020-08-16 12:51:10</time>
      </trkpt>
      <trkpt lat="39.94457" lon="-4.56395">
        <ele>453.2</ele>
        <time>2020-08-16 12:51:11</time>
      </trkpt>
      <trkpt lat="39.94458" lon="-4.56401">
        <ele>453</ele>
        <time>2020-08-16 12:51:12</time>
      </trkpt>
      <trkpt lat="39.94458" lon="-4.56406">
        <ele>452.8</ele>
        <time>2020-08-16 12:51:13</time>
      </trkpt>
      <trkpt lat="39.94459" lon="-4.56411">
        <ele>452.6</ele>
        <time>2020-08-16 12:51:14</time>
      </trkpt>
      <trkpt lat="39.9446" lon="-4.56416">
        <ele>452.4</ele>
        <time>2020-08-16 12:51:15</time>
      </trkpt>
      <trkpt lat="39.9446" lon="-4.5642">
        <ele>452.4</ele>
        <time>2020-08-16 12:51:16</time>
      </trkpt>
      <trkpt lat="39.94461" lon="-4.56422">
        <ele>452.2</ele>
        <time>2020-08-16 12:51:17</time>
      </trkpt>
      <trkpt lat="39.94461" lon="-4.56423">
        <ele>452</ele>
        <time>2020-08-16 12:51:18</time>
      </trkpt>
      <trkpt lat="39.94461" lon="-4.56423">
        <ele>451.4</ele>
        <time>2020-08-16 12:51:20</time>
      </trkpt>
      <trkpt lat="39.94464" lon="-4.56434">
        <ele>449</ele>
        <time>2020-08-16 12:52:06</time>
      </trkpt>
      <trkpt lat="39.94466" lon="-4.56439">
        <ele>449</ele>
        <time>2020-08-16 12:52:07</time>
      </trkpt>
      <trkpt lat="39.94471" lon="-4.56449">
        <ele>449</ele>
        <time>2020-08-16 12:52:09</time>
      </trkpt>
      <trkpt lat="39.94479" lon="-4.56461">
        <ele>449</ele>
        <time>2020-08-16 12:52:11</time>
      </trkpt>
      <trkpt lat="39.94497" lon="-4.56491">
        <ele>447.6</ele>
        <time>2020-08-16 12:52:15</time>
      </trkpt>
      <trkpt lat="39.94501" lon="-4.56498">
        <ele>447.2</ele>
        <time>2020-08-16 12:52:16</time>
      </trkpt>
      <trkpt lat="39.94506" lon="-4.56505">
        <ele>446.6</ele>
        <time>2020-08-16 12:52:17</time>
      </trkpt>
      <trkpt lat="39.9451" lon="-4.56511">
        <ele>445.8</ele>
        <time>2020-08-16 12:52:18</time>
      </trkpt>
      <trkpt lat="39.94515" lon="-4.56518">
        <ele>445.6</ele>
        <time>2020-08-16 12:52:19</time>
      </trkpt>
      <trkpt lat="39.94529" lon="-4.56541">
        <ele>444.2</ele>
        <time>2020-08-16 12:52:22</time>
      </trkpt>
      <trkpt lat="39.94539" lon="-4.56557">
        <ele>443.4</ele>
        <time>2020-08-16 12:52:24</time>
      </trkpt>
      <trkpt lat="39.94544" lon="-4.56565">
        <ele>443.2</ele>
        <time>2020-08-16 12:52:25</time>
      </trkpt>
      <trkpt lat="39.94549" lon="-4.56572">
        <ele>443</ele>
        <time>2020-08-16 12:52:26</time>
      </trkpt>
      <trkpt lat="39.94554" lon="-4.56579">
        <ele>442.6</ele>
        <time>2020-08-16 12:52:27</time>
      </trkpt>
      <trkpt lat="39.94559" lon="-4.56586">
        <ele>442.2</ele>
        <time>2020-08-16 12:52:28</time>
      </trkpt>
      <trkpt lat="39.94564" lon="-4.56594">
        <ele>441.8</ele>
        <time>2020-08-16 12:52:29</time>
      </trkpt>
      <trkpt lat="39.94569" lon="-4.56601">
        <ele>441.4</ele>
        <time>2020-08-16 12:52:30</time>
      </trkpt>
      <trkpt lat="39.94578" lon="-4.56617">
        <ele>440.8</ele>
        <time>2020-08-16 12:52:32</time>
      </trkpt>
      <trkpt lat="39.94583" lon="-4.56625">
        <ele>440.6</ele>
        <time>2020-08-16 12:52:33</time>
      </trkpt>
      <trkpt lat="39.94587" lon="-4.56631">
        <ele>440</ele>
        <time>2020-08-16 12:52:34</time>
      </trkpt>
      <trkpt lat="39.94591" lon="-4.56637">
        <ele>439.6</ele>
        <time>2020-08-16 12:52:35</time>
      </trkpt>
      <trkpt lat="39.94594" lon="-4.56642">
        <ele>439.4</ele>
        <time>2020-08-16 12:52:36</time>
      </trkpt>
      <trkpt lat="39.94597" lon="-4.56645">
        <ele>439.2</ele>
        <time>2020-08-16 12:52:37</time>
      </trkpt>
      <trkpt lat="39.94598" lon="-4.56647">
        <ele>439</ele>
        <time>2020-08-16 12:52:38</time>
      </trkpt>
      <trkpt lat="39.94599" lon="-4.56648">
        <ele>438.8</ele>
        <time>2020-08-16 12:52:39</time>
      </trkpt>
      <trkpt lat="39.946" lon="-4.56648">
        <ele>438.6</ele>
        <time>2020-08-16 12:52:41</time>
      </trkpt>
      <trkpt lat="39.94601" lon="-4.56648">
        <ele>438.4</ele>
        <time>2020-08-16 12:52:42</time>
      </trkpt>
      <trkpt lat="39.94602" lon="-4.56649">
        <ele>438.4</ele>
        <time>2020-08-16 12:52:43</time>
      </trkpt>
      <trkpt lat="39.94603" lon="-4.56651">
        <ele>438.2</ele>
        <time>2020-08-16 12:52:44</time>
      </trkpt>
      <trkpt lat="39.94607" lon="-4.56658">
        <ele>438.2</ele>
        <time>2020-08-16 12:52:46</time>
      </trkpt>
      <trkpt lat="39.94611" lon="-4.56667">
        <ele>438.2</ele>
        <time>2020-08-16 12:52:48</time>
      </trkpt>
      <trkpt lat="39.94619" lon="-4.56685">
        <ele>437.6</ele>
        <time>2020-08-16 12:52:51</time>
      </trkpt>
      <trkpt lat="39.94625" lon="-4.56699">
        <ele>437.4</ele>
        <time>2020-08-16 12:52:53</time>
      </trkpt>
      <trkpt lat="39.94636" lon="-4.56729">
        <ele>436.4</ele>
        <time>2020-08-16 12:52:57</time>
      </trkpt>
      <trkpt lat="39.94639" lon="-4.56736">
        <ele>436</ele>
        <time>2020-08-16 12:52:58</time>
      </trkpt>
      <trkpt lat="39.94648" lon="-4.56758">
        <ele>434.6</ele>
        <time>2020-08-16 12:53:01</time>
      </trkpt>
      <trkpt lat="39.94657" lon="-4.56779">
        <ele>433.6</ele>
        <time>2020-08-16 12:53:04</time>
      </trkpt>
      <trkpt lat="39.94659" lon="-4.56786">
        <ele>433.4</ele>
        <time>2020-08-16 12:53:05</time>
      </trkpt>
      <trkpt lat="39.94661" lon="-4.56793">
        <ele>433</ele>
        <time>2020-08-16 12:53:06</time>
      </trkpt>
      <trkpt lat="39.94662" lon="-4.568">
        <ele>432.8</ele>
        <time>2020-08-16 12:53:07</time>
      </trkpt>
      <trkpt lat="39.94663" lon="-4.56807">
        <ele>432.4</ele>
        <time>2020-08-16 12:53:08</time>
      </trkpt>
      <trkpt lat="39.94664" lon="-4.56813">
        <ele>432.2</ele>
        <time>2020-08-16 12:53:09</time>
      </trkpt>
      <trkpt lat="39.94664" lon="-4.56817">
        <ele>431.8</ele>
        <time>2020-08-16 12:53:10</time>
      </trkpt>
      <trkpt lat="39.94665" lon="-4.56821">
        <ele>431</ele>
        <time>2020-08-16 12:53:11</time>
      </trkpt>
      <trkpt lat="39.94665" lon="-4.56823">
        <ele>430.8</ele>
        <time>2020-08-16 12:53:12</time>
      </trkpt>
      <trkpt lat="39.94666" lon="-4.56825">
        <ele>430.6</ele>
        <time>2020-08-16 12:53:13</time>
      </trkpt>
      <trkpt lat="39.94666" lon="-4.56826">
        <ele>430.4</ele>
        <time>2020-08-16 12:53:14</time>
      </trkpt>
      <trkpt lat="39.94666" lon="-4.56826">
        <ele>430.2</ele>
        <time>2020-08-16 12:53:15</time>
      </trkpt>
      <trkpt lat="39.94666" lon="-4.56826">
        <ele>429.8</ele>
        <time>2020-08-16 12:53:16</time>
      </trkpt>
      <trkpt lat="39.94667" lon="-4.56836">
        <ele>428.2</ele>
        <time>2020-08-16 12:55:43</time>
      </trkpt>
      <trkpt lat="39.94668" lon="-4.56846">
        <ele>428.2</ele>
        <time>2020-08-16 12:55:44</time>
      </trkpt>
      <trkpt lat="39.94669" lon="-4.56852">
        <ele>428.2</ele>
        <time>2020-08-16 12:55:45</time>
      </trkpt>
      <trkpt lat="39.9467" lon="-4.56858">
        <ele>428.2</ele>
        <time>2020-08-16 12:55:46</time>
      </trkpt>
      <trkpt lat="39.94672" lon="-4.56873">
        <ele>427.6</ele>
        <time>2020-08-16 12:55:49</time>
      </trkpt>
      <trkpt lat="39.94673" lon="-4.56876">
        <ele>427.4</ele>
        <time>2020-08-16 12:55:50</time>
      </trkpt>
      <trkpt lat="39.94673" lon="-4.56878">
        <ele>427.4</ele>
        <time>2020-08-16 12:55:51</time>
      </trkpt>
      <trkpt lat="39.94673" lon="-4.56881">
        <ele>427</ele>
        <time>2020-08-16 12:55:52</time>
      </trkpt>
      <trkpt lat="39.94673" lon="-4.56884">
        <ele>427</ele>
        <time>2020-08-16 12:55:53</time>
      </trkpt>
      <trkpt lat="39.94673" lon="-4.56884">
        <ele>426.6</ele>
        <time>2020-08-16 12:55:54</time>
      </trkpt>
      <trkpt lat="39.94673" lon="-4.56888">
        <ele>426.2</ele>
        <time>2020-08-16 12:55:55</time>
      </trkpt>
      <trkpt lat="39.94673" lon="-4.56892">
        <ele>426</ele>
        <time>2020-08-16 12:55:56</time>
      </trkpt>
      <trkpt lat="39.94675" lon="-4.56909">
        <ele>425.8</ele>
        <time>2020-08-16 12:55:58</time>
      </trkpt>
      <trkpt lat="39.94676" lon="-4.56915">
        <ele>425.6</ele>
        <time>2020-08-16 12:55:59</time>
      </trkpt>
      <trkpt lat="39.94678" lon="-4.56934">
        <ele>425.2</ele>
        <time>2020-08-16 12:56:02</time>
      </trkpt>
      <trkpt lat="39.94679" lon="-4.5694">
        <ele>425</ele>
        <time>2020-08-16 12:56:03</time>
      </trkpt>
      <trkpt lat="39.94679" lon="-4.5694">
        <ele>424.6</ele>
        <time>2020-08-16 12:56:04</time>
      </trkpt>
      <trkpt lat="39.94682" lon="-4.56952">
        <ele>424.4</ele>
        <time>2020-08-16 12:56:05</time>
      </trkpt>
      <trkpt lat="39.94681" lon="-4.56958">
        <ele>424</ele>
        <time>2020-08-16 12:56:06</time>
      </trkpt>
      <trkpt lat="39.94679" lon="-4.56964">
        <ele>423.8</ele>
        <time>2020-08-16 12:56:07</time>
      </trkpt>
      <trkpt lat="39.94679" lon="-4.56964">
        <ele>423.6</ele>
        <time>2020-08-16 12:56:08</time>
      </trkpt>
      <trkpt lat="39.94676" lon="-4.56975">
        <ele>423.4</ele>
        <time>2020-08-16 12:56:09</time>
      </trkpt>
      <trkpt lat="39.94676" lon="-4.56981">
        <ele>423.4</ele>
        <time>2020-08-16 12:56:10</time>
      </trkpt>
      <trkpt lat="39.94676" lon="-4.56981">
        <ele>423</ele>
        <time>2020-08-16 12:56:11</time>
      </trkpt>
      <trkpt lat="39.94674" lon="-4.56992">
        <ele>422.4</ele>
        <time>2020-08-16 12:56:12</time>
      </trkpt>
      <trkpt lat="39.94672" lon="-4.56998">
        <ele>422</ele>
        <time>2020-08-16 12:56:13</time>
      </trkpt>
      <trkpt lat="39.94671" lon="-4.57004">
        <ele>421.2</ele>
        <time>2020-08-16 12:56:14</time>
      </trkpt>
      <trkpt lat="39.9467" lon="-4.57009">
        <ele>420.8</ele>
        <time>2020-08-16 12:56:15</time>
      </trkpt>
      <trkpt lat="39.94669" lon="-4.57014">
        <ele>420.2</ele>
        <time>2020-08-16 12:56:16</time>
      </trkpt>
      <trkpt lat="39.94669" lon="-4.57014">
        <ele>419.6</ele>
        <time>2020-08-16 12:56:17</time>
      </trkpt>
      <trkpt lat="39.94668" lon="-4.5702">
        <ele>418.8</ele>
        <time>2020-08-16 12:56:18</time>
      </trkpt>
      <trkpt lat="39.94664" lon="-4.5703">
        <ele>418.6</ele>
        <time>2020-08-16 12:56:19</time>
      </trkpt>
      <trkpt lat="39.9466" lon="-4.57041">
        <ele>417.8</ele>
        <time>2020-08-16 12:56:22</time>
      </trkpt>
      <trkpt lat="39.94656" lon="-4.57053">
        <ele>417.6</ele>
        <time>2020-08-16 12:56:23</time>
      </trkpt>
      <trkpt lat="39.94656" lon="-4.57053">
        <ele>417.4</ele>
        <time>2020-08-16 12:56:24</time>
      </trkpt>
      <trkpt lat="39.94649" lon="-4.57064">
        <ele>417.2</ele>
        <time>2020-08-16 12:56:25</time>
      </trkpt>
      <trkpt lat="39.94646" lon="-4.5707">
        <ele>417</ele>
        <time>2020-08-16 12:56:26</time>
      </trkpt>
      <trkpt lat="39.94642" lon="-4.57076">
        <ele>416.8</ele>
        <time>2020-08-16 12:56:27</time>
      </trkpt>
      <trkpt lat="39.94637" lon="-4.57082">
        <ele>416.8</ele>
        <time>2020-08-16 12:56:28</time>
      </trkpt>
      <trkpt lat="39.94634" lon="-4.57087">
        <ele>416.8</ele>
        <time>2020-08-16 12:56:29</time>
      </trkpt>
      <trkpt lat="39.94634" lon="-4.57087">
        <ele>416.8</ele>
        <time>2020-08-16 12:56:30</time>
      </trkpt>
      <trkpt lat="39.94631" lon="-4.57092">
        <ele>416.6</ele>
        <time>2020-08-16 12:56:31</time>
      </trkpt>
      <trkpt lat="39.94623" lon="-4.571">
        <ele>416.6</ele>
        <time>2020-08-16 12:56:32</time>
      </trkpt>
      <trkpt lat="39.94619" lon="-4.57104">
        <ele>416.6</ele>
        <time>2020-08-16 12:56:34</time>
      </trkpt>
      <trkpt lat="39.94615" lon="-4.57109">
        <ele>416.6</ele>
        <time>2020-08-16 12:56:35</time>
      </trkpt>
      <trkpt lat="39.94611" lon="-4.57118">
        <ele>416.4</ele>
        <time>2020-08-16 12:56:36</time>
      </trkpt>
      <trkpt lat="39.94611" lon="-4.57118">
        <ele>416.4</ele>
        <time>2020-08-16 12:56:37</time>
      </trkpt>
      <trkpt lat="39.9461" lon="-4.57123">
        <ele>416.6</ele>
        <time>2020-08-16 12:56:38</time>
      </trkpt>
      <trkpt lat="39.94612" lon="-4.5713">
        <ele>416.6</ele>
        <time>2020-08-16 12:56:39</time>
      </trkpt>
      <trkpt lat="39.94612" lon="-4.5713">
        <ele>416.4</ele>
        <time>2020-08-16 12:56:40</time>
      </trkpt>
      <trkpt lat="39.94613" lon="-4.57131">
        <ele>416.4</ele>
        <time>2020-08-16 12:56:41</time>
      </trkpt>
      <trkpt lat="39.94613" lon="-4.57131">
        <ele>416.4</ele>
        <time>2020-08-16 12:56:42</time>
      </trkpt>
      <trkpt lat="39.94616" lon="-4.57138">
        <ele>416</ele>
        <time>2020-08-16 12:57:29</time>
      </trkpt>
      <trkpt lat="39.94617" lon="-4.5714">
        <ele>416</ele>
        <time>2020-08-16 12:57:30</time>
      </trkpt>
      <trkpt lat="39.94618" lon="-4.57144">
        <ele>416</ele>
        <time>2020-08-16 12:57:31</time>
      </trkpt>
      <trkpt lat="39.94618" lon="-4.57146">
        <ele>416.2</ele>
        <time>2020-08-16 12:57:32</time>
      </trkpt>
      <trkpt lat="39.94619" lon="-4.57149">
        <ele>416.2</ele>
        <time>2020-08-16 12:57:33</time>
      </trkpt>
      <trkpt lat="39.94619" lon="-4.57151">
        <ele>416.2</ele>
        <time>2020-08-16 12:57:34</time>
      </trkpt>
      <trkpt lat="39.9462" lon="-4.57152">
        <ele>416.2</ele>
        <time>2020-08-16 12:57:35</time>
      </trkpt>
      <trkpt lat="39.94621" lon="-4.57153">
        <ele>416.2</ele>
        <time>2020-08-16 12:57:36</time>
      </trkpt>
      <trkpt lat="39.94621" lon="-4.57153">
        <ele>416.2</ele>
        <time>2020-08-16 12:57:37</time>
      </trkpt>
      <trkpt lat="39.94621" lon="-4.57153">
        <ele>416.2</ele>
        <time>2020-08-16 12:57:38</time>
      </trkpt>
      <trkpt lat="39.94623" lon="-4.57154">
        <ele>416.2</ele>
        <time>2020-08-16 12:57:39</time>
      </trkpt>
      <trkpt lat="39.94625" lon="-4.57155">
        <ele>416.4</ele>
        <time>2020-08-16 12:57:41</time>
      </trkpt>
      <trkpt lat="39.94629" lon="-4.57158">
        <ele>416.4</ele>
        <time>2020-08-16 12:57:42</time>
      </trkpt>
      <trkpt lat="39.94631" lon="-4.5716">
        <ele>416.6</ele>
        <time>2020-08-16 12:57:43</time>
      </trkpt>
      <trkpt lat="39.94632" lon="-4.57163">
        <ele>416.6</ele>
        <time>2020-08-16 12:57:44</time>
      </trkpt>
      <trkpt lat="39.94633" lon="-4.57165">
        <ele>416.8</ele>
        <time>2020-08-16 12:57:45</time>
      </trkpt>
      <trkpt lat="39.94633" lon="-4.57165">
        <ele>416.8</ele>
        <time>2020-08-16 12:57:46</time>
      </trkpt>
      <trkpt lat="39.94636" lon="-4.57168">
        <ele>416.8</ele>
        <time>2020-08-16 12:57:47</time>
      </trkpt>
      <trkpt lat="39.94638" lon="-4.57169">
        <ele>416.8</ele>
        <time>2020-08-16 12:57:48</time>
      </trkpt>
      <trkpt lat="39.94638" lon="-4.57169">
        <ele>416.8</ele>
        <time>2020-08-16 12:57:49</time>
      </trkpt>
      <trkpt lat="39.9464" lon="-4.57173">
        <ele>417.2</ele>
        <time>2020-08-16 12:57:50</time>
      </trkpt>
      <trkpt lat="39.94641" lon="-4.57175">
        <ele>417.2</ele>
        <time>2020-08-16 12:57:51</time>
      </trkpt>
      <trkpt lat="39.94641" lon="-4.57175">
        <ele>417.4</ele>
        <time>2020-08-16 12:57:52</time>
      </trkpt>
      <trkpt lat="39.94644" lon="-4.57176">
        <ele>417.4</ele>
        <time>2020-08-16 12:57:53</time>
      </trkpt>
      <trkpt lat="39.94645" lon="-4.57177">
        <ele>417.4</ele>
        <time>2020-08-16 12:57:54</time>
      </trkpt>
      <trkpt lat="39.94647" lon="-4.57178">
        <ele>417.4</ele>
        <time>2020-08-16 12:57:55</time>
      </trkpt>
      <trkpt lat="39.94647" lon="-4.57178">
        <ele>417.6</ele>
        <time>2020-08-16 12:57:56</time>
      </trkpt>
      <trkpt lat="39.94647" lon="-4.57178">
        <ele>417.8</ele>
        <time>2020-08-16 12:57:57</time>
      </trkpt>
      <trkpt lat="39.94648" lon="-4.57179">
        <ele>418</ele>
        <time>2020-08-16 12:57:58</time>
      </trkpt>
      <trkpt lat="39.94648" lon="-4.57179">
        <ele>418.2</ele>
        <time>2020-08-16 12:57:59</time>
      </trkpt>
      <trkpt lat="39.94648" lon="-4.57179">
        <ele>418.4</ele>
        <time>2020-08-16 12:58:01</time>
      </trkpt>
      <trkpt lat="39.94651" lon="-4.57182">
        <ele>419</ele>
        <time>2020-08-16 12:58:19</time>
      </trkpt>
      <trkpt lat="39.94652" lon="-4.57183">
        <ele>419.2</ele>
        <time>2020-08-16 12:58:20</time>
      </trkpt>
      <trkpt lat="39.94654" lon="-4.57185">
        <ele>419.4</ele>
        <time>2020-08-16 12:58:21</time>
      </trkpt>
      <trkpt lat="39.94658" lon="-4.57189">
        <ele>419.4</ele>
        <time>2020-08-16 12:58:23</time>
      </trkpt>
      <trkpt lat="39.94659" lon="-4.5719">
        <ele>419.6</ele>
        <time>2020-08-16 12:58:24</time>
      </trkpt>
      <trkpt lat="39.9466" lon="-4.57191">
        <ele>419.8</ele>
        <time>2020-08-16 12:58:25</time>
      </trkpt>
      <trkpt lat="39.94662" lon="-4.57193">
        <ele>420</ele>
        <time>2020-08-16 12:58:26</time>
      </trkpt>
      <trkpt lat="39.94664" lon="-4.57194">
        <ele>420.4</ele>
        <time>2020-08-16 12:58:27</time>
      </trkpt>
      <trkpt lat="39.94664" lon="-4.57194">
        <ele>420.6</ele>
        <time>2020-08-16 12:58:28</time>
      </trkpt>
      <trkpt lat="39.94667" lon="-4.57197">
        <ele>421</ele>
        <time>2020-08-16 12:58:29</time>
      </trkpt>
      <trkpt lat="39.94668" lon="-4.57198">
        <ele>421.2</ele>
        <time>2020-08-16 12:58:30</time>
      </trkpt>
      <trkpt lat="39.94669" lon="-4.57199">
        <ele>422</ele>
        <time>2020-08-16 12:58:31</time>
      </trkpt>
      <trkpt lat="39.94671" lon="-4.572">
        <ele>422.4</ele>
        <time>2020-08-16 12:58:32</time>
      </trkpt>
      <trkpt lat="39.94672" lon="-4.57201">
        <ele>422.6</ele>
        <time>2020-08-16 12:58:33</time>
      </trkpt>
      <trkpt lat="39.94673" lon="-4.57202">
        <ele>423</ele>
        <time>2020-08-16 12:58:34</time>
      </trkpt>
      <trkpt lat="39.94675" lon="-4.57204">
        <ele>423.2</ele>
        <time>2020-08-16 12:58:35</time>
      </trkpt>
      <trkpt lat="39.94675" lon="-4.57204">
        <ele>423.4</ele>
        <time>2020-08-16 12:58:36</time>
      </trkpt>
      <trkpt lat="39.94677" lon="-4.57206">
        <ele>423.8</ele>
        <time>2020-08-16 12:58:37</time>
      </trkpt>
      <trkpt lat="39.94681" lon="-4.57208">
        <ele>424</ele>
        <time>2020-08-16 12:58:38</time>
      </trkpt>
      <trkpt lat="39.94682" lon="-4.57209">
        <ele>424.2</ele>
        <time>2020-08-16 12:58:39</time>
      </trkpt>
      <trkpt lat="39.94683" lon="-4.5721">
        <ele>424.4</ele>
        <time>2020-08-16 12:58:40</time>
      </trkpt>
      <trkpt lat="39.94684" lon="-4.57211">
        <ele>424.6</ele>
        <time>2020-08-16 12:58:41</time>
      </trkpt>
      <trkpt lat="39.94684" lon="-4.57211">
        <ele>424.8</ele>
        <time>2020-08-16 12:58:42</time>
      </trkpt>
      <trkpt lat="39.94685" lon="-4.57212">
        <ele>425.2</ele>
        <time>2020-08-16 12:58:43</time>
      </trkpt>
      <trkpt lat="39.94686" lon="-4.57213">
        <ele>425.8</ele>
        <time>2020-08-16 12:58:44</time>
      </trkpt>
      <trkpt lat="39.94687" lon="-4.57213">
        <ele>426</ele>
        <time>2020-08-16 12:58:45</time>
      </trkpt>
      <trkpt lat="39.94688" lon="-4.57214">
        <ele>426.2</ele>
        <time>2020-08-16 12:58:46</time>
      </trkpt>
      <trkpt lat="39.94689" lon="-4.57214">
        <ele>426.4</ele>
        <time>2020-08-16 12:58:47</time>
      </trkpt>
      <trkpt lat="39.9469" lon="-4.57215">
        <ele>426.8</ele>
        <time>2020-08-16 12:58:48</time>
      </trkpt>
      <trkpt lat="39.94691" lon="-4.57216">
        <ele>427</ele>
        <time>2020-08-16 12:58:49</time>
      </trkpt>
      <trkpt lat="39.94691" lon="-4.57217">
        <ele>427.2</ele>
        <time>2020-08-16 12:58:50</time>
      </trkpt>
      <trkpt lat="39.94692" lon="-4.57218">
        <ele>427.4</ele>
        <time>2020-08-16 12:58:51</time>
      </trkpt>
      <trkpt lat="39.94694" lon="-4.5722">
        <ele>427.6</ele>
        <time>2020-08-16 12:58:52</time>
      </trkpt>
      <trkpt lat="39.94695" lon="-4.57221">
        <ele>428</ele>
        <time>2020-08-16 12:58:53</time>
      </trkpt>
      <trkpt lat="39.94696" lon="-4.57222">
        <ele>428.2</ele>
        <time>2020-08-16 12:58:54</time>
      </trkpt>
      <trkpt lat="39.94697" lon="-4.57223">
        <ele>428.4</ele>
        <time>2020-08-16 12:58:55</time>
      </trkpt>
      <trkpt lat="39.94698" lon="-4.57223">
        <ele>429</ele>
        <time>2020-08-16 12:58:56</time>
      </trkpt>
      <trkpt lat="39.94699" lon="-4.57225">
        <ele>429</ele>
        <time>2020-08-16 12:58:57</time>
      </trkpt>
      <trkpt lat="39.947" lon="-4.57225">
        <ele>429.4</ele>
        <time>2020-08-16 12:58:58</time>
      </trkpt>
      <trkpt lat="39.94701" lon="-4.57226">
        <ele>429.6</ele>
        <time>2020-08-16 12:58:59</time>
      </trkpt>
      <trkpt lat="39.94702" lon="-4.57227">
        <ele>430</ele>
        <time>2020-08-16 12:59:00</time>
      </trkpt>
      <trkpt lat="39.94703" lon="-4.57228">
        <ele>430.2</ele>
        <time>2020-08-16 12:59:01</time>
      </trkpt>
      <trkpt lat="39.94704" lon="-4.57229">
        <ele>430.2</ele>
        <time>2020-08-16 12:59:02</time>
      </trkpt>
      <trkpt lat="39.94705" lon="-4.57229">
        <ele>430.6</ele>
        <time>2020-08-16 12:59:03</time>
      </trkpt>
      <trkpt lat="39.94706" lon="-4.5723">
        <ele>430.8</ele>
        <time>2020-08-16 12:59:04</time>
      </trkpt>
      <trkpt lat="39.94707" lon="-4.5723">
        <ele>431</ele>
        <time>2020-08-16 12:59:05</time>
      </trkpt>
      <trkpt lat="39.94708" lon="-4.57231">
        <ele>431.2</ele>
        <time>2020-08-16 12:59:06</time>
      </trkpt>
      <trkpt lat="39.94708" lon="-4.57232">
        <ele>431.4</ele>
        <time>2020-08-16 12:59:07</time>
      </trkpt>
      <trkpt lat="39.94708" lon="-4.57232">
        <ele>431.6</ele>
        <time>2020-08-16 12:59:08</time>
      </trkpt>
      <trkpt lat="39.94708" lon="-4.57232">
        <ele>431.8</ele>
        <time>2020-08-16 12:59:09</time>
      </trkpt>
      <trkpt lat="39.94708" lon="-4.57232">
        <ele>432</ele>
        <time>2020-08-16 12:59:10</time>
      </trkpt>
      <trkpt lat="39.94707" lon="-4.57237">
        <ele>432.4</ele>
        <time>2020-08-16 12:59:40</time>
      </trkpt>
      <trkpt lat="39.94707" lon="-4.5724">
        <ele>432.6</ele>
        <time>2020-08-16 12:59:41</time>
      </trkpt>
      <trkpt lat="39.94706" lon="-4.57243">
        <ele>432.4</ele>
        <time>2020-08-16 12:59:42</time>
      </trkpt>
      <trkpt lat="39.94705" lon="-4.57245">
        <ele>432.4</ele>
        <time>2020-08-16 12:59:43</time>
      </trkpt>
      <trkpt lat="39.94705" lon="-4.57245">
        <ele>432.4</ele>
        <time>2020-08-16 12:59:44</time>
      </trkpt>
      <trkpt lat="39.94705" lon="-4.5725">
        <ele>432.2</ele>
        <time>2020-08-16 12:59:45</time>
      </trkpt>
      <trkpt lat="39.94705" lon="-4.57253">
        <ele>432.4</ele>
        <time>2020-08-16 12:59:46</time>
      </trkpt>
      <trkpt lat="39.94704" lon="-4.57259">
        <ele>432.6</ele>
        <time>2020-08-16 12:59:48</time>
      </trkpt>
      <trkpt lat="39.94703" lon="-4.57263">
        <ele>432.6</ele>
        <time>2020-08-16 12:59:49</time>
      </trkpt>
      <trkpt lat="39.94702" lon="-4.57267">
        <ele>432.6</ele>
        <time>2020-08-16 12:59:50</time>
      </trkpt>
      <trkpt lat="39.94699" lon="-4.57276">
        <ele>432.8</ele>
        <time>2020-08-16 12:59:52</time>
      </trkpt>
      <trkpt lat="39.94697" lon="-4.57284">
        <ele>432.8</ele>
        <time>2020-08-16 12:59:54</time>
      </trkpt>
      <trkpt lat="39.94697" lon="-4.57287">
        <ele>432.8</ele>
        <time>2020-08-16 12:59:55</time>
      </trkpt>
      <trkpt lat="39.94698" lon="-4.57288">
        <ele>432.8</ele>
        <time>2020-08-16 12:59:56</time>
      </trkpt>
      <trkpt lat="39.94699" lon="-4.5729">
        <ele>432.6</ele>
        <time>2020-08-16 12:59:57</time>
      </trkpt>
      <trkpt lat="39.94699" lon="-4.57292">
        <ele>432.6</ele>
        <time>2020-08-16 12:59:58</time>
      </trkpt>
      <trkpt lat="39.947" lon="-4.57293">
        <ele>432.6</ele>
        <time>2020-08-16 12:59:59</time>
      </trkpt>
      <trkpt lat="39.947" lon="-4.57294">
        <ele>432.6</ele>
        <time>2020-08-16 13:00:00</time>
      </trkpt>
      <trkpt lat="39.94703" lon="-4.57296">
        <ele>432.6</ele>
        <time>2020-08-16 13:00:02</time>
      </trkpt>
      <trkpt lat="39.94706" lon="-4.57297">
        <ele>433</ele>
        <time>2020-08-16 13:00:04</time>
      </trkpt>
      <trkpt lat="39.94707" lon="-4.57298">
        <ele>433</ele>
        <time>2020-08-16 13:00:05</time>
      </trkpt>
      <trkpt lat="39.94709" lon="-4.57298">
        <ele>433.2</ele>
        <time>2020-08-16 13:00:06</time>
      </trkpt>
      <trkpt lat="39.9471" lon="-4.57299">
        <ele>433.4</ele>
        <time>2020-08-16 13:00:07</time>
      </trkpt>
      <trkpt lat="39.94711" lon="-4.573">
        <ele>433.6</ele>
        <time>2020-08-16 13:00:08</time>
      </trkpt>
      <trkpt lat="39.94711" lon="-4.573">
        <ele>433.8</ele>
        <time>2020-08-16 13:00:09</time>
      </trkpt>
      <trkpt lat="39.94711" lon="-4.573">
        <ele>434</ele>
        <time>2020-08-16 13:00:10</time>
      </trkpt>
      <trkpt lat="39.94711" lon="-4.573">
        <ele>434.4</ele>
        <time>2020-08-16 13:00:11</time>
      </trkpt>
      <trkpt lat="39.94712" lon="-4.57311">
        <ele>436.2</ele>
        <time>2020-08-16 13:01:42</time>
      </trkpt>
      <trkpt lat="39.94714" lon="-4.57314">
        <ele>436.4</ele>
        <time>2020-08-16 13:01:43</time>
      </trkpt>
      <trkpt lat="39.94715" lon="-4.57316">
        <ele>436.4</ele>
        <time>2020-08-16 13:01:44</time>
      </trkpt>
      <trkpt lat="39.94717" lon="-4.57318">
        <ele>436.2</ele>
        <time>2020-08-16 13:01:45</time>
      </trkpt>
      <trkpt lat="39.9472" lon="-4.57321">
        <ele>436.2</ele>
        <time>2020-08-16 13:01:46</time>
      </trkpt>
      <trkpt lat="39.94727" lon="-4.57328">
        <ele>436.2</ele>
        <time>2020-08-16 13:01:49</time>
      </trkpt>
      <trkpt lat="39.9473" lon="-4.5733">
        <ele>436.4</ele>
        <time>2020-08-16 13:01:50</time>
      </trkpt>
      <trkpt lat="39.94736" lon="-4.57334">
        <ele>436.4</ele>
        <time>2020-08-16 13:01:52</time>
      </trkpt>
      <trkpt lat="39.94742" lon="-4.5734">
        <ele>436.4</ele>
        <time>2020-08-16 13:01:54</time>
      </trkpt>
      <trkpt lat="39.94745" lon="-4.57342">
        <ele>436.4</ele>
        <time>2020-08-16 13:01:55</time>
      </trkpt>
      <trkpt lat="39.94748" lon="-4.57344">
        <ele>436.4</ele>
        <time>2020-08-16 13:01:56</time>
      </trkpt>
      <trkpt lat="39.9475" lon="-4.57346">
        <ele>436.4</ele>
        <time>2020-08-16 13:01:57</time>
      </trkpt>
      <trkpt lat="39.94752" lon="-4.57348">
        <ele>436.4</ele>
        <time>2020-08-16 13:01:58</time>
      </trkpt>
      <trkpt lat="39.94752" lon="-4.5735">
        <ele>436.4</ele>
        <time>2020-08-16 13:01:59</time>
      </trkpt>
      <trkpt lat="39.94753" lon="-4.57352">
        <ele>436.2</ele>
        <time>2020-08-16 13:02:00</time>
      </trkpt>
      <trkpt lat="39.94752" lon="-4.57355">
        <ele>436.2</ele>
        <time>2020-08-16 13:02:01</time>
      </trkpt>
      <trkpt lat="39.9475" lon="-4.57357">
        <ele>436</ele>
        <time>2020-08-16 13:02:02</time>
      </trkpt>
      <trkpt lat="39.94747" lon="-4.57359">
        <ele>435.8</ele>
        <time>2020-08-16 13:02:03</time>
      </trkpt>
      <trkpt lat="39.94745" lon="-4.57361">
        <ele>435.8</ele>
        <time>2020-08-16 13:02:04</time>
      </trkpt>
      <trkpt lat="39.9474" lon="-4.57366">
        <ele>435.4</ele>
        <time>2020-08-16 13:02:06</time>
      </trkpt>
      <trkpt lat="39.94738" lon="-4.57368">
        <ele>435.4</ele>
        <time>2020-08-16 13:02:07</time>
      </trkpt>
      <trkpt lat="39.94731" lon="-4.57377">
        <ele>435.2</ele>
        <time>2020-08-16 13:02:10</time>
      </trkpt>
      <trkpt lat="39.94728" lon="-4.57381">
        <ele>435</ele>
        <time>2020-08-16 13:02:11</time>
      </trkpt>
      <trkpt lat="39.94725" lon="-4.57384">
        <ele>435</ele>
        <time>2020-08-16 13:02:12</time>
      </trkpt>
      <trkpt lat="39.94719" lon="-4.57394">
        <ele>434.8</ele>
        <time>2020-08-16 13:02:15</time>
      </trkpt>
      <trkpt lat="39.94719" lon="-4.57397">
        <ele>434.6</ele>
        <time>2020-08-16 13:02:16</time>
      </trkpt>
      <trkpt lat="39.94721" lon="-4.574">
        <ele>434.2</ele>
        <time>2020-08-16 13:02:17</time>
      </trkpt>
      <trkpt lat="39.94725" lon="-4.57406">
        <ele>433.8</ele>
        <time>2020-08-16 13:02:19</time>
      </trkpt>
      <trkpt lat="39.94731" lon="-4.57413">
        <ele>433.4</ele>
        <time>2020-08-16 13:02:21</time>
      </trkpt>
      <trkpt lat="39.94737" lon="-4.5742">
        <ele>433.2</ele>
        <time>2020-08-16 13:02:23</time>
      </trkpt>
      <trkpt lat="39.94741" lon="-4.57423">
        <ele>433</ele>
        <time>2020-08-16 13:02:24</time>
      </trkpt>
      <trkpt lat="39.94745" lon="-4.57425">
        <ele>432.8</ele>
        <time>2020-08-16 13:02:25</time>
      </trkpt>
      <trkpt lat="39.94749" lon="-4.57427">
        <ele>432.6</ele>
        <time>2020-08-16 13:02:26</time>
      </trkpt>
      <trkpt lat="39.94753" lon="-4.57429">
        <ele>432.4</ele>
        <time>2020-08-16 13:02:27</time>
      </trkpt>
      <trkpt lat="39.94757" lon="-4.5743">
        <ele>432.2</ele>
        <time>2020-08-16 13:02:28</time>
      </trkpt>
      <trkpt lat="39.94761" lon="-4.57433">
        <ele>432</ele>
        <time>2020-08-16 13:02:29</time>
      </trkpt>
      <trkpt lat="39.94764" lon="-4.57435">
        <ele>432</ele>
        <time>2020-08-16 13:02:30</time>
      </trkpt>
      <trkpt lat="39.94772" lon="-4.5744">
        <ele>431.8</ele>
        <time>2020-08-16 13:02:32</time>
      </trkpt>
      <trkpt lat="39.94782" lon="-4.57448">
        <ele>431.4</ele>
        <time>2020-08-16 13:02:35</time>
      </trkpt>
      <trkpt lat="39.9479" lon="-4.57454">
        <ele>431.2</ele>
        <time>2020-08-16 13:02:37</time>
      </trkpt>
      <trkpt lat="39.94794" lon="-4.57458">
        <ele>431</ele>
        <time>2020-08-16 13:02:38</time>
      </trkpt>
      <trkpt lat="39.94797" lon="-4.57461">
        <ele>431</ele>
        <time>2020-08-16 13:02:39</time>
      </trkpt>
      <trkpt lat="39.94801" lon="-4.57466">
        <ele>431</ele>
        <time>2020-08-16 13:02:40</time>
      </trkpt>
      <trkpt lat="39.94807" lon="-4.57475">
        <ele>430.8</ele>
        <time>2020-08-16 13:02:42</time>
      </trkpt>
      <trkpt lat="39.9481" lon="-4.57479">
        <ele>430.8</ele>
        <time>2020-08-16 13:02:43</time>
      </trkpt>
      <trkpt lat="39.9482" lon="-4.57494">
        <ele>430.4</ele>
        <time>2020-08-16 13:02:46</time>
      </trkpt>
      <trkpt lat="39.94823" lon="-4.57499">
        <ele>430.2</ele>
        <time>2020-08-16 13:02:47</time>
      </trkpt>
      <trkpt lat="39.94832" lon="-4.57515">
        <ele>430</ele>
        <time>2020-08-16 13:02:50</time>
      </trkpt>
      <trkpt lat="39.94837" lon="-4.57525">
        <ele>430</ele>
        <time>2020-08-16 13:02:52</time>
      </trkpt>
      <trkpt lat="39.9484" lon="-4.57531">
        <ele>430</ele>
        <time>2020-08-16 13:02:53</time>
      </trkpt>
      <trkpt lat="39.94846" lon="-4.57541">
        <ele>429.8</ele>
        <time>2020-08-16 13:02:55</time>
      </trkpt>
      <trkpt lat="39.94852" lon="-4.57553">
        <ele>429.8</ele>
        <time>2020-08-16 13:02:57</time>
      </trkpt>
      <trkpt lat="39.9486" lon="-4.5757">
        <ele>429.8</ele>
        <time>2020-08-16 13:03:00</time>
      </trkpt>
      <trkpt lat="39.9486" lon="-4.5757">
        <ele>429.8</ele>
        <time>2020-08-16 13:03:01</time>
      </trkpt>
      <trkpt lat="39.94868" lon="-4.57587">
        <ele>429.6</ele>
        <time>2020-08-16 13:03:03</time>
      </trkpt>
      <trkpt lat="39.94871" lon="-4.57592">
        <ele>429.6</ele>
        <time>2020-08-16 13:03:04</time>
      </trkpt>
      <trkpt lat="39.94873" lon="-4.57598">
        <ele>429.6</ele>
        <time>2020-08-16 13:03:05</time>
      </trkpt>
      <trkpt lat="39.94876" lon="-4.57604">
        <ele>429.6</ele>
        <time>2020-08-16 13:03:06</time>
      </trkpt>
      <trkpt lat="39.94881" lon="-4.57615">
        <ele>429.4</ele>
        <time>2020-08-16 13:03:08</time>
      </trkpt>
      <trkpt lat="39.94883" lon="-4.5762">
        <ele>429.4</ele>
        <time>2020-08-16 13:03:09</time>
      </trkpt>
      <trkpt lat="39.94886" lon="-4.57626">
        <ele>429.4</ele>
        <time>2020-08-16 13:03:10</time>
      </trkpt>
      <trkpt lat="39.94889" lon="-4.57631">
        <ele>429.6</ele>
        <time>2020-08-16 13:03:11</time>
      </trkpt>
      <trkpt lat="39.94891" lon="-4.57637">
        <ele>429.2</ele>
        <time>2020-08-16 13:03:12</time>
      </trkpt>
      <trkpt lat="39.94894" lon="-4.57643">
        <ele>429.2</ele>
        <time>2020-08-16 13:03:13</time>
      </trkpt>
      <trkpt lat="39.94896" lon="-4.57649">
        <ele>429.4</ele>
        <time>2020-08-16 13:03:14</time>
      </trkpt>
      <trkpt lat="39.94899" lon="-4.57663">
        <ele>429.2</ele>
        <time>2020-08-16 13:03:16</time>
      </trkpt>
      <trkpt lat="39.94901" lon="-4.5767">
        <ele>429.2</ele>
        <time>2020-08-16 13:03:17</time>
      </trkpt>
      <trkpt lat="39.94903" lon="-4.57675">
        <ele>429</ele>
        <time>2020-08-16 13:03:18</time>
      </trkpt>
      <trkpt lat="39.94904" lon="-4.5768">
        <ele>429</ele>
        <time>2020-08-16 13:03:19</time>
      </trkpt>
      <trkpt lat="39.94906" lon="-4.57685">
        <ele>429</ele>
        <time>2020-08-16 13:03:20</time>
      </trkpt>
      <trkpt lat="39.94908" lon="-4.57689">
        <ele>428.8</ele>
        <time>2020-08-16 13:03:21</time>
      </trkpt>
      <trkpt lat="39.94911" lon="-4.57694">
        <ele>428.4</ele>
        <time>2020-08-16 13:03:22</time>
      </trkpt>
      <trkpt lat="39.94914" lon="-4.57698">
        <ele>428.2</ele>
        <time>2020-08-16 13:03:23</time>
      </trkpt>
      <trkpt lat="39.94917" lon="-4.57703">
        <ele>428</ele>
        <time>2020-08-16 13:03:24</time>
      </trkpt>
      <trkpt lat="39.94921" lon="-4.57708">
        <ele>428</ele>
        <time>2020-08-16 13:03:25</time>
      </trkpt>
      <trkpt lat="39.94925" lon="-4.57712">
        <ele>427.8</ele>
        <time>2020-08-16 13:03:26</time>
      </trkpt>
      <trkpt lat="39.94934" lon="-4.57722">
        <ele>427.8</ele>
        <time>2020-08-16 13:03:28</time>
      </trkpt>
      <trkpt lat="39.94951" lon="-4.57742">
        <ele>427.2</ele>
        <time>2020-08-16 13:03:32</time>
      </trkpt>
      <trkpt lat="39.9496" lon="-4.57751">
        <ele>427.2</ele>
        <time>2020-08-16 13:03:34</time>
      </trkpt>
      <trkpt lat="39.94964" lon="-4.57756">
        <ele>427.2</ele>
        <time>2020-08-16 13:03:35</time>
      </trkpt>
      <trkpt lat="39.94968" lon="-4.57761">
        <ele>426.8</ele>
        <time>2020-08-16 13:03:36</time>
      </trkpt>
      <trkpt lat="39.94971" lon="-4.57765">
        <ele>426.6</ele>
        <time>2020-08-16 13:03:37</time>
      </trkpt>
      <trkpt lat="39.94974" lon="-4.5777">
        <ele>426.8</ele>
        <time>2020-08-16 13:03:38</time>
      </trkpt>
      <trkpt lat="39.94977" lon="-4.57775">
        <ele>426.8</ele>
        <time>2020-08-16 13:03:39</time>
      </trkpt>
      <trkpt lat="39.94979" lon="-4.5778">
        <ele>426.8</ele>
        <time>2020-08-16 13:03:40</time>
      </trkpt>
      <trkpt lat="39.9498" lon="-4.57785">
        <ele>426.6</ele>
        <time>2020-08-16 13:03:41</time>
      </trkpt>
      <trkpt lat="39.94981" lon="-4.5779">
        <ele>426.6</ele>
        <time>2020-08-16 13:03:42</time>
      </trkpt>
      <trkpt lat="39.94983" lon="-4.57795">
        <ele>426.6</ele>
        <time>2020-08-16 13:03:43</time>
      </trkpt>
      <trkpt lat="39.94983" lon="-4.57795">
        <ele>426.8</ele>
        <time>2020-08-16 13:03:44</time>
      </trkpt>
      <trkpt lat="39.94986" lon="-4.57804">
        <ele>426.8</ele>
        <time>2020-08-16 13:03:45</time>
      </trkpt>
      <trkpt lat="39.94987" lon="-4.57809">
        <ele>426.8</ele>
        <time>2020-08-16 13:03:46</time>
      </trkpt>
      <trkpt lat="39.94988" lon="-4.57814">
        <ele>426.8</ele>
        <time>2020-08-16 13:03:47</time>
      </trkpt>
      <trkpt lat="39.9499" lon="-4.57819">
        <ele>427</ele>
        <time>2020-08-16 13:03:48</time>
      </trkpt>
      <trkpt lat="39.94992" lon="-4.57825">
        <ele>427.2</ele>
        <time>2020-08-16 13:03:49</time>
      </trkpt>
      <trkpt lat="39.94993" lon="-4.5783">
        <ele>427.2</ele>
        <time>2020-08-16 13:03:50</time>
      </trkpt>
      <trkpt lat="39.94995" lon="-4.57835">
        <ele>427.2</ele>
        <time>2020-08-16 13:03:51</time>
      </trkpt>
      <trkpt lat="39.94999" lon="-4.57845">
        <ele>427.4</ele>
        <time>2020-08-16 13:03:53</time>
      </trkpt>
      <trkpt lat="39.95005" lon="-4.57862">
        <ele>427.8</ele>
        <time>2020-08-16 13:03:57</time>
      </trkpt>
      <trkpt lat="39.95007" lon="-4.57865">
        <ele>427.8</ele>
        <time>2020-08-16 13:03:58</time>
      </trkpt>
      <trkpt lat="39.95008" lon="-4.57869">
        <ele>427.8</ele>
        <time>2020-08-16 13:03:59</time>
      </trkpt>
      <trkpt lat="39.9501" lon="-4.57872">
        <ele>428.2</ele>
        <time>2020-08-16 13:04:00</time>
      </trkpt>
      <trkpt lat="39.95012" lon="-4.57875">
        <ele>428.6</ele>
        <time>2020-08-16 13:04:01</time>
      </trkpt>
      <trkpt lat="39.95014" lon="-4.57877">
        <ele>428.8</ele>
        <time>2020-08-16 13:04:02</time>
      </trkpt>
      <trkpt lat="39.95016" lon="-4.5788">
        <ele>429</ele>
        <time>2020-08-16 13:04:03</time>
      </trkpt>
      <trkpt lat="39.95017" lon="-4.57883">
        <ele>429</ele>
        <time>2020-08-16 13:04:04</time>
      </trkpt>
      <trkpt lat="39.95019" lon="-4.57885">
        <ele>429.2</ele>
        <time>2020-08-16 13:04:05</time>
      </trkpt>
      <trkpt lat="39.9502" lon="-4.57887">
        <ele>429.6</ele>
        <time>2020-08-16 13:04:06</time>
      </trkpt>
      <trkpt lat="39.95021" lon="-4.5789">
        <ele>429.8</ele>
        <time>2020-08-16 13:04:07</time>
      </trkpt>
      <trkpt lat="39.95023" lon="-4.57892">
        <ele>430.2</ele>
        <time>2020-08-16 13:04:08</time>
      </trkpt>
      <trkpt lat="39.95024" lon="-4.57894">
        <ele>430.4</ele>
        <time>2020-08-16 13:04:09</time>
      </trkpt>
      <trkpt lat="39.95026" lon="-4.57896">
        <ele>430.6</ele>
        <time>2020-08-16 13:04:10</time>
      </trkpt>
      <trkpt lat="39.95027" lon="-4.57899">
        <ele>430.6</ele>
        <time>2020-08-16 13:04:11</time>
      </trkpt>
      <trkpt lat="39.95029" lon="-4.57901">
        <ele>430.8</ele>
        <time>2020-08-16 13:04:12</time>
      </trkpt>
      <trkpt lat="39.9503" lon="-4.57904">
        <ele>431</ele>
        <time>2020-08-16 13:04:13</time>
      </trkpt>
      <trkpt lat="39.95032" lon="-4.57907">
        <ele>431.2</ele>
        <time>2020-08-16 13:04:14</time>
      </trkpt>
      <trkpt lat="39.95034" lon="-4.5791">
        <ele>431.4</ele>
        <time>2020-08-16 13:04:15</time>
      </trkpt>
      <trkpt lat="39.95035" lon="-4.57912">
        <ele>431.4</ele>
        <time>2020-08-16 13:04:16</time>
      </trkpt>
      <trkpt lat="39.95037" lon="-4.57915">
        <ele>431.6</ele>
        <time>2020-08-16 13:04:17</time>
      </trkpt>
      <trkpt lat="39.95039" lon="-4.57919">
        <ele>431.8</ele>
        <time>2020-08-16 13:04:18</time>
      </trkpt>
      <trkpt lat="39.9504" lon="-4.57922">
        <ele>432</ele>
        <time>2020-08-16 13:04:19</time>
      </trkpt>
      <trkpt lat="39.95042" lon="-4.57925">
        <ele>432.2</ele>
        <time>2020-08-16 13:04:20</time>
      </trkpt>
      <trkpt lat="39.95043" lon="-4.57927">
        <ele>432.2</ele>
        <time>2020-08-16 13:04:21</time>
      </trkpt>
      <trkpt lat="39.95045" lon="-4.5793">
        <ele>432.4</ele>
        <time>2020-08-16 13:04:22</time>
      </trkpt>
      <trkpt lat="39.95046" lon="-4.57933">
        <ele>432.4</ele>
        <time>2020-08-16 13:04:23</time>
      </trkpt>
      <trkpt lat="39.95048" lon="-4.57936">
        <ele>432.6</ele>
        <time>2020-08-16 13:04:24</time>
      </trkpt>
      <trkpt lat="39.9505" lon="-4.57938">
        <ele>432.6</ele>
        <time>2020-08-16 13:04:25</time>
      </trkpt>
      <trkpt lat="39.95052" lon="-4.57941">
        <ele>432.6</ele>
        <time>2020-08-16 13:04:26</time>
      </trkpt>
      <trkpt lat="39.95053" lon="-4.57945">
        <ele>433</ele>
        <time>2020-08-16 13:04:27</time>
      </trkpt>
      <trkpt lat="39.95062" lon="-4.57962">
        <ele>433.4</ele>
        <time>2020-08-16 13:04:32</time>
      </trkpt>
      <trkpt lat="39.95065" lon="-4.57969">
        <ele>433.6</ele>
        <time>2020-08-16 13:04:34</time>
      </trkpt>
      <trkpt lat="39.95067" lon="-4.57972">
        <ele>433.8</ele>
        <time>2020-08-16 13:04:35</time>
      </trkpt>
      <trkpt lat="39.95068" lon="-4.57975">
        <ele>433.8</ele>
        <time>2020-08-16 13:04:36</time>
      </trkpt>
      <trkpt lat="39.95069" lon="-4.57978">
        <ele>434</ele>
        <time>2020-08-16 13:04:37</time>
      </trkpt>
      <trkpt lat="39.95071" lon="-4.5798">
        <ele>434</ele>
        <time>2020-08-16 13:04:38</time>
      </trkpt>
      <trkpt lat="39.95072" lon="-4.57983">
        <ele>434.2</ele>
        <time>2020-08-16 13:04:39</time>
      </trkpt>
      <trkpt lat="39.95073" lon="-4.57985">
        <ele>434.2</ele>
        <time>2020-08-16 13:04:40</time>
      </trkpt>
      <trkpt lat="39.95074" lon="-4.57987">
        <ele>434.4</ele>
        <time>2020-08-16 13:04:41</time>
      </trkpt>
      <trkpt lat="39.95075" lon="-4.5799">
        <ele>434.4</ele>
        <time>2020-08-16 13:04:42</time>
      </trkpt>
      <trkpt lat="39.95076" lon="-4.57992">
        <ele>434.4</ele>
        <time>2020-08-16 13:04:43</time>
      </trkpt>
      <trkpt lat="39.95077" lon="-4.57994">
        <ele>434.4</ele>
        <time>2020-08-16 13:04:44</time>
      </trkpt>
      <trkpt lat="39.95078" lon="-4.57997">
        <ele>434.4</ele>
        <time>2020-08-16 13:04:45</time>
      </trkpt>
      <trkpt lat="39.95079" lon="-4.58001">
        <ele>434.4</ele>
        <time>2020-08-16 13:04:46</time>
      </trkpt>
      <trkpt lat="39.9508" lon="-4.58005">
        <ele>434.4</ele>
        <time>2020-08-16 13:04:47</time>
      </trkpt>
      <trkpt lat="39.95083" lon="-4.58016">
        <ele>434.2</ele>
        <time>2020-08-16 13:04:50</time>
      </trkpt>
      <trkpt lat="39.95084" lon="-4.58021">
        <ele>434.2</ele>
        <time>2020-08-16 13:04:51</time>
      </trkpt>
      <trkpt lat="39.95091" lon="-4.58046">
        <ele>433.8</ele>
        <time>2020-08-16 13:04:56</time>
      </trkpt>
      <trkpt lat="39.951" lon="-4.58076">
        <ele>433.4</ele>
        <time>2020-08-16 13:05:01</time>
      </trkpt>
      <trkpt lat="39.95102" lon="-4.58082">
        <ele>433.4</ele>
        <time>2020-08-16 13:05:02</time>
      </trkpt>
      <trkpt lat="39.95106" lon="-4.58095">
        <ele>433.2</ele>
        <time>2020-08-16 13:05:04</time>
      </trkpt>
      <trkpt lat="39.95114" lon="-4.58114">
        <ele>432.8</ele>
        <time>2020-08-16 13:05:07</time>
      </trkpt>
      <trkpt lat="39.95117" lon="-4.5812">
        <ele>432.6</ele>
        <time>2020-08-16 13:05:08</time>
      </trkpt>
      <trkpt lat="39.95127" lon="-4.58138">
        <ele>432.2</ele>
        <time>2020-08-16 13:05:11</time>
      </trkpt>
      <trkpt lat="39.95135" lon="-4.58149">
        <ele>432</ele>
        <time>2020-08-16 13:05:13</time>
      </trkpt>
      <trkpt lat="39.95138" lon="-4.58155">
        <ele>432</ele>
        <time>2020-08-16 13:05:14</time>
      </trkpt>
      <trkpt lat="39.95141" lon="-4.58162">
        <ele>432</ele>
        <time>2020-08-16 13:05:15</time>
      </trkpt>
      <trkpt lat="39.95143" lon="-4.58169">
        <ele>432</ele>
        <time>2020-08-16 13:05:16</time>
      </trkpt>
      <trkpt lat="39.95144" lon="-4.58176">
        <ele>431.8</ele>
        <time>2020-08-16 13:05:17</time>
      </trkpt>
      <trkpt lat="39.95146" lon="-4.58183">
        <ele>431.6</ele>
        <time>2020-08-16 13:05:18</time>
      </trkpt>
      <trkpt lat="39.95148" lon="-4.58191">
        <ele>431.6</ele>
        <time>2020-08-16 13:05:19</time>
      </trkpt>
      <trkpt lat="39.95149" lon="-4.58198">
        <ele>431.2</ele>
        <time>2020-08-16 13:05:20</time>
      </trkpt>
      <trkpt lat="39.9515" lon="-4.58205">
        <ele>431</ele>
        <time>2020-08-16 13:05:21</time>
      </trkpt>
      <trkpt lat="39.95151" lon="-4.58213">
        <ele>430.4</ele>
        <time>2020-08-16 13:05:22</time>
      </trkpt>
      <trkpt lat="39.95152" lon="-4.5822">
        <ele>429.8</ele>
        <time>2020-08-16 13:05:23</time>
      </trkpt>
      <trkpt lat="39.95153" lon="-4.58227">
        <ele>429.6</ele>
        <time>2020-08-16 13:05:24</time>
      </trkpt>
      <trkpt lat="39.95158" lon="-4.58263">
        <ele>429</ele>
        <time>2020-08-16 13:05:29</time>
      </trkpt>
      <trkpt lat="39.95159" lon="-4.5827">
        <ele>428.8</ele>
        <time>2020-08-16 13:05:30</time>
      </trkpt>
      <trkpt lat="39.9516" lon="-4.58277">
        <ele>428.8</ele>
        <time>2020-08-16 13:05:31</time>
      </trkpt>
      <trkpt lat="39.95161" lon="-4.58283">
        <ele>428.8</ele>
        <time>2020-08-16 13:05:32</time>
      </trkpt>
      <trkpt lat="39.95162" lon="-4.5829">
        <ele>428.8</ele>
        <time>2020-08-16 13:05:33</time>
      </trkpt>
      <trkpt lat="39.95163" lon="-4.58296">
        <ele>428.8</ele>
        <time>2020-08-16 13:05:34</time>
      </trkpt>
      <trkpt lat="39.95165" lon="-4.58301">
        <ele>428.8</ele>
        <time>2020-08-16 13:05:35</time>
      </trkpt>
      <trkpt lat="39.95167" lon="-4.58306">
        <ele>428.8</ele>
        <time>2020-08-16 13:05:36</time>
      </trkpt>
      <trkpt lat="39.9517" lon="-4.5831">
        <ele>428.8</ele>
        <time>2020-08-16 13:05:37</time>
      </trkpt>
      <trkpt lat="39.95173" lon="-4.58313">
        <ele>429</ele>
        <time>2020-08-16 13:05:38</time>
      </trkpt>
      <trkpt lat="39.95177" lon="-4.58315">
        <ele>429</ele>
        <time>2020-08-16 13:05:39</time>
      </trkpt>
      <trkpt lat="39.9518" lon="-4.58316">
        <ele>429.2</ele>
        <time>2020-08-16 13:05:40</time>
      </trkpt>
      <trkpt lat="39.95184" lon="-4.58317">
        <ele>429.4</ele>
        <time>2020-08-16 13:05:41</time>
      </trkpt>
      <trkpt lat="39.95187" lon="-4.58318">
        <ele>429.6</ele>
        <time>2020-08-16 13:05:42</time>
      </trkpt>
      <trkpt lat="39.95191" lon="-4.58319">
        <ele>429.6</ele>
        <time>2020-08-16 13:05:43</time>
      </trkpt>
      <trkpt lat="39.95194" lon="-4.58319">
        <ele>429.8</ele>
        <time>2020-08-16 13:05:44</time>
      </trkpt>
      <trkpt lat="39.95197" lon="-4.58321">
        <ele>430.2</ele>
        <time>2020-08-16 13:05:45</time>
      </trkpt>
      <trkpt lat="39.95201" lon="-4.58322">
        <ele>430.4</ele>
        <time>2020-08-16 13:05:46</time>
      </trkpt>
      <trkpt lat="39.95203" lon="-4.58323">
        <ele>430.6</ele>
        <time>2020-08-16 13:05:47</time>
      </trkpt>
      <trkpt lat="39.95206" lon="-4.58324">
        <ele>430.8</ele>
        <time>2020-08-16 13:05:48</time>
      </trkpt>
      <trkpt lat="39.95208" lon="-4.58326">
        <ele>431</ele>
        <time>2020-08-16 13:05:49</time>
      </trkpt>
      <trkpt lat="39.9521" lon="-4.58327">
        <ele>431</ele>
        <time>2020-08-16 13:05:50</time>
      </trkpt>
      <trkpt lat="39.95213" lon="-4.58328">
        <ele>431.6</ele>
        <time>2020-08-16 13:05:51</time>
      </trkpt>
      <trkpt lat="39.95215" lon="-4.58329">
        <ele>432</ele>
        <time>2020-08-16 13:05:52</time>
      </trkpt>
      <trkpt lat="39.95217" lon="-4.5833">
        <ele>432.2</ele>
        <time>2020-08-16 13:05:53</time>
      </trkpt>
      <trkpt lat="39.95218" lon="-4.58332">
        <ele>432.6</ele>
        <time>2020-08-16 13:05:54</time>
      </trkpt>
      <trkpt lat="39.9522" lon="-4.58333">
        <ele>432.8</ele>
        <time>2020-08-16 13:05:55</time>
      </trkpt>
      <trkpt lat="39.95221" lon="-4.58336">
        <ele>433</ele>
        <time>2020-08-16 13:05:56</time>
      </trkpt>
      <trkpt lat="39.95222" lon="-4.58338">
        <ele>433.2</ele>
        <time>2020-08-16 13:05:57</time>
      </trkpt>
      <trkpt lat="39.95223" lon="-4.5834">
        <ele>433.4</ele>
        <time>2020-08-16 13:05:58</time>
      </trkpt>
      <trkpt lat="39.95224" lon="-4.58342">
        <ele>433.6</ele>
        <time>2020-08-16 13:05:59</time>
      </trkpt>
      <trkpt lat="39.95225" lon="-4.58345">
        <ele>433.8</ele>
        <time>2020-08-16 13:06:00</time>
      </trkpt>
      <trkpt lat="39.95225" lon="-4.58347">
        <ele>433.8</ele>
        <time>2020-08-16 13:06:01</time>
      </trkpt>
      <trkpt lat="39.95225" lon="-4.5835">
        <ele>434</ele>
        <time>2020-08-16 13:06:02</time>
      </trkpt>
      <trkpt lat="39.95225" lon="-4.58353">
        <ele>434</ele>
        <time>2020-08-16 13:06:03</time>
      </trkpt>
      <trkpt lat="39.95225" lon="-4.58357">
        <ele>434.2</ele>
        <time>2020-08-16 13:06:04</time>
      </trkpt>
      <trkpt lat="39.95224" lon="-4.58361">
        <ele>434.6</ele>
        <time>2020-08-16 13:06:05</time>
      </trkpt>
      <trkpt lat="39.95223" lon="-4.58365">
        <ele>434.6</ele>
        <time>2020-08-16 13:06:06</time>
      </trkpt>
      <trkpt lat="39.95223" lon="-4.5837">
        <ele>434.8</ele>
        <time>2020-08-16 13:06:07</time>
      </trkpt>
      <trkpt lat="39.95223" lon="-4.58374">
        <ele>434.8</ele>
        <time>2020-08-16 13:06:08</time>
      </trkpt>
      <trkpt lat="39.95223" lon="-4.58379">
        <ele>434.8</ele>
        <time>2020-08-16 13:06:09</time>
      </trkpt>
      <trkpt lat="39.95223" lon="-4.58384">
        <ele>434.8</ele>
        <time>2020-08-16 13:06:10</time>
      </trkpt>
      <trkpt lat="39.95222" lon="-4.58388">
        <ele>434.8</ele>
        <time>2020-08-16 13:06:11</time>
      </trkpt>
      <trkpt lat="39.95222" lon="-4.58392">
        <ele>434.8</ele>
        <time>2020-08-16 13:06:12</time>
      </trkpt>
      <trkpt lat="39.95223" lon="-4.58396">
        <ele>434.8</ele>
        <time>2020-08-16 13:06:13</time>
      </trkpt>
      <trkpt lat="39.95223" lon="-4.584">
        <ele>434.8</ele>
        <time>2020-08-16 13:06:14</time>
      </trkpt>
      <trkpt lat="39.95225" lon="-4.58403">
        <ele>434.8</ele>
        <time>2020-08-16 13:06:15</time>
      </trkpt>
      <trkpt lat="39.95225" lon="-4.58404">
        <ele>434.8</ele>
        <time>2020-08-16 13:06:16</time>
      </trkpt>
      <trkpt lat="39.95225" lon="-4.58404">
        <ele>434.8</ele>
        <time>2020-08-16 13:06:17</time>
      </trkpt>
      <trkpt lat="39.95225" lon="-4.58404">
        <ele>434.8</ele>
        <time>2020-08-16 13:06:18</time>
      </trkpt>
      <trkpt lat="39.95223" lon="-4.58409">
        <ele>435.2</ele>
        <time>2020-08-16 13:07:21</time>
      </trkpt>
      <trkpt lat="39.95222" lon="-4.58412">
        <ele>435.4</ele>
        <time>2020-08-16 13:07:22</time>
      </trkpt>
      <trkpt lat="39.95221" lon="-4.58415">
        <ele>435.4</ele>
        <time>2020-08-16 13:07:23</time>
      </trkpt>
      <trkpt lat="39.95218" lon="-4.58423">
        <ele>435.4</ele>
        <time>2020-08-16 13:07:25</time>
      </trkpt>
      <trkpt lat="39.95217" lon="-4.58426">
        <ele>435.2</ele>
        <time>2020-08-16 13:07:26</time>
      </trkpt>
      <trkpt lat="39.95216" lon="-4.58428">
        <ele>435.2</ele>
        <time>2020-08-16 13:07:27</time>
      </trkpt>
      <trkpt lat="39.95215" lon="-4.58431">
        <ele>435</ele>
        <time>2020-08-16 13:07:28</time>
      </trkpt>
      <trkpt lat="39.95214" lon="-4.58434">
        <ele>435</ele>
        <time>2020-08-16 13:07:29</time>
      </trkpt>
      <trkpt lat="39.95213" lon="-4.58436">
        <ele>434.8</ele>
        <time>2020-08-16 13:07:30</time>
      </trkpt>
      <trkpt lat="39.95211" lon="-4.58439">
        <ele>434.8</ele>
        <time>2020-08-16 13:07:31</time>
      </trkpt>
      <trkpt lat="39.95205" lon="-4.58446">
        <ele>434.6</ele>
        <time>2020-08-16 13:07:33</time>
      </trkpt>
      <trkpt lat="39.95201" lon="-4.5845">
        <ele>434.4</ele>
        <time>2020-08-16 13:07:34</time>
      </trkpt>
      <trkpt lat="39.95197" lon="-4.58452">
        <ele>434.4</ele>
        <time>2020-08-16 13:07:35</time>
      </trkpt>
      <trkpt lat="39.95192" lon="-4.58455">
        <ele>434.4</ele>
        <time>2020-08-16 13:07:36</time>
      </trkpt>
      <trkpt lat="39.95187" lon="-4.58457">
        <ele>434.4</ele>
        <time>2020-08-16 13:07:37</time>
      </trkpt>
      <trkpt lat="39.95182" lon="-4.58458">
        <ele>434.2</ele>
        <time>2020-08-16 13:07:38</time>
      </trkpt>
      <trkpt lat="39.95177" lon="-4.58459">
        <ele>434</ele>
        <time>2020-08-16 13:07:39</time>
      </trkpt>
      <trkpt lat="39.95173" lon="-4.58459">
        <ele>433.8</ele>
        <time>2020-08-16 13:07:40</time>
      </trkpt>
      <trkpt lat="39.9517" lon="-4.5846">
        <ele>433.4</ele>
        <time>2020-08-16 13:07:41</time>
      </trkpt>
      <trkpt lat="39.95167" lon="-4.58461">
        <ele>433.2</ele>
        <time>2020-08-16 13:07:42</time>
      </trkpt>
      <trkpt lat="39.95164" lon="-4.58462">
        <ele>433</ele>
        <time>2020-08-16 13:07:43</time>
      </trkpt>
      <trkpt lat="39.9516" lon="-4.58462">
        <ele>432.6</ele>
        <time>2020-08-16 13:07:44</time>
      </trkpt>
      <trkpt lat="39.95156" lon="-4.58461">
        <ele>432</ele>
        <time>2020-08-16 13:07:45</time>
      </trkpt>
      <trkpt lat="39.95136" lon="-4.58458">
        <ele>430.8</ele>
        <time>2020-08-16 13:07:49</time>
      </trkpt>
      <trkpt lat="39.9513" lon="-4.58458">
        <ele>430.8</ele>
        <time>2020-08-16 13:07:50</time>
      </trkpt>
      <trkpt lat="39.95125" lon="-4.58457">
        <ele>430.6</ele>
        <time>2020-08-16 13:07:51</time>
      </trkpt>
      <trkpt lat="39.95121" lon="-4.58458">
        <ele>430</ele>
        <time>2020-08-16 13:07:52</time>
      </trkpt>
      <trkpt lat="39.95117" lon="-4.58461">
        <ele>429.2</ele>
        <time>2020-08-16 13:07:53</time>
      </trkpt>
      <trkpt lat="39.95114" lon="-4.58465">
        <ele>429</ele>
        <time>2020-08-16 13:07:54</time>
      </trkpt>
      <trkpt lat="39.95113" lon="-4.58471">
        <ele>428.2</ele>
        <time>2020-08-16 13:07:55</time>
      </trkpt>
      <trkpt lat="39.95112" lon="-4.58477">
        <ele>428</ele>
        <time>2020-08-16 13:07:56</time>
      </trkpt>
      <trkpt lat="39.95111" lon="-4.58484">
        <ele>427</ele>
        <time>2020-08-16 13:07:57</time>
      </trkpt>
      <trkpt lat="39.95112" lon="-4.5849">
        <ele>426.2</ele>
        <time>2020-08-16 13:07:58</time>
      </trkpt>
      <trkpt lat="39.95112" lon="-4.58497">
        <ele>425.8</ele>
        <time>2020-08-16 13:07:59</time>
      </trkpt>
      <trkpt lat="39.95113" lon="-4.58504">
        <ele>425</ele>
        <time>2020-08-16 13:08:00</time>
      </trkpt>
      <trkpt lat="39.95115" lon="-4.5851">
        <ele>424.8</ele>
        <time>2020-08-16 13:08:01</time>
      </trkpt>
      <trkpt lat="39.95116" lon="-4.58515">
        <ele>424.4</ele>
        <time>2020-08-16 13:08:02</time>
      </trkpt>
      <trkpt lat="39.95118" lon="-4.5852">
        <ele>424</ele>
        <time>2020-08-16 13:08:03</time>
      </trkpt>
      <trkpt lat="39.9512" lon="-4.58525">
        <ele>424</ele>
        <time>2020-08-16 13:08:04</time>
      </trkpt>
      <trkpt lat="39.95123" lon="-4.5853">
        <ele>423.6</ele>
        <time>2020-08-16 13:08:05</time>
      </trkpt>
      <trkpt lat="39.95125" lon="-4.58533">
        <ele>423.6</ele>
        <time>2020-08-16 13:08:06</time>
      </trkpt>
      <trkpt lat="39.95128" lon="-4.58536">
        <ele>423.4</ele>
        <time>2020-08-16 13:08:07</time>
      </trkpt>
      <trkpt lat="39.9513" lon="-4.58539">
        <ele>423.4</ele>
        <time>2020-08-16 13:08:08</time>
      </trkpt>
      <trkpt lat="39.95131" lon="-4.58541">
        <ele>423.4</ele>
        <time>2020-08-16 13:08:09</time>
      </trkpt>
      <trkpt lat="39.95132" lon="-4.58543">
        <ele>423.4</ele>
        <time>2020-08-16 13:08:10</time>
      </trkpt>
      <trkpt lat="39.95134" lon="-4.58545">
        <ele>423.4</ele>
        <time>2020-08-16 13:08:11</time>
      </trkpt>
      <trkpt lat="39.95135" lon="-4.58547">
        <ele>423.6</ele>
        <time>2020-08-16 13:08:12</time>
      </trkpt>
      <trkpt lat="39.95135" lon="-4.58548">
        <ele>423.6</ele>
        <time>2020-08-16 13:08:13</time>
      </trkpt>
      <trkpt lat="39.95135" lon="-4.5855">
        <ele>423.8</ele>
        <time>2020-08-16 13:08:14</time>
      </trkpt>
      <trkpt lat="39.95136" lon="-4.58551">
        <ele>424</ele>
        <time>2020-08-16 13:08:15</time>
      </trkpt>
      <trkpt lat="39.95136" lon="-4.58552">
        <ele>424</ele>
        <time>2020-08-16 13:08:16</time>
      </trkpt>
      <trkpt lat="39.95136" lon="-4.58552">
        <ele>424.2</ele>
        <time>2020-08-16 13:08:17</time>
      </trkpt>
      <trkpt lat="39.95136" lon="-4.58552">
        <ele>424.4</ele>
        <time>2020-08-16 13:08:18</time>
      </trkpt>
      <trkpt lat="39.95166" lon="-4.58643">
        <ele>427.6</ele>
        <time>2020-08-16 13:10:29</time>
      </trkpt>
      <trkpt lat="39.95168" lon="-4.58645">
        <ele>427.6</ele>
        <time>2020-08-16 13:10:30</time>
      </trkpt>
      <trkpt lat="39.9517" lon="-4.58651">
        <ele>427.8</ele>
        <time>2020-08-16 13:10:32</time>
      </trkpt>
      <trkpt lat="39.95175" lon="-4.58661">
        <ele>427.8</ele>
        <time>2020-08-16 13:10:36</time>
      </trkpt>
      <trkpt lat="39.95176" lon="-4.58664">
        <ele>427.8</ele>
        <time>2020-08-16 13:10:37</time>
      </trkpt>
      <trkpt lat="39.9518" lon="-4.58671">
        <ele>427.8</ele>
        <time>2020-08-16 13:10:40</time>
      </trkpt>
      <trkpt lat="39.95181" lon="-4.58674">
        <ele>427.8</ele>
        <time>2020-08-16 13:10:41</time>
      </trkpt>
      <trkpt lat="39.95182" lon="-4.58677">
        <ele>428</ele>
        <time>2020-08-16 13:10:42</time>
      </trkpt>
      <trkpt lat="39.95183" lon="-4.58679">
        <ele>428</ele>
        <time>2020-08-16 13:10:43</time>
      </trkpt>
      <trkpt lat="39.95185" lon="-4.58681">
        <ele>428</ele>
        <time>2020-08-16 13:10:44</time>
      </trkpt>
      <trkpt lat="39.95186" lon="-4.58684">
        <ele>428</ele>
        <time>2020-08-16 13:10:45</time>
      </trkpt>
      <trkpt lat="39.95187" lon="-4.58687">
        <ele>428</ele>
        <time>2020-08-16 13:10:46</time>
      </trkpt>
      <trkpt lat="39.95189" lon="-4.5869">
        <ele>428</ele>
        <time>2020-08-16 13:10:47</time>
      </trkpt>
      <trkpt lat="39.95193" lon="-4.587">
        <ele>428.2</ele>
        <time>2020-08-16 13:10:50</time>
      </trkpt>
      <trkpt lat="39.95197" lon="-4.58714">
        <ele>428.2</ele>
        <time>2020-08-16 13:10:54</time>
      </trkpt>
      <trkpt lat="39.95198" lon="-4.58717">
        <ele>428</ele>
        <time>2020-08-16 13:10:55</time>
      </trkpt>
      <trkpt lat="39.95201" lon="-4.58731">
        <ele>428</ele>
        <time>2020-08-16 13:10:59</time>
      </trkpt>
      <trkpt lat="39.95202" lon="-4.58734">
        <ele>428</ele>
        <time>2020-08-16 13:11:00</time>
      </trkpt>
      <trkpt lat="39.95203" lon="-4.58738">
        <ele>428</ele>
        <time>2020-08-16 13:11:01</time>
      </trkpt>
      <trkpt lat="39.95204" lon="-4.58741">
        <ele>428.2</ele>
        <time>2020-08-16 13:11:02</time>
      </trkpt>
      <trkpt lat="39.95205" lon="-4.58744">
        <ele>428.2</ele>
        <time>2020-08-16 13:11:03</time>
      </trkpt>
      <trkpt lat="39.95206" lon="-4.58747">
        <ele>428.4</ele>
        <time>2020-08-16 13:11:04</time>
      </trkpt>
      <trkpt lat="39.95207" lon="-4.5875">
        <ele>428.4</ele>
        <time>2020-08-16 13:11:05</time>
      </trkpt>
      <trkpt lat="39.95208" lon="-4.58754">
        <ele>428.4</ele>
        <time>2020-08-16 13:11:06</time>
      </trkpt>
      <trkpt lat="39.95209" lon="-4.58757">
        <ele>428.6</ele>
        <time>2020-08-16 13:11:07</time>
      </trkpt>
      <trkpt lat="39.9521" lon="-4.5876">
        <ele>428.6</ele>
        <time>2020-08-16 13:11:08</time>
      </trkpt>
      <trkpt lat="39.95211" lon="-4.58763">
        <ele>428.8</ele>
        <time>2020-08-16 13:11:09</time>
      </trkpt>
      <trkpt lat="39.95212" lon="-4.58765">
        <ele>428.8</ele>
        <time>2020-08-16 13:11:10</time>
      </trkpt>
      <trkpt lat="39.95213" lon="-4.58769">
        <ele>428.8</ele>
        <time>2020-08-16 13:11:11</time>
      </trkpt>
      <trkpt lat="39.95213" lon="-4.58772">
        <ele>428.8</ele>
        <time>2020-08-16 13:11:12</time>
      </trkpt>
      <trkpt lat="39.95214" lon="-4.58775">
        <ele>428.8</ele>
        <time>2020-08-16 13:11:13</time>
      </trkpt>
      <trkpt lat="39.95215" lon="-4.58778">
        <ele>428.8</ele>
        <time>2020-08-16 13:11:14</time>
      </trkpt>
      <trkpt lat="39.95216" lon="-4.58781">
        <ele>428.8</ele>
        <time>2020-08-16 13:11:15</time>
      </trkpt>
      <trkpt lat="39.95217" lon="-4.58784">
        <ele>429</ele>
        <time>2020-08-16 13:11:16</time>
      </trkpt>
      <trkpt lat="39.95218" lon="-4.58786">
        <ele>429</ele>
        <time>2020-08-16 13:11:17</time>
      </trkpt>
      <trkpt lat="39.95219" lon="-4.58789">
        <ele>429</ele>
        <time>2020-08-16 13:11:18</time>
      </trkpt>
      <trkpt lat="39.9522" lon="-4.58792">
        <ele>429</ele>
        <time>2020-08-16 13:11:19</time>
      </trkpt>
      <trkpt lat="39.9522" lon="-4.58795">
        <ele>429</ele>
        <time>2020-08-16 13:11:20</time>
      </trkpt>
      <trkpt lat="39.95221" lon="-4.58798">
        <ele>429</ele>
        <time>2020-08-16 13:11:21</time>
      </trkpt>
      <trkpt lat="39.95222" lon="-4.58801">
        <ele>429.2</ele>
        <time>2020-08-16 13:11:22</time>
      </trkpt>
      <trkpt lat="39.95223" lon="-4.58804">
        <ele>429.2</ele>
        <time>2020-08-16 13:11:23</time>
      </trkpt>
      <trkpt lat="39.95224" lon="-4.58807">
        <ele>429.2</ele>
        <time>2020-08-16 13:11:24</time>
      </trkpt>
      <trkpt lat="39.95225" lon="-4.5881">
        <ele>429.2</ele>
        <time>2020-08-16 13:11:25</time>
      </trkpt>
      <trkpt lat="39.95225" lon="-4.58813">
        <ele>429.4</ele>
        <time>2020-08-16 13:11:26</time>
      </trkpt>
      <trkpt lat="39.95226" lon="-4.58821">
        <ele>429.4</ele>
        <time>2020-08-16 13:11:28</time>
      </trkpt>
      <trkpt lat="39.95227" lon="-4.58829">
        <ele>429.4</ele>
        <time>2020-08-16 13:11:30</time>
      </trkpt>
      <trkpt lat="39.95229" lon="-4.58848">
        <ele>429.8</ele>
        <time>2020-08-16 13:11:35</time>
      </trkpt>
      <trkpt lat="39.95229" lon="-4.58854">
        <ele>429.8</ele>
        <time>2020-08-16 13:11:37</time>
      </trkpt>
      <trkpt lat="39.9523" lon="-4.58857">
        <ele>430</ele>
        <time>2020-08-16 13:11:38</time>
      </trkpt>
      <trkpt lat="39.9523" lon="-4.58859">
        <ele>430</ele>
        <time>2020-08-16 13:11:39</time>
      </trkpt>
      <trkpt lat="39.9523" lon="-4.58862">
        <ele>430</ele>
        <time>2020-08-16 13:11:40</time>
      </trkpt>
      <trkpt lat="39.9523" lon="-4.58865">
        <ele>430.2</ele>
        <time>2020-08-16 13:11:41</time>
      </trkpt>
      <trkpt lat="39.9523" lon="-4.58868">
        <ele>430.2</ele>
        <time>2020-08-16 13:11:42</time>
      </trkpt>
      <trkpt lat="39.95231" lon="-4.58871">
        <ele>430.4</ele>
        <time>2020-08-16 13:11:43</time>
      </trkpt>
      <trkpt lat="39.95231" lon="-4.58873">
        <ele>430.6</ele>
        <time>2020-08-16 13:11:44</time>
      </trkpt>
      <trkpt lat="39.95232" lon="-4.58876">
        <ele>430.6</ele>
        <time>2020-08-16 13:11:45</time>
      </trkpt>
      <trkpt lat="39.95232" lon="-4.58879">
        <ele>430.8</ele>
        <time>2020-08-16 13:11:46</time>
      </trkpt>
      <trkpt lat="39.95233" lon="-4.58882">
        <ele>430.8</ele>
        <time>2020-08-16 13:11:47</time>
      </trkpt>
      <trkpt lat="39.95233" lon="-4.58886">
        <ele>430.8</ele>
        <time>2020-08-16 13:11:48</time>
      </trkpt>
      <trkpt lat="39.95234" lon="-4.58902">
        <ele>431</ele>
        <time>2020-08-16 13:11:53</time>
      </trkpt>
      <trkpt lat="39.95235" lon="-4.58909">
        <ele>431</ele>
        <time>2020-08-16 13:11:55</time>
      </trkpt>
      <trkpt lat="39.95235" lon="-4.58912">
        <ele>431.2</ele>
        <time>2020-08-16 13:11:56</time>
      </trkpt>
      <trkpt lat="39.95236" lon="-4.58922">
        <ele>431.2</ele>
        <time>2020-08-16 13:11:59</time>
      </trkpt>
      <trkpt lat="39.95237" lon="-4.58925">
        <ele>431.2</ele>
        <time>2020-08-16 13:12:00</time>
      </trkpt>
      <trkpt lat="39.95237" lon="-4.58928">
        <ele>431.2</ele>
        <time>2020-08-16 13:12:01</time>
      </trkpt>
      <trkpt lat="39.95238" lon="-4.58932">
        <ele>431.2</ele>
        <time>2020-08-16 13:12:02</time>
      </trkpt>
      <trkpt lat="39.9524" lon="-4.5895">
        <ele>431.4</ele>
        <time>2020-08-16 13:12:07</time>
      </trkpt>
      <trkpt lat="39.95242" lon="-4.5896">
        <ele>431.6</ele>
        <time>2020-08-16 13:12:10</time>
      </trkpt>
      <trkpt lat="39.95246" lon="-4.58988">
        <ele>432</ele>
        <time>2020-08-16 13:12:17</time>
      </trkpt>
      <trkpt lat="39.95247" lon="-4.58991">
        <ele>432</ele>
        <time>2020-08-16 13:12:18</time>
      </trkpt>
      <trkpt lat="39.95248" lon="-4.58999">
        <ele>432</ele>
        <time>2020-08-16 13:12:20</time>
      </trkpt>
      <trkpt lat="39.95249" lon="-4.59011">
        <ele>432.2</ele>
        <time>2020-08-16 13:12:23</time>
      </trkpt>
      <trkpt lat="39.95252" lon="-4.59022">
        <ele>432.2</ele>
        <time>2020-08-16 13:12:26</time>
      </trkpt>
      <trkpt lat="39.95253" lon="-4.59026">
        <ele>432.2</ele>
        <time>2020-08-16 13:12:27</time>
      </trkpt>
      <trkpt lat="39.95254" lon="-4.5903">
        <ele>432.2</ele>
        <time>2020-08-16 13:12:28</time>
      </trkpt>
      <trkpt lat="39.95255" lon="-4.59033">
        <ele>432.2</ele>
        <time>2020-08-16 13:12:29</time>
      </trkpt>
      <trkpt lat="39.95256" lon="-4.59037">
        <ele>432.2</ele>
        <time>2020-08-16 13:12:30</time>
      </trkpt>
      <trkpt lat="39.95257" lon="-4.5904">
        <ele>432.4</ele>
        <time>2020-08-16 13:12:31</time>
      </trkpt>
      <trkpt lat="39.95259" lon="-4.59044">
        <ele>432.4</ele>
        <time>2020-08-16 13:12:32</time>
      </trkpt>
      <trkpt lat="39.9526" lon="-4.59047">
        <ele>432.4</ele>
        <time>2020-08-16 13:12:33</time>
      </trkpt>
      <trkpt lat="39.95264" lon="-4.59059">
        <ele>432.4</ele>
        <time>2020-08-16 13:12:36</time>
      </trkpt>
      <trkpt lat="39.95265" lon="-4.59063">
        <ele>432.4</ele>
        <time>2020-08-16 13:12:37</time>
      </trkpt>
      <trkpt lat="39.95267" lon="-4.59072">
        <ele>432.4</ele>
        <time>2020-08-16 13:12:39</time>
      </trkpt>
      <trkpt lat="39.95267" lon="-4.59076">
        <ele>432.4</ele>
        <time>2020-08-16 13:12:40</time>
      </trkpt>
      <trkpt lat="39.95269" lon="-4.59088">
        <ele>432.2</ele>
        <time>2020-08-16 13:12:43</time>
      </trkpt>
      <trkpt lat="39.95269" lon="-4.59106">
        <ele>432</ele>
        <time>2020-08-16 13:12:47</time>
      </trkpt>
      <trkpt lat="39.95269" lon="-4.59111">
        <ele>432</ele>
        <time>2020-08-16 13:12:48</time>
      </trkpt>
      <trkpt lat="39.95269" lon="-4.59115">
        <ele>432</ele>
        <time>2020-08-16 13:12:49</time>
      </trkpt>
      <trkpt lat="39.95269" lon="-4.59119">
        <ele>432</ele>
        <time>2020-08-16 13:12:50</time>
      </trkpt>
      <trkpt lat="39.95269" lon="-4.59122">
        <ele>432</ele>
        <time>2020-08-16 13:12:51</time>
      </trkpt>
      <trkpt lat="39.95269" lon="-4.59126">
        <ele>432</ele>
        <time>2020-08-16 13:12:52</time>
      </trkpt>
      <trkpt lat="39.9527" lon="-4.5913">
        <ele>432</ele>
        <time>2020-08-16 13:12:53</time>
      </trkpt>
      <trkpt lat="39.95269" lon="-4.59135">
        <ele>432</ele>
        <time>2020-08-16 13:12:54</time>
      </trkpt>
      <trkpt lat="39.95269" lon="-4.59158">
        <ele>432.2</ele>
        <time>2020-08-16 13:12:59</time>
      </trkpt>
      <trkpt lat="39.95267" lon="-4.59171">
        <ele>432</ele>
        <time>2020-08-16 13:13:02</time>
      </trkpt>
      <trkpt lat="39.95266" lon="-4.5918">
        <ele>432</ele>
        <time>2020-08-16 13:13:04</time>
      </trkpt>
      <trkpt lat="39.95267" lon="-4.59189">
        <ele>431.8</ele>
        <time>2020-08-16 13:13:06</time>
      </trkpt>
      <trkpt lat="39.95267" lon="-4.59198">
        <ele>431.8</ele>
        <time>2020-08-16 13:13:08</time>
      </trkpt>
      <trkpt lat="39.95268" lon="-4.59203">
        <ele>431.8</ele>
        <time>2020-08-16 13:13:09</time>
      </trkpt>
      <trkpt lat="39.9527" lon="-4.59225">
        <ele>431.6</ele>
        <time>2020-08-16 13:13:14</time>
      </trkpt>
      <trkpt lat="39.9527" lon="-4.59229">
        <ele>431.6</ele>
        <time>2020-08-16 13:13:15</time>
      </trkpt>
      <trkpt lat="39.95271" lon="-4.59232">
        <ele>431.6</ele>
        <time>2020-08-16 13:13:16</time>
      </trkpt>
      <trkpt lat="39.95271" lon="-4.59235">
        <ele>431.8</ele>
        <time>2020-08-16 13:13:17</time>
      </trkpt>
      <trkpt lat="39.95271" lon="-4.59239">
        <ele>431.8</ele>
        <time>2020-08-16 13:13:18</time>
      </trkpt>
      <trkpt lat="39.95271" lon="-4.59242">
        <ele>431.8</ele>
        <time>2020-08-16 13:13:19</time>
      </trkpt>
      <trkpt lat="39.9527" lon="-4.59247">
        <ele>431.8</ele>
        <time>2020-08-16 13:13:20</time>
      </trkpt>
      <trkpt lat="39.9527" lon="-4.59266">
        <ele>431.6</ele>
        <time>2020-08-16 13:13:24</time>
      </trkpt>
      <trkpt lat="39.95269" lon="-4.59282">
        <ele>431.4</ele>
        <time>2020-08-16 13:13:27</time>
      </trkpt>
      <trkpt lat="39.95269" lon="-4.59288">
        <ele>431.4</ele>
        <time>2020-08-16 13:13:28</time>
      </trkpt>
      <trkpt lat="39.95266" lon="-4.59304">
        <ele>431</ele>
        <time>2020-08-16 13:13:31</time>
      </trkpt>
      <trkpt lat="39.95265" lon="-4.5931">
        <ele>430.8</ele>
        <time>2020-08-16 13:13:32</time>
      </trkpt>
      <trkpt lat="39.9526" lon="-4.59343">
        <ele>430.6</ele>
        <time>2020-08-16 13:13:38</time>
      </trkpt>
      <trkpt lat="39.95259" lon="-4.59348">
        <ele>430.6</ele>
        <time>2020-08-16 13:13:39</time>
      </trkpt>
      <trkpt lat="39.95259" lon="-4.59354">
        <ele>430.6</ele>
        <time>2020-08-16 13:13:40</time>
      </trkpt>
      <trkpt lat="39.95258" lon="-4.59359">
        <ele>430.6</ele>
        <time>2020-08-16 13:13:41</time>
      </trkpt>
      <trkpt lat="39.95257" lon="-4.59364">
        <ele>430.6</ele>
        <time>2020-08-16 13:13:42</time>
      </trkpt>
      <trkpt lat="39.95257" lon="-4.59369">
        <ele>430.8</ele>
        <time>2020-08-16 13:13:43</time>
      </trkpt>
      <trkpt lat="39.95257" lon="-4.59374">
        <ele>430.8</ele>
        <time>2020-08-16 13:13:44</time>
      </trkpt>
      <trkpt lat="39.95257" lon="-4.5938">
        <ele>430.8</ele>
        <time>2020-08-16 13:13:45</time>
      </trkpt>
      <trkpt lat="39.95257" lon="-4.59386">
        <ele>430.8</ele>
        <time>2020-08-16 13:13:46</time>
      </trkpt>
      <trkpt lat="39.95258" lon="-4.59391">
        <ele>430.8</ele>
        <time>2020-08-16 13:13:47</time>
      </trkpt>
      <trkpt lat="39.95259" lon="-4.59396">
        <ele>430.8</ele>
        <time>2020-08-16 13:13:48</time>
      </trkpt>
      <trkpt lat="39.95259" lon="-4.59401">
        <ele>430.8</ele>
        <time>2020-08-16 13:13:49</time>
      </trkpt>
      <trkpt lat="39.9526" lon="-4.59406">
        <ele>430.6</ele>
        <time>2020-08-16 13:13:50</time>
      </trkpt>
      <trkpt lat="39.9526" lon="-4.59411">
        <ele>430.6</ele>
        <time>2020-08-16 13:13:51</time>
      </trkpt>
      <trkpt lat="39.95261" lon="-4.59415">
        <ele>430.6</ele>
        <time>2020-08-16 13:13:52</time>
      </trkpt>
      <trkpt lat="39.95262" lon="-4.5942">
        <ele>430.4</ele>
        <time>2020-08-16 13:13:53</time>
      </trkpt>
      <trkpt lat="39.95262" lon="-4.59424">
        <ele>430.4</ele>
        <time>2020-08-16 13:13:54</time>
      </trkpt>
      <trkpt lat="39.95263" lon="-4.59429">
        <ele>430.4</ele>
        <time>2020-08-16 13:13:55</time>
      </trkpt>
      <trkpt lat="39.95263" lon="-4.59433">
        <ele>430.4</ele>
        <time>2020-08-16 13:13:56</time>
      </trkpt>
      <trkpt lat="39.95263" lon="-4.59438">
        <ele>430.4</ele>
        <time>2020-08-16 13:13:57</time>
      </trkpt>
      <trkpt lat="39.95263" lon="-4.59442">
        <ele>430.6</ele>
        <time>2020-08-16 13:13:58</time>
      </trkpt>
      <trkpt lat="39.95262" lon="-4.59447">
        <ele>430.6</ele>
        <time>2020-08-16 13:13:59</time>
      </trkpt>
      <trkpt lat="39.95261" lon="-4.59452">
        <ele>430.6</ele>
        <time>2020-08-16 13:14:00</time>
      </trkpt>
      <trkpt lat="39.9526" lon="-4.59457">
        <ele>430.8</ele>
        <time>2020-08-16 13:14:01</time>
      </trkpt>
      <trkpt lat="39.95259" lon="-4.59463">
        <ele>430.6</ele>
        <time>2020-08-16 13:14:02</time>
      </trkpt>
      <trkpt lat="39.95255" lon="-4.59473">
        <ele>430.6</ele>
        <time>2020-08-16 13:14:04</time>
      </trkpt>
      <trkpt lat="39.95253" lon="-4.59478">
        <ele>430.6</ele>
        <time>2020-08-16 13:14:05</time>
      </trkpt>
      <trkpt lat="39.95248" lon="-4.59493">
        <ele>430.4</ele>
        <time>2020-08-16 13:14:08</time>
      </trkpt>
      <trkpt lat="39.95244" lon="-4.59504">
        <ele>430</ele>
        <time>2020-08-16 13:14:10</time>
      </trkpt>
      <trkpt lat="39.95243" lon="-4.59507">
        <ele>429.8</ele>
        <time>2020-08-16 13:14:11</time>
      </trkpt>
      <trkpt lat="39.95241" lon="-4.5951">
        <ele>429.6</ele>
        <time>2020-08-16 13:14:12</time>
      </trkpt>
      <trkpt lat="39.95239" lon="-4.59512">
        <ele>429.4</ele>
        <time>2020-08-16 13:14:13</time>
      </trkpt>
      <trkpt lat="39.95237" lon="-4.59514">
        <ele>429.4</ele>
        <time>2020-08-16 13:14:14</time>
      </trkpt>
      <trkpt lat="39.95235" lon="-4.59516">
        <ele>429</ele>
        <time>2020-08-16 13:14:15</time>
      </trkpt>
      <trkpt lat="39.95228" lon="-4.59526">
        <ele>428.4</ele>
        <time>2020-08-16 13:14:18</time>
      </trkpt>
      <trkpt lat="39.95226" lon="-4.5953">
        <ele>428.4</ele>
        <time>2020-08-16 13:14:19</time>
      </trkpt>
      <trkpt lat="39.95223" lon="-4.59536">
        <ele>428.2</ele>
        <time>2020-08-16 13:14:20</time>
      </trkpt>
      <trkpt lat="39.95222" lon="-4.59542">
        <ele>428</ele>
        <time>2020-08-16 13:14:21</time>
      </trkpt>
      <trkpt lat="39.95221" lon="-4.59547">
        <ele>427.8</ele>
        <time>2020-08-16 13:14:22</time>
      </trkpt>
      <trkpt lat="39.95221" lon="-4.59552">
        <ele>427.4</ele>
        <time>2020-08-16 13:14:23</time>
      </trkpt>
      <trkpt lat="39.95221" lon="-4.59557">
        <ele>427.2</ele>
        <time>2020-08-16 13:14:24</time>
      </trkpt>
      <trkpt lat="39.95222" lon="-4.59561">
        <ele>426.6</ele>
        <time>2020-08-16 13:14:25</time>
      </trkpt>
      <trkpt lat="39.95222" lon="-4.59566">
        <ele>426.4</ele>
        <time>2020-08-16 13:14:26</time>
      </trkpt>
      <trkpt lat="39.95222" lon="-4.5959">
        <ele>425.4</ele>
        <time>2020-08-16 13:14:30</time>
      </trkpt>
      <trkpt lat="39.95223" lon="-4.59609">
        <ele>424.8</ele>
        <time>2020-08-16 13:14:33</time>
      </trkpt>
      <trkpt lat="39.95224" lon="-4.59623">
        <ele>423.6</ele>
        <time>2020-08-16 13:14:35</time>
      </trkpt>
      <trkpt lat="39.95226" lon="-4.59651">
        <ele>422.2</ele>
        <time>2020-08-16 13:14:39</time>
      </trkpt>
      <trkpt lat="39.95226" lon="-4.59655">
        <ele>421.6</ele>
        <time>2020-08-16 13:14:40</time>
      </trkpt>
      <trkpt lat="39.95226" lon="-4.59656">
        <ele>421.4</ele>
        <time>2020-08-16 13:14:41</time>
      </trkpt>
      <trkpt lat="39.95226" lon="-4.59656">
        <ele>420.6</ele>
        <time>2020-08-16 13:14:42</time>
      </trkpt>
      <trkpt lat="39.95226" lon="-4.59656">
        <ele>420.2</ele>
        <time>2020-08-16 13:14:43</time>
      </trkpt>
      <trkpt lat="39.95225" lon="-4.5966">
        <ele>417.6</ele>
        <time>2020-08-16 13:15:12</time>
      </trkpt>
      <trkpt lat="39.95224" lon="-4.59669">
        <ele>417.4</ele>
        <time>2020-08-16 13:15:14</time>
      </trkpt>
      <trkpt lat="39.95223" lon="-4.59674">
        <ele>417.4</ele>
        <time>2020-08-16 13:15:15</time>
      </trkpt>
      <trkpt lat="39.95222" lon="-4.59686">
        <ele>417.2</ele>
        <time>2020-08-16 13:15:17</time>
      </trkpt>
      <trkpt lat="39.95222" lon="-4.59698">
        <ele>417</ele>
        <time>2020-08-16 13:15:19</time>
      </trkpt>
      <trkpt lat="39.95222" lon="-4.59705">
        <ele>416.8</ele>
        <time>2020-08-16 13:15:20</time>
      </trkpt>
      <trkpt lat="39.95222" lon="-4.59711">
        <ele>416.6</ele>
        <time>2020-08-16 13:15:21</time>
      </trkpt>
      <trkpt lat="39.95222" lon="-4.59722">
        <ele>416.4</ele>
        <time>2020-08-16 13:15:23</time>
      </trkpt>
      <trkpt lat="39.95221" lon="-4.59746">
        <ele>416</ele>
        <time>2020-08-16 13:15:27</time>
      </trkpt>
      <trkpt lat="39.95221" lon="-4.59751">
        <ele>415.8</ele>
        <time>2020-08-16 13:15:28</time>
      </trkpt>
      <trkpt lat="39.95221" lon="-4.59757">
        <ele>415.8</ele>
        <time>2020-08-16 13:15:29</time>
      </trkpt>
      <trkpt lat="39.95221" lon="-4.59762">
        <ele>415.8</ele>
        <time>2020-08-16 13:15:30</time>
      </trkpt>
      <trkpt lat="39.95221" lon="-4.59768">
        <ele>415.8</ele>
        <time>2020-08-16 13:15:31</time>
      </trkpt>
      <trkpt lat="39.95222" lon="-4.59773">
        <ele>415.8</ele>
        <time>2020-08-16 13:15:32</time>
      </trkpt>
      <trkpt lat="39.95222" lon="-4.59778">
        <ele>415.8</ele>
        <time>2020-08-16 13:15:33</time>
      </trkpt>
      <trkpt lat="39.95222" lon="-4.59783">
        <ele>415.8</ele>
        <time>2020-08-16 13:15:34</time>
      </trkpt>
      <trkpt lat="39.95222" lon="-4.59788">
        <ele>415.8</ele>
        <time>2020-08-16 13:15:35</time>
      </trkpt>
      <trkpt lat="39.95223" lon="-4.59793">
        <ele>415.8</ele>
        <time>2020-08-16 13:15:36</time>
      </trkpt>
      <trkpt lat="39.95223" lon="-4.59798">
        <ele>415.8</ele>
        <time>2020-08-16 13:15:37</time>
      </trkpt>
      <trkpt lat="39.95223" lon="-4.59803">
        <ele>415.8</ele>
        <time>2020-08-16 13:15:38</time>
      </trkpt>
      <trkpt lat="39.95223" lon="-4.59808">
        <ele>415.8</ele>
        <time>2020-08-16 13:15:39</time>
      </trkpt>
      <trkpt lat="39.95223" lon="-4.59813">
        <ele>415.8</ele>
        <time>2020-08-16 13:15:40</time>
      </trkpt>
      <trkpt lat="39.95223" lon="-4.59818">
        <ele>415.8</ele>
        <time>2020-08-16 13:15:41</time>
      </trkpt>
      <trkpt lat="39.95223" lon="-4.59822">
        <ele>416</ele>
        <time>2020-08-16 13:15:42</time>
      </trkpt>
      <trkpt lat="39.95224" lon="-4.59827">
        <ele>416</ele>
        <time>2020-08-16 13:15:43</time>
      </trkpt>
      <trkpt lat="39.95224" lon="-4.59831">
        <ele>416</ele>
        <time>2020-08-16 13:15:44</time>
      </trkpt>
      <trkpt lat="39.95224" lon="-4.59835">
        <ele>416</ele>
        <time>2020-08-16 13:15:45</time>
      </trkpt>
      <trkpt lat="39.95224" lon="-4.59839">
        <ele>416.2</ele>
        <time>2020-08-16 13:15:46</time>
      </trkpt>
      <trkpt lat="39.95224" lon="-4.59843">
        <ele>416.2</ele>
        <time>2020-08-16 13:15:47</time>
      </trkpt>
      <trkpt lat="39.95224" lon="-4.59847">
        <ele>416.2</ele>
        <time>2020-08-16 13:15:48</time>
      </trkpt>
      <trkpt lat="39.95225" lon="-4.59851">
        <ele>416.2</ele>
        <time>2020-08-16 13:15:49</time>
      </trkpt>
      <trkpt lat="39.95225" lon="-4.59854">
        <ele>416.4</ele>
        <time>2020-08-16 13:15:50</time>
      </trkpt>
      <trkpt lat="39.95225" lon="-4.59858">
        <ele>416.6</ele>
        <time>2020-08-16 13:15:51</time>
      </trkpt>
      <trkpt lat="39.95226" lon="-4.59861">
        <ele>416.6</ele>
        <time>2020-08-16 13:15:52</time>
      </trkpt>
      <trkpt lat="39.95226" lon="-4.59865">
        <ele>416.6</ele>
        <time>2020-08-16 13:15:53</time>
      </trkpt>
      <trkpt lat="39.95226" lon="-4.59868">
        <ele>416.8</ele>
        <time>2020-08-16 13:15:54</time>
      </trkpt>
      <trkpt lat="39.95226" lon="-4.59871">
        <ele>417</ele>
        <time>2020-08-16 13:15:55</time>
      </trkpt>
      <trkpt lat="39.95227" lon="-4.59874">
        <ele>417</ele>
        <time>2020-08-16 13:15:56</time>
      </trkpt>
      <trkpt lat="39.95227" lon="-4.59878">
        <ele>417</ele>
        <time>2020-08-16 13:15:57</time>
      </trkpt>
      <trkpt lat="39.95227" lon="-4.59881">
        <ele>417</ele>
        <time>2020-08-16 13:15:58</time>
      </trkpt>
      <trkpt lat="39.95227" lon="-4.59885">
        <ele>417</ele>
        <time>2020-08-16 13:15:59</time>
      </trkpt>
      <trkpt lat="39.95227" lon="-4.59888">
        <ele>417</ele>
        <time>2020-08-16 13:16:00</time>
      </trkpt>
      <trkpt lat="39.95227" lon="-4.59891">
        <ele>417</ele>
        <time>2020-08-16 13:16:01</time>
      </trkpt>
      <trkpt lat="39.95228" lon="-4.59895">
        <ele>417</ele>
        <time>2020-08-16 13:16:02</time>
      </trkpt>
      <trkpt lat="39.95228" lon="-4.59898">
        <ele>417.2</ele>
        <time>2020-08-16 13:16:03</time>
      </trkpt>
      <trkpt lat="39.95228" lon="-4.59901">
        <ele>417.2</ele>
        <time>2020-08-16 13:16:04</time>
      </trkpt>
      <trkpt lat="39.9523" lon="-4.59921">
        <ele>417.6</ele>
        <time>2020-08-16 13:16:09</time>
      </trkpt>
      <trkpt lat="39.95231" lon="-4.59925">
        <ele>417.4</ele>
        <time>2020-08-16 13:16:10</time>
      </trkpt>
      <trkpt lat="39.95237" lon="-4.59959">
        <ele>418.2</ele>
        <time>2020-08-16 13:16:17</time>
      </trkpt>
      <trkpt lat="39.95242" lon="-4.59982">
        <ele>418</ele>
        <time>2020-08-16 13:16:23</time>
      </trkpt>
      <trkpt lat="39.95243" lon="-4.59985">
        <ele>417.8</ele>
        <time>2020-08-16 13:16:24</time>
      </trkpt>
      <trkpt lat="39.95244" lon="-4.59988">
        <ele>417.8</ele>
        <time>2020-08-16 13:16:25</time>
      </trkpt>
      <trkpt lat="39.95244" lon="-4.59991">
        <ele>417.8</ele>
        <time>2020-08-16 13:16:26</time>
      </trkpt>
      <trkpt lat="39.95245" lon="-4.59993">
        <ele>417.6</ele>
        <time>2020-08-16 13:16:27</time>
      </trkpt>
      <trkpt lat="39.95245" lon="-4.59996">
        <ele>417.6</ele>
        <time>2020-08-16 13:16:28</time>
      </trkpt>
      <trkpt lat="39.95246" lon="-4.59997">
        <ele>417.6</ele>
        <time>2020-08-16 13:16:29</time>
      </trkpt>
      <trkpt lat="39.95246" lon="-4.59999">
        <ele>417.6</ele>
        <time>2020-08-16 13:16:30</time>
      </trkpt>
      <trkpt lat="39.95247" lon="-4.60002">
        <ele>417.6</ele>
        <time>2020-08-16 13:16:31</time>
      </trkpt>
      <trkpt lat="39.95249" lon="-4.60008">
        <ele>417.4</ele>
        <time>2020-08-16 13:16:33</time>
      </trkpt>
      <trkpt lat="39.9525" lon="-4.60011">
        <ele>417.4</ele>
        <time>2020-08-16 13:16:34</time>
      </trkpt>
      <trkpt lat="39.95256" lon="-4.60028">
        <ele>417.2</ele>
        <time>2020-08-16 13:16:40</time>
      </trkpt>
      <trkpt lat="39.95257" lon="-4.60031">
        <ele>417.2</ele>
        <time>2020-08-16 13:16:41</time>
      </trkpt>
      <trkpt lat="39.95258" lon="-4.60034">
        <ele>417.2</ele>
        <time>2020-08-16 13:16:42</time>
      </trkpt>
      <trkpt lat="39.95259" lon="-4.60036">
        <ele>417</ele>
        <time>2020-08-16 13:16:43</time>
      </trkpt>
      <trkpt lat="39.9526" lon="-4.60039">
        <ele>417</ele>
        <time>2020-08-16 13:16:44</time>
      </trkpt>
      <trkpt lat="39.95261" lon="-4.60042">
        <ele>417</ele>
        <time>2020-08-16 13:16:45</time>
      </trkpt>
      <trkpt lat="39.95262" lon="-4.60044">
        <ele>417</ele>
        <time>2020-08-16 13:16:46</time>
      </trkpt>
      <trkpt lat="39.95263" lon="-4.60046">
        <ele>417</ele>
        <time>2020-08-16 13:16:47</time>
      </trkpt>
      <trkpt lat="39.95264" lon="-4.60047">
        <ele>417</ele>
        <time>2020-08-16 13:16:48</time>
      </trkpt>
      <trkpt lat="39.95264" lon="-4.60048">
        <ele>417</ele>
        <time>2020-08-16 13:16:50</time>
      </trkpt>
      <trkpt lat="39.95264" lon="-4.60051">
        <ele>417.2</ele>
        <time>2020-08-16 13:19:03</time>
      </trkpt>
      <trkpt lat="39.95265" lon="-4.60053">
        <ele>417.2</ele>
        <time>2020-08-16 13:19:04</time>
      </trkpt>
      <trkpt lat="39.9527" lon="-4.60069">
        <ele>417.2</ele>
        <time>2020-08-16 13:19:08</time>
      </trkpt>
      <trkpt lat="39.95273" lon="-4.60078">
        <ele>417.2</ele>
        <time>2020-08-16 13:19:10</time>
      </trkpt>
      <trkpt lat="39.95276" lon="-4.60088">
        <ele>417.2</ele>
        <time>2020-08-16 13:19:12</time>
      </trkpt>
      <trkpt lat="39.95278" lon="-4.60093">
        <ele>417.2</ele>
        <time>2020-08-16 13:19:13</time>
      </trkpt>
      <trkpt lat="39.95279" lon="-4.60097">
        <ele>417.2</ele>
        <time>2020-08-16 13:19:14</time>
      </trkpt>
      <trkpt lat="39.95281" lon="-4.60102">
        <ele>417.2</ele>
        <time>2020-08-16 13:19:15</time>
      </trkpt>
      <trkpt lat="39.95288" lon="-4.60129">
        <ele>416.8</ele>
        <time>2020-08-16 13:19:21</time>
      </trkpt>
      <trkpt lat="39.95289" lon="-4.60133">
        <ele>416.8</ele>
        <time>2020-08-16 13:19:22</time>
      </trkpt>
      <trkpt lat="39.95289" lon="-4.60137">
        <ele>416.8</ele>
        <time>2020-08-16 13:19:23</time>
      </trkpt>
      <trkpt lat="39.9529" lon="-4.60142">
        <ele>416.8</ele>
        <time>2020-08-16 13:19:24</time>
      </trkpt>
      <trkpt lat="39.9529" lon="-4.60146">
        <ele>416.8</ele>
        <time>2020-08-16 13:19:25</time>
      </trkpt>
      <trkpt lat="39.95291" lon="-4.6015">
        <ele>416.6</ele>
        <time>2020-08-16 13:19:26</time>
      </trkpt>
      <trkpt lat="39.95292" lon="-4.60154">
        <ele>416.6</ele>
        <time>2020-08-16 13:19:27</time>
      </trkpt>
      <trkpt lat="39.95293" lon="-4.60157">
        <ele>416.6</ele>
        <time>2020-08-16 13:19:28</time>
      </trkpt>
      <trkpt lat="39.95293" lon="-4.60162">
        <ele>416.6</ele>
        <time>2020-08-16 13:19:29</time>
      </trkpt>
      <trkpt lat="39.95294" lon="-4.60166">
        <ele>416.6</ele>
        <time>2020-08-16 13:19:30</time>
      </trkpt>
      <trkpt lat="39.95295" lon="-4.6017">
        <ele>416.6</ele>
        <time>2020-08-16 13:19:31</time>
      </trkpt>
      <trkpt lat="39.95296" lon="-4.60173">
        <ele>416.6</ele>
        <time>2020-08-16 13:19:32</time>
      </trkpt>
      <trkpt lat="39.95297" lon="-4.60178">
        <ele>416.6</ele>
        <time>2020-08-16 13:19:33</time>
      </trkpt>
      <trkpt lat="39.95298" lon="-4.60182">
        <ele>416.6</ele>
        <time>2020-08-16 13:19:34</time>
      </trkpt>
      <trkpt lat="39.95299" lon="-4.60186">
        <ele>416.6</ele>
        <time>2020-08-16 13:19:35</time>
      </trkpt>
      <trkpt lat="39.953" lon="-4.6019">
        <ele>416.8</ele>
        <time>2020-08-16 13:19:36</time>
      </trkpt>
      <trkpt lat="39.95302" lon="-4.60202">
        <ele>416.8</ele>
        <time>2020-08-16 13:19:39</time>
      </trkpt>
      <trkpt lat="39.95303" lon="-4.60206">
        <ele>416.8</ele>
        <time>2020-08-16 13:19:40</time>
      </trkpt>
      <trkpt lat="39.95304" lon="-4.6021">
        <ele>416.8</ele>
        <time>2020-08-16 13:19:41</time>
      </trkpt>
      <trkpt lat="39.95305" lon="-4.60213">
        <ele>416.8</ele>
        <time>2020-08-16 13:19:42</time>
      </trkpt>
      <trkpt lat="39.95306" lon="-4.60217">
        <ele>416.8</ele>
        <time>2020-08-16 13:19:43</time>
      </trkpt>
      <trkpt lat="39.95307" lon="-4.6022">
        <ele>416.8</ele>
        <time>2020-08-16 13:19:44</time>
      </trkpt>
      <trkpt lat="39.95307" lon="-4.60222">
        <ele>416.8</ele>
        <time>2020-08-16 13:19:45</time>
      </trkpt>
      <trkpt lat="39.95308" lon="-4.60224">
        <ele>416.8</ele>
        <time>2020-08-16 13:19:46</time>
      </trkpt>
      <trkpt lat="39.95308" lon="-4.60226">
        <ele>416.8</ele>
        <time>2020-08-16 13:19:47</time>
      </trkpt>
      <trkpt lat="39.95308" lon="-4.60226">
        <ele>416.8</ele>
        <time>2020-08-16 13:19:48</time>
      </trkpt>
      <trkpt lat="39.95308" lon="-4.60226">
        <ele>416.8</ele>
        <time>2020-08-16 13:19:50</time>
      </trkpt>
      <trkpt lat="39.95309" lon="-4.60229">
        <ele>416.6</ele>
        <time>2020-08-16 13:20:24</time>
      </trkpt>
      <trkpt lat="39.9531" lon="-4.60232">
        <ele>416.6</ele>
        <time>2020-08-16 13:20:25</time>
      </trkpt>
      <trkpt lat="39.95315" lon="-4.60249">
        <ele>416.6</ele>
        <time>2020-08-16 13:20:29</time>
      </trkpt>
      <trkpt lat="39.9532" lon="-4.60264">
        <ele>416.6</ele>
        <time>2020-08-16 13:20:32</time>
      </trkpt>
      <trkpt lat="39.95326" lon="-4.60278">
        <ele>416.2</ele>
        <time>2020-08-16 13:20:35</time>
      </trkpt>
      <trkpt lat="39.9533" lon="-4.60288">
        <ele>416</ele>
        <time>2020-08-16 13:20:37</time>
      </trkpt>
      <trkpt lat="39.95334" lon="-4.60301">
        <ele>415.8</ele>
        <time>2020-08-16 13:20:39</time>
      </trkpt>
      <trkpt lat="39.95338" lon="-4.60315">
        <ele>415.4</ele>
        <time>2020-08-16 13:20:41</time>
      </trkpt>
      <trkpt lat="39.95344" lon="-4.6034">
        <ele>414.2</ele>
        <time>2020-08-16 13:20:44</time>
      </trkpt>
      <trkpt lat="39.95348" lon="-4.60357">
        <ele>413.2</ele>
        <time>2020-08-16 13:20:46</time>
      </trkpt>
      <trkpt lat="39.9535" lon="-4.60366">
        <ele>412.8</ele>
        <time>2020-08-16 13:20:47</time>
      </trkpt>
      <trkpt lat="39.95351" lon="-4.60375">
        <ele>412.4</ele>
        <time>2020-08-16 13:20:48</time>
      </trkpt>
      <trkpt lat="39.95353" lon="-4.60384">
        <ele>411.6</ele>
        <time>2020-08-16 13:20:49</time>
      </trkpt>
      <trkpt lat="39.95358" lon="-4.60411">
        <ele>410</ele>
        <time>2020-08-16 13:20:52</time>
      </trkpt>
      <trkpt lat="39.95359" lon="-4.60419">
        <ele>409.8</ele>
        <time>2020-08-16 13:20:53</time>
      </trkpt>
      <trkpt lat="39.9536" lon="-4.60427">
        <ele>409</ele>
        <time>2020-08-16 13:20:54</time>
      </trkpt>
      <trkpt lat="39.95361" lon="-4.60435">
        <ele>408.6</ele>
        <time>2020-08-16 13:20:55</time>
      </trkpt>
      <trkpt lat="39.95362" lon="-4.60442">
        <ele>408.2</ele>
        <time>2020-08-16 13:20:56</time>
      </trkpt>
      <trkpt lat="39.95363" lon="-4.60448">
        <ele>408</ele>
        <time>2020-08-16 13:20:57</time>
      </trkpt>
      <trkpt lat="39.95364" lon="-4.60453">
        <ele>407.6</ele>
        <time>2020-08-16 13:20:58</time>
      </trkpt>
      <trkpt lat="39.95364" lon="-4.60458">
        <ele>407.6</ele>
        <time>2020-08-16 13:20:59</time>
      </trkpt>
      <trkpt lat="39.95365" lon="-4.60462">
        <ele>407.4</ele>
        <time>2020-08-16 13:21:00</time>
      </trkpt>
      <trkpt lat="39.95364" lon="-4.60467">
        <ele>407.4</ele>
        <time>2020-08-16 13:21:01</time>
      </trkpt>
      <trkpt lat="39.95365" lon="-4.60471">
        <ele>407.4</ele>
        <time>2020-08-16 13:21:02</time>
      </trkpt>
      <trkpt lat="39.95365" lon="-4.60476">
        <ele>407.4</ele>
        <time>2020-08-16 13:21:03</time>
      </trkpt>
      <trkpt lat="39.95366" lon="-4.60485">
        <ele>407.2</ele>
        <time>2020-08-16 13:21:05</time>
      </trkpt>
      <trkpt lat="39.95368" lon="-4.60495">
        <ele>407</ele>
        <time>2020-08-16 13:21:07</time>
      </trkpt>
      <trkpt lat="39.95369" lon="-4.60499">
        <ele>406.8</ele>
        <time>2020-08-16 13:21:08</time>
      </trkpt>
      <trkpt lat="39.95372" lon="-4.60521">
        <ele>406.6</ele>
        <time>2020-08-16 13:21:12</time>
      </trkpt>
      <trkpt lat="39.95377" lon="-4.6056">
        <ele>406.8</ele>
        <time>2020-08-16 13:21:20</time>
      </trkpt>
      <trkpt lat="39.95378" lon="-4.60565">
        <ele>406.8</ele>
        <time>2020-08-16 13:21:21</time>
      </trkpt>
      <trkpt lat="39.95379" lon="-4.6057">
        <ele>406.8</ele>
        <time>2020-08-16 13:21:22</time>
      </trkpt>
      <trkpt lat="39.9538" lon="-4.60575">
        <ele>407</ele>
        <time>2020-08-16 13:21:23</time>
      </trkpt>
      <trkpt lat="39.9538" lon="-4.60579">
        <ele>407</ele>
        <time>2020-08-16 13:21:24</time>
      </trkpt>
      <trkpt lat="39.95381" lon="-4.60583">
        <ele>407</ele>
        <time>2020-08-16 13:21:25</time>
      </trkpt>
      <trkpt lat="39.95381" lon="-4.60587">
        <ele>407.4</ele>
        <time>2020-08-16 13:21:26</time>
      </trkpt>
      <trkpt lat="39.95382" lon="-4.60591">
        <ele>407.4</ele>
        <time>2020-08-16 13:21:27</time>
      </trkpt>
      <trkpt lat="39.95382" lon="-4.60596">
        <ele>407.6</ele>
        <time>2020-08-16 13:21:28</time>
      </trkpt>
      <trkpt lat="39.95383" lon="-4.606">
        <ele>407.8</ele>
        <time>2020-08-16 13:21:29</time>
      </trkpt>
      <trkpt lat="39.95383" lon="-4.60604">
        <ele>408</ele>
        <time>2020-08-16 13:21:30</time>
      </trkpt>
      <trkpt lat="39.95384" lon="-4.60608">
        <ele>408.2</ele>
        <time>2020-08-16 13:21:31</time>
      </trkpt>
      <trkpt lat="39.95384" lon="-4.60612">
        <ele>408.2</ele>
        <time>2020-08-16 13:21:32</time>
      </trkpt>
      <trkpt lat="39.95385" lon="-4.60617">
        <ele>408.4</ele>
        <time>2020-08-16 13:21:33</time>
      </trkpt>
      <trkpt lat="39.95385" lon="-4.60622">
        <ele>408.4</ele>
        <time>2020-08-16 13:21:34</time>
      </trkpt>
      <trkpt lat="39.95386" lon="-4.60627">
        <ele>408.6</ele>
        <time>2020-08-16 13:21:35</time>
      </trkpt>
      <trkpt lat="39.95386" lon="-4.60632">
        <ele>408.6</ele>
        <time>2020-08-16 13:21:36</time>
      </trkpt>
      <trkpt lat="39.95386" lon="-4.60637">
        <ele>408.6</ele>
        <time>2020-08-16 13:21:37</time>
      </trkpt>
      <trkpt lat="39.95387" lon="-4.60659">
        <ele>408.6</ele>
        <time>2020-08-16 13:21:41</time>
      </trkpt>
      <trkpt lat="39.95386" lon="-4.60681">
        <ele>408.6</ele>
        <time>2020-08-16 13:21:45</time>
      </trkpt>
      <trkpt lat="39.95387" lon="-4.60687">
        <ele>408.6</ele>
        <time>2020-08-16 13:21:46</time>
      </trkpt>
      <trkpt lat="39.95388" lon="-4.60701">
        <ele>408.8</ele>
        <time>2020-08-16 13:21:49</time>
      </trkpt>
      <trkpt lat="39.95389" lon="-4.60705">
        <ele>408.8</ele>
        <time>2020-08-16 13:21:50</time>
      </trkpt>
      <trkpt lat="39.9539" lon="-4.60713">
        <ele>408.8</ele>
        <time>2020-08-16 13:21:52</time>
      </trkpt>
      <trkpt lat="39.9539" lon="-4.60717">
        <ele>409</ele>
        <time>2020-08-16 13:21:53</time>
      </trkpt>
      <trkpt lat="39.95391" lon="-4.60721">
        <ele>409</ele>
        <time>2020-08-16 13:21:54</time>
      </trkpt>
      <trkpt lat="39.95391" lon="-4.60724">
        <ele>409</ele>
        <time>2020-08-16 13:21:55</time>
      </trkpt>
      <trkpt lat="39.95391" lon="-4.60727">
        <ele>409.2</ele>
        <time>2020-08-16 13:21:56</time>
      </trkpt>
      <trkpt lat="39.95392" lon="-4.6073">
        <ele>409.2</ele>
        <time>2020-08-16 13:21:57</time>
      </trkpt>
      <trkpt lat="39.95393" lon="-4.60734">
        <ele>409.4</ele>
        <time>2020-08-16 13:21:58</time>
      </trkpt>
      <trkpt lat="39.95393" lon="-4.60737">
        <ele>409.6</ele>
        <time>2020-08-16 13:21:59</time>
      </trkpt>
      <trkpt lat="39.95394" lon="-4.60744">
        <ele>409.8</ele>
        <time>2020-08-16 13:22:01</time>
      </trkpt>
      <trkpt lat="39.95395" lon="-4.60748">
        <ele>410</ele>
        <time>2020-08-16 13:22:02</time>
      </trkpt>
      <trkpt lat="39.95396" lon="-4.60752">
        <ele>410</ele>
        <time>2020-08-16 13:22:03</time>
      </trkpt>
      <trkpt lat="39.95397" lon="-4.60756">
        <ele>410</ele>
        <time>2020-08-16 13:22:04</time>
      </trkpt>
      <trkpt lat="39.954" lon="-4.60776">
        <ele>410</ele>
        <time>2020-08-16 13:22:08</time>
      </trkpt>
      <trkpt lat="39.95401" lon="-4.6078">
        <ele>410.2</ele>
        <time>2020-08-16 13:22:09</time>
      </trkpt>
      <trkpt lat="39.9541" lon="-4.60808">
        <ele>410.2</ele>
        <time>2020-08-16 13:22:15</time>
      </trkpt>
      <trkpt lat="39.95414" lon="-4.60823">
        <ele>410.2</ele>
        <time>2020-08-16 13:22:18</time>
      </trkpt>
      <trkpt lat="39.95417" lon="-4.60835">
        <ele>410.2</ele>
        <time>2020-08-16 13:22:20</time>
      </trkpt>
      <trkpt lat="39.95425" lon="-4.60871">
        <ele>409.6</ele>
        <time>2020-08-16 13:22:25</time>
      </trkpt>
      <trkpt lat="39.95426" lon="-4.60879">
        <ele>409.4</ele>
        <time>2020-08-16 13:22:26</time>
      </trkpt>
      <trkpt lat="39.95427" lon="-4.60887">
        <ele>409.2</ele>
        <time>2020-08-16 13:22:27</time>
      </trkpt>
      <trkpt lat="39.95428" lon="-4.60896">
        <ele>409</ele>
        <time>2020-08-16 13:22:28</time>
      </trkpt>
      <trkpt lat="39.95427" lon="-4.60904">
        <ele>408.4</ele>
        <time>2020-08-16 13:22:29</time>
      </trkpt>
      <trkpt lat="39.95427" lon="-4.60912">
        <ele>408</ele>
        <time>2020-08-16 13:22:30</time>
      </trkpt>
      <trkpt lat="39.95426" lon="-4.60921">
        <ele>407.8</ele>
        <time>2020-08-16 13:22:31</time>
      </trkpt>
      <trkpt lat="39.95426" lon="-4.60928">
        <ele>407.4</ele>
        <time>2020-08-16 13:22:32</time>
      </trkpt>
      <trkpt lat="39.95426" lon="-4.60936">
        <ele>407</ele>
        <time>2020-08-16 13:22:33</time>
      </trkpt>
      <trkpt lat="39.95425" lon="-4.60944">
        <ele>406.6</ele>
        <time>2020-08-16 13:22:34</time>
      </trkpt>
      <trkpt lat="39.95425" lon="-4.60951">
        <ele>406.6</ele>
        <time>2020-08-16 13:22:35</time>
      </trkpt>
      <trkpt lat="39.95425" lon="-4.60959">
        <ele>406.2</ele>
        <time>2020-08-16 13:22:36</time>
      </trkpt>
      <trkpt lat="39.95426" lon="-4.60966">
        <ele>406</ele>
        <time>2020-08-16 13:22:37</time>
      </trkpt>
      <trkpt lat="39.95426" lon="-4.60973">
        <ele>406</ele>
        <time>2020-08-16 13:22:38</time>
      </trkpt>
      <trkpt lat="39.95427" lon="-4.6098">
        <ele>405.8</ele>
        <time>2020-08-16 13:22:39</time>
      </trkpt>
      <trkpt lat="39.95427" lon="-4.60987">
        <ele>405.6</ele>
        <time>2020-08-16 13:22:40</time>
      </trkpt>
      <trkpt lat="39.95427" lon="-4.60993">
        <ele>405.2</ele>
        <time>2020-08-16 13:22:41</time>
      </trkpt>
      <trkpt lat="39.95428" lon="-4.61">
        <ele>404.8</ele>
        <time>2020-08-16 13:22:42</time>
      </trkpt>
      <trkpt lat="39.95428" lon="-4.61006">
        <ele>404.4</ele>
        <time>2020-08-16 13:22:43</time>
      </trkpt>
      <trkpt lat="39.95427" lon="-4.61012">
        <ele>404.2</ele>
        <time>2020-08-16 13:22:44</time>
      </trkpt>
      <trkpt lat="39.95427" lon="-4.61019">
        <ele>404</ele>
        <time>2020-08-16 13:22:45</time>
      </trkpt>
      <trkpt lat="39.95427" lon="-4.61024">
        <ele>403.6</ele>
        <time>2020-08-16 13:22:46</time>
      </trkpt>
      <trkpt lat="39.95428" lon="-4.6103">
        <ele>403.4</ele>
        <time>2020-08-16 13:22:47</time>
      </trkpt>
      <trkpt lat="39.95428" lon="-4.61035">
        <ele>403.2</ele>
        <time>2020-08-16 13:22:48</time>
      </trkpt>
      <trkpt lat="39.95429" lon="-4.61041">
        <ele>402.8</ele>
        <time>2020-08-16 13:22:49</time>
      </trkpt>
      <trkpt lat="39.9543" lon="-4.61046">
        <ele>402.8</ele>
        <time>2020-08-16 13:22:50</time>
      </trkpt>
      <trkpt lat="39.9543" lon="-4.61051">
        <ele>402.4</ele>
        <time>2020-08-16 13:22:51</time>
      </trkpt>
      <trkpt lat="39.95431" lon="-4.61056">
        <ele>402.4</ele>
        <time>2020-08-16 13:22:52</time>
      </trkpt>
      <trkpt lat="39.95431" lon="-4.6106">
        <ele>402</ele>
        <time>2020-08-16 13:22:53</time>
      </trkpt>
      <trkpt lat="39.95432" lon="-4.61064">
        <ele>402</ele>
        <time>2020-08-16 13:22:54</time>
      </trkpt>
      <trkpt lat="39.95433" lon="-4.61068">
        <ele>401.8</ele>
        <time>2020-08-16 13:22:55</time>
      </trkpt>
      <trkpt lat="39.95433" lon="-4.61072">
        <ele>401.6</ele>
        <time>2020-08-16 13:22:56</time>
      </trkpt>
      <trkpt lat="39.95435" lon="-4.61081">
        <ele>401.4</ele>
        <time>2020-08-16 13:22:58</time>
      </trkpt>
      <trkpt lat="39.95444" lon="-4.61117">
        <ele>400.6</ele>
        <time>2020-08-16 13:23:05</time>
      </trkpt>
      <trkpt lat="39.95446" lon="-4.61122">
        <ele>400.4</ele>
        <time>2020-08-16 13:23:06</time>
      </trkpt>
      <trkpt lat="39.95455" lon="-4.61148">
        <ele>399.6</ele>
        <time>2020-08-16 13:23:11</time>
      </trkpt>
      <trkpt lat="39.95457" lon="-4.61152">
        <ele>399.6</ele>
        <time>2020-08-16 13:23:12</time>
      </trkpt>
      <trkpt lat="39.95457" lon="-4.61157">
        <ele>399.2</ele>
        <time>2020-08-16 13:23:13</time>
      </trkpt>
      <trkpt lat="39.95458" lon="-4.61161">
        <ele>399.2</ele>
        <time>2020-08-16 13:23:14</time>
      </trkpt>
      <trkpt lat="39.95462" lon="-4.61179">
        <ele>398.8</ele>
        <time>2020-08-16 13:23:18</time>
      </trkpt>
      <trkpt lat="39.95463" lon="-4.61184">
        <ele>398.8</ele>
        <time>2020-08-16 13:23:19</time>
      </trkpt>
      <trkpt lat="39.95464" lon="-4.61188">
        <ele>398.8</ele>
        <time>2020-08-16 13:23:20</time>
      </trkpt>
      <trkpt lat="39.95466" lon="-4.61192">
        <ele>398.8</ele>
        <time>2020-08-16 13:23:21</time>
      </trkpt>
      <trkpt lat="39.95467" lon="-4.61197">
        <ele>398.8</ele>
        <time>2020-08-16 13:23:22</time>
      </trkpt>
      <trkpt lat="39.95468" lon="-4.61201">
        <ele>398.8</ele>
        <time>2020-08-16 13:23:23</time>
      </trkpt>
      <trkpt lat="39.9547" lon="-4.61206">
        <ele>398.8</ele>
        <time>2020-08-16 13:23:24</time>
      </trkpt>
      <trkpt lat="39.95473" lon="-4.61219">
        <ele>398.8</ele>
        <time>2020-08-16 13:23:27</time>
      </trkpt>
      <trkpt lat="39.95478" lon="-4.61236">
        <ele>398.8</ele>
        <time>2020-08-16 13:23:31</time>
      </trkpt>
      <trkpt lat="39.95483" lon="-4.61254">
        <ele>398.8</ele>
        <time>2020-08-16 13:23:35</time>
      </trkpt>
      <trkpt lat="39.95485" lon="-4.61258">
        <ele>398.8</ele>
        <time>2020-08-16 13:23:36</time>
      </trkpt>
      <trkpt lat="39.95486" lon="-4.61263">
        <ele>398.8</ele>
        <time>2020-08-16 13:23:37</time>
      </trkpt>
      <trkpt lat="39.95487" lon="-4.61267">
        <ele>398.6</ele>
        <time>2020-08-16 13:23:38</time>
      </trkpt>
      <trkpt lat="39.95488" lon="-4.61271">
        <ele>398.6</ele>
        <time>2020-08-16 13:23:39</time>
      </trkpt>
      <trkpt lat="39.9549" lon="-4.61275">
        <ele>398.6</ele>
        <time>2020-08-16 13:23:40</time>
      </trkpt>
      <trkpt lat="39.95491" lon="-4.61279">
        <ele>398.6</ele>
        <time>2020-08-16 13:23:41</time>
      </trkpt>
      <trkpt lat="39.95492" lon="-4.61283">
        <ele>398.6</ele>
        <time>2020-08-16 13:23:42</time>
      </trkpt>
      <trkpt lat="39.95493" lon="-4.61287">
        <ele>398.6</ele>
        <time>2020-08-16 13:23:43</time>
      </trkpt>
      <trkpt lat="39.95495" lon="-4.61291">
        <ele>398.6</ele>
        <time>2020-08-16 13:23:44</time>
      </trkpt>
      <trkpt lat="39.95496" lon="-4.61295">
        <ele>398.6</ele>
        <time>2020-08-16 13:23:45</time>
      </trkpt>
      <trkpt lat="39.95497" lon="-4.61299">
        <ele>398.6</ele>
        <time>2020-08-16 13:23:46</time>
      </trkpt>
      <trkpt lat="39.95498" lon="-4.61302">
        <ele>398.6</ele>
        <time>2020-08-16 13:23:47</time>
      </trkpt>
      <trkpt lat="39.95499" lon="-4.61305">
        <ele>398.8</ele>
        <time>2020-08-16 13:23:48</time>
      </trkpt>
      <trkpt lat="39.95501" lon="-4.61309">
        <ele>398.8</ele>
        <time>2020-08-16 13:23:49</time>
      </trkpt>
      <trkpt lat="39.95502" lon="-4.61313">
        <ele>398.8</ele>
        <time>2020-08-16 13:23:50</time>
      </trkpt>
      <trkpt lat="39.95503" lon="-4.61316">
        <ele>398.8</ele>
        <time>2020-08-16 13:23:51</time>
      </trkpt>
      <trkpt lat="39.95505" lon="-4.6132">
        <ele>398.8</ele>
        <time>2020-08-16 13:23:52</time>
      </trkpt>
      <trkpt lat="39.95507" lon="-4.61324">
        <ele>399</ele>
        <time>2020-08-16 13:23:53</time>
      </trkpt>
      <trkpt lat="39.95508" lon="-4.61328">
        <ele>399</ele>
        <time>2020-08-16 13:23:54</time>
      </trkpt>
      <trkpt lat="39.9551" lon="-4.61332">
        <ele>399</ele>
        <time>2020-08-16 13:23:55</time>
      </trkpt>
      <trkpt lat="39.95517" lon="-4.61347">
        <ele>399</ele>
        <time>2020-08-16 13:23:59</time>
      </trkpt>
      <trkpt lat="39.95524" lon="-4.61361">
        <ele>399.2</ele>
        <time>2020-08-16 13:24:03</time>
      </trkpt>
      <trkpt lat="39.95526" lon="-4.61364">
        <ele>399.2</ele>
        <time>2020-08-16 13:24:04</time>
      </trkpt>
      <trkpt lat="39.95528" lon="-4.61367">
        <ele>399.2</ele>
        <time>2020-08-16 13:24:05</time>
      </trkpt>
      <trkpt lat="39.95529" lon="-4.6137">
        <ele>399.4</ele>
        <time>2020-08-16 13:24:06</time>
      </trkpt>
      <trkpt lat="39.95531" lon="-4.61373">
        <ele>399.6</ele>
        <time>2020-08-16 13:24:07</time>
      </trkpt>
      <trkpt lat="39.95533" lon="-4.61376">
        <ele>399.6</ele>
        <time>2020-08-16 13:24:08</time>
      </trkpt>
      <trkpt lat="39.95535" lon="-4.61378">
        <ele>399.8</ele>
        <time>2020-08-16 13:24:09</time>
      </trkpt>
      <trkpt lat="39.95536" lon="-4.6138">
        <ele>400</ele>
        <time>2020-08-16 13:24:10</time>
      </trkpt>
      <trkpt lat="39.95537" lon="-4.61382">
        <ele>400</ele>
        <time>2020-08-16 13:24:11</time>
      </trkpt>
      <trkpt lat="39.95538" lon="-4.61384">
        <ele>400.2</ele>
        <time>2020-08-16 13:24:12</time>
      </trkpt>
      <trkpt lat="39.9554" lon="-4.61386">
        <ele>400.2</ele>
        <time>2020-08-16 13:24:13</time>
      </trkpt>
      <trkpt lat="39.95544" lon="-4.61391">
        <ele>400.4</ele>
        <time>2020-08-16 13:24:16</time>
      </trkpt>
      <trkpt lat="39.95545" lon="-4.61393">
        <ele>400.4</ele>
        <time>2020-08-16 13:24:17</time>
      </trkpt>
      <trkpt lat="39.95547" lon="-4.61395">
        <ele>400.4</ele>
        <time>2020-08-16 13:24:18</time>
      </trkpt>
      <trkpt lat="39.95549" lon="-4.61397">
        <ele>400.4</ele>
        <time>2020-08-16 13:24:19</time>
      </trkpt>
      <trkpt lat="39.95553" lon="-4.61403">
        <ele>400.6</ele>
        <time>2020-08-16 13:24:22</time>
      </trkpt>
      <trkpt lat="39.95556" lon="-4.61408">
        <ele>400.6</ele>
        <time>2020-08-16 13:24:24</time>
      </trkpt>
      <trkpt lat="39.95562" lon="-4.61414">
        <ele>401</ele>
        <time>2020-08-16 13:24:27</time>
      </trkpt>
      <trkpt lat="39.9557" lon="-4.61426">
        <ele>401.4</ele>
        <time>2020-08-16 13:24:32</time>
      </trkpt>
      <trkpt lat="39.95577" lon="-4.61435">
        <ele>401.8</ele>
        <time>2020-08-16 13:24:36</time>
      </trkpt>
      <trkpt lat="39.95582" lon="-4.61441">
        <ele>402</ele>
        <time>2020-08-16 13:24:39</time>
      </trkpt>
      <trkpt lat="39.95584" lon="-4.61443">
        <ele>402</ele>
        <time>2020-08-16 13:24:40</time>
      </trkpt>
      <trkpt lat="39.95585" lon="-4.61445">
        <ele>402</ele>
        <time>2020-08-16 13:24:41</time>
      </trkpt>
      <trkpt lat="39.95587" lon="-4.61447">
        <ele>402</ele>
        <time>2020-08-16 13:24:42</time>
      </trkpt>
      <trkpt lat="39.95589" lon="-4.61448">
        <ele>402.2</ele>
        <time>2020-08-16 13:24:43</time>
      </trkpt>
      <trkpt lat="39.9559" lon="-4.6145">
        <ele>402.2</ele>
        <time>2020-08-16 13:24:44</time>
      </trkpt>
      <trkpt lat="39.95592" lon="-4.61453">
        <ele>402.2</ele>
        <time>2020-08-16 13:24:45</time>
      </trkpt>
      <trkpt lat="39.95593" lon="-4.61455">
        <ele>402.2</ele>
        <time>2020-08-16 13:24:46</time>
      </trkpt>
      <trkpt lat="39.95595" lon="-4.61457">
        <ele>402.2</ele>
        <time>2020-08-16 13:24:47</time>
      </trkpt>
      <trkpt lat="39.95597" lon="-4.61459">
        <ele>402.4</ele>
        <time>2020-08-16 13:24:48</time>
      </trkpt>
      <trkpt lat="39.95598" lon="-4.61461">
        <ele>402.4</ele>
        <time>2020-08-16 13:24:49</time>
      </trkpt>
      <trkpt lat="39.956" lon="-4.61463">
        <ele>402.6</ele>
        <time>2020-08-16 13:24:50</time>
      </trkpt>
      <trkpt lat="39.95602" lon="-4.61465">
        <ele>402.6</ele>
        <time>2020-08-16 13:24:51</time>
      </trkpt>
      <trkpt lat="39.95603" lon="-4.61467">
        <ele>402.6</ele>
        <time>2020-08-16 13:24:52</time>
      </trkpt>
      <trkpt lat="39.95607" lon="-4.61471">
        <ele>402.8</ele>
        <time>2020-08-16 13:24:54</time>
      </trkpt>
      <trkpt lat="39.95615" lon="-4.61481">
        <ele>403.2</ele>
        <time>2020-08-16 13:24:59</time>
      </trkpt>
      <trkpt lat="39.95616" lon="-4.61483">
        <ele>403.2</ele>
        <time>2020-08-16 13:25:00</time>
      </trkpt>
      <trkpt lat="39.95618" lon="-4.61485">
        <ele>403.4</ele>
        <time>2020-08-16 13:25:01</time>
      </trkpt>
      <trkpt lat="39.95619" lon="-4.61487">
        <ele>403.4</ele>
        <time>2020-08-16 13:25:02</time>
      </trkpt>
      <trkpt lat="39.95621" lon="-4.61489">
        <ele>403.4</ele>
        <time>2020-08-16 13:25:03</time>
      </trkpt>
      <trkpt lat="39.95623" lon="-4.61491">
        <ele>403.6</ele>
        <time>2020-08-16 13:25:04</time>
      </trkpt>
      <trkpt lat="39.95624" lon="-4.61493">
        <ele>403.6</ele>
        <time>2020-08-16 13:25:05</time>
      </trkpt>
      <trkpt lat="39.95626" lon="-4.61494">
        <ele>404</ele>
        <time>2020-08-16 13:25:06</time>
      </trkpt>
      <trkpt lat="39.95627" lon="-4.61496">
        <ele>404</ele>
        <time>2020-08-16 13:25:07</time>
      </trkpt>
      <trkpt lat="39.95629" lon="-4.61498">
        <ele>404.2</ele>
        <time>2020-08-16 13:25:08</time>
      </trkpt>
      <trkpt lat="39.9563" lon="-4.615">
        <ele>404.4</ele>
        <time>2020-08-16 13:25:09</time>
      </trkpt>
      <trkpt lat="39.95632" lon="-4.61502">
        <ele>404.4</ele>
        <time>2020-08-16 13:25:10</time>
      </trkpt>
      <trkpt lat="39.95634" lon="-4.61504">
        <ele>404.6</ele>
        <time>2020-08-16 13:25:11</time>
      </trkpt>
      <trkpt lat="39.95642" lon="-4.61513">
        <ele>404.8</ele>
        <time>2020-08-16 13:25:15</time>
      </trkpt>
      <trkpt lat="39.95652" lon="-4.61522">
        <ele>405</ele>
        <time>2020-08-16 13:25:20</time>
      </trkpt>
      <trkpt lat="39.9566" lon="-4.61529">
        <ele>405.4</ele>
        <time>2020-08-16 13:25:24</time>
      </trkpt>
      <trkpt lat="39.95662" lon="-4.61531">
        <ele>405.6</ele>
        <time>2020-08-16 13:25:25</time>
      </trkpt>
      <trkpt lat="39.95665" lon="-4.61532">
        <ele>405.6</ele>
        <time>2020-08-16 13:25:26</time>
      </trkpt>
      <trkpt lat="39.95667" lon="-4.61534">
        <ele>405.8</ele>
        <time>2020-08-16 13:25:27</time>
      </trkpt>
      <trkpt lat="39.95669" lon="-4.61535">
        <ele>406</ele>
        <time>2020-08-16 13:25:28</time>
      </trkpt>
      <trkpt lat="39.95671" lon="-4.61537">
        <ele>406</ele>
        <time>2020-08-16 13:25:29</time>
      </trkpt>
      <trkpt lat="39.95673" lon="-4.61538">
        <ele>406</ele>
        <time>2020-08-16 13:25:30</time>
      </trkpt>
      <trkpt lat="39.95675" lon="-4.6154">
        <ele>406</ele>
        <time>2020-08-16 13:25:31</time>
      </trkpt>
      <trkpt lat="39.95677" lon="-4.61541">
        <ele>406.2</ele>
        <time>2020-08-16 13:25:32</time>
      </trkpt>
      <trkpt lat="39.95679" lon="-4.61543">
        <ele>406.2</ele>
        <time>2020-08-16 13:25:33</time>
      </trkpt>
      <trkpt lat="39.95681" lon="-4.61544">
        <ele>406.2</ele>
        <time>2020-08-16 13:25:34</time>
      </trkpt>
      <trkpt lat="39.95687" lon="-4.6155">
        <ele>406.4</ele>
        <time>2020-08-16 13:25:37</time>
      </trkpt>
      <trkpt lat="39.95694" lon="-4.61557">
        <ele>406.8</ele>
        <time>2020-08-16 13:25:40</time>
      </trkpt>
      <trkpt lat="39.95705" lon="-4.61571">
        <ele>407</ele>
        <time>2020-08-16 13:25:46</time>
      </trkpt>
      <trkpt lat="39.95706" lon="-4.61572">
        <ele>407.2</ele>
        <time>2020-08-16 13:25:47</time>
      </trkpt>
      <trkpt lat="39.95707" lon="-4.61574">
        <ele>407.2</ele>
        <time>2020-08-16 13:25:48</time>
      </trkpt>
      <trkpt lat="39.95708" lon="-4.61576">
        <ele>407.2</ele>
        <time>2020-08-16 13:25:49</time>
      </trkpt>
      <trkpt lat="39.95711" lon="-4.61579">
        <ele>407.2</ele>
        <time>2020-08-16 13:25:51</time>
      </trkpt>
      <trkpt lat="39.95712" lon="-4.61581">
        <ele>407.2</ele>
        <time>2020-08-16 13:25:52</time>
      </trkpt>
      <trkpt lat="39.95713" lon="-4.61583">
        <ele>407.2</ele>
        <time>2020-08-16 13:25:53</time>
      </trkpt>
      <trkpt lat="39.95714" lon="-4.61584">
        <ele>407.4</ele>
        <time>2020-08-16 13:25:54</time>
      </trkpt>
      <trkpt lat="39.95716" lon="-4.61586">
        <ele>407.4</ele>
        <time>2020-08-16 13:25:55</time>
      </trkpt>
      <trkpt lat="39.95717" lon="-4.61588">
        <ele>407.4</ele>
        <time>2020-08-16 13:25:56</time>
      </trkpt>
      <trkpt lat="39.95718" lon="-4.6159">
        <ele>407.4</ele>
        <time>2020-08-16 13:25:57</time>
      </trkpt>
      <trkpt lat="39.95719" lon="-4.61592">
        <ele>407.4</ele>
        <time>2020-08-16 13:25:58</time>
      </trkpt>
      <trkpt lat="39.9572" lon="-4.61593">
        <ele>407.6</ele>
        <time>2020-08-16 13:25:59</time>
      </trkpt>
      <trkpt lat="39.95721" lon="-4.61595">
        <ele>407.6</ele>
        <time>2020-08-16 13:26:00</time>
      </trkpt>
      <trkpt lat="39.95722" lon="-4.61596">
        <ele>407.8</ele>
        <time>2020-08-16 13:26:01</time>
      </trkpt>
      <trkpt lat="39.95722" lon="-4.61596">
        <ele>407.8</ele>
        <time>2020-08-16 13:26:03</time>
      </trkpt>
      <trkpt lat="39.95724" lon="-4.61599">
        <ele>407.4</ele>
        <time>2020-08-16 13:26:35</time>
      </trkpt>
      <trkpt lat="39.95728" lon="-4.61605">
        <ele>407.6</ele>
        <time>2020-08-16 13:26:38</time>
      </trkpt>
      <trkpt lat="39.95735" lon="-4.61615">
        <ele>407.8</ele>
        <time>2020-08-16 13:26:42</time>
      </trkpt>
      <trkpt lat="39.95741" lon="-4.61623">
        <ele>407.8</ele>
        <time>2020-08-16 13:26:45</time>
      </trkpt>
      <trkpt lat="39.95751" lon="-4.61639">
        <ele>408</ele>
        <time>2020-08-16 13:26:51</time>
      </trkpt>
      <trkpt lat="39.95757" lon="-4.61647">
        <ele>408</ele>
        <time>2020-08-16 13:26:54</time>
      </trkpt>
      <trkpt lat="39.9576" lon="-4.61652">
        <ele>408.4</ele>
        <time>2020-08-16 13:26:56</time>
      </trkpt>
      <trkpt lat="39.95767" lon="-4.61664">
        <ele>408.8</ele>
        <time>2020-08-16 13:27:00</time>
      </trkpt>
      <trkpt lat="39.95771" lon="-4.6167">
        <ele>409</ele>
        <time>2020-08-16 13:27:02</time>
      </trkpt>
      <trkpt lat="39.95773" lon="-4.61674">
        <ele>409.2</ele>
        <time>2020-08-16 13:27:03</time>
      </trkpt>
      <trkpt lat="39.95774" lon="-4.61677">
        <ele>409.2</ele>
        <time>2020-08-16 13:27:04</time>
      </trkpt>
      <trkpt lat="39.95777" lon="-4.61681">
        <ele>409.2</ele>
        <time>2020-08-16 13:27:05</time>
      </trkpt>
      <trkpt lat="39.95781" lon="-4.61688">
        <ele>409.4</ele>
        <time>2020-08-16 13:27:07</time>
      </trkpt>
      <trkpt lat="39.95783" lon="-4.61692">
        <ele>409.6</ele>
        <time>2020-08-16 13:27:08</time>
      </trkpt>
      <trkpt lat="39.95785" lon="-4.61695">
        <ele>409.8</ele>
        <time>2020-08-16 13:27:09</time>
      </trkpt>
      <trkpt lat="39.95788" lon="-4.61703">
        <ele>409.8</ele>
        <time>2020-08-16 13:27:11</time>
      </trkpt>
      <trkpt lat="39.95801" lon="-4.61743">
        <ele>409.2</ele>
        <time>2020-08-16 13:27:20</time>
      </trkpt>
      <trkpt lat="39.9581" lon="-4.61777">
        <ele>409.2</ele>
        <time>2020-08-16 13:27:27</time>
      </trkpt>
      <trkpt lat="39.95815" lon="-4.61793">
        <ele>409</ele>
        <time>2020-08-16 13:27:30</time>
      </trkpt>
      <trkpt lat="39.95819" lon="-4.61804">
        <ele>408.8</ele>
        <time>2020-08-16 13:27:32</time>
      </trkpt>
      <trkpt lat="39.9582" lon="-4.61809">
        <ele>408.8</ele>
        <time>2020-08-16 13:27:33</time>
      </trkpt>
      <trkpt lat="39.95822" lon="-4.6182">
        <ele>408</ele>
        <time>2020-08-16 13:27:35</time>
      </trkpt>
      <trkpt lat="39.95824" lon="-4.61829">
        <ele>407.6</ele>
        <time>2020-08-16 13:27:37</time>
      </trkpt>
      <trkpt lat="39.95825" lon="-4.61834">
        <ele>407.4</ele>
        <time>2020-08-16 13:27:38</time>
      </trkpt>
      <trkpt lat="39.95826" lon="-4.61838">
        <ele>407</ele>
        <time>2020-08-16 13:27:39</time>
      </trkpt>
      <trkpt lat="39.95827" lon="-4.61843">
        <ele>406.8</ele>
        <time>2020-08-16 13:27:40</time>
      </trkpt>
      <trkpt lat="39.95828" lon="-4.61848">
        <ele>406.8</ele>
        <time>2020-08-16 13:27:41</time>
      </trkpt>
      <trkpt lat="39.95829" lon="-4.61852">
        <ele>406.6</ele>
        <time>2020-08-16 13:27:42</time>
      </trkpt>
      <trkpt lat="39.95831" lon="-4.61857">
        <ele>406.6</ele>
        <time>2020-08-16 13:27:43</time>
      </trkpt>
      <trkpt lat="39.95832" lon="-4.61861">
        <ele>406.6</ele>
        <time>2020-08-16 13:27:44</time>
      </trkpt>
      <trkpt lat="39.95833" lon="-4.61865">
        <ele>406.6</ele>
        <time>2020-08-16 13:27:45</time>
      </trkpt>
      <trkpt lat="39.95834" lon="-4.61869">
        <ele>406.4</ele>
        <time>2020-08-16 13:27:46</time>
      </trkpt>
      <trkpt lat="39.95836" lon="-4.61872">
        <ele>406.4</ele>
        <time>2020-08-16 13:27:47</time>
      </trkpt>
      <trkpt lat="39.95837" lon="-4.61876">
        <ele>406.4</ele>
        <time>2020-08-16 13:27:48</time>
      </trkpt>
      <trkpt lat="39.95838" lon="-4.6188">
        <ele>406.4</ele>
        <time>2020-08-16 13:27:49</time>
      </trkpt>
      <trkpt lat="39.9584" lon="-4.61884">
        <ele>406.4</ele>
        <time>2020-08-16 13:27:50</time>
      </trkpt>
      <trkpt lat="39.95841" lon="-4.61887">
        <ele>406.4</ele>
        <time>2020-08-16 13:27:51</time>
      </trkpt>
      <trkpt lat="39.95842" lon="-4.61888">
        <ele>406.2</ele>
        <time>2020-08-16 13:27:52</time>
      </trkpt>
      <trkpt lat="39.95842" lon="-4.61888">
        <ele>406</ele>
        <time>2020-08-16 13:27:54</time>
      </trkpt>
      <trkpt lat="39.95842" lon="-4.61891">
        <ele>405.6</ele>
        <time>2020-08-16 13:28:09</time>
      </trkpt>
      <trkpt lat="39.95844" lon="-4.61894">
        <ele>405.4</ele>
        <time>2020-08-16 13:28:10</time>
      </trkpt>
      <trkpt lat="39.95845" lon="-4.61898">
        <ele>405.6</ele>
        <time>2020-08-16 13:28:11</time>
      </trkpt>
      <trkpt lat="39.95847" lon="-4.61902">
        <ele>405.6</ele>
        <time>2020-08-16 13:28:12</time>
      </trkpt>
      <trkpt lat="39.95849" lon="-4.61908">
        <ele>405.6</ele>
        <time>2020-08-16 13:28:13</time>
      </trkpt>
      <trkpt lat="39.95851" lon="-4.61913">
        <ele>405.6</ele>
        <time>2020-08-16 13:28:14</time>
      </trkpt>
      <trkpt lat="39.95853" lon="-4.61918">
        <ele>405.6</ele>
        <time>2020-08-16 13:28:15</time>
      </trkpt>
      <trkpt lat="39.95855" lon="-4.61924">
        <ele>405.6</ele>
        <time>2020-08-16 13:28:16</time>
      </trkpt>
      <trkpt lat="39.95858" lon="-4.6193">
        <ele>405.6</ele>
        <time>2020-08-16 13:28:17</time>
      </trkpt>
      <trkpt lat="39.9586" lon="-4.61936">
        <ele>405.6</ele>
        <time>2020-08-16 13:28:18</time>
      </trkpt>
      <trkpt lat="39.95863" lon="-4.61941">
        <ele>405.6</ele>
        <time>2020-08-16 13:28:19</time>
      </trkpt>
      <trkpt lat="39.9587" lon="-4.61952">
        <ele>405.6</ele>
        <time>2020-08-16 13:28:21</time>
      </trkpt>
      <trkpt lat="39.95873" lon="-4.61958">
        <ele>405.6</ele>
        <time>2020-08-16 13:28:22</time>
      </trkpt>
      <trkpt lat="39.95888" lon="-4.61988">
        <ele>405.6</ele>
        <time>2020-08-16 13:28:27</time>
      </trkpt>
      <trkpt lat="39.95897" lon="-4.62006">
        <ele>405.8</ele>
        <time>2020-08-16 13:28:30</time>
      </trkpt>
      <trkpt lat="39.95906" lon="-4.62022">
        <ele>405.8</ele>
        <time>2020-08-16 13:28:33</time>
      </trkpt>
      <trkpt lat="39.95909" lon="-4.62028">
        <ele>405.8</ele>
        <time>2020-08-16 13:28:34</time>
      </trkpt>
      <trkpt lat="39.95912" lon="-4.62033">
        <ele>405.8</ele>
        <time>2020-08-16 13:28:35</time>
      </trkpt>
      <trkpt lat="39.95915" lon="-4.62039">
        <ele>405.6</ele>
        <time>2020-08-16 13:28:36</time>
      </trkpt>
      <trkpt lat="39.95917" lon="-4.62044">
        <ele>405.8</ele>
        <time>2020-08-16 13:28:37</time>
      </trkpt>
      <trkpt lat="39.9592" lon="-4.62048">
        <ele>405.8</ele>
        <time>2020-08-16 13:28:38</time>
      </trkpt>
      <trkpt lat="39.95923" lon="-4.62053">
        <ele>405.8</ele>
        <time>2020-08-16 13:28:39</time>
      </trkpt>
      <trkpt lat="39.95925" lon="-4.62059">
        <ele>406</ele>
        <time>2020-08-16 13:28:40</time>
      </trkpt>
      <trkpt lat="39.95928" lon="-4.62064">
        <ele>406.2</ele>
        <time>2020-08-16 13:28:41</time>
      </trkpt>
      <trkpt lat="39.9593" lon="-4.6207">
        <ele>406.4</ele>
        <time>2020-08-16 13:28:42</time>
      </trkpt>
      <trkpt lat="39.95932" lon="-4.62076">
        <ele>406.4</ele>
        <time>2020-08-16 13:28:43</time>
      </trkpt>
      <trkpt lat="39.95934" lon="-4.62082">
        <ele>406.4</ele>
        <time>2020-08-16 13:28:44</time>
      </trkpt>
      <trkpt lat="39.95935" lon="-4.62089">
        <ele>406.4</ele>
        <time>2020-08-16 13:28:45</time>
      </trkpt>
      <trkpt lat="39.95937" lon="-4.62095">
        <ele>406.4</ele>
        <time>2020-08-16 13:28:46</time>
      </trkpt>
      <trkpt lat="39.95942" lon="-4.62108">
        <ele>406.4</ele>
        <time>2020-08-16 13:28:48</time>
      </trkpt>
      <trkpt lat="39.95957" lon="-4.62162">
        <ele>405.8</ele>
        <time>2020-08-16 13:28:56</time>
      </trkpt>
      <trkpt lat="39.95962" lon="-4.62175">
        <ele>405.6</ele>
        <time>2020-08-16 13:28:58</time>
      </trkpt>
      <trkpt lat="39.95964" lon="-4.62181">
        <ele>405.6</ele>
        <time>2020-08-16 13:28:59</time>
      </trkpt>
      <trkpt lat="39.95967" lon="-4.62187">
        <ele>405.4</ele>
        <time>2020-08-16 13:29:00</time>
      </trkpt>
      <trkpt lat="39.9597" lon="-4.62193">
        <ele>405.4</ele>
        <time>2020-08-16 13:29:01</time>
      </trkpt>
      <trkpt lat="39.95973" lon="-4.62199">
        <ele>405.4</ele>
        <time>2020-08-16 13:29:02</time>
      </trkpt>
      <trkpt lat="39.95976" lon="-4.62205">
        <ele>405.4</ele>
        <time>2020-08-16 13:29:03</time>
      </trkpt>
      <trkpt lat="39.95979" lon="-4.62211">
        <ele>405.4</ele>
        <time>2020-08-16 13:29:04</time>
      </trkpt>
      <trkpt lat="39.95983" lon="-4.62216">
        <ele>405.2</ele>
        <time>2020-08-16 13:29:05</time>
      </trkpt>
      <trkpt lat="39.95999" lon="-4.62238">
        <ele>405.2</ele>
        <time>2020-08-16 13:29:09</time>
      </trkpt>
      <trkpt lat="39.96021" lon="-4.62269">
        <ele>404.8</ele>
        <time>2020-08-16 13:29:15</time>
      </trkpt>
      <trkpt lat="39.96024" lon="-4.62274">
        <ele>404.8</ele>
        <time>2020-08-16 13:29:16</time>
      </trkpt>
      <trkpt lat="39.96027" lon="-4.62279">
        <ele>404.8</ele>
        <time>2020-08-16 13:29:17</time>
      </trkpt>
      <trkpt lat="39.96031" lon="-4.62285">
        <ele>404.8</ele>
        <time>2020-08-16 13:29:18</time>
      </trkpt>
      <trkpt lat="39.96034" lon="-4.6229">
        <ele>404.8</ele>
        <time>2020-08-16 13:29:19</time>
      </trkpt>
      <trkpt lat="39.96037" lon="-4.62295">
        <ele>404.6</ele>
        <time>2020-08-16 13:29:20</time>
      </trkpt>
      <trkpt lat="39.9604" lon="-4.62301">
        <ele>404.6</ele>
        <time>2020-08-16 13:29:21</time>
      </trkpt>
      <trkpt lat="39.96043" lon="-4.62306">
        <ele>404.6</ele>
        <time>2020-08-16 13:29:22</time>
      </trkpt>
      <trkpt lat="39.96047" lon="-4.62312">
        <ele>404.6</ele>
        <time>2020-08-16 13:29:23</time>
      </trkpt>
      <trkpt lat="39.9605" lon="-4.62317">
        <ele>404.6</ele>
        <time>2020-08-16 13:29:24</time>
      </trkpt>
      <trkpt lat="39.96052" lon="-4.62323">
        <ele>404.6</ele>
        <time>2020-08-16 13:29:25</time>
      </trkpt>
      <trkpt lat="39.96055" lon="-4.62329">
        <ele>404.6</ele>
        <time>2020-08-16 13:29:26</time>
      </trkpt>
      <trkpt lat="39.96058" lon="-4.62335">
        <ele>404.4</ele>
        <time>2020-08-16 13:29:27</time>
      </trkpt>
      <trkpt lat="39.9606" lon="-4.62341">
        <ele>404.4</ele>
        <time>2020-08-16 13:29:28</time>
      </trkpt>
      <trkpt lat="39.96062" lon="-4.62347">
        <ele>404.2</ele>
        <time>2020-08-16 13:29:29</time>
      </trkpt>
      <trkpt lat="39.96064" lon="-4.62353">
        <ele>404.2</ele>
        <time>2020-08-16 13:29:30</time>
      </trkpt>
      <trkpt lat="39.96066" lon="-4.62361">
        <ele>404.2</ele>
        <time>2020-08-16 13:29:31</time>
      </trkpt>
      <trkpt lat="39.96073" lon="-4.62391">
        <ele>404.2</ele>
        <time>2020-08-16 13:29:35</time>
      </trkpt>
      <trkpt lat="39.96074" lon="-4.62398">
        <ele>404</ele>
        <time>2020-08-16 13:29:36</time>
      </trkpt>
      <trkpt lat="39.96076" lon="-4.62404">
        <ele>404</ele>
        <time>2020-08-16 13:29:37</time>
      </trkpt>
      <trkpt lat="39.96077" lon="-4.6241">
        <ele>403.8</ele>
        <time>2020-08-16 13:29:38</time>
      </trkpt>
      <trkpt lat="39.96078" lon="-4.62416">
        <ele>403.6</ele>
        <time>2020-08-16 13:29:39</time>
      </trkpt>
      <trkpt lat="39.9608" lon="-4.62421">
        <ele>403.6</ele>
        <time>2020-08-16 13:29:40</time>
      </trkpt>
      <trkpt lat="39.96081" lon="-4.62426">
        <ele>403.4</ele>
        <time>2020-08-16 13:29:41</time>
      </trkpt>
      <trkpt lat="39.96084" lon="-4.62437">
        <ele>403.4</ele>
        <time>2020-08-16 13:29:43</time>
      </trkpt>
      <trkpt lat="39.96086" lon="-4.62442">
        <ele>403.4</ele>
        <time>2020-08-16 13:29:44</time>
      </trkpt>
      <trkpt lat="39.96088" lon="-4.62448">
        <ele>403.4</ele>
        <time>2020-08-16 13:29:45</time>
      </trkpt>
      <trkpt lat="39.96089" lon="-4.62453">
        <ele>403.2</ele>
        <time>2020-08-16 13:29:46</time>
      </trkpt>
      <trkpt lat="39.96091" lon="-4.62458">
        <ele>403.2</ele>
        <time>2020-08-16 13:29:47</time>
      </trkpt>
      <trkpt lat="39.96094" lon="-4.62464">
        <ele>403.2</ele>
        <time>2020-08-16 13:29:48</time>
      </trkpt>
      <trkpt lat="39.96097" lon="-4.62469">
        <ele>403.2</ele>
        <time>2020-08-16 13:29:49</time>
      </trkpt>
      <trkpt lat="39.96104" lon="-4.62486">
        <ele>403.2</ele>
        <time>2020-08-16 13:29:52</time>
      </trkpt>
      <trkpt lat="39.96126" lon="-4.62533">
        <ele>402.6</ele>
        <time>2020-08-16 13:30:00</time>
      </trkpt>
      <trkpt lat="39.9613" lon="-4.62544">
        <ele>402.6</ele>
        <time>2020-08-16 13:30:02</time>
      </trkpt>
      <trkpt lat="39.96135" lon="-4.62555">
        <ele>402.4</ele>
        <time>2020-08-16 13:30:04</time>
      </trkpt>
      <trkpt lat="39.96137" lon="-4.6256">
        <ele>402.4</ele>
        <time>2020-08-16 13:30:05</time>
      </trkpt>
      <trkpt lat="39.96139" lon="-4.62565">
        <ele>402.4</ele>
        <time>2020-08-16 13:30:06</time>
      </trkpt>
      <trkpt lat="39.96141" lon="-4.6257">
        <ele>402.4</ele>
        <time>2020-08-16 13:30:07</time>
      </trkpt>
      <trkpt lat="39.96143" lon="-4.62575">
        <ele>402.4</ele>
        <time>2020-08-16 13:30:08</time>
      </trkpt>
      <trkpt lat="39.96146" lon="-4.6258">
        <ele>402.4</ele>
        <time>2020-08-16 13:30:09</time>
      </trkpt>
      <trkpt lat="39.96147" lon="-4.62586">
        <ele>402.6</ele>
        <time>2020-08-16 13:30:10</time>
      </trkpt>
      <trkpt lat="39.96149" lon="-4.6259">
        <ele>402.6</ele>
        <time>2020-08-16 13:30:11</time>
      </trkpt>
      <trkpt lat="39.96151" lon="-4.62595">
        <ele>402.6</ele>
        <time>2020-08-16 13:30:12</time>
      </trkpt>
      <trkpt lat="39.96153" lon="-4.62599">
        <ele>402.6</ele>
        <time>2020-08-16 13:30:13</time>
      </trkpt>
      <trkpt lat="39.96154" lon="-4.62603">
        <ele>402.6</ele>
        <time>2020-08-16 13:30:14</time>
      </trkpt>
      <trkpt lat="39.96156" lon="-4.62607">
        <ele>402.6</ele>
        <time>2020-08-16 13:30:15</time>
      </trkpt>
      <trkpt lat="39.96157" lon="-4.62611">
        <ele>402.8</ele>
        <time>2020-08-16 13:30:16</time>
      </trkpt>
      <trkpt lat="39.96158" lon="-4.62615">
        <ele>402.8</ele>
        <time>2020-08-16 13:30:17</time>
      </trkpt>
      <trkpt lat="39.96161" lon="-4.62623">
        <ele>403</ele>
        <time>2020-08-16 13:30:19</time>
      </trkpt>
      <trkpt lat="39.96163" lon="-4.62627">
        <ele>403</ele>
        <time>2020-08-16 13:30:20</time>
      </trkpt>
      <trkpt lat="39.96164" lon="-4.62631">
        <ele>403.2</ele>
        <time>2020-08-16 13:30:21</time>
      </trkpt>
      <trkpt lat="39.96165" lon="-4.62635">
        <ele>403.2</ele>
        <time>2020-08-16 13:30:22</time>
      </trkpt>
      <trkpt lat="39.96167" lon="-4.62639">
        <ele>403.2</ele>
        <time>2020-08-16 13:30:23</time>
      </trkpt>
      <trkpt lat="39.96168" lon="-4.62643">
        <ele>403.2</ele>
        <time>2020-08-16 13:30:24</time>
      </trkpt>
      <trkpt lat="39.96169" lon="-4.62647">
        <ele>403.4</ele>
        <time>2020-08-16 13:30:25</time>
      </trkpt>
      <trkpt lat="39.96171" lon="-4.62651">
        <ele>403.6</ele>
        <time>2020-08-16 13:30:26</time>
      </trkpt>
      <trkpt lat="39.96172" lon="-4.62654">
        <ele>403.6</ele>
        <time>2020-08-16 13:30:27</time>
      </trkpt>
      <trkpt lat="39.96173" lon="-4.62657">
        <ele>403.8</ele>
        <time>2020-08-16 13:30:28</time>
      </trkpt>
      <trkpt lat="39.96173" lon="-4.62658">
        <ele>403.8</ele>
        <time>2020-08-16 13:30:29</time>
      </trkpt>
      <trkpt lat="39.96174" lon="-4.62659">
        <ele>404</ele>
        <time>2020-08-16 13:30:30</time>
      </trkpt>
      <trkpt lat="39.96174" lon="-4.6266">
        <ele>404.2</ele>
        <time>2020-08-16 13:30:32</time>
      </trkpt>
      <trkpt lat="39.96174" lon="-4.62663">
        <ele>403.6</ele>
        <time>2020-08-16 13:30:58</time>
      </trkpt>
      <trkpt lat="39.96174" lon="-4.62667">
        <ele>403.6</ele>
        <time>2020-08-16 13:30:59</time>
      </trkpt>
      <trkpt lat="39.96174" lon="-4.62676">
        <ele>403.6</ele>
        <time>2020-08-16 13:31:01</time>
      </trkpt>
      <trkpt lat="39.96175" lon="-4.62687">
        <ele>403.6</ele>
        <time>2020-08-16 13:31:03</time>
      </trkpt>
      <trkpt lat="39.96175" lon="-4.62698">
        <ele>403.8</ele>
        <time>2020-08-16 13:31:05</time>
      </trkpt>
      <trkpt lat="39.96174" lon="-4.62716">
        <ele>403.8</ele>
        <time>2020-08-16 13:31:08</time>
      </trkpt>
      <trkpt lat="39.96174" lon="-4.62721">
        <ele>403.8</ele>
        <time>2020-08-16 13:31:09</time>
      </trkpt>
      <trkpt lat="39.96171" lon="-4.62739">
        <ele>403.8</ele>
        <time>2020-08-16 13:31:12</time>
      </trkpt>
      <trkpt lat="39.96167" lon="-4.62762">
        <ele>403.8</ele>
        <time>2020-08-16 13:31:16</time>
      </trkpt>
      <trkpt lat="39.96156" lon="-4.62816">
        <ele>403.2</ele>
        <time>2020-08-16 13:31:25</time>
      </trkpt>
      <trkpt lat="39.96152" lon="-4.62829">
        <ele>403</ele>
        <time>2020-08-16 13:31:27</time>
      </trkpt>
      <trkpt lat="39.96147" lon="-4.62846">
        <ele>402.8</ele>
        <time>2020-08-16 13:31:30</time>
      </trkpt>
      <trkpt lat="39.96146" lon="-4.62851">
        <ele>402.8</ele>
        <time>2020-08-16 13:31:31</time>
      </trkpt>
      <trkpt lat="39.96144" lon="-4.62857">
        <ele>402.6</ele>
        <time>2020-08-16 13:31:32</time>
      </trkpt>
      <trkpt lat="39.96144" lon="-4.62861">
        <ele>402.4</ele>
        <time>2020-08-16 13:31:33</time>
      </trkpt>
      <trkpt lat="39.96143" lon="-4.62865">
        <ele>402.2</ele>
        <time>2020-08-16 13:31:34</time>
      </trkpt>
      <trkpt lat="39.96142" lon="-4.62868">
        <ele>402.2</ele>
        <time>2020-08-16 13:31:35</time>
      </trkpt>
      <trkpt lat="39.96141" lon="-4.62871">
        <ele>402.2</ele>
        <time>2020-08-16 13:31:36</time>
      </trkpt>
      <trkpt lat="39.9614" lon="-4.62875">
        <ele>402.2</ele>
        <time>2020-08-16 13:31:37</time>
      </trkpt>
      <trkpt lat="39.96138" lon="-4.62883">
        <ele>402.2</ele>
        <time>2020-08-16 13:31:39</time>
      </trkpt>
      <trkpt lat="39.96134" lon="-4.62896">
        <ele>402.4</ele>
        <time>2020-08-16 13:31:42</time>
      </trkpt>
      <trkpt lat="39.96129" lon="-4.6291">
        <ele>402.8</ele>
        <time>2020-08-16 13:31:45</time>
      </trkpt>
      <trkpt lat="39.96123" lon="-4.62926">
        <ele>402.6</ele>
        <time>2020-08-16 13:31:48</time>
      </trkpt>
      <trkpt lat="39.96121" lon="-4.62931">
        <ele>402.6</ele>
        <time>2020-08-16 13:31:49</time>
      </trkpt>
      <trkpt lat="39.96112" lon="-4.62955">
        <ele>402.6</ele>
        <time>2020-08-16 13:31:53</time>
      </trkpt>
      <trkpt lat="39.96105" lon="-4.62974">
        <ele>402.4</ele>
        <time>2020-08-16 13:31:56</time>
      </trkpt>
      <trkpt lat="39.96098" lon="-4.63">
        <ele>402.2</ele>
        <time>2020-08-16 13:32:00</time>
      </trkpt>
      <trkpt lat="39.96092" lon="-4.63014">
        <ele>401.8</ele>
        <time>2020-08-16 13:32:02</time>
      </trkpt>
      <trkpt lat="39.96089" lon="-4.63021">
        <ele>401.6</ele>
        <time>2020-08-16 13:32:03</time>
      </trkpt>
      <trkpt lat="39.96085" lon="-4.63026">
        <ele>401.4</ele>
        <time>2020-08-16 13:32:04</time>
      </trkpt>
      <trkpt lat="39.96081" lon="-4.63031">
        <ele>401.2</ele>
        <time>2020-08-16 13:32:05</time>
      </trkpt>
      <trkpt lat="39.96078" lon="-4.63035">
        <ele>401</ele>
        <time>2020-08-16 13:32:06</time>
      </trkpt>
      <trkpt lat="39.96074" lon="-4.63039">
        <ele>400.8</ele>
        <time>2020-08-16 13:32:07</time>
      </trkpt>
      <trkpt lat="39.9607" lon="-4.63042">
        <ele>400.6</ele>
        <time>2020-08-16 13:32:08</time>
      </trkpt>
      <trkpt lat="39.96068" lon="-4.63044">
        <ele>400.4</ele>
        <time>2020-08-16 13:32:09</time>
      </trkpt>
      <trkpt lat="39.96066" lon="-4.63046">
        <ele>400</ele>
        <time>2020-08-16 13:32:10</time>
      </trkpt>
      <trkpt lat="39.96065" lon="-4.63049">
        <ele>399.6</ele>
        <time>2020-08-16 13:32:11</time>
      </trkpt>
      <trkpt lat="39.96067" lon="-4.63052">
        <ele>399.2</ele>
        <time>2020-08-16 13:32:12</time>
      </trkpt>
      <trkpt lat="39.96069" lon="-4.63052">
        <ele>398.8</ele>
        <time>2020-08-16 13:32:13</time>
      </trkpt>
      <trkpt lat="39.96072" lon="-4.63052">
        <ele>398.6</ele>
        <time>2020-08-16 13:32:14</time>
      </trkpt>
      <trkpt lat="39.9608" lon="-4.63052">
        <ele>398</ele>
        <time>2020-08-16 13:32:16</time>
      </trkpt>
      <trkpt lat="39.96088" lon="-4.63053">
        <ele>397.6</ele>
        <time>2020-08-16 13:32:18</time>
      </trkpt>
      <trkpt lat="39.96106" lon="-4.63056">
        <ele>397.4</ele>
        <time>2020-08-16 13:32:22</time>
      </trkpt>
      <trkpt lat="39.9611" lon="-4.63055">
        <ele>397.4</ele>
        <time>2020-08-16 13:32:23</time>
      </trkpt>
      <trkpt lat="39.96114" lon="-4.63054">
        <ele>397.4</ele>
        <time>2020-08-16 13:32:24</time>
      </trkpt>
      <trkpt lat="39.96118" lon="-4.63051">
        <ele>397.4</ele>
        <time>2020-08-16 13:32:25</time>
      </trkpt>
      <trkpt lat="39.96122" lon="-4.63048">
        <ele>397.4</ele>
        <time>2020-08-16 13:32:26</time>
      </trkpt>
      <trkpt lat="39.96125" lon="-4.63043">
        <ele>397.6</ele>
        <time>2020-08-16 13:32:27</time>
      </trkpt>
      <trkpt lat="39.96127" lon="-4.63038">
        <ele>397.6</ele>
        <time>2020-08-16 13:32:28</time>
      </trkpt>
      <trkpt lat="39.96128" lon="-4.63033">
        <ele>397.6</ele>
        <time>2020-08-16 13:32:29</time>
      </trkpt>
      <trkpt lat="39.96129" lon="-4.63027">
        <ele>397.6</ele>
        <time>2020-08-16 13:32:30</time>
      </trkpt>
      <trkpt lat="39.9613" lon="-4.63022">
        <ele>397.8</ele>
        <time>2020-08-16 13:32:31</time>
      </trkpt>
      <trkpt lat="39.9613" lon="-4.63017">
        <ele>398</ele>
        <time>2020-08-16 13:32:32</time>
      </trkpt>
      <trkpt lat="39.96131" lon="-4.63012">
        <ele>398</ele>
        <time>2020-08-16 13:32:33</time>
      </trkpt>
      <trkpt lat="39.96132" lon="-4.63008">
        <ele>398</ele>
        <time>2020-08-16 13:32:34</time>
      </trkpt>
      <trkpt lat="39.96133" lon="-4.63004">
        <ele>398.4</ele>
        <time>2020-08-16 13:32:35</time>
      </trkpt>
      <trkpt lat="39.96134" lon="-4.62999">
        <ele>398.6</ele>
        <time>2020-08-16 13:32:36</time>
      </trkpt>
      <trkpt lat="39.96136" lon="-4.62995">
        <ele>399</ele>
        <time>2020-08-16 13:32:37</time>
      </trkpt>
      <trkpt lat="39.96138" lon="-4.62991">
        <ele>399.4</ele>
        <time>2020-08-16 13:32:38</time>
      </trkpt>
      <trkpt lat="39.9614" lon="-4.62988">
        <ele>399.4</ele>
        <time>2020-08-16 13:32:39</time>
      </trkpt>
      <trkpt lat="39.96142" lon="-4.62985">
        <ele>399.8</ele>
        <time>2020-08-16 13:32:40</time>
      </trkpt>
      <trkpt lat="39.96145" lon="-4.62982">
        <ele>400</ele>
        <time>2020-08-16 13:32:41</time>
      </trkpt>
      <trkpt lat="39.96148" lon="-4.6298">
        <ele>400.2</ele>
        <time>2020-08-16 13:32:42</time>
      </trkpt>
      <trkpt lat="39.9615" lon="-4.62978">
        <ele>400.4</ele>
        <time>2020-08-16 13:32:43</time>
      </trkpt>
      <trkpt lat="39.96153" lon="-4.62976">
        <ele>400.6</ele>
        <time>2020-08-16 13:32:44</time>
      </trkpt>
      <trkpt lat="39.96156" lon="-4.62974">
        <ele>401.2</ele>
        <time>2020-08-16 13:32:45</time>
      </trkpt>
      <trkpt lat="39.96159" lon="-4.62972">
        <ele>401.4</ele>
        <time>2020-08-16 13:32:46</time>
      </trkpt>
      <trkpt lat="39.96162" lon="-4.62971">
        <ele>401.8</ele>
        <time>2020-08-16 13:32:47</time>
      </trkpt>
      <trkpt lat="39.96165" lon="-4.62969">
        <ele>402</ele>
        <time>2020-08-16 13:32:48</time>
      </trkpt>
      <trkpt lat="39.96168" lon="-4.62967">
        <ele>402.2</ele>
        <time>2020-08-16 13:32:49</time>
      </trkpt>
      <trkpt lat="39.96171" lon="-4.62966">
        <ele>402.6</ele>
        <time>2020-08-16 13:32:50</time>
      </trkpt>
      <trkpt lat="39.96174" lon="-4.62964">
        <ele>402.6</ele>
        <time>2020-08-16 13:32:51</time>
      </trkpt>
      <trkpt lat="39.96178" lon="-4.62962">
        <ele>402.8</ele>
        <time>2020-08-16 13:32:52</time>
      </trkpt>
      <trkpt lat="39.96181" lon="-4.6296">
        <ele>402.8</ele>
        <time>2020-08-16 13:32:53</time>
      </trkpt>
      <trkpt lat="39.96184" lon="-4.62959">
        <ele>403</ele>
        <time>2020-08-16 13:32:54</time>
      </trkpt>
      <trkpt lat="39.96187" lon="-4.62957">
        <ele>403.4</ele>
        <time>2020-08-16 13:32:55</time>
      </trkpt>
      <trkpt lat="39.9619" lon="-4.62956">
        <ele>403.4</ele>
        <time>2020-08-16 13:32:56</time>
      </trkpt>
      <trkpt lat="39.96193" lon="-4.62955">
        <ele>403.6</ele>
        <time>2020-08-16 13:32:57</time>
      </trkpt>
      <trkpt lat="39.96197" lon="-4.62954">
        <ele>403.6</ele>
        <time>2020-08-16 13:32:58</time>
      </trkpt>
      <trkpt lat="39.96199" lon="-4.62954">
        <ele>403.8</ele>
        <time>2020-08-16 13:32:59</time>
      </trkpt>
      <trkpt lat="39.96203" lon="-4.62954">
        <ele>404.2</ele>
        <time>2020-08-16 13:33:00</time>
      </trkpt>
      <trkpt lat="39.96206" lon="-4.62955">
        <ele>404.2</ele>
        <time>2020-08-16 13:33:01</time>
      </trkpt>
      <trkpt lat="39.96209" lon="-4.62956">
        <ele>404.4</ele>
        <time>2020-08-16 13:33:02</time>
      </trkpt>
      <trkpt lat="39.96212" lon="-4.62957">
        <ele>404.6</ele>
        <time>2020-08-16 13:33:03</time>
      </trkpt>
      <trkpt lat="39.96215" lon="-4.62958">
        <ele>404.6</ele>
        <time>2020-08-16 13:33:04</time>
      </trkpt>
      <trkpt lat="39.96217" lon="-4.62959">
        <ele>405</ele>
        <time>2020-08-16 13:33:05</time>
      </trkpt>
      <trkpt lat="39.9622" lon="-4.62961">
        <ele>405</ele>
        <time>2020-08-16 13:33:06</time>
      </trkpt>
      <trkpt lat="39.96221" lon="-4.62962">
        <ele>405.6</ele>
        <time>2020-08-16 13:33:07</time>
      </trkpt>
      <trkpt lat="39.96223" lon="-4.62963">
        <ele>405.8</ele>
        <time>2020-08-16 13:33:08</time>
      </trkpt>
      <trkpt lat="39.96225" lon="-4.62964">
        <ele>406.2</ele>
        <time>2020-08-16 13:33:09</time>
      </trkpt>
      <trkpt lat="39.96227" lon="-4.62965">
        <ele>406.4</ele>
        <time>2020-08-16 13:33:10</time>
      </trkpt>
      <trkpt lat="39.96228" lon="-4.62966">
        <ele>406.6</ele>
        <time>2020-08-16 13:33:11</time>
      </trkpt>
      <trkpt lat="39.9623" lon="-4.62967">
        <ele>407</ele>
        <time>2020-08-16 13:33:12</time>
      </trkpt>
      <trkpt lat="39.96231" lon="-4.62968">
        <ele>407.2</ele>
        <time>2020-08-16 13:33:13</time>
      </trkpt>
      <trkpt lat="39.96233" lon="-4.62969">
        <ele>407.6</ele>
        <time>2020-08-16 13:33:14</time>
      </trkpt>
      <trkpt lat="39.96235" lon="-4.62969">
        <ele>407.6</ele>
        <time>2020-08-16 13:33:15</time>
      </trkpt>
      <trkpt lat="39.96237" lon="-4.6297">
        <ele>408</ele>
        <time>2020-08-16 13:33:16</time>
      </trkpt>
      <trkpt lat="39.96238" lon="-4.62971">
        <ele>408.2</ele>
        <time>2020-08-16 13:33:17</time>
      </trkpt>
      <trkpt lat="39.9624" lon="-4.62971">
        <ele>408.2</ele>
        <time>2020-08-16 13:33:18</time>
      </trkpt>
      <trkpt lat="39.96242" lon="-4.62972">
        <ele>408.6</ele>
        <time>2020-08-16 13:33:19</time>
      </trkpt>
      <trkpt lat="39.96245" lon="-4.62972">
        <ele>408.6</ele>
        <time>2020-08-16 13:33:20</time>
      </trkpt>
      <trkpt lat="39.96247" lon="-4.62973">
        <ele>409</ele>
        <time>2020-08-16 13:33:21</time>
      </trkpt>
      <trkpt lat="39.9625" lon="-4.62974">
        <ele>409.2</ele>
        <time>2020-08-16 13:33:22</time>
      </trkpt>
      <trkpt lat="39.96254" lon="-4.62974">
        <ele>409.2</ele>
        <time>2020-08-16 13:33:23</time>
      </trkpt>
      <trkpt lat="39.96257" lon="-4.62975">
        <ele>409.4</ele>
        <time>2020-08-16 13:33:24</time>
      </trkpt>
      <trkpt lat="39.9626" lon="-4.62976">
        <ele>409.4</ele>
        <time>2020-08-16 13:33:25</time>
      </trkpt>
      <trkpt lat="39.96264" lon="-4.62977">
        <ele>409.4</ele>
        <time>2020-08-16 13:33:26</time>
      </trkpt>
      <trkpt lat="39.96267" lon="-4.62978">
        <ele>409.4</ele>
        <time>2020-08-16 13:33:27</time>
      </trkpt>
      <trkpt lat="39.9627" lon="-4.62979">
        <ele>409.4</ele>
        <time>2020-08-16 13:33:28</time>
      </trkpt>
      <trkpt lat="39.96278" lon="-4.62984">
        <ele>409.6</ele>
        <time>2020-08-16 13:33:31</time>
      </trkpt>
      <trkpt lat="39.96282" lon="-4.62986">
        <ele>409.8</ele>
        <time>2020-08-16 13:33:33</time>
      </trkpt>
      <trkpt lat="39.96285" lon="-4.62988">
        <ele>409.8</ele>
        <time>2020-08-16 13:33:34</time>
      </trkpt>
      <trkpt lat="39.96287" lon="-4.62991">
        <ele>409.8</ele>
        <time>2020-08-16 13:33:35</time>
      </trkpt>
      <trkpt lat="39.96289" lon="-4.62993">
        <ele>410</ele>
        <time>2020-08-16 13:33:36</time>
      </trkpt>
      <trkpt lat="39.96291" lon="-4.62995">
        <ele>410</ele>
        <time>2020-08-16 13:33:37</time>
      </trkpt>
      <trkpt lat="39.96293" lon="-4.62997">
        <ele>410</ele>
        <time>2020-08-16 13:33:38</time>
      </trkpt>
      <trkpt lat="39.96294" lon="-4.62999">
        <ele>410.2</ele>
        <time>2020-08-16 13:33:39</time>
      </trkpt>
      <trkpt lat="39.96297" lon="-4.63002">
        <ele>410.2</ele>
        <time>2020-08-16 13:33:40</time>
      </trkpt>
      <trkpt lat="39.96299" lon="-4.63004">
        <ele>410.4</ele>
        <time>2020-08-16 13:33:41</time>
      </trkpt>
      <trkpt lat="39.96302" lon="-4.63005">
        <ele>410.4</ele>
        <time>2020-08-16 13:33:42</time>
      </trkpt>
      <trkpt lat="39.96304" lon="-4.63007">
        <ele>410.4</ele>
        <time>2020-08-16 13:33:43</time>
      </trkpt>
      <trkpt lat="39.9631" lon="-4.6301">
        <ele>410.6</ele>
        <time>2020-08-16 13:33:45</time>
      </trkpt>
      <trkpt lat="39.96312" lon="-4.63011">
        <ele>410.6</ele>
        <time>2020-08-16 13:33:46</time>
      </trkpt>
      <trkpt lat="39.96315" lon="-4.63012">
        <ele>410.8</ele>
        <time>2020-08-16 13:33:47</time>
      </trkpt>
      <trkpt lat="39.96317" lon="-4.63013">
        <ele>411</ele>
        <time>2020-08-16 13:33:48</time>
      </trkpt>
      <trkpt lat="39.9632" lon="-4.63014">
        <ele>411.2</ele>
        <time>2020-08-16 13:33:49</time>
      </trkpt>
      <trkpt lat="39.96323" lon="-4.63015">
        <ele>411.2</ele>
        <time>2020-08-16 13:33:50</time>
      </trkpt>
      <trkpt lat="39.96325" lon="-4.63017">
        <ele>411.2</ele>
        <time>2020-08-16 13:33:51</time>
      </trkpt>
      <trkpt lat="39.9633" lon="-4.63019">
        <ele>411.4</ele>
        <time>2020-08-16 13:33:53</time>
      </trkpt>
      <trkpt lat="39.96332" lon="-4.6302">
        <ele>411.4</ele>
        <time>2020-08-16 13:33:54</time>
      </trkpt>
      <trkpt lat="39.96334" lon="-4.63021">
        <ele>411.6</ele>
        <time>2020-08-16 13:33:55</time>
      </trkpt>
      <trkpt lat="39.96336" lon="-4.63022">
        <ele>411.8</ele>
        <time>2020-08-16 13:33:56</time>
      </trkpt>
      <trkpt lat="39.96339" lon="-4.63023">
        <ele>411.8</ele>
        <time>2020-08-16 13:33:57</time>
      </trkpt>
      <trkpt lat="39.96341" lon="-4.63023">
        <ele>412</ele>
        <time>2020-08-16 13:33:58</time>
      </trkpt>
      <trkpt lat="39.96343" lon="-4.63024">
        <ele>412.2</ele>
        <time>2020-08-16 13:33:59</time>
      </trkpt>
      <trkpt lat="39.96346" lon="-4.63024">
        <ele>412.2</ele>
        <time>2020-08-16 13:34:00</time>
      </trkpt>
      <trkpt lat="39.96348" lon="-4.63025">
        <ele>412.4</ele>
        <time>2020-08-16 13:34:01</time>
      </trkpt>
      <trkpt lat="39.96351" lon="-4.63025">
        <ele>412.4</ele>
        <time>2020-08-16 13:34:02</time>
      </trkpt>
      <trkpt lat="39.96353" lon="-4.63026">
        <ele>412.4</ele>
        <time>2020-08-16 13:34:03</time>
      </trkpt>
      <trkpt lat="39.96355" lon="-4.63027">
        <ele>412.6</ele>
        <time>2020-08-16 13:34:04</time>
      </trkpt>
      <trkpt lat="39.96357" lon="-4.63028">
        <ele>412.6</ele>
        <time>2020-08-16 13:34:05</time>
      </trkpt>
      <trkpt lat="39.9636" lon="-4.63029">
        <ele>413</ele>
        <time>2020-08-16 13:34:06</time>
      </trkpt>
      <trkpt lat="39.96362" lon="-4.6303">
        <ele>413</ele>
        <time>2020-08-16 13:34:07</time>
      </trkpt>
      <trkpt lat="39.96364" lon="-4.63031">
        <ele>413</ele>
        <time>2020-08-16 13:34:08</time>
      </trkpt>
      <trkpt lat="39.96366" lon="-4.63031">
        <ele>413.2</ele>
        <time>2020-08-16 13:34:09</time>
      </trkpt>
      <trkpt lat="39.96369" lon="-4.63031">
        <ele>413.2</ele>
        <time>2020-08-16 13:34:10</time>
      </trkpt>
      <trkpt lat="39.96376" lon="-4.63032">
        <ele>413.4</ele>
        <time>2020-08-16 13:34:13</time>
      </trkpt>
      <trkpt lat="39.9638" lon="-4.63033">
        <ele>413.4</ele>
        <time>2020-08-16 13:34:15</time>
      </trkpt>
      <trkpt lat="39.96381" lon="-4.63033">
        <ele>413.6</ele>
        <time>2020-08-16 13:34:16</time>
      </trkpt>
      <trkpt lat="39.96382" lon="-4.63033">
        <ele>413.6</ele>
        <time>2020-08-16 13:34:17</time>
      </trkpt>
      <trkpt lat="39.96383" lon="-4.63033">
        <ele>413.6</ele>
        <time>2020-08-16 13:34:18</time>
      </trkpt>
      <trkpt lat="39.96384" lon="-4.63033">
        <ele>413.6</ele>
        <time>2020-08-16 13:34:20</time>
      </trkpt>
      <trkpt lat="39.96382" lon="-4.63034">
        <ele>412.8</ele>
        <time>2020-08-16 13:35:40</time>
      </trkpt>
      <trkpt lat="39.96382" lon="-4.63036">
        <ele>412.8</ele>
        <time>2020-08-16 13:35:41</time>
      </trkpt>
      <trkpt lat="39.96383" lon="-4.63038">
        <ele>412.8</ele>
        <time>2020-08-16 13:35:42</time>
      </trkpt>
      <trkpt lat="39.96383" lon="-4.63039">
        <ele>412.8</ele>
        <time>2020-08-16 13:35:43</time>
      </trkpt>
      <trkpt lat="39.96385" lon="-4.63041">
        <ele>412.8</ele>
        <time>2020-08-16 13:35:44</time>
      </trkpt>
      <trkpt lat="39.96386" lon="-4.63042">
        <ele>412.8</ele>
        <time>2020-08-16 13:35:45</time>
      </trkpt>
      <trkpt lat="39.96386" lon="-4.63043">
        <ele>412.8</ele>
        <time>2020-08-16 13:35:46</time>
      </trkpt>
      <trkpt lat="39.96388" lon="-4.63047">
        <ele>413</ele>
        <time>2020-08-16 13:35:48</time>
      </trkpt>
      <trkpt lat="39.96389" lon="-4.63053">
        <ele>413.4</ele>
        <time>2020-08-16 13:35:51</time>
      </trkpt>
      <trkpt lat="39.9639" lon="-4.63056">
        <ele>413.6</ele>
        <time>2020-08-16 13:35:52</time>
      </trkpt>
      <trkpt lat="39.9639" lon="-4.63058">
        <ele>413.8</ele>
        <time>2020-08-16 13:35:53</time>
      </trkpt>
      <trkpt lat="39.9639" lon="-4.6306">
        <ele>414</ele>
        <time>2020-08-16 13:35:54</time>
      </trkpt>
      <trkpt lat="39.9639" lon="-4.63063">
        <ele>414</ele>
        <time>2020-08-16 13:35:55</time>
      </trkpt>
      <trkpt lat="39.9639" lon="-4.63065">
        <ele>414.4</ele>
        <time>2020-08-16 13:35:56</time>
      </trkpt>
      <trkpt lat="39.9639" lon="-4.63068">
        <ele>414.6</ele>
        <time>2020-08-16 13:35:57</time>
      </trkpt>
      <trkpt lat="39.9639" lon="-4.63071">
        <ele>415</ele>
        <time>2020-08-16 13:35:58</time>
      </trkpt>
      <trkpt lat="39.9639" lon="-4.63073">
        <ele>415.2</ele>
        <time>2020-08-16 13:35:59</time>
      </trkpt>
      <trkpt lat="39.9639" lon="-4.63076">
        <ele>415.4</ele>
        <time>2020-08-16 13:36:00</time>
      </trkpt>
      <trkpt lat="39.9639" lon="-4.63078">
        <ele>415.6</ele>
        <time>2020-08-16 13:36:01</time>
      </trkpt>
      <trkpt lat="39.9639" lon="-4.6308">
        <ele>415.8</ele>
        <time>2020-08-16 13:36:02</time>
      </trkpt>
      <trkpt lat="39.9639" lon="-4.63082">
        <ele>416</ele>
        <time>2020-08-16 13:36:03</time>
      </trkpt>
      <trkpt lat="39.96392" lon="-4.63083">
        <ele>416.2</ele>
        <time>2020-08-16 13:36:04</time>
      </trkpt>
      <trkpt lat="39.96393" lon="-4.63084">
        <ele>416.4</ele>
        <time>2020-08-16 13:36:05</time>
      </trkpt>
      <trkpt lat="39.96395" lon="-4.63085">
        <ele>416.6</ele>
        <time>2020-08-16 13:36:06</time>
      </trkpt>
      <trkpt lat="39.96397" lon="-4.63086">
        <ele>416.8</ele>
        <time>2020-08-16 13:36:07</time>
      </trkpt>
      <trkpt lat="39.96399" lon="-4.63087">
        <ele>417</ele>
        <time>2020-08-16 13:36:08</time>
      </trkpt>
      <trkpt lat="39.96401" lon="-4.63088">
        <ele>417.2</ele>
        <time>2020-08-16 13:36:09</time>
      </trkpt>
      <trkpt lat="39.96403" lon="-4.63089">
        <ele>417.6</ele>
        <time>2020-08-16 13:36:10</time>
      </trkpt>
      <trkpt lat="39.96405" lon="-4.6309">
        <ele>417.8</ele>
        <time>2020-08-16 13:36:11</time>
      </trkpt>
      <trkpt lat="39.96407" lon="-4.63091">
        <ele>417.8</ele>
        <time>2020-08-16 13:36:12</time>
      </trkpt>
      <trkpt lat="39.96408" lon="-4.63091">
        <ele>418</ele>
        <time>2020-08-16 13:36:13</time>
      </trkpt>
      <trkpt lat="39.9641" lon="-4.63092">
        <ele>418</ele>
        <time>2020-08-16 13:36:14</time>
      </trkpt>
      <trkpt lat="39.96412" lon="-4.63093">
        <ele>418</ele>
        <time>2020-08-16 13:36:15</time>
      </trkpt>
      <trkpt lat="39.96413" lon="-4.63094">
        <ele>418.4</ele>
        <time>2020-08-16 13:36:16</time>
      </trkpt>
      <trkpt lat="39.96415" lon="-4.63095">
        <ele>418.4</ele>
        <time>2020-08-16 13:36:17</time>
      </trkpt>
      <trkpt lat="39.96416" lon="-4.63095">
        <ele>418.8</ele>
        <time>2020-08-16 13:36:18</time>
      </trkpt>
      <trkpt lat="39.96418" lon="-4.63095">
        <ele>418.8</ele>
        <time>2020-08-16 13:36:19</time>
      </trkpt>
      <trkpt lat="39.96419" lon="-4.63096">
        <ele>419.4</ele>
        <time>2020-08-16 13:36:20</time>
      </trkpt>
      <trkpt lat="39.9642" lon="-4.63097">
        <ele>419.6</ele>
        <time>2020-08-16 13:36:21</time>
      </trkpt>
      <trkpt lat="39.96421" lon="-4.63098">
        <ele>419.6</ele>
        <time>2020-08-16 13:36:22</time>
      </trkpt>
      <trkpt lat="39.96422" lon="-4.63099">
        <ele>419.6</ele>
        <time>2020-08-16 13:36:23</time>
      </trkpt>
      <trkpt lat="39.96424" lon="-4.631">
        <ele>419.8</ele>
        <time>2020-08-16 13:36:24</time>
      </trkpt>
      <trkpt lat="39.96425" lon="-4.63101">
        <ele>420</ele>
        <time>2020-08-16 13:36:25</time>
      </trkpt>
      <trkpt lat="39.96427" lon="-4.63102">
        <ele>420.6</ele>
        <time>2020-08-16 13:36:26</time>
      </trkpt>
      <trkpt lat="39.96427" lon="-4.63103">
        <ele>420.6</ele>
        <time>2020-08-16 13:36:27</time>
      </trkpt>
      <trkpt lat="39.96428" lon="-4.63103">
        <ele>421.2</ele>
        <time>2020-08-16 13:36:28</time>
      </trkpt>
      <trkpt lat="39.96429" lon="-4.63104">
        <ele>421.4</ele>
        <time>2020-08-16 13:36:29</time>
      </trkpt>
      <trkpt lat="39.9643" lon="-4.63104">
        <ele>421.4</ele>
        <time>2020-08-16 13:36:30</time>
      </trkpt>
      <trkpt lat="39.96431" lon="-4.63104">
        <ele>421.8</ele>
        <time>2020-08-16 13:36:31</time>
      </trkpt>
      <trkpt lat="39.96432" lon="-4.63104">
        <ele>422.2</ele>
        <time>2020-08-16 13:36:33</time>
      </trkpt>
      <trkpt lat="39.96439" lon="-4.63104">
        <ele>422.4</ele>
        <time>2020-08-16 13:37:03</time>
      </trkpt>
      <trkpt lat="39.9644" lon="-4.63103">
        <ele>422.6</ele>
        <time>2020-08-16 13:37:04</time>
      </trkpt>
      <trkpt lat="39.96442" lon="-4.63102">
        <ele>422.6</ele>
        <time>2020-08-16 13:37:07</time>
      </trkpt>
      <trkpt lat="39.96445" lon="-4.63099">
        <ele>422.8</ele>
        <time>2020-08-16 13:37:08</time>
      </trkpt>
      <trkpt lat="39.96447" lon="-4.63097">
        <ele>422.8</ele>
        <time>2020-08-16 13:37:09</time>
      </trkpt>
      <trkpt lat="39.96452" lon="-4.63092">
        <ele>423.2</ele>
        <time>2020-08-16 13:37:11</time>
      </trkpt>
      <trkpt lat="39.96454" lon="-4.63089">
        <ele>423.2</ele>
        <time>2020-08-16 13:37:12</time>
      </trkpt>
      <trkpt lat="39.96456" lon="-4.63087">
        <ele>423.4</ele>
        <time>2020-08-16 13:37:13</time>
      </trkpt>
      <trkpt lat="39.96459" lon="-4.63085">
        <ele>423.4</ele>
        <time>2020-08-16 13:37:14</time>
      </trkpt>
      <trkpt lat="39.96462" lon="-4.63083">
        <ele>423.6</ele>
        <time>2020-08-16 13:37:15</time>
      </trkpt>
      <trkpt lat="39.96464" lon="-4.63082">
        <ele>423.6</ele>
        <time>2020-08-16 13:37:16</time>
      </trkpt>
      <trkpt lat="39.96465" lon="-4.63082">
        <ele>423.6</ele>
        <time>2020-08-16 13:37:17</time>
      </trkpt>
      <trkpt lat="39.96467" lon="-4.63082">
        <ele>423.6</ele>
        <time>2020-08-16 13:37:18</time>
      </trkpt>
      <trkpt lat="39.96469" lon="-4.63084">
        <ele>423.8</ele>
        <time>2020-08-16 13:37:19</time>
      </trkpt>
      <trkpt lat="39.96468" lon="-4.63085">
        <ele>423.8</ele>
        <time>2020-08-16 13:37:20</time>
      </trkpt>
      <trkpt lat="39.96467" lon="-4.63086">
        <ele>424</ele>
        <time>2020-08-16 13:37:21</time>
      </trkpt>
      <trkpt lat="39.96462" lon="-4.6309">
        <ele>424.2</ele>
        <time>2020-08-16 13:37:24</time>
      </trkpt>
      <trkpt lat="39.96457" lon="-4.63092">
        <ele>424.4</ele>
        <time>2020-08-16 13:37:26</time>
      </trkpt>
      <trkpt lat="39.96454" lon="-4.63094">
        <ele>424.4</ele>
        <time>2020-08-16 13:37:27</time>
      </trkpt>
      <trkpt lat="39.96449" lon="-4.63099">
        <ele>424.4</ele>
        <time>2020-08-16 13:37:29</time>
      </trkpt>
      <trkpt lat="39.96448" lon="-4.63102">
        <ele>424.4</ele>
        <time>2020-08-16 13:37:30</time>
      </trkpt>
      <trkpt lat="39.96447" lon="-4.63106">
        <ele>424.4</ele>
        <time>2020-08-16 13:37:31</time>
      </trkpt>
      <trkpt lat="39.96446" lon="-4.63109">
        <ele>424.4</ele>
        <time>2020-08-16 13:37:32</time>
      </trkpt>
      <trkpt lat="39.96447" lon="-4.63112">
        <ele>424.4</ele>
        <time>2020-08-16 13:37:33</time>
      </trkpt>
      <trkpt lat="39.96447" lon="-4.63114">
        <ele>424.4</ele>
        <time>2020-08-16 13:37:34</time>
      </trkpt>
      <trkpt lat="39.96448" lon="-4.63116">
        <ele>424.4</ele>
        <time>2020-08-16 13:37:35</time>
      </trkpt>
      <trkpt lat="39.9645" lon="-4.63118">
        <ele>424.4</ele>
        <time>2020-08-16 13:37:36</time>
      </trkpt>
      <trkpt lat="39.96452" lon="-4.6312">
        <ele>424.4</ele>
        <time>2020-08-16 13:37:37</time>
      </trkpt>
      <trkpt lat="39.96456" lon="-4.63123">
        <ele>424.8</ele>
        <time>2020-08-16 13:37:39</time>
      </trkpt>
      <trkpt lat="39.96458" lon="-4.63125">
        <ele>424.8</ele>
        <time>2020-08-16 13:37:40</time>
      </trkpt>
      <trkpt lat="39.96459" lon="-4.63127">
        <ele>425.4</ele>
        <time>2020-08-16 13:37:41</time>
      </trkpt>
      <trkpt lat="39.96461" lon="-4.63128">
        <ele>425.8</ele>
        <time>2020-08-16 13:37:42</time>
      </trkpt>
      <trkpt lat="39.96462" lon="-4.63129">
        <ele>426</ele>
        <time>2020-08-16 13:37:43</time>
      </trkpt>
      <trkpt lat="39.96464" lon="-4.6313">
        <ele>426.2</ele>
        <time>2020-08-16 13:37:44</time>
      </trkpt>
      <trkpt lat="39.96464" lon="-4.63132">
        <ele>426.4</ele>
        <time>2020-08-16 13:37:45</time>
      </trkpt>
      <trkpt lat="39.96465" lon="-4.63133">
        <ele>426.8</ele>
        <time>2020-08-16 13:37:46</time>
      </trkpt>
      <trkpt lat="39.96465" lon="-4.63135">
        <ele>427</ele>
        <time>2020-08-16 13:37:47</time>
      </trkpt>
      <trkpt lat="39.96465" lon="-4.63135">
        <ele>427.2</ele>
        <time>2020-08-16 13:37:48</time>
      </trkpt>
      <trkpt lat="39.96465" lon="-4.63135">
        <ele>427.4</ele>
        <time>2020-08-16 13:37:49</time>
      </trkpt>
      <trkpt lat="39.96465" lon="-4.63135">
        <ele>427.6</ele>
        <time>2020-08-16 13:37:50</time>
      </trkpt>
      <trkpt lat="39.96464" lon="-4.6314">
        <ele>429</ele>
        <time>2020-08-16 13:38:29</time>
      </trkpt>
      <trkpt lat="39.96462" lon="-4.63141">
        <ele>429</ele>
        <time>2020-08-16 13:38:30</time>
      </trkpt>
      <trkpt lat="39.96461" lon="-4.63144">
        <ele>429</ele>
        <time>2020-08-16 13:38:31</time>
      </trkpt>
      <trkpt lat="39.9646" lon="-4.63153">
        <ele>429</ele>
        <time>2020-08-16 13:38:34</time>
      </trkpt>
      <trkpt lat="39.96461" lon="-4.63157">
        <ele>429</ele>
        <time>2020-08-16 13:38:35</time>
      </trkpt>
      <trkpt lat="39.96461" lon="-4.6316">
        <ele>429</ele>
        <time>2020-08-16 13:38:36</time>
      </trkpt>
      <trkpt lat="39.9646" lon="-4.63171">
        <ele>429.4</ele>
        <time>2020-08-16 13:38:40</time>
      </trkpt>
      <trkpt lat="39.9646" lon="-4.63177">
        <ele>429.6</ele>
        <time>2020-08-16 13:38:42</time>
      </trkpt>
      <trkpt lat="39.9646" lon="-4.6318">
        <ele>429.6</ele>
        <time>2020-08-16 13:38:43</time>
      </trkpt>
      <trkpt lat="39.96459" lon="-4.6319">
        <ele>429.8</ele>
        <time>2020-08-16 13:38:46</time>
      </trkpt>
      <trkpt lat="39.96459" lon="-4.63193">
        <ele>429.8</ele>
        <time>2020-08-16 13:38:47</time>
      </trkpt>
      <trkpt lat="39.96458" lon="-4.63199">
        <ele>430</ele>
        <time>2020-08-16 13:38:49</time>
      </trkpt>
      <trkpt lat="39.96458" lon="-4.63203">
        <ele>430</ele>
        <time>2020-08-16 13:38:50</time>
      </trkpt>
      <trkpt lat="39.96458" lon="-4.63206">
        <ele>430</ele>
        <time>2020-08-16 13:38:51</time>
      </trkpt>
      <trkpt lat="39.96458" lon="-4.6321">
        <ele>430.2</ele>
        <time>2020-08-16 13:38:52</time>
      </trkpt>
      <trkpt lat="39.96458" lon="-4.63213">
        <ele>430.2</ele>
        <time>2020-08-16 13:38:53</time>
      </trkpt>
      <trkpt lat="39.96457" lon="-4.63224">
        <ele>430.2</ele>
        <time>2020-08-16 13:38:56</time>
      </trkpt>
      <trkpt lat="39.96456" lon="-4.63228">
        <ele>430.4</ele>
        <time>2020-08-16 13:38:57</time>
      </trkpt>
      <trkpt lat="39.96456" lon="-4.63238">
        <ele>430.4</ele>
        <time>2020-08-16 13:38:59</time>
      </trkpt>
      <trkpt lat="39.96455" lon="-4.63249">
        <ele>430.4</ele>
        <time>2020-08-16 13:39:01</time>
      </trkpt>
      <trkpt lat="39.96454" lon="-4.6326">
        <ele>430.4</ele>
        <time>2020-08-16 13:39:03</time>
      </trkpt>
      <trkpt lat="39.96453" lon="-4.63264">
        <ele>430.2</ele>
        <time>2020-08-16 13:39:04</time>
      </trkpt>
      <trkpt lat="39.96453" lon="-4.63268">
        <ele>430</ele>
        <time>2020-08-16 13:39:05</time>
      </trkpt>
      <trkpt lat="39.96452" lon="-4.63272">
        <ele>430</ele>
        <time>2020-08-16 13:39:06</time>
      </trkpt>
      <trkpt lat="39.96452" lon="-4.63275">
        <ele>429.8</ele>
        <time>2020-08-16 13:39:07</time>
      </trkpt>
      <trkpt lat="39.96452" lon="-4.63283">
        <ele>429.2</ele>
        <time>2020-08-16 13:39:09</time>
      </trkpt>
      <trkpt lat="39.96451" lon="-4.63287">
        <ele>429</ele>
        <time>2020-08-16 13:39:10</time>
      </trkpt>
      <trkpt lat="39.9645" lon="-4.63295">
        <ele>428.6</ele>
        <time>2020-08-16 13:39:12</time>
      </trkpt>
      <trkpt lat="39.96449" lon="-4.63298">
        <ele>428.4</ele>
        <time>2020-08-16 13:39:13</time>
      </trkpt>
      <trkpt lat="39.96449" lon="-4.63302">
        <ele>428.4</ele>
        <time>2020-08-16 13:39:14</time>
      </trkpt>
      <trkpt lat="39.96448" lon="-4.63305">
        <ele>428.2</ele>
        <time>2020-08-16 13:39:15</time>
      </trkpt>
      <trkpt lat="39.96448" lon="-4.63308">
        <ele>428.2</ele>
        <time>2020-08-16 13:39:16</time>
      </trkpt>
      <trkpt lat="39.96447" lon="-4.63311">
        <ele>428</ele>
        <time>2020-08-16 13:39:17</time>
      </trkpt>
      <trkpt lat="39.96447" lon="-4.63315">
        <ele>428</ele>
        <time>2020-08-16 13:39:18</time>
      </trkpt>
      <trkpt lat="39.96447" lon="-4.63319">
        <ele>427.8</ele>
        <time>2020-08-16 13:39:19</time>
      </trkpt>
      <trkpt lat="39.96446" lon="-4.63323">
        <ele>427.6</ele>
        <time>2020-08-16 13:39:20</time>
      </trkpt>
      <trkpt lat="39.96446" lon="-4.63328">
        <ele>427.6</ele>
        <time>2020-08-16 13:39:21</time>
      </trkpt>
      <trkpt lat="39.96444" lon="-4.63347">
        <ele>427.2</ele>
        <time>2020-08-16 13:39:25</time>
      </trkpt>
      <trkpt lat="39.96442" lon="-4.63365">
        <ele>426.8</ele>
        <time>2020-08-16 13:39:28</time>
      </trkpt>
      <trkpt lat="39.96441" lon="-4.63384">
        <ele>426.2</ele>
        <time>2020-08-16 13:39:31</time>
      </trkpt>
      <trkpt lat="39.9644" lon="-4.63391">
        <ele>426</ele>
        <time>2020-08-16 13:39:32</time>
      </trkpt>
      <trkpt lat="39.96439" lon="-4.63397">
        <ele>426</ele>
        <time>2020-08-16 13:39:33</time>
      </trkpt>
      <trkpt lat="39.96438" lon="-4.6341">
        <ele>425.8</ele>
        <time>2020-08-16 13:39:35</time>
      </trkpt>
      <trkpt lat="39.96437" lon="-4.63424">
        <ele>425.4</ele>
        <time>2020-08-16 13:39:37</time>
      </trkpt>
      <trkpt lat="39.96434" lon="-4.63444">
        <ele>425</ele>
        <time>2020-08-16 13:39:40</time>
      </trkpt>
      <trkpt lat="39.96431" lon="-4.63467">
        <ele>424.8</ele>
        <time>2020-08-16 13:39:44</time>
      </trkpt>
      <trkpt lat="39.96429" lon="-4.63472">
        <ele>424.6</ele>
        <time>2020-08-16 13:39:45</time>
      </trkpt>
      <trkpt lat="39.96428" lon="-4.63477">
        <ele>424.4</ele>
        <time>2020-08-16 13:39:46</time>
      </trkpt>
      <trkpt lat="39.96426" lon="-4.63482">
        <ele>424.2</ele>
        <time>2020-08-16 13:39:47</time>
      </trkpt>
      <trkpt lat="39.96424" lon="-4.63487">
        <ele>424.2</ele>
        <time>2020-08-16 13:39:48</time>
      </trkpt>
      <trkpt lat="39.96422" lon="-4.63492">
        <ele>424.2</ele>
        <time>2020-08-16 13:39:49</time>
      </trkpt>
      <trkpt lat="39.9642" lon="-4.63497">
        <ele>424</ele>
        <time>2020-08-16 13:39:50</time>
      </trkpt>
      <trkpt lat="39.96419" lon="-4.63503">
        <ele>423.8</ele>
        <time>2020-08-16 13:39:51</time>
      </trkpt>
      <trkpt lat="39.96416" lon="-4.63508">
        <ele>423.8</ele>
        <time>2020-08-16 13:39:52</time>
      </trkpt>
      <trkpt lat="39.96415" lon="-4.63513">
        <ele>423.6</ele>
        <time>2020-08-16 13:39:53</time>
      </trkpt>
      <trkpt lat="39.96412" lon="-4.63517">
        <ele>423.2</ele>
        <time>2020-08-16 13:39:54</time>
      </trkpt>
      <trkpt lat="39.9641" lon="-4.63522">
        <ele>423.2</ele>
        <time>2020-08-16 13:39:55</time>
      </trkpt>
      <trkpt lat="39.96408" lon="-4.63526">
        <ele>423</ele>
        <time>2020-08-16 13:39:56</time>
      </trkpt>
      <trkpt lat="39.96401" lon="-4.6354">
        <ele>422.4</ele>
        <time>2020-08-16 13:39:59</time>
      </trkpt>
      <trkpt lat="39.96393" lon="-4.63549">
        <ele>422</ele>
        <time>2020-08-16 13:40:01</time>
      </trkpt>
      <trkpt lat="39.9637" lon="-4.63582">
        <ele>421.2</ele>
        <time>2020-08-16 13:40:07</time>
      </trkpt>
      <trkpt lat="39.96366" lon="-4.63587">
        <ele>420.8</ele>
        <time>2020-08-16 13:40:08</time>
      </trkpt>
      <trkpt lat="39.96363" lon="-4.63591">
        <ele>420.6</ele>
        <time>2020-08-16 13:40:09</time>
      </trkpt>
      <trkpt lat="39.96362" lon="-4.63594">
        <ele>420.4</ele>
        <time>2020-08-16 13:40:10</time>
      </trkpt>
      <trkpt lat="39.96361" lon="-4.63596">
        <ele>420</ele>
        <time>2020-08-16 13:40:11</time>
      </trkpt>
      <trkpt lat="39.96361" lon="-4.63597">
        <ele>420</ele>
        <time>2020-08-16 13:40:12</time>
      </trkpt>
      <trkpt lat="39.96361" lon="-4.63597">
        <ele>419.4</ele>
        <time>2020-08-16 13:40:14</time>
      </trkpt>
      <trkpt lat="39.96359" lon="-4.63598">
        <ele>418.8</ele>
        <time>2020-08-16 13:40:29</time>
      </trkpt>
      <trkpt lat="39.96357" lon="-4.63601">
        <ele>418.8</ele>
        <time>2020-08-16 13:40:30</time>
      </trkpt>
      <trkpt lat="39.96352" lon="-4.63608">
        <ele>418.8</ele>
        <time>2020-08-16 13:40:32</time>
      </trkpt>
      <trkpt lat="39.96346" lon="-4.63616">
        <ele>418.6</ele>
        <time>2020-08-16 13:40:34</time>
      </trkpt>
      <trkpt lat="39.96342" lon="-4.6362">
        <ele>418.6</ele>
        <time>2020-08-16 13:40:35</time>
      </trkpt>
      <trkpt lat="39.96316" lon="-4.63645">
        <ele>418.2</ele>
        <time>2020-08-16 13:40:41</time>
      </trkpt>
      <trkpt lat="39.96312" lon="-4.6365">
        <ele>418.2</ele>
        <time>2020-08-16 13:40:42</time>
      </trkpt>
      <trkpt lat="39.96297" lon="-4.63664">
        <ele>417.6</ele>
        <time>2020-08-16 13:40:45</time>
      </trkpt>
      <trkpt lat="39.96293" lon="-4.6367">
        <ele>417.4</ele>
        <time>2020-08-16 13:40:46</time>
      </trkpt>
      <trkpt lat="39.96288" lon="-4.63676">
        <ele>417.2</ele>
        <time>2020-08-16 13:40:47</time>
      </trkpt>
      <trkpt lat="39.96284" lon="-4.63684">
        <ele>417</ele>
        <time>2020-08-16 13:40:48</time>
      </trkpt>
      <trkpt lat="39.9628" lon="-4.63692">
        <ele>416.8</ele>
        <time>2020-08-16 13:40:49</time>
      </trkpt>
      <trkpt lat="39.96277" lon="-4.63701">
        <ele>416.4</ele>
        <time>2020-08-16 13:40:50</time>
      </trkpt>
      <trkpt lat="39.96275" lon="-4.63711">
        <ele>416.2</ele>
        <time>2020-08-16 13:40:51</time>
      </trkpt>
      <trkpt lat="39.9627" lon="-4.6373">
        <ele>415.2</ele>
        <time>2020-08-16 13:40:53</time>
      </trkpt>
      <trkpt lat="39.96265" lon="-4.63751">
        <ele>414.6</ele>
        <time>2020-08-16 13:40:55</time>
      </trkpt>
      <trkpt lat="39.96263" lon="-4.63762">
        <ele>414.4</ele>
        <time>2020-08-16 13:40:56</time>
      </trkpt>
      <trkpt lat="39.9626" lon="-4.63772">
        <ele>414</ele>
        <time>2020-08-16 13:40:57</time>
      </trkpt>
      <trkpt lat="39.96251" lon="-4.63805">
        <ele>412.6</ele>
        <time>2020-08-16 13:41:00</time>
      </trkpt>
      <trkpt lat="39.96248" lon="-4.63815">
        <ele>412.4</ele>
        <time>2020-08-16 13:41:01</time>
      </trkpt>
      <trkpt lat="39.96245" lon="-4.63826">
        <ele>412</ele>
        <time>2020-08-16 13:41:02</time>
      </trkpt>
      <trkpt lat="39.96242" lon="-4.63836">
        <ele>411.4</ele>
        <time>2020-08-16 13:41:03</time>
      </trkpt>
      <trkpt lat="39.96231" lon="-4.6388">
        <ele>409.8</ele>
        <time>2020-08-16 13:41:07</time>
      </trkpt>
      <trkpt lat="39.96224" lon="-4.63913">
        <ele>408.6</ele>
        <time>2020-08-16 13:41:10</time>
      </trkpt>
      <trkpt lat="39.96222" lon="-4.63936">
        <ele>407.6</ele>
        <time>2020-08-16 13:41:12</time>
      </trkpt>
      <trkpt lat="39.96221" lon="-4.63958">
        <ele>406.8</ele>
        <time>2020-08-16 13:41:14</time>
      </trkpt>
      <trkpt lat="39.96221" lon="-4.63969">
        <ele>405.8</ele>
        <time>2020-08-16 13:41:15</time>
      </trkpt>
      <trkpt lat="39.96221" lon="-4.6398">
        <ele>405.4</ele>
        <time>2020-08-16 13:41:16</time>
      </trkpt>
      <trkpt lat="39.96221" lon="-4.63992">
        <ele>405</ele>
        <time>2020-08-16 13:41:17</time>
      </trkpt>
      <trkpt lat="39.96221" lon="-4.64003">
        <ele>404.8</ele>
        <time>2020-08-16 13:41:18</time>
      </trkpt>
      <trkpt lat="39.9622" lon="-4.64014">
        <ele>404.6</ele>
        <time>2020-08-16 13:41:19</time>
      </trkpt>
      <trkpt lat="39.96218" lon="-4.64026">
        <ele>404.2</ele>
        <time>2020-08-16 13:41:20</time>
      </trkpt>
      <trkpt lat="39.96216" lon="-4.64037">
        <ele>404</ele>
        <time>2020-08-16 13:41:21</time>
      </trkpt>
      <trkpt lat="39.96215" lon="-4.64049">
        <ele>403.6</ele>
        <time>2020-08-16 13:41:22</time>
      </trkpt>
      <trkpt lat="39.96208" lon="-4.64084">
        <ele>402.6</ele>
        <time>2020-08-16 13:41:25</time>
      </trkpt>
      <trkpt lat="39.96205" lon="-4.64108">
        <ele>401.6</ele>
        <time>2020-08-16 13:41:27</time>
      </trkpt>
      <trkpt lat="39.96199" lon="-4.64143">
        <ele>400.2</ele>
        <time>2020-08-16 13:41:30</time>
      </trkpt>
      <trkpt lat="39.96193" lon="-4.64177">
        <ele>399.6</ele>
        <time>2020-08-16 13:41:33</time>
      </trkpt>
      <trkpt lat="39.96191" lon="-4.64188">
        <ele>399.4</ele>
        <time>2020-08-16 13:41:34</time>
      </trkpt>
      <trkpt lat="39.96189" lon="-4.64199">
        <ele>399.2</ele>
        <time>2020-08-16 13:41:35</time>
      </trkpt>
      <trkpt lat="39.96187" lon="-4.6421">
        <ele>398.8</ele>
        <time>2020-08-16 13:41:36</time>
      </trkpt>
      <trkpt lat="39.96185" lon="-4.64221">
        <ele>398.6</ele>
        <time>2020-08-16 13:41:37</time>
      </trkpt>
      <trkpt lat="39.96183" lon="-4.64232">
        <ele>398.4</ele>
        <time>2020-08-16 13:41:38</time>
      </trkpt>
      <trkpt lat="39.96181" lon="-4.64243">
        <ele>397.8</ele>
        <time>2020-08-16 13:41:39</time>
      </trkpt>
      <trkpt lat="39.96179" lon="-4.64253">
        <ele>397.6</ele>
        <time>2020-08-16 13:41:40</time>
      </trkpt>
      <trkpt lat="39.96177" lon="-4.64263">
        <ele>397.2</ele>
        <time>2020-08-16 13:41:41</time>
      </trkpt>
      <trkpt lat="39.96175" lon="-4.64272">
        <ele>396.6</ele>
        <time>2020-08-16 13:41:42</time>
      </trkpt>
      <trkpt lat="39.96173" lon="-4.64282">
        <ele>396.4</ele>
        <time>2020-08-16 13:41:43</time>
      </trkpt>
      <trkpt lat="39.96171" lon="-4.64291">
        <ele>396.2</ele>
        <time>2020-08-16 13:41:44</time>
      </trkpt>
      <trkpt lat="39.96167" lon="-4.6431">
        <ele>395.8</ele>
        <time>2020-08-16 13:41:46</time>
      </trkpt>
      <trkpt lat="39.96165" lon="-4.6432">
        <ele>395.4</ele>
        <time>2020-08-16 13:41:47</time>
      </trkpt>
      <trkpt lat="39.96162" lon="-4.64329">
        <ele>395.4</ele>
        <time>2020-08-16 13:41:48</time>
      </trkpt>
      <trkpt lat="39.9616" lon="-4.64339">
        <ele>395</ele>
        <time>2020-08-16 13:41:49</time>
      </trkpt>
      <trkpt lat="39.96158" lon="-4.64349">
        <ele>395</ele>
        <time>2020-08-16 13:41:50</time>
      </trkpt>
      <trkpt lat="39.96156" lon="-4.64359">
        <ele>394.8</ele>
        <time>2020-08-16 13:41:51</time>
      </trkpt>
      <trkpt lat="39.96153" lon="-4.64368">
        <ele>394.6</ele>
        <time>2020-08-16 13:41:52</time>
      </trkpt>
      <trkpt lat="39.96149" lon="-4.64388">
        <ele>394.4</ele>
        <time>2020-08-16 13:41:54</time>
      </trkpt>
      <trkpt lat="39.96147" lon="-4.64398">
        <ele>394.2</ele>
        <time>2020-08-16 13:41:55</time>
      </trkpt>
      <trkpt lat="39.96134" lon="-4.64456">
        <ele>393.4</ele>
        <time>2020-08-16 13:42:01</time>
      </trkpt>
      <trkpt lat="39.96129" lon="-4.64475">
        <ele>393</ele>
        <time>2020-08-16 13:42:03</time>
      </trkpt>
      <trkpt lat="39.96127" lon="-4.64484">
        <ele>393</ele>
        <time>2020-08-16 13:42:04</time>
      </trkpt>
      <trkpt lat="39.96125" lon="-4.64493">
        <ele>392.8</ele>
        <time>2020-08-16 13:42:05</time>
      </trkpt>
      <trkpt lat="39.96123" lon="-4.64502">
        <ele>392.4</ele>
        <time>2020-08-16 13:42:06</time>
      </trkpt>
      <trkpt lat="39.96121" lon="-4.64511">
        <ele>392.2</ele>
        <time>2020-08-16 13:42:07</time>
      </trkpt>
      <trkpt lat="39.96119" lon="-4.6452">
        <ele>392</ele>
        <time>2020-08-16 13:42:08</time>
      </trkpt>
      <trkpt lat="39.96117" lon="-4.64528">
        <ele>391.8</ele>
        <time>2020-08-16 13:42:09</time>
      </trkpt>
      <trkpt lat="39.96115" lon="-4.64536">
        <ele>391.6</ele>
        <time>2020-08-16 13:42:10</time>
      </trkpt>
      <trkpt lat="39.96113" lon="-4.64543">
        <ele>391.6</ele>
        <time>2020-08-16 13:42:11</time>
      </trkpt>
      <trkpt lat="39.96112" lon="-4.6455">
        <ele>391.6</ele>
        <time>2020-08-16 13:42:12</time>
      </trkpt>
      <trkpt lat="39.9611" lon="-4.64558">
        <ele>391.4</ele>
        <time>2020-08-16 13:42:13</time>
      </trkpt>
      <trkpt lat="39.96107" lon="-4.64572">
        <ele>391</ele>
        <time>2020-08-16 13:42:15</time>
      </trkpt>
      <trkpt lat="39.96105" lon="-4.6458">
        <ele>390.8</ele>
        <time>2020-08-16 13:42:16</time>
      </trkpt>
      <trkpt lat="39.96104" lon="-4.64587">
        <ele>390.8</ele>
        <time>2020-08-16 13:42:17</time>
      </trkpt>
      <trkpt lat="39.96102" lon="-4.64593">
        <ele>390.6</ele>
        <time>2020-08-16 13:42:18</time>
      </trkpt>
      <trkpt lat="39.961" lon="-4.646">
        <ele>390.4</ele>
        <time>2020-08-16 13:42:19</time>
      </trkpt>
      <trkpt lat="39.96099" lon="-4.64606">
        <ele>390.4</ele>
        <time>2020-08-16 13:42:20</time>
      </trkpt>
      <trkpt lat="39.96098" lon="-4.64613">
        <ele>390.4</ele>
        <time>2020-08-16 13:42:21</time>
      </trkpt>
      <trkpt lat="39.96097" lon="-4.64619">
        <ele>390.2</ele>
        <time>2020-08-16 13:42:22</time>
      </trkpt>
      <trkpt lat="39.96097" lon="-4.64626">
        <ele>390.2</ele>
        <time>2020-08-16 13:42:23</time>
      </trkpt>
      <trkpt lat="39.96097" lon="-4.64632">
        <ele>390.2</ele>
        <time>2020-08-16 13:42:24</time>
      </trkpt>
      <trkpt lat="39.96098" lon="-4.64638">
        <ele>390</ele>
        <time>2020-08-16 13:42:25</time>
      </trkpt>
      <trkpt lat="39.96098" lon="-4.64644">
        <ele>390</ele>
        <time>2020-08-16 13:42:26</time>
      </trkpt>
      <trkpt lat="39.96099" lon="-4.6465">
        <ele>390</ele>
        <time>2020-08-16 13:42:27</time>
      </trkpt>
      <trkpt lat="39.961" lon="-4.64655">
        <ele>389.8</ele>
        <time>2020-08-16 13:42:28</time>
      </trkpt>
      <trkpt lat="39.96101" lon="-4.6466">
        <ele>389.8</ele>
        <time>2020-08-16 13:42:29</time>
      </trkpt>
      <trkpt lat="39.96103" lon="-4.64666">
        <ele>389.8</ele>
        <time>2020-08-16 13:42:30</time>
      </trkpt>
      <trkpt lat="39.96104" lon="-4.64671">
        <ele>389.6</ele>
        <time>2020-08-16 13:42:31</time>
      </trkpt>
      <trkpt lat="39.96105" lon="-4.64676">
        <ele>389.6</ele>
        <time>2020-08-16 13:42:32</time>
      </trkpt>
      <trkpt lat="39.96106" lon="-4.64681">
        <ele>389.6</ele>
        <time>2020-08-16 13:42:33</time>
      </trkpt>
      <trkpt lat="39.96108" lon="-4.64686">
        <ele>389.6</ele>
        <time>2020-08-16 13:42:34</time>
      </trkpt>
      <trkpt lat="39.96109" lon="-4.64692">
        <ele>389.6</ele>
        <time>2020-08-16 13:42:35</time>
      </trkpt>
      <trkpt lat="39.96111" lon="-4.64697">
        <ele>389.6</ele>
        <time>2020-08-16 13:42:36</time>
      </trkpt>
      <trkpt lat="39.96112" lon="-4.64704">
        <ele>389.8</ele>
        <time>2020-08-16 13:42:37</time>
      </trkpt>
      <trkpt lat="39.96112" lon="-4.6471">
        <ele>389.8</ele>
        <time>2020-08-16 13:42:38</time>
      </trkpt>
      <trkpt lat="39.96115" lon="-4.64737">
        <ele>389.6</ele>
        <time>2020-08-16 13:42:42</time>
      </trkpt>
      <trkpt lat="39.96119" lon="-4.64765">
        <ele>389.6</ele>
        <time>2020-08-16 13:42:46</time>
      </trkpt>
      <trkpt lat="39.9612" lon="-4.64779">
        <ele>389.4</ele>
        <time>2020-08-16 13:42:48</time>
      </trkpt>
      <trkpt lat="39.96123" lon="-4.64798">
        <ele>389.2</ele>
        <time>2020-08-16 13:42:51</time>
      </trkpt>
      <trkpt lat="39.96124" lon="-4.64804">
        <ele>389.2</ele>
        <time>2020-08-16 13:42:52</time>
      </trkpt>
      <trkpt lat="39.96125" lon="-4.6481">
        <ele>389.2</ele>
        <time>2020-08-16 13:42:53</time>
      </trkpt>
      <trkpt lat="39.96126" lon="-4.64816">
        <ele>389.2</ele>
        <time>2020-08-16 13:42:54</time>
      </trkpt>
      <trkpt lat="39.96127" lon="-4.64821">
        <ele>389.4</ele>
        <time>2020-08-16 13:42:55</time>
      </trkpt>
      <trkpt lat="39.96128" lon="-4.64827">
        <ele>389.4</ele>
        <time>2020-08-16 13:42:56</time>
      </trkpt>
      <trkpt lat="39.96129" lon="-4.64832">
        <ele>389.4</ele>
        <time>2020-08-16 13:42:57</time>
      </trkpt>
      <trkpt lat="39.96129" lon="-4.64837">
        <ele>389.4</ele>
        <time>2020-08-16 13:42:58</time>
      </trkpt>
      <trkpt lat="39.9613" lon="-4.64841">
        <ele>389.4</ele>
        <time>2020-08-16 13:42:59</time>
      </trkpt>
      <trkpt lat="39.96129" lon="-4.64845">
        <ele>389.4</ele>
        <time>2020-08-16 13:43:00</time>
      </trkpt>
      <trkpt lat="39.96128" lon="-4.64848">
        <ele>389.2</ele>
        <time>2020-08-16 13:43:01</time>
      </trkpt>
      <trkpt lat="39.96126" lon="-4.6485">
        <ele>389.2</ele>
        <time>2020-08-16 13:43:02</time>
      </trkpt>
      <trkpt lat="39.96124" lon="-4.64852">
        <ele>389.2</ele>
        <time>2020-08-16 13:43:03</time>
      </trkpt>
      <trkpt lat="39.9611" lon="-4.64864">
        <ele>389</ele>
        <time>2020-08-16 13:43:08</time>
      </trkpt>
      <trkpt lat="39.96108" lon="-4.64867">
        <ele>389</ele>
        <time>2020-08-16 13:43:09</time>
      </trkpt>
      <trkpt lat="39.96107" lon="-4.64872">
        <ele>388.8</ele>
        <time>2020-08-16 13:43:10</time>
      </trkpt>
      <trkpt lat="39.96107" lon="-4.64877">
        <ele>388.8</ele>
        <time>2020-08-16 13:43:11</time>
      </trkpt>
      <trkpt lat="39.96107" lon="-4.64882">
        <ele>388.6</ele>
        <time>2020-08-16 13:43:12</time>
      </trkpt>
      <trkpt lat="39.96109" lon="-4.64886">
        <ele>388.6</ele>
        <time>2020-08-16 13:43:13</time>
      </trkpt>
      <trkpt lat="39.96111" lon="-4.64895">
        <ele>388.4</ele>
        <time>2020-08-16 13:43:15</time>
      </trkpt>
      <trkpt lat="39.96113" lon="-4.64904">
        <ele>388.4</ele>
        <time>2020-08-16 13:43:17</time>
      </trkpt>
      <trkpt lat="39.96128" lon="-4.64957">
        <ele>388.4</ele>
        <time>2020-08-16 13:43:28</time>
      </trkpt>
      <trkpt lat="39.96141" lon="-4.65007">
        <ele>388.2</ele>
        <time>2020-08-16 13:43:37</time>
      </trkpt>
      <trkpt lat="39.96155" lon="-4.65059">
        <ele>387.8</ele>
        <time>2020-08-16 13:43:46</time>
      </trkpt>
      <trkpt lat="39.96156" lon="-4.65064">
        <ele>387.8</ele>
        <time>2020-08-16 13:43:47</time>
      </trkpt>
      <trkpt lat="39.96158" lon="-4.65069">
        <ele>387.8</ele>
        <time>2020-08-16 13:43:48</time>
      </trkpt>
      <trkpt lat="39.96159" lon="-4.65074">
        <ele>387.8</ele>
        <time>2020-08-16 13:43:49</time>
      </trkpt>
      <trkpt lat="39.96161" lon="-4.65079">
        <ele>387.8</ele>
        <time>2020-08-16 13:43:50</time>
      </trkpt>
      <trkpt lat="39.96162" lon="-4.65083">
        <ele>387.8</ele>
        <time>2020-08-16 13:43:51</time>
      </trkpt>
      <trkpt lat="39.96163" lon="-4.65088">
        <ele>387.6</ele>
        <time>2020-08-16 13:43:52</time>
      </trkpt>
      <trkpt lat="39.96165" lon="-4.65093">
        <ele>387.6</ele>
        <time>2020-08-16 13:43:53</time>
      </trkpt>
      <trkpt lat="39.96166" lon="-4.65098">
        <ele>387.4</ele>
        <time>2020-08-16 13:43:54</time>
      </trkpt>
      <trkpt lat="39.96167" lon="-4.65103">
        <ele>387.4</ele>
        <time>2020-08-16 13:43:55</time>
      </trkpt>
      <trkpt lat="39.96169" lon="-4.65109">
        <ele>387.4</ele>
        <time>2020-08-16 13:43:56</time>
      </trkpt>
      <trkpt lat="39.9617" lon="-4.65114">
        <ele>387.4</ele>
        <time>2020-08-16 13:43:57</time>
      </trkpt>
      <trkpt lat="39.96171" lon="-4.65119">
        <ele>387.4</ele>
        <time>2020-08-16 13:43:58</time>
      </trkpt>
      <trkpt lat="39.96173" lon="-4.65125">
        <ele>387.4</ele>
        <time>2020-08-16 13:43:59</time>
      </trkpt>
      <trkpt lat="39.96176" lon="-4.65142">
        <ele>387.2</ele>
        <time>2020-08-16 13:44:02</time>
      </trkpt>
      <trkpt lat="39.96179" lon="-4.6516">
        <ele>387.2</ele>
        <time>2020-08-16 13:44:05</time>
      </trkpt>
      <trkpt lat="39.9618" lon="-4.65167">
        <ele>387.2</ele>
        <time>2020-08-16 13:44:06</time>
      </trkpt>
      <trkpt lat="39.96179" lon="-4.65173">
        <ele>387.2</ele>
        <time>2020-08-16 13:44:07</time>
      </trkpt>
      <trkpt lat="39.96178" lon="-4.6518">
        <ele>387.2</ele>
        <time>2020-08-16 13:44:08</time>
      </trkpt>
      <trkpt lat="39.96176" lon="-4.652">
        <ele>387.2</ele>
        <time>2020-08-16 13:44:11</time>
      </trkpt>
      <trkpt lat="39.96176" lon="-4.65215">
        <ele>387.2</ele>
        <time>2020-08-16 13:44:13</time>
      </trkpt>
      <trkpt lat="39.96176" lon="-4.65222">
        <ele>387.2</ele>
        <time>2020-08-16 13:44:14</time>
      </trkpt>
      <trkpt lat="39.96177" lon="-4.6523">
        <ele>387.2</ele>
        <time>2020-08-16 13:44:15</time>
      </trkpt>
      <trkpt lat="39.9618" lon="-4.65245">
        <ele>387.4</ele>
        <time>2020-08-16 13:44:17</time>
      </trkpt>
      <trkpt lat="39.96186" lon="-4.65275">
        <ele>387.4</ele>
        <time>2020-08-16 13:44:21</time>
      </trkpt>
      <trkpt lat="39.96189" lon="-4.6529">
        <ele>387.4</ele>
        <time>2020-08-16 13:44:23</time>
      </trkpt>
      <trkpt lat="39.96194" lon="-4.65312">
        <ele>387.4</ele>
        <time>2020-08-16 13:44:26</time>
      </trkpt>
      <trkpt lat="39.96205" lon="-4.65348">
        <ele>387.2</ele>
        <time>2020-08-16 13:44:31</time>
      </trkpt>
      <trkpt lat="39.96226" lon="-4.65414">
        <ele>386.8</ele>
        <time>2020-08-16 13:44:40</time>
      </trkpt>
      <trkpt lat="39.9623" lon="-4.65429">
        <ele>386.8</ele>
        <time>2020-08-16 13:44:42</time>
      </trkpt>
      <trkpt lat="39.96232" lon="-4.65436">
        <ele>386.8</ele>
        <time>2020-08-16 13:44:43</time>
      </trkpt>
      <trkpt lat="39.96234" lon="-4.65443">
        <ele>386.8</ele>
        <time>2020-08-16 13:44:44</time>
      </trkpt>
      <trkpt lat="39.96236" lon="-4.6545">
        <ele>386.8</ele>
        <time>2020-08-16 13:44:45</time>
      </trkpt>
      <trkpt lat="39.96238" lon="-4.65456">
        <ele>386.6</ele>
        <time>2020-08-16 13:44:46</time>
      </trkpt>
      <trkpt lat="39.9624" lon="-4.65462">
        <ele>386.6</ele>
        <time>2020-08-16 13:44:47</time>
      </trkpt>
      <trkpt lat="39.96241" lon="-4.65469">
        <ele>386.6</ele>
        <time>2020-08-16 13:44:48</time>
      </trkpt>
      <trkpt lat="39.96243" lon="-4.65474">
        <ele>386.4</ele>
        <time>2020-08-16 13:44:49</time>
      </trkpt>
      <trkpt lat="39.96245" lon="-4.6548">
        <ele>386.4</ele>
        <time>2020-08-16 13:44:50</time>
      </trkpt>
      <trkpt lat="39.96251" lon="-4.65506">
        <ele>386.2</ele>
        <time>2020-08-16 13:44:54</time>
      </trkpt>
      <trkpt lat="39.96253" lon="-4.65512">
        <ele>386</ele>
        <time>2020-08-16 13:44:55</time>
      </trkpt>
      <trkpt lat="39.96254" lon="-4.65519">
        <ele>386</ele>
        <time>2020-08-16 13:44:56</time>
      </trkpt>
      <trkpt lat="39.96256" lon="-4.65525">
        <ele>386</ele>
        <time>2020-08-16 13:44:57</time>
      </trkpt>
      <trkpt lat="39.96262" lon="-4.65552">
        <ele>386</ele>
        <time>2020-08-16 13:45:01</time>
      </trkpt>
      <trkpt lat="39.96269" lon="-4.65579">
        <ele>385.8</ele>
        <time>2020-08-16 13:45:05</time>
      </trkpt>
      <trkpt lat="39.96275" lon="-4.65606">
        <ele>385.6</ele>
        <time>2020-08-16 13:45:09</time>
      </trkpt>
      <trkpt lat="39.96281" lon="-4.65626">
        <ele>385.6</ele>
        <time>2020-08-16 13:45:12</time>
      </trkpt>
      <trkpt lat="39.96282" lon="-4.65633">
        <ele>385.6</ele>
        <time>2020-08-16 13:45:13</time>
      </trkpt>
      <trkpt lat="39.96284" lon="-4.6564">
        <ele>385.6</ele>
        <time>2020-08-16 13:45:14</time>
      </trkpt>
      <trkpt lat="39.96286" lon="-4.65647">
        <ele>385.6</ele>
        <time>2020-08-16 13:45:15</time>
      </trkpt>
      <trkpt lat="39.96287" lon="-4.65654">
        <ele>385.6</ele>
        <time>2020-08-16 13:45:16</time>
      </trkpt>
      <trkpt lat="39.96303" lon="-4.65717">
        <ele>385.2</ele>
        <time>2020-08-16 13:45:25</time>
      </trkpt>
      <trkpt lat="39.9632" lon="-4.65789">
        <ele>385.2</ele>
        <time>2020-08-16 13:45:35</time>
      </trkpt>
      <trkpt lat="39.96328" lon="-4.65825">
        <ele>385</ele>
        <time>2020-08-16 13:45:40</time>
      </trkpt>
      <trkpt lat="39.9633" lon="-4.65832">
        <ele>385</ele>
        <time>2020-08-16 13:45:41</time>
      </trkpt>
      <trkpt lat="39.96332" lon="-4.65839">
        <ele>385</ele>
        <time>2020-08-16 13:45:42</time>
      </trkpt>
      <trkpt lat="39.96334" lon="-4.65846">
        <ele>385</ele>
        <time>2020-08-16 13:45:43</time>
      </trkpt>
      <trkpt lat="39.96336" lon="-4.65853">
        <ele>385</ele>
        <time>2020-08-16 13:45:44</time>
      </trkpt>
      <trkpt lat="39.96337" lon="-4.6586">
        <ele>385</ele>
        <time>2020-08-16 13:45:45</time>
      </trkpt>
      <trkpt lat="39.96339" lon="-4.65866">
        <ele>384.8</ele>
        <time>2020-08-16 13:45:46</time>
      </trkpt>
      <trkpt lat="39.9634" lon="-4.65873">
        <ele>384.8</ele>
        <time>2020-08-16 13:45:47</time>
      </trkpt>
      <trkpt lat="39.96341" lon="-4.65879">
        <ele>384.8</ele>
        <time>2020-08-16 13:45:48</time>
      </trkpt>
      <trkpt lat="39.96343" lon="-4.65886">
        <ele>384.8</ele>
        <time>2020-08-16 13:45:49</time>
      </trkpt>
      <trkpt lat="39.96344" lon="-4.65893">
        <ele>384.8</ele>
        <time>2020-08-16 13:45:50</time>
      </trkpt>
      <trkpt lat="39.96345" lon="-4.65899">
        <ele>384.8</ele>
        <time>2020-08-16 13:45:51</time>
      </trkpt>
      <trkpt lat="39.96344" lon="-4.65907">
        <ele>384.8</ele>
        <time>2020-08-16 13:45:52</time>
      </trkpt>
      <trkpt lat="39.96343" lon="-4.65914">
        <ele>384.8</ele>
        <time>2020-08-16 13:45:53</time>
      </trkpt>
      <trkpt lat="39.96341" lon="-4.6592">
        <ele>384.8</ele>
        <time>2020-08-16 13:45:54</time>
      </trkpt>
      <trkpt lat="39.96338" lon="-4.65925">
        <ele>384.8</ele>
        <time>2020-08-16 13:45:55</time>
      </trkpt>
      <trkpt lat="39.96333" lon="-4.65928">
        <ele>384.8</ele>
        <time>2020-08-16 13:45:56</time>
      </trkpt>
      <trkpt lat="39.96328" lon="-4.6593">
        <ele>384.8</ele>
        <time>2020-08-16 13:45:57</time>
      </trkpt>
      <trkpt lat="39.96323" lon="-4.65932">
        <ele>384.8</ele>
        <time>2020-08-16 13:45:58</time>
      </trkpt>
      <trkpt lat="39.96319" lon="-4.65933">
        <ele>384.8</ele>
        <time>2020-08-16 13:45:59</time>
      </trkpt>
      <trkpt lat="39.96315" lon="-4.65934">
        <ele>384.8</ele>
        <time>2020-08-16 13:46:00</time>
      </trkpt>
      <trkpt lat="39.9631" lon="-4.65936">
        <ele>384.8</ele>
        <time>2020-08-16 13:46:01</time>
      </trkpt>
      <trkpt lat="39.96306" lon="-4.65937">
        <ele>384.8</ele>
        <time>2020-08-16 13:46:02</time>
      </trkpt>
      <trkpt lat="39.96297" lon="-4.65939">
        <ele>384.6</ele>
        <time>2020-08-16 13:46:04</time>
      </trkpt>
      <trkpt lat="39.96293" lon="-4.6594">
        <ele>384.6</ele>
        <time>2020-08-16 13:46:05</time>
      </trkpt>
      <trkpt lat="39.96289" lon="-4.65941">
        <ele>384.6</ele>
        <time>2020-08-16 13:46:06</time>
      </trkpt>
      <trkpt lat="39.96285" lon="-4.65942">
        <ele>384.6</ele>
        <time>2020-08-16 13:46:07</time>
      </trkpt>
      <trkpt lat="39.96281" lon="-4.65943">
        <ele>384.4</ele>
        <time>2020-08-16 13:46:08</time>
      </trkpt>
      <trkpt lat="39.96276" lon="-4.65944">
        <ele>384.4</ele>
        <time>2020-08-16 13:46:09</time>
      </trkpt>
      <trkpt lat="39.96272" lon="-4.65946">
        <ele>384.4</ele>
        <time>2020-08-16 13:46:10</time>
      </trkpt>
      <trkpt lat="39.96268" lon="-4.65947">
        <ele>384.4</ele>
        <time>2020-08-16 13:46:11</time>
      </trkpt>
      <trkpt lat="39.96264" lon="-4.65949">
        <ele>384.4</ele>
        <time>2020-08-16 13:46:12</time>
      </trkpt>
      <trkpt lat="39.96259" lon="-4.65951">
        <ele>384.4</ele>
        <time>2020-08-16 13:46:13</time>
      </trkpt>
      <trkpt lat="39.96255" lon="-4.65954">
        <ele>384.4</ele>
        <time>2020-08-16 13:46:14</time>
      </trkpt>
      <trkpt lat="39.96253" lon="-4.65957">
        <ele>384.4</ele>
        <time>2020-08-16 13:46:15</time>
      </trkpt>
      <trkpt lat="39.96252" lon="-4.65962">
        <ele>384.4</ele>
        <time>2020-08-16 13:46:16</time>
      </trkpt>
      <trkpt lat="39.96251" lon="-4.65966">
        <ele>384.6</ele>
        <time>2020-08-16 13:46:17</time>
      </trkpt>
      <trkpt lat="39.96251" lon="-4.6597">
        <ele>384.8</ele>
        <time>2020-08-16 13:46:18</time>
      </trkpt>
      <trkpt lat="39.96251" lon="-4.65975">
        <ele>384.8</ele>
        <time>2020-08-16 13:46:19</time>
      </trkpt>
      <trkpt lat="39.96253" lon="-4.65999">
        <ele>384.4</ele>
        <time>2020-08-16 13:46:24</time>
      </trkpt>
      <trkpt lat="39.96254" lon="-4.66009">
        <ele>384.2</ele>
        <time>2020-08-16 13:46:26</time>
      </trkpt>
      <trkpt lat="39.96254" lon="-4.66031">
        <ele>384</ele>
        <time>2020-08-16 13:46:30</time>
      </trkpt>
      <trkpt lat="39.96256" lon="-4.6605">
        <ele>384.2</ele>
        <time>2020-08-16 13:46:33</time>
      </trkpt>
      <trkpt lat="39.96257" lon="-4.66062">
        <ele>384.2</ele>
        <time>2020-08-16 13:46:35</time>
      </trkpt>
      <trkpt lat="39.96259" lon="-4.66068">
        <ele>384</ele>
        <time>2020-08-16 13:46:36</time>
      </trkpt>
      <trkpt lat="39.96263" lon="-4.6608">
        <ele>384</ele>
        <time>2020-08-16 13:46:38</time>
      </trkpt>
      <trkpt lat="39.96264" lon="-4.66086">
        <ele>383.8</ele>
        <time>2020-08-16 13:46:39</time>
      </trkpt>
      <trkpt lat="39.96265" lon="-4.66091">
        <ele>383.8</ele>
        <time>2020-08-16 13:46:40</time>
      </trkpt>
      <trkpt lat="39.96267" lon="-4.66103">
        <ele>384</ele>
        <time>2020-08-16 13:46:42</time>
      </trkpt>
      <trkpt lat="39.9627" lon="-4.6612">
        <ele>384</ele>
        <time>2020-08-16 13:46:45</time>
      </trkpt>
      <trkpt lat="39.96271" lon="-4.66127">
        <ele>384</ele>
        <time>2020-08-16 13:46:46</time>
      </trkpt>
      <trkpt lat="39.96273" lon="-4.66133">
        <ele>384</ele>
        <time>2020-08-16 13:46:47</time>
      </trkpt>
      <trkpt lat="39.96274" lon="-4.66139">
        <ele>384</ele>
        <time>2020-08-16 13:46:48</time>
      </trkpt>
      <trkpt lat="39.96276" lon="-4.66151">
        <ele>384.2</ele>
        <time>2020-08-16 13:46:50</time>
      </trkpt>
      <trkpt lat="39.96276" lon="-4.66157">
        <ele>384.2</ele>
        <time>2020-08-16 13:46:51</time>
      </trkpt>
      <trkpt lat="39.96279" lon="-4.66194">
        <ele>384.6</ele>
        <time>2020-08-16 13:46:57</time>
      </trkpt>
      <trkpt lat="39.96279" lon="-4.662">
        <ele>384.6</ele>
        <time>2020-08-16 13:46:58</time>
      </trkpt>
      <trkpt lat="39.96278" lon="-4.66206">
        <ele>384.6</ele>
        <time>2020-08-16 13:46:59</time>
      </trkpt>
      <trkpt lat="39.96275" lon="-4.6623">
        <ele>384.6</ele>
        <time>2020-08-16 13:47:03</time>
      </trkpt>
      <trkpt lat="39.96272" lon="-4.66242">
        <ele>384.2</ele>
        <time>2020-08-16 13:47:05</time>
      </trkpt>
      <trkpt lat="39.96271" lon="-4.66255">
        <ele>384.2</ele>
        <time>2020-08-16 13:47:07</time>
      </trkpt>
      <trkpt lat="39.96271" lon="-4.66289">
        <ele>384.2</ele>
        <time>2020-08-16 13:47:12</time>
      </trkpt>
      <trkpt lat="39.9627" lon="-4.66322">
        <ele>384</ele>
        <time>2020-08-16 13:47:17</time>
      </trkpt>
      <trkpt lat="39.96269" lon="-4.66348">
        <ele>384</ele>
        <time>2020-08-16 13:47:21</time>
      </trkpt>
      <trkpt lat="39.96269" lon="-4.66355">
        <ele>384</ele>
        <time>2020-08-16 13:47:22</time>
      </trkpt>
      <trkpt lat="39.96269" lon="-4.66361">
        <ele>384</ele>
        <time>2020-08-16 13:47:23</time>
      </trkpt>
      <trkpt lat="39.96269" lon="-4.66368">
        <ele>384</ele>
        <time>2020-08-16 13:47:24</time>
      </trkpt>
      <trkpt lat="39.96268" lon="-4.66373">
        <ele>384</ele>
        <time>2020-08-16 13:47:25</time>
      </trkpt>
      <trkpt lat="39.96268" lon="-4.66379">
        <ele>384</ele>
        <time>2020-08-16 13:47:26</time>
      </trkpt>
      <trkpt lat="39.96269" lon="-4.66384">
        <ele>384</ele>
        <time>2020-08-16 13:47:27</time>
      </trkpt>
      <trkpt lat="39.9627" lon="-4.66388">
        <ele>384</ele>
        <time>2020-08-16 13:47:28</time>
      </trkpt>
      <trkpt lat="39.96272" lon="-4.66391">
        <ele>384.2</ele>
        <time>2020-08-16 13:47:29</time>
      </trkpt>
      <trkpt lat="39.96273" lon="-4.66395">
        <ele>384.2</ele>
        <time>2020-08-16 13:47:30</time>
      </trkpt>
      <trkpt lat="39.96275" lon="-4.66398">
        <ele>384.2</ele>
        <time>2020-08-16 13:47:31</time>
      </trkpt>
      <trkpt lat="39.96275" lon="-4.66403">
        <ele>384.2</ele>
        <time>2020-08-16 13:47:32</time>
      </trkpt>
      <trkpt lat="39.96275" lon="-4.66407">
        <ele>384</ele>
        <time>2020-08-16 13:47:33</time>
      </trkpt>
      <trkpt lat="39.96275" lon="-4.66412">
        <ele>384</ele>
        <time>2020-08-16 13:47:34</time>
      </trkpt>
      <trkpt lat="39.96276" lon="-4.66422">
        <ele>384</ele>
        <time>2020-08-16 13:47:36</time>
      </trkpt>
      <trkpt lat="39.96275" lon="-4.6644">
        <ele>383.8</ele>
        <time>2020-08-16 13:47:40</time>
      </trkpt>
      <trkpt lat="39.96274" lon="-4.66445">
        <ele>383.6</ele>
        <time>2020-08-16 13:47:41</time>
      </trkpt>
      <trkpt lat="39.96274" lon="-4.66453">
        <ele>383.6</ele>
        <time>2020-08-16 13:47:43</time>
      </trkpt>
      <trkpt lat="39.96274" lon="-4.66457">
        <ele>383.6</ele>
        <time>2020-08-16 13:47:44</time>
      </trkpt>
      <trkpt lat="39.96274" lon="-4.66462">
        <ele>383.6</ele>
        <time>2020-08-16 13:47:45</time>
      </trkpt>
      <trkpt lat="39.96274" lon="-4.66466">
        <ele>383.6</ele>
        <time>2020-08-16 13:47:46</time>
      </trkpt>
      <trkpt lat="39.96274" lon="-4.66471">
        <ele>383.6</ele>
        <time>2020-08-16 13:47:47</time>
      </trkpt>
      <trkpt lat="39.96274" lon="-4.66476">
        <ele>383.6</ele>
        <time>2020-08-16 13:47:48</time>
      </trkpt>
      <trkpt lat="39.96274" lon="-4.6648">
        <ele>383.6</ele>
        <time>2020-08-16 13:47:49</time>
      </trkpt>
      <trkpt lat="39.9627" lon="-4.66525">
        <ele>383.6</ele>
        <time>2020-08-16 13:47:58</time>
      </trkpt>
      <trkpt lat="39.96268" lon="-4.66558">
        <ele>383.8</ele>
        <time>2020-08-16 13:48:04</time>
      </trkpt>
      <trkpt lat="39.96269" lon="-4.6657">
        <ele>383.6</ele>
        <time>2020-08-16 13:48:06</time>
      </trkpt>
      <trkpt lat="39.96268" lon="-4.66587">
        <ele>383.6</ele>
        <time>2020-08-16 13:48:09</time>
      </trkpt>
      <trkpt lat="39.96268" lon="-4.66593">
        <ele>383.4</ele>
        <time>2020-08-16 13:48:10</time>
      </trkpt>
      <trkpt lat="39.96266" lon="-4.66604">
        <ele>383.2</ele>
        <time>2020-08-16 13:48:12</time>
      </trkpt>
      <trkpt lat="39.96265" lon="-4.6661">
        <ele>383</ele>
        <time>2020-08-16 13:48:13</time>
      </trkpt>
      <trkpt lat="39.96265" lon="-4.66632">
        <ele>383</ele>
        <time>2020-08-16 13:48:17</time>
      </trkpt>
      <trkpt lat="39.96265" lon="-4.66644">
        <ele>383</ele>
        <time>2020-08-16 13:48:19</time>
      </trkpt>
      <trkpt lat="39.96264" lon="-4.6665">
        <ele>383.2</ele>
        <time>2020-08-16 13:48:20</time>
      </trkpt>
      <trkpt lat="39.96264" lon="-4.66655">
        <ele>383.2</ele>
        <time>2020-08-16 13:48:21</time>
      </trkpt>
      <trkpt lat="39.96263" lon="-4.66661">
        <ele>383.4</ele>
        <time>2020-08-16 13:48:22</time>
      </trkpt>
      <trkpt lat="39.96261" lon="-4.66685">
        <ele>383.6</ele>
        <time>2020-08-16 13:48:26</time>
      </trkpt>
      <trkpt lat="39.96257" lon="-4.66715">
        <ele>383.6</ele>
        <time>2020-08-16 13:48:31</time>
      </trkpt>
      <trkpt lat="39.9625" lon="-4.66769">
        <ele>383.6</ele>
        <time>2020-08-16 13:48:40</time>
      </trkpt>
      <trkpt lat="39.96249" lon="-4.66775">
        <ele>383.6</ele>
        <time>2020-08-16 13:48:41</time>
      </trkpt>
      <trkpt lat="39.96248" lon="-4.66781">
        <ele>383.6</ele>
        <time>2020-08-16 13:48:42</time>
      </trkpt>
      <trkpt lat="39.96247" lon="-4.66787">
        <ele>383.6</ele>
        <time>2020-08-16 13:48:43</time>
      </trkpt>
      <trkpt lat="39.96247" lon="-4.66792">
        <ele>383.4</ele>
        <time>2020-08-16 13:48:44</time>
      </trkpt>
      <trkpt lat="39.96246" lon="-4.66798">
        <ele>383.4</ele>
        <time>2020-08-16 13:48:45</time>
      </trkpt>
      <trkpt lat="39.96245" lon="-4.66803">
        <ele>383.4</ele>
        <time>2020-08-16 13:48:46</time>
      </trkpt>
      <trkpt lat="39.96245" lon="-4.66808">
        <ele>383.4</ele>
        <time>2020-08-16 13:48:47</time>
      </trkpt>
      <trkpt lat="39.96245" lon="-4.66813">
        <ele>383.4</ele>
        <time>2020-08-16 13:48:48</time>
      </trkpt>
      <trkpt lat="39.96244" lon="-4.66816">
        <ele>383.4</ele>
        <time>2020-08-16 13:48:49</time>
      </trkpt>
      <trkpt lat="39.96244" lon="-4.66817">
        <ele>383.4</ele>
        <time>2020-08-16 13:48:51</time>
      </trkpt>
      <trkpt lat="39.96244" lon="-4.6682">
        <ele>383.4</ele>
        <time>2020-08-16 13:49:14</time>
      </trkpt>
      <trkpt lat="39.96244" lon="-4.66823">
        <ele>383.4</ele>
        <time>2020-08-16 13:49:15</time>
      </trkpt>
      <trkpt lat="39.96243" lon="-4.66826">
        <ele>383.4</ele>
        <time>2020-08-16 13:49:16</time>
      </trkpt>
      <trkpt lat="39.96243" lon="-4.66842">
        <ele>383.4</ele>
        <time>2020-08-16 13:49:19</time>
      </trkpt>
      <trkpt lat="39.96244" lon="-4.66848">
        <ele>383.4</ele>
        <time>2020-08-16 13:49:20</time>
      </trkpt>
      <trkpt lat="39.96244" lon="-4.66854">
        <ele>383.4</ele>
        <time>2020-08-16 13:49:21</time>
      </trkpt>
      <trkpt lat="39.96245" lon="-4.66882">
        <ele>383.6</ele>
        <time>2020-08-16 13:49:25</time>
      </trkpt>
      <trkpt lat="39.96245" lon="-4.66889">
        <ele>383.8</ele>
        <time>2020-08-16 13:49:26</time>
      </trkpt>
      <trkpt lat="39.96245" lon="-4.66896">
        <ele>384</ele>
        <time>2020-08-16 13:49:27</time>
      </trkpt>
      <trkpt lat="39.96246" lon="-4.66911">
        <ele>384.6</ele>
        <time>2020-08-16 13:49:29</time>
      </trkpt>
      <trkpt lat="39.96246" lon="-4.66919">
        <ele>384.6</ele>
        <time>2020-08-16 13:49:30</time>
      </trkpt>
      <trkpt lat="39.96246" lon="-4.66926">
        <ele>384.6</ele>
        <time>2020-08-16 13:49:31</time>
      </trkpt>
      <trkpt lat="39.96246" lon="-4.66933">
        <ele>384.6</ele>
        <time>2020-08-16 13:49:32</time>
      </trkpt>
      <trkpt lat="39.96247" lon="-4.66941">
        <ele>384.6</ele>
        <time>2020-08-16 13:49:33</time>
      </trkpt>
      <trkpt lat="39.96246" lon="-4.66971">
        <ele>384.4</ele>
        <time>2020-08-16 13:49:37</time>
      </trkpt>
      <trkpt lat="39.96247" lon="-4.67003">
        <ele>384.4</ele>
        <time>2020-08-16 13:49:41</time>
      </trkpt>
      <trkpt lat="39.96249" lon="-4.67018">
        <ele>384.4</ele>
        <time>2020-08-16 13:49:43</time>
      </trkpt>
      <trkpt lat="39.96249" lon="-4.67043">
        <ele>384.6</ele>
        <time>2020-08-16 13:49:46</time>
      </trkpt>
      <trkpt lat="39.96251" lon="-4.67091">
        <ele>384.6</ele>
        <time>2020-08-16 13:49:52</time>
      </trkpt>
      <trkpt lat="39.96253" lon="-4.67107">
        <ele>384.4</ele>
        <time>2020-08-16 13:49:54</time>
      </trkpt>
      <trkpt lat="39.96255" lon="-4.6714">
        <ele>384.2</ele>
        <time>2020-08-16 13:49:58</time>
      </trkpt>
      <trkpt lat="39.96256" lon="-4.67148">
        <ele>384</ele>
        <time>2020-08-16 13:49:59</time>
      </trkpt>
      <trkpt lat="39.96258" lon="-4.67155">
        <ele>384</ele>
        <time>2020-08-16 13:50:00</time>
      </trkpt>
      <trkpt lat="39.9626" lon="-4.67163">
        <ele>383.8</ele>
        <time>2020-08-16 13:50:01</time>
      </trkpt>
      <trkpt lat="39.96262" lon="-4.6717">
        <ele>383.8</ele>
        <time>2020-08-16 13:50:02</time>
      </trkpt>
      <trkpt lat="39.96263" lon="-4.67178">
        <ele>383.6</ele>
        <time>2020-08-16 13:50:03</time>
      </trkpt>
      <trkpt lat="39.96265" lon="-4.67185">
        <ele>383.6</ele>
        <time>2020-08-16 13:50:04</time>
      </trkpt>
      <trkpt lat="39.96266" lon="-4.67193">
        <ele>383.6</ele>
        <time>2020-08-16 13:50:05</time>
      </trkpt>
      <trkpt lat="39.96268" lon="-4.67201">
        <ele>383.6</ele>
        <time>2020-08-16 13:50:06</time>
      </trkpt>
      <trkpt lat="39.96269" lon="-4.67208">
        <ele>383.4</ele>
        <time>2020-08-16 13:50:07</time>
      </trkpt>
      <trkpt lat="39.96271" lon="-4.67215">
        <ele>383.4</ele>
        <time>2020-08-16 13:50:08</time>
      </trkpt>
      <trkpt lat="39.96273" lon="-4.67223">
        <ele>383.2</ele>
        <time>2020-08-16 13:50:09</time>
      </trkpt>
      <trkpt lat="39.96275" lon="-4.67229">
        <ele>383</ele>
        <time>2020-08-16 13:50:10</time>
      </trkpt>
      <trkpt lat="39.96277" lon="-4.67236">
        <ele>382.8</ele>
        <time>2020-08-16 13:50:11</time>
      </trkpt>
      <trkpt lat="39.96279" lon="-4.67243">
        <ele>382.8</ele>
        <time>2020-08-16 13:50:12</time>
      </trkpt>
      <trkpt lat="39.9628" lon="-4.6725">
        <ele>382.8</ele>
        <time>2020-08-16 13:50:13</time>
      </trkpt>
      <trkpt lat="39.96282" lon="-4.67256">
        <ele>382.6</ele>
        <time>2020-08-16 13:50:14</time>
      </trkpt>
      <trkpt lat="39.96284" lon="-4.67261">
        <ele>382.6</ele>
        <time>2020-08-16 13:50:15</time>
      </trkpt>
      <trkpt lat="39.96285" lon="-4.67266">
        <ele>382.6</ele>
        <time>2020-08-16 13:50:16</time>
      </trkpt>
      <trkpt lat="39.96287" lon="-4.67271">
        <ele>383</ele>
        <time>2020-08-16 13:50:17</time>
      </trkpt>
      <trkpt lat="39.96288" lon="-4.67276">
        <ele>383</ele>
        <time>2020-08-16 13:50:18</time>
      </trkpt>
      <trkpt lat="39.9629" lon="-4.67281">
        <ele>383.2</ele>
        <time>2020-08-16 13:50:19</time>
      </trkpt>
      <trkpt lat="39.96291" lon="-4.67286">
        <ele>383.6</ele>
        <time>2020-08-16 13:50:20</time>
      </trkpt>
      <trkpt lat="39.96293" lon="-4.67295">
        <ele>383.6</ele>
        <time>2020-08-16 13:50:22</time>
      </trkpt>
      <trkpt lat="39.96294" lon="-4.67299">
        <ele>383.6</ele>
        <time>2020-08-16 13:50:23</time>
      </trkpt>
      <trkpt lat="39.96295" lon="-4.67304">
        <ele>383.6</ele>
        <time>2020-08-16 13:50:24</time>
      </trkpt>
      <trkpt lat="39.96296" lon="-4.6731">
        <ele>383.6</ele>
        <time>2020-08-16 13:50:25</time>
      </trkpt>
      <trkpt lat="39.96297" lon="-4.67315">
        <ele>383.6</ele>
        <time>2020-08-16 13:50:26</time>
      </trkpt>
      <trkpt lat="39.96299" lon="-4.67319">
        <ele>383.6</ele>
        <time>2020-08-16 13:50:27</time>
      </trkpt>
      <trkpt lat="39.963" lon="-4.67325">
        <ele>383.6</ele>
        <time>2020-08-16 13:50:28</time>
      </trkpt>
      <trkpt lat="39.9631" lon="-4.67358">
        <ele>382.6</ele>
        <time>2020-08-16 13:50:34</time>
      </trkpt>
      <trkpt lat="39.96311" lon="-4.67364">
        <ele>382.6</ele>
        <time>2020-08-16 13:50:35</time>
      </trkpt>
      <trkpt lat="39.96313" lon="-4.6737">
        <ele>382.6</ele>
        <time>2020-08-16 13:50:36</time>
      </trkpt>
      <trkpt lat="39.96316" lon="-4.67382">
        <ele>382.4</ele>
        <time>2020-08-16 13:50:38</time>
      </trkpt>
      <trkpt lat="39.96324" lon="-4.67411">
        <ele>382.6</ele>
        <time>2020-08-16 13:50:43</time>
      </trkpt>
      <trkpt lat="39.96332" lon="-4.67435">
        <ele>382.4</ele>
        <time>2020-08-16 13:50:47</time>
      </trkpt>
      <trkpt lat="39.96336" lon="-4.67447">
        <ele>382.6</ele>
        <time>2020-08-16 13:50:49</time>
      </trkpt>
      <trkpt lat="39.96354" lon="-4.67487">
        <ele>382.4</ele>
        <time>2020-08-16 13:50:56</time>
      </trkpt>
      <trkpt lat="39.96356" lon="-4.67492">
        <ele>382.4</ele>
        <time>2020-08-16 13:50:57</time>
      </trkpt>
      <trkpt lat="39.96358" lon="-4.67497">
        <ele>382.6</ele>
        <time>2020-08-16 13:50:58</time>
      </trkpt>
      <trkpt lat="39.9636" lon="-4.67501">
        <ele>382.6</ele>
        <time>2020-08-16 13:50:59</time>
      </trkpt>
      <trkpt lat="39.96362" lon="-4.67506">
        <ele>382.6</ele>
        <time>2020-08-16 13:51:00</time>
      </trkpt>
      <trkpt lat="39.96366" lon="-4.67516">
        <ele>382.6</ele>
        <time>2020-08-16 13:51:02</time>
      </trkpt>
      <trkpt lat="39.96378" lon="-4.67559">
        <ele>382.2</ele>
        <time>2020-08-16 13:51:09</time>
      </trkpt>
      <trkpt lat="39.96379" lon="-4.67572">
        <ele>382</ele>
        <time>2020-08-16 13:51:11</time>
      </trkpt>
      <trkpt lat="39.96383" lon="-4.67584">
        <ele>382</ele>
        <time>2020-08-16 13:51:13</time>
      </trkpt>
      <trkpt lat="39.96385" lon="-4.6759">
        <ele>381.6</ele>
        <time>2020-08-16 13:51:14</time>
      </trkpt>
      <trkpt lat="39.96388" lon="-4.67595">
        <ele>381.4</ele>
        <time>2020-08-16 13:51:15</time>
      </trkpt>
      <trkpt lat="39.96391" lon="-4.676">
        <ele>381.4</ele>
        <time>2020-08-16 13:51:16</time>
      </trkpt>
      <trkpt lat="39.96396" lon="-4.67611">
        <ele>381.2</ele>
        <time>2020-08-16 13:51:18</time>
      </trkpt>
      <trkpt lat="39.96397" lon="-4.67617">
        <ele>381.2</ele>
        <time>2020-08-16 13:51:19</time>
      </trkpt>
      <trkpt lat="39.96399" lon="-4.67623">
        <ele>381.2</ele>
        <time>2020-08-16 13:51:20</time>
      </trkpt>
      <trkpt lat="39.96401" lon="-4.67629">
        <ele>381.2</ele>
        <time>2020-08-16 13:51:21</time>
      </trkpt>
      <trkpt lat="39.96403" lon="-4.67634">
        <ele>381.2</ele>
        <time>2020-08-16 13:51:22</time>
      </trkpt>
      <trkpt lat="39.96405" lon="-4.6764">
        <ele>381</ele>
        <time>2020-08-16 13:51:23</time>
      </trkpt>
      <trkpt lat="39.96406" lon="-4.67646">
        <ele>381</ele>
        <time>2020-08-16 13:51:24</time>
      </trkpt>
      <trkpt lat="39.96408" lon="-4.67652">
        <ele>381</ele>
        <time>2020-08-16 13:51:25</time>
      </trkpt>
      <trkpt lat="39.9641" lon="-4.67658">
        <ele>381.2</ele>
        <time>2020-08-16 13:51:26</time>
      </trkpt>
      <trkpt lat="39.96412" lon="-4.67664">
        <ele>381.2</ele>
        <time>2020-08-16 13:51:27</time>
      </trkpt>
      <trkpt lat="39.96413" lon="-4.6767">
        <ele>381.2</ele>
        <time>2020-08-16 13:51:28</time>
      </trkpt>
      <trkpt lat="39.96415" lon="-4.67676">
        <ele>381.2</ele>
        <time>2020-08-16 13:51:29</time>
      </trkpt>
      <trkpt lat="39.96417" lon="-4.67683">
        <ele>381.2</ele>
        <time>2020-08-16 13:51:30</time>
      </trkpt>
      <trkpt lat="39.96421" lon="-4.67702">
        <ele>381.4</ele>
        <time>2020-08-16 13:51:33</time>
      </trkpt>
      <trkpt lat="39.96427" lon="-4.67726">
        <ele>381.2</ele>
        <time>2020-08-16 13:51:37</time>
      </trkpt>
      <trkpt lat="39.9643" lon="-4.67737">
        <ele>381.4</ele>
        <time>2020-08-16 13:51:39</time>
      </trkpt>
      <trkpt lat="39.96432" lon="-4.67743">
        <ele>381.4</ele>
        <time>2020-08-16 13:51:40</time>
      </trkpt>
      <trkpt lat="39.96433" lon="-4.67749">
        <ele>381.2</ele>
        <time>2020-08-16 13:51:41</time>
      </trkpt>
      <trkpt lat="39.96435" lon="-4.67755">
        <ele>381.2</ele>
        <time>2020-08-16 13:51:42</time>
      </trkpt>
      <trkpt lat="39.96437" lon="-4.67761">
        <ele>381.2</ele>
        <time>2020-08-16 13:51:43</time>
      </trkpt>
      <trkpt lat="39.96439" lon="-4.67767">
        <ele>381.2</ele>
        <time>2020-08-16 13:51:44</time>
      </trkpt>
      <trkpt lat="39.9644" lon="-4.67773">
        <ele>381.2</ele>
        <time>2020-08-16 13:51:45</time>
      </trkpt>
      <trkpt lat="39.96442" lon="-4.67779">
        <ele>381.2</ele>
        <time>2020-08-16 13:51:46</time>
      </trkpt>
      <trkpt lat="39.96449" lon="-4.67809">
        <ele>381</ele>
        <time>2020-08-16 13:51:51</time>
      </trkpt>
      <trkpt lat="39.96451" lon="-4.67815">
        <ele>381</ele>
        <time>2020-08-16 13:51:52</time>
      </trkpt>
      <trkpt lat="39.96453" lon="-4.67821">
        <ele>381</ele>
        <time>2020-08-16 13:51:53</time>
      </trkpt>
      <trkpt lat="39.96457" lon="-4.67839">
        <ele>381</ele>
        <time>2020-08-16 13:51:56</time>
      </trkpt>
      <trkpt lat="39.96459" lon="-4.67844">
        <ele>380.8</ele>
        <time>2020-08-16 13:51:57</time>
      </trkpt>
      <trkpt lat="39.96461" lon="-4.67849">
        <ele>380.6</ele>
        <time>2020-08-16 13:51:58</time>
      </trkpt>
      <trkpt lat="39.96462" lon="-4.67855">
        <ele>380.6</ele>
        <time>2020-08-16 13:51:59</time>
      </trkpt>
      <trkpt lat="39.96463" lon="-4.6786">
        <ele>380.6</ele>
        <time>2020-08-16 13:52:00</time>
      </trkpt>
      <trkpt lat="39.96465" lon="-4.67865">
        <ele>380.6</ele>
        <time>2020-08-16 13:52:01</time>
      </trkpt>
      <trkpt lat="39.96466" lon="-4.6787">
        <ele>380.6</ele>
        <time>2020-08-16 13:52:02</time>
      </trkpt>
      <trkpt lat="39.96468" lon="-4.67874">
        <ele>380.6</ele>
        <time>2020-08-16 13:52:03</time>
      </trkpt>
      <trkpt lat="39.96469" lon="-4.67879">
        <ele>380.6</ele>
        <time>2020-08-16 13:52:04</time>
      </trkpt>
      <trkpt lat="39.96471" lon="-4.67884">
        <ele>380.6</ele>
        <time>2020-08-16 13:52:05</time>
      </trkpt>
      <trkpt lat="39.96472" lon="-4.67888">
        <ele>380.6</ele>
        <time>2020-08-16 13:52:06</time>
      </trkpt>
      <trkpt lat="39.96473" lon="-4.67893">
        <ele>380.6</ele>
        <time>2020-08-16 13:52:07</time>
      </trkpt>
      <trkpt lat="39.96474" lon="-4.67897">
        <ele>380.6</ele>
        <time>2020-08-16 13:52:08</time>
      </trkpt>
      <trkpt lat="39.96476" lon="-4.67902">
        <ele>380.6</ele>
        <time>2020-08-16 13:52:09</time>
      </trkpt>
      <trkpt lat="39.96477" lon="-4.67907">
        <ele>380.6</ele>
        <time>2020-08-16 13:52:10</time>
      </trkpt>
      <trkpt lat="39.96479" lon="-4.67912">
        <ele>380.6</ele>
        <time>2020-08-16 13:52:11</time>
      </trkpt>
      <trkpt lat="39.9648" lon="-4.67917">
        <ele>380.8</ele>
        <time>2020-08-16 13:52:12</time>
      </trkpt>
      <trkpt lat="39.96481" lon="-4.67922">
        <ele>380.8</ele>
        <time>2020-08-16 13:52:13</time>
      </trkpt>
      <trkpt lat="39.96483" lon="-4.67927">
        <ele>380.6</ele>
        <time>2020-08-16 13:52:14</time>
      </trkpt>
      <trkpt lat="39.96486" lon="-4.67937">
        <ele>380.2</ele>
        <time>2020-08-16 13:52:16</time>
      </trkpt>
      <trkpt lat="39.96497" lon="-4.67984">
        <ele>380.2</ele>
        <time>2020-08-16 13:52:25</time>
      </trkpt>
      <trkpt lat="39.96496" lon="-4.67988">
        <ele>380.2</ele>
        <time>2020-08-16 13:52:26</time>
      </trkpt>
      <trkpt lat="39.96496" lon="-4.67992">
        <ele>380</ele>
        <time>2020-08-16 13:52:27</time>
      </trkpt>
      <trkpt lat="39.96495" lon="-4.67997">
        <ele>380</ele>
        <time>2020-08-16 13:52:28</time>
      </trkpt>
      <trkpt lat="39.96495" lon="-4.68001">
        <ele>380</ele>
        <time>2020-08-16 13:52:29</time>
      </trkpt>
      <trkpt lat="39.96495" lon="-4.68005">
        <ele>380</ele>
        <time>2020-08-16 13:52:30</time>
      </trkpt>
      <trkpt lat="39.96496" lon="-4.68008">
        <ele>379.8</ele>
        <time>2020-08-16 13:52:31</time>
      </trkpt>
      <trkpt lat="39.96497" lon="-4.68011">
        <ele>379.8</ele>
        <time>2020-08-16 13:52:32</time>
      </trkpt>
      <trkpt lat="39.96497" lon="-4.68014">
        <ele>379.8</ele>
        <time>2020-08-16 13:52:33</time>
      </trkpt>
      <trkpt lat="39.96498" lon="-4.68017">
        <ele>379.6</ele>
        <time>2020-08-16 13:52:34</time>
      </trkpt>
      <trkpt lat="39.96499" lon="-4.6802">
        <ele>379.6</ele>
        <time>2020-08-16 13:52:35</time>
      </trkpt>
      <trkpt lat="39.96503" lon="-4.68036">
        <ele>379.6</ele>
        <time>2020-08-16 13:52:39</time>
      </trkpt>
      <trkpt lat="39.96505" lon="-4.68041">
        <ele>379.6</ele>
        <time>2020-08-16 13:52:40</time>
      </trkpt>
      <trkpt lat="39.96517" lon="-4.6808">
        <ele>379.6</ele>
        <time>2020-08-16 13:52:48</time>
      </trkpt>
      <trkpt lat="39.96523" lon="-4.68103">
        <ele>379.4</ele>
        <time>2020-08-16 13:52:53</time>
      </trkpt>
      <trkpt lat="39.96525" lon="-4.68106">
        <ele>379.4</ele>
        <time>2020-08-16 13:52:54</time>
      </trkpt>
      <trkpt lat="39.96526" lon="-4.68109">
        <ele>379.4</ele>
        <time>2020-08-16 13:52:55</time>
      </trkpt>
      <trkpt lat="39.96527" lon="-4.68112">
        <ele>379.6</ele>
        <time>2020-08-16 13:52:56</time>
      </trkpt>
      <trkpt lat="39.96528" lon="-4.68115">
        <ele>379.6</ele>
        <time>2020-08-16 13:52:57</time>
      </trkpt>
      <trkpt lat="39.96528" lon="-4.68119">
        <ele>379.6</ele>
        <time>2020-08-16 13:52:58</time>
      </trkpt>
      <trkpt lat="39.9653" lon="-4.68122">
        <ele>379.8</ele>
        <time>2020-08-16 13:52:59</time>
      </trkpt>
      <trkpt lat="39.96531" lon="-4.68124">
        <ele>379.8</ele>
        <time>2020-08-16 13:53:00</time>
      </trkpt>
      <trkpt lat="39.96532" lon="-4.68127">
        <ele>379.8</ele>
        <time>2020-08-16 13:53:01</time>
      </trkpt>
      <trkpt lat="39.96532" lon="-4.6813">
        <ele>379.8</ele>
        <time>2020-08-16 13:53:02</time>
      </trkpt>
      <trkpt lat="39.96533" lon="-4.68133">
        <ele>379.8</ele>
        <time>2020-08-16 13:53:03</time>
      </trkpt>
      <trkpt lat="39.96534" lon="-4.68136">
        <ele>379.8</ele>
        <time>2020-08-16 13:53:04</time>
      </trkpt>
      <trkpt lat="39.96535" lon="-4.68139">
        <ele>379.8</ele>
        <time>2020-08-16 13:53:05</time>
      </trkpt>
      <trkpt lat="39.96536" lon="-4.68142">
        <ele>379.6</ele>
        <time>2020-08-16 13:53:06</time>
      </trkpt>
      <trkpt lat="39.96537" lon="-4.68145">
        <ele>379.6</ele>
        <time>2020-08-16 13:53:07</time>
      </trkpt>
      <trkpt lat="39.96541" lon="-4.68155">
        <ele>379.6</ele>
        <time>2020-08-16 13:53:10</time>
      </trkpt>
      <trkpt lat="39.96552" lon="-4.68185">
        <ele>379.4</ele>
        <time>2020-08-16 13:53:18</time>
      </trkpt>
      <trkpt lat="39.96557" lon="-4.68197">
        <ele>379.2</ele>
        <time>2020-08-16 13:53:21</time>
      </trkpt>
      <trkpt lat="39.9657" lon="-4.68229">
        <ele>379.2</ele>
        <time>2020-08-16 13:53:28</time>
      </trkpt>
      <trkpt lat="39.9658" lon="-4.68253">
        <ele>379.2</ele>
        <time>2020-08-16 13:53:33</time>
      </trkpt>
      <trkpt lat="39.96594" lon="-4.68287">
        <ele>379.6</ele>
        <time>2020-08-16 13:53:40</time>
      </trkpt>
      <trkpt lat="39.96611" lon="-4.68331">
        <ele>380</ele>
        <time>2020-08-16 13:53:49</time>
      </trkpt>
      <trkpt lat="39.96612" lon="-4.68336">
        <ele>380</ele>
        <time>2020-08-16 13:53:50</time>
      </trkpt>
      <trkpt lat="39.96614" lon="-4.6834">
        <ele>380</ele>
        <time>2020-08-16 13:53:51</time>
      </trkpt>
      <trkpt lat="39.96616" lon="-4.68345">
        <ele>380</ele>
        <time>2020-08-16 13:53:52</time>
      </trkpt>
      <trkpt lat="39.96618" lon="-4.6835">
        <ele>380</ele>
        <time>2020-08-16 13:53:53</time>
      </trkpt>
      <trkpt lat="39.9662" lon="-4.68355">
        <ele>380</ele>
        <time>2020-08-16 13:53:54</time>
      </trkpt>
      <trkpt lat="39.96622" lon="-4.68359">
        <ele>379.8</ele>
        <time>2020-08-16 13:53:55</time>
      </trkpt>
      <trkpt lat="39.96632" lon="-4.68384">
        <ele>379.8</ele>
        <time>2020-08-16 13:54:00</time>
      </trkpt>
      <trkpt lat="39.96656" lon="-4.68446">
        <ele>379.4</ele>
        <time>2020-08-16 13:54:12</time>
      </trkpt>
      <trkpt lat="39.96668" lon="-4.68477">
        <ele>379.6</ele>
        <time>2020-08-16 13:54:18</time>
      </trkpt>
      <trkpt lat="39.9667" lon="-4.68482">
        <ele>379.6</ele>
        <time>2020-08-16 13:54:19</time>
      </trkpt>
      <trkpt lat="39.96672" lon="-4.68487">
        <ele>379.6</ele>
        <time>2020-08-16 13:54:20</time>
      </trkpt>
      <trkpt lat="39.96674" lon="-4.68492">
        <ele>379.6</ele>
        <time>2020-08-16 13:54:21</time>
      </trkpt>
      <trkpt lat="39.96676" lon="-4.68497">
        <ele>379.6</ele>
        <time>2020-08-16 13:54:22</time>
      </trkpt>
      <trkpt lat="39.96678" lon="-4.68503">
        <ele>379.6</ele>
        <time>2020-08-16 13:54:23</time>
      </trkpt>
      <trkpt lat="39.9668" lon="-4.68508">
        <ele>379.6</ele>
        <time>2020-08-16 13:54:24</time>
      </trkpt>
      <trkpt lat="39.96682" lon="-4.68513">
        <ele>379.6</ele>
        <time>2020-08-16 13:54:25</time>
      </trkpt>
      <trkpt lat="39.96685" lon="-4.68518">
        <ele>379.6</ele>
        <time>2020-08-16 13:54:26</time>
      </trkpt>
      <trkpt lat="39.96686" lon="-4.68524">
        <ele>379.6</ele>
        <time>2020-08-16 13:54:27</time>
      </trkpt>
      <trkpt lat="39.96698" lon="-4.68556">
        <ele>379.8</ele>
        <time>2020-08-16 13:54:33</time>
      </trkpt>
      <trkpt lat="39.96701" lon="-4.68566">
        <ele>379.6</ele>
        <time>2020-08-16 13:54:35</time>
      </trkpt>
      <trkpt lat="39.96702" lon="-4.68572">
        <ele>379.4</ele>
        <time>2020-08-16 13:54:36</time>
      </trkpt>
      <trkpt lat="39.96704" lon="-4.68577">
        <ele>379.4</ele>
        <time>2020-08-16 13:54:37</time>
      </trkpt>
      <trkpt lat="39.96706" lon="-4.68582">
        <ele>379.4</ele>
        <time>2020-08-16 13:54:38</time>
      </trkpt>
      <trkpt lat="39.96708" lon="-4.68587">
        <ele>379.2</ele>
        <time>2020-08-16 13:54:39</time>
      </trkpt>
      <trkpt lat="39.9671" lon="-4.68592">
        <ele>379.2</ele>
        <time>2020-08-16 13:54:40</time>
      </trkpt>
      <trkpt lat="39.96711" lon="-4.68597">
        <ele>379.2</ele>
        <time>2020-08-16 13:54:41</time>
      </trkpt>
      <trkpt lat="39.96713" lon="-4.68602">
        <ele>379.2</ele>
        <time>2020-08-16 13:54:42</time>
      </trkpt>
      <trkpt lat="39.96715" lon="-4.68608">
        <ele>379.2</ele>
        <time>2020-08-16 13:54:43</time>
      </trkpt>
      <trkpt lat="39.96717" lon="-4.68613">
        <ele>379.2</ele>
        <time>2020-08-16 13:54:44</time>
      </trkpt>
      <trkpt lat="39.96719" lon="-4.68619">
        <ele>379.2</ele>
        <time>2020-08-16 13:54:45</time>
      </trkpt>
      <trkpt lat="39.96728" lon="-4.68645">
        <ele>379</ele>
        <time>2020-08-16 13:54:50</time>
      </trkpt>
      <trkpt lat="39.9673" lon="-4.6865">
        <ele>379</ele>
        <time>2020-08-16 13:54:51</time>
      </trkpt>
      <trkpt lat="39.96733" lon="-4.68661">
        <ele>379.2</ele>
        <time>2020-08-16 13:54:53</time>
      </trkpt>
      <trkpt lat="39.96735" lon="-4.68667">
        <ele>379.2</ele>
        <time>2020-08-16 13:54:54</time>
      </trkpt>
      <trkpt lat="39.96737" lon="-4.68672">
        <ele>379.2</ele>
        <time>2020-08-16 13:54:55</time>
      </trkpt>
      <trkpt lat="39.96739" lon="-4.68677">
        <ele>379.2</ele>
        <time>2020-08-16 13:54:56</time>
      </trkpt>
      <trkpt lat="39.96741" lon="-4.68682">
        <ele>379.2</ele>
        <time>2020-08-16 13:54:57</time>
      </trkpt>
      <trkpt lat="39.96743" lon="-4.68687">
        <ele>379.4</ele>
        <time>2020-08-16 13:54:58</time>
      </trkpt>
      <trkpt lat="39.9675" lon="-4.68709">
        <ele>379.4</ele>
        <time>2020-08-16 13:55:02</time>
      </trkpt>
      <trkpt lat="39.96764" lon="-4.68752">
        <ele>379.2</ele>
        <time>2020-08-16 13:55:10</time>
      </trkpt>
      <trkpt lat="39.96766" lon="-4.68757">
        <ele>379.2</ele>
        <time>2020-08-16 13:55:11</time>
      </trkpt>
      <trkpt lat="39.96767" lon="-4.68762">
        <ele>379.4</ele>
        <time>2020-08-16 13:55:12</time>
      </trkpt>
      <trkpt lat="39.96769" lon="-4.68767">
        <ele>379.6</ele>
        <time>2020-08-16 13:55:13</time>
      </trkpt>
      <trkpt lat="39.96771" lon="-4.68773">
        <ele>379.8</ele>
        <time>2020-08-16 13:55:14</time>
      </trkpt>
      <trkpt lat="39.96772" lon="-4.68778">
        <ele>379.8</ele>
        <time>2020-08-16 13:55:15</time>
      </trkpt>
      <trkpt lat="39.96774" lon="-4.68783">
        <ele>379.8</ele>
        <time>2020-08-16 13:55:16</time>
      </trkpt>
      <trkpt lat="39.96776" lon="-4.68789">
        <ele>380</ele>
        <time>2020-08-16 13:55:17</time>
      </trkpt>
      <trkpt lat="39.96778" lon="-4.68794">
        <ele>380</ele>
        <time>2020-08-16 13:55:18</time>
      </trkpt>
      <trkpt lat="39.9678" lon="-4.688">
        <ele>380</ele>
        <time>2020-08-16 13:55:19</time>
      </trkpt>
      <trkpt lat="39.96789" lon="-4.68833">
        <ele>379.8</ele>
        <time>2020-08-16 13:55:25</time>
      </trkpt>
      <trkpt lat="39.96793" lon="-4.68849">
        <ele>379.8</ele>
        <time>2020-08-16 13:55:28</time>
      </trkpt>
      <trkpt lat="39.96795" lon="-4.68854">
        <ele>379.8</ele>
        <time>2020-08-16 13:55:29</time>
      </trkpt>
      <trkpt lat="39.96797" lon="-4.6886">
        <ele>379.8</ele>
        <time>2020-08-16 13:55:30</time>
      </trkpt>
      <trkpt lat="39.96798" lon="-4.68865">
        <ele>379.8</ele>
        <time>2020-08-16 13:55:31</time>
      </trkpt>
      <trkpt lat="39.96799" lon="-4.6887">
        <ele>379.8</ele>
        <time>2020-08-16 13:55:32</time>
      </trkpt>
      <trkpt lat="39.968" lon="-4.68874">
        <ele>379.8</ele>
        <time>2020-08-16 13:55:33</time>
      </trkpt>
      <trkpt lat="39.96802" lon="-4.68879">
        <ele>379.8</ele>
        <time>2020-08-16 13:55:34</time>
      </trkpt>
      <trkpt lat="39.96803" lon="-4.68883">
        <ele>379.8</ele>
        <time>2020-08-16 13:55:35</time>
      </trkpt>
      <trkpt lat="39.96804" lon="-4.68888">
        <ele>379.8</ele>
        <time>2020-08-16 13:55:36</time>
      </trkpt>
      <trkpt lat="39.96805" lon="-4.68892">
        <ele>379.8</ele>
        <time>2020-08-16 13:55:37</time>
      </trkpt>
      <trkpt lat="39.96807" lon="-4.68897">
        <ele>379.8</ele>
        <time>2020-08-16 13:55:38</time>
      </trkpt>
      <trkpt lat="39.96808" lon="-4.68901">
        <ele>379.8</ele>
        <time>2020-08-16 13:55:39</time>
      </trkpt>
      <trkpt lat="39.96809" lon="-4.68906">
        <ele>380</ele>
        <time>2020-08-16 13:55:40</time>
      </trkpt>
      <trkpt lat="39.9681" lon="-4.68911">
        <ele>379.8</ele>
        <time>2020-08-16 13:55:41</time>
      </trkpt>
      <trkpt lat="39.96811" lon="-4.68917">
        <ele>379.6</ele>
        <time>2020-08-16 13:55:42</time>
      </trkpt>
      <trkpt lat="39.96812" lon="-4.68922">
        <ele>379.6</ele>
        <time>2020-08-16 13:55:43</time>
      </trkpt>
      <trkpt lat="39.96813" lon="-4.68927">
        <ele>379.6</ele>
        <time>2020-08-16 13:55:44</time>
      </trkpt>
      <trkpt lat="39.96817" lon="-4.68938">
        <ele>379.6</ele>
        <time>2020-08-16 13:55:46</time>
      </trkpt>
      <trkpt lat="39.96826" lon="-4.68964">
        <ele>379.6</ele>
        <time>2020-08-16 13:55:51</time>
      </trkpt>
      <trkpt lat="39.96843" lon="-4.69024">
        <ele>379.4</ele>
        <time>2020-08-16 13:56:02</time>
      </trkpt>
      <trkpt lat="39.96852" lon="-4.69057">
        <ele>379.4</ele>
        <time>2020-08-16 13:56:08</time>
      </trkpt>
      <trkpt lat="39.96855" lon="-4.69067">
        <ele>379.6</ele>
        <time>2020-08-16 13:56:10</time>
      </trkpt>
      <trkpt lat="39.96857" lon="-4.69072">
        <ele>379.8</ele>
        <time>2020-08-16 13:56:11</time>
      </trkpt>
      <trkpt lat="39.96859" lon="-4.69078">
        <ele>380</ele>
        <time>2020-08-16 13:56:12</time>
      </trkpt>
      <trkpt lat="39.96861" lon="-4.69083">
        <ele>380</ele>
        <time>2020-08-16 13:56:13</time>
      </trkpt>
      <trkpt lat="39.96862" lon="-4.69088">
        <ele>380</ele>
        <time>2020-08-16 13:56:14</time>
      </trkpt>
      <trkpt lat="39.96864" lon="-4.69093">
        <ele>380</ele>
        <time>2020-08-16 13:56:15</time>
      </trkpt>
      <trkpt lat="39.96865" lon="-4.69099">
        <ele>380</ele>
        <time>2020-08-16 13:56:16</time>
      </trkpt>
      <trkpt lat="39.96867" lon="-4.69104">
        <ele>380</ele>
        <time>2020-08-16 13:56:17</time>
      </trkpt>
      <trkpt lat="39.96868" lon="-4.69109">
        <ele>380</ele>
        <time>2020-08-16 13:56:18</time>
      </trkpt>
      <trkpt lat="39.9687" lon="-4.69115">
        <ele>380</ele>
        <time>2020-08-16 13:56:19</time>
      </trkpt>
      <trkpt lat="39.96871" lon="-4.6912">
        <ele>380</ele>
        <time>2020-08-16 13:56:20</time>
      </trkpt>
      <trkpt lat="39.96873" lon="-4.69125">
        <ele>380</ele>
        <time>2020-08-16 13:56:21</time>
      </trkpt>
      <trkpt lat="39.96874" lon="-4.69131">
        <ele>380</ele>
        <time>2020-08-16 13:56:22</time>
      </trkpt>
      <trkpt lat="39.96875" lon="-4.69136">
        <ele>380</ele>
        <time>2020-08-16 13:56:23</time>
      </trkpt>
      <trkpt lat="39.96876" lon="-4.69141">
        <ele>380</ele>
        <time>2020-08-16 13:56:24</time>
      </trkpt>
      <trkpt lat="39.96878" lon="-4.69146">
        <ele>380</ele>
        <time>2020-08-16 13:56:25</time>
      </trkpt>
      <trkpt lat="39.96879" lon="-4.69151">
        <ele>380</ele>
        <time>2020-08-16 13:56:26</time>
      </trkpt>
      <trkpt lat="39.96881" lon="-4.69156">
        <ele>380</ele>
        <time>2020-08-16 13:56:27</time>
      </trkpt>
      <trkpt lat="39.96883" lon="-4.69162">
        <ele>380</ele>
        <time>2020-08-16 13:56:28</time>
      </trkpt>
      <trkpt lat="39.96884" lon="-4.69167">
        <ele>380</ele>
        <time>2020-08-16 13:56:29</time>
      </trkpt>
      <trkpt lat="39.96886" lon="-4.69172">
        <ele>380</ele>
        <time>2020-08-16 13:56:30</time>
      </trkpt>
      <trkpt lat="39.96887" lon="-4.69177">
        <ele>380</ele>
        <time>2020-08-16 13:56:31</time>
      </trkpt>
      <trkpt lat="39.96889" lon="-4.69182">
        <ele>380</ele>
        <time>2020-08-16 13:56:32</time>
      </trkpt>
      <trkpt lat="39.96891" lon="-4.69187">
        <ele>380</ele>
        <time>2020-08-16 13:56:33</time>
      </trkpt>
      <trkpt lat="39.96892" lon="-4.69192">
        <ele>380.2</ele>
        <time>2020-08-16 13:56:34</time>
      </trkpt>
      <trkpt lat="39.96894" lon="-4.69198">
        <ele>380.2</ele>
        <time>2020-08-16 13:56:35</time>
      </trkpt>
      <trkpt lat="39.96899" lon="-4.69214">
        <ele>380.2</ele>
        <time>2020-08-16 13:56:38</time>
      </trkpt>
      <trkpt lat="39.96903" lon="-4.69229">
        <ele>380.2</ele>
        <time>2020-08-16 13:56:41</time>
      </trkpt>
      <trkpt lat="39.96904" lon="-4.69233">
        <ele>380.2</ele>
        <time>2020-08-16 13:56:42</time>
      </trkpt>
      <trkpt lat="39.96905" lon="-4.69238">
        <ele>380.2</ele>
        <time>2020-08-16 13:56:43</time>
      </trkpt>
      <trkpt lat="39.96906" lon="-4.69243">
        <ele>380.2</ele>
        <time>2020-08-16 13:56:44</time>
      </trkpt>
      <trkpt lat="39.96907" lon="-4.69248">
        <ele>380.2</ele>
        <time>2020-08-16 13:56:45</time>
      </trkpt>
      <trkpt lat="39.96908" lon="-4.69253">
        <ele>380.2</ele>
        <time>2020-08-16 13:56:46</time>
      </trkpt>
      <trkpt lat="39.9691" lon="-4.69258">
        <ele>380</ele>
        <time>2020-08-16 13:56:47</time>
      </trkpt>
      <trkpt lat="39.96911" lon="-4.69263">
        <ele>379.8</ele>
        <time>2020-08-16 13:56:48</time>
      </trkpt>
      <trkpt lat="39.96912" lon="-4.69268">
        <ele>379.8</ele>
        <time>2020-08-16 13:56:49</time>
      </trkpt>
      <trkpt lat="39.96914" lon="-4.69273">
        <ele>379.6</ele>
        <time>2020-08-16 13:56:50</time>
      </trkpt>
      <trkpt lat="39.96915" lon="-4.69277">
        <ele>379.6</ele>
        <time>2020-08-16 13:56:51</time>
      </trkpt>
      <trkpt lat="39.96917" lon="-4.69282">
        <ele>379.6</ele>
        <time>2020-08-16 13:56:52</time>
      </trkpt>
      <trkpt lat="39.96919" lon="-4.69287">
        <ele>379.6</ele>
        <time>2020-08-16 13:56:53</time>
      </trkpt>
      <trkpt lat="39.9692" lon="-4.69291">
        <ele>379.6</ele>
        <time>2020-08-16 13:56:54</time>
      </trkpt>
      <trkpt lat="39.96921" lon="-4.69295">
        <ele>379.8</ele>
        <time>2020-08-16 13:56:55</time>
      </trkpt>
      <trkpt lat="39.96923" lon="-4.693">
        <ele>379.6</ele>
        <time>2020-08-16 13:56:56</time>
      </trkpt>
      <trkpt lat="39.96924" lon="-4.69305">
        <ele>379.6</ele>
        <time>2020-08-16 13:56:57</time>
      </trkpt>
      <trkpt lat="39.96926" lon="-4.69309">
        <ele>379.8</ele>
        <time>2020-08-16 13:56:58</time>
      </trkpt>
      <trkpt lat="39.96927" lon="-4.69314">
        <ele>379.8</ele>
        <time>2020-08-16 13:56:59</time>
      </trkpt>
      <trkpt lat="39.96929" lon="-4.69318">
        <ele>379.8</ele>
        <time>2020-08-16 13:57:00</time>
      </trkpt>
      <trkpt lat="39.9693" lon="-4.69323">
        <ele>380</ele>
        <time>2020-08-16 13:57:01</time>
      </trkpt>
      <trkpt lat="39.96931" lon="-4.69328">
        <ele>380</ele>
        <time>2020-08-16 13:57:02</time>
      </trkpt>
      <trkpt lat="39.96933" lon="-4.69332">
        <ele>380</ele>
        <time>2020-08-16 13:57:03</time>
      </trkpt>
      <trkpt lat="39.96938" lon="-4.69353">
        <ele>380</ele>
        <time>2020-08-16 13:57:07</time>
      </trkpt>
      <trkpt lat="39.96944" lon="-4.69373">
        <ele>380</ele>
        <time>2020-08-16 13:57:11</time>
      </trkpt>
      <trkpt lat="39.9695" lon="-4.69392">
        <ele>380.4</ele>
        <time>2020-08-16 13:57:15</time>
      </trkpt>
      <trkpt lat="39.96957" lon="-4.69413">
        <ele>380.6</ele>
        <time>2020-08-16 13:57:19</time>
      </trkpt>
      <trkpt lat="39.96958" lon="-4.69418">
        <ele>380.8</ele>
        <time>2020-08-16 13:57:20</time>
      </trkpt>
      <trkpt lat="39.9696" lon="-4.69423">
        <ele>380.8</ele>
        <time>2020-08-16 13:57:21</time>
      </trkpt>
      <trkpt lat="39.96961" lon="-4.69428">
        <ele>380.8</ele>
        <time>2020-08-16 13:57:22</time>
      </trkpt>
      <trkpt lat="39.96963" lon="-4.69433">
        <ele>380.8</ele>
        <time>2020-08-16 13:57:23</time>
      </trkpt>
      <trkpt lat="39.96964" lon="-4.69438">
        <ele>380.8</ele>
        <time>2020-08-16 13:57:24</time>
      </trkpt>
      <trkpt lat="39.96965" lon="-4.69443">
        <ele>380.8</ele>
        <time>2020-08-16 13:57:25</time>
      </trkpt>
      <trkpt lat="39.96967" lon="-4.69448">
        <ele>380.8</ele>
        <time>2020-08-16 13:57:26</time>
      </trkpt>
      <trkpt lat="39.96968" lon="-4.69453">
        <ele>380.8</ele>
        <time>2020-08-16 13:57:27</time>
      </trkpt>
      <trkpt lat="39.96969" lon="-4.69458">
        <ele>380.6</ele>
        <time>2020-08-16 13:57:28</time>
      </trkpt>
      <trkpt lat="39.9697" lon="-4.69462">
        <ele>380.6</ele>
        <time>2020-08-16 13:57:29</time>
      </trkpt>
      <trkpt lat="39.96972" lon="-4.69467">
        <ele>380.6</ele>
        <time>2020-08-16 13:57:30</time>
      </trkpt>
      <trkpt lat="39.96973" lon="-4.69472">
        <ele>380.6</ele>
        <time>2020-08-16 13:57:31</time>
      </trkpt>
      <trkpt lat="39.96974" lon="-4.69477">
        <ele>380.6</ele>
        <time>2020-08-16 13:57:32</time>
      </trkpt>
      <trkpt lat="39.96976" lon="-4.69482">
        <ele>380.6</ele>
        <time>2020-08-16 13:57:33</time>
      </trkpt>
      <trkpt lat="39.96977" lon="-4.69487">
        <ele>380.6</ele>
        <time>2020-08-16 13:57:34</time>
      </trkpt>
      <trkpt lat="39.96978" lon="-4.69491">
        <ele>380.6</ele>
        <time>2020-08-16 13:57:35</time>
      </trkpt>
      <trkpt lat="39.96985" lon="-4.69511">
        <ele>380.4</ele>
        <time>2020-08-16 13:57:39</time>
      </trkpt>
      <trkpt lat="39.96988" lon="-4.69521">
        <ele>380.4</ele>
        <time>2020-08-16 13:57:41</time>
      </trkpt>
      <trkpt lat="39.9699" lon="-4.69526">
        <ele>380.4</ele>
        <time>2020-08-16 13:57:42</time>
      </trkpt>
      <trkpt lat="39.96991" lon="-4.69531">
        <ele>380.4</ele>
        <time>2020-08-16 13:57:43</time>
      </trkpt>
      <trkpt lat="39.96997" lon="-4.6955">
        <ele>380</ele>
        <time>2020-08-16 13:57:47</time>
      </trkpt>
      <trkpt lat="39.96999" lon="-4.69555">
        <ele>380</ele>
        <time>2020-08-16 13:57:48</time>
      </trkpt>
      <trkpt lat="39.97" lon="-4.6956">
        <ele>380.2</ele>
        <time>2020-08-16 13:57:49</time>
      </trkpt>
      <trkpt lat="39.97003" lon="-4.6957">
        <ele>380.4</ele>
        <time>2020-08-16 13:57:51</time>
      </trkpt>
      <trkpt lat="39.97004" lon="-4.69575">
        <ele>380.4</ele>
        <time>2020-08-16 13:57:52</time>
      </trkpt>
      <trkpt lat="39.97005" lon="-4.6958">
        <ele>380.4</ele>
        <time>2020-08-16 13:57:53</time>
      </trkpt>
      <trkpt lat="39.97006" lon="-4.69584">
        <ele>380.6</ele>
        <time>2020-08-16 13:57:54</time>
      </trkpt>
      <trkpt lat="39.97007" lon="-4.69589">
        <ele>380.6</ele>
        <time>2020-08-16 13:57:55</time>
      </trkpt>
      <trkpt lat="39.97009" lon="-4.69593">
        <ele>380.6</ele>
        <time>2020-08-16 13:57:56</time>
      </trkpt>
      <trkpt lat="39.9701" lon="-4.69597">
        <ele>380.6</ele>
        <time>2020-08-16 13:57:57</time>
      </trkpt>
      <trkpt lat="39.97014" lon="-4.69606">
        <ele>380.4</ele>
        <time>2020-08-16 13:57:59</time>
      </trkpt>
      <trkpt lat="39.97016" lon="-4.69611">
        <ele>380.4</ele>
        <time>2020-08-16 13:58:00</time>
      </trkpt>
      <trkpt lat="39.97018" lon="-4.69616">
        <ele>380.4</ele>
        <time>2020-08-16 13:58:01</time>
      </trkpt>
      <trkpt lat="39.97021" lon="-4.6962">
        <ele>380.4</ele>
        <time>2020-08-16 13:58:02</time>
      </trkpt>
      <trkpt lat="39.97023" lon="-4.69625">
        <ele>380.2</ele>
        <time>2020-08-16 13:58:03</time>
      </trkpt>
      <trkpt lat="39.97025" lon="-4.6963">
        <ele>380</ele>
        <time>2020-08-16 13:58:04</time>
      </trkpt>
      <trkpt lat="39.97033" lon="-4.69648">
        <ele>379.6</ele>
        <time>2020-08-16 13:58:08</time>
      </trkpt>
      <trkpt lat="39.97039" lon="-4.69661">
        <ele>379.8</ele>
        <time>2020-08-16 13:58:11</time>
      </trkpt>
      <trkpt lat="39.97041" lon="-4.69666">
        <ele>379.8</ele>
        <time>2020-08-16 13:58:12</time>
      </trkpt>
      <trkpt lat="39.97043" lon="-4.6967">
        <ele>379.8</ele>
        <time>2020-08-16 13:58:13</time>
      </trkpt>
      <trkpt lat="39.97045" lon="-4.69675">
        <ele>380</ele>
        <time>2020-08-16 13:58:14</time>
      </trkpt>
      <trkpt lat="39.97047" lon="-4.69679">
        <ele>380</ele>
        <time>2020-08-16 13:58:15</time>
      </trkpt>
      <trkpt lat="39.97049" lon="-4.69684">
        <ele>380</ele>
        <time>2020-08-16 13:58:16</time>
      </trkpt>
      <trkpt lat="39.97054" lon="-4.69692">
        <ele>380</ele>
        <time>2020-08-16 13:58:18</time>
      </trkpt>
      <trkpt lat="39.97056" lon="-4.69697">
        <ele>380</ele>
        <time>2020-08-16 13:58:19</time>
      </trkpt>
      <trkpt lat="39.97078" lon="-4.69744">
        <ele>380</ele>
        <time>2020-08-16 13:58:29</time>
      </trkpt>
      <trkpt lat="39.97085" lon="-4.69758">
        <ele>380</ele>
        <time>2020-08-16 13:58:32</time>
      </trkpt>
      <trkpt lat="39.97088" lon="-4.69762">
        <ele>380</ele>
        <time>2020-08-16 13:58:33</time>
      </trkpt>
      <trkpt lat="39.97094" lon="-4.69776">
        <ele>379.8</ele>
        <time>2020-08-16 13:58:36</time>
      </trkpt>
      <trkpt lat="39.97097" lon="-4.69781">
        <ele>379.6</ele>
        <time>2020-08-16 13:58:37</time>
      </trkpt>
      <trkpt lat="39.97099" lon="-4.69786">
        <ele>379.6</ele>
        <time>2020-08-16 13:58:38</time>
      </trkpt>
      <trkpt lat="39.97114" lon="-4.69815">
        <ele>379.6</ele>
        <time>2020-08-16 13:58:44</time>
      </trkpt>
      <trkpt lat="39.97128" lon="-4.69844">
        <ele>379.6</ele>
        <time>2020-08-16 13:58:50</time>
      </trkpt>
      <trkpt lat="39.9713" lon="-4.69848">
        <ele>379.6</ele>
        <time>2020-08-16 13:58:51</time>
      </trkpt>
      <trkpt lat="39.97132" lon="-4.69853">
        <ele>379.6</ele>
        <time>2020-08-16 13:58:52</time>
      </trkpt>
      <trkpt lat="39.97135" lon="-4.69857">
        <ele>379.4</ele>
        <time>2020-08-16 13:58:53</time>
      </trkpt>
      <trkpt lat="39.97137" lon="-4.69862">
        <ele>379.4</ele>
        <time>2020-08-16 13:58:54</time>
      </trkpt>
      <trkpt lat="39.97139" lon="-4.69867">
        <ele>379.4</ele>
        <time>2020-08-16 13:58:55</time>
      </trkpt>
      <trkpt lat="39.97141" lon="-4.69871">
        <ele>379.4</ele>
        <time>2020-08-16 13:58:56</time>
      </trkpt>
      <trkpt lat="39.97143" lon="-4.69876">
        <ele>379.4</ele>
        <time>2020-08-16 13:58:57</time>
      </trkpt>
      <trkpt lat="39.97145" lon="-4.69881">
        <ele>379.4</ele>
        <time>2020-08-16 13:58:58</time>
      </trkpt>
      <trkpt lat="39.97148" lon="-4.69886">
        <ele>379.4</ele>
        <time>2020-08-16 13:58:59</time>
      </trkpt>
      <trkpt lat="39.9715" lon="-4.6989">
        <ele>379.6</ele>
        <time>2020-08-16 13:59:00</time>
      </trkpt>
      <trkpt lat="39.97152" lon="-4.69895">
        <ele>379.8</ele>
        <time>2020-08-16 13:59:01</time>
      </trkpt>
      <trkpt lat="39.97154" lon="-4.69899">
        <ele>380</ele>
        <time>2020-08-16 13:59:02</time>
      </trkpt>
      <trkpt lat="39.97157" lon="-4.69904">
        <ele>380</ele>
        <time>2020-08-16 13:59:03</time>
      </trkpt>
      <trkpt lat="39.97159" lon="-4.69909">
        <ele>380</ele>
        <time>2020-08-16 13:59:04</time>
      </trkpt>
      <trkpt lat="39.97161" lon="-4.69913">
        <ele>380</ele>
        <time>2020-08-16 13:59:05</time>
      </trkpt>
      <trkpt lat="39.97163" lon="-4.69918">
        <ele>380</ele>
        <time>2020-08-16 13:59:06</time>
      </trkpt>
      <trkpt lat="39.97166" lon="-4.69922">
        <ele>380</ele>
        <time>2020-08-16 13:59:07</time>
      </trkpt>
      <trkpt lat="39.97168" lon="-4.69926">
        <ele>380</ele>
        <time>2020-08-16 13:59:08</time>
      </trkpt>
      <trkpt lat="39.97171" lon="-4.69929">
        <ele>380</ele>
        <time>2020-08-16 13:59:09</time>
      </trkpt>
      <trkpt lat="39.97174" lon="-4.69933">
        <ele>379.8</ele>
        <time>2020-08-16 13:59:10</time>
      </trkpt>
      <trkpt lat="39.97177" lon="-4.69936">
        <ele>379.8</ele>
        <time>2020-08-16 13:59:11</time>
      </trkpt>
      <trkpt lat="39.9718" lon="-4.69939">
        <ele>379.8</ele>
        <time>2020-08-16 13:59:12</time>
      </trkpt>
      <trkpt lat="39.97182" lon="-4.69943">
        <ele>379.6</ele>
        <time>2020-08-16 13:59:13</time>
      </trkpt>
      <trkpt lat="39.97184" lon="-4.69947">
        <ele>379.6</ele>
        <time>2020-08-16 13:59:14</time>
      </trkpt>
      <trkpt lat="39.97186" lon="-4.69951">
        <ele>379.4</ele>
        <time>2020-08-16 13:59:15</time>
      </trkpt>
      <trkpt lat="39.97187" lon="-4.69956">
        <ele>379.4</ele>
        <time>2020-08-16 13:59:16</time>
      </trkpt>
      <trkpt lat="39.97189" lon="-4.69961">
        <ele>379.4</ele>
        <time>2020-08-16 13:59:17</time>
      </trkpt>
      <trkpt lat="39.97191" lon="-4.69965">
        <ele>379.4</ele>
        <time>2020-08-16 13:59:18</time>
      </trkpt>
      <trkpt lat="39.97193" lon="-4.6997">
        <ele>379.4</ele>
        <time>2020-08-16 13:59:19</time>
      </trkpt>
      <trkpt lat="39.97195" lon="-4.69974">
        <ele>379.8</ele>
        <time>2020-08-16 13:59:20</time>
      </trkpt>
      <trkpt lat="39.97202" lon="-4.69988">
        <ele>380.2</ele>
        <time>2020-08-16 13:59:23</time>
      </trkpt>
      <trkpt lat="39.97204" lon="-4.69993">
        <ele>380.4</ele>
        <time>2020-08-16 13:59:24</time>
      </trkpt>
      <trkpt lat="39.97206" lon="-4.69997">
        <ele>380.8</ele>
        <time>2020-08-16 13:59:25</time>
      </trkpt>
      <trkpt lat="39.97208" lon="-4.70002">
        <ele>381</ele>
        <time>2020-08-16 13:59:26</time>
      </trkpt>
      <trkpt lat="39.9721" lon="-4.70006">
        <ele>381.6</ele>
        <time>2020-08-16 13:59:27</time>
      </trkpt>
      <trkpt lat="39.97212" lon="-4.7001">
        <ele>381.6</ele>
        <time>2020-08-16 13:59:28</time>
      </trkpt>
      <trkpt lat="39.97215" lon="-4.70015">
        <ele>381.6</ele>
        <time>2020-08-16 13:59:29</time>
      </trkpt>
      <trkpt lat="39.97217" lon="-4.70019">
        <ele>381.6</ele>
        <time>2020-08-16 13:59:30</time>
      </trkpt>
      <trkpt lat="39.97219" lon="-4.70024">
        <ele>381.6</ele>
        <time>2020-08-16 13:59:31</time>
      </trkpt>
      <trkpt lat="39.97221" lon="-4.70028">
        <ele>381.2</ele>
        <time>2020-08-16 13:59:32</time>
      </trkpt>
      <trkpt lat="39.97225" lon="-4.70037">
        <ele>380.6</ele>
        <time>2020-08-16 13:59:34</time>
      </trkpt>
      <trkpt lat="39.9723" lon="-4.70046">
        <ele>379.8</ele>
        <time>2020-08-16 13:59:36</time>
      </trkpt>
      <trkpt lat="39.97244" lon="-4.70079">
        <ele>379</ele>
        <time>2020-08-16 13:59:43</time>
      </trkpt>
      <trkpt lat="39.97263" lon="-4.70115">
        <ele>379</ele>
        <time>2020-08-16 13:59:51</time>
      </trkpt>
      <trkpt lat="39.97265" lon="-4.7012">
        <ele>379</ele>
        <time>2020-08-16 13:59:52</time>
      </trkpt>
      <trkpt lat="39.97267" lon="-4.70124">
        <ele>379</ele>
        <time>2020-08-16 13:59:53</time>
      </trkpt>
      <trkpt lat="39.97269" lon="-4.70128">
        <ele>379</ele>
        <time>2020-08-16 13:59:54</time>
      </trkpt>
      <trkpt lat="39.97272" lon="-4.70133">
        <ele>379</ele>
        <time>2020-08-16 13:59:55</time>
      </trkpt>
      <trkpt lat="39.97274" lon="-4.70137">
        <ele>379</ele>
        <time>2020-08-16 13:59:56</time>
      </trkpt>
      <trkpt lat="39.97276" lon="-4.70142">
        <ele>379</ele>
        <time>2020-08-16 13:59:57</time>
      </trkpt>
      <trkpt lat="39.97278" lon="-4.70146">
        <ele>379</ele>
        <time>2020-08-16 13:59:58</time>
      </trkpt>
      <trkpt lat="39.9728" lon="-4.70151">
        <ele>378.8</ele>
        <time>2020-08-16 13:59:59</time>
      </trkpt>
      <trkpt lat="39.97282" lon="-4.70155">
        <ele>378.8</ele>
        <time>2020-08-16 14:00:00</time>
      </trkpt>
      <trkpt lat="39.97284" lon="-4.70159">
        <ele>378.8</ele>
        <time>2020-08-16 14:00:01</time>
      </trkpt>
      <trkpt lat="39.97288" lon="-4.70168">
        <ele>378.6</ele>
        <time>2020-08-16 14:00:03</time>
      </trkpt>
      <trkpt lat="39.9729" lon="-4.70173">
        <ele>378.6</ele>
        <time>2020-08-16 14:00:04</time>
      </trkpt>
      <trkpt lat="39.97292" lon="-4.70177">
        <ele>378.6</ele>
        <time>2020-08-16 14:00:05</time>
      </trkpt>
      <trkpt lat="39.97295" lon="-4.70182">
        <ele>378.6</ele>
        <time>2020-08-16 14:00:06</time>
      </trkpt>
      <trkpt lat="39.97297" lon="-4.70186">
        <ele>378.4</ele>
        <time>2020-08-16 14:00:07</time>
      </trkpt>
      <trkpt lat="39.97299" lon="-4.70191">
        <ele>378.4</ele>
        <time>2020-08-16 14:00:08</time>
      </trkpt>
      <trkpt lat="39.97303" lon="-4.702">
        <ele>378.4</ele>
        <time>2020-08-16 14:00:10</time>
      </trkpt>
      <trkpt lat="39.97307" lon="-4.70209">
        <ele>378.4</ele>
        <time>2020-08-16 14:00:12</time>
      </trkpt>
      <trkpt lat="39.97309" lon="-4.70214">
        <ele>378.4</ele>
        <time>2020-08-16 14:00:13</time>
      </trkpt>
      <trkpt lat="39.97312" lon="-4.70218">
        <ele>378.4</ele>
        <time>2020-08-16 14:00:14</time>
      </trkpt>
      <trkpt lat="39.97315" lon="-4.70222">
        <ele>378.4</ele>
        <time>2020-08-16 14:00:15</time>
      </trkpt>
      <trkpt lat="39.97335" lon="-4.70241">
        <ele>378.2</ele>
        <time>2020-08-16 14:00:21</time>
      </trkpt>
      <trkpt lat="39.97338" lon="-4.70245">
        <ele>378.2</ele>
        <time>2020-08-16 14:00:22</time>
      </trkpt>
      <trkpt lat="39.97347" lon="-4.70263">
        <ele>378.6</ele>
        <time>2020-08-16 14:00:26</time>
      </trkpt>
      <trkpt lat="39.97349" lon="-4.70268">
        <ele>378.4</ele>
        <time>2020-08-16 14:00:27</time>
      </trkpt>
      <trkpt lat="39.97351" lon="-4.70273">
        <ele>378.4</ele>
        <time>2020-08-16 14:00:28</time>
      </trkpt>
      <trkpt lat="39.97353" lon="-4.70277">
        <ele>378.6</ele>
        <time>2020-08-16 14:00:29</time>
      </trkpt>
      <trkpt lat="39.97355" lon="-4.70282">
        <ele>378.6</ele>
        <time>2020-08-16 14:00:30</time>
      </trkpt>
      <trkpt lat="39.97357" lon="-4.70286">
        <ele>378.6</ele>
        <time>2020-08-16 14:00:31</time>
      </trkpt>
      <trkpt lat="39.97361" lon="-4.70296">
        <ele>378.6</ele>
        <time>2020-08-16 14:00:33</time>
      </trkpt>
      <trkpt lat="39.97362" lon="-4.703">
        <ele>378.6</ele>
        <time>2020-08-16 14:00:34</time>
      </trkpt>
      <trkpt lat="39.97364" lon="-4.70305">
        <ele>378.6</ele>
        <time>2020-08-16 14:00:35</time>
      </trkpt>
      <trkpt lat="39.97366" lon="-4.7031">
        <ele>378.6</ele>
        <time>2020-08-16 14:00:36</time>
      </trkpt>
      <trkpt lat="39.97368" lon="-4.70315">
        <ele>378.6</ele>
        <time>2020-08-16 14:00:37</time>
      </trkpt>
      <trkpt lat="39.97385" lon="-4.70353">
        <ele>378.8</ele>
        <time>2020-08-16 14:00:45</time>
      </trkpt>
      <trkpt lat="39.97391" lon="-4.70366">
        <ele>379.2</ele>
        <time>2020-08-16 14:00:48</time>
      </trkpt>
      <trkpt lat="39.97393" lon="-4.70371">
        <ele>379.4</ele>
        <time>2020-08-16 14:00:49</time>
      </trkpt>
      <trkpt lat="39.97394" lon="-4.70376">
        <ele>379.4</ele>
        <time>2020-08-16 14:00:50</time>
      </trkpt>
      <trkpt lat="39.97396" lon="-4.70381">
        <ele>379.6</ele>
        <time>2020-08-16 14:00:51</time>
      </trkpt>
      <trkpt lat="39.97399" lon="-4.70391">
        <ele>379.8</ele>
        <time>2020-08-16 14:00:53</time>
      </trkpt>
      <trkpt lat="39.97401" lon="-4.70396">
        <ele>379.8</ele>
        <time>2020-08-16 14:00:54</time>
      </trkpt>
      <trkpt lat="39.97403" lon="-4.70401">
        <ele>379.8</ele>
        <time>2020-08-16 14:00:55</time>
      </trkpt>
      <trkpt lat="39.97405" lon="-4.70406">
        <ele>379.8</ele>
        <time>2020-08-16 14:00:56</time>
      </trkpt>
      <trkpt lat="39.97406" lon="-4.70411">
        <ele>380</ele>
        <time>2020-08-16 14:00:57</time>
      </trkpt>
      <trkpt lat="39.97408" lon="-4.70416">
        <ele>380</ele>
        <time>2020-08-16 14:00:58</time>
      </trkpt>
      <trkpt lat="39.9741" lon="-4.70421">
        <ele>380</ele>
        <time>2020-08-16 14:00:59</time>
      </trkpt>
      <trkpt lat="39.97421" lon="-4.70455">
        <ele>380.2</ele>
        <time>2020-08-16 14:01:05</time>
      </trkpt>
      <trkpt lat="39.97426" lon="-4.70473">
        <ele>380.4</ele>
        <time>2020-08-16 14:01:08</time>
      </trkpt>
      <trkpt lat="39.97437" lon="-4.7051">
        <ele>379.8</ele>
        <time>2020-08-16 14:01:14</time>
      </trkpt>
      <trkpt lat="39.97438" lon="-4.70517">
        <ele>379.6</ele>
        <time>2020-08-16 14:01:15</time>
      </trkpt>
      <trkpt lat="39.97449" lon="-4.7056">
        <ele>379</ele>
        <time>2020-08-16 14:01:22</time>
      </trkpt>
      <trkpt lat="39.97452" lon="-4.70572">
        <ele>379</ele>
        <time>2020-08-16 14:01:24</time>
      </trkpt>
      <trkpt lat="39.97453" lon="-4.70578">
        <ele>379</ele>
        <time>2020-08-16 14:01:25</time>
      </trkpt>
      <trkpt lat="39.97454" lon="-4.70584">
        <ele>379.2</ele>
        <time>2020-08-16 14:01:26</time>
      </trkpt>
      <trkpt lat="39.97456" lon="-4.70591">
        <ele>379.2</ele>
        <time>2020-08-16 14:01:27</time>
      </trkpt>
      <trkpt lat="39.97457" lon="-4.70597">
        <ele>379.2</ele>
        <time>2020-08-16 14:01:28</time>
      </trkpt>
      <trkpt lat="39.97459" lon="-4.70603">
        <ele>379.2</ele>
        <time>2020-08-16 14:01:29</time>
      </trkpt>
      <trkpt lat="39.9746" lon="-4.70609">
        <ele>379.2</ele>
        <time>2020-08-16 14:01:30</time>
      </trkpt>
      <trkpt lat="39.97462" lon="-4.70615">
        <ele>379</ele>
        <time>2020-08-16 14:01:31</time>
      </trkpt>
      <trkpt lat="39.97464" lon="-4.70621">
        <ele>379</ele>
        <time>2020-08-16 14:01:32</time>
      </trkpt>
      <trkpt lat="39.97466" lon="-4.70627">
        <ele>379</ele>
        <time>2020-08-16 14:01:33</time>
      </trkpt>
      <trkpt lat="39.97467" lon="-4.70632">
        <ele>379</ele>
        <time>2020-08-16 14:01:34</time>
      </trkpt>
      <trkpt lat="39.97468" lon="-4.70638">
        <ele>379</ele>
        <time>2020-08-16 14:01:35</time>
      </trkpt>
      <trkpt lat="39.97469" lon="-4.70645">
        <ele>379</ele>
        <time>2020-08-16 14:01:36</time>
      </trkpt>
      <trkpt lat="39.9747" lon="-4.70651">
        <ele>378.8</ele>
        <time>2020-08-16 14:01:37</time>
      </trkpt>
      <trkpt lat="39.97472" lon="-4.70657">
        <ele>378.8</ele>
        <time>2020-08-16 14:01:38</time>
      </trkpt>
      <trkpt lat="39.97473" lon="-4.70663">
        <ele>378.8</ele>
        <time>2020-08-16 14:01:39</time>
      </trkpt>
      <trkpt lat="39.97475" lon="-4.70669">
        <ele>378.8</ele>
        <time>2020-08-16 14:01:40</time>
      </trkpt>
      <trkpt lat="39.97488" lon="-4.70732">
        <ele>378.8</ele>
        <time>2020-08-16 14:01:50</time>
      </trkpt>
      <trkpt lat="39.9749" lon="-4.70738">
        <ele>378.8</ele>
        <time>2020-08-16 14:01:51</time>
      </trkpt>
      <trkpt lat="39.97491" lon="-4.70744">
        <ele>378.6</ele>
        <time>2020-08-16 14:01:52</time>
      </trkpt>
      <trkpt lat="39.97492" lon="-4.7075">
        <ele>378.6</ele>
        <time>2020-08-16 14:01:53</time>
      </trkpt>
      <trkpt lat="39.97494" lon="-4.70755">
        <ele>378.8</ele>
        <time>2020-08-16 14:01:54</time>
      </trkpt>
      <trkpt lat="39.97495" lon="-4.70761">
        <ele>378.6</ele>
        <time>2020-08-16 14:01:55</time>
      </trkpt>
      <trkpt lat="39.97495" lon="-4.70767">
        <ele>378.6</ele>
        <time>2020-08-16 14:01:56</time>
      </trkpt>
      <trkpt lat="39.97496" lon="-4.70773">
        <ele>378.6</ele>
        <time>2020-08-16 14:01:57</time>
      </trkpt>
      <trkpt lat="39.97497" lon="-4.70778">
        <ele>378.6</ele>
        <time>2020-08-16 14:01:58</time>
      </trkpt>
      <trkpt lat="39.97497" lon="-4.70784">
        <ele>378.6</ele>
        <time>2020-08-16 14:01:59</time>
      </trkpt>
      <trkpt lat="39.97498" lon="-4.7079">
        <ele>378.6</ele>
        <time>2020-08-16 14:02:00</time>
      </trkpt>
      <trkpt lat="39.97499" lon="-4.70795">
        <ele>378.8</ele>
        <time>2020-08-16 14:02:01</time>
      </trkpt>
      <trkpt lat="39.975" lon="-4.708">
        <ele>378.6</ele>
        <time>2020-08-16 14:02:02</time>
      </trkpt>
      <trkpt lat="39.97501" lon="-4.70806">
        <ele>378.6</ele>
        <time>2020-08-16 14:02:03</time>
      </trkpt>
      <trkpt lat="39.97502" lon="-4.70811">
        <ele>378.6</ele>
        <time>2020-08-16 14:02:04</time>
      </trkpt>
      <trkpt lat="39.97503" lon="-4.70816">
        <ele>378.8</ele>
        <time>2020-08-16 14:02:05</time>
      </trkpt>
      <trkpt lat="39.97503" lon="-4.70822">
        <ele>378.8</ele>
        <time>2020-08-16 14:02:06</time>
      </trkpt>
      <trkpt lat="39.97504" lon="-4.70827">
        <ele>379</ele>
        <time>2020-08-16 14:02:07</time>
      </trkpt>
      <trkpt lat="39.97504" lon="-4.70833">
        <ele>379</ele>
        <time>2020-08-16 14:02:08</time>
      </trkpt>
      <trkpt lat="39.97504" lon="-4.70838">
        <ele>379.2</ele>
        <time>2020-08-16 14:02:09</time>
      </trkpt>
      <trkpt lat="39.97505" lon="-4.70844">
        <ele>379.2</ele>
        <time>2020-08-16 14:02:10</time>
      </trkpt>
      <trkpt lat="39.97505" lon="-4.70849">
        <ele>379.2</ele>
        <time>2020-08-16 14:02:11</time>
      </trkpt>
      <trkpt lat="39.97505" lon="-4.70855">
        <ele>379.2</ele>
        <time>2020-08-16 14:02:12</time>
      </trkpt>
      <trkpt lat="39.97506" lon="-4.7086">
        <ele>379.2</ele>
        <time>2020-08-16 14:02:13</time>
      </trkpt>
      <trkpt lat="39.97512" lon="-4.70892">
        <ele>378.8</ele>
        <time>2020-08-16 14:02:19</time>
      </trkpt>
      <trkpt lat="39.97521" lon="-4.7093">
        <ele>379.2</ele>
        <time>2020-08-16 14:02:26</time>
      </trkpt>
      <trkpt lat="39.97522" lon="-4.70935">
        <ele>379.4</ele>
        <time>2020-08-16 14:02:27</time>
      </trkpt>
      <trkpt lat="39.97523" lon="-4.70939">
        <ele>379.4</ele>
        <time>2020-08-16 14:02:28</time>
      </trkpt>
      <trkpt lat="39.97524" lon="-4.70944">
        <ele>379.6</ele>
        <time>2020-08-16 14:02:29</time>
      </trkpt>
      <trkpt lat="39.97526" lon="-4.70948">
        <ele>379.6</ele>
        <time>2020-08-16 14:02:30</time>
      </trkpt>
      <trkpt lat="39.97529" lon="-4.70958">
        <ele>379.6</ele>
        <time>2020-08-16 14:02:32</time>
      </trkpt>
      <trkpt lat="39.9753" lon="-4.70968">
        <ele>379.6</ele>
        <time>2020-08-16 14:02:34</time>
      </trkpt>
      <trkpt lat="39.97532" lon="-4.70985">
        <ele>379.6</ele>
        <time>2020-08-16 14:02:37</time>
      </trkpt>
      <trkpt lat="39.97537" lon="-4.71013">
        <ele>380.2</ele>
        <time>2020-08-16 14:02:42</time>
      </trkpt>
      <trkpt lat="39.97538" lon="-4.71025">
        <ele>380.2</ele>
        <time>2020-08-16 14:02:44</time>
      </trkpt>
      <trkpt lat="39.97539" lon="-4.71047">
        <ele>380.2</ele>
        <time>2020-08-16 14:02:48</time>
      </trkpt>
      <trkpt lat="39.9754" lon="-4.71052">
        <ele>380</ele>
        <time>2020-08-16 14:02:49</time>
      </trkpt>
      <trkpt lat="39.9754" lon="-4.71057">
        <ele>380</ele>
        <time>2020-08-16 14:02:50</time>
      </trkpt>
      <trkpt lat="39.97541" lon="-4.71063">
        <ele>380</ele>
        <time>2020-08-16 14:02:51</time>
      </trkpt>
      <trkpt lat="39.97542" lon="-4.71068">
        <ele>380</ele>
        <time>2020-08-16 14:02:52</time>
      </trkpt>
      <trkpt lat="39.97544" lon="-4.71074">
        <ele>380</ele>
        <time>2020-08-16 14:02:53</time>
      </trkpt>
      <trkpt lat="39.97545" lon="-4.7108">
        <ele>380</ele>
        <time>2020-08-16 14:02:54</time>
      </trkpt>
      <trkpt lat="39.97547" lon="-4.71085">
        <ele>380</ele>
        <time>2020-08-16 14:02:55</time>
      </trkpt>
      <trkpt lat="39.97549" lon="-4.71091">
        <ele>380</ele>
        <time>2020-08-16 14:02:56</time>
      </trkpt>
      <trkpt lat="39.97558" lon="-4.71121">
        <ele>379.8</ele>
        <time>2020-08-16 14:03:01</time>
      </trkpt>
      <trkpt lat="39.97561" lon="-4.71126">
        <ele>379.8</ele>
        <time>2020-08-16 14:03:02</time>
      </trkpt>
      <trkpt lat="39.97564" lon="-4.71138">
        <ele>379.6</ele>
        <time>2020-08-16 14:03:04</time>
      </trkpt>
      <trkpt lat="39.97565" lon="-4.71144">
        <ele>379.6</ele>
        <time>2020-08-16 14:03:05</time>
      </trkpt>
      <trkpt lat="39.97567" lon="-4.71156">
        <ele>379.4</ele>
        <time>2020-08-16 14:03:07</time>
      </trkpt>
      <trkpt lat="39.97568" lon="-4.71163">
        <ele>379.4</ele>
        <time>2020-08-16 14:03:08</time>
      </trkpt>
      <trkpt lat="39.97569" lon="-4.71169">
        <ele>379.4</ele>
        <time>2020-08-16 14:03:09</time>
      </trkpt>
      <trkpt lat="39.9757" lon="-4.71174">
        <ele>379.4</ele>
        <time>2020-08-16 14:03:10</time>
      </trkpt>
      <trkpt lat="39.97575" lon="-4.71197">
        <ele>379.2</ele>
        <time>2020-08-16 14:03:14</time>
      </trkpt>
      <trkpt lat="39.97577" lon="-4.71203">
        <ele>379.4</ele>
        <time>2020-08-16 14:03:15</time>
      </trkpt>
      <trkpt lat="39.97578" lon="-4.71209">
        <ele>379.4</ele>
        <time>2020-08-16 14:03:16</time>
      </trkpt>
      <trkpt lat="39.97579" lon="-4.71214">
        <ele>379.4</ele>
        <time>2020-08-16 14:03:17</time>
      </trkpt>
      <trkpt lat="39.97581" lon="-4.7122">
        <ele>379.4</ele>
        <time>2020-08-16 14:03:18</time>
      </trkpt>
      <trkpt lat="39.97582" lon="-4.71225">
        <ele>379.4</ele>
        <time>2020-08-16 14:03:19</time>
      </trkpt>
      <trkpt lat="39.97584" lon="-4.71231">
        <ele>379.4</ele>
        <time>2020-08-16 14:03:20</time>
      </trkpt>
      <trkpt lat="39.97585" lon="-4.71236">
        <ele>379.4</ele>
        <time>2020-08-16 14:03:21</time>
      </trkpt>
      <trkpt lat="39.97586" lon="-4.71242">
        <ele>379.4</ele>
        <time>2020-08-16 14:03:22</time>
      </trkpt>
      <trkpt lat="39.97588" lon="-4.71247">
        <ele>379.4</ele>
        <time>2020-08-16 14:03:23</time>
      </trkpt>
      <trkpt lat="39.97589" lon="-4.71253">
        <ele>379.4</ele>
        <time>2020-08-16 14:03:24</time>
      </trkpt>
      <trkpt lat="39.97591" lon="-4.71258">
        <ele>379.2</ele>
        <time>2020-08-16 14:03:25</time>
      </trkpt>
      <trkpt lat="39.97592" lon="-4.71264">
        <ele>379.2</ele>
        <time>2020-08-16 14:03:26</time>
      </trkpt>
      <trkpt lat="39.97594" lon="-4.7127">
        <ele>379.2</ele>
        <time>2020-08-16 14:03:27</time>
      </trkpt>
      <trkpt lat="39.976" lon="-4.713">
        <ele>379</ele>
        <time>2020-08-16 14:03:32</time>
      </trkpt>
      <trkpt lat="39.9761" lon="-4.71341">
        <ele>379</ele>
        <time>2020-08-16 14:03:39</time>
      </trkpt>
      <trkpt lat="39.97612" lon="-4.71353">
        <ele>379</ele>
        <time>2020-08-16 14:03:41</time>
      </trkpt>
      <trkpt lat="39.97616" lon="-4.71383">
        <ele>379</ele>
        <time>2020-08-16 14:03:46</time>
      </trkpt>
      <trkpt lat="39.97615" lon="-4.71389">
        <ele>378.8</ele>
        <time>2020-08-16 14:03:47</time>
      </trkpt>
      <trkpt lat="39.97614" lon="-4.71395">
        <ele>378.8</ele>
        <time>2020-08-16 14:03:48</time>
      </trkpt>
      <trkpt lat="39.97614" lon="-4.71401">
        <ele>378.8</ele>
        <time>2020-08-16 14:03:49</time>
      </trkpt>
      <trkpt lat="39.97615" lon="-4.71408">
        <ele>378.8</ele>
        <time>2020-08-16 14:03:50</time>
      </trkpt>
      <trkpt lat="39.97615" lon="-4.71414">
        <ele>378.8</ele>
        <time>2020-08-16 14:03:51</time>
      </trkpt>
      <trkpt lat="39.97616" lon="-4.7142">
        <ele>378.8</ele>
        <time>2020-08-16 14:03:52</time>
      </trkpt>
      <trkpt lat="39.97618" lon="-4.71425">
        <ele>378.6</ele>
        <time>2020-08-16 14:03:53</time>
      </trkpt>
      <trkpt lat="39.97619" lon="-4.71431">
        <ele>378.6</ele>
        <time>2020-08-16 14:03:54</time>
      </trkpt>
      <trkpt lat="39.9762" lon="-4.71436">
        <ele>378.6</ele>
        <time>2020-08-16 14:03:55</time>
      </trkpt>
      <trkpt lat="39.97622" lon="-4.71442">
        <ele>378.6</ele>
        <time>2020-08-16 14:03:56</time>
      </trkpt>
      <trkpt lat="39.97624" lon="-4.71447">
        <ele>378.6</ele>
        <time>2020-08-16 14:03:57</time>
      </trkpt>
      <trkpt lat="39.97626" lon="-4.71453">
        <ele>378.6</ele>
        <time>2020-08-16 14:03:58</time>
      </trkpt>
      <trkpt lat="39.97628" lon="-4.71458">
        <ele>378.6</ele>
        <time>2020-08-16 14:03:59</time>
      </trkpt>
      <trkpt lat="39.9763" lon="-4.71464">
        <ele>378.6</ele>
        <time>2020-08-16 14:04:00</time>
      </trkpt>
      <trkpt lat="39.97631" lon="-4.71469">
        <ele>378.6</ele>
        <time>2020-08-16 14:04:01</time>
      </trkpt>
      <trkpt lat="39.97631" lon="-4.71475">
        <ele>378.4</ele>
        <time>2020-08-16 14:04:02</time>
      </trkpt>
      <trkpt lat="39.97631" lon="-4.71481">
        <ele>378.4</ele>
        <time>2020-08-16 14:04:03</time>
      </trkpt>
      <trkpt lat="39.97632" lon="-4.71487">
        <ele>378.4</ele>
        <time>2020-08-16 14:04:04</time>
      </trkpt>
      <trkpt lat="39.97633" lon="-4.71493">
        <ele>378.4</ele>
        <time>2020-08-16 14:04:05</time>
      </trkpt>
      <trkpt lat="39.97635" lon="-4.71498">
        <ele>378.4</ele>
        <time>2020-08-16 14:04:06</time>
      </trkpt>
      <trkpt lat="39.97637" lon="-4.71503">
        <ele>378.4</ele>
        <time>2020-08-16 14:04:07</time>
      </trkpt>
      <trkpt lat="39.97638" lon="-4.71509">
        <ele>378.6</ele>
        <time>2020-08-16 14:04:08</time>
      </trkpt>
      <trkpt lat="39.97638" lon="-4.71514">
        <ele>378.6</ele>
        <time>2020-08-16 14:04:09</time>
      </trkpt>
      <trkpt lat="39.97639" lon="-4.7152">
        <ele>378.4</ele>
        <time>2020-08-16 14:04:10</time>
      </trkpt>
      <trkpt lat="39.97639" lon="-4.71525">
        <ele>378.4</ele>
        <time>2020-08-16 14:04:11</time>
      </trkpt>
      <trkpt lat="39.97639" lon="-4.71531">
        <ele>378.4</ele>
        <time>2020-08-16 14:04:12</time>
      </trkpt>
      <trkpt lat="39.97639" lon="-4.71537">
        <ele>378.2</ele>
        <time>2020-08-16 14:04:13</time>
      </trkpt>
      <trkpt lat="39.9764" lon="-4.71543">
        <ele>378</ele>
        <time>2020-08-16 14:04:14</time>
      </trkpt>
      <trkpt lat="39.97641" lon="-4.71555">
        <ele>377.8</ele>
        <time>2020-08-16 14:04:16</time>
      </trkpt>
      <trkpt lat="39.9764" lon="-4.7156">
        <ele>378</ele>
        <time>2020-08-16 14:04:17</time>
      </trkpt>
      <trkpt lat="39.97636" lon="-4.71571">
        <ele>377.6</ele>
        <time>2020-08-16 14:04:19</time>
      </trkpt>
      <trkpt lat="39.97636" lon="-4.71577">
        <ele>377.6</ele>
        <time>2020-08-16 14:04:20</time>
      </trkpt>
      <trkpt lat="39.97636" lon="-4.71583">
        <ele>377.6</ele>
        <time>2020-08-16 14:04:21</time>
      </trkpt>
      <trkpt lat="39.97637" lon="-4.71589">
        <ele>377.4</ele>
        <time>2020-08-16 14:04:22</time>
      </trkpt>
      <trkpt lat="39.97639" lon="-4.71595">
        <ele>377.4</ele>
        <time>2020-08-16 14:04:23</time>
      </trkpt>
      <trkpt lat="39.9764" lon="-4.716">
        <ele>377.4</ele>
        <time>2020-08-16 14:04:24</time>
      </trkpt>
      <trkpt lat="39.97641" lon="-4.71606">
        <ele>377.4</ele>
        <time>2020-08-16 14:04:25</time>
      </trkpt>
      <trkpt lat="39.97642" lon="-4.7161">
        <ele>377.4</ele>
        <time>2020-08-16 14:04:26</time>
      </trkpt>
      <trkpt lat="39.97643" lon="-4.71615">
        <ele>377.4</ele>
        <time>2020-08-16 14:04:27</time>
      </trkpt>
      <trkpt lat="39.97643" lon="-4.7162">
        <ele>377.4</ele>
        <time>2020-08-16 14:04:28</time>
      </trkpt>
      <trkpt lat="39.97643" lon="-4.71626">
        <ele>377.4</ele>
        <time>2020-08-16 14:04:29</time>
      </trkpt>
      <trkpt lat="39.97643" lon="-4.71631">
        <ele>377.4</ele>
        <time>2020-08-16 14:04:30</time>
      </trkpt>
      <trkpt lat="39.97643" lon="-4.71636">
        <ele>377.4</ele>
        <time>2020-08-16 14:04:31</time>
      </trkpt>
      <trkpt lat="39.97643" lon="-4.71641">
        <ele>377.4</ele>
        <time>2020-08-16 14:04:32</time>
      </trkpt>
      <trkpt lat="39.97642" lon="-4.71646">
        <ele>377.4</ele>
        <time>2020-08-16 14:04:33</time>
      </trkpt>
      <trkpt lat="39.97641" lon="-4.7165">
        <ele>377.4</ele>
        <time>2020-08-16 14:04:34</time>
      </trkpt>
      <trkpt lat="39.97641" lon="-4.71656">
        <ele>377.4</ele>
        <time>2020-08-16 14:04:35</time>
      </trkpt>
      <trkpt lat="39.9764" lon="-4.71661">
        <ele>377.4</ele>
        <time>2020-08-16 14:04:36</time>
      </trkpt>
      <trkpt lat="39.9764" lon="-4.71666">
        <ele>377.6</ele>
        <time>2020-08-16 14:04:37</time>
      </trkpt>
      <trkpt lat="39.97639" lon="-4.71672">
        <ele>377.6</ele>
        <time>2020-08-16 14:04:38</time>
      </trkpt>
      <trkpt lat="39.97639" lon="-4.71677">
        <ele>377.8</ele>
        <time>2020-08-16 14:04:39</time>
      </trkpt>
      <trkpt lat="39.97639" lon="-4.71682">
        <ele>377.8</ele>
        <time>2020-08-16 14:04:40</time>
      </trkpt>
      <trkpt lat="39.9764" lon="-4.71687">
        <ele>377.8</ele>
        <time>2020-08-16 14:04:41</time>
      </trkpt>
      <trkpt lat="39.97642" lon="-4.71697">
        <ele>377.8</ele>
        <time>2020-08-16 14:04:43</time>
      </trkpt>
      <trkpt lat="39.97644" lon="-4.71724">
        <ele>378</ele>
        <time>2020-08-16 14:04:48</time>
      </trkpt>
      <trkpt lat="39.97643" lon="-4.71729">
        <ele>378</ele>
        <time>2020-08-16 14:04:49</time>
      </trkpt>
      <trkpt lat="39.97642" lon="-4.71741">
        <ele>377.8</ele>
        <time>2020-08-16 14:04:51</time>
      </trkpt>
      <trkpt lat="39.97641" lon="-4.71757">
        <ele>377.6</ele>
        <time>2020-08-16 14:04:54</time>
      </trkpt>
      <trkpt lat="39.97642" lon="-4.71778">
        <ele>378.2</ele>
        <time>2020-08-16 14:04:58</time>
      </trkpt>
      <trkpt lat="39.97642" lon="-4.71783">
        <ele>378.2</ele>
        <time>2020-08-16 14:04:59</time>
      </trkpt>
      <trkpt lat="39.97643" lon="-4.71788">
        <ele>378.4</ele>
        <time>2020-08-16 14:05:00</time>
      </trkpt>
      <trkpt lat="39.97643" lon="-4.71794">
        <ele>378.4</ele>
        <time>2020-08-16 14:05:01</time>
      </trkpt>
      <trkpt lat="39.97644" lon="-4.71799">
        <ele>378.4</ele>
        <time>2020-08-16 14:05:02</time>
      </trkpt>
      <trkpt lat="39.97644" lon="-4.71804">
        <ele>378.4</ele>
        <time>2020-08-16 14:05:03</time>
      </trkpt>
      <trkpt lat="39.97645" lon="-4.7181">
        <ele>378.4</ele>
        <time>2020-08-16 14:05:04</time>
      </trkpt>
      <trkpt lat="39.97648" lon="-4.71826">
        <ele>378.4</ele>
        <time>2020-08-16 14:05:07</time>
      </trkpt>
      <trkpt lat="39.9765" lon="-4.71831">
        <ele>378.4</ele>
        <time>2020-08-16 14:05:08</time>
      </trkpt>
      <trkpt lat="39.97654" lon="-4.71847">
        <ele>378</ele>
        <time>2020-08-16 14:05:11</time>
      </trkpt>
      <trkpt lat="39.97656" lon="-4.71865">
        <ele>377.8</ele>
        <time>2020-08-16 14:05:14</time>
      </trkpt>
      <trkpt lat="39.97656" lon="-4.71871">
        <ele>378</ele>
        <time>2020-08-16 14:05:15</time>
      </trkpt>
      <trkpt lat="39.97656" lon="-4.71883">
        <ele>377.8</ele>
        <time>2020-08-16 14:05:17</time>
      </trkpt>
      <trkpt lat="39.97657" lon="-4.71888">
        <ele>378</ele>
        <time>2020-08-16 14:05:18</time>
      </trkpt>
      <trkpt lat="39.97659" lon="-4.71904">
        <ele>378.2</ele>
        <time>2020-08-16 14:05:21</time>
      </trkpt>
      <trkpt lat="39.9766" lon="-4.71909">
        <ele>378.2</ele>
        <time>2020-08-16 14:05:22</time>
      </trkpt>
      <trkpt lat="39.97661" lon="-4.71914">
        <ele>378.2</ele>
        <time>2020-08-16 14:05:23</time>
      </trkpt>
      <trkpt lat="39.97662" lon="-4.7192">
        <ele>378.2</ele>
        <time>2020-08-16 14:05:24</time>
      </trkpt>
      <trkpt lat="39.97663" lon="-4.71925">
        <ele>377.8</ele>
        <time>2020-08-16 14:05:25</time>
      </trkpt>
      <trkpt lat="39.97663" lon="-4.7193">
        <ele>377.8</ele>
        <time>2020-08-16 14:05:26</time>
      </trkpt>
      <trkpt lat="39.97663" lon="-4.71934">
        <ele>377.8</ele>
        <time>2020-08-16 14:05:27</time>
      </trkpt>
      <trkpt lat="39.97664" lon="-4.71938">
        <ele>377.8</ele>
        <time>2020-08-16 14:05:28</time>
      </trkpt>
      <trkpt lat="39.97664" lon="-4.71942">
        <ele>377.8</ele>
        <time>2020-08-16 14:05:29</time>
      </trkpt>
      <trkpt lat="39.97665" lon="-4.71946">
        <ele>377.8</ele>
        <time>2020-08-16 14:05:30</time>
      </trkpt>
      <trkpt lat="39.97665" lon="-4.7195">
        <ele>378</ele>
        <time>2020-08-16 14:05:31</time>
      </trkpt>
      <trkpt lat="39.97665" lon="-4.71954">
        <ele>378</ele>
        <time>2020-08-16 14:05:32</time>
      </trkpt>
      <trkpt lat="39.97668" lon="-4.7198">
        <ele>378.2</ele>
        <time>2020-08-16 14:05:38</time>
      </trkpt>
      <trkpt lat="39.97669" lon="-4.71985">
        <ele>378.4</ele>
        <time>2020-08-16 14:05:39</time>
      </trkpt>
      <trkpt lat="39.97672" lon="-4.72006">
        <ele>378.4</ele>
        <time>2020-08-16 14:05:44</time>
      </trkpt>
      <trkpt lat="39.97672" lon="-4.7201">
        <ele>378.2</ele>
        <time>2020-08-16 14:05:45</time>
      </trkpt>
      <trkpt lat="39.97673" lon="-4.72014">
        <ele>378.2</ele>
        <time>2020-08-16 14:05:46</time>
      </trkpt>
      <trkpt lat="39.97674" lon="-4.72019">
        <ele>378.2</ele>
        <time>2020-08-16 14:05:47</time>
      </trkpt>
      <trkpt lat="39.97676" lon="-4.72037">
        <ele>378.2</ele>
        <time>2020-08-16 14:05:51</time>
      </trkpt>
      <trkpt lat="39.97678" lon="-4.72056">
        <ele>378</ele>
        <time>2020-08-16 14:05:55</time>
      </trkpt>
      <trkpt lat="39.97679" lon="-4.72061">
        <ele>378</ele>
        <time>2020-08-16 14:05:56</time>
      </trkpt>
      <trkpt lat="39.97683" lon="-4.72083">
        <ele>378</ele>
        <time>2020-08-16 14:06:01</time>
      </trkpt>
      <trkpt lat="39.97684" lon="-4.72087">
        <ele>378</ele>
        <time>2020-08-16 14:06:02</time>
      </trkpt>
      <trkpt lat="39.97686" lon="-4.72092">
        <ele>378</ele>
        <time>2020-08-16 14:06:03</time>
      </trkpt>
      <trkpt lat="39.97687" lon="-4.72096">
        <ele>378</ele>
        <time>2020-08-16 14:06:04</time>
      </trkpt>
      <trkpt lat="39.97689" lon="-4.72101">
        <ele>378</ele>
        <time>2020-08-16 14:06:05</time>
      </trkpt>
      <trkpt lat="39.9769" lon="-4.72106">
        <ele>378</ele>
        <time>2020-08-16 14:06:06</time>
      </trkpt>
      <trkpt lat="39.97695" lon="-4.72124">
        <ele>378.2</ele>
        <time>2020-08-16 14:06:10</time>
      </trkpt>
      <trkpt lat="39.97697" lon="-4.72137">
        <ele>378.4</ele>
        <time>2020-08-16 14:06:13</time>
      </trkpt>
      <trkpt lat="39.97698" lon="-4.72142">
        <ele>378.4</ele>
        <time>2020-08-16 14:06:14</time>
      </trkpt>
      <trkpt lat="39.97698" lon="-4.72146">
        <ele>378.4</ele>
        <time>2020-08-16 14:06:15</time>
      </trkpt>
      <trkpt lat="39.97699" lon="-4.72151">
        <ele>378.4</ele>
        <time>2020-08-16 14:06:16</time>
      </trkpt>
      <trkpt lat="39.977" lon="-4.72155">
        <ele>378.4</ele>
        <time>2020-08-16 14:06:17</time>
      </trkpt>
      <trkpt lat="39.97701" lon="-4.7216">
        <ele>378.2</ele>
        <time>2020-08-16 14:06:18</time>
      </trkpt>
      <trkpt lat="39.97702" lon="-4.72164">
        <ele>378.2</ele>
        <time>2020-08-16 14:06:19</time>
      </trkpt>
      <trkpt lat="39.97703" lon="-4.72169">
        <ele>378.2</ele>
        <time>2020-08-16 14:06:20</time>
      </trkpt>
      <trkpt lat="39.97709" lon="-4.72209">
        <ele>378</ele>
        <time>2020-08-16 14:06:28</time>
      </trkpt>
      <trkpt lat="39.97716" lon="-4.72251">
        <ele>378.4</ele>
        <time>2020-08-16 14:06:36</time>
      </trkpt>
      <trkpt lat="39.97721" lon="-4.72284">
        <ele>378.2</ele>
        <time>2020-08-16 14:06:42</time>
      </trkpt>
      <trkpt lat="39.97724" lon="-4.72301">
        <ele>378</ele>
        <time>2020-08-16 14:06:45</time>
      </trkpt>
      <trkpt lat="39.97739" lon="-4.72369">
        <ele>377.8</ele>
        <time>2020-08-16 14:06:57</time>
      </trkpt>
      <trkpt lat="39.97745" lon="-4.72392">
        <ele>377.8</ele>
        <time>2020-08-16 14:07:01</time>
      </trkpt>
      <trkpt lat="39.97746" lon="-4.72398">
        <ele>377.8</ele>
        <time>2020-08-16 14:07:02</time>
      </trkpt>
      <trkpt lat="39.97747" lon="-4.72404">
        <ele>377.8</ele>
        <time>2020-08-16 14:07:03</time>
      </trkpt>
      <trkpt lat="39.9775" lon="-4.72415">
        <ele>377.6</ele>
        <time>2020-08-16 14:07:05</time>
      </trkpt>
      <trkpt lat="39.97753" lon="-4.72427">
        <ele>377.4</ele>
        <time>2020-08-16 14:07:07</time>
      </trkpt>
      <trkpt lat="39.97754" lon="-4.72433">
        <ele>377.4</ele>
        <time>2020-08-16 14:07:08</time>
      </trkpt>
      <trkpt lat="39.97755" lon="-4.72439">
        <ele>377.4</ele>
        <time>2020-08-16 14:07:09</time>
      </trkpt>
      <trkpt lat="39.97756" lon="-4.72445">
        <ele>377.4</ele>
        <time>2020-08-16 14:07:10</time>
      </trkpt>
      <trkpt lat="39.97758" lon="-4.7245">
        <ele>377.4</ele>
        <time>2020-08-16 14:07:11</time>
      </trkpt>
      <trkpt lat="39.97759" lon="-4.72456">
        <ele>377.4</ele>
        <time>2020-08-16 14:07:12</time>
      </trkpt>
      <trkpt lat="39.97761" lon="-4.72461">
        <ele>377.2</ele>
        <time>2020-08-16 14:07:13</time>
      </trkpt>
      <trkpt lat="39.97762" lon="-4.72467">
        <ele>377.2</ele>
        <time>2020-08-16 14:07:14</time>
      </trkpt>
      <trkpt lat="39.97763" lon="-4.72473">
        <ele>377.2</ele>
        <time>2020-08-16 14:07:15</time>
      </trkpt>
      <trkpt lat="39.97764" lon="-4.72478">
        <ele>377.2</ele>
        <time>2020-08-16 14:07:16</time>
      </trkpt>
      <trkpt lat="39.97765" lon="-4.72484">
        <ele>377.2</ele>
        <time>2020-08-16 14:07:17</time>
      </trkpt>
      <trkpt lat="39.97766" lon="-4.7249">
        <ele>377.2</ele>
        <time>2020-08-16 14:07:18</time>
      </trkpt>
      <trkpt lat="39.97767" lon="-4.72495">
        <ele>377.2</ele>
        <time>2020-08-16 14:07:19</time>
      </trkpt>
      <trkpt lat="39.97767" lon="-4.72501">
        <ele>377.2</ele>
        <time>2020-08-16 14:07:20</time>
      </trkpt>
      <trkpt lat="39.97768" lon="-4.72507">
        <ele>377.2</ele>
        <time>2020-08-16 14:07:21</time>
      </trkpt>
      <trkpt lat="39.9777" lon="-4.72518">
        <ele>377.4</ele>
        <time>2020-08-16 14:07:23</time>
      </trkpt>
      <trkpt lat="39.9777" lon="-4.72524">
        <ele>377.4</ele>
        <time>2020-08-16 14:07:24</time>
      </trkpt>
      <trkpt lat="39.97771" lon="-4.7253">
        <ele>377.4</ele>
        <time>2020-08-16 14:07:25</time>
      </trkpt>
      <trkpt lat="39.97772" lon="-4.72535">
        <ele>377.6</ele>
        <time>2020-08-16 14:07:26</time>
      </trkpt>
      <trkpt lat="39.97774" lon="-4.7254">
        <ele>377.6</ele>
        <time>2020-08-16 14:07:27</time>
      </trkpt>
      <trkpt lat="39.97775" lon="-4.72545">
        <ele>377.6</ele>
        <time>2020-08-16 14:07:28</time>
      </trkpt>
      <trkpt lat="39.97776" lon="-4.7255">
        <ele>377.6</ele>
        <time>2020-08-16 14:07:29</time>
      </trkpt>
      <trkpt lat="39.97777" lon="-4.72556">
        <ele>377.6</ele>
        <time>2020-08-16 14:07:30</time>
      </trkpt>
      <trkpt lat="39.97778" lon="-4.72561">
        <ele>377.6</ele>
        <time>2020-08-16 14:07:31</time>
      </trkpt>
      <trkpt lat="39.97779" lon="-4.72567">
        <ele>377.6</ele>
        <time>2020-08-16 14:07:32</time>
      </trkpt>
      <trkpt lat="39.97779" lon="-4.72572">
        <ele>377.4</ele>
        <time>2020-08-16 14:07:33</time>
      </trkpt>
      <trkpt lat="39.9778" lon="-4.72578">
        <ele>377.4</ele>
        <time>2020-08-16 14:07:34</time>
      </trkpt>
      <trkpt lat="39.97781" lon="-4.72583">
        <ele>377.4</ele>
        <time>2020-08-16 14:07:35</time>
      </trkpt>
      <trkpt lat="39.97782" lon="-4.72588">
        <ele>377.2</ele>
        <time>2020-08-16 14:07:36</time>
      </trkpt>
      <trkpt lat="39.97782" lon="-4.72594">
        <ele>377.2</ele>
        <time>2020-08-16 14:07:37</time>
      </trkpt>
      <trkpt lat="39.97783" lon="-4.72599">
        <ele>377.2</ele>
        <time>2020-08-16 14:07:38</time>
      </trkpt>
      <trkpt lat="39.97784" lon="-4.72604">
        <ele>377.2</ele>
        <time>2020-08-16 14:07:39</time>
      </trkpt>
      <trkpt lat="39.97784" lon="-4.7261">
        <ele>377.2</ele>
        <time>2020-08-16 14:07:40</time>
      </trkpt>
      <trkpt lat="39.97784" lon="-4.72615">
        <ele>377.2</ele>
        <time>2020-08-16 14:07:41</time>
      </trkpt>
      <trkpt lat="39.97784" lon="-4.72621">
        <ele>377.2</ele>
        <time>2020-08-16 14:07:42</time>
      </trkpt>
      <trkpt lat="39.97784" lon="-4.72626">
        <ele>377</ele>
        <time>2020-08-16 14:07:43</time>
      </trkpt>
      <trkpt lat="39.97784" lon="-4.72637">
        <ele>377</ele>
        <time>2020-08-16 14:07:45</time>
      </trkpt>
      <trkpt lat="39.97786" lon="-4.72659">
        <ele>377</ele>
        <time>2020-08-16 14:07:49</time>
      </trkpt>
      <trkpt lat="39.97786" lon="-4.7267">
        <ele>377</ele>
        <time>2020-08-16 14:07:51</time>
      </trkpt>
      <trkpt lat="39.97786" lon="-4.72674">
        <ele>377</ele>
        <time>2020-08-16 14:07:52</time>
      </trkpt>
      <trkpt lat="39.97785" lon="-4.7268">
        <ele>377</ele>
        <time>2020-08-16 14:07:53</time>
      </trkpt>
      <trkpt lat="39.97785" lon="-4.72685">
        <ele>377</ele>
        <time>2020-08-16 14:07:54</time>
      </trkpt>
      <trkpt lat="39.97785" lon="-4.7269">
        <ele>377</ele>
        <time>2020-08-16 14:07:55</time>
      </trkpt>
      <trkpt lat="39.97786" lon="-4.72695">
        <ele>377</ele>
        <time>2020-08-16 14:07:56</time>
      </trkpt>
      <trkpt lat="39.97786" lon="-4.72701">
        <ele>377</ele>
        <time>2020-08-16 14:07:57</time>
      </trkpt>
      <trkpt lat="39.97787" lon="-4.72706">
        <ele>377</ele>
        <time>2020-08-16 14:07:58</time>
      </trkpt>
      <trkpt lat="39.97789" lon="-4.72711">
        <ele>377</ele>
        <time>2020-08-16 14:07:59</time>
      </trkpt>
      <trkpt lat="39.97796" lon="-4.72747">
        <ele>377</ele>
        <time>2020-08-16 14:08:05</time>
      </trkpt>
      <trkpt lat="39.97799" lon="-4.72759">
        <ele>377</ele>
        <time>2020-08-16 14:08:07</time>
      </trkpt>
      <trkpt lat="39.97802" lon="-4.72765">
        <ele>377</ele>
        <time>2020-08-16 14:08:08</time>
      </trkpt>
      <trkpt lat="39.97808" lon="-4.72774">
        <ele>377</ele>
        <time>2020-08-16 14:08:10</time>
      </trkpt>
      <trkpt lat="39.97811" lon="-4.72779">
        <ele>377</ele>
        <time>2020-08-16 14:08:11</time>
      </trkpt>
      <trkpt lat="39.97815" lon="-4.72789">
        <ele>377</ele>
        <time>2020-08-16 14:08:13</time>
      </trkpt>
      <trkpt lat="39.9782" lon="-4.72807">
        <ele>377</ele>
        <time>2020-08-16 14:08:16</time>
      </trkpt>
      <trkpt lat="39.97822" lon="-4.72826">
        <ele>377</ele>
        <time>2020-08-16 14:08:19</time>
      </trkpt>
      <trkpt lat="39.97823" lon="-4.72832">
        <ele>377</ele>
        <time>2020-08-16 14:08:20</time>
      </trkpt>
      <trkpt lat="39.97824" lon="-4.72838">
        <ele>377</ele>
        <time>2020-08-16 14:08:21</time>
      </trkpt>
      <trkpt lat="39.97825" lon="-4.72844">
        <ele>377</ele>
        <time>2020-08-16 14:08:22</time>
      </trkpt>
      <trkpt lat="39.97827" lon="-4.72849">
        <ele>377</ele>
        <time>2020-08-16 14:08:23</time>
      </trkpt>
      <trkpt lat="39.97828" lon="-4.72854">
        <ele>377</ele>
        <time>2020-08-16 14:08:24</time>
      </trkpt>
      <trkpt lat="39.9783" lon="-4.7286">
        <ele>377</ele>
        <time>2020-08-16 14:08:25</time>
      </trkpt>
      <trkpt lat="39.97832" lon="-4.72865">
        <ele>377</ele>
        <time>2020-08-16 14:08:26</time>
      </trkpt>
      <trkpt lat="39.97833" lon="-4.7287">
        <ele>377</ele>
        <time>2020-08-16 14:08:27</time>
      </trkpt>
      <trkpt lat="39.97835" lon="-4.72874">
        <ele>377</ele>
        <time>2020-08-16 14:08:28</time>
      </trkpt>
      <trkpt lat="39.97837" lon="-4.72876">
        <ele>377</ele>
        <time>2020-08-16 14:08:29</time>
      </trkpt>
      <trkpt lat="39.97839" lon="-4.72878">
        <ele>377</ele>
        <time>2020-08-16 14:08:30</time>
      </trkpt>
      <trkpt lat="39.97841" lon="-4.7288">
        <ele>377</ele>
        <time>2020-08-16 14:08:31</time>
      </trkpt>
      <trkpt lat="39.97842" lon="-4.72881">
        <ele>377.4</ele>
        <time>2020-08-16 14:08:32</time>
      </trkpt>
      <trkpt lat="39.97843" lon="-4.72883">
        <ele>377.6</ele>
        <time>2020-08-16 14:08:33</time>
      </trkpt>
      <trkpt lat="39.97843" lon="-4.72885">
        <ele>377.8</ele>
        <time>2020-08-16 14:08:34</time>
      </trkpt>
      <trkpt lat="39.97843" lon="-4.72889">
        <ele>377.8</ele>
        <time>2020-08-16 14:08:35</time>
      </trkpt>
      <trkpt lat="39.97843" lon="-4.72893">
        <ele>378</ele>
        <time>2020-08-16 14:08:36</time>
      </trkpt>
      <trkpt lat="39.97843" lon="-4.72898">
        <ele>378</ele>
        <time>2020-08-16 14:08:37</time>
      </trkpt>
      <trkpt lat="39.97843" lon="-4.72903">
        <ele>378.2</ele>
        <time>2020-08-16 14:08:38</time>
      </trkpt>
      <trkpt lat="39.97843" lon="-4.72909">
        <ele>378.2</ele>
        <time>2020-08-16 14:08:39</time>
      </trkpt>
      <trkpt lat="39.97843" lon="-4.72914">
        <ele>378.2</ele>
        <time>2020-08-16 14:08:40</time>
      </trkpt>
      <trkpt lat="39.97845" lon="-4.72925">
        <ele>378.4</ele>
        <time>2020-08-16 14:08:42</time>
      </trkpt>
      <trkpt lat="39.97845" lon="-4.72944">
        <ele>378.4</ele>
        <time>2020-08-16 14:08:45</time>
      </trkpt>
      <trkpt lat="39.97846" lon="-4.7295">
        <ele>378.4</ele>
        <time>2020-08-16 14:08:46</time>
      </trkpt>
      <trkpt lat="39.97847" lon="-4.72963">
        <ele>378.4</ele>
        <time>2020-08-16 14:08:48</time>
      </trkpt>
      <trkpt lat="39.97847" lon="-4.72983">
        <ele>378.6</ele>
        <time>2020-08-16 14:08:51</time>
      </trkpt>
      <trkpt lat="39.97848" lon="-4.72996">
        <ele>378.6</ele>
        <time>2020-08-16 14:08:53</time>
      </trkpt>
      <trkpt lat="39.97851" lon="-4.7305">
        <ele>378.6</ele>
        <time>2020-08-16 14:09:01</time>
      </trkpt>
      <trkpt lat="39.97853" lon="-4.7309">
        <ele>378.8</ele>
        <time>2020-08-16 14:09:07</time>
      </trkpt>
      <trkpt lat="39.97852" lon="-4.73096">
        <ele>378.8</ele>
        <time>2020-08-16 14:09:08</time>
      </trkpt>
      <trkpt lat="39.97849" lon="-4.73102">
        <ele>378.8</ele>
        <time>2020-08-16 14:09:09</time>
      </trkpt>
      <trkpt lat="39.97835" lon="-4.73124">
        <ele>378.8</ele>
        <time>2020-08-16 14:09:13</time>
      </trkpt>
      <trkpt lat="39.9782" lon="-4.73156">
        <ele>378</ele>
        <time>2020-08-16 14:09:18</time>
      </trkpt>
      <trkpt lat="39.97809" lon="-4.73178">
        <ele>377.6</ele>
        <time>2020-08-16 14:09:22</time>
      </trkpt>
      <trkpt lat="39.97805" lon="-4.73184">
        <ele>377.6</ele>
        <time>2020-08-16 14:09:23</time>
      </trkpt>
      <trkpt lat="39.97803" lon="-4.7319">
        <ele>377.6</ele>
        <time>2020-08-16 14:09:24</time>
      </trkpt>
      <trkpt lat="39.97801" lon="-4.73196">
        <ele>377.4</ele>
        <time>2020-08-16 14:09:25</time>
      </trkpt>
      <trkpt lat="39.97799" lon="-4.73202">
        <ele>377.4</ele>
        <time>2020-08-16 14:09:26</time>
      </trkpt>
      <trkpt lat="39.97798" lon="-4.73208">
        <ele>377.4</ele>
        <time>2020-08-16 14:09:27</time>
      </trkpt>
      <trkpt lat="39.97796" lon="-4.73213">
        <ele>377.4</ele>
        <time>2020-08-16 14:09:28</time>
      </trkpt>
      <trkpt lat="39.97794" lon="-4.73218">
        <ele>377.4</ele>
        <time>2020-08-16 14:09:29</time>
      </trkpt>
      <trkpt lat="39.97793" lon="-4.73224">
        <ele>377.6</ele>
        <time>2020-08-16 14:09:30</time>
      </trkpt>
      <trkpt lat="39.97791" lon="-4.73229">
        <ele>377.6</ele>
        <time>2020-08-16 14:09:31</time>
      </trkpt>
      <trkpt lat="39.97789" lon="-4.73234">
        <ele>377.8</ele>
        <time>2020-08-16 14:09:32</time>
      </trkpt>
      <trkpt lat="39.97787" lon="-4.7324">
        <ele>377.8</ele>
        <time>2020-08-16 14:09:33</time>
      </trkpt>
      <trkpt lat="39.97786" lon="-4.73245">
        <ele>377.8</ele>
        <time>2020-08-16 14:09:34</time>
      </trkpt>
      <trkpt lat="39.97784" lon="-4.7325">
        <ele>377.8</ele>
        <time>2020-08-16 14:09:35</time>
      </trkpt>
      <trkpt lat="39.97783" lon="-4.73255">
        <ele>378</ele>
        <time>2020-08-16 14:09:36</time>
      </trkpt>
      <trkpt lat="39.97781" lon="-4.7326">
        <ele>378</ele>
        <time>2020-08-16 14:09:37</time>
      </trkpt>
      <trkpt lat="39.9778" lon="-4.73265">
        <ele>378.2</ele>
        <time>2020-08-16 14:09:38</time>
      </trkpt>
      <trkpt lat="39.97778" lon="-4.7327">
        <ele>378.2</ele>
        <time>2020-08-16 14:09:39</time>
      </trkpt>
      <trkpt lat="39.97776" lon="-4.73275">
        <ele>378.2</ele>
        <time>2020-08-16 14:09:40</time>
      </trkpt>
      <trkpt lat="39.97774" lon="-4.7328">
        <ele>378.2</ele>
        <time>2020-08-16 14:09:41</time>
      </trkpt>
      <trkpt lat="39.97773" lon="-4.73285">
        <ele>378.2</ele>
        <time>2020-08-16 14:09:42</time>
      </trkpt>
      <trkpt lat="39.97771" lon="-4.7329">
        <ele>378.2</ele>
        <time>2020-08-16 14:09:43</time>
      </trkpt>
      <trkpt lat="39.9777" lon="-4.73295">
        <ele>378.2</ele>
        <time>2020-08-16 14:09:44</time>
      </trkpt>
      <trkpt lat="39.97768" lon="-4.73301">
        <ele>378.2</ele>
        <time>2020-08-16 14:09:45</time>
      </trkpt>
      <trkpt lat="39.97766" lon="-4.73305">
        <ele>378.2</ele>
        <time>2020-08-16 14:09:46</time>
      </trkpt>
      <trkpt lat="39.97763" lon="-4.73316">
        <ele>378.2</ele>
        <time>2020-08-16 14:09:48</time>
      </trkpt>
      <trkpt lat="39.97761" lon="-4.73321">
        <ele>378.2</ele>
        <time>2020-08-16 14:09:49</time>
      </trkpt>
      <trkpt lat="39.9776" lon="-4.73326">
        <ele>378.2</ele>
        <time>2020-08-16 14:09:50</time>
      </trkpt>
      <trkpt lat="39.97759" lon="-4.73331">
        <ele>378.4</ele>
        <time>2020-08-16 14:09:51</time>
      </trkpt>
      <trkpt lat="39.97758" lon="-4.73336">
        <ele>378.4</ele>
        <time>2020-08-16 14:09:52</time>
      </trkpt>
      <trkpt lat="39.97758" lon="-4.73342">
        <ele>378.4</ele>
        <time>2020-08-16 14:09:53</time>
      </trkpt>
      <trkpt lat="39.97758" lon="-4.73347">
        <ele>378.4</ele>
        <time>2020-08-16 14:09:54</time>
      </trkpt>
      <trkpt lat="39.97757" lon="-4.73353">
        <ele>378.4</ele>
        <time>2020-08-16 14:09:55</time>
      </trkpt>
      <trkpt lat="39.97756" lon="-4.73359">
        <ele>378.4</ele>
        <time>2020-08-16 14:09:56</time>
      </trkpt>
      <trkpt lat="39.97751" lon="-4.73375">
        <ele>378.4</ele>
        <time>2020-08-16 14:09:59</time>
      </trkpt>
      <trkpt lat="39.97739" lon="-4.73423">
        <ele>378</ele>
        <time>2020-08-16 14:10:08</time>
      </trkpt>
      <trkpt lat="39.97738" lon="-4.73429">
        <ele>378</ele>
        <time>2020-08-16 14:10:09</time>
      </trkpt>
      <trkpt lat="39.97725" lon="-4.73459">
        <ele>377.8</ele>
        <time>2020-08-16 14:10:15</time>
      </trkpt>
      <trkpt lat="39.97723" lon="-4.73464">
        <ele>377.8</ele>
        <time>2020-08-16 14:10:16</time>
      </trkpt>
      <trkpt lat="39.97722" lon="-4.73469">
        <ele>377.8</ele>
        <time>2020-08-16 14:10:17</time>
      </trkpt>
      <trkpt lat="39.9772" lon="-4.73474">
        <ele>377.8</ele>
        <time>2020-08-16 14:10:18</time>
      </trkpt>
      <trkpt lat="39.97719" lon="-4.73479">
        <ele>377.8</ele>
        <time>2020-08-16 14:10:19</time>
      </trkpt>
      <trkpt lat="39.97717" lon="-4.73484">
        <ele>377.8</ele>
        <time>2020-08-16 14:10:20</time>
      </trkpt>
      <trkpt lat="39.97715" lon="-4.7349">
        <ele>378</ele>
        <time>2020-08-16 14:10:21</time>
      </trkpt>
      <trkpt lat="39.97714" lon="-4.73495">
        <ele>377.8</ele>
        <time>2020-08-16 14:10:22</time>
      </trkpt>
      <trkpt lat="39.97712" lon="-4.735">
        <ele>378.2</ele>
        <time>2020-08-16 14:10:23</time>
      </trkpt>
      <trkpt lat="39.9771" lon="-4.7351">
        <ele>378.2</ele>
        <time>2020-08-16 14:10:25</time>
      </trkpt>
      <trkpt lat="39.97709" lon="-4.73515">
        <ele>378.4</ele>
        <time>2020-08-16 14:10:26</time>
      </trkpt>
      <trkpt lat="39.97707" lon="-4.7352">
        <ele>378.6</ele>
        <time>2020-08-16 14:10:27</time>
      </trkpt>
      <trkpt lat="39.97706" lon="-4.73525">
        <ele>378.6</ele>
        <time>2020-08-16 14:10:28</time>
      </trkpt>
      <trkpt lat="39.97705" lon="-4.7353">
        <ele>378.6</ele>
        <time>2020-08-16 14:10:29</time>
      </trkpt>
      <trkpt lat="39.97704" lon="-4.73535">
        <ele>378.6</ele>
        <time>2020-08-16 14:10:30</time>
      </trkpt>
      <trkpt lat="39.97702" lon="-4.7354">
        <ele>378.6</ele>
        <time>2020-08-16 14:10:31</time>
      </trkpt>
      <trkpt lat="39.97701" lon="-4.73545">
        <ele>378.6</ele>
        <time>2020-08-16 14:10:32</time>
      </trkpt>
      <trkpt lat="39.97699" lon="-4.7355">
        <ele>378.6</ele>
        <time>2020-08-16 14:10:33</time>
      </trkpt>
      <trkpt lat="39.97697" lon="-4.73555">
        <ele>378.6</ele>
        <time>2020-08-16 14:10:34</time>
      </trkpt>
      <trkpt lat="39.97696" lon="-4.7356">
        <ele>378.6</ele>
        <time>2020-08-16 14:10:35</time>
      </trkpt>
      <trkpt lat="39.97694" lon="-4.73564">
        <ele>378.6</ele>
        <time>2020-08-16 14:10:36</time>
      </trkpt>
      <trkpt lat="39.97692" lon="-4.73569">
        <ele>378.6</ele>
        <time>2020-08-16 14:10:37</time>
      </trkpt>
      <trkpt lat="39.9769" lon="-4.73574">
        <ele>378.6</ele>
        <time>2020-08-16 14:10:38</time>
      </trkpt>
      <trkpt lat="39.97689" lon="-4.73578">
        <ele>378.4</ele>
        <time>2020-08-16 14:10:39</time>
      </trkpt>
      <trkpt lat="39.97687" lon="-4.73582">
        <ele>378.4</ele>
        <time>2020-08-16 14:10:40</time>
      </trkpt>
      <trkpt lat="39.97686" lon="-4.73587">
        <ele>378.6</ele>
        <time>2020-08-16 14:10:41</time>
      </trkpt>
      <trkpt lat="39.97684" lon="-4.73591">
        <ele>378.6</ele>
        <time>2020-08-16 14:10:42</time>
      </trkpt>
      <trkpt lat="39.97683" lon="-4.73595">
        <ele>378.8</ele>
        <time>2020-08-16 14:10:43</time>
      </trkpt>
      <trkpt lat="39.97682" lon="-4.73599">
        <ele>378.8</ele>
        <time>2020-08-16 14:10:44</time>
      </trkpt>
      <trkpt lat="39.9768" lon="-4.73606">
        <ele>378.8</ele>
        <time>2020-08-16 14:10:46</time>
      </trkpt>
      <trkpt lat="39.9768" lon="-4.7361">
        <ele>378.8</ele>
        <time>2020-08-16 14:10:47</time>
      </trkpt>
      <trkpt lat="39.97679" lon="-4.73613">
        <ele>378.6</ele>
        <time>2020-08-16 14:10:48</time>
      </trkpt>
      <trkpt lat="39.97679" lon="-4.73616">
        <ele>378.6</ele>
        <time>2020-08-16 14:10:49</time>
      </trkpt>
      <trkpt lat="39.97678" lon="-4.73619">
        <ele>378.6</ele>
        <time>2020-08-16 14:10:50</time>
      </trkpt>
      <trkpt lat="39.97678" lon="-4.73622">
        <ele>378.6</ele>
        <time>2020-08-16 14:10:51</time>
      </trkpt>
      <trkpt lat="39.97677" lon="-4.73626">
        <ele>378.6</ele>
        <time>2020-08-16 14:10:52</time>
      </trkpt>
      <trkpt lat="39.97676" lon="-4.73637">
        <ele>378.6</ele>
        <time>2020-08-16 14:10:55</time>
      </trkpt>
      <trkpt lat="39.97676" lon="-4.73642">
        <ele>378.6</ele>
        <time>2020-08-16 14:10:56</time>
      </trkpt>
      <trkpt lat="39.9767" lon="-4.73662">
        <ele>378.8</ele>
        <time>2020-08-16 14:11:01</time>
      </trkpt>
      <trkpt lat="39.97662" lon="-4.73688">
        <ele>379</ele>
        <time>2020-08-16 14:11:07</time>
      </trkpt>
      <trkpt lat="39.97659" lon="-4.73696">
        <ele>379</ele>
        <time>2020-08-16 14:11:09</time>
      </trkpt>
      <trkpt lat="39.97654" lon="-4.73714">
        <ele>379</ele>
        <time>2020-08-16 14:11:13</time>
      </trkpt>
      <trkpt lat="39.97653" lon="-4.73719">
        <ele>379</ele>
        <time>2020-08-16 14:11:14</time>
      </trkpt>
      <trkpt lat="39.97652" lon="-4.73735">
        <ele>379.2</ele>
        <time>2020-08-16 14:11:17</time>
      </trkpt>
      <trkpt lat="39.9765" lon="-4.73746">
        <ele>379.4</ele>
        <time>2020-08-16 14:11:19</time>
      </trkpt>
      <trkpt lat="39.97649" lon="-4.73751">
        <ele>379.4</ele>
        <time>2020-08-16 14:11:20</time>
      </trkpt>
      <trkpt lat="39.97644" lon="-4.73772">
        <ele>378.8</ele>
        <time>2020-08-16 14:11:24</time>
      </trkpt>
      <trkpt lat="39.97631" lon="-4.73819">
        <ele>378.6</ele>
        <time>2020-08-16 14:11:33</time>
      </trkpt>
      <trkpt lat="39.97629" lon="-4.73825">
        <ele>378.6</ele>
        <time>2020-08-16 14:11:34</time>
      </trkpt>
      <trkpt lat="39.97625" lon="-4.73842">
        <ele>378.4</ele>
        <time>2020-08-16 14:11:37</time>
      </trkpt>
      <trkpt lat="39.97623" lon="-4.73847">
        <ele>378.4</ele>
        <time>2020-08-16 14:11:38</time>
      </trkpt>
      <trkpt lat="39.97622" lon="-4.73853">
        <ele>378.4</ele>
        <time>2020-08-16 14:11:39</time>
      </trkpt>
      <trkpt lat="39.97611" lon="-4.73892">
        <ele>378.4</ele>
        <time>2020-08-16 14:11:46</time>
      </trkpt>
      <trkpt lat="39.97607" lon="-4.73909">
        <ele>379</ele>
        <time>2020-08-16 14:11:49</time>
      </trkpt>
      <trkpt lat="39.97605" lon="-4.7392">
        <ele>379.2</ele>
        <time>2020-08-16 14:11:51</time>
      </trkpt>
      <trkpt lat="39.97604" lon="-4.73926">
        <ele>379.2</ele>
        <time>2020-08-16 14:11:52</time>
      </trkpt>
      <trkpt lat="39.97603" lon="-4.73931">
        <ele>379.2</ele>
        <time>2020-08-16 14:11:53</time>
      </trkpt>
      <trkpt lat="39.97602" lon="-4.73936">
        <ele>379.2</ele>
        <time>2020-08-16 14:11:54</time>
      </trkpt>
      <trkpt lat="39.97601" lon="-4.73942">
        <ele>379.4</ele>
        <time>2020-08-16 14:11:55</time>
      </trkpt>
      <trkpt lat="39.976" lon="-4.73947">
        <ele>379.6</ele>
        <time>2020-08-16 14:11:56</time>
      </trkpt>
      <trkpt lat="39.97599" lon="-4.73951">
        <ele>379.6</ele>
        <time>2020-08-16 14:11:57</time>
      </trkpt>
      <trkpt lat="39.97598" lon="-4.73956">
        <ele>379.4</ele>
        <time>2020-08-16 14:11:58</time>
      </trkpt>
      <trkpt lat="39.97597" lon="-4.73961">
        <ele>379.4</ele>
        <time>2020-08-16 14:11:59</time>
      </trkpt>
      <trkpt lat="39.97596" lon="-4.73966">
        <ele>379.4</ele>
        <time>2020-08-16 14:12:00</time>
      </trkpt>
      <trkpt lat="39.97595" lon="-4.73971">
        <ele>379.6</ele>
        <time>2020-08-16 14:12:01</time>
      </trkpt>
      <trkpt lat="39.97593" lon="-4.73976">
        <ele>379.6</ele>
        <time>2020-08-16 14:12:02</time>
      </trkpt>
      <trkpt lat="39.97592" lon="-4.73982">
        <ele>379.8</ele>
        <time>2020-08-16 14:12:03</time>
      </trkpt>
      <trkpt lat="39.97591" lon="-4.73987">
        <ele>379.8</ele>
        <time>2020-08-16 14:12:04</time>
      </trkpt>
      <trkpt lat="39.9759" lon="-4.73992">
        <ele>380</ele>
        <time>2020-08-16 14:12:05</time>
      </trkpt>
      <trkpt lat="39.97589" lon="-4.73998">
        <ele>379.8</ele>
        <time>2020-08-16 14:12:06</time>
      </trkpt>
      <trkpt lat="39.97579" lon="-4.74033">
        <ele>379.6</ele>
        <time>2020-08-16 14:12:12</time>
      </trkpt>
      <trkpt lat="39.97578" lon="-4.74039">
        <ele>379.4</ele>
        <time>2020-08-16 14:12:13</time>
      </trkpt>
      <trkpt lat="39.97573" lon="-4.74071">
        <ele>378.2</ele>
        <time>2020-08-16 14:12:18</time>
      </trkpt>
      <trkpt lat="39.97569" lon="-4.74089">
        <ele>377.4</ele>
        <time>2020-08-16 14:12:21</time>
      </trkpt>
      <trkpt lat="39.97568" lon="-4.74095">
        <ele>377.4</ele>
        <time>2020-08-16 14:12:22</time>
      </trkpt>
      <trkpt lat="39.97566" lon="-4.741">
        <ele>377.4</ele>
        <time>2020-08-16 14:12:23</time>
      </trkpt>
      <trkpt lat="39.97564" lon="-4.74105">
        <ele>377.4</ele>
        <time>2020-08-16 14:12:24</time>
      </trkpt>
      <trkpt lat="39.97562" lon="-4.74111">
        <ele>377.4</ele>
        <time>2020-08-16 14:12:25</time>
      </trkpt>
      <trkpt lat="39.97561" lon="-4.74116">
        <ele>377.4</ele>
        <time>2020-08-16 14:12:26</time>
      </trkpt>
      <trkpt lat="39.97559" lon="-4.74121">
        <ele>377.4</ele>
        <time>2020-08-16 14:12:27</time>
      </trkpt>
      <trkpt lat="39.97558" lon="-4.74127">
        <ele>377.2</ele>
        <time>2020-08-16 14:12:28</time>
      </trkpt>
      <trkpt lat="39.97556" lon="-4.74132">
        <ele>377.2</ele>
        <time>2020-08-16 14:12:29</time>
      </trkpt>
      <trkpt lat="39.97555" lon="-4.74137">
        <ele>377.2</ele>
        <time>2020-08-16 14:12:30</time>
      </trkpt>
      <trkpt lat="39.97553" lon="-4.74142">
        <ele>377.2</ele>
        <time>2020-08-16 14:12:31</time>
      </trkpt>
      <trkpt lat="39.97551" lon="-4.74147">
        <ele>377.2</ele>
        <time>2020-08-16 14:12:32</time>
      </trkpt>
      <trkpt lat="39.9755" lon="-4.74153">
        <ele>377</ele>
        <time>2020-08-16 14:12:33</time>
      </trkpt>
      <trkpt lat="39.97549" lon="-4.74159">
        <ele>377</ele>
        <time>2020-08-16 14:12:34</time>
      </trkpt>
      <trkpt lat="39.97547" lon="-4.74164">
        <ele>377</ele>
        <time>2020-08-16 14:12:35</time>
      </trkpt>
      <trkpt lat="39.97546" lon="-4.74169">
        <ele>377</ele>
        <time>2020-08-16 14:12:36</time>
      </trkpt>
      <trkpt lat="39.97544" lon="-4.74174">
        <ele>377</ele>
        <time>2020-08-16 14:12:37</time>
      </trkpt>
      <trkpt lat="39.97543" lon="-4.74179">
        <ele>377</ele>
        <time>2020-08-16 14:12:38</time>
      </trkpt>
      <trkpt lat="39.97542" lon="-4.74184">
        <ele>377.2</ele>
        <time>2020-08-16 14:12:39</time>
      </trkpt>
      <trkpt lat="39.9754" lon="-4.7419">
        <ele>377.2</ele>
        <time>2020-08-16 14:12:40</time>
      </trkpt>
      <trkpt lat="39.97539" lon="-4.74195">
        <ele>377.2</ele>
        <time>2020-08-16 14:12:41</time>
      </trkpt>
      <trkpt lat="39.97538" lon="-4.742">
        <ele>377</ele>
        <time>2020-08-16 14:12:42</time>
      </trkpt>
      <trkpt lat="39.97536" lon="-4.74206">
        <ele>377</ele>
        <time>2020-08-16 14:12:43</time>
      </trkpt>
      <trkpt lat="39.97535" lon="-4.74211">
        <ele>377</ele>
        <time>2020-08-16 14:12:44</time>
      </trkpt>
      <trkpt lat="39.97534" lon="-4.74216">
        <ele>377</ele>
        <time>2020-08-16 14:12:45</time>
      </trkpt>
      <trkpt lat="39.97527" lon="-4.74251">
        <ele>377.2</ele>
        <time>2020-08-16 14:12:51</time>
      </trkpt>
      <trkpt lat="39.97522" lon="-4.74275">
        <ele>377.4</ele>
        <time>2020-08-16 14:12:55</time>
      </trkpt>
      <trkpt lat="39.97515" lon="-4.74299">
        <ele>377.2</ele>
        <time>2020-08-16 14:12:59</time>
      </trkpt>
      <trkpt lat="39.97507" lon="-4.74329">
        <ele>376.8</ele>
        <time>2020-08-16 14:13:04</time>
      </trkpt>
      <trkpt lat="39.97505" lon="-4.74341">
        <ele>377</ele>
        <time>2020-08-16 14:13:06</time>
      </trkpt>
      <trkpt lat="39.97504" lon="-4.74347">
        <ele>377</ele>
        <time>2020-08-16 14:13:07</time>
      </trkpt>
      <trkpt lat="39.97502" lon="-4.74353">
        <ele>377</ele>
        <time>2020-08-16 14:13:08</time>
      </trkpt>
      <trkpt lat="39.97501" lon="-4.74358">
        <ele>377</ele>
        <time>2020-08-16 14:13:09</time>
      </trkpt>
      <trkpt lat="39.975" lon="-4.74364">
        <ele>377.2</ele>
        <time>2020-08-16 14:13:10</time>
      </trkpt>
      <trkpt lat="39.97498" lon="-4.74369">
        <ele>377.2</ele>
        <time>2020-08-16 14:13:11</time>
      </trkpt>
      <trkpt lat="39.97497" lon="-4.74374">
        <ele>377.4</ele>
        <time>2020-08-16 14:13:12</time>
      </trkpt>
      <trkpt lat="39.97495" lon="-4.7438">
        <ele>377.4</ele>
        <time>2020-08-16 14:13:13</time>
      </trkpt>
      <trkpt lat="39.97494" lon="-4.74385">
        <ele>377.6</ele>
        <time>2020-08-16 14:13:14</time>
      </trkpt>
      <trkpt lat="39.97492" lon="-4.74391">
        <ele>378</ele>
        <time>2020-08-16 14:13:15</time>
      </trkpt>
      <trkpt lat="39.97491" lon="-4.74396">
        <ele>378.2</ele>
        <time>2020-08-16 14:13:16</time>
      </trkpt>
      <trkpt lat="39.9749" lon="-4.74401">
        <ele>378.2</ele>
        <time>2020-08-16 14:13:17</time>
      </trkpt>
      <trkpt lat="39.97488" lon="-4.74406">
        <ele>378.2</ele>
        <time>2020-08-16 14:13:18</time>
      </trkpt>
      <trkpt lat="39.97487" lon="-4.74412">
        <ele>378.2</ele>
        <time>2020-08-16 14:13:19</time>
      </trkpt>
      <trkpt lat="39.97486" lon="-4.74417">
        <ele>378.4</ele>
        <time>2020-08-16 14:13:20</time>
      </trkpt>
      <trkpt lat="39.97483" lon="-4.74428">
        <ele>378.2</ele>
        <time>2020-08-16 14:13:22</time>
      </trkpt>
      <trkpt lat="39.97482" lon="-4.74434">
        <ele>378.2</ele>
        <time>2020-08-16 14:13:23</time>
      </trkpt>
      <trkpt lat="39.9748" lon="-4.74439">
        <ele>378.2</ele>
        <time>2020-08-16 14:13:24</time>
      </trkpt>
      <trkpt lat="39.97479" lon="-4.74444">
        <ele>378.2</ele>
        <time>2020-08-16 14:13:25</time>
      </trkpt>
      <trkpt lat="39.97468" lon="-4.7449">
        <ele>378</ele>
        <time>2020-08-16 14:13:33</time>
      </trkpt>
      <trkpt lat="39.97457" lon="-4.74531">
        <ele>377.6</ele>
        <time>2020-08-16 14:13:40</time>
      </trkpt>
      <trkpt lat="39.97455" lon="-4.74542">
        <ele>377.2</ele>
        <time>2020-08-16 14:13:42</time>
      </trkpt>
      <trkpt lat="39.97454" lon="-4.74547">
        <ele>377.2</ele>
        <time>2020-08-16 14:13:43</time>
      </trkpt>
      <trkpt lat="39.97452" lon="-4.74552">
        <ele>377.2</ele>
        <time>2020-08-16 14:13:44</time>
      </trkpt>
      <trkpt lat="39.97451" lon="-4.74557">
        <ele>377.2</ele>
        <time>2020-08-16 14:13:45</time>
      </trkpt>
      <trkpt lat="39.9745" lon="-4.74562">
        <ele>377.2</ele>
        <time>2020-08-16 14:13:46</time>
      </trkpt>
      <trkpt lat="39.97449" lon="-4.74567">
        <ele>377.2</ele>
        <time>2020-08-16 14:13:47</time>
      </trkpt>
      <trkpt lat="39.97449" lon="-4.74572">
        <ele>377.2</ele>
        <time>2020-08-16 14:13:48</time>
      </trkpt>
      <trkpt lat="39.97448" lon="-4.74577">
        <ele>377</ele>
        <time>2020-08-16 14:13:49</time>
      </trkpt>
      <trkpt lat="39.97447" lon="-4.74582">
        <ele>377.2</ele>
        <time>2020-08-16 14:13:50</time>
      </trkpt>
      <trkpt lat="39.97445" lon="-4.74587">
        <ele>377</ele>
        <time>2020-08-16 14:13:51</time>
      </trkpt>
      <trkpt lat="39.97444" lon="-4.74592">
        <ele>377.2</ele>
        <time>2020-08-16 14:13:52</time>
      </trkpt>
      <trkpt lat="39.97443" lon="-4.74597">
        <ele>377</ele>
        <time>2020-08-16 14:13:53</time>
      </trkpt>
      <trkpt lat="39.97442" lon="-4.74601">
        <ele>377.2</ele>
        <time>2020-08-16 14:13:54</time>
      </trkpt>
      <trkpt lat="39.9744" lon="-4.74606">
        <ele>377.2</ele>
        <time>2020-08-16 14:13:55</time>
      </trkpt>
      <trkpt lat="39.97439" lon="-4.7461">
        <ele>377.2</ele>
        <time>2020-08-16 14:13:56</time>
      </trkpt>
      <trkpt lat="39.97438" lon="-4.74615">
        <ele>377.4</ele>
        <time>2020-08-16 14:13:57</time>
      </trkpt>
      <trkpt lat="39.97438" lon="-4.7462">
        <ele>377.4</ele>
        <time>2020-08-16 14:13:58</time>
      </trkpt>
      <trkpt lat="39.97436" lon="-4.74625">
        <ele>377.4</ele>
        <time>2020-08-16 14:13:59</time>
      </trkpt>
      <trkpt lat="39.97435" lon="-4.7463">
        <ele>377.4</ele>
        <time>2020-08-16 14:14:00</time>
      </trkpt>
      <trkpt lat="39.97434" lon="-4.74635">
        <ele>377.4</ele>
        <time>2020-08-16 14:14:01</time>
      </trkpt>
      <trkpt lat="39.9743" lon="-4.7465">
        <ele>377.4</ele>
        <time>2020-08-16 14:14:04</time>
      </trkpt>
      <trkpt lat="39.97429" lon="-4.74654">
        <ele>377.4</ele>
        <time>2020-08-16 14:14:05</time>
      </trkpt>
      <trkpt lat="39.97428" lon="-4.74659">
        <ele>377.2</ele>
        <time>2020-08-16 14:14:06</time>
      </trkpt>
      <trkpt lat="39.97426" lon="-4.74669">
        <ele>377.2</ele>
        <time>2020-08-16 14:14:08</time>
      </trkpt>
      <trkpt lat="39.97424" lon="-4.74675">
        <ele>377.2</ele>
        <time>2020-08-16 14:14:09</time>
      </trkpt>
      <trkpt lat="39.9742" lon="-4.74697">
        <ele>377.2</ele>
        <time>2020-08-16 14:14:13</time>
      </trkpt>
      <trkpt lat="39.97413" lon="-4.74723">
        <ele>377.4</ele>
        <time>2020-08-16 14:14:18</time>
      </trkpt>
      <trkpt lat="39.97409" lon="-4.74733">
        <ele>377.4</ele>
        <time>2020-08-16 14:14:20</time>
      </trkpt>
      <trkpt lat="39.97405" lon="-4.74743">
        <ele>377.4</ele>
        <time>2020-08-16 14:14:22</time>
      </trkpt>
      <trkpt lat="39.97403" lon="-4.74748">
        <ele>377.4</ele>
        <time>2020-08-16 14:14:23</time>
      </trkpt>
      <trkpt lat="39.97402" lon="-4.74753">
        <ele>377.4</ele>
        <time>2020-08-16 14:14:24</time>
      </trkpt>
      <trkpt lat="39.97401" lon="-4.74758">
        <ele>377.4</ele>
        <time>2020-08-16 14:14:25</time>
      </trkpt>
      <trkpt lat="39.974" lon="-4.74763">
        <ele>377.4</ele>
        <time>2020-08-16 14:14:26</time>
      </trkpt>
      <trkpt lat="39.97399" lon="-4.74768">
        <ele>377.4</ele>
        <time>2020-08-16 14:14:27</time>
      </trkpt>
      <trkpt lat="39.97398" lon="-4.74774">
        <ele>377.4</ele>
        <time>2020-08-16 14:14:28</time>
      </trkpt>
      <trkpt lat="39.97397" lon="-4.74779">
        <ele>377.4</ele>
        <time>2020-08-16 14:14:29</time>
      </trkpt>
      <trkpt lat="39.97395" lon="-4.74784">
        <ele>377.4</ele>
        <time>2020-08-16 14:14:30</time>
      </trkpt>
      <trkpt lat="39.97394" lon="-4.74788">
        <ele>377.4</ele>
        <time>2020-08-16 14:14:31</time>
      </trkpt>
      <trkpt lat="39.97392" lon="-4.74793">
        <ele>377.4</ele>
        <time>2020-08-16 14:14:32</time>
      </trkpt>
      <trkpt lat="39.97391" lon="-4.74797">
        <ele>377.4</ele>
        <time>2020-08-16 14:14:33</time>
      </trkpt>
      <trkpt lat="39.9739" lon="-4.74802">
        <ele>377.4</ele>
        <time>2020-08-16 14:14:34</time>
      </trkpt>
      <trkpt lat="39.97389" lon="-4.74806">
        <ele>377.2</ele>
        <time>2020-08-16 14:14:35</time>
      </trkpt>
      <trkpt lat="39.97388" lon="-4.74811">
        <ele>377.2</ele>
        <time>2020-08-16 14:14:36</time>
      </trkpt>
      <trkpt lat="39.97387" lon="-4.74816">
        <ele>377.2</ele>
        <time>2020-08-16 14:14:37</time>
      </trkpt>
      <trkpt lat="39.97386" lon="-4.74821">
        <ele>377.2</ele>
        <time>2020-08-16 14:14:38</time>
      </trkpt>
      <trkpt lat="39.97384" lon="-4.74826">
        <ele>377.2</ele>
        <time>2020-08-16 14:14:39</time>
      </trkpt>
      <trkpt lat="39.97383" lon="-4.74832">
        <ele>377.2</ele>
        <time>2020-08-16 14:14:40</time>
      </trkpt>
      <trkpt lat="39.97382" lon="-4.74836">
        <ele>377</ele>
        <time>2020-08-16 14:14:41</time>
      </trkpt>
      <trkpt lat="39.97374" lon="-4.7488">
        <ele>377</ele>
        <time>2020-08-16 14:14:49</time>
      </trkpt>
      <trkpt lat="39.97373" lon="-4.74886">
        <ele>377</ele>
        <time>2020-08-16 14:14:50</time>
      </trkpt>
      <trkpt lat="39.9737" lon="-4.74897">
        <ele>377.2</ele>
        <time>2020-08-16 14:14:52</time>
      </trkpt>
      <trkpt lat="39.97368" lon="-4.74915">
        <ele>377.4</ele>
        <time>2020-08-16 14:14:55</time>
      </trkpt>
      <trkpt lat="39.97367" lon="-4.74921">
        <ele>377.4</ele>
        <time>2020-08-16 14:14:56</time>
      </trkpt>
      <trkpt lat="39.97366" lon="-4.74927">
        <ele>377.4</ele>
        <time>2020-08-16 14:14:57</time>
      </trkpt>
      <trkpt lat="39.97365" lon="-4.74937">
        <ele>377.6</ele>
        <time>2020-08-16 14:14:59</time>
      </trkpt>
      <trkpt lat="39.97363" lon="-4.74943">
        <ele>377.6</ele>
        <time>2020-08-16 14:15:00</time>
      </trkpt>
      <trkpt lat="39.97359" lon="-4.7496">
        <ele>377.6</ele>
        <time>2020-08-16 14:15:03</time>
      </trkpt>
      <trkpt lat="39.97348" lon="-4.75006">
        <ele>377.2</ele>
        <time>2020-08-16 14:15:11</time>
      </trkpt>
      <trkpt lat="39.97346" lon="-4.75013">
        <ele>377.2</ele>
        <time>2020-08-16 14:15:12</time>
      </trkpt>
      <trkpt lat="39.97331" lon="-4.75076">
        <ele>376.8</ele>
        <time>2020-08-16 14:15:22</time>
      </trkpt>
      <trkpt lat="39.9733" lon="-4.75083">
        <ele>376.8</ele>
        <time>2020-08-16 14:15:23</time>
      </trkpt>
      <trkpt lat="39.97319" lon="-4.75129">
        <ele>376.6</ele>
        <time>2020-08-16 14:15:30</time>
      </trkpt>
      <trkpt lat="39.97317" lon="-4.75135">
        <ele>376.6</ele>
        <time>2020-08-16 14:15:31</time>
      </trkpt>
      <trkpt lat="39.97316" lon="-4.75141">
        <ele>376.6</ele>
        <time>2020-08-16 14:15:32</time>
      </trkpt>
      <trkpt lat="39.97314" lon="-4.75148">
        <ele>376.6</ele>
        <time>2020-08-16 14:15:33</time>
      </trkpt>
      <trkpt lat="39.97306" lon="-4.75187">
        <ele>376.2</ele>
        <time>2020-08-16 14:15:39</time>
      </trkpt>
      <trkpt lat="39.97304" lon="-4.75194">
        <ele>376.2</ele>
        <time>2020-08-16 14:15:40</time>
      </trkpt>
      <trkpt lat="39.97299" lon="-4.75218">
        <ele>376.2</ele>
        <time>2020-08-16 14:15:44</time>
      </trkpt>
      <trkpt lat="39.97298" lon="-4.75224">
        <ele>376</ele>
        <time>2020-08-16 14:15:45</time>
      </trkpt>
      <trkpt lat="39.97296" lon="-4.7523">
        <ele>376</ele>
        <time>2020-08-16 14:15:46</time>
      </trkpt>
      <trkpt lat="39.97295" lon="-4.75235">
        <ele>375.8</ele>
        <time>2020-08-16 14:15:47</time>
      </trkpt>
      <trkpt lat="39.97293" lon="-4.75246">
        <ele>375.8</ele>
        <time>2020-08-16 14:15:49</time>
      </trkpt>
      <trkpt lat="39.97292" lon="-4.75251">
        <ele>375.6</ele>
        <time>2020-08-16 14:15:50</time>
      </trkpt>
      <trkpt lat="39.97291" lon="-4.75255">
        <ele>375.6</ele>
        <time>2020-08-16 14:15:51</time>
      </trkpt>
      <trkpt lat="39.9729" lon="-4.75259">
        <ele>375.6</ele>
        <time>2020-08-16 14:15:53</time>
      </trkpt>
      <trkpt lat="39.97289" lon="-4.75262">
        <ele>375.6</ele>
        <time>2020-08-16 14:15:54</time>
      </trkpt>
      <trkpt lat="39.97289" lon="-4.75265">
        <ele>375.6</ele>
        <time>2020-08-16 14:15:55</time>
      </trkpt>
      <trkpt lat="39.97288" lon="-4.75269">
        <ele>375.6</ele>
        <time>2020-08-16 14:15:56</time>
      </trkpt>
      <trkpt lat="39.97287" lon="-4.75272">
        <ele>375.6</ele>
        <time>2020-08-16 14:15:57</time>
      </trkpt>
      <trkpt lat="39.97286" lon="-4.75276">
        <ele>375.6</ele>
        <time>2020-08-16 14:15:58</time>
      </trkpt>
      <trkpt lat="39.97282" lon="-4.75298">
        <ele>375.4</ele>
        <time>2020-08-16 14:16:03</time>
      </trkpt>
      <trkpt lat="39.97281" lon="-4.75301">
        <ele>375.2</ele>
        <time>2020-08-16 14:16:04</time>
      </trkpt>
      <trkpt lat="39.9728" lon="-4.75305">
        <ele>375.2</ele>
        <time>2020-08-16 14:16:05</time>
      </trkpt>
      <trkpt lat="39.97279" lon="-4.75309">
        <ele>375.2</ele>
        <time>2020-08-16 14:16:06</time>
      </trkpt>
      <trkpt lat="39.97278" lon="-4.75312">
        <ele>375</ele>
        <time>2020-08-16 14:16:07</time>
      </trkpt>
      <trkpt lat="39.97277" lon="-4.75316">
        <ele>375</ele>
        <time>2020-08-16 14:16:08</time>
      </trkpt>
      <trkpt lat="39.97276" lon="-4.75319">
        <ele>375</ele>
        <time>2020-08-16 14:16:09</time>
      </trkpt>
      <trkpt lat="39.97275" lon="-4.75322">
        <ele>374.6</ele>
        <time>2020-08-16 14:16:10</time>
      </trkpt>
      <trkpt lat="39.97273" lon="-4.75327">
        <ele>374.6</ele>
        <time>2020-08-16 14:16:11</time>
      </trkpt>
      <trkpt lat="39.97272" lon="-4.75331">
        <ele>374.6</ele>
        <time>2020-08-16 14:16:12</time>
      </trkpt>
      <trkpt lat="39.97271" lon="-4.75336">
        <ele>374.8</ele>
        <time>2020-08-16 14:16:13</time>
      </trkpt>
      <trkpt lat="39.9727" lon="-4.7534">
        <ele>374.8</ele>
        <time>2020-08-16 14:16:14</time>
      </trkpt>
      <trkpt lat="39.97263" lon="-4.75369">
        <ele>374.6</ele>
        <time>2020-08-16 14:16:22</time>
      </trkpt>
      <trkpt lat="39.97263" lon="-4.75372">
        <ele>374.6</ele>
        <time>2020-08-16 14:16:23</time>
      </trkpt>
      <trkpt lat="39.97262" lon="-4.75376">
        <ele>374.6</ele>
        <time>2020-08-16 14:16:24</time>
      </trkpt>
      <trkpt lat="39.97261" lon="-4.75379">
        <ele>374.6</ele>
        <time>2020-08-16 14:16:25</time>
      </trkpt>
      <trkpt lat="39.9726" lon="-4.75382">
        <ele>374.6</ele>
        <time>2020-08-16 14:16:26</time>
      </trkpt>
      <trkpt lat="39.97259" lon="-4.75386">
        <ele>374.6</ele>
        <time>2020-08-16 14:16:27</time>
      </trkpt>
      <trkpt lat="39.97259" lon="-4.7539">
        <ele>374.4</ele>
        <time>2020-08-16 14:16:28</time>
      </trkpt>
      <trkpt lat="39.97258" lon="-4.75394">
        <ele>374.6</ele>
        <time>2020-08-16 14:16:29</time>
      </trkpt>
      <trkpt lat="39.97257" lon="-4.75401">
        <ele>374.6</ele>
        <time>2020-08-16 14:16:31</time>
      </trkpt>
      <trkpt lat="39.97251" lon="-4.75422">
        <ele>374.4</ele>
        <time>2020-08-16 14:16:37</time>
      </trkpt>
      <trkpt lat="39.97248" lon="-4.75434">
        <ele>374.6</ele>
        <time>2020-08-16 14:16:40</time>
      </trkpt>
      <trkpt lat="39.97245" lon="-4.7545">
        <ele>374.4</ele>
        <time>2020-08-16 14:16:44</time>
      </trkpt>
      <trkpt lat="39.97236" lon="-4.75493">
        <ele>374.8</ele>
        <time>2020-08-16 14:16:54</time>
      </trkpt>
      <trkpt lat="39.97232" lon="-4.75512">
        <ele>374.6</ele>
        <time>2020-08-16 14:16:58</time>
      </trkpt>
      <trkpt lat="39.97228" lon="-4.75526">
        <ele>374.6</ele>
        <time>2020-08-16 14:17:01</time>
      </trkpt>
      <trkpt lat="39.97227" lon="-4.75531">
        <ele>374.6</ele>
        <time>2020-08-16 14:17:02</time>
      </trkpt>
      <trkpt lat="39.97218" lon="-4.75576">
        <ele>374.8</ele>
        <time>2020-08-16 14:17:11</time>
      </trkpt>
      <trkpt lat="39.97216" lon="-4.75586">
        <ele>374.8</ele>
        <time>2020-08-16 14:17:13</time>
      </trkpt>
      <trkpt lat="39.97215" lon="-4.75591">
        <ele>374.6</ele>
        <time>2020-08-16 14:17:14</time>
      </trkpt>
      <trkpt lat="39.97211" lon="-4.75605">
        <ele>374.8</ele>
        <time>2020-08-16 14:17:17</time>
      </trkpt>
      <trkpt lat="39.97209" lon="-4.7561">
        <ele>374.8</ele>
        <time>2020-08-16 14:17:18</time>
      </trkpt>
      <trkpt lat="39.97208" lon="-4.75615">
        <ele>374.8</ele>
        <time>2020-08-16 14:17:19</time>
      </trkpt>
      <trkpt lat="39.97207" lon="-4.7562">
        <ele>374.8</ele>
        <time>2020-08-16 14:17:20</time>
      </trkpt>
      <trkpt lat="39.97206" lon="-4.75625">
        <ele>374.6</ele>
        <time>2020-08-16 14:17:21</time>
      </trkpt>
      <trkpt lat="39.97206" lon="-4.7563">
        <ele>374.6</ele>
        <time>2020-08-16 14:17:22</time>
      </trkpt>
      <trkpt lat="39.97204" lon="-4.75635">
        <ele>374.8</ele>
        <time>2020-08-16 14:17:23</time>
      </trkpt>
      <trkpt lat="39.97203" lon="-4.7564">
        <ele>374.8</ele>
        <time>2020-08-16 14:17:24</time>
      </trkpt>
      <trkpt lat="39.97198" lon="-4.75659">
        <ele>374.4</ele>
        <time>2020-08-16 14:17:28</time>
      </trkpt>
      <trkpt lat="39.97197" lon="-4.75664">
        <ele>374.4</ele>
        <time>2020-08-16 14:17:29</time>
      </trkpt>
      <trkpt lat="39.97196" lon="-4.75668">
        <ele>374.2</ele>
        <time>2020-08-16 14:17:30</time>
      </trkpt>
      <trkpt lat="39.97196" lon="-4.75673">
        <ele>374.2</ele>
        <time>2020-08-16 14:17:31</time>
      </trkpt>
      <trkpt lat="39.97195" lon="-4.75678">
        <ele>374</ele>
        <time>2020-08-16 14:17:32</time>
      </trkpt>
      <trkpt lat="39.97194" lon="-4.75682">
        <ele>374</ele>
        <time>2020-08-16 14:17:33</time>
      </trkpt>
      <trkpt lat="39.97193" lon="-4.75687">
        <ele>374</ele>
        <time>2020-08-16 14:17:34</time>
      </trkpt>
      <trkpt lat="39.97192" lon="-4.75692">
        <ele>374</ele>
        <time>2020-08-16 14:17:35</time>
      </trkpt>
      <trkpt lat="39.9719" lon="-4.75697">
        <ele>374</ele>
        <time>2020-08-16 14:17:36</time>
      </trkpt>
      <trkpt lat="39.97189" lon="-4.75702">
        <ele>374</ele>
        <time>2020-08-16 14:17:37</time>
      </trkpt>
      <trkpt lat="39.97187" lon="-4.75706">
        <ele>373.8</ele>
        <time>2020-08-16 14:17:38</time>
      </trkpt>
      <trkpt lat="39.97185" lon="-4.75716">
        <ele>374</ele>
        <time>2020-08-16 14:17:40</time>
      </trkpt>
      <trkpt lat="39.97178" lon="-4.75751">
        <ele>374</ele>
        <time>2020-08-16 14:17:47</time>
      </trkpt>
      <trkpt lat="39.97166" lon="-4.75797">
        <ele>374.4</ele>
        <time>2020-08-16 14:17:56</time>
      </trkpt>
      <trkpt lat="39.97165" lon="-4.75801">
        <ele>374.4</ele>
        <time>2020-08-16 14:17:57</time>
      </trkpt>
      <trkpt lat="39.97164" lon="-4.75806">
        <ele>374.6</ele>
        <time>2020-08-16 14:17:58</time>
      </trkpt>
      <trkpt lat="39.97163" lon="-4.75811">
        <ele>374.6</ele>
        <time>2020-08-16 14:17:59</time>
      </trkpt>
      <trkpt lat="39.97161" lon="-4.75815">
        <ele>374.6</ele>
        <time>2020-08-16 14:18:00</time>
      </trkpt>
      <trkpt lat="39.9716" lon="-4.7582">
        <ele>374.6</ele>
        <time>2020-08-16 14:18:01</time>
      </trkpt>
      <trkpt lat="39.97158" lon="-4.75825">
        <ele>374.6</ele>
        <time>2020-08-16 14:18:02</time>
      </trkpt>
      <trkpt lat="39.97157" lon="-4.7583">
        <ele>374.6</ele>
        <time>2020-08-16 14:18:03</time>
      </trkpt>
      <trkpt lat="39.97155" lon="-4.75835">
        <ele>374.4</ele>
        <time>2020-08-16 14:18:04</time>
      </trkpt>
      <trkpt lat="39.97152" lon="-4.75846">
        <ele>374.6</ele>
        <time>2020-08-16 14:18:06</time>
      </trkpt>
      <trkpt lat="39.97151" lon="-4.7585">
        <ele>374.6</ele>
        <time>2020-08-16 14:18:07</time>
      </trkpt>
      <trkpt lat="39.97147" lon="-4.75876">
        <ele>375</ele>
        <time>2020-08-16 14:18:12</time>
      </trkpt>
      <trkpt lat="39.97146" lon="-4.7588">
        <ele>375</ele>
        <time>2020-08-16 14:18:13</time>
      </trkpt>
      <trkpt lat="39.97146" lon="-4.75885">
        <ele>375</ele>
        <time>2020-08-16 14:18:14</time>
      </trkpt>
      <trkpt lat="39.97145" lon="-4.75891">
        <ele>374.8</ele>
        <time>2020-08-16 14:18:15</time>
      </trkpt>
      <trkpt lat="39.97145" lon="-4.75896">
        <ele>374.8</ele>
        <time>2020-08-16 14:18:16</time>
      </trkpt>
      <trkpt lat="39.97145" lon="-4.75901">
        <ele>374.8</ele>
        <time>2020-08-16 14:18:17</time>
      </trkpt>
      <trkpt lat="39.97145" lon="-4.75906">
        <ele>374.6</ele>
        <time>2020-08-16 14:18:18</time>
      </trkpt>
      <trkpt lat="39.97146" lon="-4.75911">
        <ele>374.4</ele>
        <time>2020-08-16 14:18:19</time>
      </trkpt>
      <trkpt lat="39.97147" lon="-4.75916">
        <ele>374.2</ele>
        <time>2020-08-16 14:18:20</time>
      </trkpt>
      <trkpt lat="39.97148" lon="-4.75919">
        <ele>374.2</ele>
        <time>2020-08-16 14:18:21</time>
      </trkpt>
      <trkpt lat="39.97149" lon="-4.75921">
        <ele>374.2</ele>
        <time>2020-08-16 14:18:22</time>
      </trkpt>
      <trkpt lat="39.97151" lon="-4.75923">
        <ele>374</ele>
        <time>2020-08-16 14:18:23</time>
      </trkpt>
      <trkpt lat="39.97152" lon="-4.75925">
        <ele>374</ele>
        <time>2020-08-16 14:18:24</time>
      </trkpt>
      <trkpt lat="39.97153" lon="-4.75926">
        <ele>374.8</ele>
        <time>2020-08-16 14:18:25</time>
      </trkpt>
      <trkpt lat="39.97155" lon="-4.75928">
        <ele>374.8</ele>
        <time>2020-08-16 14:18:26</time>
      </trkpt>
      <trkpt lat="39.97156" lon="-4.7593">
        <ele>375.2</ele>
        <time>2020-08-16 14:18:27</time>
      </trkpt>
      <trkpt lat="39.97156" lon="-4.75933">
        <ele>375.2</ele>
        <time>2020-08-16 14:18:28</time>
      </trkpt>
      <trkpt lat="39.97156" lon="-4.75935">
        <ele>375.4</ele>
        <time>2020-08-16 14:18:29</time>
      </trkpt>
      <trkpt lat="39.97157" lon="-4.75938">
        <ele>375.6</ele>
        <time>2020-08-16 14:18:30</time>
      </trkpt>
      <trkpt lat="39.97157" lon="-4.7594">
        <ele>375.8</ele>
        <time>2020-08-16 14:18:31</time>
      </trkpt>
      <trkpt lat="39.97157" lon="-4.75943">
        <ele>376</ele>
        <time>2020-08-16 14:18:32</time>
      </trkpt>
      <trkpt lat="39.97157" lon="-4.75946">
        <ele>376.2</ele>
        <time>2020-08-16 14:18:33</time>
      </trkpt>
      <trkpt lat="39.97157" lon="-4.75948">
        <ele>376.4</ele>
        <time>2020-08-16 14:18:34</time>
      </trkpt>
      <trkpt lat="39.97157" lon="-4.7595">
        <ele>376.4</ele>
        <time>2020-08-16 14:18:35</time>
      </trkpt>
      <trkpt lat="39.97157" lon="-4.75952">
        <ele>376.4</ele>
        <time>2020-08-16 14:18:36</time>
      </trkpt>
      <trkpt lat="39.97157" lon="-4.75954">
        <ele>376.6</ele>
        <time>2020-08-16 14:18:37</time>
      </trkpt>
      <trkpt lat="39.97157" lon="-4.75956">
        <ele>376.6</ele>
        <time>2020-08-16 14:18:38</time>
      </trkpt>
      <trkpt lat="39.97157" lon="-4.75959">
        <ele>376.6</ele>
        <time>2020-08-16 14:18:39</time>
      </trkpt>
      <trkpt lat="39.97157" lon="-4.75963">
        <ele>376.8</ele>
        <time>2020-08-16 14:18:40</time>
      </trkpt>
      <trkpt lat="39.97156" lon="-4.75978">
        <ele>377.2</ele>
        <time>2020-08-16 14:18:44</time>
      </trkpt>
      <trkpt lat="39.97155" lon="-4.76005">
        <ele>377.4</ele>
        <time>2020-08-16 14:18:51</time>
      </trkpt>
      <trkpt lat="39.97155" lon="-4.76008">
        <ele>377.2</ele>
        <time>2020-08-16 14:18:52</time>
      </trkpt>
      <trkpt lat="39.97155" lon="-4.76012">
        <ele>377.2</ele>
        <time>2020-08-16 14:18:53</time>
      </trkpt>
      <trkpt lat="39.97155" lon="-4.76015">
        <ele>377.2</ele>
        <time>2020-08-16 14:18:54</time>
      </trkpt>
      <trkpt lat="39.97155" lon="-4.76018">
        <ele>377.2</ele>
        <time>2020-08-16 14:18:55</time>
      </trkpt>
      <trkpt lat="39.97155" lon="-4.76021">
        <ele>377.2</ele>
        <time>2020-08-16 14:18:56</time>
      </trkpt>
      <trkpt lat="39.97155" lon="-4.76023">
        <ele>377.2</ele>
        <time>2020-08-16 14:18:57</time>
      </trkpt>
      <trkpt lat="39.97155" lon="-4.76026">
        <ele>377.2</ele>
        <time>2020-08-16 14:18:58</time>
      </trkpt>
      <trkpt lat="39.97155" lon="-4.76029">
        <ele>377.2</ele>
        <time>2020-08-16 14:18:59</time>
      </trkpt>
      <trkpt lat="39.97156" lon="-4.7603">
        <ele>377.2</ele>
        <time>2020-08-16 14:19:00</time>
      </trkpt>
      <trkpt lat="39.97156" lon="-4.7603">
        <ele>377.2</ele>
        <time>2020-08-16 14:19:01</time>
      </trkpt>
      <trkpt lat="39.97156" lon="-4.7603">
        <ele>377.2</ele>
        <time>2020-08-16 14:19:02</time>
      </trkpt>
      <trkpt lat="39.97156" lon="-4.7603">
        <ele>377.2</ele>
        <time>2020-08-16 14:19:03</time>
      </trkpt>
      <trkpt lat="39.97156" lon="-4.7604">
        <ele>377</ele>
        <time>2020-08-16 14:19:15</time>
      </trkpt>
      <trkpt lat="39.97156" lon="-4.76042">
        <ele>376.8</ele>
        <time>2020-08-16 14:19:16</time>
      </trkpt>
      <trkpt lat="39.97156" lon="-4.76045">
        <ele>376.8</ele>
        <time>2020-08-16 14:19:17</time>
      </trkpt>
      <trkpt lat="39.97156" lon="-4.76048">
        <ele>376.8</ele>
        <time>2020-08-16 14:19:18</time>
      </trkpt>
      <trkpt lat="39.97157" lon="-4.7605">
        <ele>377</ele>
        <time>2020-08-16 14:19:19</time>
      </trkpt>
      <trkpt lat="39.97158" lon="-4.76057">
        <ele>377</ele>
        <time>2020-08-16 14:19:22</time>
      </trkpt>
      <trkpt lat="39.97158" lon="-4.76058">
        <ele>377</ele>
        <time>2020-08-16 14:19:23</time>
      </trkpt>
      <trkpt lat="39.97158" lon="-4.76058">
        <ele>377.2</ele>
        <time>2020-08-16 14:19:24</time>
      </trkpt>
      <trkpt lat="39.97158" lon="-4.76058">
        <ele>377.2</ele>
        <time>2020-08-16 14:19:26</time>
      </trkpt>
      <trkpt lat="39.97162" lon="-4.76075">
        <ele>377.2</ele>
        <time>2020-08-16 14:23:23</time>
      </trkpt>
      <trkpt lat="39.97162" lon="-4.76078">
        <ele>377.2</ele>
        <time>2020-08-16 14:23:24</time>
      </trkpt>
      <trkpt lat="39.97164" lon="-4.76093">
        <ele>377</ele>
        <time>2020-08-16 14:23:28</time>
      </trkpt>
      <trkpt lat="39.97166" lon="-4.76101">
        <ele>377</ele>
        <time>2020-08-16 14:23:30</time>
      </trkpt>
      <trkpt lat="39.97168" lon="-4.76113">
        <ele>377.2</ele>
        <time>2020-08-16 14:23:33</time>
      </trkpt>
      <trkpt lat="39.97172" lon="-4.76135">
        <ele>377</ele>
        <time>2020-08-16 14:23:38</time>
      </trkpt>
      <trkpt lat="39.97175" lon="-4.76148">
        <ele>377</ele>
        <time>2020-08-16 14:23:41</time>
      </trkpt>
      <trkpt lat="39.97176" lon="-4.76153">
        <ele>376.8</ele>
        <time>2020-08-16 14:23:42</time>
      </trkpt>
      <trkpt lat="39.97177" lon="-4.76157">
        <ele>377</ele>
        <time>2020-08-16 14:23:43</time>
      </trkpt>
      <trkpt lat="39.9718" lon="-4.76173">
        <ele>377</ele>
        <time>2020-08-16 14:23:47</time>
      </trkpt>
      <trkpt lat="39.97181" lon="-4.76177">
        <ele>377</ele>
        <time>2020-08-16 14:23:48</time>
      </trkpt>
      <trkpt lat="39.97182" lon="-4.7618">
        <ele>377</ele>
        <time>2020-08-16 14:23:49</time>
      </trkpt>
      <trkpt lat="39.97183" lon="-4.76184">
        <ele>377</ele>
        <time>2020-08-16 14:23:50</time>
      </trkpt>
      <trkpt lat="39.97183" lon="-4.76188">
        <ele>377</ele>
        <time>2020-08-16 14:23:51</time>
      </trkpt>
      <trkpt lat="39.97184" lon="-4.76192">
        <ele>377.2</ele>
        <time>2020-08-16 14:23:52</time>
      </trkpt>
      <trkpt lat="39.97185" lon="-4.76195">
        <ele>377.2</ele>
        <time>2020-08-16 14:23:53</time>
      </trkpt>
      <trkpt lat="39.97186" lon="-4.76199">
        <ele>377.2</ele>
        <time>2020-08-16 14:23:54</time>
      </trkpt>
      <trkpt lat="39.97187" lon="-4.76203">
        <ele>377.4</ele>
        <time>2020-08-16 14:23:55</time>
      </trkpt>
      <trkpt lat="39.97188" lon="-4.76211">
        <ele>377.4</ele>
        <time>2020-08-16 14:23:57</time>
      </trkpt>
      <trkpt lat="39.97189" lon="-4.76215">
        <ele>377.4</ele>
        <time>2020-08-16 14:23:58</time>
      </trkpt>
      <trkpt lat="39.97191" lon="-4.76228">
        <ele>377.6</ele>
        <time>2020-08-16 14:24:01</time>
      </trkpt>
      <trkpt lat="39.97193" lon="-4.7624">
        <ele>377.6</ele>
        <time>2020-08-16 14:24:04</time>
      </trkpt>
      <trkpt lat="39.97199" lon="-4.76271">
        <ele>377.8</ele>
        <time>2020-08-16 14:24:11</time>
      </trkpt>
      <trkpt lat="39.97204" lon="-4.76295">
        <ele>378.6</ele>
        <time>2020-08-16 14:24:16</time>
      </trkpt>
      <trkpt lat="39.97205" lon="-4.763">
        <ele>378.8</ele>
        <time>2020-08-16 14:24:17</time>
      </trkpt>
      <trkpt lat="39.97206" lon="-4.76305">
        <ele>379</ele>
        <time>2020-08-16 14:24:18</time>
      </trkpt>
      <trkpt lat="39.97207" lon="-4.7631">
        <ele>379</ele>
        <time>2020-08-16 14:24:19</time>
      </trkpt>
      <trkpt lat="39.97208" lon="-4.76315">
        <ele>379</ele>
        <time>2020-08-16 14:24:20</time>
      </trkpt>
      <trkpt lat="39.97209" lon="-4.7632">
        <ele>378.8</ele>
        <time>2020-08-16 14:24:21</time>
      </trkpt>
      <trkpt lat="39.97215" lon="-4.76345">
        <ele>377.6</ele>
        <time>2020-08-16 14:24:26</time>
      </trkpt>
      <trkpt lat="39.97215" lon="-4.7635">
        <ele>377.4</ele>
        <time>2020-08-16 14:24:27</time>
      </trkpt>
      <trkpt lat="39.97217" lon="-4.76359">
        <ele>377</ele>
        <time>2020-08-16 14:24:29</time>
      </trkpt>
      <trkpt lat="39.97218" lon="-4.76364">
        <ele>377</ele>
        <time>2020-08-16 14:24:30</time>
      </trkpt>
      <trkpt lat="39.97219" lon="-4.76369">
        <ele>377</ele>
        <time>2020-08-16 14:24:31</time>
      </trkpt>
      <trkpt lat="39.9722" lon="-4.76374">
        <ele>377</ele>
        <time>2020-08-16 14:24:32</time>
      </trkpt>
      <trkpt lat="39.97221" lon="-4.76379">
        <ele>377</ele>
        <time>2020-08-16 14:24:33</time>
      </trkpt>
      <trkpt lat="39.97223" lon="-4.76389">
        <ele>376.8</ele>
        <time>2020-08-16 14:24:35</time>
      </trkpt>
      <trkpt lat="39.97223" lon="-4.76393">
        <ele>376.8</ele>
        <time>2020-08-16 14:24:36</time>
      </trkpt>
      <trkpt lat="39.97224" lon="-4.76399">
        <ele>376.8</ele>
        <time>2020-08-16 14:24:37</time>
      </trkpt>
      <trkpt lat="39.97225" lon="-4.76403">
        <ele>376.8</ele>
        <time>2020-08-16 14:24:38</time>
      </trkpt>
      <trkpt lat="39.97226" lon="-4.76408">
        <ele>376.8</ele>
        <time>2020-08-16 14:24:39</time>
      </trkpt>
      <trkpt lat="39.97227" lon="-4.76413">
        <ele>376.8</ele>
        <time>2020-08-16 14:24:40</time>
      </trkpt>
      <trkpt lat="39.97228" lon="-4.76417">
        <ele>376.8</ele>
        <time>2020-08-16 14:24:41</time>
      </trkpt>
      <trkpt lat="39.97229" lon="-4.76422">
        <ele>376.8</ele>
        <time>2020-08-16 14:24:42</time>
      </trkpt>
      <trkpt lat="39.9723" lon="-4.76426">
        <ele>376.8</ele>
        <time>2020-08-16 14:24:43</time>
      </trkpt>
      <trkpt lat="39.97231" lon="-4.76431">
        <ele>376.8</ele>
        <time>2020-08-16 14:24:44</time>
      </trkpt>
      <trkpt lat="39.97232" lon="-4.76436">
        <ele>376.8</ele>
        <time>2020-08-16 14:24:45</time>
      </trkpt>
      <trkpt lat="39.97232" lon="-4.7644">
        <ele>376.8</ele>
        <time>2020-08-16 14:24:46</time>
      </trkpt>
      <trkpt lat="39.97233" lon="-4.76444">
        <ele>376.8</ele>
        <time>2020-08-16 14:24:47</time>
      </trkpt>
      <trkpt lat="39.97234" lon="-4.76448">
        <ele>376.6</ele>
        <time>2020-08-16 14:24:48</time>
      </trkpt>
      <trkpt lat="39.97235" lon="-4.76452">
        <ele>376.6</ele>
        <time>2020-08-16 14:24:49</time>
      </trkpt>
      <trkpt lat="39.97235" lon="-4.76456">
        <ele>376.6</ele>
        <time>2020-08-16 14:24:50</time>
      </trkpt>
      <trkpt lat="39.97236" lon="-4.76459">
        <ele>376.6</ele>
        <time>2020-08-16 14:24:51</time>
      </trkpt>
      <trkpt lat="39.97236" lon="-4.76461">
        <ele>376.6</ele>
        <time>2020-08-16 14:24:52</time>
      </trkpt>
      <trkpt lat="39.97236" lon="-4.76463">
        <ele>376.4</ele>
        <time>2020-08-16 14:24:53</time>
      </trkpt>
      <trkpt lat="39.97237" lon="-4.76465">
        <ele>376.4</ele>
        <time>2020-08-16 14:24:54</time>
      </trkpt>
      <trkpt lat="39.97237" lon="-4.76466">
        <ele>376.2</ele>
        <time>2020-08-16 14:24:55</time>
      </trkpt>
      <trkpt lat="39.97237" lon="-4.76467">
        <ele>376.2</ele>
        <time>2020-08-16 14:24:56</time>
      </trkpt>
      <trkpt lat="39.97237" lon="-4.76467">
        <ele>376.2</ele>
        <time>2020-08-16 14:24:58</time>
      </trkpt>
      <trkpt lat="39.97236" lon="-4.76466">
        <ele>376.2</ele>
        <time>2020-08-16 14:24:59</time>
      </trkpt>
      <trkpt lat="39.97236" lon="-4.76466">
        <ele>376.2</ele>
        <time>2020-08-16 14:25:00</time>
      </trkpt>
      <trkpt lat="39.97236" lon="-4.76466">
        <ele>376</ele>
        <time>2020-08-16 14:25:02</time>
      </trkpt>
      <trkpt lat="39.97229" lon="-4.76469">
        <ele>375.6</ele>
        <time>2020-08-16 14:25:09</time>
      </trkpt>
      <trkpt lat="39.97225" lon="-4.76471">
        <ele>375.6</ele>
        <time>2020-08-16 14:25:10</time>
      </trkpt>
      <trkpt lat="39.97222" lon="-4.76471">
        <ele>375.6</ele>
        <time>2020-08-16 14:25:11</time>
      </trkpt>
      <trkpt lat="39.97219" lon="-4.7647">
        <ele>375.4</ele>
        <time>2020-08-16 14:25:12</time>
      </trkpt>
      <trkpt lat="39.97216" lon="-4.76467">
        <ele>374.4</ele>
        <time>2020-08-16 14:25:13</time>
      </trkpt>
      <trkpt lat="39.97214" lon="-4.76465">
        <ele>373.8</ele>
        <time>2020-08-16 14:25:14</time>
      </trkpt>
      <trkpt lat="39.97211" lon="-4.76465">
        <ele>373</ele>
        <time>2020-08-16 14:25:15</time>
      </trkpt>
      <trkpt lat="39.97209" lon="-4.76467">
        <ele>372.6</ele>
        <time>2020-08-16 14:25:16</time>
      </trkpt>
      <trkpt lat="39.97207" lon="-4.7647">
        <ele>372.2</ele>
        <time>2020-08-16 14:25:17</time>
      </trkpt>
      <trkpt lat="39.97205" lon="-4.76473">
        <ele>371.2</ele>
        <time>2020-08-16 14:25:18</time>
      </trkpt>
      <trkpt lat="39.97203" lon="-4.7648">
        <ele>370.6</ele>
        <time>2020-08-16 14:25:20</time>
      </trkpt>
      <trkpt lat="39.97201" lon="-4.76483">
        <ele>370.4</ele>
        <time>2020-08-16 14:25:21</time>
      </trkpt>
      <trkpt lat="39.972" lon="-4.76487">
        <ele>370.4</ele>
        <time>2020-08-16 14:25:22</time>
      </trkpt>
      <trkpt lat="39.97199" lon="-4.76495">
        <ele>370.4</ele>
        <time>2020-08-16 14:25:24</time>
      </trkpt>
      <trkpt lat="39.97198" lon="-4.76499">
        <ele>370.4</ele>
        <time>2020-08-16 14:25:25</time>
      </trkpt>
      <trkpt lat="39.97196" lon="-4.76504">
        <ele>370.4</ele>
        <time>2020-08-16 14:25:26</time>
      </trkpt>
      <trkpt lat="39.97194" lon="-4.76508">
        <ele>370.4</ele>
        <time>2020-08-16 14:25:27</time>
      </trkpt>
      <trkpt lat="39.97189" lon="-4.76526">
        <ele>370.4</ele>
        <time>2020-08-16 14:25:31</time>
      </trkpt>
      <trkpt lat="39.97187" lon="-4.76535">
        <ele>370.4</ele>
        <time>2020-08-16 14:25:33</time>
      </trkpt>
      <trkpt lat="39.97186" lon="-4.7654">
        <ele>370.4</ele>
        <time>2020-08-16 14:25:34</time>
      </trkpt>
      <trkpt lat="39.97184" lon="-4.76572">
        <ele>370.6</ele>
        <time>2020-08-16 14:25:40</time>
      </trkpt>
      <trkpt lat="39.97184" lon="-4.76593">
        <ele>370.6</ele>
        <time>2020-08-16 14:25:44</time>
      </trkpt>
      <trkpt lat="39.97185" lon="-4.76598">
        <ele>370.6</ele>
        <time>2020-08-16 14:25:45</time>
      </trkpt>
      <trkpt lat="39.97186" lon="-4.76602">
        <ele>370.8</ele>
        <time>2020-08-16 14:25:46</time>
      </trkpt>
      <trkpt lat="39.97188" lon="-4.76606">
        <ele>370.8</ele>
        <time>2020-08-16 14:25:47</time>
      </trkpt>
      <trkpt lat="39.9719" lon="-4.7661">
        <ele>370.8</ele>
        <time>2020-08-16 14:25:48</time>
      </trkpt>
      <trkpt lat="39.97191" lon="-4.76614">
        <ele>370.8</ele>
        <time>2020-08-16 14:25:49</time>
      </trkpt>
      <trkpt lat="39.97192" lon="-4.76618">
        <ele>370.8</ele>
        <time>2020-08-16 14:25:50</time>
      </trkpt>
      <trkpt lat="39.97193" lon="-4.76622">
        <ele>370.8</ele>
        <time>2020-08-16 14:25:51</time>
      </trkpt>
      <trkpt lat="39.97194" lon="-4.76626">
        <ele>370.8</ele>
        <time>2020-08-16 14:25:52</time>
      </trkpt>
      <trkpt lat="39.97194" lon="-4.7663">
        <ele>370.8</ele>
        <time>2020-08-16 14:25:53</time>
      </trkpt>
      <trkpt lat="39.97194" lon="-4.76634">
        <ele>371.4</ele>
        <time>2020-08-16 14:25:54</time>
      </trkpt>
      <trkpt lat="39.97194" lon="-4.76637">
        <ele>371.6</ele>
        <time>2020-08-16 14:25:55</time>
      </trkpt>
      <trkpt lat="39.97193" lon="-4.76642">
        <ele>371.8</ele>
        <time>2020-08-16 14:25:56</time>
      </trkpt>
      <trkpt lat="39.97193" lon="-4.76647">
        <ele>372</ele>
        <time>2020-08-16 14:25:57</time>
      </trkpt>
      <trkpt lat="39.97192" lon="-4.76652">
        <ele>372</ele>
        <time>2020-08-16 14:25:58</time>
      </trkpt>
      <trkpt lat="39.97191" lon="-4.76657">
        <ele>372</ele>
        <time>2020-08-16 14:25:59</time>
      </trkpt>
      <trkpt lat="39.9719" lon="-4.76662">
        <ele>372.2</ele>
        <time>2020-08-16 14:26:00</time>
      </trkpt>
      <trkpt lat="39.97189" lon="-4.76667">
        <ele>372.2</ele>
        <time>2020-08-16 14:26:01</time>
      </trkpt>
      <trkpt lat="39.97188" lon="-4.76672">
        <ele>372.2</ele>
        <time>2020-08-16 14:26:02</time>
      </trkpt>
      <trkpt lat="39.97186" lon="-4.76676">
        <ele>372.2</ele>
        <time>2020-08-16 14:26:03</time>
      </trkpt>
      <trkpt lat="39.97176" lon="-4.76695">
        <ele>372.2</ele>
        <time>2020-08-16 14:26:07</time>
      </trkpt>
      <trkpt lat="39.97172" lon="-4.76705">
        <ele>372.2</ele>
        <time>2020-08-16 14:26:09</time>
      </trkpt>
      <trkpt lat="39.97169" lon="-4.76715">
        <ele>372.2</ele>
        <time>2020-08-16 14:26:11</time>
      </trkpt>
      <trkpt lat="39.97166" lon="-4.76736">
        <ele>372.2</ele>
        <time>2020-08-16 14:26:15</time>
      </trkpt>
      <trkpt lat="39.97164" lon="-4.76741">
        <ele>372.2</ele>
        <time>2020-08-16 14:26:16</time>
      </trkpt>
      <trkpt lat="39.97162" lon="-4.76746">
        <ele>372.2</ele>
        <time>2020-08-16 14:26:17</time>
      </trkpt>
      <trkpt lat="39.97161" lon="-4.76751">
        <ele>372.2</ele>
        <time>2020-08-16 14:26:18</time>
      </trkpt>
      <trkpt lat="39.97159" lon="-4.76756">
        <ele>372.2</ele>
        <time>2020-08-16 14:26:19</time>
      </trkpt>
      <trkpt lat="39.97157" lon="-4.7676">
        <ele>372.2</ele>
        <time>2020-08-16 14:26:20</time>
      </trkpt>
      <trkpt lat="39.97155" lon="-4.76765">
        <ele>372</ele>
        <time>2020-08-16 14:26:21</time>
      </trkpt>
      <trkpt lat="39.97144" lon="-4.76801">
        <ele>372.4</ele>
        <time>2020-08-16 14:26:28</time>
      </trkpt>
      <trkpt lat="39.97143" lon="-4.76806">
        <ele>372.2</ele>
        <time>2020-08-16 14:26:29</time>
      </trkpt>
      <trkpt lat="39.97141" lon="-4.76812">
        <ele>372.2</ele>
        <time>2020-08-16 14:26:30</time>
      </trkpt>
      <trkpt lat="39.9714" lon="-4.76817">
        <ele>372.2</ele>
        <time>2020-08-16 14:26:31</time>
      </trkpt>
      <trkpt lat="39.97131" lon="-4.76837">
        <ele>372.2</ele>
        <time>2020-08-16 14:26:35</time>
      </trkpt>
      <trkpt lat="39.9713" lon="-4.76843">
        <ele>372.2</ele>
        <time>2020-08-16 14:26:36</time>
      </trkpt>
      <trkpt lat="39.97127" lon="-4.76853">
        <ele>372.2</ele>
        <time>2020-08-16 14:26:38</time>
      </trkpt>
      <trkpt lat="39.97126" lon="-4.76859">
        <ele>372.2</ele>
        <time>2020-08-16 14:26:39</time>
      </trkpt>
      <trkpt lat="39.97124" lon="-4.7687">
        <ele>372.2</ele>
        <time>2020-08-16 14:26:41</time>
      </trkpt>
      <trkpt lat="39.97124" lon="-4.76875">
        <ele>372.2</ele>
        <time>2020-08-16 14:26:42</time>
      </trkpt>
      <trkpt lat="39.97123" lon="-4.7688">
        <ele>372.2</ele>
        <time>2020-08-16 14:26:43</time>
      </trkpt>
      <trkpt lat="39.97122" lon="-4.76885">
        <ele>372.2</ele>
        <time>2020-08-16 14:26:44</time>
      </trkpt>
      <trkpt lat="39.97121" lon="-4.7689">
        <ele>372.2</ele>
        <time>2020-08-16 14:26:45</time>
      </trkpt>
      <trkpt lat="39.9712" lon="-4.76896">
        <ele>372.2</ele>
        <time>2020-08-16 14:26:46</time>
      </trkpt>
      <trkpt lat="39.97119" lon="-4.769">
        <ele>372.2</ele>
        <time>2020-08-16 14:26:47</time>
      </trkpt>
      <trkpt lat="39.97117" lon="-4.76905">
        <ele>372.2</ele>
        <time>2020-08-16 14:26:48</time>
      </trkpt>
      <trkpt lat="39.97116" lon="-4.7691">
        <ele>372</ele>
        <time>2020-08-16 14:26:49</time>
      </trkpt>
      <trkpt lat="39.97115" lon="-4.76916">
        <ele>372</ele>
        <time>2020-08-16 14:26:50</time>
      </trkpt>
      <trkpt lat="39.97113" lon="-4.7692">
        <ele>372</ele>
        <time>2020-08-16 14:26:51</time>
      </trkpt>
      <trkpt lat="39.97112" lon="-4.76926">
        <ele>372.2</ele>
        <time>2020-08-16 14:26:52</time>
      </trkpt>
      <trkpt lat="39.9711" lon="-4.76931">
        <ele>372.2</ele>
        <time>2020-08-16 14:26:53</time>
      </trkpt>
      <trkpt lat="39.97104" lon="-4.76951">
        <ele>372.2</ele>
        <time>2020-08-16 14:26:57</time>
      </trkpt>
      <trkpt lat="39.97102" lon="-4.76956">
        <ele>372.2</ele>
        <time>2020-08-16 14:26:58</time>
      </trkpt>
      <trkpt lat="39.97099" lon="-4.7696">
        <ele>372.2</ele>
        <time>2020-08-16 14:26:59</time>
      </trkpt>
      <trkpt lat="39.97094" lon="-4.76969">
        <ele>372.2</ele>
        <time>2020-08-16 14:27:01</time>
      </trkpt>
      <trkpt lat="39.97092" lon="-4.76974">
        <ele>372.2</ele>
        <time>2020-08-16 14:27:02</time>
      </trkpt>
      <trkpt lat="39.97091" lon="-4.7698">
        <ele>372.2</ele>
        <time>2020-08-16 14:27:03</time>
      </trkpt>
      <trkpt lat="39.97088" lon="-4.76994">
        <ele>372.2</ele>
        <time>2020-08-16 14:27:06</time>
      </trkpt>
      <trkpt lat="39.97086" lon="-4.76999">
        <ele>372.2</ele>
        <time>2020-08-16 14:27:07</time>
      </trkpt>
      <trkpt lat="39.97084" lon="-4.77003">
        <ele>372.2</ele>
        <time>2020-08-16 14:27:08</time>
      </trkpt>
      <trkpt lat="39.97083" lon="-4.77008">
        <ele>372.2</ele>
        <time>2020-08-16 14:27:09</time>
      </trkpt>
      <trkpt lat="39.97081" lon="-4.77013">
        <ele>372.4</ele>
        <time>2020-08-16 14:27:10</time>
      </trkpt>
      <trkpt lat="39.9708" lon="-4.77018">
        <ele>372.4</ele>
        <time>2020-08-16 14:27:11</time>
      </trkpt>
      <trkpt lat="39.97078" lon="-4.77023">
        <ele>372.4</ele>
        <time>2020-08-16 14:27:12</time>
      </trkpt>
      <trkpt lat="39.97077" lon="-4.77027">
        <ele>372.4</ele>
        <time>2020-08-16 14:27:13</time>
      </trkpt>
      <trkpt lat="39.97075" lon="-4.77032">
        <ele>372.6</ele>
        <time>2020-08-16 14:27:14</time>
      </trkpt>
      <trkpt lat="39.97074" lon="-4.77038">
        <ele>372.4</ele>
        <time>2020-08-16 14:27:15</time>
      </trkpt>
      <trkpt lat="39.97064" lon="-4.77064">
        <ele>372.4</ele>
        <time>2020-08-16 14:27:20</time>
      </trkpt>
      <trkpt lat="39.97062" lon="-4.77069">
        <ele>372.4</ele>
        <time>2020-08-16 14:27:21</time>
      </trkpt>
      <trkpt lat="39.97044" lon="-4.77124">
        <ele>372.4</ele>
        <time>2020-08-16 14:27:31</time>
      </trkpt>
      <trkpt lat="39.97025" lon="-4.77182">
        <ele>372.4</ele>
        <time>2020-08-16 14:27:41</time>
      </trkpt>
      <trkpt lat="39.97006" lon="-4.77241">
        <ele>372.4</ele>
        <time>2020-08-16 14:27:51</time>
      </trkpt>
      <trkpt lat="39.96994" lon="-4.77277">
        <ele>372.2</ele>
        <time>2020-08-16 14:27:57</time>
      </trkpt>
      <trkpt lat="39.96992" lon="-4.77283">
        <ele>372.2</ele>
        <time>2020-08-16 14:27:58</time>
      </trkpt>
      <trkpt lat="39.9699" lon="-4.77288">
        <ele>372</ele>
        <time>2020-08-16 14:27:59</time>
      </trkpt>
      <trkpt lat="39.96988" lon="-4.77294">
        <ele>372</ele>
        <time>2020-08-16 14:28:00</time>
      </trkpt>
      <trkpt lat="39.96986" lon="-4.77299">
        <ele>372</ele>
        <time>2020-08-16 14:28:01</time>
      </trkpt>
      <trkpt lat="39.96984" lon="-4.77305">
        <ele>372</ele>
        <time>2020-08-16 14:28:02</time>
      </trkpt>
      <trkpt lat="39.96983" lon="-4.7731">
        <ele>372</ele>
        <time>2020-08-16 14:28:03</time>
      </trkpt>
      <trkpt lat="39.96981" lon="-4.77315">
        <ele>372</ele>
        <time>2020-08-16 14:28:04</time>
      </trkpt>
      <trkpt lat="39.96979" lon="-4.7732">
        <ele>372</ele>
        <time>2020-08-16 14:28:05</time>
      </trkpt>
      <trkpt lat="39.96978" lon="-4.77326">
        <ele>372</ele>
        <time>2020-08-16 14:28:06</time>
      </trkpt>
      <trkpt lat="39.96976" lon="-4.77331">
        <ele>371.8</ele>
        <time>2020-08-16 14:28:07</time>
      </trkpt>
      <trkpt lat="39.96975" lon="-4.77336">
        <ele>371.8</ele>
        <time>2020-08-16 14:28:08</time>
      </trkpt>
      <trkpt lat="39.96972" lon="-4.77341">
        <ele>371.8</ele>
        <time>2020-08-16 14:28:09</time>
      </trkpt>
      <trkpt lat="39.9697" lon="-4.77347">
        <ele>371.6</ele>
        <time>2020-08-16 14:28:10</time>
      </trkpt>
      <trkpt lat="39.96966" lon="-4.7736">
        <ele>371.6</ele>
        <time>2020-08-16 14:28:12</time>
      </trkpt>
      <trkpt lat="39.96964" lon="-4.77366">
        <ele>371.6</ele>
        <time>2020-08-16 14:28:13</time>
      </trkpt>
      <trkpt lat="39.96962" lon="-4.77372">
        <ele>371.6</ele>
        <time>2020-08-16 14:28:14</time>
      </trkpt>
      <trkpt lat="39.96961" lon="-4.77378">
        <ele>371.6</ele>
        <time>2020-08-16 14:28:15</time>
      </trkpt>
      <trkpt lat="39.96959" lon="-4.77384">
        <ele>371.6</ele>
        <time>2020-08-16 14:28:16</time>
      </trkpt>
      <trkpt lat="39.96957" lon="-4.77389">
        <ele>371.6</ele>
        <time>2020-08-16 14:28:17</time>
      </trkpt>
      <trkpt lat="39.96955" lon="-4.77394">
        <ele>371.6</ele>
        <time>2020-08-16 14:28:18</time>
      </trkpt>
      <trkpt lat="39.96953" lon="-4.77399">
        <ele>371.6</ele>
        <time>2020-08-16 14:28:19</time>
      </trkpt>
      <trkpt lat="39.96951" lon="-4.77404">
        <ele>371.6</ele>
        <time>2020-08-16 14:28:20</time>
      </trkpt>
      <trkpt lat="39.9695" lon="-4.77409">
        <ele>371.4</ele>
        <time>2020-08-16 14:28:21</time>
      </trkpt>
      <trkpt lat="39.96946" lon="-4.77419">
        <ele>371.4</ele>
        <time>2020-08-16 14:28:23</time>
      </trkpt>
      <trkpt lat="39.96944" lon="-4.77424">
        <ele>371.4</ele>
        <time>2020-08-16 14:28:24</time>
      </trkpt>
      <trkpt lat="39.96943" lon="-4.77429">
        <ele>371.2</ele>
        <time>2020-08-16 14:28:25</time>
      </trkpt>
      <trkpt lat="39.96941" lon="-4.77434">
        <ele>371</ele>
        <time>2020-08-16 14:28:26</time>
      </trkpt>
      <trkpt lat="39.96939" lon="-4.77439">
        <ele>371</ele>
        <time>2020-08-16 14:28:27</time>
      </trkpt>
      <trkpt lat="39.96938" lon="-4.77443">
        <ele>371</ele>
        <time>2020-08-16 14:28:28</time>
      </trkpt>
      <trkpt lat="39.96937" lon="-4.77447">
        <ele>371</ele>
        <time>2020-08-16 14:28:29</time>
      </trkpt>
      <trkpt lat="39.96936" lon="-4.77451">
        <ele>371</ele>
        <time>2020-08-16 14:28:30</time>
      </trkpt>
      <trkpt lat="39.96934" lon="-4.77455">
        <ele>371</ele>
        <time>2020-08-16 14:28:31</time>
      </trkpt>
      <trkpt lat="39.96933" lon="-4.7746">
        <ele>371</ele>
        <time>2020-08-16 14:28:32</time>
      </trkpt>
      <trkpt lat="39.96932" lon="-4.77464">
        <ele>371</ele>
        <time>2020-08-16 14:28:33</time>
      </trkpt>
      <trkpt lat="39.96931" lon="-4.77468">
        <ele>371</ele>
        <time>2020-08-16 14:28:34</time>
      </trkpt>
      <trkpt lat="39.96929" lon="-4.77472">
        <ele>371</ele>
        <time>2020-08-16 14:28:35</time>
      </trkpt>
      <trkpt lat="39.96928" lon="-4.77476">
        <ele>371</ele>
        <time>2020-08-16 14:28:36</time>
      </trkpt>
      <trkpt lat="39.96926" lon="-4.7748">
        <ele>371</ele>
        <time>2020-08-16 14:28:37</time>
      </trkpt>
      <trkpt lat="39.96925" lon="-4.77484">
        <ele>371</ele>
        <time>2020-08-16 14:28:38</time>
      </trkpt>
      <trkpt lat="39.96923" lon="-4.77487">
        <ele>371</ele>
        <time>2020-08-16 14:28:39</time>
      </trkpt>
      <trkpt lat="39.96921" lon="-4.77491">
        <ele>370.8</ele>
        <time>2020-08-16 14:28:40</time>
      </trkpt>
      <trkpt lat="39.9692" lon="-4.77496">
        <ele>370.8</ele>
        <time>2020-08-16 14:28:41</time>
      </trkpt>
      <trkpt lat="39.96919" lon="-4.775">
        <ele>370.8</ele>
        <time>2020-08-16 14:28:42</time>
      </trkpt>
      <trkpt lat="39.96916" lon="-4.7751">
        <ele>370.8</ele>
        <time>2020-08-16 14:28:44</time>
      </trkpt>
      <trkpt lat="39.96915" lon="-4.77514">
        <ele>370.8</ele>
        <time>2020-08-16 14:28:45</time>
      </trkpt>
      <trkpt lat="39.96901" lon="-4.77563">
        <ele>370.6</ele>
        <time>2020-08-16 14:28:55</time>
      </trkpt>
      <trkpt lat="39.96898" lon="-4.77574">
        <ele>370.6</ele>
        <time>2020-08-16 14:28:57</time>
      </trkpt>
      <trkpt lat="39.96897" lon="-4.77585">
        <ele>370.6</ele>
        <time>2020-08-16 14:28:59</time>
      </trkpt>
      <trkpt lat="39.96896" lon="-4.77591">
        <ele>370.6</ele>
        <time>2020-08-16 14:29:00</time>
      </trkpt>
      <trkpt lat="39.96895" lon="-4.77596">
        <ele>370.6</ele>
        <time>2020-08-16 14:29:01</time>
      </trkpt>
      <trkpt lat="39.96893" lon="-4.77601">
        <ele>370.6</ele>
        <time>2020-08-16 14:29:02</time>
      </trkpt>
      <trkpt lat="39.96892" lon="-4.77605">
        <ele>370.8</ele>
        <time>2020-08-16 14:29:03</time>
      </trkpt>
      <trkpt lat="39.96891" lon="-4.77609">
        <ele>370.8</ele>
        <time>2020-08-16 14:29:04</time>
      </trkpt>
      <trkpt lat="39.96887" lon="-4.77624">
        <ele>371.6</ele>
        <time>2020-08-16 14:29:07</time>
      </trkpt>
      <trkpt lat="39.96886" lon="-4.7763">
        <ele>371.8</ele>
        <time>2020-08-16 14:29:08</time>
      </trkpt>
      <trkpt lat="39.96884" lon="-4.77635">
        <ele>371.8</ele>
        <time>2020-08-16 14:29:09</time>
      </trkpt>
      <trkpt lat="39.96883" lon="-4.7764">
        <ele>372</ele>
        <time>2020-08-16 14:29:10</time>
      </trkpt>
      <trkpt lat="39.96882" lon="-4.77645">
        <ele>372</ele>
        <time>2020-08-16 14:29:11</time>
      </trkpt>
      <trkpt lat="39.96881" lon="-4.7765">
        <ele>372</ele>
        <time>2020-08-16 14:29:12</time>
      </trkpt>
      <trkpt lat="39.9688" lon="-4.77654">
        <ele>372</ele>
        <time>2020-08-16 14:29:13</time>
      </trkpt>
      <trkpt lat="39.96879" lon="-4.77658">
        <ele>372.4</ele>
        <time>2020-08-16 14:29:14</time>
      </trkpt>
      <trkpt lat="39.96878" lon="-4.77662">
        <ele>372.6</ele>
        <time>2020-08-16 14:29:15</time>
      </trkpt>
      <trkpt lat="39.96877" lon="-4.77666">
        <ele>372.6</ele>
        <time>2020-08-16 14:29:16</time>
      </trkpt>
      <trkpt lat="39.96876" lon="-4.77671">
        <ele>372.8</ele>
        <time>2020-08-16 14:29:17</time>
      </trkpt>
      <trkpt lat="39.96874" lon="-4.77675">
        <ele>372.8</ele>
        <time>2020-08-16 14:29:18</time>
      </trkpt>
      <trkpt lat="39.96873" lon="-4.77679">
        <ele>372.8</ele>
        <time>2020-08-16 14:29:19</time>
      </trkpt>
      <trkpt lat="39.96872" lon="-4.77683">
        <ele>373</ele>
        <time>2020-08-16 14:29:20</time>
      </trkpt>
      <trkpt lat="39.9687" lon="-4.77686">
        <ele>373</ele>
        <time>2020-08-16 14:29:21</time>
      </trkpt>
      <trkpt lat="39.96869" lon="-4.77689">
        <ele>373.2</ele>
        <time>2020-08-16 14:29:22</time>
      </trkpt>
      <trkpt lat="39.96868" lon="-4.77692">
        <ele>373.2</ele>
        <time>2020-08-16 14:29:23</time>
      </trkpt>
      <trkpt lat="39.96866" lon="-4.77694">
        <ele>373.2</ele>
        <time>2020-08-16 14:29:24</time>
      </trkpt>
      <trkpt lat="39.9686" lon="-4.7771">
        <ele>373.4</ele>
        <time>2020-08-16 14:29:27</time>
      </trkpt>
      <trkpt lat="39.96858" lon="-4.77718">
        <ele>373.4</ele>
        <time>2020-08-16 14:29:28</time>
      </trkpt>
      <trkpt lat="39.96847" lon="-4.77759">
        <ele>372.6</ele>
        <time>2020-08-16 14:29:33</time>
      </trkpt>
      <trkpt lat="39.96845" lon="-4.77766">
        <ele>372.4</ele>
        <time>2020-08-16 14:29:34</time>
      </trkpt>
      <trkpt lat="39.96843" lon="-4.77773">
        <ele>372.2</ele>
        <time>2020-08-16 14:29:35</time>
      </trkpt>
      <trkpt lat="39.96842" lon="-4.7778">
        <ele>371.8</ele>
        <time>2020-08-16 14:29:36</time>
      </trkpt>
      <trkpt lat="39.9684" lon="-4.77787">
        <ele>371.4</ele>
        <time>2020-08-16 14:29:37</time>
      </trkpt>
      <trkpt lat="39.96839" lon="-4.77793">
        <ele>371.2</ele>
        <time>2020-08-16 14:29:38</time>
      </trkpt>
      <trkpt lat="39.96838" lon="-4.778">
        <ele>371.2</ele>
        <time>2020-08-16 14:29:39</time>
      </trkpt>
      <trkpt lat="39.96836" lon="-4.77814">
        <ele>371.2</ele>
        <time>2020-08-16 14:29:41</time>
      </trkpt>
      <trkpt lat="39.96836" lon="-4.77821">
        <ele>371.2</ele>
        <time>2020-08-16 14:29:42</time>
      </trkpt>
      <trkpt lat="39.96835" lon="-4.77828">
        <ele>371.2</ele>
        <time>2020-08-16 14:29:43</time>
      </trkpt>
      <trkpt lat="39.96834" lon="-4.77835">
        <ele>371.2</ele>
        <time>2020-08-16 14:29:44</time>
      </trkpt>
      <trkpt lat="39.96833" lon="-4.77843">
        <ele>371.2</ele>
        <time>2020-08-16 14:29:45</time>
      </trkpt>
      <trkpt lat="39.96831" lon="-4.7785">
        <ele>371.2</ele>
        <time>2020-08-16 14:29:46</time>
      </trkpt>
      <trkpt lat="39.96825" lon="-4.77871">
        <ele>371.4</ele>
        <time>2020-08-16 14:29:49</time>
      </trkpt>
      <trkpt lat="39.96818" lon="-4.77898">
        <ele>371.4</ele>
        <time>2020-08-16 14:29:53</time>
      </trkpt>
      <trkpt lat="39.96817" lon="-4.77905">
        <ele>371.4</ele>
        <time>2020-08-16 14:29:54</time>
      </trkpt>
      <trkpt lat="39.96817" lon="-4.77912">
        <ele>371.4</ele>
        <time>2020-08-16 14:29:55</time>
      </trkpt>
      <trkpt lat="39.96816" lon="-4.77919">
        <ele>371.4</ele>
        <time>2020-08-16 14:29:56</time>
      </trkpt>
      <trkpt lat="39.96814" lon="-4.77926">
        <ele>371.4</ele>
        <time>2020-08-16 14:29:57</time>
      </trkpt>
      <trkpt lat="39.96812" lon="-4.77932">
        <ele>371.4</ele>
        <time>2020-08-16 14:29:58</time>
      </trkpt>
      <trkpt lat="39.96811" lon="-4.77938">
        <ele>371.6</ele>
        <time>2020-08-16 14:29:59</time>
      </trkpt>
      <trkpt lat="39.96809" lon="-4.77944">
        <ele>371.6</ele>
        <time>2020-08-16 14:30:00</time>
      </trkpt>
      <trkpt lat="39.96807" lon="-4.7795">
        <ele>371.6</ele>
        <time>2020-08-16 14:30:01</time>
      </trkpt>
      <trkpt lat="39.96806" lon="-4.77956">
        <ele>371.6</ele>
        <time>2020-08-16 14:30:02</time>
      </trkpt>
      <trkpt lat="39.96804" lon="-4.77962">
        <ele>371.6</ele>
        <time>2020-08-16 14:30:03</time>
      </trkpt>
      <trkpt lat="39.96803" lon="-4.77969">
        <ele>371.8</ele>
        <time>2020-08-16 14:30:04</time>
      </trkpt>
      <trkpt lat="39.96801" lon="-4.77975">
        <ele>371.8</ele>
        <time>2020-08-16 14:30:05</time>
      </trkpt>
      <trkpt lat="39.968" lon="-4.77981">
        <ele>371.8</ele>
        <time>2020-08-16 14:30:06</time>
      </trkpt>
      <trkpt lat="39.96798" lon="-4.77987">
        <ele>371.8</ele>
        <time>2020-08-16 14:30:07</time>
      </trkpt>
      <trkpt lat="39.96797" lon="-4.77994">
        <ele>372</ele>
        <time>2020-08-16 14:30:08</time>
      </trkpt>
      <trkpt lat="39.9678" lon="-4.78051">
        <ele>372</ele>
        <time>2020-08-16 14:30:17</time>
      </trkpt>
      <trkpt lat="39.96765" lon="-4.78112">
        <ele>371.8</ele>
        <time>2020-08-16 14:30:26</time>
      </trkpt>
      <trkpt lat="39.96765" lon="-4.78119">
        <ele>371.8</ele>
        <time>2020-08-16 14:30:27</time>
      </trkpt>
      <trkpt lat="39.96764" lon="-4.78126">
        <ele>371.6</ele>
        <time>2020-08-16 14:30:28</time>
      </trkpt>
      <trkpt lat="39.96764" lon="-4.78133">
        <ele>371.6</ele>
        <time>2020-08-16 14:30:29</time>
      </trkpt>
      <trkpt lat="39.96762" lon="-4.78147">
        <ele>371.6</ele>
        <time>2020-08-16 14:30:31</time>
      </trkpt>
      <trkpt lat="39.96761" lon="-4.78154">
        <ele>371.6</ele>
        <time>2020-08-16 14:30:32</time>
      </trkpt>
      <trkpt lat="39.96761" lon="-4.78161">
        <ele>371.6</ele>
        <time>2020-08-16 14:30:33</time>
      </trkpt>
      <trkpt lat="39.96759" lon="-4.78168">
        <ele>371.6</ele>
        <time>2020-08-16 14:30:34</time>
      </trkpt>
      <trkpt lat="39.96758" lon="-4.78174">
        <ele>371.6</ele>
        <time>2020-08-16 14:30:35</time>
      </trkpt>
      <trkpt lat="39.96756" lon="-4.7818">
        <ele>371.6</ele>
        <time>2020-08-16 14:30:36</time>
      </trkpt>
      <trkpt lat="39.96751" lon="-4.78193">
        <ele>371.6</ele>
        <time>2020-08-16 14:30:38</time>
      </trkpt>
      <trkpt lat="39.96736" lon="-4.78242">
        <ele>371.6</ele>
        <time>2020-08-16 14:30:45</time>
      </trkpt>
      <trkpt lat="39.9673" lon="-4.78261">
        <ele>371.6</ele>
        <time>2020-08-16 14:30:48</time>
      </trkpt>
      <trkpt lat="39.96727" lon="-4.78268">
        <ele>371.4</ele>
        <time>2020-08-16 14:30:49</time>
      </trkpt>
      <trkpt lat="39.96725" lon="-4.78274">
        <ele>371.4</ele>
        <time>2020-08-16 14:30:50</time>
      </trkpt>
      <trkpt lat="39.96722" lon="-4.7828">
        <ele>371.4</ele>
        <time>2020-08-16 14:30:51</time>
      </trkpt>
      <trkpt lat="39.9672" lon="-4.78286">
        <ele>371.4</ele>
        <time>2020-08-16 14:30:52</time>
      </trkpt>
      <trkpt lat="39.96717" lon="-4.78292">
        <ele>371.4</ele>
        <time>2020-08-16 14:30:53</time>
      </trkpt>
      <trkpt lat="39.96714" lon="-4.78298">
        <ele>371.4</ele>
        <time>2020-08-16 14:30:54</time>
      </trkpt>
      <trkpt lat="39.96711" lon="-4.78303">
        <ele>371.4</ele>
        <time>2020-08-16 14:30:55</time>
      </trkpt>
      <trkpt lat="39.96709" lon="-4.78309">
        <ele>371.4</ele>
        <time>2020-08-16 14:30:56</time>
      </trkpt>
      <trkpt lat="39.96706" lon="-4.78315">
        <ele>371.4</ele>
        <time>2020-08-16 14:30:57</time>
      </trkpt>
      <trkpt lat="39.96704" lon="-4.78322">
        <ele>371.4</ele>
        <time>2020-08-16 14:30:58</time>
      </trkpt>
      <trkpt lat="39.96701" lon="-4.78328">
        <ele>371.4</ele>
        <time>2020-08-16 14:30:59</time>
      </trkpt>
      <trkpt lat="39.96699" lon="-4.78334">
        <ele>371.4</ele>
        <time>2020-08-16 14:31:00</time>
      </trkpt>
      <trkpt lat="39.96697" lon="-4.7834">
        <ele>371.4</ele>
        <time>2020-08-16 14:31:01</time>
      </trkpt>
      <trkpt lat="39.96695" lon="-4.78346">
        <ele>371.6</ele>
        <time>2020-08-16 14:31:02</time>
      </trkpt>
      <trkpt lat="39.96686" lon="-4.78387">
        <ele>372</ele>
        <time>2020-08-16 14:31:08</time>
      </trkpt>
      <trkpt lat="39.96685" lon="-4.78394">
        <ele>372</ele>
        <time>2020-08-16 14:31:09</time>
      </trkpt>
      <trkpt lat="39.96683" lon="-4.784">
        <ele>372</ele>
        <time>2020-08-16 14:31:10</time>
      </trkpt>
      <trkpt lat="39.96682" lon="-4.78406">
        <ele>372</ele>
        <time>2020-08-16 14:31:11</time>
      </trkpt>
      <trkpt lat="39.96681" lon="-4.78413">
        <ele>372</ele>
        <time>2020-08-16 14:31:12</time>
      </trkpt>
      <trkpt lat="39.9668" lon="-4.78419">
        <ele>372</ele>
        <time>2020-08-16 14:31:13</time>
      </trkpt>
      <trkpt lat="39.96679" lon="-4.78425">
        <ele>372</ele>
        <time>2020-08-16 14:31:14</time>
      </trkpt>
      <trkpt lat="39.96678" lon="-4.78431">
        <ele>372</ele>
        <time>2020-08-16 14:31:15</time>
      </trkpt>
      <trkpt lat="39.96677" lon="-4.78437">
        <ele>372</ele>
        <time>2020-08-16 14:31:16</time>
      </trkpt>
      <trkpt lat="39.96676" lon="-4.78442">
        <ele>371.8</ele>
        <time>2020-08-16 14:31:17</time>
      </trkpt>
      <trkpt lat="39.96674" lon="-4.78448">
        <ele>371.8</ele>
        <time>2020-08-16 14:31:18</time>
      </trkpt>
      <trkpt lat="39.96673" lon="-4.78454">
        <ele>371.8</ele>
        <time>2020-08-16 14:31:19</time>
      </trkpt>
      <trkpt lat="39.96672" lon="-4.78461">
        <ele>371.8</ele>
        <time>2020-08-16 14:31:20</time>
      </trkpt>
      <trkpt lat="39.96671" lon="-4.78467">
        <ele>371.8</ele>
        <time>2020-08-16 14:31:21</time>
      </trkpt>
      <trkpt lat="39.9667" lon="-4.78473">
        <ele>371.8</ele>
        <time>2020-08-16 14:31:22</time>
      </trkpt>
      <trkpt lat="39.96669" lon="-4.78479">
        <ele>371.8</ele>
        <time>2020-08-16 14:31:23</time>
      </trkpt>
      <trkpt lat="39.96668" lon="-4.78485">
        <ele>372</ele>
        <time>2020-08-16 14:31:24</time>
      </trkpt>
      <trkpt lat="39.96662" lon="-4.7852">
        <ele>372</ele>
        <time>2020-08-16 14:31:29</time>
      </trkpt>
      <trkpt lat="39.96661" lon="-4.78526">
        <ele>372</ele>
        <time>2020-08-16 14:31:30</time>
      </trkpt>
      <trkpt lat="39.9666" lon="-4.78533">
        <ele>372</ele>
        <time>2020-08-16 14:31:31</time>
      </trkpt>
      <trkpt lat="39.96655" lon="-4.78565">
        <ele>372</ele>
        <time>2020-08-16 14:31:36</time>
      </trkpt>
      <trkpt lat="39.96653" lon="-4.78571">
        <ele>371.8</ele>
        <time>2020-08-16 14:31:37</time>
      </trkpt>
      <trkpt lat="39.96652" lon="-4.78577">
        <ele>371.8</ele>
        <time>2020-08-16 14:31:38</time>
      </trkpt>
      <trkpt lat="39.96651" lon="-4.78583">
        <ele>371.6</ele>
        <time>2020-08-16 14:31:39</time>
      </trkpt>
      <trkpt lat="39.9665" lon="-4.78589">
        <ele>371.6</ele>
        <time>2020-08-16 14:31:40</time>
      </trkpt>
      <trkpt lat="39.96649" lon="-4.78595">
        <ele>371.6</ele>
        <time>2020-08-16 14:31:41</time>
      </trkpt>
      <trkpt lat="39.96648" lon="-4.78602">
        <ele>371.4</ele>
        <time>2020-08-16 14:31:42</time>
      </trkpt>
      <trkpt lat="39.96647" lon="-4.78608">
        <ele>371.4</ele>
        <time>2020-08-16 14:31:43</time>
      </trkpt>
      <trkpt lat="39.96646" lon="-4.78614">
        <ele>371.4</ele>
        <time>2020-08-16 14:31:44</time>
      </trkpt>
      <trkpt lat="39.96645" lon="-4.7862">
        <ele>371.6</ele>
        <time>2020-08-16 14:31:45</time>
      </trkpt>
      <trkpt lat="39.96644" lon="-4.78626">
        <ele>371.6</ele>
        <time>2020-08-16 14:31:46</time>
      </trkpt>
      <trkpt lat="39.96643" lon="-4.78632">
        <ele>371.4</ele>
        <time>2020-08-16 14:31:47</time>
      </trkpt>
      <trkpt lat="39.96642" lon="-4.78638">
        <ele>371.4</ele>
        <time>2020-08-16 14:31:48</time>
      </trkpt>
      <trkpt lat="39.96641" lon="-4.78644">
        <ele>371.4</ele>
        <time>2020-08-16 14:31:49</time>
      </trkpt>
      <trkpt lat="39.9664" lon="-4.78651">
        <ele>371.4</ele>
        <time>2020-08-16 14:31:50</time>
      </trkpt>
      <trkpt lat="39.96639" lon="-4.78657">
        <ele>371.4</ele>
        <time>2020-08-16 14:31:51</time>
      </trkpt>
      <trkpt lat="39.96638" lon="-4.78663">
        <ele>371.4</ele>
        <time>2020-08-16 14:31:52</time>
      </trkpt>
      <trkpt lat="39.96637" lon="-4.7867">
        <ele>371.4</ele>
        <time>2020-08-16 14:31:53</time>
      </trkpt>
      <trkpt lat="39.96635" lon="-4.78676">
        <ele>371.4</ele>
        <time>2020-08-16 14:31:54</time>
      </trkpt>
      <trkpt lat="39.96627" lon="-4.7872">
        <ele>371.6</ele>
        <time>2020-08-16 14:32:01</time>
      </trkpt>
      <trkpt lat="39.96624" lon="-4.78732">
        <ele>371.6</ele>
        <time>2020-08-16 14:32:03</time>
      </trkpt>
      <trkpt lat="39.96623" lon="-4.78738">
        <ele>371.6</ele>
        <time>2020-08-16 14:32:04</time>
      </trkpt>
      <trkpt lat="39.96621" lon="-4.78744">
        <ele>371.6</ele>
        <time>2020-08-16 14:32:05</time>
      </trkpt>
      <trkpt lat="39.9662" lon="-4.7875">
        <ele>371.6</ele>
        <time>2020-08-16 14:32:06</time>
      </trkpt>
      <trkpt lat="39.96618" lon="-4.78756">
        <ele>371.6</ele>
        <time>2020-08-16 14:32:07</time>
      </trkpt>
      <trkpt lat="39.96617" lon="-4.78763">
        <ele>371.6</ele>
        <time>2020-08-16 14:32:08</time>
      </trkpt>
      <trkpt lat="39.96616" lon="-4.78769">
        <ele>371.6</ele>
        <time>2020-08-16 14:32:09</time>
      </trkpt>
      <trkpt lat="39.96614" lon="-4.78775">
        <ele>371.6</ele>
        <time>2020-08-16 14:32:10</time>
      </trkpt>
      <trkpt lat="39.96613" lon="-4.78781">
        <ele>371.6</ele>
        <time>2020-08-16 14:32:11</time>
      </trkpt>
      <trkpt lat="39.96611" lon="-4.78786">
        <ele>371.6</ele>
        <time>2020-08-16 14:32:12</time>
      </trkpt>
      <trkpt lat="39.9661" lon="-4.78792">
        <ele>371.6</ele>
        <time>2020-08-16 14:32:13</time>
      </trkpt>
      <trkpt lat="39.96609" lon="-4.78799">
        <ele>371.6</ele>
        <time>2020-08-16 14:32:14</time>
      </trkpt>
      <trkpt lat="39.96607" lon="-4.78805">
        <ele>371.6</ele>
        <time>2020-08-16 14:32:15</time>
      </trkpt>
      <trkpt lat="39.96606" lon="-4.78811">
        <ele>371.6</ele>
        <time>2020-08-16 14:32:16</time>
      </trkpt>
      <trkpt lat="39.96604" lon="-4.78817">
        <ele>371.6</ele>
        <time>2020-08-16 14:32:17</time>
      </trkpt>
      <trkpt lat="39.96603" lon="-4.78823">
        <ele>371.6</ele>
        <time>2020-08-16 14:32:18</time>
      </trkpt>
      <trkpt lat="39.96602" lon="-4.78829">
        <ele>371.6</ele>
        <time>2020-08-16 14:32:19</time>
      </trkpt>
      <trkpt lat="39.966" lon="-4.78835">
        <ele>371.6</ele>
        <time>2020-08-16 14:32:20</time>
      </trkpt>
      <trkpt lat="39.96591" lon="-4.7887">
        <ele>371.6</ele>
        <time>2020-08-16 14:32:26</time>
      </trkpt>
      <trkpt lat="39.9659" lon="-4.78875">
        <ele>371.6</ele>
        <time>2020-08-16 14:32:27</time>
      </trkpt>
      <trkpt lat="39.96589" lon="-4.7888">
        <ele>371.6</ele>
        <time>2020-08-16 14:32:28</time>
      </trkpt>
      <trkpt lat="39.96588" lon="-4.78885">
        <ele>371.6</ele>
        <time>2020-08-16 14:32:29</time>
      </trkpt>
      <trkpt lat="39.96586" lon="-4.7889">
        <ele>371.4</ele>
        <time>2020-08-16 14:32:30</time>
      </trkpt>
      <trkpt lat="39.96585" lon="-4.78896">
        <ele>371.4</ele>
        <time>2020-08-16 14:32:31</time>
      </trkpt>
      <trkpt lat="39.96584" lon="-4.78901">
        <ele>371.4</ele>
        <time>2020-08-16 14:32:32</time>
      </trkpt>
      <trkpt lat="39.96583" lon="-4.78907">
        <ele>371.4</ele>
        <time>2020-08-16 14:32:33</time>
      </trkpt>
      <trkpt lat="39.96582" lon="-4.78913">
        <ele>371.4</ele>
        <time>2020-08-16 14:32:34</time>
      </trkpt>
      <trkpt lat="39.9658" lon="-4.78918">
        <ele>371.2</ele>
        <time>2020-08-16 14:32:35</time>
      </trkpt>
      <trkpt lat="39.96579" lon="-4.78924">
        <ele>371.2</ele>
        <time>2020-08-16 14:32:36</time>
      </trkpt>
      <trkpt lat="39.9657" lon="-4.7896">
        <ele>371.2</ele>
        <time>2020-08-16 14:32:42</time>
      </trkpt>
      <trkpt lat="39.96561" lon="-4.78996">
        <ele>371.2</ele>
        <time>2020-08-16 14:32:48</time>
      </trkpt>
      <trkpt lat="39.96559" lon="-4.79001">
        <ele>371.2</ele>
        <time>2020-08-16 14:32:49</time>
      </trkpt>
      <trkpt lat="39.96558" lon="-4.79007">
        <ele>371.2</ele>
        <time>2020-08-16 14:32:50</time>
      </trkpt>
      <trkpt lat="39.96557" lon="-4.79014">
        <ele>371.2</ele>
        <time>2020-08-16 14:32:51</time>
      </trkpt>
      <trkpt lat="39.96555" lon="-4.7902">
        <ele>371.2</ele>
        <time>2020-08-16 14:32:52</time>
      </trkpt>
      <trkpt lat="39.96538" lon="-4.79087">
        <ele>371.2</ele>
        <time>2020-08-16 14:33:03</time>
      </trkpt>
      <trkpt lat="39.96536" lon="-4.79091">
        <ele>371.2</ele>
        <time>2020-08-16 14:33:04</time>
      </trkpt>
      <trkpt lat="39.96534" lon="-4.79096">
        <ele>371.2</ele>
        <time>2020-08-16 14:33:05</time>
      </trkpt>
      <trkpt lat="39.96532" lon="-4.79101">
        <ele>371.2</ele>
        <time>2020-08-16 14:33:06</time>
      </trkpt>
      <trkpt lat="39.9653" lon="-4.79105">
        <ele>371.4</ele>
        <time>2020-08-16 14:33:07</time>
      </trkpt>
      <trkpt lat="39.96529" lon="-4.79108">
        <ele>371.4</ele>
        <time>2020-08-16 14:33:08</time>
      </trkpt>
      <trkpt lat="39.96529" lon="-4.7911">
        <ele>371.4</ele>
        <time>2020-08-16 14:33:09</time>
      </trkpt>
      <trkpt lat="39.96529" lon="-4.7911">
        <ele>371.6</ele>
        <time>2020-08-16 14:33:10</time>
      </trkpt>
      <trkpt lat="39.96529" lon="-4.7911">
        <ele>371.8</ele>
        <time>2020-08-16 14:33:12</time>
      </trkpt>
      <trkpt lat="39.96528" lon="-4.79113">
        <ele>372.4</ele>
        <time>2020-08-16 14:34:13</time>
      </trkpt>
      <trkpt lat="39.96528" lon="-4.79116">
        <ele>372.4</ele>
        <time>2020-08-16 14:34:14</time>
      </trkpt>
      <trkpt lat="39.96526" lon="-4.79128">
        <ele>372.4</ele>
        <time>2020-08-16 14:34:17</time>
      </trkpt>
      <trkpt lat="39.96525" lon="-4.79133">
        <ele>372.4</ele>
        <time>2020-08-16 14:34:18</time>
      </trkpt>
      <trkpt lat="39.96524" lon="-4.79137">
        <ele>372.4</ele>
        <time>2020-08-16 14:34:19</time>
      </trkpt>
      <trkpt lat="39.96524" lon="-4.79142">
        <ele>372.2</ele>
        <time>2020-08-16 14:34:20</time>
      </trkpt>
      <trkpt lat="39.96523" lon="-4.7916">
        <ele>372</ele>
        <time>2020-08-16 14:34:24</time>
      </trkpt>
      <trkpt lat="39.9652" lon="-4.7919">
        <ele>372</ele>
        <time>2020-08-16 14:34:30</time>
      </trkpt>
      <trkpt lat="39.96519" lon="-4.79201">
        <ele>372</ele>
        <time>2020-08-16 14:34:32</time>
      </trkpt>
      <trkpt lat="39.96519" lon="-4.79206">
        <ele>372</ele>
        <time>2020-08-16 14:34:33</time>
      </trkpt>
      <trkpt lat="39.96516" lon="-4.79232">
        <ele>372</ele>
        <time>2020-08-16 14:34:38</time>
      </trkpt>
      <trkpt lat="39.9651" lon="-4.79283">
        <ele>371.4</ele>
        <time>2020-08-16 14:34:48</time>
      </trkpt>
      <trkpt lat="39.9651" lon="-4.79288">
        <ele>371.4</ele>
        <time>2020-08-16 14:34:49</time>
      </trkpt>
      <trkpt lat="39.96509" lon="-4.79294">
        <ele>371.4</ele>
        <time>2020-08-16 14:34:50</time>
      </trkpt>
      <trkpt lat="39.96509" lon="-4.79299">
        <ele>371.4</ele>
        <time>2020-08-16 14:34:51</time>
      </trkpt>
      <trkpt lat="39.96508" lon="-4.79304">
        <ele>371.4</ele>
        <time>2020-08-16 14:34:52</time>
      </trkpt>
      <trkpt lat="39.96507" lon="-4.79309">
        <ele>371.2</ele>
        <time>2020-08-16 14:34:53</time>
      </trkpt>
      <trkpt lat="39.96506" lon="-4.79314">
        <ele>371.2</ele>
        <time>2020-08-16 14:34:54</time>
      </trkpt>
      <trkpt lat="39.96506" lon="-4.79319">
        <ele>371.2</ele>
        <time>2020-08-16 14:34:55</time>
      </trkpt>
      <trkpt lat="39.96505" lon="-4.79324">
        <ele>371.2</ele>
        <time>2020-08-16 14:34:56</time>
      </trkpt>
      <trkpt lat="39.96505" lon="-4.79329">
        <ele>371.2</ele>
        <time>2020-08-16 14:34:57</time>
      </trkpt>
      <trkpt lat="39.96501" lon="-4.79356">
        <ele>371</ele>
        <time>2020-08-16 14:35:02</time>
      </trkpt>
      <trkpt lat="39.96501" lon="-4.79361">
        <ele>371</ele>
        <time>2020-08-16 14:35:03</time>
      </trkpt>
      <trkpt lat="39.96498" lon="-4.79378">
        <ele>371</ele>
        <time>2020-08-16 14:35:06</time>
      </trkpt>
      <trkpt lat="39.96492" lon="-4.79425">
        <ele>371</ele>
        <time>2020-08-16 14:35:14</time>
      </trkpt>
      <trkpt lat="39.96491" lon="-4.7943">
        <ele>371</ele>
        <time>2020-08-16 14:35:15</time>
      </trkpt>
      <trkpt lat="39.96491" lon="-4.79436">
        <ele>371</ele>
        <time>2020-08-16 14:35:16</time>
      </trkpt>
      <trkpt lat="39.9649" lon="-4.79441">
        <ele>371</ele>
        <time>2020-08-16 14:35:17</time>
      </trkpt>
      <trkpt lat="39.96489" lon="-4.79446">
        <ele>371</ele>
        <time>2020-08-16 14:35:18</time>
      </trkpt>
      <trkpt lat="39.96488" lon="-4.79452">
        <ele>370.8</ele>
        <time>2020-08-16 14:35:19</time>
      </trkpt>
      <trkpt lat="39.96488" lon="-4.79457">
        <ele>370.8</ele>
        <time>2020-08-16 14:35:20</time>
      </trkpt>
      <trkpt lat="39.96487" lon="-4.79462">
        <ele>370.8</ele>
        <time>2020-08-16 14:35:21</time>
      </trkpt>
      <trkpt lat="39.96486" lon="-4.79467">
        <ele>370.8</ele>
        <time>2020-08-16 14:35:22</time>
      </trkpt>
      <trkpt lat="39.96486" lon="-4.79471">
        <ele>370.8</ele>
        <time>2020-08-16 14:35:23</time>
      </trkpt>
      <trkpt lat="39.96485" lon="-4.79476">
        <ele>370.8</ele>
        <time>2020-08-16 14:35:24</time>
      </trkpt>
      <trkpt lat="39.96484" lon="-4.79481">
        <ele>370.8</ele>
        <time>2020-08-16 14:35:25</time>
      </trkpt>
      <trkpt lat="39.96483" lon="-4.79485">
        <ele>370.8</ele>
        <time>2020-08-16 14:35:26</time>
      </trkpt>
      <trkpt lat="39.96482" lon="-4.7949">
        <ele>370.8</ele>
        <time>2020-08-16 14:35:27</time>
      </trkpt>
      <trkpt lat="39.96482" lon="-4.79496">
        <ele>370.8</ele>
        <time>2020-08-16 14:35:28</time>
      </trkpt>
      <trkpt lat="39.96481" lon="-4.79501">
        <ele>370.8</ele>
        <time>2020-08-16 14:35:29</time>
      </trkpt>
      <trkpt lat="39.9648" lon="-4.79506">
        <ele>370.6</ele>
        <time>2020-08-16 14:35:30</time>
      </trkpt>
      <trkpt lat="39.96479" lon="-4.79511">
        <ele>370.6</ele>
        <time>2020-08-16 14:35:31</time>
      </trkpt>
      <trkpt lat="39.96478" lon="-4.79516">
        <ele>370.6</ele>
        <time>2020-08-16 14:35:32</time>
      </trkpt>
      <trkpt lat="39.96476" lon="-4.7952">
        <ele>370.6</ele>
        <time>2020-08-16 14:35:33</time>
      </trkpt>
      <trkpt lat="39.96475" lon="-4.79524">
        <ele>370.6</ele>
        <time>2020-08-16 14:35:34</time>
      </trkpt>
      <trkpt lat="39.96473" lon="-4.79528">
        <ele>370.6</ele>
        <time>2020-08-16 14:35:35</time>
      </trkpt>
      <trkpt lat="39.9647" lon="-4.79532">
        <ele>370.6</ele>
        <time>2020-08-16 14:35:36</time>
      </trkpt>
      <trkpt lat="39.96468" lon="-4.79536">
        <ele>370.6</ele>
        <time>2020-08-16 14:35:37</time>
      </trkpt>
      <trkpt lat="39.96466" lon="-4.79541">
        <ele>370.6</ele>
        <time>2020-08-16 14:35:38</time>
      </trkpt>
      <trkpt lat="39.96465" lon="-4.79545">
        <ele>370.6</ele>
        <time>2020-08-16 14:35:39</time>
      </trkpt>
      <trkpt lat="39.96464" lon="-4.79549">
        <ele>370.6</ele>
        <time>2020-08-16 14:35:40</time>
      </trkpt>
      <trkpt lat="39.96463" lon="-4.79553">
        <ele>370.6</ele>
        <time>2020-08-16 14:35:41</time>
      </trkpt>
      <trkpt lat="39.96462" lon="-4.79557">
        <ele>370.6</ele>
        <time>2020-08-16 14:35:42</time>
      </trkpt>
      <trkpt lat="39.96462" lon="-4.79561">
        <ele>370.8</ele>
        <time>2020-08-16 14:35:43</time>
      </trkpt>
      <trkpt lat="39.96462" lon="-4.79565">
        <ele>370.8</ele>
        <time>2020-08-16 14:35:44</time>
      </trkpt>
      <trkpt lat="39.96462" lon="-4.79569">
        <ele>370.8</ele>
        <time>2020-08-16 14:35:45</time>
      </trkpt>
      <trkpt lat="39.96463" lon="-4.79573">
        <ele>371</ele>
        <time>2020-08-16 14:35:46</time>
      </trkpt>
      <trkpt lat="39.96463" lon="-4.79576">
        <ele>371</ele>
        <time>2020-08-16 14:35:47</time>
      </trkpt>
      <trkpt lat="39.96464" lon="-4.79579">
        <ele>371.2</ele>
        <time>2020-08-16 14:35:48</time>
      </trkpt>
      <trkpt lat="39.96465" lon="-4.79581">
        <ele>371.2</ele>
        <time>2020-08-16 14:35:49</time>
      </trkpt>
      <trkpt lat="39.96465" lon="-4.79583">
        <ele>371.2</ele>
        <time>2020-08-16 14:35:50</time>
      </trkpt>
      <trkpt lat="39.96466" lon="-4.79586">
        <ele>371.2</ele>
        <time>2020-08-16 14:35:51</time>
      </trkpt>
      <trkpt lat="39.96467" lon="-4.79589">
        <ele>371.2</ele>
        <time>2020-08-16 14:35:52</time>
      </trkpt>
      <trkpt lat="39.96469" lon="-4.7961">
        <ele>371.2</ele>
        <time>2020-08-16 14:35:59</time>
      </trkpt>
      <trkpt lat="39.96469" lon="-4.79613">
        <ele>371.2</ele>
        <time>2020-08-16 14:36:00</time>
      </trkpt>
      <trkpt lat="39.96469" lon="-4.79617">
        <ele>371</ele>
        <time>2020-08-16 14:36:01</time>
      </trkpt>
      <trkpt lat="39.96467" lon="-4.79636">
        <ele>370.8</ele>
        <time>2020-08-16 14:36:06</time>
      </trkpt>
      <trkpt lat="39.96466" lon="-4.79641">
        <ele>370.8</ele>
        <time>2020-08-16 14:36:07</time>
      </trkpt>
      <trkpt lat="39.96465" lon="-4.79645">
        <ele>370.8</ele>
        <time>2020-08-16 14:36:08</time>
      </trkpt>
      <trkpt lat="39.96464" lon="-4.79654">
        <ele>371</ele>
        <time>2020-08-16 14:36:10</time>
      </trkpt>
      <trkpt lat="39.96464" lon="-4.79663">
        <ele>371</ele>
        <time>2020-08-16 14:36:12</time>
      </trkpt>
      <trkpt lat="39.96465" lon="-4.79668">
        <ele>371</ele>
        <time>2020-08-16 14:36:13</time>
      </trkpt>
      <trkpt lat="39.96468" lon="-4.79686">
        <ele>371.2</ele>
        <time>2020-08-16 14:36:17</time>
      </trkpt>
      <trkpt lat="39.96468" lon="-4.7969">
        <ele>371.2</ele>
        <time>2020-08-16 14:36:18</time>
      </trkpt>
      <trkpt lat="39.96467" lon="-4.79702">
        <ele>371.2</ele>
        <time>2020-08-16 14:36:21</time>
      </trkpt>
      <trkpt lat="39.96467" lon="-4.79706">
        <ele>371.2</ele>
        <time>2020-08-16 14:36:22</time>
      </trkpt>
      <trkpt lat="39.96466" lon="-4.7971">
        <ele>371.2</ele>
        <time>2020-08-16 14:36:23</time>
      </trkpt>
      <trkpt lat="39.96465" lon="-4.79713">
        <ele>371.2</ele>
        <time>2020-08-16 14:36:24</time>
      </trkpt>
      <trkpt lat="39.96464" lon="-4.79717">
        <ele>371.2</ele>
        <time>2020-08-16 14:36:25</time>
      </trkpt>
      <trkpt lat="39.96463" lon="-4.7972">
        <ele>371.2</ele>
        <time>2020-08-16 14:36:26</time>
      </trkpt>
      <trkpt lat="39.96462" lon="-4.79724">
        <ele>371.2</ele>
        <time>2020-08-16 14:36:27</time>
      </trkpt>
      <trkpt lat="39.96461" lon="-4.79728">
        <ele>371.2</ele>
        <time>2020-08-16 14:36:28</time>
      </trkpt>
      <trkpt lat="39.96461" lon="-4.79733">
        <ele>371.2</ele>
        <time>2020-08-16 14:36:29</time>
      </trkpt>
      <trkpt lat="39.96461" lon="-4.79737">
        <ele>371.2</ele>
        <time>2020-08-16 14:36:30</time>
      </trkpt>
      <trkpt lat="39.96461" lon="-4.79742">
        <ele>371.2</ele>
        <time>2020-08-16 14:36:31</time>
      </trkpt>
      <trkpt lat="39.96462" lon="-4.79746">
        <ele>371.2</ele>
        <time>2020-08-16 14:36:32</time>
      </trkpt>
      <trkpt lat="39.96464" lon="-4.79758">
        <ele>371.2</ele>
        <time>2020-08-16 14:36:35</time>
      </trkpt>
      <trkpt lat="39.96464" lon="-4.79762">
        <ele>371.2</ele>
        <time>2020-08-16 14:36:36</time>
      </trkpt>
      <trkpt lat="39.96463" lon="-4.79766">
        <ele>371.2</ele>
        <time>2020-08-16 14:36:37</time>
      </trkpt>
      <trkpt lat="39.96462" lon="-4.79774">
        <ele>371.2</ele>
        <time>2020-08-16 14:36:39</time>
      </trkpt>
      <trkpt lat="39.96462" lon="-4.79779">
        <ele>371.2</ele>
        <time>2020-08-16 14:36:40</time>
      </trkpt>
      <trkpt lat="39.96462" lon="-4.79788">
        <ele>371.2</ele>
        <time>2020-08-16 14:36:42</time>
      </trkpt>
      <trkpt lat="39.96462" lon="-4.79792">
        <ele>371.4</ele>
        <time>2020-08-16 14:36:43</time>
      </trkpt>
      <trkpt lat="39.96462" lon="-4.79796">
        <ele>371.4</ele>
        <time>2020-08-16 14:36:44</time>
      </trkpt>
      <trkpt lat="39.96462" lon="-4.798">
        <ele>371.4</ele>
        <time>2020-08-16 14:36:45</time>
      </trkpt>
      <trkpt lat="39.96462" lon="-4.79803">
        <ele>371.4</ele>
        <time>2020-08-16 14:36:46</time>
      </trkpt>
      <trkpt lat="39.96461" lon="-4.79806">
        <ele>371.4</ele>
        <time>2020-08-16 14:36:47</time>
      </trkpt>
      <trkpt lat="39.96461" lon="-4.79809">
        <ele>371.4</ele>
        <time>2020-08-16 14:36:48</time>
      </trkpt>
      <trkpt lat="39.96462" lon="-4.7981">
        <ele>371.4</ele>
        <time>2020-08-16 14:36:49</time>
      </trkpt>
      <trkpt lat="39.96462" lon="-4.79811">
        <ele>371.4</ele>
        <time>2020-08-16 14:36:51</time>
      </trkpt>
      <trkpt lat="39.96467" lon="-4.79812">
        <ele>371.2</ele>
        <time>2020-08-16 14:37:02</time>
      </trkpt>
      <trkpt lat="39.96481" lon="-4.79813">
        <ele>371.4</ele>
        <time>2020-08-16 14:37:07</time>
      </trkpt>
      <trkpt lat="39.96484" lon="-4.79811">
        <ele>371.4</ele>
        <time>2020-08-16 14:37:08</time>
      </trkpt>
      <trkpt lat="39.96487" lon="-4.79809">
        <ele>371.6</ele>
        <time>2020-08-16 14:37:09</time>
      </trkpt>
      <trkpt lat="39.96488" lon="-4.79805">
        <ele>371.6</ele>
        <time>2020-08-16 14:37:10</time>
      </trkpt>
      <trkpt lat="39.9649" lon="-4.79801">
        <ele>371.6</ele>
        <time>2020-08-16 14:37:11</time>
      </trkpt>
      <trkpt lat="39.96491" lon="-4.79796">
        <ele>371.6</ele>
        <time>2020-08-16 14:37:12</time>
      </trkpt>
      <trkpt lat="39.96492" lon="-4.79791">
        <ele>371.6</ele>
        <time>2020-08-16 14:37:13</time>
      </trkpt>
      <trkpt lat="39.96492" lon="-4.79786">
        <ele>371.6</ele>
        <time>2020-08-16 14:37:14</time>
      </trkpt>
      <trkpt lat="39.96493" lon="-4.79771">
        <ele>371.6</ele>
        <time>2020-08-16 14:37:17</time>
      </trkpt>
      <trkpt lat="39.96494" lon="-4.7975">
        <ele>371.6</ele>
        <time>2020-08-16 14:37:21</time>
      </trkpt>
      <trkpt lat="39.96496" lon="-4.79735">
        <ele>371.6</ele>
        <time>2020-08-16 14:37:24</time>
      </trkpt>
      <trkpt lat="39.965" lon="-4.797">
        <ele>371.4</ele>
        <time>2020-08-16 14:37:31</time>
      </trkpt>
      <trkpt lat="39.96501" lon="-4.79695">
        <ele>371.4</ele>
        <time>2020-08-16 14:37:32</time>
      </trkpt>
      <trkpt lat="39.96502" lon="-4.79691">
        <ele>371.4</ele>
        <time>2020-08-16 14:37:33</time>
      </trkpt>
      <trkpt lat="39.96504" lon="-4.79687">
        <ele>371.4</ele>
        <time>2020-08-16 14:37:34</time>
      </trkpt>
      <trkpt lat="39.96505" lon="-4.79684">
        <ele>371.4</ele>
        <time>2020-08-16 14:37:35</time>
      </trkpt>
      <trkpt lat="39.96508" lon="-4.79681">
        <ele>371.4</ele>
        <time>2020-08-16 14:37:36</time>
      </trkpt>
      <trkpt lat="39.96511" lon="-4.79679">
        <ele>371.6</ele>
        <time>2020-08-16 14:37:37</time>
      </trkpt>
      <trkpt lat="39.96514" lon="-4.79677">
        <ele>371.6</ele>
        <time>2020-08-16 14:37:38</time>
      </trkpt>
      <trkpt lat="39.96517" lon="-4.79676">
        <ele>371.6</ele>
        <time>2020-08-16 14:37:39</time>
      </trkpt>
      <trkpt lat="39.96519" lon="-4.79674">
        <ele>371.6</ele>
        <time>2020-08-16 14:37:40</time>
      </trkpt>
      <trkpt lat="39.96522" lon="-4.79673">
        <ele>371.6</ele>
        <time>2020-08-16 14:37:41</time>
      </trkpt>
      <trkpt lat="39.96524" lon="-4.79672">
        <ele>371.8</ele>
        <time>2020-08-16 14:37:42</time>
      </trkpt>
      <trkpt lat="39.96525" lon="-4.7967">
        <ele>371.8</ele>
        <time>2020-08-16 14:37:43</time>
      </trkpt>
      <trkpt lat="39.96529" lon="-4.79663">
        <ele>372.2</ele>
        <time>2020-08-16 14:37:46</time>
      </trkpt>
      <trkpt lat="39.9653" lon="-4.79663">
        <ele>372.2</ele>
        <time>2020-08-16 14:37:47</time>
      </trkpt>
      <trkpt lat="39.9653" lon="-4.79663">
        <ele>372.4</ele>
        <time>2020-08-16 14:37:48</time>
      </trkpt>
      <trkpt lat="39.9653" lon="-4.79663">
        <ele>372.4</ele>
        <time>2020-08-16 14:37:50</time>
      </trkpt>
      <trkpt lat="39.9653" lon="-4.79655">
        <ele>373.2</ele>
        <time>2020-08-16 14:40:11</time>
      </trkpt>
      <trkpt lat="39.96531" lon="-4.79651">
        <ele>373</ele>
        <time>2020-08-16 14:40:12</time>
      </trkpt>
      <trkpt lat="39.96531" lon="-4.79645">
        <ele>373</ele>
        <time>2020-08-16 14:40:14</time>
      </trkpt>
      <trkpt lat="39.96532" lon="-4.79641">
        <ele>372.8</ele>
        <time>2020-08-16 14:40:15</time>
      </trkpt>
      <trkpt lat="39.96533" lon="-4.79637">
        <ele>372.6</ele>
        <time>2020-08-16 14:40:16</time>
      </trkpt>
      <trkpt lat="39.96536" lon="-4.7963">
        <ele>372.6</ele>
        <time>2020-08-16 14:40:18</time>
      </trkpt>
      <trkpt lat="39.96539" lon="-4.79628">
        <ele>372.6</ele>
        <time>2020-08-16 14:40:19</time>
      </trkpt>
      <trkpt lat="39.96541" lon="-4.79626">
        <ele>372.4</ele>
        <time>2020-08-16 14:40:20</time>
      </trkpt>
      <trkpt lat="39.96544" lon="-4.79625">
        <ele>372.4</ele>
        <time>2020-08-16 14:40:21</time>
      </trkpt>
      <trkpt lat="39.96546" lon="-4.79626">
        <ele>372.4</ele>
        <time>2020-08-16 14:40:22</time>
      </trkpt>
      <trkpt lat="39.96548" lon="-4.79628">
        <ele>372.4</ele>
        <time>2020-08-16 14:40:23</time>
      </trkpt>
      <trkpt lat="39.9655" lon="-4.79632">
        <ele>372.6</ele>
        <time>2020-08-16 14:40:25</time>
      </trkpt>
      <trkpt lat="39.96552" lon="-4.79633">
        <ele>372.6</ele>
        <time>2020-08-16 14:40:26</time>
      </trkpt>
      <trkpt lat="39.96554" lon="-4.79635">
        <ele>372.6</ele>
        <time>2020-08-16 14:40:27</time>
      </trkpt>
      <trkpt lat="39.96555" lon="-4.79636">
        <ele>372.6</ele>
        <time>2020-08-16 14:40:28</time>
      </trkpt>
      <trkpt lat="39.96556" lon="-4.79638">
        <ele>372.6</ele>
        <time>2020-08-16 14:40:29</time>
      </trkpt>
      <trkpt lat="39.96556" lon="-4.7964">
        <ele>372.6</ele>
        <time>2020-08-16 14:40:30</time>
      </trkpt>
      <trkpt lat="39.96557" lon="-4.79641">
        <ele>372.6</ele>
        <time>2020-08-16 14:40:31</time>
      </trkpt>
      <trkpt lat="39.96557" lon="-4.79642">
        <ele>372.8</ele>
        <time>2020-08-16 14:40:32</time>
      </trkpt>
      <trkpt lat="39.96557" lon="-4.79642">
        <ele>372.8</ele>
        <time>2020-08-16 14:40:33</time>
      </trkpt>
      <trkpt lat="39.96557" lon="-4.79642">
        <ele>372.8</ele>
        <time>2020-08-16 14:40:34</time>
      </trkpt>
      <trkpt lat="39.96557" lon="-4.79642">
        <ele>372.6</ele>
        <time>2020-08-16 14:40:35</time>
      </trkpt>
      <trkpt lat="39.96558" lon="-4.79643">
        <ele>372.6</ele>
        <time>2020-08-16 14:40:37</time>
      </trkpt>
      <trkpt lat="39.96559" lon="-4.79643">
        <ele>372.6</ele>
        <time>2020-08-16 14:40:38</time>
      </trkpt>
      <trkpt lat="39.9656" lon="-4.79643">
        <ele>372.6</ele>
        <time>2020-08-16 14:40:39</time>
      </trkpt>
      <trkpt lat="39.96561" lon="-4.79646">
        <ele>372.4</ele>
        <time>2020-08-16 14:40:41</time>
      </trkpt>
      <trkpt lat="39.96561" lon="-4.79647">
        <ele>372.4</ele>
        <time>2020-08-16 14:40:42</time>
      </trkpt>
      <trkpt lat="39.96561" lon="-4.79647">
        <ele>372.4</ele>
        <time>2020-08-16 14:40:43</time>
      </trkpt>
      <trkpt lat="39.96561" lon="-4.79647">
        <ele>372.4</ele>
        <time>2020-08-16 14:40:44</time>
      </trkpt>
      <trkpt lat="39.96561" lon="-4.79648">
        <ele>372.4</ele>
        <time>2020-08-16 14:40:46</time>
      </trkpt>
      <trkpt lat="39.96561" lon="-4.79648">
        <ele>372.4</ele>
        <time>2020-08-16 14:40:48</time>
      </trkpt>
      <trkpt lat="39.96561" lon="-4.79648">
        <ele>372.4</ele>
        <time>2020-08-16 14:40:49</time>
      </trkpt>
      <trkpt lat="39.96562" lon="-4.79652">
        <ele>371</ele>
        <time>2020-08-16 15:23:36</time>
      </trkpt>
      <trkpt lat="39.96562" lon="-4.79652">
        <ele>371</ele>
        <time>2020-08-16 15:23:37</time>
      </trkpt>
      <trkpt lat="39.96564" lon="-4.79661">
        <ele>370.6</ele>
        <time>2020-08-16 15:24:48</time>
      </trkpt>
      <trkpt lat="39.96564" lon="-4.79663">
        <ele>370.6</ele>
        <time>2020-08-16 15:24:49</time>
      </trkpt>
      <trkpt lat="39.96565" lon="-4.79667">
        <ele>370.6</ele>
        <time>2020-08-16 15:24:50</time>
      </trkpt>
      <trkpt lat="39.96566" lon="-4.7967">
        <ele>370.6</ele>
        <time>2020-08-16 15:24:51</time>
      </trkpt>
      <trkpt lat="39.96566" lon="-4.79673">
        <ele>370.6</ele>
        <time>2020-08-16 15:24:52</time>
      </trkpt>
      <trkpt lat="39.96567" lon="-4.79676">
        <ele>370.6</ele>
        <time>2020-08-16 15:24:53</time>
      </trkpt>
      <trkpt lat="39.96568" lon="-4.7968">
        <ele>370.6</ele>
        <time>2020-08-16 15:24:54</time>
      </trkpt>
      <trkpt lat="39.96568" lon="-4.79683">
        <ele>370.6</ele>
        <time>2020-08-16 15:24:55</time>
      </trkpt>
      <trkpt lat="39.96568" lon="-4.79687">
        <ele>370.6</ele>
        <time>2020-08-16 15:24:56</time>
      </trkpt>
      <trkpt lat="39.96565" lon="-4.79706">
        <ele>370.6</ele>
        <time>2020-08-16 15:25:00</time>
      </trkpt>
      <trkpt lat="39.96563" lon="-4.79719">
        <ele>370.8</ele>
        <time>2020-08-16 15:25:03</time>
      </trkpt>
      <trkpt lat="39.9656" lon="-4.79731">
        <ele>370.6</ele>
        <time>2020-08-16 15:25:06</time>
      </trkpt>
      <trkpt lat="39.96558" lon="-4.79736">
        <ele>370.4</ele>
        <time>2020-08-16 15:25:07</time>
      </trkpt>
      <trkpt lat="39.96553" lon="-4.79743">
        <ele>370.2</ele>
        <time>2020-08-16 15:25:09</time>
      </trkpt>
      <trkpt lat="39.9654" lon="-4.79758">
        <ele>370.4</ele>
        <time>2020-08-16 15:25:14</time>
      </trkpt>
      <trkpt lat="39.96537" lon="-4.79761">
        <ele>370.4</ele>
        <time>2020-08-16 15:25:15</time>
      </trkpt>
      <trkpt lat="39.96535" lon="-4.79763">
        <ele>370.4</ele>
        <time>2020-08-16 15:25:16</time>
      </trkpt>
      <trkpt lat="39.96532" lon="-4.79766">
        <ele>370.4</ele>
        <time>2020-08-16 15:25:17</time>
      </trkpt>
      <trkpt lat="39.96529" lon="-4.79769">
        <ele>370.4</ele>
        <time>2020-08-16 15:25:18</time>
      </trkpt>
      <trkpt lat="39.96523" lon="-4.79774">
        <ele>370.4</ele>
        <time>2020-08-16 15:25:20</time>
      </trkpt>
      <trkpt lat="39.96521" lon="-4.79776">
        <ele>370.6</ele>
        <time>2020-08-16 15:25:21</time>
      </trkpt>
      <trkpt lat="39.96518" lon="-4.79778">
        <ele>370.6</ele>
        <time>2020-08-16 15:25:22</time>
      </trkpt>
      <trkpt lat="39.96515" lon="-4.7978">
        <ele>370.6</ele>
        <time>2020-08-16 15:25:23</time>
      </trkpt>
      <trkpt lat="39.96512" lon="-4.79782">
        <ele>370.8</ele>
        <time>2020-08-16 15:25:24</time>
      </trkpt>
      <trkpt lat="39.9651" lon="-4.79783">
        <ele>370.8</ele>
        <time>2020-08-16 15:25:25</time>
      </trkpt>
      <trkpt lat="39.96507" lon="-4.79785">
        <ele>370.8</ele>
        <time>2020-08-16 15:25:26</time>
      </trkpt>
      <trkpt lat="39.96504" lon="-4.79785">
        <ele>370.8</ele>
        <time>2020-08-16 15:25:27</time>
      </trkpt>
      <trkpt lat="39.96501" lon="-4.79786">
        <ele>370.8</ele>
        <time>2020-08-16 15:25:28</time>
      </trkpt>
      <trkpt lat="39.96498" lon="-4.79787">
        <ele>370.8</ele>
        <time>2020-08-16 15:25:29</time>
      </trkpt>
      <trkpt lat="39.96496" lon="-4.79788">
        <ele>370.8</ele>
        <time>2020-08-16 15:25:30</time>
      </trkpt>
      <trkpt lat="39.96494" lon="-4.7979">
        <ele>370.8</ele>
        <time>2020-08-16 15:25:31</time>
      </trkpt>
      <trkpt lat="39.96492" lon="-4.79792">
        <ele>370.8</ele>
        <time>2020-08-16 15:25:32</time>
      </trkpt>
      <trkpt lat="39.96491" lon="-4.79796">
        <ele>370.8</ele>
        <time>2020-08-16 15:25:33</time>
      </trkpt>
      <trkpt lat="39.9649" lon="-4.79799">
        <ele>370.6</ele>
        <time>2020-08-16 15:25:34</time>
      </trkpt>
      <trkpt lat="39.96489" lon="-4.79803">
        <ele>370.6</ele>
        <time>2020-08-16 15:25:35</time>
      </trkpt>
      <trkpt lat="39.96489" lon="-4.79806">
        <ele>370.4</ele>
        <time>2020-08-16 15:25:36</time>
      </trkpt>
      <trkpt lat="39.96489" lon="-4.79809">
        <ele>370.4</ele>
        <time>2020-08-16 15:25:37</time>
      </trkpt>
      <trkpt lat="39.96488" lon="-4.7981">
        <ele>370.2</ele>
        <time>2020-08-16 15:25:38</time>
      </trkpt>
      <trkpt lat="39.96489" lon="-4.79811">
        <ele>370.2</ele>
        <time>2020-08-16 15:25:39</time>
      </trkpt>
      <trkpt lat="39.96489" lon="-4.79811">
        <ele>370.2</ele>
        <time>2020-08-16 15:25:41</time>
      </trkpt>
      <trkpt lat="39.96488" lon="-4.79816">
        <ele>370.2</ele>
        <time>2020-08-16 15:25:44</time>
      </trkpt>
      <trkpt lat="39.96488" lon="-4.79822">
        <ele>370.2</ele>
        <time>2020-08-16 15:25:46</time>
      </trkpt>
      <trkpt lat="39.96487" lon="-4.79833">
        <ele>370.2</ele>
        <time>2020-08-16 15:25:49</time>
      </trkpt>
      <trkpt lat="39.96486" lon="-4.79837">
        <ele>370.2</ele>
        <time>2020-08-16 15:25:50</time>
      </trkpt>
      <trkpt lat="39.96486" lon="-4.79841">
        <ele>370.2</ele>
        <time>2020-08-16 15:25:51</time>
      </trkpt>
      <trkpt lat="39.96486" lon="-4.79845">
        <ele>370.4</ele>
        <time>2020-08-16 15:25:52</time>
      </trkpt>
      <trkpt lat="39.96485" lon="-4.79848">
        <ele>370.4</ele>
        <time>2020-08-16 15:25:53</time>
      </trkpt>
      <trkpt lat="39.96483" lon="-4.79872">
        <ele>370.6</ele>
        <time>2020-08-16 15:25:58</time>
      </trkpt>
      <trkpt lat="39.96483" lon="-4.79876">
        <ele>370.6</ele>
        <time>2020-08-16 15:25:59</time>
      </trkpt>
      <trkpt lat="39.96482" lon="-4.79881">
        <ele>370.6</ele>
        <time>2020-08-16 15:26:00</time>
      </trkpt>
      <trkpt lat="39.9648" lon="-4.79886">
        <ele>370.6</ele>
        <time>2020-08-16 15:26:01</time>
      </trkpt>
      <trkpt lat="39.96479" lon="-4.79892">
        <ele>370.6</ele>
        <time>2020-08-16 15:26:02</time>
      </trkpt>
      <trkpt lat="39.96479" lon="-4.79897">
        <ele>370.6</ele>
        <time>2020-08-16 15:26:03</time>
      </trkpt>
      <trkpt lat="39.96478" lon="-4.79902">
        <ele>370.6</ele>
        <time>2020-08-16 15:26:04</time>
      </trkpt>
      <trkpt lat="39.96475" lon="-4.79913">
        <ele>370.6</ele>
        <time>2020-08-16 15:26:06</time>
      </trkpt>
      <trkpt lat="39.96474" lon="-4.79923">
        <ele>370.6</ele>
        <time>2020-08-16 15:26:08</time>
      </trkpt>
      <trkpt lat="39.96472" lon="-4.79938">
        <ele>370.6</ele>
        <time>2020-08-16 15:26:11</time>
      </trkpt>
      <trkpt lat="39.96472" lon="-4.79943">
        <ele>370.6</ele>
        <time>2020-08-16 15:26:12</time>
      </trkpt>
      <trkpt lat="39.96471" lon="-4.79948">
        <ele>370.4</ele>
        <time>2020-08-16 15:26:13</time>
      </trkpt>
      <trkpt lat="39.9647" lon="-4.79953">
        <ele>370.4</ele>
        <time>2020-08-16 15:26:14</time>
      </trkpt>
      <trkpt lat="39.96465" lon="-4.79984">
        <ele>370.4</ele>
        <time>2020-08-16 15:26:20</time>
      </trkpt>
      <trkpt lat="39.9646" lon="-4.80009">
        <ele>370.4</ele>
        <time>2020-08-16 15:26:25</time>
      </trkpt>
      <trkpt lat="39.96459" lon="-4.80013">
        <ele>370.4</ele>
        <time>2020-08-16 15:26:26</time>
      </trkpt>
      <trkpt lat="39.96458" lon="-4.80018">
        <ele>370.4</ele>
        <time>2020-08-16 15:26:27</time>
      </trkpt>
      <trkpt lat="39.96458" lon="-4.80023">
        <ele>370.4</ele>
        <time>2020-08-16 15:26:28</time>
      </trkpt>
      <trkpt lat="39.96457" lon="-4.80029">
        <ele>370.4</ele>
        <time>2020-08-16 15:26:29</time>
      </trkpt>
      <trkpt lat="39.96456" lon="-4.80034">
        <ele>370.4</ele>
        <time>2020-08-16 15:26:30</time>
      </trkpt>
      <trkpt lat="39.96453" lon="-4.8005">
        <ele>370.4</ele>
        <time>2020-08-16 15:26:33</time>
      </trkpt>
      <trkpt lat="39.9645" lon="-4.80067">
        <ele>370.6</ele>
        <time>2020-08-16 15:26:36</time>
      </trkpt>
      <trkpt lat="39.96449" lon="-4.80073">
        <ele>370.6</ele>
        <time>2020-08-16 15:26:37</time>
      </trkpt>
      <trkpt lat="39.96447" lon="-4.80078">
        <ele>370.6</ele>
        <time>2020-08-16 15:26:38</time>
      </trkpt>
      <trkpt lat="39.96441" lon="-4.80121">
        <ele>370.6</ele>
        <time>2020-08-16 15:26:45</time>
      </trkpt>
      <trkpt lat="39.96437" lon="-4.80143">
        <ele>370.6</ele>
        <time>2020-08-16 15:26:49</time>
      </trkpt>
      <trkpt lat="39.96436" lon="-4.80149">
        <ele>370.6</ele>
        <time>2020-08-16 15:26:50</time>
      </trkpt>
      <trkpt lat="39.96435" lon="-4.80156">
        <ele>370.6</ele>
        <time>2020-08-16 15:26:51</time>
      </trkpt>
      <trkpt lat="39.96435" lon="-4.80163">
        <ele>370.6</ele>
        <time>2020-08-16 15:26:52</time>
      </trkpt>
      <trkpt lat="39.96434" lon="-4.8017">
        <ele>370.6</ele>
        <time>2020-08-16 15:26:53</time>
      </trkpt>
      <trkpt lat="39.96433" lon="-4.80177">
        <ele>370.6</ele>
        <time>2020-08-16 15:26:54</time>
      </trkpt>
      <trkpt lat="39.96433" lon="-4.80182">
        <ele>370.6</ele>
        <time>2020-08-16 15:26:55</time>
      </trkpt>
      <trkpt lat="39.96432" lon="-4.80187">
        <ele>370.6</ele>
        <time>2020-08-16 15:26:56</time>
      </trkpt>
      <trkpt lat="39.96432" lon="-4.80193">
        <ele>370.6</ele>
        <time>2020-08-16 15:26:57</time>
      </trkpt>
      <trkpt lat="39.96432" lon="-4.80199">
        <ele>370.6</ele>
        <time>2020-08-16 15:26:58</time>
      </trkpt>
      <trkpt lat="39.96431" lon="-4.80205">
        <ele>370.6</ele>
        <time>2020-08-16 15:26:59</time>
      </trkpt>
      <trkpt lat="39.96427" lon="-4.80228">
        <ele>370.6</ele>
        <time>2020-08-16 15:27:02</time>
      </trkpt>
      <trkpt lat="39.96426" lon="-4.80233">
        <ele>370.6</ele>
        <time>2020-08-16 15:27:03</time>
      </trkpt>
      <trkpt lat="39.96425" lon="-4.80239">
        <ele>370.4</ele>
        <time>2020-08-16 15:27:04</time>
      </trkpt>
      <trkpt lat="39.96425" lon="-4.80244">
        <ele>370.4</ele>
        <time>2020-08-16 15:27:05</time>
      </trkpt>
      <trkpt lat="39.96424" lon="-4.8025">
        <ele>370.4</ele>
        <time>2020-08-16 15:27:06</time>
      </trkpt>
      <trkpt lat="39.96421" lon="-4.80271">
        <ele>370.4</ele>
        <time>2020-08-16 15:27:10</time>
      </trkpt>
      <trkpt lat="39.9642" lon="-4.80276">
        <ele>370.6</ele>
        <time>2020-08-16 15:27:11</time>
      </trkpt>
      <trkpt lat="39.96419" lon="-4.8028">
        <ele>370.6</ele>
        <time>2020-08-16 15:27:12</time>
      </trkpt>
      <trkpt lat="39.96418" lon="-4.80286">
        <ele>370.6</ele>
        <time>2020-08-16 15:27:13</time>
      </trkpt>
      <trkpt lat="39.96411" lon="-4.80336">
        <ele>371</ele>
        <time>2020-08-16 15:27:22</time>
      </trkpt>
      <trkpt lat="39.9641" lon="-4.80342">
        <ele>371</ele>
        <time>2020-08-16 15:27:23</time>
      </trkpt>
      <trkpt lat="39.96409" lon="-4.80348">
        <ele>371</ele>
        <time>2020-08-16 15:27:24</time>
      </trkpt>
      <trkpt lat="39.96408" lon="-4.80353">
        <ele>371</ele>
        <time>2020-08-16 15:27:25</time>
      </trkpt>
      <trkpt lat="39.96407" lon="-4.80359">
        <ele>370.8</ele>
        <time>2020-08-16 15:27:26</time>
      </trkpt>
      <trkpt lat="39.96406" lon="-4.80364">
        <ele>370.8</ele>
        <time>2020-08-16 15:27:27</time>
      </trkpt>
      <trkpt lat="39.96405" lon="-4.80369">
        <ele>370.8</ele>
        <time>2020-08-16 15:27:28</time>
      </trkpt>
      <trkpt lat="39.96404" lon="-4.80374">
        <ele>370.6</ele>
        <time>2020-08-16 15:27:29</time>
      </trkpt>
      <trkpt lat="39.96403" lon="-4.80379">
        <ele>370.6</ele>
        <time>2020-08-16 15:27:30</time>
      </trkpt>
      <trkpt lat="39.96403" lon="-4.80385">
        <ele>370.6</ele>
        <time>2020-08-16 15:27:31</time>
      </trkpt>
      <trkpt lat="39.96402" lon="-4.80392">
        <ele>370.6</ele>
        <time>2020-08-16 15:27:32</time>
      </trkpt>
      <trkpt lat="39.96402" lon="-4.80397">
        <ele>370.4</ele>
        <time>2020-08-16 15:27:33</time>
      </trkpt>
      <trkpt lat="39.96402" lon="-4.80403">
        <ele>370.4</ele>
        <time>2020-08-16 15:27:34</time>
      </trkpt>
      <trkpt lat="39.96401" lon="-4.8041">
        <ele>370.4</ele>
        <time>2020-08-16 15:27:35</time>
      </trkpt>
      <trkpt lat="39.96398" lon="-4.80429">
        <ele>370.4</ele>
        <time>2020-08-16 15:27:38</time>
      </trkpt>
      <trkpt lat="39.96397" lon="-4.8044">
        <ele>370.6</ele>
        <time>2020-08-16 15:27:40</time>
      </trkpt>
      <trkpt lat="39.96396" lon="-4.80445">
        <ele>370.6</ele>
        <time>2020-08-16 15:27:41</time>
      </trkpt>
      <trkpt lat="39.96396" lon="-4.80451">
        <ele>370.6</ele>
        <time>2020-08-16 15:27:42</time>
      </trkpt>
      <trkpt lat="39.96396" lon="-4.80456">
        <ele>370.6</ele>
        <time>2020-08-16 15:27:43</time>
      </trkpt>
      <trkpt lat="39.96396" lon="-4.80463">
        <ele>370.8</ele>
        <time>2020-08-16 15:27:44</time>
      </trkpt>
      <trkpt lat="39.96396" lon="-4.80469">
        <ele>370.8</ele>
        <time>2020-08-16 15:27:45</time>
      </trkpt>
      <trkpt lat="39.96398" lon="-4.80474">
        <ele>370.8</ele>
        <time>2020-08-16 15:27:46</time>
      </trkpt>
      <trkpt lat="39.96401" lon="-4.80485">
        <ele>371</ele>
        <time>2020-08-16 15:27:48</time>
      </trkpt>
      <trkpt lat="39.96402" lon="-4.8049">
        <ele>370.8</ele>
        <time>2020-08-16 15:27:49</time>
      </trkpt>
      <trkpt lat="39.96403" lon="-4.80497">
        <ele>370.8</ele>
        <time>2020-08-16 15:27:50</time>
      </trkpt>
      <trkpt lat="39.96402" lon="-4.80504">
        <ele>370.6</ele>
        <time>2020-08-16 15:27:51</time>
      </trkpt>
      <trkpt lat="39.96402" lon="-4.8051">
        <ele>370.6</ele>
        <time>2020-08-16 15:27:52</time>
      </trkpt>
      <trkpt lat="39.964" lon="-4.80516">
        <ele>370.4</ele>
        <time>2020-08-16 15:27:53</time>
      </trkpt>
      <trkpt lat="39.96398" lon="-4.80522">
        <ele>370.2</ele>
        <time>2020-08-16 15:27:54</time>
      </trkpt>
      <trkpt lat="39.96395" lon="-4.80527">
        <ele>370.2</ele>
        <time>2020-08-16 15:27:55</time>
      </trkpt>
      <trkpt lat="39.96392" lon="-4.80531">
        <ele>370.2</ele>
        <time>2020-08-16 15:27:56</time>
      </trkpt>
      <trkpt lat="39.96385" lon="-4.8054">
        <ele>370.2</ele>
        <time>2020-08-16 15:27:58</time>
      </trkpt>
      <trkpt lat="39.96383" lon="-4.80546">
        <ele>370.2</ele>
        <time>2020-08-16 15:27:59</time>
      </trkpt>
      <trkpt lat="39.96382" lon="-4.80552">
        <ele>370.2</ele>
        <time>2020-08-16 15:28:00</time>
      </trkpt>
      <trkpt lat="39.96381" lon="-4.80558">
        <ele>370.4</ele>
        <time>2020-08-16 15:28:01</time>
      </trkpt>
      <trkpt lat="39.96381" lon="-4.80563">
        <ele>370.4</ele>
        <time>2020-08-16 15:28:02</time>
      </trkpt>
      <trkpt lat="39.96381" lon="-4.80568">
        <ele>370.4</ele>
        <time>2020-08-16 15:28:03</time>
      </trkpt>
      <trkpt lat="39.9638" lon="-4.80574">
        <ele>370.4</ele>
        <time>2020-08-16 15:28:04</time>
      </trkpt>
      <trkpt lat="39.96379" lon="-4.80587">
        <ele>370</ele>
        <time>2020-08-16 15:28:06</time>
      </trkpt>
      <trkpt lat="39.96376" lon="-4.80617">
        <ele>370</ele>
        <time>2020-08-16 15:28:11</time>
      </trkpt>
      <trkpt lat="39.96375" lon="-4.80623">
        <ele>370</ele>
        <time>2020-08-16 15:28:12</time>
      </trkpt>
      <trkpt lat="39.96374" lon="-4.80636">
        <ele>370</ele>
        <time>2020-08-16 15:28:14</time>
      </trkpt>
      <trkpt lat="39.96373" lon="-4.80654">
        <ele>370</ele>
        <time>2020-08-16 15:28:17</time>
      </trkpt>
      <trkpt lat="39.9637" lon="-4.80666">
        <ele>369.8</ele>
        <time>2020-08-16 15:28:19</time>
      </trkpt>
      <trkpt lat="39.96368" lon="-4.80678">
        <ele>369.6</ele>
        <time>2020-08-16 15:28:21</time>
      </trkpt>
      <trkpt lat="39.96363" lon="-4.8071">
        <ele>369.4</ele>
        <time>2020-08-16 15:28:26</time>
      </trkpt>
      <trkpt lat="39.96363" lon="-4.80716">
        <ele>369.4</ele>
        <time>2020-08-16 15:28:27</time>
      </trkpt>
      <trkpt lat="39.96363" lon="-4.80722">
        <ele>369.4</ele>
        <time>2020-08-16 15:28:28</time>
      </trkpt>
      <trkpt lat="39.96362" lon="-4.80728">
        <ele>369.4</ele>
        <time>2020-08-16 15:28:29</time>
      </trkpt>
      <trkpt lat="39.96361" lon="-4.80734">
        <ele>369.4</ele>
        <time>2020-08-16 15:28:30</time>
      </trkpt>
      <trkpt lat="39.96361" lon="-4.8074">
        <ele>369.4</ele>
        <time>2020-08-16 15:28:31</time>
      </trkpt>
      <trkpt lat="39.96361" lon="-4.80746">
        <ele>369.4</ele>
        <time>2020-08-16 15:28:32</time>
      </trkpt>
      <trkpt lat="39.9636" lon="-4.80752">
        <ele>369.4</ele>
        <time>2020-08-16 15:28:33</time>
      </trkpt>
      <trkpt lat="39.96359" lon="-4.80757">
        <ele>369.4</ele>
        <time>2020-08-16 15:28:34</time>
      </trkpt>
      <trkpt lat="39.96359" lon="-4.80763">
        <ele>369.2</ele>
        <time>2020-08-16 15:28:35</time>
      </trkpt>
      <trkpt lat="39.96358" lon="-4.80769">
        <ele>369.2</ele>
        <time>2020-08-16 15:28:36</time>
      </trkpt>
      <trkpt lat="39.96358" lon="-4.80775">
        <ele>369.2</ele>
        <time>2020-08-16 15:28:37</time>
      </trkpt>
      <trkpt lat="39.96358" lon="-4.80781">
        <ele>369.2</ele>
        <time>2020-08-16 15:28:38</time>
      </trkpt>
      <trkpt lat="39.96357" lon="-4.80786">
        <ele>369.2</ele>
        <time>2020-08-16 15:28:39</time>
      </trkpt>
      <trkpt lat="39.96357" lon="-4.80792">
        <ele>369.2</ele>
        <time>2020-08-16 15:28:40</time>
      </trkpt>
      <trkpt lat="39.96356" lon="-4.80797">
        <ele>369.2</ele>
        <time>2020-08-16 15:28:41</time>
      </trkpt>
      <trkpt lat="39.96356" lon="-4.80802">
        <ele>369</ele>
        <time>2020-08-16 15:28:42</time>
      </trkpt>
      <trkpt lat="39.96355" lon="-4.80807">
        <ele>369.2</ele>
        <time>2020-08-16 15:28:43</time>
      </trkpt>
      <trkpt lat="39.96355" lon="-4.80813">
        <ele>369</ele>
        <time>2020-08-16 15:28:44</time>
      </trkpt>
      <trkpt lat="39.96354" lon="-4.80818">
        <ele>369</ele>
        <time>2020-08-16 15:28:45</time>
      </trkpt>
      <trkpt lat="39.96354" lon="-4.80824">
        <ele>369</ele>
        <time>2020-08-16 15:28:46</time>
      </trkpt>
      <trkpt lat="39.96353" lon="-4.80837">
        <ele>369.2</ele>
        <time>2020-08-16 15:28:48</time>
      </trkpt>
      <trkpt lat="39.96352" lon="-4.80849">
        <ele>369</ele>
        <time>2020-08-16 15:28:50</time>
      </trkpt>
      <trkpt lat="39.96352" lon="-4.80855">
        <ele>368.8</ele>
        <time>2020-08-16 15:28:51</time>
      </trkpt>
      <trkpt lat="39.96351" lon="-4.80861">
        <ele>369</ele>
        <time>2020-08-16 15:28:52</time>
      </trkpt>
      <trkpt lat="39.96349" lon="-4.80897">
        <ele>368.8</ele>
        <time>2020-08-16 15:28:58</time>
      </trkpt>
      <trkpt lat="39.96349" lon="-4.80903">
        <ele>368.8</ele>
        <time>2020-08-16 15:28:59</time>
      </trkpt>
      <trkpt lat="39.96348" lon="-4.8091">
        <ele>368.6</ele>
        <time>2020-08-16 15:29:00</time>
      </trkpt>
      <trkpt lat="39.96348" lon="-4.80915">
        <ele>368.6</ele>
        <time>2020-08-16 15:29:01</time>
      </trkpt>
      <trkpt lat="39.96348" lon="-4.80921">
        <ele>368.6</ele>
        <time>2020-08-16 15:29:02</time>
      </trkpt>
      <trkpt lat="39.96348" lon="-4.80927">
        <ele>368.6</ele>
        <time>2020-08-16 15:29:03</time>
      </trkpt>
      <trkpt lat="39.96347" lon="-4.80933">
        <ele>368.6</ele>
        <time>2020-08-16 15:29:04</time>
      </trkpt>
      <trkpt lat="39.96347" lon="-4.80938">
        <ele>368.6</ele>
        <time>2020-08-16 15:29:05</time>
      </trkpt>
      <trkpt lat="39.96347" lon="-4.80944">
        <ele>368.6</ele>
        <time>2020-08-16 15:29:06</time>
      </trkpt>
      <trkpt lat="39.96346" lon="-4.8095">
        <ele>368.6</ele>
        <time>2020-08-16 15:29:07</time>
      </trkpt>
      <trkpt lat="39.96346" lon="-4.80956">
        <ele>368.4</ele>
        <time>2020-08-16 15:29:08</time>
      </trkpt>
      <trkpt lat="39.96346" lon="-4.80962">
        <ele>368.4</ele>
        <time>2020-08-16 15:29:09</time>
      </trkpt>
      <trkpt lat="39.96345" lon="-4.80968">
        <ele>368.4</ele>
        <time>2020-08-16 15:29:10</time>
      </trkpt>
      <trkpt lat="39.96345" lon="-4.80974">
        <ele>368.4</ele>
        <time>2020-08-16 15:29:11</time>
      </trkpt>
      <trkpt lat="39.96343" lon="-4.80997">
        <ele>368.4</ele>
        <time>2020-08-16 15:29:15</time>
      </trkpt>
      <trkpt lat="39.96343" lon="-4.81003">
        <ele>368.4</ele>
        <time>2020-08-16 15:29:16</time>
      </trkpt>
      <trkpt lat="39.96342" lon="-4.8101">
        <ele>368.4</ele>
        <time>2020-08-16 15:29:17</time>
      </trkpt>
      <trkpt lat="39.96341" lon="-4.81022">
        <ele>368.6</ele>
        <time>2020-08-16 15:29:19</time>
      </trkpt>
      <trkpt lat="39.9634" lon="-4.81028">
        <ele>368.6</ele>
        <time>2020-08-16 15:29:20</time>
      </trkpt>
      <trkpt lat="39.96339" lon="-4.81034">
        <ele>368.8</ele>
        <time>2020-08-16 15:29:21</time>
      </trkpt>
      <trkpt lat="39.96339" lon="-4.8104">
        <ele>368.8</ele>
        <time>2020-08-16 15:29:22</time>
      </trkpt>
      <trkpt lat="39.96338" lon="-4.81046">
        <ele>368.6</ele>
        <time>2020-08-16 15:29:23</time>
      </trkpt>
      <trkpt lat="39.96335" lon="-4.81058">
        <ele>368.4</ele>
        <time>2020-08-16 15:29:25</time>
      </trkpt>
      <trkpt lat="39.96333" lon="-4.8107">
        <ele>368.4</ele>
        <time>2020-08-16 15:29:27</time>
      </trkpt>
      <trkpt lat="39.96332" lon="-4.81076">
        <ele>368.2</ele>
        <time>2020-08-16 15:29:28</time>
      </trkpt>
      <trkpt lat="39.96332" lon="-4.81082">
        <ele>368.2</ele>
        <time>2020-08-16 15:29:29</time>
      </trkpt>
      <trkpt lat="39.96331" lon="-4.81088">
        <ele>368.2</ele>
        <time>2020-08-16 15:29:30</time>
      </trkpt>
      <trkpt lat="39.96329" lon="-4.81093">
        <ele>368.2</ele>
        <time>2020-08-16 15:29:31</time>
      </trkpt>
      <trkpt lat="39.96327" lon="-4.81105">
        <ele>368</ele>
        <time>2020-08-16 15:29:33</time>
      </trkpt>
      <trkpt lat="39.96326" lon="-4.81111">
        <ele>368</ele>
        <time>2020-08-16 15:29:34</time>
      </trkpt>
      <trkpt lat="39.96326" lon="-4.81116">
        <ele>368</ele>
        <time>2020-08-16 15:29:35</time>
      </trkpt>
      <trkpt lat="39.96325" lon="-4.81121">
        <ele>368</ele>
        <time>2020-08-16 15:29:36</time>
      </trkpt>
      <trkpt lat="39.96325" lon="-4.81126">
        <ele>368</ele>
        <time>2020-08-16 15:29:37</time>
      </trkpt>
      <trkpt lat="39.96324" lon="-4.8113">
        <ele>368.2</ele>
        <time>2020-08-16 15:29:38</time>
      </trkpt>
      <trkpt lat="39.96323" lon="-4.81135">
        <ele>368.2</ele>
        <time>2020-08-16 15:29:39</time>
      </trkpt>
      <trkpt lat="39.96322" lon="-4.8114">
        <ele>368</ele>
        <time>2020-08-16 15:29:40</time>
      </trkpt>
      <trkpt lat="39.96321" lon="-4.81144">
        <ele>368</ele>
        <time>2020-08-16 15:29:41</time>
      </trkpt>
      <trkpt lat="39.9632" lon="-4.81149">
        <ele>368.2</ele>
        <time>2020-08-16 15:29:42</time>
      </trkpt>
      <trkpt lat="39.96319" lon="-4.81154">
        <ele>368.2</ele>
        <time>2020-08-16 15:29:43</time>
      </trkpt>
      <trkpt lat="39.96317" lon="-4.81158">
        <ele>368.2</ele>
        <time>2020-08-16 15:29:44</time>
      </trkpt>
      <trkpt lat="39.96314" lon="-4.81162">
        <ele>368.2</ele>
        <time>2020-08-16 15:29:45</time>
      </trkpt>
      <trkpt lat="39.9631" lon="-4.81163">
        <ele>368.4</ele>
        <time>2020-08-16 15:29:46</time>
      </trkpt>
      <trkpt lat="39.963" lon="-4.8116">
        <ele>368.6</ele>
        <time>2020-08-16 15:29:48</time>
      </trkpt>
      <trkpt lat="39.96288" lon="-4.81154">
        <ele>368.8</ele>
        <time>2020-08-16 15:29:51</time>
      </trkpt>
      <trkpt lat="39.96285" lon="-4.81153">
        <ele>368.8</ele>
        <time>2020-08-16 15:29:52</time>
      </trkpt>
      <trkpt lat="39.96281" lon="-4.81155">
        <ele>368.8</ele>
        <time>2020-08-16 15:29:53</time>
      </trkpt>
      <trkpt lat="39.96279" lon="-4.81157">
        <ele>368.8</ele>
        <time>2020-08-16 15:29:54</time>
      </trkpt>
      <trkpt lat="39.96279" lon="-4.81159">
        <ele>368.8</ele>
        <time>2020-08-16 15:29:55</time>
      </trkpt>
      <trkpt lat="39.96281" lon="-4.81161">
        <ele>368.8</ele>
        <time>2020-08-16 15:29:56</time>
      </trkpt>
      <trkpt lat="39.96283" lon="-4.81162">
        <ele>368.6</ele>
        <time>2020-08-16 15:29:57</time>
      </trkpt>
      <trkpt lat="39.96285" lon="-4.81165">
        <ele>368.6</ele>
        <time>2020-08-16 15:29:58</time>
      </trkpt>
      <trkpt lat="39.96285" lon="-4.8117">
        <ele>368.6</ele>
        <time>2020-08-16 15:29:59</time>
      </trkpt>
      <trkpt lat="39.96285" lon="-4.81175">
        <ele>368.6</ele>
        <time>2020-08-16 15:30:00</time>
      </trkpt>
      <trkpt lat="39.96282" lon="-4.81188">
        <ele>368.8</ele>
        <time>2020-08-16 15:30:03</time>
      </trkpt>
      <trkpt lat="39.96279" lon="-4.81208">
        <ele>368.6</ele>
        <time>2020-08-16 15:30:07</time>
      </trkpt>
      <trkpt lat="39.96277" lon="-4.81225">
        <ele>368.8</ele>
        <time>2020-08-16 15:30:10</time>
      </trkpt>
      <trkpt lat="39.96273" lon="-4.81253">
        <ele>368.6</ele>
        <time>2020-08-16 15:30:15</time>
      </trkpt>
      <trkpt lat="39.96273" lon="-4.81257">
        <ele>368.6</ele>
        <time>2020-08-16 15:30:16</time>
      </trkpt>
      <trkpt lat="39.96272" lon="-4.81263">
        <ele>368.6</ele>
        <time>2020-08-16 15:30:17</time>
      </trkpt>
      <trkpt lat="39.96271" lon="-4.81268">
        <ele>368.6</ele>
        <time>2020-08-16 15:30:18</time>
      </trkpt>
      <trkpt lat="39.96271" lon="-4.81273">
        <ele>368.6</ele>
        <time>2020-08-16 15:30:19</time>
      </trkpt>
      <trkpt lat="39.96271" lon="-4.81278">
        <ele>368.6</ele>
        <time>2020-08-16 15:30:20</time>
      </trkpt>
      <trkpt lat="39.9627" lon="-4.81283">
        <ele>368.6</ele>
        <time>2020-08-16 15:30:21</time>
      </trkpt>
      <trkpt lat="39.96269" lon="-4.81288">
        <ele>368.6</ele>
        <time>2020-08-16 15:30:22</time>
      </trkpt>
      <trkpt lat="39.96269" lon="-4.81293">
        <ele>368.6</ele>
        <time>2020-08-16 15:30:23</time>
      </trkpt>
      <trkpt lat="39.96268" lon="-4.81298">
        <ele>368.6</ele>
        <time>2020-08-16 15:30:24</time>
      </trkpt>
      <trkpt lat="39.96267" lon="-4.81306">
        <ele>368.6</ele>
        <time>2020-08-16 15:30:26</time>
      </trkpt>
      <trkpt lat="39.96266" lon="-4.8131">
        <ele>368.6</ele>
        <time>2020-08-16 15:30:27</time>
      </trkpt>
      <trkpt lat="39.96266" lon="-4.81313">
        <ele>368.6</ele>
        <time>2020-08-16 15:30:28</time>
      </trkpt>
      <trkpt lat="39.96265" lon="-4.81318">
        <ele>368.6</ele>
        <time>2020-08-16 15:30:29</time>
      </trkpt>
      <trkpt lat="39.96264" lon="-4.81322">
        <ele>368.6</ele>
        <time>2020-08-16 15:30:30</time>
      </trkpt>
      <trkpt lat="39.96264" lon="-4.81327">
        <ele>368.6</ele>
        <time>2020-08-16 15:30:31</time>
      </trkpt>
      <trkpt lat="39.96263" lon="-4.81332">
        <ele>368.6</ele>
        <time>2020-08-16 15:30:32</time>
      </trkpt>
      <trkpt lat="39.96262" lon="-4.81337">
        <ele>368.6</ele>
        <time>2020-08-16 15:30:33</time>
      </trkpt>
      <trkpt lat="39.96261" lon="-4.81342">
        <ele>368.6</ele>
        <time>2020-08-16 15:30:34</time>
      </trkpt>
      <trkpt lat="39.96256" lon="-4.81372">
        <ele>368.6</ele>
        <time>2020-08-16 15:30:40</time>
      </trkpt>
      <trkpt lat="39.96253" lon="-4.81382">
        <ele>368.6</ele>
        <time>2020-08-16 15:30:42</time>
      </trkpt>
      <trkpt lat="39.9625" lon="-4.81399">
        <ele>368.4</ele>
        <time>2020-08-16 15:30:45</time>
      </trkpt>
      <trkpt lat="39.96248" lon="-4.8141">
        <ele>368.6</ele>
        <time>2020-08-16 15:30:47</time>
      </trkpt>
      <trkpt lat="39.96246" lon="-4.81421">
        <ele>368.6</ele>
        <time>2020-08-16 15:30:49</time>
      </trkpt>
      <trkpt lat="39.96244" lon="-4.81432">
        <ele>368.4</ele>
        <time>2020-08-16 15:30:51</time>
      </trkpt>
      <trkpt lat="39.96238" lon="-4.8146">
        <ele>368.6</ele>
        <time>2020-08-16 15:30:56</time>
      </trkpt>
      <trkpt lat="39.96236" lon="-4.81472">
        <ele>368.6</ele>
        <time>2020-08-16 15:30:58</time>
      </trkpt>
      <trkpt lat="39.96234" lon="-4.81483">
        <ele>368.6</ele>
        <time>2020-08-16 15:31:00</time>
      </trkpt>
      <trkpt lat="39.96231" lon="-4.81495">
        <ele>368.4</ele>
        <time>2020-08-16 15:31:02</time>
      </trkpt>
      <trkpt lat="39.96231" lon="-4.81501">
        <ele>368.4</ele>
        <time>2020-08-16 15:31:03</time>
      </trkpt>
      <trkpt lat="39.96229" lon="-4.81506">
        <ele>368.4</ele>
        <time>2020-08-16 15:31:04</time>
      </trkpt>
      <trkpt lat="39.96229" lon="-4.81511">
        <ele>368.4</ele>
        <time>2020-08-16 15:31:05</time>
      </trkpt>
      <trkpt lat="39.96228" lon="-4.81516">
        <ele>368.4</ele>
        <time>2020-08-16 15:31:06</time>
      </trkpt>
      <trkpt lat="39.96224" lon="-4.81531">
        <ele>368.4</ele>
        <time>2020-08-16 15:31:09</time>
      </trkpt>
      <trkpt lat="39.96222" lon="-4.81535">
        <ele>368.4</ele>
        <time>2020-08-16 15:31:10</time>
      </trkpt>
      <trkpt lat="39.9622" lon="-4.81536">
        <ele>368.4</ele>
        <time>2020-08-16 15:31:11</time>
      </trkpt>
      <trkpt lat="39.96218" lon="-4.81537">
        <ele>368.4</ele>
        <time>2020-08-16 15:31:12</time>
      </trkpt>
      <trkpt lat="39.96216" lon="-4.81538">
        <ele>368.4</ele>
        <time>2020-08-16 15:31:13</time>
      </trkpt>
      <trkpt lat="39.96215" lon="-4.81541">
        <ele>368.2</ele>
        <time>2020-08-16 15:31:14</time>
      </trkpt>
      <trkpt lat="39.96215" lon="-4.81544">
        <ele>368.2</ele>
        <time>2020-08-16 15:31:15</time>
      </trkpt>
      <trkpt lat="39.96215" lon="-4.81553">
        <ele>368.2</ele>
        <time>2020-08-16 15:31:17</time>
      </trkpt>
      <trkpt lat="39.96215" lon="-4.81562">
        <ele>368.2</ele>
        <time>2020-08-16 15:31:19</time>
      </trkpt>
      <trkpt lat="39.96215" lon="-4.81566">
        <ele>368</ele>
        <time>2020-08-16 15:31:20</time>
      </trkpt>
      <trkpt lat="39.96214" lon="-4.81571">
        <ele>368</ele>
        <time>2020-08-16 15:31:21</time>
      </trkpt>
      <trkpt lat="39.96211" lon="-4.81578">
        <ele>368</ele>
        <time>2020-08-16 15:31:23</time>
      </trkpt>
      <trkpt lat="39.9621" lon="-4.81582">
        <ele>368</ele>
        <time>2020-08-16 15:31:24</time>
      </trkpt>
      <trkpt lat="39.96209" lon="-4.81586">
        <ele>368</ele>
        <time>2020-08-16 15:31:25</time>
      </trkpt>
      <trkpt lat="39.96207" lon="-4.81599">
        <ele>368</ele>
        <time>2020-08-16 15:31:28</time>
      </trkpt>
      <trkpt lat="39.96206" lon="-4.81604">
        <ele>368</ele>
        <time>2020-08-16 15:31:29</time>
      </trkpt>
      <trkpt lat="39.96204" lon="-4.81608">
        <ele>368.2</ele>
        <time>2020-08-16 15:31:30</time>
      </trkpt>
      <trkpt lat="39.96199" lon="-4.81634">
        <ele>368.2</ele>
        <time>2020-08-16 15:31:35</time>
      </trkpt>
      <trkpt lat="39.96199" lon="-4.81639">
        <ele>368</ele>
        <time>2020-08-16 15:31:36</time>
      </trkpt>
      <trkpt lat="39.96198" lon="-4.81643">
        <ele>368</ele>
        <time>2020-08-16 15:31:37</time>
      </trkpt>
      <trkpt lat="39.96196" lon="-4.81653">
        <ele>368</ele>
        <time>2020-08-16 15:31:39</time>
      </trkpt>
      <trkpt lat="39.96195" lon="-4.81657">
        <ele>368</ele>
        <time>2020-08-16 15:31:40</time>
      </trkpt>
      <trkpt lat="39.96194" lon="-4.81661">
        <ele>368</ele>
        <time>2020-08-16 15:31:41</time>
      </trkpt>
      <trkpt lat="39.96192" lon="-4.81666">
        <ele>367.8</ele>
        <time>2020-08-16 15:31:42</time>
      </trkpt>
      <trkpt lat="39.9619" lon="-4.8167">
        <ele>367.6</ele>
        <time>2020-08-16 15:31:43</time>
      </trkpt>
      <trkpt lat="39.96189" lon="-4.81674">
        <ele>367.8</ele>
        <time>2020-08-16 15:31:44</time>
      </trkpt>
      <trkpt lat="39.96187" lon="-4.81678">
        <ele>367.6</ele>
        <time>2020-08-16 15:31:45</time>
      </trkpt>
      <trkpt lat="39.96186" lon="-4.81683">
        <ele>367.8</ele>
        <time>2020-08-16 15:31:46</time>
      </trkpt>
      <trkpt lat="39.96185" lon="-4.81688">
        <ele>367.6</ele>
        <time>2020-08-16 15:31:47</time>
      </trkpt>
      <trkpt lat="39.96184" lon="-4.81694">
        <ele>367.6</ele>
        <time>2020-08-16 15:31:48</time>
      </trkpt>
      <trkpt lat="39.96183" lon="-4.817">
        <ele>367.8</ele>
        <time>2020-08-16 15:31:49</time>
      </trkpt>
      <trkpt lat="39.96182" lon="-4.8171">
        <ele>367.6</ele>
        <time>2020-08-16 15:31:51</time>
      </trkpt>
      <trkpt lat="39.96179" lon="-4.81726">
        <ele>367.8</ele>
        <time>2020-08-16 15:31:54</time>
      </trkpt>
      <trkpt lat="39.96178" lon="-4.81731">
        <ele>367.8</ele>
        <time>2020-08-16 15:31:55</time>
      </trkpt>
      <trkpt lat="39.96177" lon="-4.81736">
        <ele>367.8</ele>
        <time>2020-08-16 15:31:56</time>
      </trkpt>
      <trkpt lat="39.96175" lon="-4.81751">
        <ele>367.8</ele>
        <time>2020-08-16 15:31:59</time>
      </trkpt>
      <trkpt lat="39.96174" lon="-4.81756">
        <ele>368</ele>
        <time>2020-08-16 15:32:00</time>
      </trkpt>
      <trkpt lat="39.96173" lon="-4.81761">
        <ele>368</ele>
        <time>2020-08-16 15:32:01</time>
      </trkpt>
      <trkpt lat="39.96172" lon="-4.81766">
        <ele>368</ele>
        <time>2020-08-16 15:32:02</time>
      </trkpt>
      <trkpt lat="39.96171" lon="-4.8177">
        <ele>367.8</ele>
        <time>2020-08-16 15:32:03</time>
      </trkpt>
      <trkpt lat="39.96171" lon="-4.81776">
        <ele>367.8</ele>
        <time>2020-08-16 15:32:04</time>
      </trkpt>
      <trkpt lat="39.9617" lon="-4.8178">
        <ele>367.8</ele>
        <time>2020-08-16 15:32:05</time>
      </trkpt>
      <trkpt lat="39.96169" lon="-4.81785">
        <ele>367.8</ele>
        <time>2020-08-16 15:32:06</time>
      </trkpt>
      <trkpt lat="39.96168" lon="-4.81789">
        <ele>368</ele>
        <time>2020-08-16 15:32:07</time>
      </trkpt>
      <trkpt lat="39.96167" lon="-4.81793">
        <ele>368.2</ele>
        <time>2020-08-16 15:32:08</time>
      </trkpt>
      <trkpt lat="39.96167" lon="-4.81797">
        <ele>368.2</ele>
        <time>2020-08-16 15:32:09</time>
      </trkpt>
      <trkpt lat="39.96166" lon="-4.81801">
        <ele>368.2</ele>
        <time>2020-08-16 15:32:10</time>
      </trkpt>
      <trkpt lat="39.96165" lon="-4.81805">
        <ele>368.4</ele>
        <time>2020-08-16 15:32:11</time>
      </trkpt>
      <trkpt lat="39.96164" lon="-4.81809">
        <ele>368.4</ele>
        <time>2020-08-16 15:32:12</time>
      </trkpt>
      <trkpt lat="39.96163" lon="-4.81813">
        <ele>368.4</ele>
        <time>2020-08-16 15:32:13</time>
      </trkpt>
      <trkpt lat="39.96162" lon="-4.81817">
        <ele>368.4</ele>
        <time>2020-08-16 15:32:14</time>
      </trkpt>
      <trkpt lat="39.96162" lon="-4.81822">
        <ele>368.4</ele>
        <time>2020-08-16 15:32:15</time>
      </trkpt>
      <trkpt lat="39.96161" lon="-4.81826">
        <ele>368.4</ele>
        <time>2020-08-16 15:32:16</time>
      </trkpt>
      <trkpt lat="39.9616" lon="-4.8183">
        <ele>368.4</ele>
        <time>2020-08-16 15:32:17</time>
      </trkpt>
      <trkpt lat="39.96159" lon="-4.81834">
        <ele>368.4</ele>
        <time>2020-08-16 15:32:18</time>
      </trkpt>
      <trkpt lat="39.96157" lon="-4.81838">
        <ele>368.6</ele>
        <time>2020-08-16 15:32:19</time>
      </trkpt>
      <trkpt lat="39.96157" lon="-4.81841">
        <ele>368.6</ele>
        <time>2020-08-16 15:32:20</time>
      </trkpt>
      <trkpt lat="39.96155" lon="-4.81844">
        <ele>368.6</ele>
        <time>2020-08-16 15:32:21</time>
      </trkpt>
      <trkpt lat="39.96153" lon="-4.81845">
        <ele>368.6</ele>
        <time>2020-08-16 15:32:22</time>
      </trkpt>
      <trkpt lat="39.9615" lon="-4.81847">
        <ele>368.6</ele>
        <time>2020-08-16 15:32:23</time>
      </trkpt>
      <trkpt lat="39.96148" lon="-4.81847">
        <ele>368.6</ele>
        <time>2020-08-16 15:32:24</time>
      </trkpt>
      <trkpt lat="39.96147" lon="-4.81849">
        <ele>368.6</ele>
        <time>2020-08-16 15:32:25</time>
      </trkpt>
      <trkpt lat="39.96146" lon="-4.8185">
        <ele>368.6</ele>
        <time>2020-08-16 15:32:26</time>
      </trkpt>
      <trkpt lat="39.96147" lon="-4.81851">
        <ele>368.6</ele>
        <time>2020-08-16 15:32:27</time>
      </trkpt>
      <trkpt lat="39.96148" lon="-4.81853">
        <ele>368.4</ele>
        <time>2020-08-16 15:32:29</time>
      </trkpt>
      <trkpt lat="39.96149" lon="-4.81854">
        <ele>368.4</ele>
        <time>2020-08-16 15:32:30</time>
      </trkpt>
      <trkpt lat="39.96151" lon="-4.81855">
        <ele>368.4</ele>
        <time>2020-08-16 15:32:31</time>
      </trkpt>
      <trkpt lat="39.96153" lon="-4.81856">
        <ele>368.2</ele>
        <time>2020-08-16 15:32:32</time>
      </trkpt>
      <trkpt lat="39.96155" lon="-4.81857">
        <ele>368.2</ele>
        <time>2020-08-16 15:32:33</time>
      </trkpt>
      <trkpt lat="39.96157" lon="-4.81858">
        <ele>368.2</ele>
        <time>2020-08-16 15:32:34</time>
      </trkpt>
      <trkpt lat="39.96159" lon="-4.81858">
        <ele>368.2</ele>
        <time>2020-08-16 15:32:35</time>
      </trkpt>
      <trkpt lat="39.96163" lon="-4.81859">
        <ele>368.2</ele>
        <time>2020-08-16 15:32:36</time>
      </trkpt>
      <trkpt lat="39.96166" lon="-4.81861">
        <ele>368.2</ele>
        <time>2020-08-16 15:32:37</time>
      </trkpt>
      <trkpt lat="39.96169" lon="-4.81862">
        <ele>368.2</ele>
        <time>2020-08-16 15:32:38</time>
      </trkpt>
      <trkpt lat="39.96171" lon="-4.81865">
        <ele>368.2</ele>
        <time>2020-08-16 15:32:39</time>
      </trkpt>
      <trkpt lat="39.96173" lon="-4.81868">
        <ele>368.2</ele>
        <time>2020-08-16 15:32:40</time>
      </trkpt>
      <trkpt lat="39.96175" lon="-4.81873">
        <ele>368.2</ele>
        <time>2020-08-16 15:32:41</time>
      </trkpt>
      <trkpt lat="39.96176" lon="-4.81884">
        <ele>368.4</ele>
        <time>2020-08-16 15:32:43</time>
      </trkpt>
      <trkpt lat="39.96176" lon="-4.8189">
        <ele>368.6</ele>
        <time>2020-08-16 15:32:44</time>
      </trkpt>
      <trkpt lat="39.96175" lon="-4.81896">
        <ele>368.8</ele>
        <time>2020-08-16 15:32:45</time>
      </trkpt>
      <trkpt lat="39.96174" lon="-4.81902">
        <ele>369</ele>
        <time>2020-08-16 15:32:46</time>
      </trkpt>
      <trkpt lat="39.96174" lon="-4.81908">
        <ele>369</ele>
        <time>2020-08-16 15:32:47</time>
      </trkpt>
      <trkpt lat="39.96174" lon="-4.81913">
        <ele>369</ele>
        <time>2020-08-16 15:32:48</time>
      </trkpt>
      <trkpt lat="39.96173" lon="-4.81919">
        <ele>369.2</ele>
        <time>2020-08-16 15:32:49</time>
      </trkpt>
      <trkpt lat="39.96172" lon="-4.81924">
        <ele>369.2</ele>
        <time>2020-08-16 15:32:50</time>
      </trkpt>
      <trkpt lat="39.96172" lon="-4.81929">
        <ele>369.2</ele>
        <time>2020-08-16 15:32:51</time>
      </trkpt>
      <trkpt lat="39.96172" lon="-4.81934">
        <ele>369.2</ele>
        <time>2020-08-16 15:32:52</time>
      </trkpt>
      <trkpt lat="39.96172" lon="-4.81938">
        <ele>369.2</ele>
        <time>2020-08-16 15:32:53</time>
      </trkpt>
      <trkpt lat="39.96173" lon="-4.81943">
        <ele>369.2</ele>
        <time>2020-08-16 15:32:54</time>
      </trkpt>
      <trkpt lat="39.96173" lon="-4.81948">
        <ele>369.2</ele>
        <time>2020-08-16 15:32:55</time>
      </trkpt>
      <trkpt lat="39.96174" lon="-4.81953">
        <ele>369.4</ele>
        <time>2020-08-16 15:32:56</time>
      </trkpt>
      <trkpt lat="39.96173" lon="-4.81957">
        <ele>369.4</ele>
        <time>2020-08-16 15:32:57</time>
      </trkpt>
      <trkpt lat="39.96173" lon="-4.81963">
        <ele>369.4</ele>
        <time>2020-08-16 15:32:58</time>
      </trkpt>
      <trkpt lat="39.96173" lon="-4.81968">
        <ele>369.4</ele>
        <time>2020-08-16 15:32:59</time>
      </trkpt>
      <trkpt lat="39.96172" lon="-4.81974">
        <ele>369.6</ele>
        <time>2020-08-16 15:33:00</time>
      </trkpt>
      <trkpt lat="39.96172" lon="-4.8198">
        <ele>369.6</ele>
        <time>2020-08-16 15:33:01</time>
      </trkpt>
      <trkpt lat="39.96171" lon="-4.81991">
        <ele>369.6</ele>
        <time>2020-08-16 15:33:03</time>
      </trkpt>
      <trkpt lat="39.96172" lon="-4.81996">
        <ele>369.6</ele>
        <time>2020-08-16 15:33:04</time>
      </trkpt>
      <trkpt lat="39.96173" lon="-4.82017">
        <ele>369.6</ele>
        <time>2020-08-16 15:33:08</time>
      </trkpt>
      <trkpt lat="39.96174" lon="-4.82022">
        <ele>369.8</ele>
        <time>2020-08-16 15:33:09</time>
      </trkpt>
      <trkpt lat="39.96174" lon="-4.82027">
        <ele>369.8</ele>
        <time>2020-08-16 15:33:10</time>
      </trkpt>
      <trkpt lat="39.96173" lon="-4.82032">
        <ele>369.8</ele>
        <time>2020-08-16 15:33:11</time>
      </trkpt>
      <trkpt lat="39.96173" lon="-4.82037">
        <ele>369.8</ele>
        <time>2020-08-16 15:33:12</time>
      </trkpt>
      <trkpt lat="39.96172" lon="-4.82043">
        <ele>369.8</ele>
        <time>2020-08-16 15:33:13</time>
      </trkpt>
      <trkpt lat="39.96172" lon="-4.82048">
        <ele>369.8</ele>
        <time>2020-08-16 15:33:14</time>
      </trkpt>
      <trkpt lat="39.96171" lon="-4.82053">
        <ele>369.8</ele>
        <time>2020-08-16 15:33:15</time>
      </trkpt>
      <trkpt lat="39.96171" lon="-4.82058">
        <ele>369.8</ele>
        <time>2020-08-16 15:33:16</time>
      </trkpt>
      <trkpt lat="39.96173" lon="-4.82062">
        <ele>369.8</ele>
        <time>2020-08-16 15:33:17</time>
      </trkpt>
      <trkpt lat="39.96174" lon="-4.82067">
        <ele>370</ele>
        <time>2020-08-16 15:33:18</time>
      </trkpt>
      <trkpt lat="39.96174" lon="-4.82071">
        <ele>370</ele>
        <time>2020-08-16 15:33:19</time>
      </trkpt>
      <trkpt lat="39.96175" lon="-4.82076">
        <ele>370</ele>
        <time>2020-08-16 15:33:20</time>
      </trkpt>
      <trkpt lat="39.96175" lon="-4.8208">
        <ele>370</ele>
        <time>2020-08-16 15:33:21</time>
      </trkpt>
      <trkpt lat="39.96176" lon="-4.8209">
        <ele>370</ele>
        <time>2020-08-16 15:33:23</time>
      </trkpt>
      <trkpt lat="39.96177" lon="-4.82096">
        <ele>370</ele>
        <time>2020-08-16 15:33:24</time>
      </trkpt>
      <trkpt lat="39.96177" lon="-4.82113">
        <ele>370.2</ele>
        <time>2020-08-16 15:33:27</time>
      </trkpt>
      <trkpt lat="39.96176" lon="-4.82118">
        <ele>370.2</ele>
        <time>2020-08-16 15:33:28</time>
      </trkpt>
      <trkpt lat="39.96176" lon="-4.82128">
        <ele>370.2</ele>
        <time>2020-08-16 15:33:30</time>
      </trkpt>
      <trkpt lat="39.96176" lon="-4.8214">
        <ele>370</ele>
        <time>2020-08-16 15:33:32</time>
      </trkpt>
      <trkpt lat="39.96176" lon="-4.82145">
        <ele>370</ele>
        <time>2020-08-16 15:33:33</time>
      </trkpt>
      <trkpt lat="39.96177" lon="-4.82162">
        <ele>370</ele>
        <time>2020-08-16 15:33:36</time>
      </trkpt>
      <trkpt lat="39.96177" lon="-4.82166">
        <ele>370.2</ele>
        <time>2020-08-16 15:33:37</time>
      </trkpt>
      <trkpt lat="39.96177" lon="-4.82183">
        <ele>370.2</ele>
        <time>2020-08-16 15:33:40</time>
      </trkpt>
      <trkpt lat="39.96177" lon="-4.82188">
        <ele>370.2</ele>
        <time>2020-08-16 15:33:41</time>
      </trkpt>
      <trkpt lat="39.96177" lon="-4.82193">
        <ele>370.2</ele>
        <time>2020-08-16 15:33:42</time>
      </trkpt>
      <trkpt lat="39.96175" lon="-4.82198">
        <ele>370.2</ele>
        <time>2020-08-16 15:33:43</time>
      </trkpt>
      <trkpt lat="39.96175" lon="-4.82204">
        <ele>370.2</ele>
        <time>2020-08-16 15:33:44</time>
      </trkpt>
      <trkpt lat="39.96175" lon="-4.8221">
        <ele>370.4</ele>
        <time>2020-08-16 15:33:45</time>
      </trkpt>
      <trkpt lat="39.96176" lon="-4.82215">
        <ele>370.4</ele>
        <time>2020-08-16 15:33:46</time>
      </trkpt>
      <trkpt lat="39.96176" lon="-4.8222">
        <ele>370.4</ele>
        <time>2020-08-16 15:33:47</time>
      </trkpt>
      <trkpt lat="39.96177" lon="-4.82225">
        <ele>370.4</ele>
        <time>2020-08-16 15:33:48</time>
      </trkpt>
      <trkpt lat="39.96177" lon="-4.82229">
        <ele>370.4</ele>
        <time>2020-08-16 15:33:49</time>
      </trkpt>
      <trkpt lat="39.96178" lon="-4.82234">
        <ele>370.4</ele>
        <time>2020-08-16 15:33:50</time>
      </trkpt>
      <trkpt lat="39.96178" lon="-4.82239">
        <ele>370.4</ele>
        <time>2020-08-16 15:33:51</time>
      </trkpt>
      <trkpt lat="39.96178" lon="-4.82244">
        <ele>370.4</ele>
        <time>2020-08-16 15:33:52</time>
      </trkpt>
      <trkpt lat="39.96178" lon="-4.82249">
        <ele>370.4</ele>
        <time>2020-08-16 15:33:53</time>
      </trkpt>
      <trkpt lat="39.96178" lon="-4.82254">
        <ele>370.6</ele>
        <time>2020-08-16 15:33:54</time>
      </trkpt>
      <trkpt lat="39.96179" lon="-4.82259">
        <ele>370.6</ele>
        <time>2020-08-16 15:33:55</time>
      </trkpt>
      <trkpt lat="39.96179" lon="-4.82264">
        <ele>370.6</ele>
        <time>2020-08-16 15:33:56</time>
      </trkpt>
      <trkpt lat="39.9618" lon="-4.82269">
        <ele>370.4</ele>
        <time>2020-08-16 15:33:57</time>
      </trkpt>
      <trkpt lat="39.9618" lon="-4.82274">
        <ele>370.6</ele>
        <time>2020-08-16 15:33:58</time>
      </trkpt>
      <trkpt lat="39.9618" lon="-4.82279">
        <ele>370.6</ele>
        <time>2020-08-16 15:33:59</time>
      </trkpt>
      <trkpt lat="39.96179" lon="-4.82285">
        <ele>370.6</ele>
        <time>2020-08-16 15:34:00</time>
      </trkpt>
      <trkpt lat="39.9618" lon="-4.82324">
        <ele>370.6</ele>
        <time>2020-08-16 15:34:07</time>
      </trkpt>
      <trkpt lat="39.9618" lon="-4.8233">
        <ele>370.6</ele>
        <time>2020-08-16 15:34:08</time>
      </trkpt>
      <trkpt lat="39.96179" lon="-4.82336">
        <ele>370.6</ele>
        <time>2020-08-16 15:34:09</time>
      </trkpt>
      <trkpt lat="39.96179" lon="-4.82342">
        <ele>370.6</ele>
        <time>2020-08-16 15:34:10</time>
      </trkpt>
      <trkpt lat="39.9618" lon="-4.82348">
        <ele>370.6</ele>
        <time>2020-08-16 15:34:11</time>
      </trkpt>
      <trkpt lat="39.96179" lon="-4.82354">
        <ele>370.6</ele>
        <time>2020-08-16 15:34:12</time>
      </trkpt>
      <trkpt lat="39.96178" lon="-4.82366">
        <ele>370.6</ele>
        <time>2020-08-16 15:34:14</time>
      </trkpt>
      <trkpt lat="39.96178" lon="-4.82383">
        <ele>370.6</ele>
        <time>2020-08-16 15:34:17</time>
      </trkpt>
      <trkpt lat="39.96178" lon="-4.82389">
        <ele>370.6</ele>
        <time>2020-08-16 15:34:18</time>
      </trkpt>
      <trkpt lat="39.96178" lon="-4.82394">
        <ele>370.8</ele>
        <time>2020-08-16 15:34:19</time>
      </trkpt>
      <trkpt lat="39.96178" lon="-4.824">
        <ele>370.8</ele>
        <time>2020-08-16 15:34:20</time>
      </trkpt>
      <trkpt lat="39.96177" lon="-4.82406">
        <ele>370.8</ele>
        <time>2020-08-16 15:34:21</time>
      </trkpt>
      <trkpt lat="39.96176" lon="-4.82412">
        <ele>370.8</ele>
        <time>2020-08-16 15:34:22</time>
      </trkpt>
      <trkpt lat="39.96176" lon="-4.82418">
        <ele>370.8</ele>
        <time>2020-08-16 15:34:23</time>
      </trkpt>
      <trkpt lat="39.96177" lon="-4.82423">
        <ele>370.8</ele>
        <time>2020-08-16 15:34:24</time>
      </trkpt>
      <trkpt lat="39.96176" lon="-4.82429">
        <ele>370.8</ele>
        <time>2020-08-16 15:34:25</time>
      </trkpt>
      <trkpt lat="39.96176" lon="-4.82434">
        <ele>370.6</ele>
        <time>2020-08-16 15:34:26</time>
      </trkpt>
      <trkpt lat="39.96176" lon="-4.8244">
        <ele>370.6</ele>
        <time>2020-08-16 15:34:27</time>
      </trkpt>
      <trkpt lat="39.96176" lon="-4.82446">
        <ele>370.4</ele>
        <time>2020-08-16 15:34:28</time>
      </trkpt>
      <trkpt lat="39.96176" lon="-4.82451">
        <ele>370.4</ele>
        <time>2020-08-16 15:34:29</time>
      </trkpt>
      <trkpt lat="39.96175" lon="-4.82457">
        <ele>370.4</ele>
        <time>2020-08-16 15:34:30</time>
      </trkpt>
      <trkpt lat="39.96175" lon="-4.82462">
        <ele>370.4</ele>
        <time>2020-08-16 15:34:31</time>
      </trkpt>
      <trkpt lat="39.96175" lon="-4.82467">
        <ele>370.4</ele>
        <time>2020-08-16 15:34:32</time>
      </trkpt>
      <trkpt lat="39.96175" lon="-4.82474">
        <ele>370.4</ele>
        <time>2020-08-16 15:34:33</time>
      </trkpt>
      <trkpt lat="39.96174" lon="-4.82481">
        <ele>370.4</ele>
        <time>2020-08-16 15:34:34</time>
      </trkpt>
      <trkpt lat="39.96174" lon="-4.82487">
        <ele>370.4</ele>
        <time>2020-08-16 15:34:35</time>
      </trkpt>
      <trkpt lat="39.96173" lon="-4.82494">
        <ele>370.4</ele>
        <time>2020-08-16 15:34:36</time>
      </trkpt>
      <trkpt lat="39.96173" lon="-4.825">
        <ele>370.4</ele>
        <time>2020-08-16 15:34:37</time>
      </trkpt>
      <trkpt lat="39.96173" lon="-4.82505">
        <ele>370.4</ele>
        <time>2020-08-16 15:34:38</time>
      </trkpt>
      <trkpt lat="39.96172" lon="-4.82512">
        <ele>370.4</ele>
        <time>2020-08-16 15:34:39</time>
      </trkpt>
      <trkpt lat="39.96172" lon="-4.82518">
        <ele>370.4</ele>
        <time>2020-08-16 15:34:40</time>
      </trkpt>
      <trkpt lat="39.96171" lon="-4.82524">
        <ele>370.4</ele>
        <time>2020-08-16 15:34:41</time>
      </trkpt>
      <trkpt lat="39.9617" lon="-4.8253">
        <ele>370.4</ele>
        <time>2020-08-16 15:34:42</time>
      </trkpt>
      <trkpt lat="39.96169" lon="-4.82541">
        <ele>370.6</ele>
        <time>2020-08-16 15:34:44</time>
      </trkpt>
      <trkpt lat="39.96168" lon="-4.82547">
        <ele>370.6</ele>
        <time>2020-08-16 15:34:45</time>
      </trkpt>
      <trkpt lat="39.96167" lon="-4.82552">
        <ele>370.6</ele>
        <time>2020-08-16 15:34:46</time>
      </trkpt>
      <trkpt lat="39.96166" lon="-4.82559">
        <ele>370.6</ele>
        <time>2020-08-16 15:34:47</time>
      </trkpt>
      <trkpt lat="39.96163" lon="-4.82573">
        <ele>370.8</ele>
        <time>2020-08-16 15:34:49</time>
      </trkpt>
      <trkpt lat="39.96164" lon="-4.82579">
        <ele>370.8</ele>
        <time>2020-08-16 15:34:50</time>
      </trkpt>
      <trkpt lat="39.96166" lon="-4.82584">
        <ele>370.8</ele>
        <time>2020-08-16 15:34:51</time>
      </trkpt>
      <trkpt lat="39.96167" lon="-4.82588">
        <ele>370.8</ele>
        <time>2020-08-16 15:34:52</time>
      </trkpt>
      <trkpt lat="39.96169" lon="-4.82593">
        <ele>370.8</ele>
        <time>2020-08-16 15:34:53</time>
      </trkpt>
      <trkpt lat="39.9617" lon="-4.82598">
        <ele>370.8</ele>
        <time>2020-08-16 15:34:54</time>
      </trkpt>
      <trkpt lat="39.96169" lon="-4.82603">
        <ele>370.8</ele>
        <time>2020-08-16 15:34:55</time>
      </trkpt>
      <trkpt lat="39.9617" lon="-4.82614">
        <ele>370.8</ele>
        <time>2020-08-16 15:34:57</time>
      </trkpt>
      <trkpt lat="39.96171" lon="-4.82619">
        <ele>371</ele>
        <time>2020-08-16 15:34:58</time>
      </trkpt>
      <trkpt lat="39.96172" lon="-4.82623">
        <ele>371</ele>
        <time>2020-08-16 15:34:59</time>
      </trkpt>
      <trkpt lat="39.96172" lon="-4.82629">
        <ele>371</ele>
        <time>2020-08-16 15:35:00</time>
      </trkpt>
      <trkpt lat="39.96172" lon="-4.82633">
        <ele>371</ele>
        <time>2020-08-16 15:35:01</time>
      </trkpt>
      <trkpt lat="39.96172" lon="-4.82638">
        <ele>371.2</ele>
        <time>2020-08-16 15:35:02</time>
      </trkpt>
      <trkpt lat="39.96169" lon="-4.82644">
        <ele>371.2</ele>
        <time>2020-08-16 15:35:03</time>
      </trkpt>
      <trkpt lat="39.96167" lon="-4.82651">
        <ele>371.2</ele>
        <time>2020-08-16 15:35:04</time>
      </trkpt>
      <trkpt lat="39.9617" lon="-4.82662">
        <ele>371.4</ele>
        <time>2020-08-16 15:35:06</time>
      </trkpt>
      <trkpt lat="39.96168" lon="-4.82669">
        <ele>371.4</ele>
        <time>2020-08-16 15:35:07</time>
      </trkpt>
      <trkpt lat="39.96167" lon="-4.82675">
        <ele>371.4</ele>
        <time>2020-08-16 15:35:08</time>
      </trkpt>
      <trkpt lat="39.96168" lon="-4.82681">
        <ele>371.4</ele>
        <time>2020-08-16 15:35:09</time>
      </trkpt>
      <trkpt lat="39.96168" lon="-4.82687">
        <ele>371.2</ele>
        <time>2020-08-16 15:35:10</time>
      </trkpt>
      <trkpt lat="39.9617" lon="-4.82692">
        <ele>371.2</ele>
        <time>2020-08-16 15:35:11</time>
      </trkpt>
      <trkpt lat="39.96171" lon="-4.82696">
        <ele>371</ele>
        <time>2020-08-16 15:35:12</time>
      </trkpt>
      <trkpt lat="39.96171" lon="-4.827">
        <ele>371</ele>
        <time>2020-08-16 15:35:13</time>
      </trkpt>
      <trkpt lat="39.96171" lon="-4.82706">
        <ele>371</ele>
        <time>2020-08-16 15:35:14</time>
      </trkpt>
      <trkpt lat="39.96171" lon="-4.82712">
        <ele>371</ele>
        <time>2020-08-16 15:35:15</time>
      </trkpt>
      <trkpt lat="39.96171" lon="-4.82719">
        <ele>371</ele>
        <time>2020-08-16 15:35:16</time>
      </trkpt>
      <trkpt lat="39.9617" lon="-4.82725">
        <ele>371</ele>
        <time>2020-08-16 15:35:17</time>
      </trkpt>
      <trkpt lat="39.9617" lon="-4.82727">
        <ele>371</ele>
        <time>2020-08-16 15:35:18</time>
      </trkpt>
      <trkpt lat="39.96171" lon="-4.82731">
        <ele>371</ele>
        <time>2020-08-16 15:35:19</time>
      </trkpt>
      <trkpt lat="39.96173" lon="-4.82734">
        <ele>371</ele>
        <time>2020-08-16 15:35:20</time>
      </trkpt>
      <trkpt lat="39.96176" lon="-4.82737">
        <ele>371</ele>
        <time>2020-08-16 15:35:21</time>
      </trkpt>
      <trkpt lat="39.96181" lon="-4.82746">
        <ele>371</ele>
        <time>2020-08-16 15:35:23</time>
      </trkpt>
      <trkpt lat="39.96182" lon="-4.82752">
        <ele>371</ele>
        <time>2020-08-16 15:35:24</time>
      </trkpt>
      <trkpt lat="39.96185" lon="-4.82757">
        <ele>370.8</ele>
        <time>2020-08-16 15:35:25</time>
      </trkpt>
      <trkpt lat="39.96186" lon="-4.82763">
        <ele>370.8</ele>
        <time>2020-08-16 15:35:26</time>
      </trkpt>
      <trkpt lat="39.96187" lon="-4.82766">
        <ele>370.8</ele>
        <time>2020-08-16 15:35:27</time>
      </trkpt>
      <trkpt lat="39.96188" lon="-4.8277">
        <ele>370.6</ele>
        <time>2020-08-16 15:35:28</time>
      </trkpt>
      <trkpt lat="39.96189" lon="-4.82774">
        <ele>370.6</ele>
        <time>2020-08-16 15:35:29</time>
      </trkpt>
      <trkpt lat="39.96191" lon="-4.82778">
        <ele>370.6</ele>
        <time>2020-08-16 15:35:30</time>
      </trkpt>
      <trkpt lat="39.96192" lon="-4.82782">
        <ele>370.6</ele>
        <time>2020-08-16 15:35:31</time>
      </trkpt>
      <trkpt lat="39.96194" lon="-4.82786">
        <ele>370.6</ele>
        <time>2020-08-16 15:35:32</time>
      </trkpt>
      <trkpt lat="39.96195" lon="-4.8279">
        <ele>370.6</ele>
        <time>2020-08-16 15:35:33</time>
      </trkpt>
      <trkpt lat="39.96196" lon="-4.828">
        <ele>370.6</ele>
        <time>2020-08-16 15:35:34</time>
      </trkpt>
      <trkpt lat="39.96192" lon="-4.82808">
        <ele>371</ele>
        <time>2020-08-16 15:35:35</time>
      </trkpt>
      <trkpt lat="39.96191" lon="-4.82815">
        <ele>371.2</ele>
        <time>2020-08-16 15:35:36</time>
      </trkpt>
      <trkpt lat="39.96192" lon="-4.82822">
        <ele>371.6</ele>
        <time>2020-08-16 15:35:37</time>
      </trkpt>
      <trkpt lat="39.96195" lon="-4.82827">
        <ele>371.8</ele>
        <time>2020-08-16 15:35:38</time>
      </trkpt>
      <trkpt lat="39.96198" lon="-4.82833">
        <ele>371.8</ele>
        <time>2020-08-16 15:35:39</time>
      </trkpt>
      <trkpt lat="39.96201" lon="-4.82837">
        <ele>371.8</ele>
        <time>2020-08-16 15:35:40</time>
      </trkpt>
      <trkpt lat="39.96205" lon="-4.8284">
        <ele>371.6</ele>
        <time>2020-08-16 15:35:41</time>
      </trkpt>
      <trkpt lat="39.96207" lon="-4.82843">
        <ele>371.6</ele>
        <time>2020-08-16 15:35:42</time>
      </trkpt>
      <trkpt lat="39.96209" lon="-4.82846">
        <ele>371.4</ele>
        <time>2020-08-16 15:35:43</time>
      </trkpt>
      <trkpt lat="39.96211" lon="-4.82848">
        <ele>371.2</ele>
        <time>2020-08-16 15:35:44</time>
      </trkpt>
      <trkpt lat="39.96212" lon="-4.82851">
        <ele>371.4</ele>
        <time>2020-08-16 15:35:45</time>
      </trkpt>
      <trkpt lat="39.96212" lon="-4.82853">
        <ele>371.4</ele>
        <time>2020-08-16 15:35:46</time>
      </trkpt>
      <trkpt lat="39.96213" lon="-4.82855">
        <ele>371.2</ele>
        <time>2020-08-16 15:35:47</time>
      </trkpt>
      <trkpt lat="39.96212" lon="-4.82859">
        <ele>370.8</ele>
        <time>2020-08-16 15:35:48</time>
      </trkpt>
      <trkpt lat="39.96206" lon="-4.82867">
        <ele>370.6</ele>
        <time>2020-08-16 15:35:50</time>
      </trkpt>
      <trkpt lat="39.96203" lon="-4.82871">
        <ele>370.6</ele>
        <time>2020-08-16 15:35:51</time>
      </trkpt>
      <trkpt lat="39.96201" lon="-4.82874">
        <ele>370.6</ele>
        <time>2020-08-16 15:35:52</time>
      </trkpt>
      <trkpt lat="39.96199" lon="-4.82878">
        <ele>370.4</ele>
        <time>2020-08-16 15:35:53</time>
      </trkpt>
      <trkpt lat="39.96197" lon="-4.82881">
        <ele>370.4</ele>
        <time>2020-08-16 15:35:54</time>
      </trkpt>
      <trkpt lat="39.96196" lon="-4.82886">
        <ele>370.4</ele>
        <time>2020-08-16 15:35:55</time>
      </trkpt>
      <trkpt lat="39.96195" lon="-4.8289">
        <ele>370.4</ele>
        <time>2020-08-16 15:35:56</time>
      </trkpt>
      <trkpt lat="39.96193" lon="-4.82894">
        <ele>370.4</ele>
        <time>2020-08-16 15:35:57</time>
      </trkpt>
      <trkpt lat="39.96191" lon="-4.82899">
        <ele>370.4</ele>
        <time>2020-08-16 15:35:58</time>
      </trkpt>
      <trkpt lat="39.96185" lon="-4.8291">
        <ele>370.2</ele>
        <time>2020-08-16 15:36:00</time>
      </trkpt>
      <trkpt lat="39.96182" lon="-4.82914">
        <ele>370.2</ele>
        <time>2020-08-16 15:36:01</time>
      </trkpt>
      <trkpt lat="39.96177" lon="-4.82923">
        <ele>370.2</ele>
        <time>2020-08-16 15:36:03</time>
      </trkpt>
      <trkpt lat="39.96176" lon="-4.82926">
        <ele>370.4</ele>
        <time>2020-08-16 15:36:04</time>
      </trkpt>
      <trkpt lat="39.96173" lon="-4.82936">
        <ele>370.4</ele>
        <time>2020-08-16 15:36:06</time>
      </trkpt>
      <trkpt lat="39.9617" lon="-4.8294">
        <ele>370.6</ele>
        <time>2020-08-16 15:36:07</time>
      </trkpt>
      <trkpt lat="39.96168" lon="-4.82943">
        <ele>370.6</ele>
        <time>2020-08-16 15:36:08</time>
      </trkpt>
      <trkpt lat="39.96164" lon="-4.82947">
        <ele>370.6</ele>
        <time>2020-08-16 15:36:09</time>
      </trkpt>
      <trkpt lat="39.96158" lon="-4.82954">
        <ele>370.6</ele>
        <time>2020-08-16 15:36:11</time>
      </trkpt>
      <trkpt lat="39.96155" lon="-4.82956">
        <ele>370.8</ele>
        <time>2020-08-16 15:36:12</time>
      </trkpt>
      <trkpt lat="39.96153" lon="-4.82959">
        <ele>370.8</ele>
        <time>2020-08-16 15:36:13</time>
      </trkpt>
      <trkpt lat="39.96152" lon="-4.82963">
        <ele>370.8</ele>
        <time>2020-08-16 15:36:14</time>
      </trkpt>
      <trkpt lat="39.9615" lon="-4.82965">
        <ele>370.8</ele>
        <time>2020-08-16 15:36:15</time>
      </trkpt>
      <trkpt lat="39.96148" lon="-4.82967">
        <ele>370.8</ele>
        <time>2020-08-16 15:36:16</time>
      </trkpt>
      <trkpt lat="39.96145" lon="-4.82968">
        <ele>370.8</ele>
        <time>2020-08-16 15:36:17</time>
      </trkpt>
      <trkpt lat="39.96143" lon="-4.82969">
        <ele>370.8</ele>
        <time>2020-08-16 15:36:18</time>
      </trkpt>
      <trkpt lat="39.96141" lon="-4.8297">
        <ele>370.8</ele>
        <time>2020-08-16 15:36:19</time>
      </trkpt>
      <trkpt lat="39.9614" lon="-4.8297">
        <ele>370.8</ele>
        <time>2020-08-16 15:36:20</time>
      </trkpt>
      <trkpt lat="39.9614" lon="-4.8297">
        <ele>370.6</ele>
        <time>2020-08-16 15:36:22</time>
      </trkpt>
      <trkpt lat="39.96135" lon="-4.82982">
        <ele>369.8</ele>
        <time>2020-08-16 15:36:59</time>
      </trkpt>
      <trkpt lat="39.96132" lon="-4.82984">
        <ele>369.8</ele>
        <time>2020-08-16 15:37:00</time>
      </trkpt>
      <trkpt lat="39.96129" lon="-4.82987">
        <ele>369.8</ele>
        <time>2020-08-16 15:37:01</time>
      </trkpt>
      <trkpt lat="39.96126" lon="-4.82988">
        <ele>369.8</ele>
        <time>2020-08-16 15:37:02</time>
      </trkpt>
      <trkpt lat="39.96122" lon="-4.8299">
        <ele>369.8</ele>
        <time>2020-08-16 15:37:04</time>
      </trkpt>
      <trkpt lat="39.96121" lon="-4.82993">
        <ele>370</ele>
        <time>2020-08-16 15:37:05</time>
      </trkpt>
      <trkpt lat="39.96117" lon="-4.82994">
        <ele>370</ele>
        <time>2020-08-16 15:37:07</time>
      </trkpt>
      <trkpt lat="39.96113" lon="-4.82994">
        <ele>370</ele>
        <time>2020-08-16 15:37:08</time>
      </trkpt>
      <trkpt lat="39.9611" lon="-4.82996">
        <ele>370</ele>
        <time>2020-08-16 15:37:09</time>
      </trkpt>
      <trkpt lat="39.96107" lon="-4.82997">
        <ele>370</ele>
        <time>2020-08-16 15:37:10</time>
      </trkpt>
      <trkpt lat="39.96106" lon="-4.82999">
        <ele>370.2</ele>
        <time>2020-08-16 15:37:11</time>
      </trkpt>
      <trkpt lat="39.96103" lon="-4.83002">
        <ele>370.2</ele>
        <time>2020-08-16 15:37:12</time>
      </trkpt>
      <trkpt lat="39.96101" lon="-4.83005">
        <ele>370.2</ele>
        <time>2020-08-16 15:37:13</time>
      </trkpt>
      <trkpt lat="39.96098" lon="-4.83007">
        <ele>370.2</ele>
        <time>2020-08-16 15:37:14</time>
      </trkpt>
      <trkpt lat="39.96092" lon="-4.83012">
        <ele>370.6</ele>
        <time>2020-08-16 15:37:16</time>
      </trkpt>
      <trkpt lat="39.9609" lon="-4.83015">
        <ele>370.6</ele>
        <time>2020-08-16 15:37:17</time>
      </trkpt>
      <trkpt lat="39.96088" lon="-4.83018">
        <ele>370.6</ele>
        <time>2020-08-16 15:37:18</time>
      </trkpt>
      <trkpt lat="39.96086" lon="-4.8302">
        <ele>370.6</ele>
        <time>2020-08-16 15:37:19</time>
      </trkpt>
      <trkpt lat="39.96084" lon="-4.83021">
        <ele>370.6</ele>
        <time>2020-08-16 15:37:20</time>
      </trkpt>
      <trkpt lat="39.96081" lon="-4.83022">
        <ele>370.6</ele>
        <time>2020-08-16 15:37:21</time>
      </trkpt>
      <trkpt lat="39.96078" lon="-4.83024">
        <ele>370.6</ele>
        <time>2020-08-16 15:37:22</time>
      </trkpt>
      <trkpt lat="39.96076" lon="-4.83027">
        <ele>370.8</ele>
        <time>2020-08-16 15:37:23</time>
      </trkpt>
      <trkpt lat="39.96073" lon="-4.8303">
        <ele>370.8</ele>
        <time>2020-08-16 15:37:24</time>
      </trkpt>
      <trkpt lat="39.9607" lon="-4.83033">
        <ele>370.8</ele>
        <time>2020-08-16 15:37:25</time>
      </trkpt>
      <trkpt lat="39.96065" lon="-4.83042">
        <ele>370.8</ele>
        <time>2020-08-16 15:37:27</time>
      </trkpt>
      <trkpt lat="39.96061" lon="-4.83046">
        <ele>370.8</ele>
        <time>2020-08-16 15:37:28</time>
      </trkpt>
      <trkpt lat="39.96058" lon="-4.8305">
        <ele>370.8</ele>
        <time>2020-08-16 15:37:29</time>
      </trkpt>
      <trkpt lat="39.96056" lon="-4.83053">
        <ele>371</ele>
        <time>2020-08-16 15:37:30</time>
      </trkpt>
      <trkpt lat="39.96053" lon="-4.83056">
        <ele>371</ele>
        <time>2020-08-16 15:37:31</time>
      </trkpt>
      <trkpt lat="39.9605" lon="-4.83062">
        <ele>371</ele>
        <time>2020-08-16 15:37:33</time>
      </trkpt>
      <trkpt lat="39.96049" lon="-4.83065">
        <ele>371</ele>
        <time>2020-08-16 15:37:34</time>
      </trkpt>
      <trkpt lat="39.96047" lon="-4.83068">
        <ele>371.2</ele>
        <time>2020-08-16 15:37:35</time>
      </trkpt>
      <trkpt lat="39.96046" lon="-4.8307">
        <ele>371.2</ele>
        <time>2020-08-16 15:37:36</time>
      </trkpt>
      <trkpt lat="39.96045" lon="-4.83072">
        <ele>371.2</ele>
        <time>2020-08-16 15:37:37</time>
      </trkpt>
      <trkpt lat="39.96045" lon="-4.83072">
        <ele>371.4</ele>
        <time>2020-08-16 15:37:38</time>
      </trkpt>
      <trkpt lat="39.96045" lon="-4.83072">
        <ele>371.4</ele>
        <time>2020-08-16 15:37:39</time>
      </trkpt>
      <trkpt lat="39.96045" lon="-4.83072">
        <ele>371.6</ele>
        <time>2020-08-16 15:37:40</time>
      </trkpt>
      <trkpt lat="39.96043" lon="-4.83075">
        <ele>372.2</ele>
        <time>2020-08-16 15:37:54</time>
      </trkpt>
      <trkpt lat="39.96041" lon="-4.83077">
        <ele>372.2</ele>
        <time>2020-08-16 15:37:55</time>
      </trkpt>
      <trkpt lat="39.96039" lon="-4.8308">
        <ele>372.2</ele>
        <time>2020-08-16 15:37:56</time>
      </trkpt>
      <trkpt lat="39.96039" lon="-4.83084">
        <ele>372.2</ele>
        <time>2020-08-16 15:37:57</time>
      </trkpt>
      <trkpt lat="39.96039" lon="-4.83089">
        <ele>372.2</ele>
        <time>2020-08-16 15:37:58</time>
      </trkpt>
      <trkpt lat="39.96039" lon="-4.83094">
        <ele>372.2</ele>
        <time>2020-08-16 15:37:59</time>
      </trkpt>
      <trkpt lat="39.96039" lon="-4.83099">
        <ele>372.2</ele>
        <time>2020-08-16 15:38:00</time>
      </trkpt>
      <trkpt lat="39.96039" lon="-4.83103">
        <ele>372.2</ele>
        <time>2020-08-16 15:38:01</time>
      </trkpt>
      <trkpt lat="39.96038" lon="-4.83107">
        <ele>372.4</ele>
        <time>2020-08-16 15:38:02</time>
      </trkpt>
      <trkpt lat="39.96037" lon="-4.83116">
        <ele>372.6</ele>
        <time>2020-08-16 15:38:04</time>
      </trkpt>
      <trkpt lat="39.96036" lon="-4.83132">
        <ele>372.6</ele>
        <time>2020-08-16 15:38:06</time>
      </trkpt>
      <trkpt lat="39.96035" lon="-4.83138">
        <ele>372.8</ele>
        <time>2020-08-16 15:38:07</time>
      </trkpt>
      <trkpt lat="39.96033" lon="-4.83144">
        <ele>372.8</ele>
        <time>2020-08-16 15:38:08</time>
      </trkpt>
      <trkpt lat="39.96032" lon="-4.83148">
        <ele>372.8</ele>
        <time>2020-08-16 15:38:09</time>
      </trkpt>
      <trkpt lat="39.96031" lon="-4.83153">
        <ele>372.8</ele>
        <time>2020-08-16 15:38:10</time>
      </trkpt>
      <trkpt lat="39.96029" lon="-4.83163">
        <ele>372.8</ele>
        <time>2020-08-16 15:38:12</time>
      </trkpt>
      <trkpt lat="39.96027" lon="-4.83178">
        <ele>372.6</ele>
        <time>2020-08-16 15:38:15</time>
      </trkpt>
      <trkpt lat="39.96027" lon="-4.83183">
        <ele>372.6</ele>
        <time>2020-08-16 15:38:16</time>
      </trkpt>
      <trkpt lat="39.9603" lon="-4.83187">
        <ele>372.4</ele>
        <time>2020-08-16 15:38:17</time>
      </trkpt>
      <trkpt lat="39.96033" lon="-4.83192">
        <ele>372.4</ele>
        <time>2020-08-16 15:38:18</time>
      </trkpt>
      <trkpt lat="39.96032" lon="-4.832">
        <ele>372.4</ele>
        <time>2020-08-16 15:38:19</time>
      </trkpt>
      <trkpt lat="39.96029" lon="-4.83208">
        <ele>372.4</ele>
        <time>2020-08-16 15:38:20</time>
      </trkpt>
      <trkpt lat="39.96024" lon="-4.83214">
        <ele>372.4</ele>
        <time>2020-08-16 15:38:21</time>
      </trkpt>
      <trkpt lat="39.96018" lon="-4.83219">
        <ele>372.2</ele>
        <time>2020-08-16 15:38:22</time>
      </trkpt>
      <trkpt lat="39.96017" lon="-4.83222">
        <ele>372.2</ele>
        <time>2020-08-16 15:38:23</time>
      </trkpt>
      <trkpt lat="39.96018" lon="-4.83235">
        <ele>372</ele>
        <time>2020-08-16 15:38:25</time>
      </trkpt>
      <trkpt lat="39.96017" lon="-4.83243">
        <ele>372</ele>
        <time>2020-08-16 15:38:26</time>
      </trkpt>
      <trkpt lat="39.96015" lon="-4.83248">
        <ele>372</ele>
        <time>2020-08-16 15:38:27</time>
      </trkpt>
      <trkpt lat="39.96015" lon="-4.83255">
        <ele>372</ele>
        <time>2020-08-16 15:38:28</time>
      </trkpt>
      <trkpt lat="39.96015" lon="-4.8326">
        <ele>372</ele>
        <time>2020-08-16 15:38:29</time>
      </trkpt>
      <trkpt lat="39.96014" lon="-4.83266">
        <ele>372</ele>
        <time>2020-08-16 15:38:30</time>
      </trkpt>
      <trkpt lat="39.96013" lon="-4.83271">
        <ele>371.6</ele>
        <time>2020-08-16 15:38:31</time>
      </trkpt>
      <trkpt lat="39.96012" lon="-4.83275">
        <ele>371.8</ele>
        <time>2020-08-16 15:38:32</time>
      </trkpt>
      <trkpt lat="39.96011" lon="-4.83279">
        <ele>371.6</ele>
        <time>2020-08-16 15:38:33</time>
      </trkpt>
      <trkpt lat="39.9601" lon="-4.83283">
        <ele>371.6</ele>
        <time>2020-08-16 15:38:34</time>
      </trkpt>
      <trkpt lat="39.96009" lon="-4.83285">
        <ele>371.6</ele>
        <time>2020-08-16 15:38:35</time>
      </trkpt>
      <trkpt lat="39.96009" lon="-4.83286">
        <ele>371.4</ele>
        <time>2020-08-16 15:38:36</time>
      </trkpt>
      <trkpt lat="39.96009" lon="-4.83286">
        <ele>371.4</ele>
        <time>2020-08-16 15:38:37</time>
      </trkpt>
      <trkpt lat="39.96009" lon="-4.83286">
        <ele>371.2</ele>
        <time>2020-08-16 15:38:38</time>
      </trkpt>
      <trkpt lat="39.96009" lon="-4.83286">
        <ele>371.2</ele>
        <time>2020-08-16 15:38:39</time>
      </trkpt>
      <trkpt lat="39.9601" lon="-4.83293">
        <ele>371.6</ele>
        <time>2020-08-16 15:39:26</time>
      </trkpt>
      <trkpt lat="39.9601" lon="-4.83296">
        <ele>371.6</ele>
        <time>2020-08-16 15:39:27</time>
      </trkpt>
      <trkpt lat="39.9601" lon="-4.83296">
        <ele>371.6</ele>
        <time>2020-08-16 15:39:28</time>
      </trkpt>
      <trkpt lat="39.9601" lon="-4.83299">
        <ele>371.6</ele>
        <time>2020-08-16 15:39:29</time>
      </trkpt>
      <trkpt lat="39.96007" lon="-4.83311">
        <ele>371.6</ele>
        <time>2020-08-16 15:39:31</time>
      </trkpt>
      <trkpt lat="39.96007" lon="-4.83311">
        <ele>371.6</ele>
        <time>2020-08-16 15:39:32</time>
      </trkpt>
      <trkpt lat="39.96004" lon="-4.83322">
        <ele>371.6</ele>
        <time>2020-08-16 15:39:33</time>
      </trkpt>
      <trkpt lat="39.96004" lon="-4.83322">
        <ele>371.6</ele>
        <time>2020-08-16 15:39:34</time>
      </trkpt>
      <trkpt lat="39.96003" lon="-4.83327">
        <ele>371.6</ele>
        <time>2020-08-16 15:39:35</time>
      </trkpt>
      <trkpt lat="39.96001" lon="-4.83335">
        <ele>371.6</ele>
        <time>2020-08-16 15:39:36</time>
      </trkpt>
      <trkpt lat="39.96001" lon="-4.83335">
        <ele>371.6</ele>
        <time>2020-08-16 15:39:37</time>
      </trkpt>
      <trkpt lat="39.95999" lon="-4.83344">
        <ele>371.6</ele>
        <time>2020-08-16 15:39:38</time>
      </trkpt>
      <trkpt lat="39.95997" lon="-4.83348">
        <ele>371.8</ele>
        <time>2020-08-16 15:39:40</time>
      </trkpt>
      <trkpt lat="39.95994" lon="-4.83356">
        <ele>371.8</ele>
        <time>2020-08-16 15:39:41</time>
      </trkpt>
      <trkpt lat="39.95993" lon="-4.8336">
        <ele>371.8</ele>
        <time>2020-08-16 15:39:42</time>
      </trkpt>
      <trkpt lat="39.95991" lon="-4.83364">
        <ele>371.8</ele>
        <time>2020-08-16 15:39:43</time>
      </trkpt>
      <trkpt lat="39.95989" lon="-4.83371">
        <ele>371.8</ele>
        <time>2020-08-16 15:39:44</time>
      </trkpt>
      <trkpt lat="39.95988" lon="-4.83377">
        <ele>371.8</ele>
        <time>2020-08-16 15:39:45</time>
      </trkpt>
      <trkpt lat="39.95987" lon="-4.83382">
        <ele>371.8</ele>
        <time>2020-08-16 15:39:46</time>
      </trkpt>
      <trkpt lat="39.95987" lon="-4.83386">
        <ele>371.8</ele>
        <time>2020-08-16 15:39:47</time>
      </trkpt>
      <trkpt lat="39.95986" lon="-4.8339">
        <ele>371.8</ele>
        <time>2020-08-16 15:39:48</time>
      </trkpt>
      <trkpt lat="39.95985" lon="-4.83394">
        <ele>371.8</ele>
        <time>2020-08-16 15:39:49</time>
      </trkpt>
      <trkpt lat="39.95984" lon="-4.83399">
        <ele>371.8</ele>
        <time>2020-08-16 15:39:50</time>
      </trkpt>
      <trkpt lat="39.95984" lon="-4.83403">
        <ele>371.8</ele>
        <time>2020-08-16 15:39:51</time>
      </trkpt>
      <trkpt lat="39.95984" lon="-4.83407">
        <ele>371.8</ele>
        <time>2020-08-16 15:39:52</time>
      </trkpt>
      <trkpt lat="39.95983" lon="-4.83412">
        <ele>371.8</ele>
        <time>2020-08-16 15:39:53</time>
      </trkpt>
      <trkpt lat="39.95983" lon="-4.83412">
        <ele>371.8</ele>
        <time>2020-08-16 15:39:54</time>
      </trkpt>
      <trkpt lat="39.95984" lon="-4.83421">
        <ele>371.6</ele>
        <time>2020-08-16 15:39:55</time>
      </trkpt>
      <trkpt lat="39.95985" lon="-4.83426">
        <ele>371.6</ele>
        <time>2020-08-16 15:39:56</time>
      </trkpt>
      <trkpt lat="39.95985" lon="-4.83426">
        <ele>371.6</ele>
        <time>2020-08-16 15:39:57</time>
      </trkpt>
      <trkpt lat="39.95984" lon="-4.83435">
        <ele>371.6</ele>
        <time>2020-08-16 15:39:58</time>
      </trkpt>
      <trkpt lat="39.95981" lon="-4.83439">
        <ele>371.6</ele>
        <time>2020-08-16 15:39:59</time>
      </trkpt>
      <trkpt lat="39.95981" lon="-4.83439">
        <ele>371.6</ele>
        <time>2020-08-16 15:40:00</time>
      </trkpt>
      <trkpt lat="39.95975" lon="-4.83449">
        <ele>371.6</ele>
        <time>2020-08-16 15:40:01</time>
      </trkpt>
      <trkpt lat="39.95975" lon="-4.83454">
        <ele>371.6</ele>
        <time>2020-08-16 15:40:02</time>
      </trkpt>
      <trkpt lat="39.95974" lon="-4.83458">
        <ele>371.6</ele>
        <time>2020-08-16 15:40:03</time>
      </trkpt>
      <trkpt lat="39.95973" lon="-4.83463">
        <ele>371.6</ele>
        <time>2020-08-16 15:40:04</time>
      </trkpt>
      <trkpt lat="39.95973" lon="-4.83467">
        <ele>371.4</ele>
        <time>2020-08-16 15:40:05</time>
      </trkpt>
      <trkpt lat="39.95973" lon="-4.83467">
        <ele>371.4</ele>
        <time>2020-08-16 15:40:06</time>
      </trkpt>
      <trkpt lat="39.95973" lon="-4.83476">
        <ele>371.2</ele>
        <time>2020-08-16 15:40:07</time>
      </trkpt>
      <trkpt lat="39.95972" lon="-4.83482">
        <ele>371.2</ele>
        <time>2020-08-16 15:40:08</time>
      </trkpt>
      <trkpt lat="39.95972" lon="-4.83488">
        <ele>371</ele>
        <time>2020-08-16 15:40:09</time>
      </trkpt>
      <trkpt lat="39.95973" lon="-4.83494">
        <ele>370.8</ele>
        <time>2020-08-16 15:40:10</time>
      </trkpt>
      <trkpt lat="39.95973" lon="-4.83501">
        <ele>370.8</ele>
        <time>2020-08-16 15:40:11</time>
      </trkpt>
      <trkpt lat="39.95973" lon="-4.83507">
        <ele>370.8</ele>
        <time>2020-08-16 15:40:12</time>
      </trkpt>
      <trkpt lat="39.95972" lon="-4.83512">
        <ele>370.6</ele>
        <time>2020-08-16 15:40:13</time>
      </trkpt>
      <trkpt lat="39.95972" lon="-4.83518">
        <ele>370.4</ele>
        <time>2020-08-16 15:40:14</time>
      </trkpt>
      <trkpt lat="39.95972" lon="-4.83518">
        <ele>370.4</ele>
        <time>2020-08-16 15:40:15</time>
      </trkpt>
      <trkpt lat="39.95971" lon="-4.83533">
        <ele>370.4</ele>
        <time>2020-08-16 15:40:16</time>
      </trkpt>
      <trkpt lat="39.95971" lon="-4.8354">
        <ele>370.4</ele>
        <time>2020-08-16 15:40:17</time>
      </trkpt>
      <trkpt lat="39.95971" lon="-4.83547">
        <ele>370.2</ele>
        <time>2020-08-16 15:40:18</time>
      </trkpt>
      <trkpt lat="39.95971" lon="-4.83553">
        <ele>370.2</ele>
        <time>2020-08-16 15:40:19</time>
      </trkpt>
      <trkpt lat="39.95971" lon="-4.83553">
        <ele>370.2</ele>
        <time>2020-08-16 15:40:20</time>
      </trkpt>
      <trkpt lat="39.9597" lon="-4.83565">
        <ele>370.2</ele>
        <time>2020-08-16 15:40:21</time>
      </trkpt>
      <trkpt lat="39.9597" lon="-4.83576">
        <ele>370</ele>
        <time>2020-08-16 15:40:23</time>
      </trkpt>
      <trkpt lat="39.95969" lon="-4.83582">
        <ele>369.8</ele>
        <time>2020-08-16 15:40:24</time>
      </trkpt>
      <trkpt lat="39.95968" lon="-4.83586">
        <ele>369.8</ele>
        <time>2020-08-16 15:40:25</time>
      </trkpt>
      <trkpt lat="39.95967" lon="-4.8359">
        <ele>369.8</ele>
        <time>2020-08-16 15:40:26</time>
      </trkpt>
      <trkpt lat="39.95967" lon="-4.83593">
        <ele>370</ele>
        <time>2020-08-16 15:40:27</time>
      </trkpt>
      <trkpt lat="39.95966" lon="-4.83595">
        <ele>370</ele>
        <time>2020-08-16 15:40:28</time>
      </trkpt>
      <trkpt lat="39.95966" lon="-4.83595">
        <ele>370</ele>
        <time>2020-08-16 15:40:29</time>
      </trkpt>
      <trkpt lat="39.95966" lon="-4.83597">
        <ele>370</ele>
        <time>2020-08-16 15:40:30</time>
      </trkpt>
      <trkpt lat="39.95965" lon="-4.83599">
        <ele>370</ele>
        <time>2020-08-16 15:40:31</time>
      </trkpt>
      <trkpt lat="39.95964" lon="-4.83602">
        <ele>369.8</ele>
        <time>2020-08-16 15:40:32</time>
      </trkpt>
      <trkpt lat="39.9596" lon="-4.83613">
        <ele>369.6</ele>
        <time>2020-08-16 15:40:34</time>
      </trkpt>
      <trkpt lat="39.95955" lon="-4.83617">
        <ele>369.6</ele>
        <time>2020-08-16 15:40:35</time>
      </trkpt>
      <trkpt lat="39.95951" lon="-4.83618">
        <ele>369.8</ele>
        <time>2020-08-16 15:40:36</time>
      </trkpt>
      <trkpt lat="39.95947" lon="-4.83622">
        <ele>369.6</ele>
        <time>2020-08-16 15:40:37</time>
      </trkpt>
      <trkpt lat="39.95942" lon="-4.83636">
        <ele>369.6</ele>
        <time>2020-08-16 15:40:39</time>
      </trkpt>
      <trkpt lat="39.95941" lon="-4.83642">
        <ele>369.4</ele>
        <time>2020-08-16 15:40:40</time>
      </trkpt>
      <trkpt lat="39.9594" lon="-4.83647">
        <ele>369.4</ele>
        <time>2020-08-16 15:40:41</time>
      </trkpt>
      <trkpt lat="39.9594" lon="-4.83653">
        <ele>369.2</ele>
        <time>2020-08-16 15:40:42</time>
      </trkpt>
      <trkpt lat="39.9594" lon="-4.83659">
        <ele>369.2</ele>
        <time>2020-08-16 15:40:43</time>
      </trkpt>
      <trkpt lat="39.95939" lon="-4.83665">
        <ele>369</ele>
        <time>2020-08-16 15:40:44</time>
      </trkpt>
      <trkpt lat="39.95939" lon="-4.83672">
        <ele>368.8</ele>
        <time>2020-08-16 15:40:45</time>
      </trkpt>
      <trkpt lat="39.95937" lon="-4.83678">
        <ele>368.8</ele>
        <time>2020-08-16 15:40:46</time>
      </trkpt>
      <trkpt lat="39.95937" lon="-4.83678">
        <ele>368.8</ele>
        <time>2020-08-16 15:40:47</time>
      </trkpt>
      <trkpt lat="39.95934" lon="-4.83696">
        <ele>369</ele>
        <time>2020-08-16 15:40:48</time>
      </trkpt>
      <trkpt lat="39.95931" lon="-4.83702">
        <ele>369</ele>
        <time>2020-08-16 15:40:49</time>
      </trkpt>
      <trkpt lat="39.95929" lon="-4.83708">
        <ele>369</ele>
        <time>2020-08-16 15:40:50</time>
      </trkpt>
      <trkpt lat="39.95928" lon="-4.83713">
        <ele>369.2</ele>
        <time>2020-08-16 15:40:51</time>
      </trkpt>
      <trkpt lat="39.95926" lon="-4.83717">
        <ele>369.2</ele>
        <time>2020-08-16 15:40:52</time>
      </trkpt>
      <trkpt lat="39.95923" lon="-4.83721">
        <ele>369.4</ele>
        <time>2020-08-16 15:40:53</time>
      </trkpt>
      <trkpt lat="39.95921" lon="-4.83724">
        <ele>369.4</ele>
        <time>2020-08-16 15:40:54</time>
      </trkpt>
      <trkpt lat="39.95918" lon="-4.83728">
        <ele>369.4</ele>
        <time>2020-08-16 15:40:55</time>
      </trkpt>
      <trkpt lat="39.95918" lon="-4.83728">
        <ele>369.4</ele>
        <time>2020-08-16 15:40:56</time>
      </trkpt>
      <trkpt lat="39.95913" lon="-4.83737">
        <ele>369.6</ele>
        <time>2020-08-16 15:40:57</time>
      </trkpt>
      <trkpt lat="39.95911" lon="-4.83741">
        <ele>369.6</ele>
        <time>2020-08-16 15:40:58</time>
      </trkpt>
      <trkpt lat="39.9591" lon="-4.83745">
        <ele>369.6</ele>
        <time>2020-08-16 15:40:59</time>
      </trkpt>
      <trkpt lat="39.95909" lon="-4.8375">
        <ele>369.6</ele>
        <time>2020-08-16 15:41:00</time>
      </trkpt>
      <trkpt lat="39.95908" lon="-4.83754">
        <ele>369.8</ele>
        <time>2020-08-16 15:41:01</time>
      </trkpt>
      <trkpt lat="39.95907" lon="-4.83758">
        <ele>369.8</ele>
        <time>2020-08-16 15:41:02</time>
      </trkpt>
      <trkpt lat="39.95905" lon="-4.83764">
        <ele>369.8</ele>
        <time>2020-08-16 15:41:03</time>
      </trkpt>
      <trkpt lat="39.95904" lon="-4.83768">
        <ele>369.8</ele>
        <time>2020-08-16 15:41:04</time>
      </trkpt>
      <trkpt lat="39.95904" lon="-4.83768">
        <ele>369.8</ele>
        <time>2020-08-16 15:41:05</time>
      </trkpt>
      <trkpt lat="39.959" lon="-4.83776">
        <ele>369.8</ele>
        <time>2020-08-16 15:41:06</time>
      </trkpt>
      <trkpt lat="39.95898" lon="-4.83779">
        <ele>370</ele>
        <time>2020-08-16 15:41:07</time>
      </trkpt>
      <trkpt lat="39.95898" lon="-4.83783">
        <ele>370</ele>
        <time>2020-08-16 15:41:08</time>
      </trkpt>
      <trkpt lat="39.95899" lon="-4.83789">
        <ele>370</ele>
        <time>2020-08-16 15:41:09</time>
      </trkpt>
      <trkpt lat="39.95899" lon="-4.83794">
        <ele>370</ele>
        <time>2020-08-16 15:41:10</time>
      </trkpt>
      <trkpt lat="39.95899" lon="-4.83798">
        <ele>370.2</ele>
        <time>2020-08-16 15:41:11</time>
      </trkpt>
      <trkpt lat="39.95897" lon="-4.83802">
        <ele>370.4</ele>
        <time>2020-08-16 15:41:12</time>
      </trkpt>
      <trkpt lat="39.95896" lon="-4.83808">
        <ele>370.4</ele>
        <time>2020-08-16 15:41:13</time>
      </trkpt>
      <trkpt lat="39.95894" lon="-4.83815">
        <ele>370.6</ele>
        <time>2020-08-16 15:41:14</time>
      </trkpt>
      <trkpt lat="39.95892" lon="-4.83822">
        <ele>370.6</ele>
        <time>2020-08-16 15:41:15</time>
      </trkpt>
      <trkpt lat="39.95891" lon="-4.83835">
        <ele>370.6</ele>
        <time>2020-08-16 15:41:17</time>
      </trkpt>
      <trkpt lat="39.95889" lon="-4.83842">
        <ele>370.6</ele>
        <time>2020-08-16 15:41:18</time>
      </trkpt>
      <trkpt lat="39.95887" lon="-4.83849">
        <ele>370.8</ele>
        <time>2020-08-16 15:41:19</time>
      </trkpt>
      <trkpt lat="39.95886" lon="-4.83855">
        <ele>370.8</ele>
        <time>2020-08-16 15:41:20</time>
      </trkpt>
      <trkpt lat="39.95884" lon="-4.8386">
        <ele>371</ele>
        <time>2020-08-16 15:41:21</time>
      </trkpt>
      <trkpt lat="39.95881" lon="-4.83865">
        <ele>371</ele>
        <time>2020-08-16 15:41:22</time>
      </trkpt>
      <trkpt lat="39.95877" lon="-4.8387">
        <ele>371</ele>
        <time>2020-08-16 15:41:23</time>
      </trkpt>
      <trkpt lat="39.95874" lon="-4.83876">
        <ele>371</ele>
        <time>2020-08-16 15:41:24</time>
      </trkpt>
      <trkpt lat="39.95872" lon="-4.83881">
        <ele>371</ele>
        <time>2020-08-16 15:41:25</time>
      </trkpt>
      <trkpt lat="39.95872" lon="-4.83888">
        <ele>371</ele>
        <time>2020-08-16 15:41:26</time>
      </trkpt>
      <trkpt lat="39.95872" lon="-4.83894">
        <ele>371.2</ele>
        <time>2020-08-16 15:41:27</time>
      </trkpt>
      <trkpt lat="39.95873" lon="-4.83899">
        <ele>371.2</ele>
        <time>2020-08-16 15:41:28</time>
      </trkpt>
      <trkpt lat="39.95873" lon="-4.83904">
        <ele>371</ele>
        <time>2020-08-16 15:41:29</time>
      </trkpt>
      <trkpt lat="39.95872" lon="-4.8391">
        <ele>371</ele>
        <time>2020-08-16 15:41:30</time>
      </trkpt>
      <trkpt lat="39.9587" lon="-4.83917">
        <ele>371</ele>
        <time>2020-08-16 15:41:31</time>
      </trkpt>
      <trkpt lat="39.95869" lon="-4.83924">
        <ele>370.8</ele>
        <time>2020-08-16 15:41:32</time>
      </trkpt>
      <trkpt lat="39.95867" lon="-4.83939">
        <ele>370.6</ele>
        <time>2020-08-16 15:41:34</time>
      </trkpt>
      <trkpt lat="39.95867" lon="-4.83945">
        <ele>370.6</ele>
        <time>2020-08-16 15:41:35</time>
      </trkpt>
      <trkpt lat="39.95867" lon="-4.8395">
        <ele>370.6</ele>
        <time>2020-08-16 15:41:36</time>
      </trkpt>
      <trkpt lat="39.95867" lon="-4.83954">
        <ele>370.6</ele>
        <time>2020-08-16 15:41:37</time>
      </trkpt>
      <trkpt lat="39.95868" lon="-4.83958">
        <ele>370.6</ele>
        <time>2020-08-16 15:41:38</time>
      </trkpt>
      <trkpt lat="39.95869" lon="-4.83962">
        <ele>370.4</ele>
        <time>2020-08-16 15:41:39</time>
      </trkpt>
      <trkpt lat="39.95869" lon="-4.83967">
        <ele>370.6</ele>
        <time>2020-08-16 15:41:40</time>
      </trkpt>
      <trkpt lat="39.9587" lon="-4.83973">
        <ele>370.6</ele>
        <time>2020-08-16 15:41:41</time>
      </trkpt>
      <trkpt lat="39.95869" lon="-4.83979">
        <ele>370.6</ele>
        <time>2020-08-16 15:41:42</time>
      </trkpt>
      <trkpt lat="39.95868" lon="-4.83983">
        <ele>370.6</ele>
        <time>2020-08-16 15:41:43</time>
      </trkpt>
      <trkpt lat="39.95866" lon="-4.83986">
        <ele>370.6</ele>
        <time>2020-08-16 15:41:44</time>
      </trkpt>
      <trkpt lat="39.95863" lon="-4.83988">
        <ele>370.8</ele>
        <time>2020-08-16 15:41:45</time>
      </trkpt>
      <trkpt lat="39.95863" lon="-4.83988">
        <ele>370.8</ele>
        <time>2020-08-16 15:41:46</time>
      </trkpt>
      <trkpt lat="39.95855" lon="-4.83994">
        <ele>370.8</ele>
        <time>2020-08-16 15:41:47</time>
      </trkpt>
      <trkpt lat="39.95843" lon="-4.84001">
        <ele>370.8</ele>
        <time>2020-08-16 15:41:50</time>
      </trkpt>
      <trkpt lat="39.9584" lon="-4.84002">
        <ele>370.8</ele>
        <time>2020-08-16 15:41:51</time>
      </trkpt>
      <trkpt lat="39.95837" lon="-4.84003">
        <ele>370.8</ele>
        <time>2020-08-16 15:41:52</time>
      </trkpt>
      <trkpt lat="39.95834" lon="-4.84006">
        <ele>370.8</ele>
        <time>2020-08-16 15:41:53</time>
      </trkpt>
      <trkpt lat="39.9583" lon="-4.8401">
        <ele>370.8</ele>
        <time>2020-08-16 15:41:54</time>
      </trkpt>
      <trkpt lat="39.95823" lon="-4.84018">
        <ele>370.6</ele>
        <time>2020-08-16 15:41:56</time>
      </trkpt>
      <trkpt lat="39.95819" lon="-4.84021">
        <ele>370.4</ele>
        <time>2020-08-16 15:41:57</time>
      </trkpt>
      <trkpt lat="39.95815" lon="-4.84026">
        <ele>370.4</ele>
        <time>2020-08-16 15:41:58</time>
      </trkpt>
      <trkpt lat="39.95812" lon="-4.8403">
        <ele>370.2</ele>
        <time>2020-08-16 15:41:59</time>
      </trkpt>
      <trkpt lat="39.9581" lon="-4.84035">
        <ele>370.2</ele>
        <time>2020-08-16 15:42:00</time>
      </trkpt>
      <trkpt lat="39.95803" lon="-4.84043">
        <ele>370.2</ele>
        <time>2020-08-16 15:42:02</time>
      </trkpt>
      <trkpt lat="39.95799" lon="-4.84047">
        <ele>370.2</ele>
        <time>2020-08-16 15:42:03</time>
      </trkpt>
      <trkpt lat="39.95799" lon="-4.84047">
        <ele>370.2</ele>
        <time>2020-08-16 15:42:04</time>
      </trkpt>
      <trkpt lat="39.95792" lon="-4.84055">
        <ele>370.2</ele>
        <time>2020-08-16 15:42:05</time>
      </trkpt>
      <trkpt lat="39.9578" lon="-4.84068">
        <ele>370.4</ele>
        <time>2020-08-16 15:42:08</time>
      </trkpt>
      <trkpt lat="39.95777" lon="-4.84073">
        <ele>370.4</ele>
        <time>2020-08-16 15:42:09</time>
      </trkpt>
      <trkpt lat="39.95773" lon="-4.84078">
        <ele>370.4</ele>
        <time>2020-08-16 15:42:10</time>
      </trkpt>
      <trkpt lat="39.95769" lon="-4.84082">
        <ele>370.4</ele>
        <time>2020-08-16 15:42:11</time>
      </trkpt>
      <trkpt lat="39.95764" lon="-4.84085">
        <ele>370.4</ele>
        <time>2020-08-16 15:42:12</time>
      </trkpt>
      <trkpt lat="39.95764" lon="-4.84085">
        <ele>370.4</ele>
        <time>2020-08-16 15:42:13</time>
      </trkpt>
      <trkpt lat="39.95755" lon="-4.84093">
        <ele>370.4</ele>
        <time>2020-08-16 15:42:14</time>
      </trkpt>
      <trkpt lat="39.95751" lon="-4.84098">
        <ele>370.6</ele>
        <time>2020-08-16 15:42:15</time>
      </trkpt>
      <trkpt lat="39.95751" lon="-4.84098">
        <ele>370.6</ele>
        <time>2020-08-16 15:42:16</time>
      </trkpt>
      <trkpt lat="39.95742" lon="-4.84107">
        <ele>370.6</ele>
        <time>2020-08-16 15:42:17</time>
      </trkpt>
      <trkpt lat="39.95737" lon="-4.84113">
        <ele>370.6</ele>
        <time>2020-08-16 15:42:18</time>
      </trkpt>
      <trkpt lat="39.95733" lon="-4.8412">
        <ele>370.6</ele>
        <time>2020-08-16 15:42:19</time>
      </trkpt>
      <trkpt lat="39.95729" lon="-4.84125">
        <ele>370.6</ele>
        <time>2020-08-16 15:42:20</time>
      </trkpt>
      <trkpt lat="39.95726" lon="-4.84131">
        <ele>370.6</ele>
        <time>2020-08-16 15:42:21</time>
      </trkpt>
      <trkpt lat="39.95726" lon="-4.84131">
        <ele>370.6</ele>
        <time>2020-08-16 15:42:22</time>
      </trkpt>
      <trkpt lat="39.95719" lon="-4.84143">
        <ele>370.8</ele>
        <time>2020-08-16 15:42:23</time>
      </trkpt>
      <trkpt lat="39.95717" lon="-4.84148">
        <ele>370.8</ele>
        <time>2020-08-16 15:42:24</time>
      </trkpt>
      <trkpt lat="39.95715" lon="-4.84154">
        <ele>370.8</ele>
        <time>2020-08-16 15:42:25</time>
      </trkpt>
      <trkpt lat="39.95709" lon="-4.84163">
        <ele>371</ele>
        <time>2020-08-16 15:42:27</time>
      </trkpt>
      <trkpt lat="39.95707" lon="-4.84169">
        <ele>371</ele>
        <time>2020-08-16 15:42:28</time>
      </trkpt>
      <trkpt lat="39.95705" lon="-4.84177">
        <ele>371</ele>
        <time>2020-08-16 15:42:29</time>
      </trkpt>
      <trkpt lat="39.95703" lon="-4.84186">
        <ele>371</ele>
        <time>2020-08-16 15:42:30</time>
      </trkpt>
      <trkpt lat="39.957" lon="-4.84197">
        <ele>371.2</ele>
        <time>2020-08-16 15:42:32</time>
      </trkpt>
      <trkpt lat="39.95697" lon="-4.84201">
        <ele>371.2</ele>
        <time>2020-08-16 15:42:33</time>
      </trkpt>
      <trkpt lat="39.95697" lon="-4.84201">
        <ele>371.2</ele>
        <time>2020-08-16 15:42:34</time>
      </trkpt>
      <trkpt lat="39.95691" lon="-4.84212">
        <ele>371.2</ele>
        <time>2020-08-16 15:42:35</time>
      </trkpt>
      <trkpt lat="39.95688" lon="-4.84217">
        <ele>371.4</ele>
        <time>2020-08-16 15:42:36</time>
      </trkpt>
      <trkpt lat="39.95684" lon="-4.84225">
        <ele>371.4</ele>
        <time>2020-08-16 15:42:38</time>
      </trkpt>
      <trkpt lat="39.9568" lon="-4.8423">
        <ele>371.4</ele>
        <time>2020-08-16 15:42:39</time>
      </trkpt>
      <trkpt lat="39.95673" lon="-4.84238">
        <ele>371.4</ele>
        <time>2020-08-16 15:42:41</time>
      </trkpt>
      <trkpt lat="39.9567" lon="-4.84244">
        <ele>371.4</ele>
        <time>2020-08-16 15:42:42</time>
      </trkpt>
      <trkpt lat="39.95668" lon="-4.8425">
        <ele>371.4</ele>
        <time>2020-08-16 15:42:43</time>
      </trkpt>
      <trkpt lat="39.95663" lon="-4.8426">
        <ele>371.2</ele>
        <time>2020-08-16 15:42:45</time>
      </trkpt>
      <trkpt lat="39.95661" lon="-4.84265">
        <ele>371</ele>
        <time>2020-08-16 15:42:46</time>
      </trkpt>
      <trkpt lat="39.95662" lon="-4.84269">
        <ele>371</ele>
        <time>2020-08-16 15:42:47</time>
      </trkpt>
      <trkpt lat="39.95659" lon="-4.84272">
        <ele>371</ele>
        <time>2020-08-16 15:42:48</time>
      </trkpt>
      <trkpt lat="39.95654" lon="-4.84276">
        <ele>371</ele>
        <time>2020-08-16 15:42:49</time>
      </trkpt>
      <trkpt lat="39.95648" lon="-4.84282">
        <ele>371</ele>
        <time>2020-08-16 15:42:50</time>
      </trkpt>
      <trkpt lat="39.95642" lon="-4.84287">
        <ele>371</ele>
        <time>2020-08-16 15:42:51</time>
      </trkpt>
      <trkpt lat="39.95638" lon="-4.84292">
        <ele>371</ele>
        <time>2020-08-16 15:42:52</time>
      </trkpt>
      <trkpt lat="39.95635" lon="-4.84297">
        <ele>371</ele>
        <time>2020-08-16 15:42:53</time>
      </trkpt>
      <trkpt lat="39.95635" lon="-4.84297">
        <ele>371</ele>
        <time>2020-08-16 15:42:54</time>
      </trkpt>
      <trkpt lat="39.95629" lon="-4.84306">
        <ele>371</ele>
        <time>2020-08-16 15:42:55</time>
      </trkpt>
      <trkpt lat="39.95626" lon="-4.8431">
        <ele>371</ele>
        <time>2020-08-16 15:42:56</time>
      </trkpt>
      <trkpt lat="39.95609" lon="-4.84335">
        <ele>371.2</ele>
        <time>2020-08-16 15:43:02</time>
      </trkpt>
      <trkpt lat="39.95606" lon="-4.8434">
        <ele>371.2</ele>
        <time>2020-08-16 15:43:03</time>
      </trkpt>
      <trkpt lat="39.95603" lon="-4.84345">
        <ele>371.2</ele>
        <time>2020-08-16 15:43:04</time>
      </trkpt>
      <trkpt lat="39.956" lon="-4.8435">
        <ele>371.2</ele>
        <time>2020-08-16 15:43:05</time>
      </trkpt>
      <trkpt lat="39.95597" lon="-4.84354">
        <ele>371.2</ele>
        <time>2020-08-16 15:43:06</time>
      </trkpt>
      <trkpt lat="39.95594" lon="-4.84358">
        <ele>371.2</ele>
        <time>2020-08-16 15:43:07</time>
      </trkpt>
      <trkpt lat="39.95591" lon="-4.84362">
        <ele>371.2</ele>
        <time>2020-08-16 15:43:08</time>
      </trkpt>
      <trkpt lat="39.95587" lon="-4.84366">
        <ele>371.4</ele>
        <time>2020-08-16 15:43:09</time>
      </trkpt>
      <trkpt lat="39.95581" lon="-4.84375">
        <ele>371.4</ele>
        <time>2020-08-16 15:43:11</time>
      </trkpt>
      <trkpt lat="39.95578" lon="-4.8438">
        <ele>371.4</ele>
        <time>2020-08-16 15:43:12</time>
      </trkpt>
      <trkpt lat="39.95573" lon="-4.8439">
        <ele>371.4</ele>
        <time>2020-08-16 15:43:14</time>
      </trkpt>
      <trkpt lat="39.95572" lon="-4.84394">
        <ele>371.4</ele>
        <time>2020-08-16 15:43:15</time>
      </trkpt>
      <trkpt lat="39.95569" lon="-4.84398">
        <ele>371.4</ele>
        <time>2020-08-16 15:43:16</time>
      </trkpt>
      <trkpt lat="39.95565" lon="-4.84401">
        <ele>371.6</ele>
        <time>2020-08-16 15:43:17</time>
      </trkpt>
      <trkpt lat="39.95564" lon="-4.84405">
        <ele>371.6</ele>
        <time>2020-08-16 15:43:18</time>
      </trkpt>
      <trkpt lat="39.95561" lon="-4.84411">
        <ele>371.6</ele>
        <time>2020-08-16 15:43:19</time>
      </trkpt>
      <trkpt lat="39.95558" lon="-4.84417">
        <ele>371.6</ele>
        <time>2020-08-16 15:43:20</time>
      </trkpt>
      <trkpt lat="39.95556" lon="-4.84424">
        <ele>371.6</ele>
        <time>2020-08-16 15:43:21</time>
      </trkpt>
      <trkpt lat="39.95554" lon="-4.8443">
        <ele>371.6</ele>
        <time>2020-08-16 15:43:22</time>
      </trkpt>
      <trkpt lat="39.95553" lon="-4.84435">
        <ele>371.6</ele>
        <time>2020-08-16 15:43:23</time>
      </trkpt>
      <trkpt lat="39.95553" lon="-4.84435">
        <ele>371.6</ele>
        <time>2020-08-16 15:43:24</time>
      </trkpt>
      <trkpt lat="39.95548" lon="-4.84447">
        <ele>371.6</ele>
        <time>2020-08-16 15:43:25</time>
      </trkpt>
      <trkpt lat="39.95545" lon="-4.8445">
        <ele>371.6</ele>
        <time>2020-08-16 15:43:26</time>
      </trkpt>
      <trkpt lat="39.95541" lon="-4.84452">
        <ele>371.6</ele>
        <time>2020-08-16 15:43:27</time>
      </trkpt>
      <trkpt lat="39.95536" lon="-4.84452">
        <ele>371.6</ele>
        <time>2020-08-16 15:43:28</time>
      </trkpt>
      <trkpt lat="39.95532" lon="-4.8445">
        <ele>371.6</ele>
        <time>2020-08-16 15:43:29</time>
      </trkpt>
      <trkpt lat="39.95532" lon="-4.8445">
        <ele>371.6</ele>
        <time>2020-08-16 15:43:30</time>
      </trkpt>
      <trkpt lat="39.95523" lon="-4.84444">
        <ele>371.6</ele>
        <time>2020-08-16 15:43:31</time>
      </trkpt>
      <trkpt lat="39.9552" lon="-4.84439">
        <ele>371.6</ele>
        <time>2020-08-16 15:43:32</time>
      </trkpt>
      <trkpt lat="39.95518" lon="-4.84434">
        <ele>371.8</ele>
        <time>2020-08-16 15:43:33</time>
      </trkpt>
      <trkpt lat="39.95515" lon="-4.84429">
        <ele>371.8</ele>
        <time>2020-08-16 15:43:34</time>
      </trkpt>
      <trkpt lat="39.95512" lon="-4.84423">
        <ele>371.8</ele>
        <time>2020-08-16 15:43:35</time>
      </trkpt>
      <trkpt lat="39.9551" lon="-4.84419">
        <ele>371.8</ele>
        <time>2020-08-16 15:43:36</time>
      </trkpt>
      <trkpt lat="39.95506" lon="-4.84414">
        <ele>371.8</ele>
        <time>2020-08-16 15:43:37</time>
      </trkpt>
      <trkpt lat="39.95503" lon="-4.84409">
        <ele>371.8</ele>
        <time>2020-08-16 15:43:38</time>
      </trkpt>
      <trkpt lat="39.95499" lon="-4.84405">
        <ele>371.8</ele>
        <time>2020-08-16 15:43:39</time>
      </trkpt>
      <trkpt lat="39.95495" lon="-4.84401">
        <ele>371.8</ele>
        <time>2020-08-16 15:43:40</time>
      </trkpt>
      <trkpt lat="39.95491" lon="-4.84397">
        <ele>371.8</ele>
        <time>2020-08-16 15:43:41</time>
      </trkpt>
      <trkpt lat="39.95487" lon="-4.84394">
        <ele>371.8</ele>
        <time>2020-08-16 15:43:42</time>
      </trkpt>
      <trkpt lat="39.95485" lon="-4.8439">
        <ele>371.8</ele>
        <time>2020-08-16 15:43:43</time>
      </trkpt>
      <trkpt lat="39.95484" lon="-4.84385">
        <ele>371.8</ele>
        <time>2020-08-16 15:43:44</time>
      </trkpt>
      <trkpt lat="39.95481" lon="-4.84382">
        <ele>371.8</ele>
        <time>2020-08-16 15:43:45</time>
      </trkpt>
      <trkpt lat="39.95478" lon="-4.84377">
        <ele>372</ele>
        <time>2020-08-16 15:43:46</time>
      </trkpt>
      <trkpt lat="39.95471" lon="-4.84368">
        <ele>372</ele>
        <time>2020-08-16 15:43:48</time>
      </trkpt>
      <trkpt lat="39.95465" lon="-4.84364">
        <ele>372</ele>
        <time>2020-08-16 15:43:49</time>
      </trkpt>
      <trkpt lat="39.9546" lon="-4.84361">
        <ele>372</ele>
        <time>2020-08-16 15:43:50</time>
      </trkpt>
      <trkpt lat="39.95455" lon="-4.84361">
        <ele>372</ele>
        <time>2020-08-16 15:43:51</time>
      </trkpt>
      <trkpt lat="39.9545" lon="-4.84361">
        <ele>372</ele>
        <time>2020-08-16 15:43:52</time>
      </trkpt>
      <trkpt lat="39.95444" lon="-4.84362">
        <ele>372</ele>
        <time>2020-08-16 15:43:53</time>
      </trkpt>
      <trkpt lat="39.95438" lon="-4.84362">
        <ele>372</ele>
        <time>2020-08-16 15:43:54</time>
      </trkpt>
      <trkpt lat="39.95418" lon="-4.8437">
        <ele>372</ele>
        <time>2020-08-16 15:43:58</time>
      </trkpt>
      <trkpt lat="39.95414" lon="-4.84373">
        <ele>372</ele>
        <time>2020-08-16 15:43:59</time>
      </trkpt>
      <trkpt lat="39.9541" lon="-4.84375">
        <ele>371.8</ele>
        <time>2020-08-16 15:44:00</time>
      </trkpt>
      <trkpt lat="39.95407" lon="-4.84377">
        <ele>371.8</ele>
        <time>2020-08-16 15:44:01</time>
      </trkpt>
      <trkpt lat="39.95398" lon="-4.84381">
        <ele>371.8</ele>
        <time>2020-08-16 15:44:03</time>
      </trkpt>
      <trkpt lat="39.95389" lon="-4.84386">
        <ele>371.8</ele>
        <time>2020-08-16 15:44:05</time>
      </trkpt>
      <trkpt lat="39.95377" lon="-4.84395">
        <ele>371.8</ele>
        <time>2020-08-16 15:44:08</time>
      </trkpt>
      <trkpt lat="39.95364" lon="-4.84406">
        <ele>371.8</ele>
        <time>2020-08-16 15:44:11</time>
      </trkpt>
      <trkpt lat="39.95361" lon="-4.84409">
        <ele>371.6</ele>
        <time>2020-08-16 15:44:12</time>
      </trkpt>
      <trkpt lat="39.95357" lon="-4.84413">
        <ele>371.8</ele>
        <time>2020-08-16 15:44:13</time>
      </trkpt>
      <trkpt lat="39.95353" lon="-4.84416">
        <ele>371.6</ele>
        <time>2020-08-16 15:44:14</time>
      </trkpt>
      <trkpt lat="39.9535" lon="-4.84418">
        <ele>371.4</ele>
        <time>2020-08-16 15:44:15</time>
      </trkpt>
      <trkpt lat="39.95347" lon="-4.84421">
        <ele>371.2</ele>
        <time>2020-08-16 15:44:16</time>
      </trkpt>
      <trkpt lat="39.95343" lon="-4.84424">
        <ele>371.2</ele>
        <time>2020-08-16 15:44:17</time>
      </trkpt>
      <trkpt lat="39.9534" lon="-4.84427">
        <ele>371</ele>
        <time>2020-08-16 15:44:18</time>
      </trkpt>
      <trkpt lat="39.95337" lon="-4.84429">
        <ele>371</ele>
        <time>2020-08-16 15:44:19</time>
      </trkpt>
      <trkpt lat="39.95331" lon="-4.84434">
        <ele>371.2</ele>
        <time>2020-08-16 15:44:21</time>
      </trkpt>
      <trkpt lat="39.95328" lon="-4.84436">
        <ele>371.4</ele>
        <time>2020-08-16 15:44:22</time>
      </trkpt>
      <trkpt lat="39.95325" lon="-4.84439">
        <ele>371.4</ele>
        <time>2020-08-16 15:44:23</time>
      </trkpt>
      <trkpt lat="39.95321" lon="-4.84442">
        <ele>371.2</ele>
        <time>2020-08-16 15:44:24</time>
      </trkpt>
      <trkpt lat="39.95318" lon="-4.84445">
        <ele>371.4</ele>
        <time>2020-08-16 15:44:25</time>
      </trkpt>
      <trkpt lat="39.95314" lon="-4.84448">
        <ele>371.4</ele>
        <time>2020-08-16 15:44:26</time>
      </trkpt>
      <trkpt lat="39.95311" lon="-4.84451">
        <ele>371.4</ele>
        <time>2020-08-16 15:44:27</time>
      </trkpt>
      <trkpt lat="39.95294" lon="-4.84465">
        <ele>371.4</ele>
        <time>2020-08-16 15:44:32</time>
      </trkpt>
      <trkpt lat="39.95291" lon="-4.84468">
        <ele>371.4</ele>
        <time>2020-08-16 15:44:33</time>
      </trkpt>
      <trkpt lat="39.95275" lon="-4.84483">
        <ele>371.2</ele>
        <time>2020-08-16 15:44:38</time>
      </trkpt>
      <trkpt lat="39.95272" lon="-4.84486">
        <ele>371.2</ele>
        <time>2020-08-16 15:44:39</time>
      </trkpt>
      <trkpt lat="39.95268" lon="-4.84489">
        <ele>370.8</ele>
        <time>2020-08-16 15:44:40</time>
      </trkpt>
      <trkpt lat="39.95252" lon="-4.84507">
        <ele>370.4</ele>
        <time>2020-08-16 15:44:45</time>
      </trkpt>
      <trkpt lat="39.95249" lon="-4.8451">
        <ele>370.4</ele>
        <time>2020-08-16 15:44:46</time>
      </trkpt>
      <trkpt lat="39.95246" lon="-4.84514">
        <ele>370.4</ele>
        <time>2020-08-16 15:44:47</time>
      </trkpt>
      <trkpt lat="39.95243" lon="-4.84517">
        <ele>370.4</ele>
        <time>2020-08-16 15:44:48</time>
      </trkpt>
      <trkpt lat="39.95239" lon="-4.84521">
        <ele>370.4</ele>
        <time>2020-08-16 15:44:49</time>
      </trkpt>
      <trkpt lat="39.95226" lon="-4.84538">
        <ele>370.2</ele>
        <time>2020-08-16 15:44:53</time>
      </trkpt>
      <trkpt lat="39.95223" lon="-4.84542">
        <ele>370.2</ele>
        <time>2020-08-16 15:44:54</time>
      </trkpt>
      <trkpt lat="39.95213" lon="-4.84553">
        <ele>370.4</ele>
        <time>2020-08-16 15:44:57</time>
      </trkpt>
      <trkpt lat="39.95207" lon="-4.84561">
        <ele>370.8</ele>
        <time>2020-08-16 15:44:59</time>
      </trkpt>
      <trkpt lat="39.952" lon="-4.84569">
        <ele>370.8</ele>
        <time>2020-08-16 15:45:01</time>
      </trkpt>
      <trkpt lat="39.95198" lon="-4.84573">
        <ele>370.8</ele>
        <time>2020-08-16 15:45:02</time>
      </trkpt>
      <trkpt lat="39.95195" lon="-4.84577">
        <ele>370.8</ele>
        <time>2020-08-16 15:45:03</time>
      </trkpt>
      <trkpt lat="39.95192" lon="-4.8458">
        <ele>370.8</ele>
        <time>2020-08-16 15:45:04</time>
      </trkpt>
      <trkpt lat="39.9519" lon="-4.84584">
        <ele>370.8</ele>
        <time>2020-08-16 15:45:05</time>
      </trkpt>
      <trkpt lat="39.95187" lon="-4.84588">
        <ele>370.8</ele>
        <time>2020-08-16 15:45:06</time>
      </trkpt>
      <trkpt lat="39.95185" lon="-4.84591">
        <ele>370.8</ele>
        <time>2020-08-16 15:45:07</time>
      </trkpt>
      <trkpt lat="39.95185" lon="-4.84591">
        <ele>370.8</ele>
        <time>2020-08-16 15:45:08</time>
      </trkpt>
      <trkpt lat="39.9518" lon="-4.84598">
        <ele>370.8</ele>
        <time>2020-08-16 15:45:09</time>
      </trkpt>
      <trkpt lat="39.95177" lon="-4.84601">
        <ele>370.8</ele>
        <time>2020-08-16 15:45:10</time>
      </trkpt>
      <trkpt lat="39.95174" lon="-4.84604">
        <ele>370.8</ele>
        <time>2020-08-16 15:45:11</time>
      </trkpt>
      <trkpt lat="39.95171" lon="-4.84607">
        <ele>370.8</ele>
        <time>2020-08-16 15:45:12</time>
      </trkpt>
      <trkpt lat="39.95169" lon="-4.84611">
        <ele>370.8</ele>
        <time>2020-08-16 15:45:13</time>
      </trkpt>
      <trkpt lat="39.95166" lon="-4.84614">
        <ele>370.8</ele>
        <time>2020-08-16 15:45:14</time>
      </trkpt>
      <trkpt lat="39.95164" lon="-4.84617">
        <ele>370.8</ele>
        <time>2020-08-16 15:45:15</time>
      </trkpt>
      <trkpt lat="39.95161" lon="-4.8462">
        <ele>371</ele>
        <time>2020-08-16 15:45:16</time>
      </trkpt>
      <trkpt lat="39.95161" lon="-4.8462">
        <ele>371.2</ele>
        <time>2020-08-16 15:45:17</time>
      </trkpt>
      <trkpt lat="39.95156" lon="-4.84625">
        <ele>371.4</ele>
        <time>2020-08-16 15:45:18</time>
      </trkpt>
      <trkpt lat="39.95154" lon="-4.84628">
        <ele>371.4</ele>
        <time>2020-08-16 15:45:19</time>
      </trkpt>
      <trkpt lat="39.95151" lon="-4.84631">
        <ele>371.6</ele>
        <time>2020-08-16 15:45:20</time>
      </trkpt>
      <trkpt lat="39.95148" lon="-4.84634">
        <ele>371.8</ele>
        <time>2020-08-16 15:45:21</time>
      </trkpt>
      <trkpt lat="39.95146" lon="-4.84638">
        <ele>371.8</ele>
        <time>2020-08-16 15:45:22</time>
      </trkpt>
      <trkpt lat="39.9512" lon="-4.84669">
        <ele>371.4</ele>
        <time>2020-08-16 15:45:31</time>
      </trkpt>
      <trkpt lat="39.95117" lon="-4.84672">
        <ele>371.4</ele>
        <time>2020-08-16 15:45:32</time>
      </trkpt>
      <trkpt lat="39.95109" lon="-4.8468">
        <ele>371.4</ele>
        <time>2020-08-16 15:45:35</time>
      </trkpt>
      <trkpt lat="39.95107" lon="-4.84683">
        <ele>371.4</ele>
        <time>2020-08-16 15:45:36</time>
      </trkpt>
      <trkpt lat="39.95104" lon="-4.84686">
        <ele>371.2</ele>
        <time>2020-08-16 15:45:37</time>
      </trkpt>
      <trkpt lat="39.95101" lon="-4.84689">
        <ele>371.2</ele>
        <time>2020-08-16 15:45:38</time>
      </trkpt>
      <trkpt lat="39.95099" lon="-4.84692">
        <ele>371.2</ele>
        <time>2020-08-16 15:45:39</time>
      </trkpt>
      <trkpt lat="39.95096" lon="-4.84695">
        <ele>371.2</ele>
        <time>2020-08-16 15:45:40</time>
      </trkpt>
      <trkpt lat="39.95093" lon="-4.84698">
        <ele>371.2</ele>
        <time>2020-08-16 15:45:41</time>
      </trkpt>
      <trkpt lat="39.9509" lon="-4.84701">
        <ele>371.2</ele>
        <time>2020-08-16 15:45:42</time>
      </trkpt>
      <trkpt lat="39.95087" lon="-4.84704">
        <ele>371</ele>
        <time>2020-08-16 15:45:43</time>
      </trkpt>
      <trkpt lat="39.9508" lon="-4.84711">
        <ele>371</ele>
        <time>2020-08-16 15:45:45</time>
      </trkpt>
      <trkpt lat="39.95067" lon="-4.84723">
        <ele>371</ele>
        <time>2020-08-16 15:45:49</time>
      </trkpt>
      <trkpt lat="39.95064" lon="-4.84726">
        <ele>371</ele>
        <time>2020-08-16 15:45:50</time>
      </trkpt>
      <trkpt lat="39.95052" lon="-4.8474">
        <ele>370.8</ele>
        <time>2020-08-16 15:45:54</time>
      </trkpt>
      <trkpt lat="39.95049" lon="-4.84743">
        <ele>370.8</ele>
        <time>2020-08-16 15:45:55</time>
      </trkpt>
      <trkpt lat="39.95047" lon="-4.84747">
        <ele>370.8</ele>
        <time>2020-08-16 15:45:56</time>
      </trkpt>
      <trkpt lat="39.95044" lon="-4.8475">
        <ele>370.6</ele>
        <time>2020-08-16 15:45:57</time>
      </trkpt>
      <trkpt lat="39.95042" lon="-4.84754">
        <ele>370.4</ele>
        <time>2020-08-16 15:45:58</time>
      </trkpt>
      <trkpt lat="39.95039" lon="-4.84758">
        <ele>370.4</ele>
        <time>2020-08-16 15:45:59</time>
      </trkpt>
      <trkpt lat="39.95036" lon="-4.84761">
        <ele>370.4</ele>
        <time>2020-08-16 15:46:00</time>
      </trkpt>
      <trkpt lat="39.95033" lon="-4.84764">
        <ele>370.4</ele>
        <time>2020-08-16 15:46:01</time>
      </trkpt>
      <trkpt lat="39.9503" lon="-4.84768">
        <ele>370.2</ele>
        <time>2020-08-16 15:46:02</time>
      </trkpt>
      <trkpt lat="39.95027" lon="-4.84771">
        <ele>370.2</ele>
        <time>2020-08-16 15:46:03</time>
      </trkpt>
      <trkpt lat="39.95024" lon="-4.84774">
        <ele>370.2</ele>
        <time>2020-08-16 15:46:04</time>
      </trkpt>
      <trkpt lat="39.95021" lon="-4.84777">
        <ele>370.2</ele>
        <time>2020-08-16 15:46:05</time>
      </trkpt>
      <trkpt lat="39.95018" lon="-4.84779">
        <ele>370.2</ele>
        <time>2020-08-16 15:46:06</time>
      </trkpt>
      <trkpt lat="39.95016" lon="-4.84781">
        <ele>370.2</ele>
        <time>2020-08-16 15:46:07</time>
      </trkpt>
      <trkpt lat="39.95013" lon="-4.84784">
        <ele>370.2</ele>
        <time>2020-08-16 15:46:08</time>
      </trkpt>
      <trkpt lat="39.95011" lon="-4.84787">
        <ele>370.2</ele>
        <time>2020-08-16 15:46:09</time>
      </trkpt>
      <trkpt lat="39.95008" lon="-4.8479">
        <ele>370.2</ele>
        <time>2020-08-16 15:46:10</time>
      </trkpt>
      <trkpt lat="39.95005" lon="-4.84793">
        <ele>370.2</ele>
        <time>2020-08-16 15:46:11</time>
      </trkpt>
      <trkpt lat="39.95002" lon="-4.84796">
        <ele>370.2</ele>
        <time>2020-08-16 15:46:12</time>
      </trkpt>
      <trkpt lat="39.95" lon="-4.84799">
        <ele>370.2</ele>
        <time>2020-08-16 15:46:13</time>
      </trkpt>
      <trkpt lat="39.94997" lon="-4.84803">
        <ele>370.2</ele>
        <time>2020-08-16 15:46:14</time>
      </trkpt>
      <trkpt lat="39.94994" lon="-4.84806">
        <ele>370.2</ele>
        <time>2020-08-16 15:46:15</time>
      </trkpt>
      <trkpt lat="39.94991" lon="-4.84809">
        <ele>370.2</ele>
        <time>2020-08-16 15:46:16</time>
      </trkpt>
      <trkpt lat="39.94988" lon="-4.84813">
        <ele>370.2</ele>
        <time>2020-08-16 15:46:17</time>
      </trkpt>
      <trkpt lat="39.94983" lon="-4.84819">
        <ele>370.2</ele>
        <time>2020-08-16 15:46:19</time>
      </trkpt>
      <trkpt lat="39.94978" lon="-4.84827">
        <ele>370</ele>
        <time>2020-08-16 15:46:21</time>
      </trkpt>
      <trkpt lat="39.94976" lon="-4.8483">
        <ele>370</ele>
        <time>2020-08-16 15:46:22</time>
      </trkpt>
      <trkpt lat="39.94963" lon="-4.84849">
        <ele>369.6</ele>
        <time>2020-08-16 15:46:27</time>
      </trkpt>
      <trkpt lat="39.94954" lon="-4.84861">
        <ele>369.6</ele>
        <time>2020-08-16 15:46:30</time>
      </trkpt>
      <trkpt lat="39.94951" lon="-4.84865">
        <ele>369.6</ele>
        <time>2020-08-16 15:46:31</time>
      </trkpt>
      <trkpt lat="39.94943" lon="-4.84877">
        <ele>369.8</ele>
        <time>2020-08-16 15:46:34</time>
      </trkpt>
      <trkpt lat="39.94941" lon="-4.8488">
        <ele>370</ele>
        <time>2020-08-16 15:46:35</time>
      </trkpt>
      <trkpt lat="39.94932" lon="-4.8489">
        <ele>370.2</ele>
        <time>2020-08-16 15:46:38</time>
      </trkpt>
      <trkpt lat="39.94927" lon="-4.84897">
        <ele>370.4</ele>
        <time>2020-08-16 15:46:40</time>
      </trkpt>
      <trkpt lat="39.94924" lon="-4.84901">
        <ele>370.4</ele>
        <time>2020-08-16 15:46:41</time>
      </trkpt>
      <trkpt lat="39.94922" lon="-4.84905">
        <ele>370.4</ele>
        <time>2020-08-16 15:46:42</time>
      </trkpt>
      <trkpt lat="39.94905" lon="-4.84929">
        <ele>370.6</ele>
        <time>2020-08-16 15:46:48</time>
      </trkpt>
      <trkpt lat="39.94903" lon="-4.84933">
        <ele>370.6</ele>
        <time>2020-08-16 15:46:49</time>
      </trkpt>
      <trkpt lat="39.949" lon="-4.84936">
        <ele>370.6</ele>
        <time>2020-08-16 15:46:50</time>
      </trkpt>
      <trkpt lat="39.94895" lon="-4.84945">
        <ele>370.6</ele>
        <time>2020-08-16 15:46:52</time>
      </trkpt>
      <trkpt lat="39.94881" lon="-4.84966">
        <ele>370.6</ele>
        <time>2020-08-16 15:46:57</time>
      </trkpt>
      <trkpt lat="39.94879" lon="-4.8497">
        <ele>370.6</ele>
        <time>2020-08-16 15:46:58</time>
      </trkpt>
      <trkpt lat="39.94857" lon="-4.85004">
        <ele>370.8</ele>
        <time>2020-08-16 15:47:06</time>
      </trkpt>
      <trkpt lat="39.94851" lon="-4.85012">
        <ele>370.8</ele>
        <time>2020-08-16 15:47:08</time>
      </trkpt>
      <trkpt lat="39.94848" lon="-4.85016">
        <ele>370.8</ele>
        <time>2020-08-16 15:47:09</time>
      </trkpt>
      <trkpt lat="39.94845" lon="-4.85021">
        <ele>370.8</ele>
        <time>2020-08-16 15:47:10</time>
      </trkpt>
      <trkpt lat="39.94825" lon="-4.85051">
        <ele>371</ele>
        <time>2020-08-16 15:47:17</time>
      </trkpt>
      <trkpt lat="39.94811" lon="-4.85073">
        <ele>371.2</ele>
        <time>2020-08-16 15:47:22</time>
      </trkpt>
      <trkpt lat="39.94809" lon="-4.85077">
        <ele>371.2</ele>
        <time>2020-08-16 15:47:23</time>
      </trkpt>
      <trkpt lat="39.94807" lon="-4.85082">
        <ele>371.2</ele>
        <time>2020-08-16 15:47:24</time>
      </trkpt>
      <trkpt lat="39.94805" lon="-4.85086">
        <ele>371</ele>
        <time>2020-08-16 15:47:25</time>
      </trkpt>
      <trkpt lat="39.94802" lon="-4.8509">
        <ele>371</ele>
        <time>2020-08-16 15:47:26</time>
      </trkpt>
      <trkpt lat="39.948" lon="-4.85094">
        <ele>371.2</ele>
        <time>2020-08-16 15:47:27</time>
      </trkpt>
      <trkpt lat="39.9477" lon="-4.85143">
        <ele>371.2</ele>
        <time>2020-08-16 15:47:38</time>
      </trkpt>
      <trkpt lat="39.94765" lon="-4.85152">
        <ele>371.2</ele>
        <time>2020-08-16 15:47:40</time>
      </trkpt>
      <trkpt lat="39.94763" lon="-4.85156">
        <ele>371.2</ele>
        <time>2020-08-16 15:47:41</time>
      </trkpt>
      <trkpt lat="39.94758" lon="-4.85165">
        <ele>371.4</ele>
        <time>2020-08-16 15:47:43</time>
      </trkpt>
      <trkpt lat="39.94755" lon="-4.85169">
        <ele>371.4</ele>
        <time>2020-08-16 15:47:44</time>
      </trkpt>
      <trkpt lat="39.94753" lon="-4.85173">
        <ele>371.6</ele>
        <time>2020-08-16 15:47:45</time>
      </trkpt>
      <trkpt lat="39.9475" lon="-4.85178">
        <ele>371.4</ele>
        <time>2020-08-16 15:47:46</time>
      </trkpt>
      <trkpt lat="39.94747" lon="-4.85182">
        <ele>371.4</ele>
        <time>2020-08-16 15:47:47</time>
      </trkpt>
      <trkpt lat="39.94744" lon="-4.85187">
        <ele>371.4</ele>
        <time>2020-08-16 15:47:48</time>
      </trkpt>
      <trkpt lat="39.94742" lon="-4.85191">
        <ele>371.4</ele>
        <time>2020-08-16 15:47:49</time>
      </trkpt>
      <trkpt lat="39.9474" lon="-4.85195">
        <ele>371.4</ele>
        <time>2020-08-16 15:47:50</time>
      </trkpt>
      <trkpt lat="39.94737" lon="-4.85199">
        <ele>371.4</ele>
        <time>2020-08-16 15:47:51</time>
      </trkpt>
      <trkpt lat="39.94735" lon="-4.85202">
        <ele>371.6</ele>
        <time>2020-08-16 15:47:52</time>
      </trkpt>
      <trkpt lat="39.94732" lon="-4.85205">
        <ele>371.6</ele>
        <time>2020-08-16 15:47:53</time>
      </trkpt>
      <trkpt lat="39.94729" lon="-4.85209">
        <ele>371.8</ele>
        <time>2020-08-16 15:47:54</time>
      </trkpt>
      <trkpt lat="39.94726" lon="-4.85213">
        <ele>372</ele>
        <time>2020-08-16 15:47:55</time>
      </trkpt>
      <trkpt lat="39.94724" lon="-4.85216">
        <ele>372.2</ele>
        <time>2020-08-16 15:47:56</time>
      </trkpt>
      <trkpt lat="39.94722" lon="-4.8522">
        <ele>372.4</ele>
        <time>2020-08-16 15:47:57</time>
      </trkpt>
      <trkpt lat="39.94719" lon="-4.85224">
        <ele>372.6</ele>
        <time>2020-08-16 15:47:58</time>
      </trkpt>
      <trkpt lat="39.94717" lon="-4.85227">
        <ele>372.4</ele>
        <time>2020-08-16 15:47:59</time>
      </trkpt>
      <trkpt lat="39.94714" lon="-4.85231">
        <ele>372.4</ele>
        <time>2020-08-16 15:48:00</time>
      </trkpt>
      <trkpt lat="39.94711" lon="-4.85234">
        <ele>372.4</ele>
        <time>2020-08-16 15:48:01</time>
      </trkpt>
      <trkpt lat="39.94708" lon="-4.85237">
        <ele>372.4</ele>
        <time>2020-08-16 15:48:02</time>
      </trkpt>
      <trkpt lat="39.94705" lon="-4.8524">
        <ele>372.4</ele>
        <time>2020-08-16 15:48:03</time>
      </trkpt>
      <trkpt lat="39.94703" lon="-4.85243">
        <ele>372.4</ele>
        <time>2020-08-16 15:48:04</time>
      </trkpt>
      <trkpt lat="39.94701" lon="-4.85246">
        <ele>372.2</ele>
        <time>2020-08-16 15:48:05</time>
      </trkpt>
      <trkpt lat="39.94698" lon="-4.85249">
        <ele>372.2</ele>
        <time>2020-08-16 15:48:06</time>
      </trkpt>
      <trkpt lat="39.94696" lon="-4.85252">
        <ele>372.2</ele>
        <time>2020-08-16 15:48:07</time>
      </trkpt>
      <trkpt lat="39.94693" lon="-4.85256">
        <ele>372.2</ele>
        <time>2020-08-16 15:48:08</time>
      </trkpt>
      <trkpt lat="39.94689" lon="-4.8526">
        <ele>372.2</ele>
        <time>2020-08-16 15:48:09</time>
      </trkpt>
      <trkpt lat="39.94686" lon="-4.85263">
        <ele>372</ele>
        <time>2020-08-16 15:48:10</time>
      </trkpt>
      <trkpt lat="39.94678" lon="-4.85273">
        <ele>371.8</ele>
        <time>2020-08-16 15:48:13</time>
      </trkpt>
      <trkpt lat="39.94675" lon="-4.85276">
        <ele>371.8</ele>
        <time>2020-08-16 15:48:14</time>
      </trkpt>
      <trkpt lat="39.94667" lon="-4.85285">
        <ele>371.6</ele>
        <time>2020-08-16 15:48:17</time>
      </trkpt>
      <trkpt lat="39.94662" lon="-4.85291">
        <ele>371.6</ele>
        <time>2020-08-16 15:48:19</time>
      </trkpt>
      <trkpt lat="39.94658" lon="-4.85294">
        <ele>371.4</ele>
        <time>2020-08-16 15:48:20</time>
      </trkpt>
      <trkpt lat="39.9464" lon="-4.85314">
        <ele>371.2</ele>
        <time>2020-08-16 15:48:26</time>
      </trkpt>
      <trkpt lat="39.9462" lon="-4.85338">
        <ele>371</ele>
        <time>2020-08-16 15:48:33</time>
      </trkpt>
      <trkpt lat="39.94614" lon="-4.85345">
        <ele>371</ele>
        <time>2020-08-16 15:48:35</time>
      </trkpt>
      <trkpt lat="39.94609" lon="-4.85353">
        <ele>370.8</ele>
        <time>2020-08-16 15:48:37</time>
      </trkpt>
      <trkpt lat="39.94606" lon="-4.85357">
        <ele>370.8</ele>
        <time>2020-08-16 15:48:38</time>
      </trkpt>
      <trkpt lat="39.94603" lon="-4.85361">
        <ele>370.8</ele>
        <time>2020-08-16 15:48:39</time>
      </trkpt>
      <trkpt lat="39.94601" lon="-4.85364">
        <ele>370.8</ele>
        <time>2020-08-16 15:48:40</time>
      </trkpt>
      <trkpt lat="39.94598" lon="-4.85368">
        <ele>370.8</ele>
        <time>2020-08-16 15:48:41</time>
      </trkpt>
      <trkpt lat="39.94596" lon="-4.85372">
        <ele>370.8</ele>
        <time>2020-08-16 15:48:42</time>
      </trkpt>
      <trkpt lat="39.94593" lon="-4.85376">
        <ele>370.8</ele>
        <time>2020-08-16 15:48:43</time>
      </trkpt>
      <trkpt lat="39.94585" lon="-4.85387">
        <ele>370.8</ele>
        <time>2020-08-16 15:48:46</time>
      </trkpt>
      <trkpt lat="39.94575" lon="-4.85402">
        <ele>370.6</ele>
        <time>2020-08-16 15:48:50</time>
      </trkpt>
      <trkpt lat="39.94573" lon="-4.85406">
        <ele>370.6</ele>
        <time>2020-08-16 15:48:51</time>
      </trkpt>
      <trkpt lat="39.9457" lon="-4.8541">
        <ele>370.6</ele>
        <time>2020-08-16 15:48:52</time>
      </trkpt>
      <trkpt lat="39.94568" lon="-4.85414">
        <ele>370.8</ele>
        <time>2020-08-16 15:48:53</time>
      </trkpt>
      <trkpt lat="39.94566" lon="-4.85418">
        <ele>370.8</ele>
        <time>2020-08-16 15:48:54</time>
      </trkpt>
      <trkpt lat="39.94564" lon="-4.85422">
        <ele>370.8</ele>
        <time>2020-08-16 15:48:55</time>
      </trkpt>
      <trkpt lat="39.94562" lon="-4.85427">
        <ele>370.8</ele>
        <time>2020-08-16 15:48:56</time>
      </trkpt>
      <trkpt lat="39.9456" lon="-4.85431">
        <ele>370.8</ele>
        <time>2020-08-16 15:48:57</time>
      </trkpt>
      <trkpt lat="39.94558" lon="-4.85435">
        <ele>370.8</ele>
        <time>2020-08-16 15:48:58</time>
      </trkpt>
      <trkpt lat="39.94544" lon="-4.85461">
        <ele>370.6</ele>
        <time>2020-08-16 15:49:04</time>
      </trkpt>
      <trkpt lat="39.94518" lon="-4.85513">
        <ele>370</ele>
        <time>2020-08-16 15:49:15</time>
      </trkpt>
      <trkpt lat="39.94513" lon="-4.85522">
        <ele>369.8</ele>
        <time>2020-08-16 15:49:17</time>
      </trkpt>
      <trkpt lat="39.94511" lon="-4.85526">
        <ele>369.8</ele>
        <time>2020-08-16 15:49:18</time>
      </trkpt>
      <trkpt lat="39.94506" lon="-4.85534">
        <ele>369.8</ele>
        <time>2020-08-16 15:49:20</time>
      </trkpt>
      <trkpt lat="39.94504" lon="-4.85539">
        <ele>369.8</ele>
        <time>2020-08-16 15:49:21</time>
      </trkpt>
      <trkpt lat="39.94501" lon="-4.85542">
        <ele>369.8</ele>
        <time>2020-08-16 15:49:22</time>
      </trkpt>
      <trkpt lat="39.94499" lon="-4.85546">
        <ele>369.8</ele>
        <time>2020-08-16 15:49:23</time>
      </trkpt>
      <trkpt lat="39.94499" lon="-4.85546">
        <ele>369.8</ele>
        <time>2020-08-16 15:49:24</time>
      </trkpt>
      <trkpt lat="39.94495" lon="-4.85554">
        <ele>369.8</ele>
        <time>2020-08-16 15:49:25</time>
      </trkpt>
      <trkpt lat="39.94492" lon="-4.85558">
        <ele>369.8</ele>
        <time>2020-08-16 15:49:26</time>
      </trkpt>
      <trkpt lat="39.9449" lon="-4.85561">
        <ele>369.8</ele>
        <time>2020-08-16 15:49:27</time>
      </trkpt>
      <trkpt lat="39.94487" lon="-4.85565">
        <ele>370</ele>
        <time>2020-08-16 15:49:28</time>
      </trkpt>
      <trkpt lat="39.94484" lon="-4.85569">
        <ele>370.2</ele>
        <time>2020-08-16 15:49:29</time>
      </trkpt>
      <trkpt lat="39.94481" lon="-4.85574">
        <ele>370.2</ele>
        <time>2020-08-16 15:49:30</time>
      </trkpt>
      <trkpt lat="39.94478" lon="-4.85579">
        <ele>370.2</ele>
        <time>2020-08-16 15:49:31</time>
      </trkpt>
      <trkpt lat="39.94475" lon="-4.85583">
        <ele>370.2</ele>
        <time>2020-08-16 15:49:32</time>
      </trkpt>
      <trkpt lat="39.94464" lon="-4.856">
        <ele>370.2</ele>
        <time>2020-08-16 15:49:36</time>
      </trkpt>
      <trkpt lat="39.94461" lon="-4.85605">
        <ele>370.2</ele>
        <time>2020-08-16 15:49:37</time>
      </trkpt>
      <trkpt lat="39.94458" lon="-4.85609">
        <ele>370.2</ele>
        <time>2020-08-16 15:49:38</time>
      </trkpt>
      <trkpt lat="39.9445" lon="-4.85623">
        <ele>370.2</ele>
        <time>2020-08-16 15:49:41</time>
      </trkpt>
      <trkpt lat="39.94447" lon="-4.85627">
        <ele>370.2</ele>
        <time>2020-08-16 15:49:42</time>
      </trkpt>
      <trkpt lat="39.94444" lon="-4.85631">
        <ele>370</ele>
        <time>2020-08-16 15:49:43</time>
      </trkpt>
      <trkpt lat="39.94441" lon="-4.85636">
        <ele>370</ele>
        <time>2020-08-16 15:49:44</time>
      </trkpt>
      <trkpt lat="39.94438" lon="-4.8564">
        <ele>370</ele>
        <time>2020-08-16 15:49:45</time>
      </trkpt>
      <trkpt lat="39.94436" lon="-4.85644">
        <ele>370</ele>
        <time>2020-08-16 15:49:46</time>
      </trkpt>
      <trkpt lat="39.94433" lon="-4.85648">
        <ele>370</ele>
        <time>2020-08-16 15:49:47</time>
      </trkpt>
      <trkpt lat="39.9443" lon="-4.85652">
        <ele>370</ele>
        <time>2020-08-16 15:49:48</time>
      </trkpt>
      <trkpt lat="39.94428" lon="-4.85656">
        <ele>370</ele>
        <time>2020-08-16 15:49:49</time>
      </trkpt>
      <trkpt lat="39.94425" lon="-4.85661">
        <ele>370</ele>
        <time>2020-08-16 15:49:50</time>
      </trkpt>
      <trkpt lat="39.94423" lon="-4.85665">
        <ele>370</ele>
        <time>2020-08-16 15:49:51</time>
      </trkpt>
      <trkpt lat="39.9442" lon="-4.8567">
        <ele>370</ele>
        <time>2020-08-16 15:49:52</time>
      </trkpt>
      <trkpt lat="39.94409" lon="-4.8569">
        <ele>370</ele>
        <time>2020-08-16 15:49:57</time>
      </trkpt>
      <trkpt lat="39.94388" lon="-4.85727">
        <ele>369.8</ele>
        <time>2020-08-16 15:50:04</time>
      </trkpt>
      <trkpt lat="39.94386" lon="-4.8573">
        <ele>369.8</ele>
        <time>2020-08-16 15:50:05</time>
      </trkpt>
      <trkpt lat="39.94384" lon="-4.85733">
        <ele>369.8</ele>
        <time>2020-08-16 15:50:06</time>
      </trkpt>
      <trkpt lat="39.94382" lon="-4.85738">
        <ele>369.8</ele>
        <time>2020-08-16 15:50:07</time>
      </trkpt>
      <trkpt lat="39.94379" lon="-4.85742">
        <ele>369.6</ele>
        <time>2020-08-16 15:50:08</time>
      </trkpt>
      <trkpt lat="39.94368" lon="-4.8576">
        <ele>369.4</ele>
        <time>2020-08-16 15:50:12</time>
      </trkpt>
      <trkpt lat="39.94366" lon="-4.85764">
        <ele>369.4</ele>
        <time>2020-08-16 15:50:13</time>
      </trkpt>
      <trkpt lat="39.94348" lon="-4.85795">
        <ele>369.2</ele>
        <time>2020-08-16 15:50:20</time>
      </trkpt>
      <trkpt lat="39.94346" lon="-4.85799">
        <ele>369.2</ele>
        <time>2020-08-16 15:50:21</time>
      </trkpt>
      <trkpt lat="39.94343" lon="-4.85804">
        <ele>369.2</ele>
        <time>2020-08-16 15:50:22</time>
      </trkpt>
      <trkpt lat="39.94341" lon="-4.85809">
        <ele>369.4</ele>
        <time>2020-08-16 15:50:23</time>
      </trkpt>
      <trkpt lat="39.94338" lon="-4.85813">
        <ele>369.2</ele>
        <time>2020-08-16 15:50:24</time>
      </trkpt>
      <trkpt lat="39.94335" lon="-4.85818">
        <ele>369.2</ele>
        <time>2020-08-16 15:50:25</time>
      </trkpt>
      <trkpt lat="39.9433" lon="-4.85826">
        <ele>369.2</ele>
        <time>2020-08-16 15:50:27</time>
      </trkpt>
      <trkpt lat="39.94327" lon="-4.85831">
        <ele>369.4</ele>
        <time>2020-08-16 15:50:28</time>
      </trkpt>
      <trkpt lat="39.94325" lon="-4.85835">
        <ele>369.4</ele>
        <time>2020-08-16 15:50:29</time>
      </trkpt>
      <trkpt lat="39.94322" lon="-4.85839">
        <ele>369.4</ele>
        <time>2020-08-16 15:50:30</time>
      </trkpt>
      <trkpt lat="39.9432" lon="-4.85842">
        <ele>369.4</ele>
        <time>2020-08-16 15:50:31</time>
      </trkpt>
      <trkpt lat="39.94318" lon="-4.85846">
        <ele>369.4</ele>
        <time>2020-08-16 15:50:32</time>
      </trkpt>
      <trkpt lat="39.94315" lon="-4.8585">
        <ele>369.4</ele>
        <time>2020-08-16 15:50:33</time>
      </trkpt>
      <trkpt lat="39.94313" lon="-4.85855">
        <ele>369.4</ele>
        <time>2020-08-16 15:50:34</time>
      </trkpt>
      <trkpt lat="39.94309" lon="-4.85861">
        <ele>369.2</ele>
        <time>2020-08-16 15:50:35</time>
      </trkpt>
      <trkpt lat="39.94307" lon="-4.85866">
        <ele>369.2</ele>
        <time>2020-08-16 15:50:36</time>
      </trkpt>
      <trkpt lat="39.94304" lon="-4.85871">
        <ele>369.2</ele>
        <time>2020-08-16 15:50:37</time>
      </trkpt>
      <trkpt lat="39.94295" lon="-4.85885">
        <ele>369</ele>
        <time>2020-08-16 15:50:40</time>
      </trkpt>
      <trkpt lat="39.94292" lon="-4.8589">
        <ele>369</ele>
        <time>2020-08-16 15:50:41</time>
      </trkpt>
      <trkpt lat="39.94289" lon="-4.85895">
        <ele>369</ele>
        <time>2020-08-16 15:50:42</time>
      </trkpt>
      <trkpt lat="39.94283" lon="-4.85904">
        <ele>369</ele>
        <time>2020-08-16 15:50:44</time>
      </trkpt>
      <trkpt lat="39.9428" lon="-4.85908">
        <ele>368.8</ele>
        <time>2020-08-16 15:50:45</time>
      </trkpt>
      <trkpt lat="39.94277" lon="-4.85912">
        <ele>368.8</ele>
        <time>2020-08-16 15:50:46</time>
      </trkpt>
      <trkpt lat="39.94275" lon="-4.85915">
        <ele>368.8</ele>
        <time>2020-08-16 15:50:47</time>
      </trkpt>
      <trkpt lat="39.94273" lon="-4.8592">
        <ele>368.8</ele>
        <time>2020-08-16 15:50:48</time>
      </trkpt>
      <trkpt lat="39.94271" lon="-4.85924">
        <ele>368.8</ele>
        <time>2020-08-16 15:50:49</time>
      </trkpt>
      <trkpt lat="39.9427" lon="-4.85928">
        <ele>368.8</ele>
        <time>2020-08-16 15:50:50</time>
      </trkpt>
      <trkpt lat="39.94269" lon="-4.85931">
        <ele>368.6</ele>
        <time>2020-08-16 15:50:51</time>
      </trkpt>
      <trkpt lat="39.94267" lon="-4.85935">
        <ele>368.6</ele>
        <time>2020-08-16 15:50:52</time>
      </trkpt>
      <trkpt lat="39.94267" lon="-4.85935">
        <ele>368.6</ele>
        <time>2020-08-16 15:50:53</time>
      </trkpt>
      <trkpt lat="39.94263" lon="-4.85943">
        <ele>368.6</ele>
        <time>2020-08-16 15:50:54</time>
      </trkpt>
      <trkpt lat="39.94259" lon="-4.85951">
        <ele>368.6</ele>
        <time>2020-08-16 15:50:56</time>
      </trkpt>
      <trkpt lat="39.94255" lon="-4.8596">
        <ele>368.6</ele>
        <time>2020-08-16 15:50:58</time>
      </trkpt>
      <trkpt lat="39.94233" lon="-4.86005">
        <ele>368.8</ele>
        <time>2020-08-16 15:51:08</time>
      </trkpt>
      <trkpt lat="39.94219" lon="-4.86032">
        <ele>368.8</ele>
        <time>2020-08-16 15:51:14</time>
      </trkpt>
      <trkpt lat="39.94217" lon="-4.86036">
        <ele>368.8</ele>
        <time>2020-08-16 15:51:15</time>
      </trkpt>
      <trkpt lat="39.94215" lon="-4.8604">
        <ele>368.8</ele>
        <time>2020-08-16 15:51:16</time>
      </trkpt>
      <trkpt lat="39.94213" lon="-4.86044">
        <ele>368.8</ele>
        <time>2020-08-16 15:51:17</time>
      </trkpt>
      <trkpt lat="39.9421" lon="-4.86049">
        <ele>368.8</ele>
        <time>2020-08-16 15:51:18</time>
      </trkpt>
      <trkpt lat="39.94208" lon="-4.86054">
        <ele>368.8</ele>
        <time>2020-08-16 15:51:19</time>
      </trkpt>
      <trkpt lat="39.94206" lon="-4.86058">
        <ele>368.6</ele>
        <time>2020-08-16 15:51:20</time>
      </trkpt>
      <trkpt lat="39.94204" lon="-4.86062">
        <ele>368.6</ele>
        <time>2020-08-16 15:51:21</time>
      </trkpt>
      <trkpt lat="39.94201" lon="-4.86067">
        <ele>368.6</ele>
        <time>2020-08-16 15:51:22</time>
      </trkpt>
      <trkpt lat="39.94199" lon="-4.86071">
        <ele>368.4</ele>
        <time>2020-08-16 15:51:23</time>
      </trkpt>
      <trkpt lat="39.94197" lon="-4.86075">
        <ele>368.4</ele>
        <time>2020-08-16 15:51:24</time>
      </trkpt>
      <trkpt lat="39.94195" lon="-4.8608">
        <ele>368.4</ele>
        <time>2020-08-16 15:51:25</time>
      </trkpt>
      <trkpt lat="39.94192" lon="-4.86084">
        <ele>368.4</ele>
        <time>2020-08-16 15:51:26</time>
      </trkpt>
      <trkpt lat="39.9419" lon="-4.86088">
        <ele>368.4</ele>
        <time>2020-08-16 15:51:27</time>
      </trkpt>
      <trkpt lat="39.94188" lon="-4.86093">
        <ele>368.4</ele>
        <time>2020-08-16 15:51:28</time>
      </trkpt>
      <trkpt lat="39.94183" lon="-4.86101">
        <ele>368.4</ele>
        <time>2020-08-16 15:51:30</time>
      </trkpt>
      <trkpt lat="39.94161" lon="-4.86143">
        <ele>368.2</ele>
        <time>2020-08-16 15:51:39</time>
      </trkpt>
      <trkpt lat="39.94154" lon="-4.86156">
        <ele>368.2</ele>
        <time>2020-08-16 15:51:42</time>
      </trkpt>
      <trkpt lat="39.94151" lon="-4.86161">
        <ele>368</ele>
        <time>2020-08-16 15:51:43</time>
      </trkpt>
      <trkpt lat="39.94146" lon="-4.8617">
        <ele>368</ele>
        <time>2020-08-16 15:51:45</time>
      </trkpt>
      <trkpt lat="39.94144" lon="-4.86175">
        <ele>368</ele>
        <time>2020-08-16 15:51:46</time>
      </trkpt>
      <trkpt lat="39.94142" lon="-4.86179">
        <ele>368</ele>
        <time>2020-08-16 15:51:47</time>
      </trkpt>
      <trkpt lat="39.94139" lon="-4.86184">
        <ele>368</ele>
        <time>2020-08-16 15:51:48</time>
      </trkpt>
      <trkpt lat="39.94137" lon="-4.86188">
        <ele>368</ele>
        <time>2020-08-16 15:51:49</time>
      </trkpt>
      <trkpt lat="39.94135" lon="-4.86193">
        <ele>368</ele>
        <time>2020-08-16 15:51:50</time>
      </trkpt>
      <trkpt lat="39.94132" lon="-4.86197">
        <ele>368</ele>
        <time>2020-08-16 15:51:51</time>
      </trkpt>
      <trkpt lat="39.9413" lon="-4.86202">
        <ele>368</ele>
        <time>2020-08-16 15:51:52</time>
      </trkpt>
      <trkpt lat="39.94127" lon="-4.86206">
        <ele>368</ele>
        <time>2020-08-16 15:51:53</time>
      </trkpt>
      <trkpt lat="39.94125" lon="-4.86211">
        <ele>368.4</ele>
        <time>2020-08-16 15:51:54</time>
      </trkpt>
      <trkpt lat="39.94122" lon="-4.86215">
        <ele>368.4</ele>
        <time>2020-08-16 15:51:55</time>
      </trkpt>
      <trkpt lat="39.94119" lon="-4.8622">
        <ele>368.4</ele>
        <time>2020-08-16 15:51:56</time>
      </trkpt>
      <trkpt lat="39.94117" lon="-4.86225">
        <ele>368.4</ele>
        <time>2020-08-16 15:51:57</time>
      </trkpt>
      <trkpt lat="39.94114" lon="-4.86229">
        <ele>368.2</ele>
        <time>2020-08-16 15:51:58</time>
      </trkpt>
      <trkpt lat="39.94112" lon="-4.86234">
        <ele>368</ele>
        <time>2020-08-16 15:51:59</time>
      </trkpt>
      <trkpt lat="39.94105" lon="-4.86247">
        <ele>368.4</ele>
        <time>2020-08-16 15:52:02</time>
      </trkpt>
      <trkpt lat="39.94102" lon="-4.86251">
        <ele>368.4</ele>
        <time>2020-08-16 15:52:03</time>
      </trkpt>
      <trkpt lat="39.941" lon="-4.86256">
        <ele>368.4</ele>
        <time>2020-08-16 15:52:04</time>
      </trkpt>
      <trkpt lat="39.94094" lon="-4.8627">
        <ele>368.2</ele>
        <time>2020-08-16 15:52:07</time>
      </trkpt>
      <trkpt lat="39.94092" lon="-4.86275">
        <ele>368.2</ele>
        <time>2020-08-16 15:52:08</time>
      </trkpt>
      <trkpt lat="39.9409" lon="-4.8628">
        <ele>368.2</ele>
        <time>2020-08-16 15:52:09</time>
      </trkpt>
      <trkpt lat="39.94088" lon="-4.86285">
        <ele>368.2</ele>
        <time>2020-08-16 15:52:10</time>
      </trkpt>
      <trkpt lat="39.94085" lon="-4.8629">
        <ele>368.2</ele>
        <time>2020-08-16 15:52:11</time>
      </trkpt>
      <trkpt lat="39.94083" lon="-4.86295">
        <ele>368.2</ele>
        <time>2020-08-16 15:52:12</time>
      </trkpt>
      <trkpt lat="39.9407" lon="-4.86325">
        <ele>368.2</ele>
        <time>2020-08-16 15:52:18</time>
      </trkpt>
      <trkpt lat="39.94065" lon="-4.86333">
        <ele>368.2</ele>
        <time>2020-08-16 15:52:20</time>
      </trkpt>
      <trkpt lat="39.94061" lon="-4.86342">
        <ele>368</ele>
        <time>2020-08-16 15:52:22</time>
      </trkpt>
      <trkpt lat="39.94059" lon="-4.86346">
        <ele>368</ele>
        <time>2020-08-16 15:52:23</time>
      </trkpt>
      <trkpt lat="39.94057" lon="-4.86351">
        <ele>368</ele>
        <time>2020-08-16 15:52:24</time>
      </trkpt>
      <trkpt lat="39.94055" lon="-4.86355">
        <ele>368</ele>
        <time>2020-08-16 15:52:25</time>
      </trkpt>
      <trkpt lat="39.94053" lon="-4.8636">
        <ele>368</ele>
        <time>2020-08-16 15:52:26</time>
      </trkpt>
      <trkpt lat="39.94052" lon="-4.86365">
        <ele>368</ele>
        <time>2020-08-16 15:52:27</time>
      </trkpt>
      <trkpt lat="39.9405" lon="-4.8637">
        <ele>368</ele>
        <time>2020-08-16 15:52:28</time>
      </trkpt>
      <trkpt lat="39.94049" lon="-4.86375">
        <ele>368</ele>
        <time>2020-08-16 15:52:29</time>
      </trkpt>
      <trkpt lat="39.94048" lon="-4.86381">
        <ele>368</ele>
        <time>2020-08-16 15:52:30</time>
      </trkpt>
      <trkpt lat="39.94046" lon="-4.86391">
        <ele>368</ele>
        <time>2020-08-16 15:52:32</time>
      </trkpt>
      <trkpt lat="39.94046" lon="-4.86397">
        <ele>368</ele>
        <time>2020-08-16 15:52:33</time>
      </trkpt>
      <trkpt lat="39.94046" lon="-4.86409">
        <ele>368</ele>
        <time>2020-08-16 15:52:35</time>
      </trkpt>
      <trkpt lat="39.94045" lon="-4.86414">
        <ele>368</ele>
        <time>2020-08-16 15:52:36</time>
      </trkpt>
      <trkpt lat="39.94044" lon="-4.86425">
        <ele>368</ele>
        <time>2020-08-16 15:52:38</time>
      </trkpt>
      <trkpt lat="39.9404" lon="-4.86441">
        <ele>368.4</ele>
        <time>2020-08-16 15:52:41</time>
      </trkpt>
      <trkpt lat="39.94039" lon="-4.86446">
        <ele>368.4</ele>
        <time>2020-08-16 15:52:42</time>
      </trkpt>
      <trkpt lat="39.94038" lon="-4.86451">
        <ele>368.6</ele>
        <time>2020-08-16 15:52:43</time>
      </trkpt>
      <trkpt lat="39.94037" lon="-4.86456">
        <ele>368.6</ele>
        <time>2020-08-16 15:52:44</time>
      </trkpt>
      <trkpt lat="39.94035" lon="-4.86461">
        <ele>368.6</ele>
        <time>2020-08-16 15:52:45</time>
      </trkpt>
      <trkpt lat="39.94034" lon="-4.86466">
        <ele>368.8</ele>
        <time>2020-08-16 15:52:46</time>
      </trkpt>
      <trkpt lat="39.94032" lon="-4.86471">
        <ele>368.8</ele>
        <time>2020-08-16 15:52:47</time>
      </trkpt>
      <trkpt lat="39.94031" lon="-4.86476">
        <ele>368.8</ele>
        <time>2020-08-16 15:52:48</time>
      </trkpt>
      <trkpt lat="39.94029" lon="-4.86481">
        <ele>368.8</ele>
        <time>2020-08-16 15:52:49</time>
      </trkpt>
      <trkpt lat="39.94027" lon="-4.86486">
        <ele>368.8</ele>
        <time>2020-08-16 15:52:50</time>
      </trkpt>
      <trkpt lat="39.94026" lon="-4.8649">
        <ele>368.8</ele>
        <time>2020-08-16 15:52:51</time>
      </trkpt>
      <trkpt lat="39.94024" lon="-4.86494">
        <ele>368.8</ele>
        <time>2020-08-16 15:52:52</time>
      </trkpt>
      <trkpt lat="39.94022" lon="-4.86498">
        <ele>368.8</ele>
        <time>2020-08-16 15:52:53</time>
      </trkpt>
      <trkpt lat="39.9402" lon="-4.86502">
        <ele>368.8</ele>
        <time>2020-08-16 15:52:54</time>
      </trkpt>
      <trkpt lat="39.94018" lon="-4.86506">
        <ele>368.8</ele>
        <time>2020-08-16 15:52:55</time>
      </trkpt>
      <trkpt lat="39.94017" lon="-4.8651">
        <ele>368.8</ele>
        <time>2020-08-16 15:52:56</time>
      </trkpt>
      <trkpt lat="39.94015" lon="-4.86513">
        <ele>368.8</ele>
        <time>2020-08-16 15:52:57</time>
      </trkpt>
      <trkpt lat="39.94014" lon="-4.86517">
        <ele>368.8</ele>
        <time>2020-08-16 15:52:58</time>
      </trkpt>
      <trkpt lat="39.94013" lon="-4.86521">
        <ele>368.8</ele>
        <time>2020-08-16 15:52:59</time>
      </trkpt>
      <trkpt lat="39.94012" lon="-4.86525">
        <ele>368.8</ele>
        <time>2020-08-16 15:53:00</time>
      </trkpt>
      <trkpt lat="39.94011" lon="-4.86529">
        <ele>368.8</ele>
        <time>2020-08-16 15:53:01</time>
      </trkpt>
      <trkpt lat="39.93993" lon="-4.8657">
        <ele>368.6</ele>
        <time>2020-08-16 15:53:11</time>
      </trkpt>
      <trkpt lat="39.93984" lon="-4.86593">
        <ele>368.4</ele>
        <time>2020-08-16 15:53:16</time>
      </trkpt>
      <trkpt lat="39.93977" lon="-4.86607">
        <ele>368.4</ele>
        <time>2020-08-16 15:53:19</time>
      </trkpt>
      <trkpt lat="39.9397" lon="-4.86624">
        <ele>368.4</ele>
        <time>2020-08-16 15:53:23</time>
      </trkpt>
      <trkpt lat="39.9397" lon="-4.86629">
        <ele>368.6</ele>
        <time>2020-08-16 15:53:24</time>
      </trkpt>
      <trkpt lat="39.93969" lon="-4.86635">
        <ele>368.6</ele>
        <time>2020-08-16 15:53:25</time>
      </trkpt>
      <trkpt lat="39.93969" lon="-4.8664">
        <ele>368.6</ele>
        <time>2020-08-16 15:53:26</time>
      </trkpt>
      <trkpt lat="39.93969" lon="-4.86646">
        <ele>368.6</ele>
        <time>2020-08-16 15:53:27</time>
      </trkpt>
      <trkpt lat="39.93971" lon="-4.86674">
        <ele>368.6</ele>
        <time>2020-08-16 15:53:32</time>
      </trkpt>
      <trkpt lat="39.93971" lon="-4.86686">
        <ele>368.4</ele>
        <time>2020-08-16 15:53:34</time>
      </trkpt>
      <trkpt lat="39.93972" lon="-4.86696">
        <ele>368.2</ele>
        <time>2020-08-16 15:53:36</time>
      </trkpt>
      <trkpt lat="39.93974" lon="-4.86706">
        <ele>368.2</ele>
        <time>2020-08-16 15:53:38</time>
      </trkpt>
      <trkpt lat="39.93975" lon="-4.86718">
        <ele>368.2</ele>
        <time>2020-08-16 15:53:40</time>
      </trkpt>
      <trkpt lat="39.93975" lon="-4.86723">
        <ele>368.2</ele>
        <time>2020-08-16 15:53:41</time>
      </trkpt>
      <trkpt lat="39.93977" lon="-4.86769">
        <ele>368.4</ele>
        <time>2020-08-16 15:53:49</time>
      </trkpt>
      <trkpt lat="39.9398" lon="-4.86797">
        <ele>368.2</ele>
        <time>2020-08-16 15:53:54</time>
      </trkpt>
      <trkpt lat="39.9398" lon="-4.86802">
        <ele>368.2</ele>
        <time>2020-08-16 15:53:55</time>
      </trkpt>
      <trkpt lat="39.93981" lon="-4.86808">
        <ele>368.2</ele>
        <time>2020-08-16 15:53:56</time>
      </trkpt>
      <trkpt lat="39.93981" lon="-4.86819">
        <ele>368</ele>
        <time>2020-08-16 15:53:58</time>
      </trkpt>
      <trkpt lat="39.93982" lon="-4.86825">
        <ele>367.8</ele>
        <time>2020-08-16 15:53:59</time>
      </trkpt>
      <trkpt lat="39.93982" lon="-4.86831">
        <ele>367.8</ele>
        <time>2020-08-16 15:54:00</time>
      </trkpt>
      <trkpt lat="39.93982" lon="-4.86836">
        <ele>367.6</ele>
        <time>2020-08-16 15:54:01</time>
      </trkpt>
      <trkpt lat="39.93982" lon="-4.86842">
        <ele>367.4</ele>
        <time>2020-08-16 15:54:02</time>
      </trkpt>
      <trkpt lat="39.93982" lon="-4.86848">
        <ele>367.4</ele>
        <time>2020-08-16 15:54:03</time>
      </trkpt>
      <trkpt lat="39.9398" lon="-4.86854">
        <ele>367.4</ele>
        <time>2020-08-16 15:54:04</time>
      </trkpt>
      <trkpt lat="39.93977" lon="-4.8686">
        <ele>367.4</ele>
        <time>2020-08-16 15:54:05</time>
      </trkpt>
      <trkpt lat="39.93974" lon="-4.86864">
        <ele>367.4</ele>
        <time>2020-08-16 15:54:06</time>
      </trkpt>
      <trkpt lat="39.9397" lon="-4.86868">
        <ele>367.6</ele>
        <time>2020-08-16 15:54:07</time>
      </trkpt>
      <trkpt lat="39.93966" lon="-4.86871">
        <ele>367.6</ele>
        <time>2020-08-16 15:54:08</time>
      </trkpt>
      <trkpt lat="39.93961" lon="-4.86873">
        <ele>367.8</ele>
        <time>2020-08-16 15:54:09</time>
      </trkpt>
      <trkpt lat="39.93957" lon="-4.86875">
        <ele>367.8</ele>
        <time>2020-08-16 15:54:10</time>
      </trkpt>
      <trkpt lat="39.93952" lon="-4.86876">
        <ele>367.8</ele>
        <time>2020-08-16 15:54:11</time>
      </trkpt>
      <trkpt lat="39.93947" lon="-4.86876">
        <ele>367.8</ele>
        <time>2020-08-16 15:54:12</time>
      </trkpt>
      <trkpt lat="39.93937" lon="-4.86876">
        <ele>367.8</ele>
        <time>2020-08-16 15:54:14</time>
      </trkpt>
      <trkpt lat="39.93933" lon="-4.86875">
        <ele>368</ele>
        <time>2020-08-16 15:54:15</time>
      </trkpt>
      <trkpt lat="39.93928" lon="-4.86875">
        <ele>368</ele>
        <time>2020-08-16 15:54:16</time>
      </trkpt>
      <trkpt lat="39.93924" lon="-4.86875">
        <ele>367.8</ele>
        <time>2020-08-16 15:54:17</time>
      </trkpt>
      <trkpt lat="39.93919" lon="-4.86875">
        <ele>367.8</ele>
        <time>2020-08-16 15:54:18</time>
      </trkpt>
      <trkpt lat="39.93915" lon="-4.86875">
        <ele>367.6</ele>
        <time>2020-08-16 15:54:19</time>
      </trkpt>
      <trkpt lat="39.9391" lon="-4.86875">
        <ele>367.6</ele>
        <time>2020-08-16 15:54:20</time>
      </trkpt>
      <trkpt lat="39.93906" lon="-4.86875">
        <ele>367.6</ele>
        <time>2020-08-16 15:54:21</time>
      </trkpt>
      <trkpt lat="39.93892" lon="-4.86875">
        <ele>367.4</ele>
        <time>2020-08-16 15:54:24</time>
      </trkpt>
      <trkpt lat="39.93888" lon="-4.86874">
        <ele>367.4</ele>
        <time>2020-08-16 15:54:25</time>
      </trkpt>
      <trkpt lat="39.93883" lon="-4.86873">
        <ele>367.2</ele>
        <time>2020-08-16 15:54:26</time>
      </trkpt>
      <trkpt lat="39.93879" lon="-4.86871">
        <ele>367.2</ele>
        <time>2020-08-16 15:54:27</time>
      </trkpt>
      <trkpt lat="39.93875" lon="-4.86869">
        <ele>367.4</ele>
        <time>2020-08-16 15:54:28</time>
      </trkpt>
      <trkpt lat="39.93871" lon="-4.86866">
        <ele>367.6</ele>
        <time>2020-08-16 15:54:29</time>
      </trkpt>
      <trkpt lat="39.93867" lon="-4.86863">
        <ele>367.6</ele>
        <time>2020-08-16 15:54:30</time>
      </trkpt>
      <trkpt lat="39.93863" lon="-4.86859">
        <ele>367.8</ele>
        <time>2020-08-16 15:54:31</time>
      </trkpt>
      <trkpt lat="39.93859" lon="-4.86856">
        <ele>367.8</ele>
        <time>2020-08-16 15:54:32</time>
      </trkpt>
      <trkpt lat="39.93855" lon="-4.86854">
        <ele>367.6</ele>
        <time>2020-08-16 15:54:33</time>
      </trkpt>
      <trkpt lat="39.93851" lon="-4.86853">
        <ele>367.6</ele>
        <time>2020-08-16 15:54:34</time>
      </trkpt>
      <trkpt lat="39.93847" lon="-4.86854">
        <ele>367.8</ele>
        <time>2020-08-16 15:54:35</time>
      </trkpt>
      <trkpt lat="39.93844" lon="-4.86856">
        <ele>367.6</ele>
        <time>2020-08-16 15:54:36</time>
      </trkpt>
      <trkpt lat="39.93843" lon="-4.86859">
        <ele>367.8</ele>
        <time>2020-08-16 15:54:37</time>
      </trkpt>
      <trkpt lat="39.93841" lon="-4.86863">
        <ele>367.8</ele>
        <time>2020-08-16 15:54:38</time>
      </trkpt>
      <trkpt lat="39.9384" lon="-4.86867">
        <ele>367.8</ele>
        <time>2020-08-16 15:54:39</time>
      </trkpt>
      <trkpt lat="39.9384" lon="-4.86872">
        <ele>367.6</ele>
        <time>2020-08-16 15:54:40</time>
      </trkpt>
      <trkpt lat="39.9384" lon="-4.86875">
        <ele>367.4</ele>
        <time>2020-08-16 15:54:41</time>
      </trkpt>
      <trkpt lat="39.9384" lon="-4.86889">
        <ele>367.6</ele>
        <time>2020-08-16 15:54:44</time>
      </trkpt>
      <trkpt lat="39.93839" lon="-4.86894">
        <ele>367.6</ele>
        <time>2020-08-16 15:54:45</time>
      </trkpt>
      <trkpt lat="39.93837" lon="-4.86899">
        <ele>367.6</ele>
        <time>2020-08-16 15:54:46</time>
      </trkpt>
      <trkpt lat="39.93834" lon="-4.86904">
        <ele>367.4</ele>
        <time>2020-08-16 15:54:47</time>
      </trkpt>
      <trkpt lat="39.93831" lon="-4.86908">
        <ele>367.6</ele>
        <time>2020-08-16 15:54:48</time>
      </trkpt>
      <trkpt lat="39.93824" lon="-4.86917">
        <ele>367.6</ele>
        <time>2020-08-16 15:54:50</time>
      </trkpt>
      <trkpt lat="39.9382" lon="-4.86921">
        <ele>367.6</ele>
        <time>2020-08-16 15:54:51</time>
      </trkpt>
      <trkpt lat="39.93792" lon="-4.86944">
        <ele>367.8</ele>
        <time>2020-08-16 15:54:58</time>
      </trkpt>
      <trkpt lat="39.93788" lon="-4.86947">
        <ele>367.8</ele>
        <time>2020-08-16 15:54:59</time>
      </trkpt>
      <trkpt lat="39.93784" lon="-4.86951">
        <ele>367.8</ele>
        <time>2020-08-16 15:55:00</time>
      </trkpt>
      <trkpt lat="39.9378" lon="-4.86954">
        <ele>367.8</ele>
        <time>2020-08-16 15:55:01</time>
      </trkpt>
      <trkpt lat="39.93777" lon="-4.86957">
        <ele>367.8</ele>
        <time>2020-08-16 15:55:02</time>
      </trkpt>
      <trkpt lat="39.93773" lon="-4.86961">
        <ele>367.8</ele>
        <time>2020-08-16 15:55:03</time>
      </trkpt>
      <trkpt lat="39.9377" lon="-4.86965">
        <ele>367.8</ele>
        <time>2020-08-16 15:55:04</time>
      </trkpt>
      <trkpt lat="39.93766" lon="-4.86969">
        <ele>367.8</ele>
        <time>2020-08-16 15:55:05</time>
      </trkpt>
      <trkpt lat="39.93763" lon="-4.86974">
        <ele>367.8</ele>
        <time>2020-08-16 15:55:06</time>
      </trkpt>
      <trkpt lat="39.9376" lon="-4.86978">
        <ele>367.8</ele>
        <time>2020-08-16 15:55:07</time>
      </trkpt>
      <trkpt lat="39.93756" lon="-4.86982">
        <ele>367.8</ele>
        <time>2020-08-16 15:55:08</time>
      </trkpt>
      <trkpt lat="39.93753" lon="-4.86986">
        <ele>367.8</ele>
        <time>2020-08-16 15:55:09</time>
      </trkpt>
      <trkpt lat="39.9375" lon="-4.86989">
        <ele>367.8</ele>
        <time>2020-08-16 15:55:10</time>
      </trkpt>
      <trkpt lat="39.93746" lon="-4.86993">
        <ele>367.8</ele>
        <time>2020-08-16 15:55:11</time>
      </trkpt>
      <trkpt lat="39.93743" lon="-4.86997">
        <ele>368</ele>
        <time>2020-08-16 15:55:12</time>
      </trkpt>
      <trkpt lat="39.9374" lon="-4.87">
        <ele>368</ele>
        <time>2020-08-16 15:55:13</time>
      </trkpt>
      <trkpt lat="39.93736" lon="-4.87004">
        <ele>368</ele>
        <time>2020-08-16 15:55:14</time>
      </trkpt>
      <trkpt lat="39.93733" lon="-4.87007">
        <ele>368</ele>
        <time>2020-08-16 15:55:15</time>
      </trkpt>
      <trkpt lat="39.9373" lon="-4.87011">
        <ele>368</ele>
        <time>2020-08-16 15:55:16</time>
      </trkpt>
      <trkpt lat="39.93727" lon="-4.87015">
        <ele>368</ele>
        <time>2020-08-16 15:55:17</time>
      </trkpt>
      <trkpt lat="39.93724" lon="-4.87018">
        <ele>368</ele>
        <time>2020-08-16 15:55:18</time>
      </trkpt>
      <trkpt lat="39.93721" lon="-4.87021">
        <ele>368</ele>
        <time>2020-08-16 15:55:19</time>
      </trkpt>
      <trkpt lat="39.93718" lon="-4.87024">
        <ele>368</ele>
        <time>2020-08-16 15:55:20</time>
      </trkpt>
      <trkpt lat="39.93715" lon="-4.87027">
        <ele>368</ele>
        <time>2020-08-16 15:55:21</time>
      </trkpt>
      <trkpt lat="39.93713" lon="-4.8703">
        <ele>368</ele>
        <time>2020-08-16 15:55:22</time>
      </trkpt>
      <trkpt lat="39.9371" lon="-4.87034">
        <ele>368</ele>
        <time>2020-08-16 15:55:23</time>
      </trkpt>
      <trkpt lat="39.93708" lon="-4.87037">
        <ele>368</ele>
        <time>2020-08-16 15:55:24</time>
      </trkpt>
      <trkpt lat="39.93706" lon="-4.87041">
        <ele>367.6</ele>
        <time>2020-08-16 15:55:25</time>
      </trkpt>
      <trkpt lat="39.93704" lon="-4.87044">
        <ele>367.6</ele>
        <time>2020-08-16 15:55:26</time>
      </trkpt>
      <trkpt lat="39.93702" lon="-4.87048">
        <ele>367.4</ele>
        <time>2020-08-16 15:55:27</time>
      </trkpt>
      <trkpt lat="39.937" lon="-4.87053">
        <ele>367.4</ele>
        <time>2020-08-16 15:55:28</time>
      </trkpt>
      <trkpt lat="39.93698" lon="-4.87057">
        <ele>367.4</ele>
        <time>2020-08-16 15:55:29</time>
      </trkpt>
      <trkpt lat="39.93696" lon="-4.87061">
        <ele>367.4</ele>
        <time>2020-08-16 15:55:30</time>
      </trkpt>
      <trkpt lat="39.93694" lon="-4.87065">
        <ele>367.4</ele>
        <time>2020-08-16 15:55:31</time>
      </trkpt>
      <trkpt lat="39.93692" lon="-4.87069">
        <ele>367.6</ele>
        <time>2020-08-16 15:55:32</time>
      </trkpt>
      <trkpt lat="39.93691" lon="-4.87073">
        <ele>367.8</ele>
        <time>2020-08-16 15:55:33</time>
      </trkpt>
      <trkpt lat="39.9369" lon="-4.87077">
        <ele>367.8</ele>
        <time>2020-08-16 15:55:34</time>
      </trkpt>
      <trkpt lat="39.93689" lon="-4.87082">
        <ele>368</ele>
        <time>2020-08-16 15:55:35</time>
      </trkpt>
      <trkpt lat="39.93685" lon="-4.87096">
        <ele>368.2</ele>
        <time>2020-08-16 15:55:38</time>
      </trkpt>
      <trkpt lat="39.93679" lon="-4.8711">
        <ele>368</ele>
        <time>2020-08-16 15:55:41</time>
      </trkpt>
      <trkpt lat="39.9367" lon="-4.87126">
        <ele>367.6</ele>
        <time>2020-08-16 15:55:45</time>
      </trkpt>
      <trkpt lat="39.93662" lon="-4.87136">
        <ele>367.4</ele>
        <time>2020-08-16 15:55:48</time>
      </trkpt>
      <trkpt lat="39.9366" lon="-4.8714">
        <ele>367.2</ele>
        <time>2020-08-16 15:55:49</time>
      </trkpt>
      <trkpt lat="39.93657" lon="-4.87144">
        <ele>367.4</ele>
        <time>2020-08-16 15:55:50</time>
      </trkpt>
      <trkpt lat="39.93654" lon="-4.87148">
        <ele>367.6</ele>
        <time>2020-08-16 15:55:51</time>
      </trkpt>
      <trkpt lat="39.93651" lon="-4.87152">
        <ele>367.8</ele>
        <time>2020-08-16 15:55:52</time>
      </trkpt>
      <trkpt lat="39.93635" lon="-4.87173">
        <ele>367.6</ele>
        <time>2020-08-16 15:55:57</time>
      </trkpt>
      <trkpt lat="39.93612" lon="-4.872">
        <ele>367.4</ele>
        <time>2020-08-16 15:56:04</time>
      </trkpt>
      <trkpt lat="39.93602" lon="-4.87213">
        <ele>367</ele>
        <time>2020-08-16 15:56:07</time>
      </trkpt>
      <trkpt lat="39.93582" lon="-4.87236">
        <ele>366.8</ele>
        <time>2020-08-16 15:56:13</time>
      </trkpt>
      <trkpt lat="39.93579" lon="-4.8724">
        <ele>366.8</ele>
        <time>2020-08-16 15:56:14</time>
      </trkpt>
      <trkpt lat="39.93576" lon="-4.87244">
        <ele>366.8</ele>
        <time>2020-08-16 15:56:15</time>
      </trkpt>
      <trkpt lat="39.93572" lon="-4.87248">
        <ele>366.8</ele>
        <time>2020-08-16 15:56:16</time>
      </trkpt>
      <trkpt lat="39.93569" lon="-4.87252">
        <ele>366.8</ele>
        <time>2020-08-16 15:56:17</time>
      </trkpt>
      <trkpt lat="39.93566" lon="-4.87256">
        <ele>367</ele>
        <time>2020-08-16 15:56:18</time>
      </trkpt>
      <trkpt lat="39.93563" lon="-4.8726">
        <ele>367.2</ele>
        <time>2020-08-16 15:56:19</time>
      </trkpt>
      <trkpt lat="39.93559" lon="-4.87264">
        <ele>367.2</ele>
        <time>2020-08-16 15:56:20</time>
      </trkpt>
      <trkpt lat="39.93556" lon="-4.87268">
        <ele>367.2</ele>
        <time>2020-08-16 15:56:21</time>
      </trkpt>
      <trkpt lat="39.93553" lon="-4.87273">
        <ele>367.2</ele>
        <time>2020-08-16 15:56:22</time>
      </trkpt>
      <trkpt lat="39.9355" lon="-4.87277">
        <ele>367.2</ele>
        <time>2020-08-16 15:56:23</time>
      </trkpt>
      <trkpt lat="39.93548" lon="-4.87281">
        <ele>367.4</ele>
        <time>2020-08-16 15:56:24</time>
      </trkpt>
      <trkpt lat="39.93545" lon="-4.87286">
        <ele>367.6</ele>
        <time>2020-08-16 15:56:25</time>
      </trkpt>
      <trkpt lat="39.93542" lon="-4.87291">
        <ele>367.6</ele>
        <time>2020-08-16 15:56:26</time>
      </trkpt>
      <trkpt lat="39.93539" lon="-4.87295">
        <ele>367.4</ele>
        <time>2020-08-16 15:56:27</time>
      </trkpt>
      <trkpt lat="39.93536" lon="-4.873">
        <ele>367.4</ele>
        <time>2020-08-16 15:56:28</time>
      </trkpt>
      <trkpt lat="39.93524" lon="-4.87317">
        <ele>367.4</ele>
        <time>2020-08-16 15:56:32</time>
      </trkpt>
      <trkpt lat="39.93521" lon="-4.87321">
        <ele>367.4</ele>
        <time>2020-08-16 15:56:33</time>
      </trkpt>
      <trkpt lat="39.93505" lon="-4.87347">
        <ele>367</ele>
        <time>2020-08-16 15:56:39</time>
      </trkpt>
      <trkpt lat="39.93502" lon="-4.87351">
        <ele>366.8</ele>
        <time>2020-08-16 15:56:40</time>
      </trkpt>
      <trkpt lat="39.935" lon="-4.87355">
        <ele>366.8</ele>
        <time>2020-08-16 15:56:41</time>
      </trkpt>
      <trkpt lat="39.93497" lon="-4.8736">
        <ele>366.8</ele>
        <time>2020-08-16 15:56:42</time>
      </trkpt>
      <trkpt lat="39.93494" lon="-4.87364">
        <ele>366.8</ele>
        <time>2020-08-16 15:56:43</time>
      </trkpt>
      <trkpt lat="39.93492" lon="-4.87369">
        <ele>366.8</ele>
        <time>2020-08-16 15:56:44</time>
      </trkpt>
      <trkpt lat="39.93489" lon="-4.87373">
        <ele>366.8</ele>
        <time>2020-08-16 15:56:45</time>
      </trkpt>
      <trkpt lat="39.93486" lon="-4.87377">
        <ele>366.8</ele>
        <time>2020-08-16 15:56:46</time>
      </trkpt>
      <trkpt lat="39.93475" lon="-4.87395">
        <ele>366.8</ele>
        <time>2020-08-16 15:56:50</time>
      </trkpt>
      <trkpt lat="39.93444" lon="-4.87445">
        <ele>367</ele>
        <time>2020-08-16 15:57:01</time>
      </trkpt>
      <trkpt lat="39.93424" lon="-4.87478">
        <ele>366.6</ele>
        <time>2020-08-16 15:57:08</time>
      </trkpt>
      <trkpt lat="39.93422" lon="-4.87483">
        <ele>366.6</ele>
        <time>2020-08-16 15:57:09</time>
      </trkpt>
      <trkpt lat="39.93419" lon="-4.87487">
        <ele>366.6</ele>
        <time>2020-08-16 15:57:10</time>
      </trkpt>
      <trkpt lat="39.93417" lon="-4.87491">
        <ele>366.6</ele>
        <time>2020-08-16 15:57:11</time>
      </trkpt>
      <trkpt lat="39.93414" lon="-4.87495">
        <ele>366.6</ele>
        <time>2020-08-16 15:57:12</time>
      </trkpt>
      <trkpt lat="39.93412" lon="-4.87499">
        <ele>366.6</ele>
        <time>2020-08-16 15:57:13</time>
      </trkpt>
      <trkpt lat="39.93409" lon="-4.87504">
        <ele>366.6</ele>
        <time>2020-08-16 15:57:14</time>
      </trkpt>
      <trkpt lat="39.93407" lon="-4.87508">
        <ele>366.6</ele>
        <time>2020-08-16 15:57:15</time>
      </trkpt>
      <trkpt lat="39.93405" lon="-4.87512">
        <ele>366.6</ele>
        <time>2020-08-16 15:57:16</time>
      </trkpt>
      <trkpt lat="39.93402" lon="-4.87516">
        <ele>366.4</ele>
        <time>2020-08-16 15:57:17</time>
      </trkpt>
      <trkpt lat="39.93399" lon="-4.8752">
        <ele>366.4</ele>
        <time>2020-08-16 15:57:18</time>
      </trkpt>
      <trkpt lat="39.93396" lon="-4.87524">
        <ele>366.4</ele>
        <time>2020-08-16 15:57:19</time>
      </trkpt>
      <trkpt lat="39.93394" lon="-4.87528">
        <ele>366.4</ele>
        <time>2020-08-16 15:57:20</time>
      </trkpt>
      <trkpt lat="39.93391" lon="-4.87532">
        <ele>366.4</ele>
        <time>2020-08-16 15:57:21</time>
      </trkpt>
      <trkpt lat="39.93389" lon="-4.87536">
        <ele>366.4</ele>
        <time>2020-08-16 15:57:22</time>
      </trkpt>
      <trkpt lat="39.93387" lon="-4.87539">
        <ele>366.6</ele>
        <time>2020-08-16 15:57:23</time>
      </trkpt>
      <trkpt lat="39.93384" lon="-4.87542">
        <ele>366.6</ele>
        <time>2020-08-16 15:57:24</time>
      </trkpt>
      <trkpt lat="39.93382" lon="-4.87545">
        <ele>366.8</ele>
        <time>2020-08-16 15:57:25</time>
      </trkpt>
      <trkpt lat="39.93381" lon="-4.87548">
        <ele>366.8</ele>
        <time>2020-08-16 15:57:26</time>
      </trkpt>
      <trkpt lat="39.93379" lon="-4.87551">
        <ele>366.8</ele>
        <time>2020-08-16 15:57:27</time>
      </trkpt>
      <trkpt lat="39.93377" lon="-4.87554">
        <ele>367</ele>
        <time>2020-08-16 15:57:28</time>
      </trkpt>
      <trkpt lat="39.93376" lon="-4.87557">
        <ele>367</ele>
        <time>2020-08-16 15:57:29</time>
      </trkpt>
      <trkpt lat="39.93374" lon="-4.8756">
        <ele>367</ele>
        <time>2020-08-16 15:57:30</time>
      </trkpt>
      <trkpt lat="39.93373" lon="-4.87562">
        <ele>367</ele>
        <time>2020-08-16 15:57:31</time>
      </trkpt>
      <trkpt lat="39.93372" lon="-4.87565">
        <ele>367.2</ele>
        <time>2020-08-16 15:57:32</time>
      </trkpt>
      <trkpt lat="39.93365" lon="-4.87576">
        <ele>367.2</ele>
        <time>2020-08-16 15:57:36</time>
      </trkpt>
      <trkpt lat="39.93364" lon="-4.87579">
        <ele>367</ele>
        <time>2020-08-16 15:57:37</time>
      </trkpt>
      <trkpt lat="39.93362" lon="-4.87582">
        <ele>367</ele>
        <time>2020-08-16 15:57:38</time>
      </trkpt>
      <trkpt lat="39.93361" lon="-4.87585">
        <ele>367</ele>
        <time>2020-08-16 15:57:39</time>
      </trkpt>
      <trkpt lat="39.93359" lon="-4.87588">
        <ele>367.2</ele>
        <time>2020-08-16 15:57:40</time>
      </trkpt>
      <trkpt lat="39.93355" lon="-4.87594">
        <ele>367.2</ele>
        <time>2020-08-16 15:57:42</time>
      </trkpt>
      <trkpt lat="39.93352" lon="-4.87598">
        <ele>367.2</ele>
        <time>2020-08-16 15:57:44</time>
      </trkpt>
      <trkpt lat="39.9335" lon="-4.876">
        <ele>367.2</ele>
        <time>2020-08-16 15:57:45</time>
      </trkpt>
      <trkpt lat="39.93348" lon="-4.87603">
        <ele>367.2</ele>
        <time>2020-08-16 15:57:46</time>
      </trkpt>
      <trkpt lat="39.93345" lon="-4.87606">
        <ele>367.2</ele>
        <time>2020-08-16 15:57:47</time>
      </trkpt>
      <trkpt lat="39.93342" lon="-4.87612">
        <ele>367.2</ele>
        <time>2020-08-16 15:57:49</time>
      </trkpt>
      <trkpt lat="39.9334" lon="-4.87615">
        <ele>367.2</ele>
        <time>2020-08-16 15:57:50</time>
      </trkpt>
      <trkpt lat="39.93338" lon="-4.87618">
        <ele>367.2</ele>
        <time>2020-08-16 15:57:51</time>
      </trkpt>
      <trkpt lat="39.93337" lon="-4.87621">
        <ele>367.2</ele>
        <time>2020-08-16 15:57:52</time>
      </trkpt>
      <trkpt lat="39.93335" lon="-4.87624">
        <ele>367.2</ele>
        <time>2020-08-16 15:57:53</time>
      </trkpt>
      <trkpt lat="39.93319" lon="-4.87647">
        <ele>367.2</ele>
        <time>2020-08-16 15:58:00</time>
      </trkpt>
      <trkpt lat="39.93302" lon="-4.87672">
        <ele>367.2</ele>
        <time>2020-08-16 15:58:07</time>
      </trkpt>
      <trkpt lat="39.93297" lon="-4.87679">
        <ele>367.2</ele>
        <time>2020-08-16 15:58:09</time>
      </trkpt>
      <trkpt lat="39.93282" lon="-4.87701">
        <ele>367.2</ele>
        <time>2020-08-16 15:58:15</time>
      </trkpt>
      <trkpt lat="39.93271" lon="-4.87717">
        <ele>367</ele>
        <time>2020-08-16 15:58:19</time>
      </trkpt>
      <trkpt lat="39.93248" lon="-4.8775">
        <ele>367.2</ele>
        <time>2020-08-16 15:58:28</time>
      </trkpt>
      <trkpt lat="39.93245" lon="-4.87754">
        <ele>367.4</ele>
        <time>2020-08-16 15:58:29</time>
      </trkpt>
      <trkpt lat="39.93243" lon="-4.87757">
        <ele>367.4</ele>
        <time>2020-08-16 15:58:30</time>
      </trkpt>
      <trkpt lat="39.9324" lon="-4.87761">
        <ele>367.4</ele>
        <time>2020-08-16 15:58:31</time>
      </trkpt>
      <trkpt lat="39.93238" lon="-4.87765">
        <ele>367.4</ele>
        <time>2020-08-16 15:58:32</time>
      </trkpt>
      <trkpt lat="39.93236" lon="-4.87768">
        <ele>367.4</ele>
        <time>2020-08-16 15:58:33</time>
      </trkpt>
      <trkpt lat="39.93234" lon="-4.87772">
        <ele>367.4</ele>
        <time>2020-08-16 15:58:34</time>
      </trkpt>
      <trkpt lat="39.93231" lon="-4.87775">
        <ele>367.4</ele>
        <time>2020-08-16 15:58:35</time>
      </trkpt>
      <trkpt lat="39.93229" lon="-4.87779">
        <ele>367.4</ele>
        <time>2020-08-16 15:58:36</time>
      </trkpt>
      <trkpt lat="39.93226" lon="-4.87782">
        <ele>367.4</ele>
        <time>2020-08-16 15:58:37</time>
      </trkpt>
      <trkpt lat="39.93224" lon="-4.87785">
        <ele>367.4</ele>
        <time>2020-08-16 15:58:38</time>
      </trkpt>
      <trkpt lat="39.93221" lon="-4.87788">
        <ele>367.4</ele>
        <time>2020-08-16 15:58:39</time>
      </trkpt>
      <trkpt lat="39.93218" lon="-4.87791">
        <ele>367.4</ele>
        <time>2020-08-16 15:58:40</time>
      </trkpt>
      <trkpt lat="39.93189" lon="-4.8782">
        <ele>367.6</ele>
        <time>2020-08-16 15:58:49</time>
      </trkpt>
      <trkpt lat="39.93179" lon="-4.8783">
        <ele>367.8</ele>
        <time>2020-08-16 15:58:52</time>
      </trkpt>
      <trkpt lat="39.93176" lon="-4.87834">
        <ele>368</ele>
        <time>2020-08-16 15:58:53</time>
      </trkpt>
      <trkpt lat="39.93173" lon="-4.87836">
        <ele>368</ele>
        <time>2020-08-16 15:58:54</time>
      </trkpt>
      <trkpt lat="39.93169" lon="-4.87839">
        <ele>367.8</ele>
        <time>2020-08-16 15:58:55</time>
      </trkpt>
      <trkpt lat="39.93166" lon="-4.87843">
        <ele>367.8</ele>
        <time>2020-08-16 15:58:56</time>
      </trkpt>
      <trkpt lat="39.93163" lon="-4.87846">
        <ele>367.8</ele>
        <time>2020-08-16 15:58:57</time>
      </trkpt>
      <trkpt lat="39.9316" lon="-4.87849">
        <ele>367.8</ele>
        <time>2020-08-16 15:58:58</time>
      </trkpt>
      <trkpt lat="39.93157" lon="-4.87853">
        <ele>367.8</ele>
        <time>2020-08-16 15:58:59</time>
      </trkpt>
      <trkpt lat="39.93154" lon="-4.87856">
        <ele>367.8</ele>
        <time>2020-08-16 15:59:00</time>
      </trkpt>
      <trkpt lat="39.9315" lon="-4.87859">
        <ele>367.6</ele>
        <time>2020-08-16 15:59:01</time>
      </trkpt>
      <trkpt lat="39.93147" lon="-4.87862">
        <ele>367.6</ele>
        <time>2020-08-16 15:59:02</time>
      </trkpt>
      <trkpt lat="39.93144" lon="-4.87866">
        <ele>367.2</ele>
        <time>2020-08-16 15:59:03</time>
      </trkpt>
      <trkpt lat="39.93141" lon="-4.87869">
        <ele>367.2</ele>
        <time>2020-08-16 15:59:04</time>
      </trkpt>
      <trkpt lat="39.93139" lon="-4.87872">
        <ele>367</ele>
        <time>2020-08-16 15:59:05</time>
      </trkpt>
      <trkpt lat="39.93136" lon="-4.87875">
        <ele>367</ele>
        <time>2020-08-16 15:59:06</time>
      </trkpt>
      <trkpt lat="39.93134" lon="-4.87879">
        <ele>366.8</ele>
        <time>2020-08-16 15:59:07</time>
      </trkpt>
      <trkpt lat="39.93132" lon="-4.87882">
        <ele>366.8</ele>
        <time>2020-08-16 15:59:08</time>
      </trkpt>
      <trkpt lat="39.93129" lon="-4.87886">
        <ele>366.6</ele>
        <time>2020-08-16 15:59:09</time>
      </trkpt>
      <trkpt lat="39.93127" lon="-4.8789">
        <ele>366.6</ele>
        <time>2020-08-16 15:59:10</time>
      </trkpt>
      <trkpt lat="39.93125" lon="-4.87894">
        <ele>366.4</ele>
        <time>2020-08-16 15:59:11</time>
      </trkpt>
      <trkpt lat="39.93123" lon="-4.87898">
        <ele>366.4</ele>
        <time>2020-08-16 15:59:12</time>
      </trkpt>
      <trkpt lat="39.93121" lon="-4.87903">
        <ele>366.4</ele>
        <time>2020-08-16 15:59:13</time>
      </trkpt>
      <trkpt lat="39.93119" lon="-4.87909">
        <ele>366.4</ele>
        <time>2020-08-16 15:59:14</time>
      </trkpt>
      <trkpt lat="39.93117" lon="-4.87914">
        <ele>366.2</ele>
        <time>2020-08-16 15:59:15</time>
      </trkpt>
      <trkpt lat="39.93115" lon="-4.87919">
        <ele>366.2</ele>
        <time>2020-08-16 15:59:16</time>
      </trkpt>
      <trkpt lat="39.93109" lon="-4.87934">
        <ele>366.2</ele>
        <time>2020-08-16 15:59:19</time>
      </trkpt>
      <trkpt lat="39.93101" lon="-4.87953">
        <ele>366.2</ele>
        <time>2020-08-16 15:59:23</time>
      </trkpt>
      <trkpt lat="39.93096" lon="-4.87967">
        <ele>366.2</ele>
        <time>2020-08-16 15:59:26</time>
      </trkpt>
      <trkpt lat="39.93094" lon="-4.87972">
        <ele>366.4</ele>
        <time>2020-08-16 15:59:27</time>
      </trkpt>
      <trkpt lat="39.93092" lon="-4.87976">
        <ele>366.4</ele>
        <time>2020-08-16 15:59:28</time>
      </trkpt>
      <trkpt lat="39.9309" lon="-4.87981">
        <ele>366.6</ele>
        <time>2020-08-16 15:59:29</time>
      </trkpt>
      <trkpt lat="39.93088" lon="-4.87986">
        <ele>366.6</ele>
        <time>2020-08-16 15:59:30</time>
      </trkpt>
      <trkpt lat="39.93087" lon="-4.8799">
        <ele>366.6</ele>
        <time>2020-08-16 15:59:31</time>
      </trkpt>
      <trkpt lat="39.93085" lon="-4.87995">
        <ele>366.6</ele>
        <time>2020-08-16 15:59:32</time>
      </trkpt>
      <trkpt lat="39.93083" lon="-4.88">
        <ele>366.6</ele>
        <time>2020-08-16 15:59:33</time>
      </trkpt>
      <trkpt lat="39.93081" lon="-4.88005">
        <ele>366.6</ele>
        <time>2020-08-16 15:59:34</time>
      </trkpt>
      <trkpt lat="39.93074" lon="-4.8802">
        <ele>366.6</ele>
        <time>2020-08-16 15:59:37</time>
      </trkpt>
      <trkpt lat="39.93062" lon="-4.88039">
        <ele>366.6</ele>
        <time>2020-08-16 15:59:42</time>
      </trkpt>
      <trkpt lat="39.93059" lon="-4.88042">
        <ele>366.4</ele>
        <time>2020-08-16 15:59:43</time>
      </trkpt>
      <trkpt lat="39.93057" lon="-4.88045">
        <ele>366.8</ele>
        <time>2020-08-16 15:59:44</time>
      </trkpt>
      <trkpt lat="39.93055" lon="-4.88048">
        <ele>366.8</ele>
        <time>2020-08-16 15:59:45</time>
      </trkpt>
      <trkpt lat="39.93053" lon="-4.88051">
        <ele>366.4</ele>
        <time>2020-08-16 15:59:46</time>
      </trkpt>
      <trkpt lat="39.93045" lon="-4.88062">
        <ele>366.8</ele>
        <time>2020-08-16 15:59:49</time>
      </trkpt>
      <trkpt lat="39.93043" lon="-4.88065">
        <ele>366.8</ele>
        <time>2020-08-16 15:59:50</time>
      </trkpt>
      <trkpt lat="39.93041" lon="-4.88069">
        <ele>366.8</ele>
        <time>2020-08-16 15:59:51</time>
      </trkpt>
      <trkpt lat="39.93038" lon="-4.88073">
        <ele>366.6</ele>
        <time>2020-08-16 15:59:52</time>
      </trkpt>
      <trkpt lat="39.93036" lon="-4.88077">
        <ele>366.6</ele>
        <time>2020-08-16 15:59:53</time>
      </trkpt>
      <trkpt lat="39.93019" lon="-4.88111">
        <ele>366</ele>
        <time>2020-08-16 16:00:01</time>
      </trkpt>
      <trkpt lat="39.93" lon="-4.88151">
        <ele>366</ele>
        <time>2020-08-16 16:00:10</time>
      </trkpt>
      <trkpt lat="39.92996" lon="-4.88161">
        <ele>366</ele>
        <time>2020-08-16 16:00:12</time>
      </trkpt>
      <trkpt lat="39.92976" lon="-4.88202">
        <ele>366.6</ele>
        <time>2020-08-16 16:00:21</time>
      </trkpt>
      <trkpt lat="39.92974" lon="-4.88206">
        <ele>366.6</ele>
        <time>2020-08-16 16:00:22</time>
      </trkpt>
      <trkpt lat="39.92972" lon="-4.88211">
        <ele>366.6</ele>
        <time>2020-08-16 16:00:23</time>
      </trkpt>
      <trkpt lat="39.9297" lon="-4.88215">
        <ele>366.6</ele>
        <time>2020-08-16 16:00:24</time>
      </trkpt>
      <trkpt lat="39.92968" lon="-4.8822">
        <ele>366.6</ele>
        <time>2020-08-16 16:00:25</time>
      </trkpt>
      <trkpt lat="39.92966" lon="-4.88225">
        <ele>366.6</ele>
        <time>2020-08-16 16:00:26</time>
      </trkpt>
      <trkpt lat="39.92964" lon="-4.88229">
        <ele>366.6</ele>
        <time>2020-08-16 16:00:27</time>
      </trkpt>
      <trkpt lat="39.92961" lon="-4.88234">
        <ele>366.6</ele>
        <time>2020-08-16 16:00:28</time>
      </trkpt>
      <trkpt lat="39.92959" lon="-4.88238">
        <ele>366.6</ele>
        <time>2020-08-16 16:00:29</time>
      </trkpt>
      <trkpt lat="39.92958" lon="-4.88243">
        <ele>366.6</ele>
        <time>2020-08-16 16:00:30</time>
      </trkpt>
      <trkpt lat="39.92956" lon="-4.88248">
        <ele>366.6</ele>
        <time>2020-08-16 16:00:31</time>
      </trkpt>
      <trkpt lat="39.92954" lon="-4.88252">
        <ele>366.6</ele>
        <time>2020-08-16 16:00:32</time>
      </trkpt>
      <trkpt lat="39.92952" lon="-4.88255">
        <ele>366.6</ele>
        <time>2020-08-16 16:00:33</time>
      </trkpt>
      <trkpt lat="39.9295" lon="-4.8826">
        <ele>366.6</ele>
        <time>2020-08-16 16:00:34</time>
      </trkpt>
      <trkpt lat="39.92948" lon="-4.88264">
        <ele>366.8</ele>
        <time>2020-08-16 16:00:35</time>
      </trkpt>
      <trkpt lat="39.92946" lon="-4.88268">
        <ele>366.8</ele>
        <time>2020-08-16 16:00:36</time>
      </trkpt>
      <trkpt lat="39.92944" lon="-4.88272">
        <ele>366.8</ele>
        <time>2020-08-16 16:00:37</time>
      </trkpt>
      <trkpt lat="39.92943" lon="-4.88276">
        <ele>366.8</ele>
        <time>2020-08-16 16:00:38</time>
      </trkpt>
      <trkpt lat="39.92941" lon="-4.8828">
        <ele>366.8</ele>
        <time>2020-08-16 16:00:39</time>
      </trkpt>
      <trkpt lat="39.92939" lon="-4.88284">
        <ele>366.8</ele>
        <time>2020-08-16 16:00:40</time>
      </trkpt>
      <trkpt lat="39.92937" lon="-4.88289">
        <ele>366.8</ele>
        <time>2020-08-16 16:00:41</time>
      </trkpt>
      <trkpt lat="39.92935" lon="-4.88293">
        <ele>366.8</ele>
        <time>2020-08-16 16:00:42</time>
      </trkpt>
      <trkpt lat="39.92918" lon="-4.88334">
        <ele>365.8</ele>
        <time>2020-08-16 16:00:51</time>
      </trkpt>
      <trkpt lat="39.92913" lon="-4.88348">
        <ele>366</ele>
        <time>2020-08-16 16:00:54</time>
      </trkpt>
      <trkpt lat="39.92911" lon="-4.88352">
        <ele>366</ele>
        <time>2020-08-16 16:00:55</time>
      </trkpt>
      <trkpt lat="39.92907" lon="-4.88362">
        <ele>366</ele>
        <time>2020-08-16 16:00:57</time>
      </trkpt>
      <trkpt lat="39.92905" lon="-4.88366">
        <ele>366.2</ele>
        <time>2020-08-16 16:00:58</time>
      </trkpt>
      <trkpt lat="39.92904" lon="-4.88371">
        <ele>366.2</ele>
        <time>2020-08-16 16:00:59</time>
      </trkpt>
      <trkpt lat="39.92902" lon="-4.88376">
        <ele>366</ele>
        <time>2020-08-16 16:01:00</time>
      </trkpt>
      <trkpt lat="39.92901" lon="-4.8838">
        <ele>366</ele>
        <time>2020-08-16 16:01:01</time>
      </trkpt>
      <trkpt lat="39.92899" lon="-4.88385">
        <ele>366</ele>
        <time>2020-08-16 16:01:02</time>
      </trkpt>
      <trkpt lat="39.92898" lon="-4.88389">
        <ele>366</ele>
        <time>2020-08-16 16:01:03</time>
      </trkpt>
      <trkpt lat="39.92897" lon="-4.88394">
        <ele>366</ele>
        <time>2020-08-16 16:01:04</time>
      </trkpt>
      <trkpt lat="39.92895" lon="-4.88399">
        <ele>365.8</ele>
        <time>2020-08-16 16:01:05</time>
      </trkpt>
      <trkpt lat="39.92895" lon="-4.88403">
        <ele>365.8</ele>
        <time>2020-08-16 16:01:06</time>
      </trkpt>
      <trkpt lat="39.92894" lon="-4.88407">
        <ele>365.8</ele>
        <time>2020-08-16 16:01:07</time>
      </trkpt>
      <trkpt lat="39.92894" lon="-4.88411">
        <ele>365.8</ele>
        <time>2020-08-16 16:01:08</time>
      </trkpt>
      <trkpt lat="39.92894" lon="-4.88414">
        <ele>365.8</ele>
        <time>2020-08-16 16:01:09</time>
      </trkpt>
      <trkpt lat="39.92894" lon="-4.88418">
        <ele>366</ele>
        <time>2020-08-16 16:01:10</time>
      </trkpt>
      <trkpt lat="39.92894" lon="-4.88421">
        <ele>366</ele>
        <time>2020-08-16 16:01:11</time>
      </trkpt>
      <trkpt lat="39.92893" lon="-4.88425">
        <ele>366.2</ele>
        <time>2020-08-16 16:01:12</time>
      </trkpt>
      <trkpt lat="39.92893" lon="-4.88428">
        <ele>366.4</ele>
        <time>2020-08-16 16:01:13</time>
      </trkpt>
      <trkpt lat="39.92892" lon="-4.88432">
        <ele>366.4</ele>
        <time>2020-08-16 16:01:14</time>
      </trkpt>
      <trkpt lat="39.92892" lon="-4.88437">
        <ele>366.6</ele>
        <time>2020-08-16 16:01:15</time>
      </trkpt>
      <trkpt lat="39.92887" lon="-4.88461">
        <ele>366.6</ele>
        <time>2020-08-16 16:01:20</time>
      </trkpt>
      <trkpt lat="39.92875" lon="-4.885">
        <ele>366.2</ele>
        <time>2020-08-16 16:01:28</time>
      </trkpt>
      <trkpt lat="39.92861" lon="-4.88537">
        <ele>366</ele>
        <time>2020-08-16 16:01:36</time>
      </trkpt>
      <trkpt lat="39.9286" lon="-4.88542">
        <ele>365.8</ele>
        <time>2020-08-16 16:01:37</time>
      </trkpt>
      <trkpt lat="39.92859" lon="-4.88546">
        <ele>365.8</ele>
        <time>2020-08-16 16:01:38</time>
      </trkpt>
      <trkpt lat="39.92857" lon="-4.88551">
        <ele>365.8</ele>
        <time>2020-08-16 16:01:39</time>
      </trkpt>
      <trkpt lat="39.92855" lon="-4.88556">
        <ele>365.8</ele>
        <time>2020-08-16 16:01:40</time>
      </trkpt>
      <trkpt lat="39.92854" lon="-4.8856">
        <ele>366</ele>
        <time>2020-08-16 16:01:41</time>
      </trkpt>
      <trkpt lat="39.92852" lon="-4.88565">
        <ele>366</ele>
        <time>2020-08-16 16:01:42</time>
      </trkpt>
      <trkpt lat="39.9285" lon="-4.88569">
        <ele>366.2</ele>
        <time>2020-08-16 16:01:43</time>
      </trkpt>
      <trkpt lat="39.92848" lon="-4.88574">
        <ele>366.2</ele>
        <time>2020-08-16 16:01:44</time>
      </trkpt>
      <trkpt lat="39.92847" lon="-4.88578">
        <ele>366.2</ele>
        <time>2020-08-16 16:01:45</time>
      </trkpt>
      <trkpt lat="39.92845" lon="-4.88583">
        <ele>366.2</ele>
        <time>2020-08-16 16:01:46</time>
      </trkpt>
      <trkpt lat="39.92842" lon="-4.88593">
        <ele>366.2</ele>
        <time>2020-08-16 16:01:48</time>
      </trkpt>
      <trkpt lat="39.92841" lon="-4.88597">
        <ele>366.2</ele>
        <time>2020-08-16 16:01:49</time>
      </trkpt>
      <trkpt lat="39.92829" lon="-4.88631">
        <ele>365.8</ele>
        <time>2020-08-16 16:01:56</time>
      </trkpt>
      <trkpt lat="39.92825" lon="-4.88641">
        <ele>365.4</ele>
        <time>2020-08-16 16:01:58</time>
      </trkpt>
      <trkpt lat="39.9282" lon="-4.88656">
        <ele>365.6</ele>
        <time>2020-08-16 16:02:01</time>
      </trkpt>
      <trkpt lat="39.92818" lon="-4.88661">
        <ele>365.6</ele>
        <time>2020-08-16 16:02:02</time>
      </trkpt>
      <trkpt lat="39.92796" lon="-4.8871">
        <ele>366</ele>
        <time>2020-08-16 16:02:12</time>
      </trkpt>
      <trkpt lat="39.92784" lon="-4.88742">
        <ele>366</ele>
        <time>2020-08-16 16:02:18</time>
      </trkpt>
      <trkpt lat="39.92783" lon="-4.88746">
        <ele>366</ele>
        <time>2020-08-16 16:02:19</time>
      </trkpt>
      <trkpt lat="39.92781" lon="-4.8875">
        <ele>366</ele>
        <time>2020-08-16 16:02:20</time>
      </trkpt>
      <trkpt lat="39.9278" lon="-4.88754">
        <ele>366</ele>
        <time>2020-08-16 16:02:21</time>
      </trkpt>
      <trkpt lat="39.92779" lon="-4.88757">
        <ele>366</ele>
        <time>2020-08-16 16:02:22</time>
      </trkpt>
      <trkpt lat="39.92777" lon="-4.88761">
        <ele>366.2</ele>
        <time>2020-08-16 16:02:23</time>
      </trkpt>
      <trkpt lat="39.92771" lon="-4.88779">
        <ele>366.6</ele>
        <time>2020-08-16 16:02:27</time>
      </trkpt>
      <trkpt lat="39.92763" lon="-4.88808">
        <ele>366.4</ele>
        <time>2020-08-16 16:02:32</time>
      </trkpt>
      <trkpt lat="39.92762" lon="-4.88813">
        <ele>366.2</ele>
        <time>2020-08-16 16:02:33</time>
      </trkpt>
      <trkpt lat="39.92761" lon="-4.88818">
        <ele>366</ele>
        <time>2020-08-16 16:02:34</time>
      </trkpt>
      <trkpt lat="39.92759" lon="-4.88822">
        <ele>366</ele>
        <time>2020-08-16 16:02:35</time>
      </trkpt>
      <trkpt lat="39.92758" lon="-4.88826">
        <ele>365.8</ele>
        <time>2020-08-16 16:02:36</time>
      </trkpt>
      <trkpt lat="39.92757" lon="-4.8883">
        <ele>365.8</ele>
        <time>2020-08-16 16:02:37</time>
      </trkpt>
      <trkpt lat="39.92755" lon="-4.88833">
        <ele>365.8</ele>
        <time>2020-08-16 16:02:38</time>
      </trkpt>
      <trkpt lat="39.92753" lon="-4.88837">
        <ele>365.8</ele>
        <time>2020-08-16 16:02:39</time>
      </trkpt>
      <trkpt lat="39.92738" lon="-4.88861">
        <ele>365.8</ele>
        <time>2020-08-16 16:02:45</time>
      </trkpt>
      <trkpt lat="39.92721" lon="-4.889">
        <ele>365.4</ele>
        <time>2020-08-16 16:02:53</time>
      </trkpt>
      <trkpt lat="39.92715" lon="-4.88914">
        <ele>365.4</ele>
        <time>2020-08-16 16:02:56</time>
      </trkpt>
      <trkpt lat="39.92713" lon="-4.88918">
        <ele>365.4</ele>
        <time>2020-08-16 16:02:57</time>
      </trkpt>
      <trkpt lat="39.92711" lon="-4.88923">
        <ele>365.4</ele>
        <time>2020-08-16 16:02:58</time>
      </trkpt>
      <trkpt lat="39.92709" lon="-4.88928">
        <ele>365.2</ele>
        <time>2020-08-16 16:02:59</time>
      </trkpt>
      <trkpt lat="39.92707" lon="-4.88933">
        <ele>365.2</ele>
        <time>2020-08-16 16:03:00</time>
      </trkpt>
      <trkpt lat="39.92705" lon="-4.88938">
        <ele>365.2</ele>
        <time>2020-08-16 16:03:01</time>
      </trkpt>
      <trkpt lat="39.92703" lon="-4.88942">
        <ele>365.2</ele>
        <time>2020-08-16 16:03:02</time>
      </trkpt>
      <trkpt lat="39.92701" lon="-4.88947">
        <ele>365.2</ele>
        <time>2020-08-16 16:03:03</time>
      </trkpt>
      <trkpt lat="39.92699" lon="-4.88952">
        <ele>365</ele>
        <time>2020-08-16 16:03:04</time>
      </trkpt>
      <trkpt lat="39.92697" lon="-4.88957">
        <ele>365</ele>
        <time>2020-08-16 16:03:05</time>
      </trkpt>
      <trkpt lat="39.92696" lon="-4.88961">
        <ele>365</ele>
        <time>2020-08-16 16:03:06</time>
      </trkpt>
      <trkpt lat="39.92694" lon="-4.88966">
        <ele>365</ele>
        <time>2020-08-16 16:03:07</time>
      </trkpt>
      <trkpt lat="39.92692" lon="-4.8897">
        <ele>365</ele>
        <time>2020-08-16 16:03:08</time>
      </trkpt>
      <trkpt lat="39.92691" lon="-4.88974">
        <ele>365</ele>
        <time>2020-08-16 16:03:09</time>
      </trkpt>
      <trkpt lat="39.92689" lon="-4.88978">
        <ele>365</ele>
        <time>2020-08-16 16:03:10</time>
      </trkpt>
      <trkpt lat="39.92688" lon="-4.88982">
        <ele>365</ele>
        <time>2020-08-16 16:03:11</time>
      </trkpt>
      <trkpt lat="39.92686" lon="-4.88986">
        <ele>365.2</ele>
        <time>2020-08-16 16:03:12</time>
      </trkpt>
      <trkpt lat="39.92685" lon="-4.8899">
        <ele>365.4</ele>
        <time>2020-08-16 16:03:13</time>
      </trkpt>
      <trkpt lat="39.92683" lon="-4.88994">
        <ele>365.4</ele>
        <time>2020-08-16 16:03:14</time>
      </trkpt>
      <trkpt lat="39.92681" lon="-4.88998">
        <ele>365.6</ele>
        <time>2020-08-16 16:03:15</time>
      </trkpt>
      <trkpt lat="39.92679" lon="-4.89003">
        <ele>365.6</ele>
        <time>2020-08-16 16:03:16</time>
      </trkpt>
      <trkpt lat="39.92677" lon="-4.89007">
        <ele>365.6</ele>
        <time>2020-08-16 16:03:17</time>
      </trkpt>
      <trkpt lat="39.92675" lon="-4.89012">
        <ele>365.8</ele>
        <time>2020-08-16 16:03:18</time>
      </trkpt>
      <trkpt lat="39.92665" lon="-4.89039">
        <ele>366</ele>
        <time>2020-08-16 16:03:24</time>
      </trkpt>
      <trkpt lat="39.92663" lon="-4.89042">
        <ele>366</ele>
        <time>2020-08-16 16:03:25</time>
      </trkpt>
      <trkpt lat="39.92661" lon="-4.89046">
        <ele>366</ele>
        <time>2020-08-16 16:03:26</time>
      </trkpt>
      <trkpt lat="39.92659" lon="-4.89049">
        <ele>366</ele>
        <time>2020-08-16 16:03:27</time>
      </trkpt>
      <trkpt lat="39.92658" lon="-4.89051">
        <ele>366</ele>
        <time>2020-08-16 16:03:28</time>
      </trkpt>
      <trkpt lat="39.92657" lon="-4.89054">
        <ele>365.8</ele>
        <time>2020-08-16 16:03:29</time>
      </trkpt>
      <trkpt lat="39.92656" lon="-4.89057">
        <ele>365.6</ele>
        <time>2020-08-16 16:03:30</time>
      </trkpt>
      <trkpt lat="39.92649" lon="-4.89075">
        <ele>365.6</ele>
        <time>2020-08-16 16:03:35</time>
      </trkpt>
      <trkpt lat="39.92643" lon="-4.89089">
        <ele>365.6</ele>
        <time>2020-08-16 16:03:38</time>
      </trkpt>
      <trkpt lat="39.92637" lon="-4.89103">
        <ele>365.6</ele>
        <time>2020-08-16 16:03:41</time>
      </trkpt>
      <trkpt lat="39.92626" lon="-4.8913">
        <ele>366.2</ele>
        <time>2020-08-16 16:03:47</time>
      </trkpt>
      <trkpt lat="39.92624" lon="-4.89135">
        <ele>366.2</ele>
        <time>2020-08-16 16:03:48</time>
      </trkpt>
      <trkpt lat="39.92622" lon="-4.89139">
        <ele>366.2</ele>
        <time>2020-08-16 16:03:49</time>
      </trkpt>
      <trkpt lat="39.92621" lon="-4.89143">
        <ele>366.2</ele>
        <time>2020-08-16 16:03:50</time>
      </trkpt>
      <trkpt lat="39.92619" lon="-4.89147">
        <ele>366.2</ele>
        <time>2020-08-16 16:03:51</time>
      </trkpt>
      <trkpt lat="39.92617" lon="-4.89152">
        <ele>366.2</ele>
        <time>2020-08-16 16:03:52</time>
      </trkpt>
      <trkpt lat="39.92615" lon="-4.89157">
        <ele>366</ele>
        <time>2020-08-16 16:03:53</time>
      </trkpt>
      <trkpt lat="39.92604" lon="-4.89183">
        <ele>365.8</ele>
        <time>2020-08-16 16:03:58</time>
      </trkpt>
      <trkpt lat="39.92582" lon="-4.89234">
        <ele>365.8</ele>
        <time>2020-08-16 16:04:08</time>
      </trkpt>
      <trkpt lat="39.92581" lon="-4.89238">
        <ele>365.8</ele>
        <time>2020-08-16 16:04:09</time>
      </trkpt>
      <trkpt lat="39.92579" lon="-4.89242">
        <ele>366</ele>
        <time>2020-08-16 16:04:10</time>
      </trkpt>
      <trkpt lat="39.92576" lon="-4.89247">
        <ele>366</ele>
        <time>2020-08-16 16:04:11</time>
      </trkpt>
      <trkpt lat="39.92574" lon="-4.89252">
        <ele>366</ele>
        <time>2020-08-16 16:04:12</time>
      </trkpt>
      <trkpt lat="39.92572" lon="-4.89256">
        <ele>366</ele>
        <time>2020-08-16 16:04:13</time>
      </trkpt>
      <trkpt lat="39.9257" lon="-4.89261">
        <ele>366.2</ele>
        <time>2020-08-16 16:04:14</time>
      </trkpt>
      <trkpt lat="39.92568" lon="-4.89266">
        <ele>366.2</ele>
        <time>2020-08-16 16:04:15</time>
      </trkpt>
      <trkpt lat="39.92565" lon="-4.89272">
        <ele>366.2</ele>
        <time>2020-08-16 16:04:16</time>
      </trkpt>
      <trkpt lat="39.92544" lon="-4.89315">
        <ele>366</ele>
        <time>2020-08-16 16:04:25</time>
      </trkpt>
      <trkpt lat="39.92541" lon="-4.8932">
        <ele>366</ele>
        <time>2020-08-16 16:04:26</time>
      </trkpt>
      <trkpt lat="39.92539" lon="-4.89325">
        <ele>366</ele>
        <time>2020-08-16 16:04:27</time>
      </trkpt>
      <trkpt lat="39.92537" lon="-4.89329">
        <ele>365.8</ele>
        <time>2020-08-16 16:04:28</time>
      </trkpt>
      <trkpt lat="39.92535" lon="-4.89333">
        <ele>365.8</ele>
        <time>2020-08-16 16:04:29</time>
      </trkpt>
      <trkpt lat="39.92533" lon="-4.89337">
        <ele>365.8</ele>
        <time>2020-08-16 16:04:30</time>
      </trkpt>
      <trkpt lat="39.92531" lon="-4.89342">
        <ele>365.8</ele>
        <time>2020-08-16 16:04:31</time>
      </trkpt>
      <trkpt lat="39.92529" lon="-4.89346">
        <ele>365.8</ele>
        <time>2020-08-16 16:04:32</time>
      </trkpt>
      <trkpt lat="39.92527" lon="-4.89351">
        <ele>365.8</ele>
        <time>2020-08-16 16:04:33</time>
      </trkpt>
      <trkpt lat="39.92525" lon="-4.89355">
        <ele>365.8</ele>
        <time>2020-08-16 16:04:34</time>
      </trkpt>
      <trkpt lat="39.92523" lon="-4.8936">
        <ele>365.8</ele>
        <time>2020-08-16 16:04:35</time>
      </trkpt>
      <trkpt lat="39.9252" lon="-4.89364">
        <ele>365.8</ele>
        <time>2020-08-16 16:04:36</time>
      </trkpt>
      <trkpt lat="39.92518" lon="-4.89368">
        <ele>365.8</ele>
        <time>2020-08-16 16:04:37</time>
      </trkpt>
      <trkpt lat="39.92516" lon="-4.89373">
        <ele>365.6</ele>
        <time>2020-08-16 16:04:38</time>
      </trkpt>
      <trkpt lat="39.92509" lon="-4.89388">
        <ele>365.8</ele>
        <time>2020-08-16 16:04:41</time>
      </trkpt>
      <trkpt lat="39.92507" lon="-4.89392">
        <ele>365.8</ele>
        <time>2020-08-16 16:04:42</time>
      </trkpt>
      <trkpt lat="39.92503" lon="-4.89401">
        <ele>365.6</ele>
        <time>2020-08-16 16:04:44</time>
      </trkpt>
      <trkpt lat="39.92501" lon="-4.89406">
        <ele>365.6</ele>
        <time>2020-08-16 16:04:45</time>
      </trkpt>
      <trkpt lat="39.92498" lon="-4.8941">
        <ele>365.6</ele>
        <time>2020-08-16 16:04:46</time>
      </trkpt>
      <trkpt lat="39.92496" lon="-4.89415">
        <ele>365.8</ele>
        <time>2020-08-16 16:04:47</time>
      </trkpt>
      <trkpt lat="39.92491" lon="-4.89424">
        <ele>365.8</ele>
        <time>2020-08-16 16:04:49</time>
      </trkpt>
      <trkpt lat="39.92489" lon="-4.89429">
        <ele>365.6</ele>
        <time>2020-08-16 16:04:50</time>
      </trkpt>
      <trkpt lat="39.92487" lon="-4.89433">
        <ele>365.4</ele>
        <time>2020-08-16 16:04:51</time>
      </trkpt>
      <trkpt lat="39.92485" lon="-4.89437">
        <ele>365.6</ele>
        <time>2020-08-16 16:04:52</time>
      </trkpt>
      <trkpt lat="39.92483" lon="-4.89441">
        <ele>365.4</ele>
        <time>2020-08-16 16:04:53</time>
      </trkpt>
      <trkpt lat="39.9248" lon="-4.89446">
        <ele>365.4</ele>
        <time>2020-08-16 16:04:54</time>
      </trkpt>
      <trkpt lat="39.92478" lon="-4.8945">
        <ele>365.6</ele>
        <time>2020-08-16 16:04:55</time>
      </trkpt>
      <trkpt lat="39.92475" lon="-4.89455">
        <ele>365.6</ele>
        <time>2020-08-16 16:04:56</time>
      </trkpt>
      <trkpt lat="39.92473" lon="-4.89459">
        <ele>365.6</ele>
        <time>2020-08-16 16:04:57</time>
      </trkpt>
      <trkpt lat="39.92468" lon="-4.89468">
        <ele>365.6</ele>
        <time>2020-08-16 16:04:59</time>
      </trkpt>
      <trkpt lat="39.92466" lon="-4.89472">
        <ele>365.6</ele>
        <time>2020-08-16 16:05:00</time>
      </trkpt>
      <trkpt lat="39.92464" lon="-4.89476">
        <ele>365.8</ele>
        <time>2020-08-16 16:05:01</time>
      </trkpt>
      <trkpt lat="39.92462" lon="-4.89481">
        <ele>365.8</ele>
        <time>2020-08-16 16:05:02</time>
      </trkpt>
      <trkpt lat="39.92456" lon="-4.89495">
        <ele>365.8</ele>
        <time>2020-08-16 16:05:05</time>
      </trkpt>
      <trkpt lat="39.9245" lon="-4.89508">
        <ele>365.6</ele>
        <time>2020-08-16 16:05:08</time>
      </trkpt>
      <trkpt lat="39.92448" lon="-4.89513">
        <ele>365.6</ele>
        <time>2020-08-16 16:05:09</time>
      </trkpt>
      <trkpt lat="39.92446" lon="-4.89517">
        <ele>365.4</ele>
        <time>2020-08-16 16:05:10</time>
      </trkpt>
      <trkpt lat="39.92444" lon="-4.89521">
        <ele>365.4</ele>
        <time>2020-08-16 16:05:11</time>
      </trkpt>
      <trkpt lat="39.92442" lon="-4.89525">
        <ele>365.4</ele>
        <time>2020-08-16 16:05:12</time>
      </trkpt>
      <trkpt lat="39.9244" lon="-4.8953">
        <ele>365.2</ele>
        <time>2020-08-16 16:05:13</time>
      </trkpt>
      <trkpt lat="39.92438" lon="-4.89534">
        <ele>365.2</ele>
        <time>2020-08-16 16:05:14</time>
      </trkpt>
      <trkpt lat="39.92436" lon="-4.89538">
        <ele>365.2</ele>
        <time>2020-08-16 16:05:15</time>
      </trkpt>
      <trkpt lat="39.92435" lon="-4.89543">
        <ele>365.2</ele>
        <time>2020-08-16 16:05:16</time>
      </trkpt>
      <trkpt lat="39.92433" lon="-4.89548">
        <ele>365.2</ele>
        <time>2020-08-16 16:05:17</time>
      </trkpt>
      <trkpt lat="39.9243" lon="-4.89553">
        <ele>365.2</ele>
        <time>2020-08-16 16:05:18</time>
      </trkpt>
      <trkpt lat="39.92428" lon="-4.89558">
        <ele>365.2</ele>
        <time>2020-08-16 16:05:19</time>
      </trkpt>
      <trkpt lat="39.92426" lon="-4.89563">
        <ele>365.2</ele>
        <time>2020-08-16 16:05:20</time>
      </trkpt>
      <trkpt lat="39.92414" lon="-4.89592">
        <ele>365</ele>
        <time>2020-08-16 16:05:26</time>
      </trkpt>
      <trkpt lat="39.9241" lon="-4.89602">
        <ele>365.4</ele>
        <time>2020-08-16 16:05:28</time>
      </trkpt>
      <trkpt lat="39.92405" lon="-4.89611">
        <ele>365.6</ele>
        <time>2020-08-16 16:05:30</time>
      </trkpt>
      <trkpt lat="39.92392" lon="-4.89639">
        <ele>365.6</ele>
        <time>2020-08-16 16:05:36</time>
      </trkpt>
      <trkpt lat="39.9239" lon="-4.89643">
        <ele>365.6</ele>
        <time>2020-08-16 16:05:37</time>
      </trkpt>
      <trkpt lat="39.92388" lon="-4.89648">
        <ele>365.6</ele>
        <time>2020-08-16 16:05:38</time>
      </trkpt>
      <trkpt lat="39.92386" lon="-4.89652">
        <ele>365.6</ele>
        <time>2020-08-16 16:05:39</time>
      </trkpt>
      <trkpt lat="39.92384" lon="-4.89657">
        <ele>365.6</ele>
        <time>2020-08-16 16:05:40</time>
      </trkpt>
      <trkpt lat="39.92382" lon="-4.89662">
        <ele>365.6</ele>
        <time>2020-08-16 16:05:41</time>
      </trkpt>
      <trkpt lat="39.9238" lon="-4.89666">
        <ele>365.6</ele>
        <time>2020-08-16 16:05:42</time>
      </trkpt>
      <trkpt lat="39.92378" lon="-4.8967">
        <ele>365.4</ele>
        <time>2020-08-16 16:05:43</time>
      </trkpt>
      <trkpt lat="39.92376" lon="-4.89675">
        <ele>365.4</ele>
        <time>2020-08-16 16:05:44</time>
      </trkpt>
      <trkpt lat="39.92375" lon="-4.89679">
        <ele>365.4</ele>
        <time>2020-08-16 16:05:45</time>
      </trkpt>
      <trkpt lat="39.92373" lon="-4.89684">
        <ele>365.4</ele>
        <time>2020-08-16 16:05:46</time>
      </trkpt>
      <trkpt lat="39.92371" lon="-4.89688">
        <ele>365.4</ele>
        <time>2020-08-16 16:05:47</time>
      </trkpt>
      <trkpt lat="39.92369" lon="-4.89692">
        <ele>365.4</ele>
        <time>2020-08-16 16:05:48</time>
      </trkpt>
      <trkpt lat="39.92368" lon="-4.89696">
        <ele>365.6</ele>
        <time>2020-08-16 16:05:49</time>
      </trkpt>
      <trkpt lat="39.92366" lon="-4.897">
        <ele>365.6</ele>
        <time>2020-08-16 16:05:50</time>
      </trkpt>
      <trkpt lat="39.92364" lon="-4.89705">
        <ele>365.6</ele>
        <time>2020-08-16 16:05:51</time>
      </trkpt>
      <trkpt lat="39.92362" lon="-4.89709">
        <ele>365.6</ele>
        <time>2020-08-16 16:05:52</time>
      </trkpt>
      <trkpt lat="39.9236" lon="-4.89714">
        <ele>365.6</ele>
        <time>2020-08-16 16:05:53</time>
      </trkpt>
      <trkpt lat="39.92343" lon="-4.89754">
        <ele>366</ele>
        <time>2020-08-16 16:06:02</time>
      </trkpt>
      <trkpt lat="39.92337" lon="-4.89767">
        <ele>365.6</ele>
        <time>2020-08-16 16:06:05</time>
      </trkpt>
      <trkpt lat="39.92335" lon="-4.89771">
        <ele>365.6</ele>
        <time>2020-08-16 16:06:06</time>
      </trkpt>
      <trkpt lat="39.92333" lon="-4.89775">
        <ele>365.6</ele>
        <time>2020-08-16 16:06:07</time>
      </trkpt>
      <trkpt lat="39.92331" lon="-4.89779">
        <ele>365.6</ele>
        <time>2020-08-16 16:06:08</time>
      </trkpt>
      <trkpt lat="39.92329" lon="-4.89783">
        <ele>365.6</ele>
        <time>2020-08-16 16:06:09</time>
      </trkpt>
      <trkpt lat="39.92327" lon="-4.89787">
        <ele>365.6</ele>
        <time>2020-08-16 16:06:10</time>
      </trkpt>
      <trkpt lat="39.92325" lon="-4.89791">
        <ele>365.6</ele>
        <time>2020-08-16 16:06:11</time>
      </trkpt>
      <trkpt lat="39.92322" lon="-4.89796">
        <ele>365.6</ele>
        <time>2020-08-16 16:06:12</time>
      </trkpt>
      <trkpt lat="39.9232" lon="-4.898">
        <ele>365.6</ele>
        <time>2020-08-16 16:06:13</time>
      </trkpt>
      <trkpt lat="39.92318" lon="-4.89805">
        <ele>365.6</ele>
        <time>2020-08-16 16:06:14</time>
      </trkpt>
      <trkpt lat="39.92304" lon="-4.89832">
        <ele>366</ele>
        <time>2020-08-16 16:06:20</time>
      </trkpt>
      <trkpt lat="39.92283" lon="-4.89875">
        <ele>365.6</ele>
        <time>2020-08-16 16:06:29</time>
      </trkpt>
      <trkpt lat="39.92276" lon="-4.8989">
        <ele>365.4</ele>
        <time>2020-08-16 16:06:32</time>
      </trkpt>
      <trkpt lat="39.92273" lon="-4.89895">
        <ele>365.6</ele>
        <time>2020-08-16 16:06:33</time>
      </trkpt>
      <trkpt lat="39.92271" lon="-4.899">
        <ele>365.4</ele>
        <time>2020-08-16 16:06:34</time>
      </trkpt>
      <trkpt lat="39.92269" lon="-4.89904">
        <ele>365.6</ele>
        <time>2020-08-16 16:06:35</time>
      </trkpt>
      <trkpt lat="39.92267" lon="-4.89909">
        <ele>365.4</ele>
        <time>2020-08-16 16:06:36</time>
      </trkpt>
      <trkpt lat="39.92264" lon="-4.89914">
        <ele>365.6</ele>
        <time>2020-08-16 16:06:37</time>
      </trkpt>
      <trkpt lat="39.92262" lon="-4.89918">
        <ele>365.6</ele>
        <time>2020-08-16 16:06:38</time>
      </trkpt>
      <trkpt lat="39.92259" lon="-4.89923">
        <ele>365.4</ele>
        <time>2020-08-16 16:06:39</time>
      </trkpt>
      <trkpt lat="39.92257" lon="-4.89928">
        <ele>365.6</ele>
        <time>2020-08-16 16:06:40</time>
      </trkpt>
      <trkpt lat="39.92254" lon="-4.89933">
        <ele>365.6</ele>
        <time>2020-08-16 16:06:41</time>
      </trkpt>
      <trkpt lat="39.92252" lon="-4.89937">
        <ele>365.6</ele>
        <time>2020-08-16 16:06:42</time>
      </trkpt>
      <trkpt lat="39.92229" lon="-4.89985">
        <ele>365.8</ele>
        <time>2020-08-16 16:06:52</time>
      </trkpt>
      <trkpt lat="39.92227" lon="-4.89989">
        <ele>365.8</ele>
        <time>2020-08-16 16:06:53</time>
      </trkpt>
      <trkpt lat="39.92225" lon="-4.89993">
        <ele>365.8</ele>
        <time>2020-08-16 16:06:54</time>
      </trkpt>
      <trkpt lat="39.92223" lon="-4.89998">
        <ele>365.8</ele>
        <time>2020-08-16 16:06:55</time>
      </trkpt>
      <trkpt lat="39.92221" lon="-4.90002">
        <ele>365.8</ele>
        <time>2020-08-16 16:06:56</time>
      </trkpt>
      <trkpt lat="39.92218" lon="-4.90006">
        <ele>365.8</ele>
        <time>2020-08-16 16:06:57</time>
      </trkpt>
      <trkpt lat="39.92216" lon="-4.9001">
        <ele>365.8</ele>
        <time>2020-08-16 16:06:58</time>
      </trkpt>
      <trkpt lat="39.92214" lon="-4.90015">
        <ele>365.8</ele>
        <time>2020-08-16 16:06:59</time>
      </trkpt>
      <trkpt lat="39.92212" lon="-4.90019">
        <ele>365.8</ele>
        <time>2020-08-16 16:07:00</time>
      </trkpt>
      <trkpt lat="39.9221" lon="-4.90024">
        <ele>365.8</ele>
        <time>2020-08-16 16:07:01</time>
      </trkpt>
      <trkpt lat="39.92208" lon="-4.90028">
        <ele>365.8</ele>
        <time>2020-08-16 16:07:02</time>
      </trkpt>
      <trkpt lat="39.92205" lon="-4.90033">
        <ele>366</ele>
        <time>2020-08-16 16:07:03</time>
      </trkpt>
      <trkpt lat="39.92203" lon="-4.90037">
        <ele>366</ele>
        <time>2020-08-16 16:07:04</time>
      </trkpt>
      <trkpt lat="39.92194" lon="-4.90056">
        <ele>366</ele>
        <time>2020-08-16 16:07:08</time>
      </trkpt>
      <trkpt lat="39.92186" lon="-4.90074">
        <ele>366.2</ele>
        <time>2020-08-16 16:07:12</time>
      </trkpt>
      <trkpt lat="39.92182" lon="-4.90084">
        <ele>366.2</ele>
        <time>2020-08-16 16:07:14</time>
      </trkpt>
      <trkpt lat="39.9218" lon="-4.90088">
        <ele>366</ele>
        <time>2020-08-16 16:07:15</time>
      </trkpt>
      <trkpt lat="39.92178" lon="-4.90093">
        <ele>366</ele>
        <time>2020-08-16 16:07:16</time>
      </trkpt>
      <trkpt lat="39.92176" lon="-4.90097">
        <ele>366</ele>
        <time>2020-08-16 16:07:17</time>
      </trkpt>
      <trkpt lat="39.92174" lon="-4.90102">
        <ele>366</ele>
        <time>2020-08-16 16:07:18</time>
      </trkpt>
      <trkpt lat="39.92172" lon="-4.90106">
        <ele>365.8</ele>
        <time>2020-08-16 16:07:19</time>
      </trkpt>
      <trkpt lat="39.9217" lon="-4.90111">
        <ele>365.8</ele>
        <time>2020-08-16 16:07:20</time>
      </trkpt>
      <trkpt lat="39.92168" lon="-4.90115">
        <ele>365.8</ele>
        <time>2020-08-16 16:07:21</time>
      </trkpt>
      <trkpt lat="39.92158" lon="-4.90143">
        <ele>365.8</ele>
        <time>2020-08-16 16:07:27</time>
      </trkpt>
      <trkpt lat="39.92155" lon="-4.90153">
        <ele>365.8</ele>
        <time>2020-08-16 16:07:29</time>
      </trkpt>
      <trkpt lat="39.92154" lon="-4.90157">
        <ele>365.8</ele>
        <time>2020-08-16 16:07:30</time>
      </trkpt>
      <trkpt lat="39.92152" lon="-4.90162">
        <ele>366</ele>
        <time>2020-08-16 16:07:31</time>
      </trkpt>
      <trkpt lat="39.92151" lon="-4.90167">
        <ele>366.2</ele>
        <time>2020-08-16 16:07:32</time>
      </trkpt>
      <trkpt lat="39.92144" lon="-4.90187">
        <ele>366.4</ele>
        <time>2020-08-16 16:07:36</time>
      </trkpt>
      <trkpt lat="39.9214" lon="-4.90197">
        <ele>366.4</ele>
        <time>2020-08-16 16:07:38</time>
      </trkpt>
      <trkpt lat="39.92126" lon="-4.90229">
        <ele>366.4</ele>
        <time>2020-08-16 16:07:45</time>
      </trkpt>
      <trkpt lat="39.92123" lon="-4.90233">
        <ele>366.4</ele>
        <time>2020-08-16 16:07:46</time>
      </trkpt>
      <trkpt lat="39.92121" lon="-4.90238">
        <ele>366.2</ele>
        <time>2020-08-16 16:07:47</time>
      </trkpt>
      <trkpt lat="39.92119" lon="-4.90242">
        <ele>366.2</ele>
        <time>2020-08-16 16:07:48</time>
      </trkpt>
      <trkpt lat="39.92117" lon="-4.90246">
        <ele>366.2</ele>
        <time>2020-08-16 16:07:49</time>
      </trkpt>
      <trkpt lat="39.92115" lon="-4.90251">
        <ele>366.2</ele>
        <time>2020-08-16 16:07:50</time>
      </trkpt>
      <trkpt lat="39.92113" lon="-4.90256">
        <ele>366.2</ele>
        <time>2020-08-16 16:07:51</time>
      </trkpt>
      <trkpt lat="39.92103" lon="-4.90281">
        <ele>366.4</ele>
        <time>2020-08-16 16:07:56</time>
      </trkpt>
      <trkpt lat="39.92085" lon="-4.90333">
        <ele>366.4</ele>
        <time>2020-08-16 16:08:06</time>
      </trkpt>
      <trkpt lat="39.92084" lon="-4.90338">
        <ele>366.4</ele>
        <time>2020-08-16 16:08:07</time>
      </trkpt>
      <trkpt lat="39.92082" lon="-4.90343">
        <ele>366.4</ele>
        <time>2020-08-16 16:08:08</time>
      </trkpt>
      <trkpt lat="39.9208" lon="-4.90348">
        <ele>366.4</ele>
        <time>2020-08-16 16:08:09</time>
      </trkpt>
      <trkpt lat="39.92078" lon="-4.90353">
        <ele>366.4</ele>
        <time>2020-08-16 16:08:10</time>
      </trkpt>
      <trkpt lat="39.92077" lon="-4.90357">
        <ele>366.4</ele>
        <time>2020-08-16 16:08:11</time>
      </trkpt>
      <trkpt lat="39.92075" lon="-4.90362">
        <ele>366.4</ele>
        <time>2020-08-16 16:08:12</time>
      </trkpt>
      <trkpt lat="39.92073" lon="-4.90367">
        <ele>366.4</ele>
        <time>2020-08-16 16:08:13</time>
      </trkpt>
      <trkpt lat="39.92071" lon="-4.90372">
        <ele>366.4</ele>
        <time>2020-08-16 16:08:14</time>
      </trkpt>
      <trkpt lat="39.9207" lon="-4.90377">
        <ele>366.4</ele>
        <time>2020-08-16 16:08:15</time>
      </trkpt>
      <trkpt lat="39.92068" lon="-4.90382">
        <ele>366.4</ele>
        <time>2020-08-16 16:08:16</time>
      </trkpt>
      <trkpt lat="39.92066" lon="-4.90386">
        <ele>366.4</ele>
        <time>2020-08-16 16:08:17</time>
      </trkpt>
      <trkpt lat="39.92064" lon="-4.90391">
        <ele>366.6</ele>
        <time>2020-08-16 16:08:18</time>
      </trkpt>
      <trkpt lat="39.92063" lon="-4.90396">
        <ele>366.6</ele>
        <time>2020-08-16 16:08:19</time>
      </trkpt>
      <trkpt lat="39.92061" lon="-4.90401">
        <ele>366.6</ele>
        <time>2020-08-16 16:08:20</time>
      </trkpt>
      <trkpt lat="39.92059" lon="-4.90406">
        <ele>366.6</ele>
        <time>2020-08-16 16:08:21</time>
      </trkpt>
      <trkpt lat="39.92058" lon="-4.9041">
        <ele>366.8</ele>
        <time>2020-08-16 16:08:22</time>
      </trkpt>
      <trkpt lat="39.92056" lon="-4.90415">
        <ele>366.6</ele>
        <time>2020-08-16 16:08:23</time>
      </trkpt>
      <trkpt lat="39.92055" lon="-4.90419">
        <ele>366.8</ele>
        <time>2020-08-16 16:08:24</time>
      </trkpt>
      <trkpt lat="39.92053" lon="-4.90424">
        <ele>366.8</ele>
        <time>2020-08-16 16:08:25</time>
      </trkpt>
      <trkpt lat="39.92052" lon="-4.90428">
        <ele>366.6</ele>
        <time>2020-08-16 16:08:26</time>
      </trkpt>
      <trkpt lat="39.9205" lon="-4.90433">
        <ele>366.6</ele>
        <time>2020-08-16 16:08:27</time>
      </trkpt>
      <trkpt lat="39.92049" lon="-4.90437">
        <ele>366.6</ele>
        <time>2020-08-16 16:08:28</time>
      </trkpt>
      <trkpt lat="39.92048" lon="-4.90442">
        <ele>366.6</ele>
        <time>2020-08-16 16:08:29</time>
      </trkpt>
      <trkpt lat="39.92046" lon="-4.90447">
        <ele>366.4</ele>
        <time>2020-08-16 16:08:30</time>
      </trkpt>
      <trkpt lat="39.92045" lon="-4.90451">
        <ele>366.4</ele>
        <time>2020-08-16 16:08:31</time>
      </trkpt>
      <trkpt lat="39.92044" lon="-4.90455">
        <ele>366.4</ele>
        <time>2020-08-16 16:08:32</time>
      </trkpt>
      <trkpt lat="39.92042" lon="-4.9046">
        <ele>366.4</ele>
        <time>2020-08-16 16:08:33</time>
      </trkpt>
      <trkpt lat="39.9204" lon="-4.90465">
        <ele>366.4</ele>
        <time>2020-08-16 16:08:34</time>
      </trkpt>
      <trkpt lat="39.92038" lon="-4.90469">
        <ele>366.4</ele>
        <time>2020-08-16 16:08:35</time>
      </trkpt>
      <trkpt lat="39.92037" lon="-4.90474">
        <ele>366.4</ele>
        <time>2020-08-16 16:08:36</time>
      </trkpt>
      <trkpt lat="39.92036" lon="-4.90478">
        <ele>366.2</ele>
        <time>2020-08-16 16:08:37</time>
      </trkpt>
      <trkpt lat="39.92034" lon="-4.90482">
        <ele>366.2</ele>
        <time>2020-08-16 16:08:38</time>
      </trkpt>
      <trkpt lat="39.92033" lon="-4.90487">
        <ele>366.2</ele>
        <time>2020-08-16 16:08:39</time>
      </trkpt>
      <trkpt lat="39.92031" lon="-4.90491">
        <ele>366.2</ele>
        <time>2020-08-16 16:08:40</time>
      </trkpt>
      <trkpt lat="39.92012" lon="-4.90548">
        <ele>366.4</ele>
        <time>2020-08-16 16:08:52</time>
      </trkpt>
      <trkpt lat="39.91996" lon="-4.90593">
        <ele>366.4</ele>
        <time>2020-08-16 16:09:01</time>
      </trkpt>
      <trkpt lat="39.91995" lon="-4.90598">
        <ele>366.4</ele>
        <time>2020-08-16 16:09:02</time>
      </trkpt>
      <trkpt lat="39.91993" lon="-4.90602">
        <ele>366.4</ele>
        <time>2020-08-16 16:09:03</time>
      </trkpt>
      <trkpt lat="39.91991" lon="-4.90606">
        <ele>366.4</ele>
        <time>2020-08-16 16:09:04</time>
      </trkpt>
      <trkpt lat="39.91989" lon="-4.90611">
        <ele>366.4</ele>
        <time>2020-08-16 16:09:05</time>
      </trkpt>
      <trkpt lat="39.91987" lon="-4.90616">
        <ele>366.4</ele>
        <time>2020-08-16 16:09:06</time>
      </trkpt>
      <trkpt lat="39.91986" lon="-4.90621">
        <ele>366.4</ele>
        <time>2020-08-16 16:09:07</time>
      </trkpt>
      <trkpt lat="39.91984" lon="-4.90626">
        <ele>366.4</ele>
        <time>2020-08-16 16:09:08</time>
      </trkpt>
      <trkpt lat="39.91982" lon="-4.90631">
        <ele>366.4</ele>
        <time>2020-08-16 16:09:09</time>
      </trkpt>
      <trkpt lat="39.91981" lon="-4.90636">
        <ele>366.4</ele>
        <time>2020-08-16 16:09:10</time>
      </trkpt>
      <trkpt lat="39.91979" lon="-4.9064">
        <ele>366.4</ele>
        <time>2020-08-16 16:09:11</time>
      </trkpt>
      <trkpt lat="39.91978" lon="-4.90645">
        <ele>366.4</ele>
        <time>2020-08-16 16:09:12</time>
      </trkpt>
      <trkpt lat="39.91977" lon="-4.90649">
        <ele>366.4</ele>
        <time>2020-08-16 16:09:13</time>
      </trkpt>
      <trkpt lat="39.91972" lon="-4.90669">
        <ele>366.4</ele>
        <time>2020-08-16 16:09:17</time>
      </trkpt>
      <trkpt lat="39.91971" lon="-4.90674">
        <ele>366.4</ele>
        <time>2020-08-16 16:09:18</time>
      </trkpt>
      <trkpt lat="39.9197" lon="-4.90679">
        <ele>366.2</ele>
        <time>2020-08-16 16:09:19</time>
      </trkpt>
      <trkpt lat="39.91968" lon="-4.90684">
        <ele>366.2</ele>
        <time>2020-08-16 16:09:20</time>
      </trkpt>
      <trkpt lat="39.91963" lon="-4.90702">
        <ele>366.2</ele>
        <time>2020-08-16 16:09:24</time>
      </trkpt>
      <trkpt lat="39.9196" lon="-4.90712">
        <ele>366</ele>
        <time>2020-08-16 16:09:26</time>
      </trkpt>
      <trkpt lat="39.91958" lon="-4.90717">
        <ele>366</ele>
        <time>2020-08-16 16:09:27</time>
      </trkpt>
      <trkpt lat="39.91938" lon="-4.90781">
        <ele>366.6</ele>
        <time>2020-08-16 16:09:40</time>
      </trkpt>
      <trkpt lat="39.91933" lon="-4.90796">
        <ele>366.6</ele>
        <time>2020-08-16 16:09:43</time>
      </trkpt>
      <trkpt lat="39.91923" lon="-4.90825">
        <ele>366.6</ele>
        <time>2020-08-16 16:09:49</time>
      </trkpt>
      <trkpt lat="39.91922" lon="-4.90829">
        <ele>366.6</ele>
        <time>2020-08-16 16:09:50</time>
      </trkpt>
      <trkpt lat="39.9192" lon="-4.90834">
        <ele>366.8</ele>
        <time>2020-08-16 16:09:51</time>
      </trkpt>
      <trkpt lat="39.91918" lon="-4.90838">
        <ele>366.8</ele>
        <time>2020-08-16 16:09:52</time>
      </trkpt>
      <trkpt lat="39.91916" lon="-4.90843">
        <ele>366.8</ele>
        <time>2020-08-16 16:09:53</time>
      </trkpt>
      <trkpt lat="39.91914" lon="-4.90847">
        <ele>366.8</ele>
        <time>2020-08-16 16:09:54</time>
      </trkpt>
      <trkpt lat="39.91912" lon="-4.90852">
        <ele>366.8</ele>
        <time>2020-08-16 16:09:55</time>
      </trkpt>
      <trkpt lat="39.9191" lon="-4.90857">
        <ele>366.8</ele>
        <time>2020-08-16 16:09:56</time>
      </trkpt>
      <trkpt lat="39.91909" lon="-4.90861">
        <ele>366.8</ele>
        <time>2020-08-16 16:09:57</time>
      </trkpt>
      <trkpt lat="39.91907" lon="-4.90866">
        <ele>367</ele>
        <time>2020-08-16 16:09:58</time>
      </trkpt>
      <trkpt lat="39.91905" lon="-4.90871">
        <ele>367</ele>
        <time>2020-08-16 16:09:59</time>
      </trkpt>
      <trkpt lat="39.91903" lon="-4.90875">
        <ele>367</ele>
        <time>2020-08-16 16:10:00</time>
      </trkpt>
      <trkpt lat="39.91893" lon="-4.90899">
        <ele>367.2</ele>
        <time>2020-08-16 16:10:05</time>
      </trkpt>
      <trkpt lat="39.91883" lon="-4.90923">
        <ele>367.4</ele>
        <time>2020-08-16 16:10:10</time>
      </trkpt>
      <trkpt lat="39.91869" lon="-4.90959">
        <ele>367.6</ele>
        <time>2020-08-16 16:10:17</time>
      </trkpt>
      <trkpt lat="39.91856" lon="-4.90998">
        <ele>367.6</ele>
        <time>2020-08-16 16:10:24</time>
      </trkpt>
      <trkpt lat="39.91853" lon="-4.91003">
        <ele>367.6</ele>
        <time>2020-08-16 16:10:25</time>
      </trkpt>
      <trkpt lat="39.91851" lon="-4.91007">
        <ele>367.6</ele>
        <time>2020-08-16 16:10:26</time>
      </trkpt>
      <trkpt lat="39.91849" lon="-4.91013">
        <ele>367.4</ele>
        <time>2020-08-16 16:10:27</time>
      </trkpt>
      <trkpt lat="39.91847" lon="-4.91018">
        <ele>367.4</ele>
        <time>2020-08-16 16:10:28</time>
      </trkpt>
      <trkpt lat="39.91845" lon="-4.91023">
        <ele>367.4</ele>
        <time>2020-08-16 16:10:29</time>
      </trkpt>
      <trkpt lat="39.91843" lon="-4.91029">
        <ele>367.2</ele>
        <time>2020-08-16 16:10:30</time>
      </trkpt>
      <trkpt lat="39.91841" lon="-4.91034">
        <ele>367.2</ele>
        <time>2020-08-16 16:10:31</time>
      </trkpt>
      <trkpt lat="39.91839" lon="-4.9104">
        <ele>367.2</ele>
        <time>2020-08-16 16:10:32</time>
      </trkpt>
      <trkpt lat="39.91826" lon="-4.9108">
        <ele>367</ele>
        <time>2020-08-16 16:10:39</time>
      </trkpt>
      <trkpt lat="39.91817" lon="-4.91103">
        <ele>367</ele>
        <time>2020-08-16 16:10:43</time>
      </trkpt>
      <trkpt lat="39.91815" lon="-4.91108">
        <ele>367</ele>
        <time>2020-08-16 16:10:44</time>
      </trkpt>
      <trkpt lat="39.91812" lon="-4.91113">
        <ele>367</ele>
        <time>2020-08-16 16:10:45</time>
      </trkpt>
      <trkpt lat="39.9181" lon="-4.91118">
        <ele>367</ele>
        <time>2020-08-16 16:10:46</time>
      </trkpt>
      <trkpt lat="39.91808" lon="-4.91123">
        <ele>367</ele>
        <time>2020-08-16 16:10:47</time>
      </trkpt>
      <trkpt lat="39.91803" lon="-4.91133">
        <ele>367</ele>
        <time>2020-08-16 16:10:49</time>
      </trkpt>
      <trkpt lat="39.918" lon="-4.91138">
        <ele>366.8</ele>
        <time>2020-08-16 16:10:50</time>
      </trkpt>
      <trkpt lat="39.91797" lon="-4.91143">
        <ele>366.6</ele>
        <time>2020-08-16 16:10:51</time>
      </trkpt>
      <trkpt lat="39.91795" lon="-4.91148">
        <ele>366.6</ele>
        <time>2020-08-16 16:10:52</time>
      </trkpt>
      <trkpt lat="39.91792" lon="-4.91154">
        <ele>366.6</ele>
        <time>2020-08-16 16:10:53</time>
      </trkpt>
      <trkpt lat="39.91787" lon="-4.91165">
        <ele>366.2</ele>
        <time>2020-08-16 16:10:55</time>
      </trkpt>
      <trkpt lat="39.91776" lon="-4.91185">
        <ele>366</ele>
        <time>2020-08-16 16:10:59</time>
      </trkpt>
      <trkpt lat="39.91774" lon="-4.91189">
        <ele>365.8</ele>
        <time>2020-08-16 16:11:00</time>
      </trkpt>
      <trkpt lat="39.91771" lon="-4.91194">
        <ele>365.8</ele>
        <time>2020-08-16 16:11:01</time>
      </trkpt>
      <trkpt lat="39.91769" lon="-4.91198">
        <ele>365.6</ele>
        <time>2020-08-16 16:11:02</time>
      </trkpt>
      <trkpt lat="39.91767" lon="-4.91202">
        <ele>365.6</ele>
        <time>2020-08-16 16:11:03</time>
      </trkpt>
      <trkpt lat="39.91765" lon="-4.91206">
        <ele>365.6</ele>
        <time>2020-08-16 16:11:04</time>
      </trkpt>
      <trkpt lat="39.91763" lon="-4.9121">
        <ele>365.6</ele>
        <time>2020-08-16 16:11:05</time>
      </trkpt>
      <trkpt lat="39.91749" lon="-4.91231">
        <ele>365.8</ele>
        <time>2020-08-16 16:11:10</time>
      </trkpt>
      <trkpt lat="39.91747" lon="-4.91236">
        <ele>365.8</ele>
        <time>2020-08-16 16:11:11</time>
      </trkpt>
      <trkpt lat="39.91739" lon="-4.9125">
        <ele>366</ele>
        <time>2020-08-16 16:11:14</time>
      </trkpt>
      <trkpt lat="39.91733" lon="-4.91259">
        <ele>366</ele>
        <time>2020-08-16 16:11:16</time>
      </trkpt>
      <trkpt lat="39.91713" lon="-4.91293">
        <ele>366</ele>
        <time>2020-08-16 16:11:23</time>
      </trkpt>
      <trkpt lat="39.9171" lon="-4.91297">
        <ele>366</ele>
        <time>2020-08-16 16:11:24</time>
      </trkpt>
      <trkpt lat="39.91704" lon="-4.91306">
        <ele>366</ele>
        <time>2020-08-16 16:11:26</time>
      </trkpt>
      <trkpt lat="39.917" lon="-4.91309">
        <ele>366</ele>
        <time>2020-08-16 16:11:27</time>
      </trkpt>
      <trkpt lat="39.91697" lon="-4.91313">
        <ele>365.8</ele>
        <time>2020-08-16 16:11:28</time>
      </trkpt>
      <trkpt lat="39.91693" lon="-4.91317">
        <ele>365.8</ele>
        <time>2020-08-16 16:11:29</time>
      </trkpt>
      <trkpt lat="39.91685" lon="-4.91324">
        <ele>365.8</ele>
        <time>2020-08-16 16:11:31</time>
      </trkpt>
      <trkpt lat="39.91651" lon="-4.91353">
        <ele>365.6</ele>
        <time>2020-08-16 16:11:39</time>
      </trkpt>
      <trkpt lat="39.91639" lon="-4.91362">
        <ele>365.6</ele>
        <time>2020-08-16 16:11:42</time>
      </trkpt>
      <trkpt lat="39.91635" lon="-4.91365">
        <ele>365.6</ele>
        <time>2020-08-16 16:11:43</time>
      </trkpt>
      <trkpt lat="39.91631" lon="-4.91368">
        <ele>365.6</ele>
        <time>2020-08-16 16:11:44</time>
      </trkpt>
      <trkpt lat="39.91627" lon="-4.91371">
        <ele>365.4</ele>
        <time>2020-08-16 16:11:45</time>
      </trkpt>
      <trkpt lat="39.91623" lon="-4.91374">
        <ele>365.4</ele>
        <time>2020-08-16 16:11:46</time>
      </trkpt>
      <trkpt lat="39.91619" lon="-4.91377">
        <ele>365.4</ele>
        <time>2020-08-16 16:11:47</time>
      </trkpt>
      <trkpt lat="39.91615" lon="-4.91379">
        <ele>365.2</ele>
        <time>2020-08-16 16:11:48</time>
      </trkpt>
      <trkpt lat="39.91611" lon="-4.91382">
        <ele>365.2</ele>
        <time>2020-08-16 16:11:49</time>
      </trkpt>
      <trkpt lat="39.91607" lon="-4.91385">
        <ele>365.2</ele>
        <time>2020-08-16 16:11:50</time>
      </trkpt>
      <trkpt lat="39.91603" lon="-4.91387">
        <ele>365.4</ele>
        <time>2020-08-16 16:11:51</time>
      </trkpt>
      <trkpt lat="39.91599" lon="-4.91389">
        <ele>365.4</ele>
        <time>2020-08-16 16:11:52</time>
      </trkpt>
      <trkpt lat="39.91595" lon="-4.91392">
        <ele>365.4</ele>
        <time>2020-08-16 16:11:53</time>
      </trkpt>
      <trkpt lat="39.91592" lon="-4.91395">
        <ele>365.4</ele>
        <time>2020-08-16 16:11:54</time>
      </trkpt>
      <trkpt lat="39.9159" lon="-4.91399">
        <ele>365.6</ele>
        <time>2020-08-16 16:11:55</time>
      </trkpt>
      <trkpt lat="39.9159" lon="-4.91404">
        <ele>365.6</ele>
        <time>2020-08-16 16:11:56</time>
      </trkpt>
      <trkpt lat="39.9159" lon="-4.91408">
        <ele>365.8</ele>
        <time>2020-08-16 16:11:57</time>
      </trkpt>
      <trkpt lat="39.9159" lon="-4.91413">
        <ele>366</ele>
        <time>2020-08-16 16:11:58</time>
      </trkpt>
      <trkpt lat="39.9159" lon="-4.91418">
        <ele>366</ele>
        <time>2020-08-16 16:11:59</time>
      </trkpt>
      <trkpt lat="39.9159" lon="-4.91424">
        <ele>366</ele>
        <time>2020-08-16 16:12:00</time>
      </trkpt>
      <trkpt lat="39.91589" lon="-4.9143">
        <ele>366.2</ele>
        <time>2020-08-16 16:12:01</time>
      </trkpt>
      <trkpt lat="39.91587" lon="-4.91435">
        <ele>366.4</ele>
        <time>2020-08-16 16:12:02</time>
      </trkpt>
      <trkpt lat="39.91586" lon="-4.91441">
        <ele>366.4</ele>
        <time>2020-08-16 16:12:03</time>
      </trkpt>
      <trkpt lat="39.91583" lon="-4.91445">
        <ele>366.4</ele>
        <time>2020-08-16 16:12:04</time>
      </trkpt>
      <trkpt lat="39.9158" lon="-4.91449">
        <ele>366.4</ele>
        <time>2020-08-16 16:12:05</time>
      </trkpt>
      <trkpt lat="39.91577" lon="-4.91452">
        <ele>366.4</ele>
        <time>2020-08-16 16:12:06</time>
      </trkpt>
      <trkpt lat="39.91551" lon="-4.9148">
        <ele>366</ele>
        <time>2020-08-16 16:12:13</time>
      </trkpt>
      <trkpt lat="39.91527" lon="-4.91509">
        <ele>365.6</ele>
        <time>2020-08-16 16:12:20</time>
      </trkpt>
      <trkpt lat="39.91523" lon="-4.91513">
        <ele>365.6</ele>
        <time>2020-08-16 16:12:21</time>
      </trkpt>
      <trkpt lat="39.9152" lon="-4.91517">
        <ele>365.4</ele>
        <time>2020-08-16 16:12:22</time>
      </trkpt>
      <trkpt lat="39.91517" lon="-4.91521">
        <ele>365.6</ele>
        <time>2020-08-16 16:12:23</time>
      </trkpt>
      <trkpt lat="39.91514" lon="-4.91525">
        <ele>365.4</ele>
        <time>2020-08-16 16:12:24</time>
      </trkpt>
      <trkpt lat="39.91511" lon="-4.91529">
        <ele>365.4</ele>
        <time>2020-08-16 16:12:25</time>
      </trkpt>
      <trkpt lat="39.91508" lon="-4.91532">
        <ele>365.2</ele>
        <time>2020-08-16 16:12:26</time>
      </trkpt>
      <trkpt lat="39.91505" lon="-4.91536">
        <ele>365.2</ele>
        <time>2020-08-16 16:12:27</time>
      </trkpt>
      <trkpt lat="39.91502" lon="-4.9154">
        <ele>365.2</ele>
        <time>2020-08-16 16:12:28</time>
      </trkpt>
      <trkpt lat="39.91499" lon="-4.91544">
        <ele>365.2</ele>
        <time>2020-08-16 16:12:29</time>
      </trkpt>
      <trkpt lat="39.91496" lon="-4.91548">
        <ele>365.2</ele>
        <time>2020-08-16 16:12:30</time>
      </trkpt>
      <trkpt lat="39.91493" lon="-4.91552">
        <ele>365.2</ele>
        <time>2020-08-16 16:12:31</time>
      </trkpt>
      <trkpt lat="39.91491" lon="-4.91555">
        <ele>365.2</ele>
        <time>2020-08-16 16:12:32</time>
      </trkpt>
      <trkpt lat="39.91488" lon="-4.91559">
        <ele>365.6</ele>
        <time>2020-08-16 16:12:33</time>
      </trkpt>
      <trkpt lat="39.91485" lon="-4.91563">
        <ele>365.8</ele>
        <time>2020-08-16 16:12:34</time>
      </trkpt>
      <trkpt lat="39.91482" lon="-4.91567">
        <ele>365.8</ele>
        <time>2020-08-16 16:12:35</time>
      </trkpt>
      <trkpt lat="39.9148" lon="-4.91571">
        <ele>365.8</ele>
        <time>2020-08-16 16:12:36</time>
      </trkpt>
      <trkpt lat="39.91477" lon="-4.91574">
        <ele>366</ele>
        <time>2020-08-16 16:12:37</time>
      </trkpt>
      <trkpt lat="39.91475" lon="-4.91578">
        <ele>366</ele>
        <time>2020-08-16 16:12:38</time>
      </trkpt>
      <trkpt lat="39.91472" lon="-4.91582">
        <ele>366</ele>
        <time>2020-08-16 16:12:39</time>
      </trkpt>
      <trkpt lat="39.9147" lon="-4.91586">
        <ele>366</ele>
        <time>2020-08-16 16:12:40</time>
      </trkpt>
      <trkpt lat="39.91467" lon="-4.91589">
        <ele>366</ele>
        <time>2020-08-16 16:12:41</time>
      </trkpt>
      <trkpt lat="39.91465" lon="-4.91592">
        <ele>366.2</ele>
        <time>2020-08-16 16:12:42</time>
      </trkpt>
      <trkpt lat="39.91462" lon="-4.91595">
        <ele>366.2</ele>
        <time>2020-08-16 16:12:43</time>
      </trkpt>
      <trkpt lat="39.9146" lon="-4.91598">
        <ele>366.2</ele>
        <time>2020-08-16 16:12:44</time>
      </trkpt>
      <trkpt lat="39.91458" lon="-4.91601">
        <ele>366.2</ele>
        <time>2020-08-16 16:12:45</time>
      </trkpt>
      <trkpt lat="39.91455" lon="-4.91604">
        <ele>366.2</ele>
        <time>2020-08-16 16:12:46</time>
      </trkpt>
      <trkpt lat="39.91453" lon="-4.91606">
        <ele>366.2</ele>
        <time>2020-08-16 16:12:47</time>
      </trkpt>
      <trkpt lat="39.91451" lon="-4.91609">
        <ele>366.2</ele>
        <time>2020-08-16 16:12:48</time>
      </trkpt>
      <trkpt lat="39.91449" lon="-4.91611">
        <ele>366.2</ele>
        <time>2020-08-16 16:12:49</time>
      </trkpt>
      <trkpt lat="39.91447" lon="-4.91614">
        <ele>366.2</ele>
        <time>2020-08-16 16:12:50</time>
      </trkpt>
      <trkpt lat="39.91446" lon="-4.91617">
        <ele>366.2</ele>
        <time>2020-08-16 16:12:51</time>
      </trkpt>
      <trkpt lat="39.91444" lon="-4.91619">
        <ele>366</ele>
        <time>2020-08-16 16:12:52</time>
      </trkpt>
      <trkpt lat="39.91443" lon="-4.91621">
        <ele>366</ele>
        <time>2020-08-16 16:12:53</time>
      </trkpt>
      <trkpt lat="39.91441" lon="-4.91624">
        <ele>365.8</ele>
        <time>2020-08-16 16:12:54</time>
      </trkpt>
      <trkpt lat="39.91439" lon="-4.91627">
        <ele>365.6</ele>
        <time>2020-08-16 16:12:55</time>
      </trkpt>
      <trkpt lat="39.91436" lon="-4.9163">
        <ele>365.8</ele>
        <time>2020-08-16 16:12:56</time>
      </trkpt>
      <trkpt lat="39.91434" lon="-4.91633">
        <ele>365.8</ele>
        <time>2020-08-16 16:12:57</time>
      </trkpt>
      <trkpt lat="39.91423" lon="-4.91648">
        <ele>365.6</ele>
        <time>2020-08-16 16:13:01</time>
      </trkpt>
      <trkpt lat="39.91417" lon="-4.91656">
        <ele>365.6</ele>
        <time>2020-08-16 16:13:03</time>
      </trkpt>
      <trkpt lat="39.91407" lon="-4.91672">
        <ele>366</ele>
        <time>2020-08-16 16:13:07</time>
      </trkpt>
      <trkpt lat="39.91401" lon="-4.9168">
        <ele>366</ele>
        <time>2020-08-16 16:13:09</time>
      </trkpt>
      <trkpt lat="39.91395" lon="-4.91688">
        <ele>366</ele>
        <time>2020-08-16 16:13:11</time>
      </trkpt>
      <trkpt lat="39.91389" lon="-4.91694">
        <ele>365.8</ele>
        <time>2020-08-16 16:13:13</time>
      </trkpt>
      <trkpt lat="39.91387" lon="-4.91698">
        <ele>365.8</ele>
        <time>2020-08-16 16:13:14</time>
      </trkpt>
      <trkpt lat="39.91385" lon="-4.91701">
        <ele>366</ele>
        <time>2020-08-16 16:13:15</time>
      </trkpt>
      <trkpt lat="39.91383" lon="-4.91704">
        <ele>366</ele>
        <time>2020-08-16 16:13:16</time>
      </trkpt>
      <trkpt lat="39.91365" lon="-4.91729">
        <ele>366.2</ele>
        <time>2020-08-16 16:13:23</time>
      </trkpt>
      <trkpt lat="39.91348" lon="-4.91752">
        <ele>366.2</ele>
        <time>2020-08-16 16:13:29</time>
      </trkpt>
      <trkpt lat="39.91346" lon="-4.91755">
        <ele>366</ele>
        <time>2020-08-16 16:13:30</time>
      </trkpt>
      <trkpt lat="39.9134" lon="-4.91763">
        <ele>366</ele>
        <time>2020-08-16 16:13:32</time>
      </trkpt>
      <trkpt lat="39.91338" lon="-4.91766">
        <ele>366</ele>
        <time>2020-08-16 16:13:33</time>
      </trkpt>
      <trkpt lat="39.91335" lon="-4.91769">
        <ele>366</ele>
        <time>2020-08-16 16:13:34</time>
      </trkpt>
      <trkpt lat="39.91333" lon="-4.91773">
        <ele>366</ele>
        <time>2020-08-16 16:13:35</time>
      </trkpt>
      <trkpt lat="39.9133" lon="-4.91776">
        <ele>366.2</ele>
        <time>2020-08-16 16:13:36</time>
      </trkpt>
      <trkpt lat="39.91328" lon="-4.91779">
        <ele>366.2</ele>
        <time>2020-08-16 16:13:37</time>
      </trkpt>
      <trkpt lat="39.91325" lon="-4.91783">
        <ele>366</ele>
        <time>2020-08-16 16:13:38</time>
      </trkpt>
      <trkpt lat="39.91323" lon="-4.91787">
        <ele>366.2</ele>
        <time>2020-08-16 16:13:39</time>
      </trkpt>
      <trkpt lat="39.91309" lon="-4.91805">
        <ele>366.4</ele>
        <time>2020-08-16 16:13:44</time>
      </trkpt>
      <trkpt lat="39.91301" lon="-4.91816">
        <ele>366.4</ele>
        <time>2020-08-16 16:13:47</time>
      </trkpt>
      <trkpt lat="39.91298" lon="-4.9182">
        <ele>366.4</ele>
        <time>2020-08-16 16:13:48</time>
      </trkpt>
      <trkpt lat="39.91282" lon="-4.9185">
        <ele>366.4</ele>
        <time>2020-08-16 16:13:54</time>
      </trkpt>
      <trkpt lat="39.91271" lon="-4.9187">
        <ele>366</ele>
        <time>2020-08-16 16:13:58</time>
      </trkpt>
      <trkpt lat="39.91262" lon="-4.91883">
        <ele>365.8</ele>
        <time>2020-08-16 16:14:01</time>
      </trkpt>
      <trkpt lat="39.9126" lon="-4.91887">
        <ele>366</ele>
        <time>2020-08-16 16:14:02</time>
      </trkpt>
      <trkpt lat="39.91257" lon="-4.91891">
        <ele>366</ele>
        <time>2020-08-16 16:14:03</time>
      </trkpt>
      <trkpt lat="39.91254" lon="-4.91896">
        <ele>366</ele>
        <time>2020-08-16 16:14:04</time>
      </trkpt>
      <trkpt lat="39.91252" lon="-4.919">
        <ele>366</ele>
        <time>2020-08-16 16:14:05</time>
      </trkpt>
      <trkpt lat="39.91249" lon="-4.91905">
        <ele>366</ele>
        <time>2020-08-16 16:14:06</time>
      </trkpt>
      <trkpt lat="39.91247" lon="-4.91909">
        <ele>366</ele>
        <time>2020-08-16 16:14:07</time>
      </trkpt>
      <trkpt lat="39.91245" lon="-4.91913">
        <ele>366</ele>
        <time>2020-08-16 16:14:08</time>
      </trkpt>
      <trkpt lat="39.91242" lon="-4.91917">
        <ele>366</ele>
        <time>2020-08-16 16:14:09</time>
      </trkpt>
      <trkpt lat="39.9124" lon="-4.91921">
        <ele>366</ele>
        <time>2020-08-16 16:14:10</time>
      </trkpt>
      <trkpt lat="39.91238" lon="-4.91925">
        <ele>366</ele>
        <time>2020-08-16 16:14:11</time>
      </trkpt>
      <trkpt lat="39.91236" lon="-4.91929">
        <ele>366</ele>
        <time>2020-08-16 16:14:12</time>
      </trkpt>
      <trkpt lat="39.91233" lon="-4.91932">
        <ele>365.8</ele>
        <time>2020-08-16 16:14:13</time>
      </trkpt>
      <trkpt lat="39.91231" lon="-4.91937">
        <ele>365.8</ele>
        <time>2020-08-16 16:14:14</time>
      </trkpt>
      <trkpt lat="39.91228" lon="-4.91941">
        <ele>365.8</ele>
        <time>2020-08-16 16:14:15</time>
      </trkpt>
      <trkpt lat="39.91225" lon="-4.91945">
        <ele>365.8</ele>
        <time>2020-08-16 16:14:16</time>
      </trkpt>
      <trkpt lat="39.91222" lon="-4.9195">
        <ele>365.8</ele>
        <time>2020-08-16 16:14:17</time>
      </trkpt>
      <trkpt lat="39.91212" lon="-4.91967">
        <ele>365.8</ele>
        <time>2020-08-16 16:14:21</time>
      </trkpt>
      <trkpt lat="39.9121" lon="-4.91972">
        <ele>365.8</ele>
        <time>2020-08-16 16:14:22</time>
      </trkpt>
      <trkpt lat="39.91192" lon="-4.92003">
        <ele>365.6</ele>
        <time>2020-08-16 16:14:29</time>
      </trkpt>
      <trkpt lat="39.91178" lon="-4.92026">
        <ele>365.4</ele>
        <time>2020-08-16 16:14:34</time>
      </trkpt>
      <trkpt lat="39.91175" lon="-4.92031">
        <ele>365.4</ele>
        <time>2020-08-16 16:14:35</time>
      </trkpt>
      <trkpt lat="39.91173" lon="-4.92036">
        <ele>365.4</ele>
        <time>2020-08-16 16:14:36</time>
      </trkpt>
      <trkpt lat="39.91167" lon="-4.92045">
        <ele>365.6</ele>
        <time>2020-08-16 16:14:38</time>
      </trkpt>
      <trkpt lat="39.91162" lon="-4.92054">
        <ele>365.8</ele>
        <time>2020-08-16 16:14:40</time>
      </trkpt>
      <trkpt lat="39.9116" lon="-4.92057">
        <ele>365.8</ele>
        <time>2020-08-16 16:14:41</time>
      </trkpt>
      <trkpt lat="39.91159" lon="-4.92059">
        <ele>365.8</ele>
        <time>2020-08-16 16:14:42</time>
      </trkpt>
      <trkpt lat="39.91159" lon="-4.92061">
        <ele>365.8</ele>
        <time>2020-08-16 16:14:43</time>
      </trkpt>
      <trkpt lat="39.9116" lon="-4.92062">
        <ele>366</ele>
        <time>2020-08-16 16:14:44</time>
      </trkpt>
      <trkpt lat="39.91161" lon="-4.92062">
        <ele>366.2</ele>
        <time>2020-08-16 16:14:45</time>
      </trkpt>
      <trkpt lat="39.91163" lon="-4.92062">
        <ele>366.2</ele>
        <time>2020-08-16 16:14:46</time>
      </trkpt>
      <trkpt lat="39.91165" lon="-4.9206">
        <ele>366.2</ele>
        <time>2020-08-16 16:14:47</time>
      </trkpt>
      <trkpt lat="39.91169" lon="-4.92059">
        <ele>366.2</ele>
        <time>2020-08-16 16:14:49</time>
      </trkpt>
      <trkpt lat="39.91171" lon="-4.92059">
        <ele>366.2</ele>
        <time>2020-08-16 16:14:50</time>
      </trkpt>
      <trkpt lat="39.91172" lon="-4.9206">
        <ele>366</ele>
        <time>2020-08-16 16:14:51</time>
      </trkpt>
      <trkpt lat="39.91173" lon="-4.9206">
        <ele>365.8</ele>
        <time>2020-08-16 16:14:52</time>
      </trkpt>
      <trkpt lat="39.91174" lon="-4.92061">
        <ele>365.6</ele>
        <time>2020-08-16 16:14:53</time>
      </trkpt>
      <trkpt lat="39.91179" lon="-4.92063">
        <ele>365.4</ele>
        <time>2020-08-16 16:14:55</time>
      </trkpt>
      <trkpt lat="39.91183" lon="-4.92067">
        <ele>365.2</ele>
        <time>2020-08-16 16:14:57</time>
      </trkpt>
      <trkpt lat="39.91185" lon="-4.92069">
        <ele>365.2</ele>
        <time>2020-08-16 16:14:58</time>
      </trkpt>
      <trkpt lat="39.91186" lon="-4.92073">
        <ele>365</ele>
        <time>2020-08-16 16:14:59</time>
      </trkpt>
      <trkpt lat="39.91187" lon="-4.92076">
        <ele>365</ele>
        <time>2020-08-16 16:15:00</time>
      </trkpt>
      <trkpt lat="39.91187" lon="-4.9208">
        <ele>365.2</ele>
        <time>2020-08-16 16:15:01</time>
      </trkpt>
      <trkpt lat="39.91186" lon="-4.92084">
        <ele>365.2</ele>
        <time>2020-08-16 16:15:02</time>
      </trkpt>
      <trkpt lat="39.91184" lon="-4.92088">
        <ele>365.2</ele>
        <time>2020-08-16 16:15:03</time>
      </trkpt>
      <trkpt lat="39.91183" lon="-4.92092">
        <ele>365.2</ele>
        <time>2020-08-16 16:15:04</time>
      </trkpt>
      <trkpt lat="39.91182" lon="-4.92095">
        <ele>365.2</ele>
        <time>2020-08-16 16:15:05</time>
      </trkpt>
      <trkpt lat="39.91182" lon="-4.92099">
        <ele>365.2</ele>
        <time>2020-08-16 16:15:06</time>
      </trkpt>
      <trkpt lat="39.91183" lon="-4.92101">
        <ele>365.2</ele>
        <time>2020-08-16 16:15:07</time>
      </trkpt>
      <trkpt lat="39.91184" lon="-4.92104">
        <ele>365.4</ele>
        <time>2020-08-16 16:15:08</time>
      </trkpt>
      <trkpt lat="39.91184" lon="-4.92105">
        <ele>365.4</ele>
        <time>2020-08-16 16:15:09</time>
      </trkpt>
      <trkpt lat="39.91184" lon="-4.92106">
        <ele>365.4</ele>
        <time>2020-08-16 16:15:11</time>
      </trkpt>
      <trkpt lat="39.91188" lon="-4.9211">
        <ele>365.6</ele>
        <time>2020-08-16 16:15:36</time>
      </trkpt>
      <trkpt lat="39.9119" lon="-4.92112">
        <ele>365.6</ele>
        <time>2020-08-16 16:15:37</time>
      </trkpt>
      <trkpt lat="39.91191" lon="-4.92115">
        <ele>365.4</ele>
        <time>2020-08-16 16:15:38</time>
      </trkpt>
      <trkpt lat="39.91197" lon="-4.92125">
        <ele>365.4</ele>
        <time>2020-08-16 16:15:41</time>
      </trkpt>
      <trkpt lat="39.91206" lon="-4.92139">
        <ele>365.4</ele>
        <time>2020-08-16 16:15:45</time>
      </trkpt>
      <trkpt lat="39.91212" lon="-4.9215">
        <ele>365.4</ele>
        <time>2020-08-16 16:15:48</time>
      </trkpt>
      <trkpt lat="39.91228" lon="-4.92176">
        <ele>365.2</ele>
        <time>2020-08-16 16:15:55</time>
      </trkpt>
      <trkpt lat="39.91246" lon="-4.92207">
        <ele>365.6</ele>
        <time>2020-08-16 16:16:03</time>
      </trkpt>
      <trkpt lat="39.91249" lon="-4.92211">
        <ele>365.6</ele>
        <time>2020-08-16 16:16:04</time>
      </trkpt>
      <trkpt lat="39.91256" lon="-4.92223">
        <ele>365.6</ele>
        <time>2020-08-16 16:16:07</time>
      </trkpt>
      <trkpt lat="39.91266" lon="-4.92239">
        <ele>365.8</ele>
        <time>2020-08-16 16:16:11</time>
      </trkpt>
      <trkpt lat="39.91268" lon="-4.92243">
        <ele>365.8</ele>
        <time>2020-08-16 16:16:12</time>
      </trkpt>
      <trkpt lat="39.91282" lon="-4.92268">
        <ele>365.8</ele>
        <time>2020-08-16 16:16:18</time>
      </trkpt>
      <trkpt lat="39.91283" lon="-4.92273">
        <ele>365.8</ele>
        <time>2020-08-16 16:16:19</time>
      </trkpt>
      <trkpt lat="39.91282" lon="-4.92278">
        <ele>365.8</ele>
        <time>2020-08-16 16:16:20</time>
      </trkpt>
      <trkpt lat="39.9128" lon="-4.92283">
        <ele>365.8</ele>
        <time>2020-08-16 16:16:21</time>
      </trkpt>
      <trkpt lat="39.91277" lon="-4.92286">
        <ele>365.8</ele>
        <time>2020-08-16 16:16:22</time>
      </trkpt>
      <trkpt lat="39.91264" lon="-4.92299">
        <ele>366.2</ele>
        <time>2020-08-16 16:16:26</time>
      </trkpt>
      <trkpt lat="39.91261" lon="-4.92302">
        <ele>366.4</ele>
        <time>2020-08-16 16:16:27</time>
      </trkpt>
      <trkpt lat="39.91254" lon="-4.92309">
        <ele>366.6</ele>
        <time>2020-08-16 16:16:29</time>
      </trkpt>
      <trkpt lat="39.91251" lon="-4.92312">
        <ele>366.8</ele>
        <time>2020-08-16 16:16:30</time>
      </trkpt>
      <trkpt lat="39.91247" lon="-4.92315">
        <ele>366.8</ele>
        <time>2020-08-16 16:16:31</time>
      </trkpt>
      <trkpt lat="39.91244" lon="-4.92318">
        <ele>366.8</ele>
        <time>2020-08-16 16:16:32</time>
      </trkpt>
      <trkpt lat="39.9121" lon="-4.92351">
        <ele>366.4</ele>
        <time>2020-08-16 16:16:42</time>
      </trkpt>
      <trkpt lat="39.91183" lon="-4.92377">
        <ele>366.6</ele>
        <time>2020-08-16 16:16:50</time>
      </trkpt>
      <trkpt lat="39.91173" lon="-4.92388">
        <ele>366.8</ele>
        <time>2020-08-16 16:16:53</time>
      </trkpt>
      <trkpt lat="39.91171" lon="-4.92392">
        <ele>366.8</ele>
        <time>2020-08-16 16:16:54</time>
      </trkpt>
      <trkpt lat="39.91169" lon="-4.92397">
        <ele>367</ele>
        <time>2020-08-16 16:16:55</time>
      </trkpt>
      <trkpt lat="39.9117" lon="-4.92402">
        <ele>367</ele>
        <time>2020-08-16 16:16:56</time>
      </trkpt>
      <trkpt lat="39.91171" lon="-4.92406">
        <ele>367</ele>
        <time>2020-08-16 16:16:57</time>
      </trkpt>
      <trkpt lat="39.91174" lon="-4.9241">
        <ele>367</ele>
        <time>2020-08-16 16:16:58</time>
      </trkpt>
      <trkpt lat="39.91177" lon="-4.92414">
        <ele>367</ele>
        <time>2020-08-16 16:16:59</time>
      </trkpt>
      <trkpt lat="39.9118" lon="-4.92418">
        <ele>367</ele>
        <time>2020-08-16 16:17:00</time>
      </trkpt>
      <trkpt lat="39.91182" lon="-4.92422">
        <ele>366.8</ele>
        <time>2020-08-16 16:17:01</time>
      </trkpt>
      <trkpt lat="39.91185" lon="-4.92426">
        <ele>366.8</ele>
        <time>2020-08-16 16:17:02</time>
      </trkpt>
      <trkpt lat="39.91187" lon="-4.9243">
        <ele>366.6</ele>
        <time>2020-08-16 16:17:03</time>
      </trkpt>
      <trkpt lat="39.91189" lon="-4.92434">
        <ele>366.6</ele>
        <time>2020-08-16 16:17:04</time>
      </trkpt>
      <trkpt lat="39.91192" lon="-4.92437">
        <ele>366.6</ele>
        <time>2020-08-16 16:17:05</time>
      </trkpt>
      <trkpt lat="39.91194" lon="-4.92441">
        <ele>366.6</ele>
        <time>2020-08-16 16:17:06</time>
      </trkpt>
      <trkpt lat="39.91196" lon="-4.92444">
        <ele>366.6</ele>
        <time>2020-08-16 16:17:07</time>
      </trkpt>
      <trkpt lat="39.91198" lon="-4.92446">
        <ele>366.6</ele>
        <time>2020-08-16 16:17:08</time>
      </trkpt>
      <trkpt lat="39.912" lon="-4.92449">
        <ele>366.6</ele>
        <time>2020-08-16 16:17:09</time>
      </trkpt>
      <trkpt lat="39.91202" lon="-4.92452">
        <ele>366.4</ele>
        <time>2020-08-16 16:17:10</time>
      </trkpt>
      <trkpt lat="39.91204" lon="-4.92454">
        <ele>366.4</ele>
        <time>2020-08-16 16:17:11</time>
      </trkpt>
      <trkpt lat="39.91206" lon="-4.92456">
        <ele>366.4</ele>
        <time>2020-08-16 16:17:12</time>
      </trkpt>
      <trkpt lat="39.91207" lon="-4.92458">
        <ele>366.4</ele>
        <time>2020-08-16 16:17:13</time>
      </trkpt>
      <trkpt lat="39.91209" lon="-4.92461">
        <ele>366.4</ele>
        <time>2020-08-16 16:17:14</time>
      </trkpt>
      <trkpt lat="39.91213" lon="-4.92468">
        <ele>366.4</ele>
        <time>2020-08-16 16:17:17</time>
      </trkpt>
      <trkpt lat="39.91216" lon="-4.92473">
        <ele>366.4</ele>
        <time>2020-08-16 16:17:19</time>
      </trkpt>
      <trkpt lat="39.91218" lon="-4.92476">
        <ele>366.4</ele>
        <time>2020-08-16 16:17:20</time>
      </trkpt>
      <trkpt lat="39.9122" lon="-4.92478">
        <ele>366.4</ele>
        <time>2020-08-16 16:17:21</time>
      </trkpt>
      <trkpt lat="39.91221" lon="-4.9248">
        <ele>366.6</ele>
        <time>2020-08-16 16:17:22</time>
      </trkpt>
      <trkpt lat="39.91223" lon="-4.92483">
        <ele>366.6</ele>
        <time>2020-08-16 16:17:23</time>
      </trkpt>
      <trkpt lat="39.91224" lon="-4.92486">
        <ele>366.6</ele>
        <time>2020-08-16 16:17:24</time>
      </trkpt>
      <trkpt lat="39.91226" lon="-4.92489">
        <ele>366.8</ele>
        <time>2020-08-16 16:17:25</time>
      </trkpt>
      <trkpt lat="39.9123" lon="-4.92497">
        <ele>367</ele>
        <time>2020-08-16 16:17:28</time>
      </trkpt>
      <trkpt lat="39.91233" lon="-4.92502">
        <ele>367</ele>
        <time>2020-08-16 16:17:30</time>
      </trkpt>
      <trkpt lat="39.91235" lon="-4.92505">
        <ele>367</ele>
        <time>2020-08-16 16:17:31</time>
      </trkpt>
      <trkpt lat="39.91242" lon="-4.92518">
        <ele>367</ele>
        <time>2020-08-16 16:17:35</time>
      </trkpt>
      <trkpt lat="39.91248" lon="-4.9253">
        <ele>367.4</ele>
        <time>2020-08-16 16:17:39</time>
      </trkpt>
      <trkpt lat="39.9125" lon="-4.92532">
        <ele>367.4</ele>
        <time>2020-08-16 16:17:40</time>
      </trkpt>
      <trkpt lat="39.91256" lon="-4.92541">
        <ele>367.4</ele>
        <time>2020-08-16 16:17:43</time>
      </trkpt>
      <trkpt lat="39.91257" lon="-4.92545">
        <ele>367.4</ele>
        <time>2020-08-16 16:17:44</time>
      </trkpt>
      <trkpt lat="39.9126" lon="-4.92551">
        <ele>367.4</ele>
        <time>2020-08-16 16:17:46</time>
      </trkpt>
      <trkpt lat="39.9126" lon="-4.92556">
        <ele>367.6</ele>
        <time>2020-08-16 16:17:47</time>
      </trkpt>
      <trkpt lat="39.91257" lon="-4.92564">
        <ele>367.6</ele>
        <time>2020-08-16 16:17:49</time>
      </trkpt>
      <trkpt lat="39.91255" lon="-4.92568">
        <ele>367.8</ele>
        <time>2020-08-16 16:17:50</time>
      </trkpt>
      <trkpt lat="39.91253" lon="-4.92571">
        <ele>368</ele>
        <time>2020-08-16 16:17:51</time>
      </trkpt>
      <trkpt lat="39.91245" lon="-4.9258">
        <ele>368.2</ele>
        <time>2020-08-16 16:17:54</time>
      </trkpt>
      <trkpt lat="39.91243" lon="-4.92584">
        <ele>368.4</ele>
        <time>2020-08-16 16:17:55</time>
      </trkpt>
      <trkpt lat="39.91241" lon="-4.92589">
        <ele>368.4</ele>
        <time>2020-08-16 16:17:56</time>
      </trkpt>
      <trkpt lat="39.91232" lon="-4.92629">
        <ele>368.6</ele>
        <time>2020-08-16 16:18:04</time>
      </trkpt>
      <trkpt lat="39.91225" lon="-4.92668">
        <ele>368.6</ele>
        <time>2020-08-16 16:18:12</time>
      </trkpt>
      <trkpt lat="39.91219" lon="-4.92693">
        <ele>369</ele>
        <time>2020-08-16 16:18:17</time>
      </trkpt>
      <trkpt lat="39.91215" lon="-4.92713">
        <ele>369.2</ele>
        <time>2020-08-16 16:18:21</time>
      </trkpt>
      <trkpt lat="39.91214" lon="-4.92718">
        <ele>369.2</ele>
        <time>2020-08-16 16:18:22</time>
      </trkpt>
      <trkpt lat="39.91213" lon="-4.92723">
        <ele>369.4</ele>
        <time>2020-08-16 16:18:23</time>
      </trkpt>
      <trkpt lat="39.9121" lon="-4.92733">
        <ele>369.2</ele>
        <time>2020-08-16 16:18:25</time>
      </trkpt>
      <trkpt lat="39.91209" lon="-4.92738">
        <ele>369.2</ele>
        <time>2020-08-16 16:18:26</time>
      </trkpt>
      <trkpt lat="39.91208" lon="-4.92742">
        <ele>369.2</ele>
        <time>2020-08-16 16:18:27</time>
      </trkpt>
      <trkpt lat="39.91207" lon="-4.92747">
        <ele>369.2</ele>
        <time>2020-08-16 16:18:28</time>
      </trkpt>
      <trkpt lat="39.91207" lon="-4.92752">
        <ele>369.2</ele>
        <time>2020-08-16 16:18:29</time>
      </trkpt>
      <trkpt lat="39.91206" lon="-4.92756">
        <ele>369.2</ele>
        <time>2020-08-16 16:18:30</time>
      </trkpt>
      <trkpt lat="39.91205" lon="-4.92761">
        <ele>369.2</ele>
        <time>2020-08-16 16:18:31</time>
      </trkpt>
      <trkpt lat="39.91205" lon="-4.92765">
        <ele>369</ele>
        <time>2020-08-16 16:18:32</time>
      </trkpt>
      <trkpt lat="39.91204" lon="-4.92769">
        <ele>369</ele>
        <time>2020-08-16 16:18:33</time>
      </trkpt>
      <trkpt lat="39.91204" lon="-4.92774">
        <ele>368.8</ele>
        <time>2020-08-16 16:18:34</time>
      </trkpt>
      <trkpt lat="39.91203" lon="-4.92778">
        <ele>368.8</ele>
        <time>2020-08-16 16:18:35</time>
      </trkpt>
      <trkpt lat="39.91202" lon="-4.92782">
        <ele>368.8</ele>
        <time>2020-08-16 16:18:36</time>
      </trkpt>
      <trkpt lat="39.91201" lon="-4.92786">
        <ele>369</ele>
        <time>2020-08-16 16:18:37</time>
      </trkpt>
      <trkpt lat="39.912" lon="-4.9279">
        <ele>369</ele>
        <time>2020-08-16 16:18:38</time>
      </trkpt>
      <trkpt lat="39.91199" lon="-4.92794">
        <ele>369</ele>
        <time>2020-08-16 16:18:39</time>
      </trkpt>
      <trkpt lat="39.91198" lon="-4.92799">
        <ele>369</ele>
        <time>2020-08-16 16:18:40</time>
      </trkpt>
      <trkpt lat="39.91197" lon="-4.92803">
        <ele>369</ele>
        <time>2020-08-16 16:18:41</time>
      </trkpt>
      <trkpt lat="39.91195" lon="-4.92812">
        <ele>369.2</ele>
        <time>2020-08-16 16:18:43</time>
      </trkpt>
      <trkpt lat="39.91194" lon="-4.92816">
        <ele>369.2</ele>
        <time>2020-08-16 16:18:44</time>
      </trkpt>
      <trkpt lat="39.91191" lon="-4.92827">
        <ele>369.2</ele>
        <time>2020-08-16 16:18:46</time>
      </trkpt>
      <trkpt lat="39.9119" lon="-4.92832">
        <ele>369.2</ele>
        <time>2020-08-16 16:18:47</time>
      </trkpt>
      <trkpt lat="39.9119" lon="-4.92836">
        <ele>369.2</ele>
        <time>2020-08-16 16:18:48</time>
      </trkpt>
      <trkpt lat="39.91188" lon="-4.92845">
        <ele>369.4</ele>
        <time>2020-08-16 16:18:50</time>
      </trkpt>
      <trkpt lat="39.91184" lon="-4.92869">
        <ele>370.4</ele>
        <time>2020-08-16 16:18:55</time>
      </trkpt>
      <trkpt lat="39.91183" lon="-4.92873">
        <ele>370.4</ele>
        <time>2020-08-16 16:18:56</time>
      </trkpt>
      <trkpt lat="39.91182" lon="-4.92878">
        <ele>370.6</ele>
        <time>2020-08-16 16:18:57</time>
      </trkpt>
      <trkpt lat="39.91181" lon="-4.92881">
        <ele>370.6</ele>
        <time>2020-08-16 16:18:58</time>
      </trkpt>
      <trkpt lat="39.9118" lon="-4.92886">
        <ele>370.8</ele>
        <time>2020-08-16 16:18:59</time>
      </trkpt>
      <trkpt lat="39.9118" lon="-4.9289">
        <ele>370.8</ele>
        <time>2020-08-16 16:19:00</time>
      </trkpt>
      <trkpt lat="39.91179" lon="-4.92894">
        <ele>371</ele>
        <time>2020-08-16 16:19:01</time>
      </trkpt>
      <trkpt lat="39.91178" lon="-4.92898">
        <ele>371</ele>
        <time>2020-08-16 16:19:02</time>
      </trkpt>
      <trkpt lat="39.91177" lon="-4.92902">
        <ele>371</ele>
        <time>2020-08-16 16:19:03</time>
      </trkpt>
      <trkpt lat="39.91176" lon="-4.92907">
        <ele>371.2</ele>
        <time>2020-08-16 16:19:04</time>
      </trkpt>
      <trkpt lat="39.91175" lon="-4.92911">
        <ele>371.2</ele>
        <time>2020-08-16 16:19:05</time>
      </trkpt>
      <trkpt lat="39.91174" lon="-4.92915">
        <ele>371.4</ele>
        <time>2020-08-16 16:19:06</time>
      </trkpt>
      <trkpt lat="39.91174" lon="-4.92919">
        <ele>371.4</ele>
        <time>2020-08-16 16:19:07</time>
      </trkpt>
      <trkpt lat="39.91173" lon="-4.92923">
        <ele>371.4</ele>
        <time>2020-08-16 16:19:08</time>
      </trkpt>
      <trkpt lat="39.91172" lon="-4.92927">
        <ele>371.6</ele>
        <time>2020-08-16 16:19:09</time>
      </trkpt>
      <trkpt lat="39.91172" lon="-4.92931">
        <ele>371.6</ele>
        <time>2020-08-16 16:19:10</time>
      </trkpt>
      <trkpt lat="39.91173" lon="-4.92934">
        <ele>371.4</ele>
        <time>2020-08-16 16:19:11</time>
      </trkpt>
      <trkpt lat="39.91174" lon="-4.92937">
        <ele>371.4</ele>
        <time>2020-08-16 16:19:12</time>
      </trkpt>
      <trkpt lat="39.91175" lon="-4.92938">
        <ele>371.4</ele>
        <time>2020-08-16 16:19:13</time>
      </trkpt>
      <trkpt lat="39.91176" lon="-4.92939">
        <ele>371.4</ele>
        <time>2020-08-16 16:19:14</time>
      </trkpt>
      <trkpt lat="39.91177" lon="-4.9294">
        <ele>371.4</ele>
        <time>2020-08-16 16:19:15</time>
      </trkpt>
      <trkpt lat="39.91179" lon="-4.9294">
        <ele>371.4</ele>
        <time>2020-08-16 16:19:16</time>
      </trkpt>
      <trkpt lat="39.91181" lon="-4.9294">
        <ele>371.4</ele>
        <time>2020-08-16 16:19:17</time>
      </trkpt>
      <trkpt lat="39.91181" lon="-4.92939">
        <ele>371.4</ele>
        <time>2020-08-16 16:19:18</time>
      </trkpt>
      <trkpt lat="39.91179" lon="-4.92938">
        <ele>371.4</ele>
        <time>2020-08-16 16:19:19</time>
      </trkpt>
      <trkpt lat="39.91176" lon="-4.92939">
        <ele>371.4</ele>
        <time>2020-08-16 16:19:20</time>
      </trkpt>
      <trkpt lat="39.91173" lon="-4.9294">
        <ele>371.4</ele>
        <time>2020-08-16 16:19:21</time>
      </trkpt>
      <trkpt lat="39.91171" lon="-4.92943">
        <ele>371.4</ele>
        <time>2020-08-16 16:19:22</time>
      </trkpt>
      <trkpt lat="39.9117" lon="-4.92946">
        <ele>371.2</ele>
        <time>2020-08-16 16:19:23</time>
      </trkpt>
      <trkpt lat="39.91166" lon="-4.9296">
        <ele>371.2</ele>
        <time>2020-08-16 16:19:26</time>
      </trkpt>
      <trkpt lat="39.91164" lon="-4.92965">
        <ele>371.2</ele>
        <time>2020-08-16 16:19:27</time>
      </trkpt>
      <trkpt lat="39.91162" lon="-4.92969">
        <ele>371.4</ele>
        <time>2020-08-16 16:19:28</time>
      </trkpt>
      <trkpt lat="39.91159" lon="-4.92974">
        <ele>371.4</ele>
        <time>2020-08-16 16:19:29</time>
      </trkpt>
      <trkpt lat="39.91143" lon="-4.93001">
        <ele>371.4</ele>
        <time>2020-08-16 16:19:35</time>
      </trkpt>
      <trkpt lat="39.9113" lon="-4.93021">
        <ele>371.4</ele>
        <time>2020-08-16 16:19:40</time>
      </trkpt>
      <trkpt lat="39.91128" lon="-4.93024">
        <ele>371.2</ele>
        <time>2020-08-16 16:19:41</time>
      </trkpt>
      <trkpt lat="39.91125" lon="-4.93028">
        <ele>371.2</ele>
        <time>2020-08-16 16:19:42</time>
      </trkpt>
      <trkpt lat="39.91124" lon="-4.93031">
        <ele>371.2</ele>
        <time>2020-08-16 16:19:43</time>
      </trkpt>
      <trkpt lat="39.91121" lon="-4.93034">
        <ele>371.2</ele>
        <time>2020-08-16 16:19:44</time>
      </trkpt>
      <trkpt lat="39.91113" lon="-4.93047">
        <ele>371.4</ele>
        <time>2020-08-16 16:19:48</time>
      </trkpt>
      <trkpt lat="39.9111" lon="-4.9305">
        <ele>371.4</ele>
        <time>2020-08-16 16:19:49</time>
      </trkpt>
      <trkpt lat="39.91108" lon="-4.93053">
        <ele>371.4</ele>
        <time>2020-08-16 16:19:50</time>
      </trkpt>
      <trkpt lat="39.91105" lon="-4.93056">
        <ele>371.6</ele>
        <time>2020-08-16 16:19:51</time>
      </trkpt>
      <trkpt lat="39.91103" lon="-4.93059">
        <ele>371.6</ele>
        <time>2020-08-16 16:19:52</time>
      </trkpt>
      <trkpt lat="39.91101" lon="-4.93061">
        <ele>371.6</ele>
        <time>2020-08-16 16:19:53</time>
      </trkpt>
      <trkpt lat="39.91098" lon="-4.93064">
        <ele>371.6</ele>
        <time>2020-08-16 16:19:54</time>
      </trkpt>
      <trkpt lat="39.91096" lon="-4.93066">
        <ele>371.6</ele>
        <time>2020-08-16 16:19:55</time>
      </trkpt>
      <trkpt lat="39.91093" lon="-4.93068">
        <ele>371.4</ele>
        <time>2020-08-16 16:19:56</time>
      </trkpt>
      <trkpt lat="39.91091" lon="-4.93071">
        <ele>371.4</ele>
        <time>2020-08-16 16:19:57</time>
      </trkpt>
      <trkpt lat="39.9109" lon="-4.93074">
        <ele>371.4</ele>
        <time>2020-08-16 16:19:58</time>
      </trkpt>
      <trkpt lat="39.91089" lon="-4.93074">
        <ele>371.4</ele>
        <time>2020-08-16 16:19:59</time>
      </trkpt>
      <trkpt lat="39.91089" lon="-4.93074">
        <ele>371.2</ele>
        <time>2020-08-16 16:20:00</time>
      </trkpt>
      <trkpt lat="39.91089" lon="-4.93074">
        <ele>371.2</ele>
        <time>2020-08-16 16:20:01</time>
      </trkpt>
      <trkpt lat="39.91066" lon="-4.93084">
        <ele>372.8</ele>
        <time>2020-08-16 16:24:44</time>
      </trkpt>
      <trkpt lat="39.91064" lon="-4.93087">
        <ele>372.8</ele>
        <time>2020-08-16 16:24:45</time>
      </trkpt>
      <trkpt lat="39.91061" lon="-4.93089">
        <ele>372.8</ele>
        <time>2020-08-16 16:24:46</time>
      </trkpt>
      <trkpt lat="39.91054" lon="-4.93096">
        <ele>372.8</ele>
        <time>2020-08-16 16:24:49</time>
      </trkpt>
      <trkpt lat="39.91052" lon="-4.93099">
        <ele>373</ele>
        <time>2020-08-16 16:24:50</time>
      </trkpt>
      <trkpt lat="39.91049" lon="-4.93101">
        <ele>372.8</ele>
        <time>2020-08-16 16:24:51</time>
      </trkpt>
      <trkpt lat="39.91044" lon="-4.93107">
        <ele>372.8</ele>
        <time>2020-08-16 16:24:53</time>
      </trkpt>
      <trkpt lat="39.91038" lon="-4.93118">
        <ele>372.6</ele>
        <time>2020-08-16 16:24:56</time>
      </trkpt>
      <trkpt lat="39.91036" lon="-4.93122">
        <ele>372.4</ele>
        <time>2020-08-16 16:24:57</time>
      </trkpt>
      <trkpt lat="39.91034" lon="-4.93126">
        <ele>372.4</ele>
        <time>2020-08-16 16:24:58</time>
      </trkpt>
      <trkpt lat="39.91032" lon="-4.93129">
        <ele>372.4</ele>
        <time>2020-08-16 16:24:59</time>
      </trkpt>
      <trkpt lat="39.91021" lon="-4.93145">
        <ele>372.2</ele>
        <time>2020-08-16 16:25:04</time>
      </trkpt>
      <trkpt lat="39.91015" lon="-4.93156">
        <ele>372.2</ele>
        <time>2020-08-16 16:25:07</time>
      </trkpt>
      <trkpt lat="39.91013" lon="-4.93159">
        <ele>372.2</ele>
        <time>2020-08-16 16:25:08</time>
      </trkpt>
      <trkpt lat="39.91" lon="-4.93178">
        <ele>372</ele>
        <time>2020-08-16 16:25:13</time>
      </trkpt>
      <trkpt lat="39.90995" lon="-4.93186">
        <ele>372</ele>
        <time>2020-08-16 16:25:15</time>
      </trkpt>
      <trkpt lat="39.90992" lon="-4.9319">
        <ele>372</ele>
        <time>2020-08-16 16:25:16</time>
      </trkpt>
      <trkpt lat="39.90989" lon="-4.93191">
        <ele>372</ele>
        <time>2020-08-16 16:25:17</time>
      </trkpt>
      <trkpt lat="39.90986" lon="-4.9319">
        <ele>372</ele>
        <time>2020-08-16 16:25:18</time>
      </trkpt>
      <trkpt lat="39.90983" lon="-4.93187">
        <ele>372</ele>
        <time>2020-08-16 16:25:19</time>
      </trkpt>
      <trkpt lat="39.90977" lon="-4.93181">
        <ele>372</ele>
        <time>2020-08-16 16:25:21</time>
      </trkpt>
      <trkpt lat="39.90974" lon="-4.93178">
        <ele>372</ele>
        <time>2020-08-16 16:25:22</time>
      </trkpt>
      <trkpt lat="39.90971" lon="-4.93175">
        <ele>371.6</ele>
        <time>2020-08-16 16:25:23</time>
      </trkpt>
      <trkpt lat="39.90968" lon="-4.93172">
        <ele>371.6</ele>
        <time>2020-08-16 16:25:24</time>
      </trkpt>
      <trkpt lat="39.90966" lon="-4.93169">
        <ele>371.6</ele>
        <time>2020-08-16 16:25:25</time>
      </trkpt>
      <trkpt lat="39.90963" lon="-4.93166">
        <ele>371.6</ele>
        <time>2020-08-16 16:25:26</time>
      </trkpt>
      <trkpt lat="39.90961" lon="-4.93163">
        <ele>371.6</ele>
        <time>2020-08-16 16:25:27</time>
      </trkpt>
      <trkpt lat="39.90959" lon="-4.9316">
        <ele>371.6</ele>
        <time>2020-08-16 16:25:28</time>
      </trkpt>
      <trkpt lat="39.90956" lon="-4.93157">
        <ele>371.6</ele>
        <time>2020-08-16 16:25:29</time>
      </trkpt>
      <trkpt lat="39.90953" lon="-4.93155">
        <ele>371.6</ele>
        <time>2020-08-16 16:25:30</time>
      </trkpt>
      <trkpt lat="39.9095" lon="-4.93152">
        <ele>371.6</ele>
        <time>2020-08-16 16:25:31</time>
      </trkpt>
      <trkpt lat="39.90947" lon="-4.9315">
        <ele>371.4</ele>
        <time>2020-08-16 16:25:32</time>
      </trkpt>
      <trkpt lat="39.90944" lon="-4.93148">
        <ele>371.4</ele>
        <time>2020-08-16 16:25:33</time>
      </trkpt>
      <trkpt lat="39.90941" lon="-4.93146">
        <ele>371.4</ele>
        <time>2020-08-16 16:25:34</time>
      </trkpt>
      <trkpt lat="39.90938" lon="-4.93146">
        <ele>371.4</ele>
        <time>2020-08-16 16:25:35</time>
      </trkpt>
      <trkpt lat="39.90935" lon="-4.93148">
        <ele>371.4</ele>
        <time>2020-08-16 16:25:36</time>
      </trkpt>
      <trkpt lat="39.90933" lon="-4.93152">
        <ele>371.4</ele>
        <time>2020-08-16 16:25:37</time>
      </trkpt>
      <trkpt lat="39.90931" lon="-4.93156">
        <ele>371.4</ele>
        <time>2020-08-16 16:25:38</time>
      </trkpt>
      <trkpt lat="39.90925" lon="-4.93169">
        <ele>371.6</ele>
        <time>2020-08-16 16:25:41</time>
      </trkpt>
      <trkpt lat="39.90922" lon="-4.93173">
        <ele>371.6</ele>
        <time>2020-08-16 16:25:42</time>
      </trkpt>
      <trkpt lat="39.90911" lon="-4.93189">
        <ele>371.4</ele>
        <time>2020-08-16 16:25:46</time>
      </trkpt>
      <trkpt lat="39.90908" lon="-4.93193">
        <ele>371.4</ele>
        <time>2020-08-16 16:25:47</time>
      </trkpt>
      <trkpt lat="39.90898" lon="-4.9321">
        <ele>371.4</ele>
        <time>2020-08-16 16:25:51</time>
      </trkpt>
      <trkpt lat="39.90896" lon="-4.93213">
        <ele>371.2</ele>
        <time>2020-08-16 16:25:52</time>
      </trkpt>
      <trkpt lat="39.90895" lon="-4.93215">
        <ele>371.2</ele>
        <time>2020-08-16 16:25:53</time>
      </trkpt>
      <trkpt lat="39.90892" lon="-4.93216">
        <ele>371</ele>
        <time>2020-08-16 16:25:54</time>
      </trkpt>
      <trkpt lat="39.9089" lon="-4.93215">
        <ele>371</ele>
        <time>2020-08-16 16:25:55</time>
      </trkpt>
      <trkpt lat="39.90887" lon="-4.93214">
        <ele>371</ele>
        <time>2020-08-16 16:25:56</time>
      </trkpt>
      <trkpt lat="39.90885" lon="-4.93211">
        <ele>371</ele>
        <time>2020-08-16 16:25:57</time>
      </trkpt>
      <trkpt lat="39.90872" lon="-4.93195">
        <ele>370.8</ele>
        <time>2020-08-16 16:26:02</time>
      </trkpt>
      <trkpt lat="39.90866" lon="-4.9319">
        <ele>370.8</ele>
        <time>2020-08-16 16:26:04</time>
      </trkpt>
      <trkpt lat="39.90864" lon="-4.93189">
        <ele>370.8</ele>
        <time>2020-08-16 16:26:05</time>
      </trkpt>
      <trkpt lat="39.90862" lon="-4.9319">
        <ele>370.8</ele>
        <time>2020-08-16 16:26:06</time>
      </trkpt>
      <trkpt lat="39.90861" lon="-4.93193">
        <ele>370.6</ele>
        <time>2020-08-16 16:26:07</time>
      </trkpt>
      <trkpt lat="39.9086" lon="-4.93196">
        <ele>370.6</ele>
        <time>2020-08-16 16:26:08</time>
      </trkpt>
      <trkpt lat="39.9085" lon="-4.93215">
        <ele>370.8</ele>
        <time>2020-08-16 16:26:13</time>
      </trkpt>
      <trkpt lat="39.90835" lon="-4.93239">
        <ele>371</ele>
        <time>2020-08-16 16:26:19</time>
      </trkpt>
      <trkpt lat="39.90812" lon="-4.93277">
        <ele>371</ele>
        <time>2020-08-16 16:26:28</time>
      </trkpt>
      <trkpt lat="39.90809" lon="-4.93282">
        <ele>371</ele>
        <time>2020-08-16 16:26:29</time>
      </trkpt>
      <trkpt lat="39.908" lon="-4.93295">
        <ele>371</ele>
        <time>2020-08-16 16:26:32</time>
      </trkpt>
      <trkpt lat="39.90795" lon="-4.93304">
        <ele>370.8</ele>
        <time>2020-08-16 16:26:34</time>
      </trkpt>
      <trkpt lat="39.90792" lon="-4.93308">
        <ele>370.8</ele>
        <time>2020-08-16 16:26:35</time>
      </trkpt>
      <trkpt lat="39.9079" lon="-4.93313">
        <ele>370.8</ele>
        <time>2020-08-16 16:26:36</time>
      </trkpt>
      <trkpt lat="39.90759" lon="-4.93363">
        <ele>371</ele>
        <time>2020-08-16 16:26:47</time>
      </trkpt>
      <trkpt lat="39.90756" lon="-4.93367">
        <ele>371</ele>
        <time>2020-08-16 16:26:48</time>
      </trkpt>
      <trkpt lat="39.90754" lon="-4.93371">
        <ele>371</ele>
        <time>2020-08-16 16:26:49</time>
      </trkpt>
      <trkpt lat="39.90753" lon="-4.93374">
        <ele>371</ele>
        <time>2020-08-16 16:26:50</time>
      </trkpt>
      <trkpt lat="39.90751" lon="-4.93377">
        <ele>370.8</ele>
        <time>2020-08-16 16:26:51</time>
      </trkpt>
      <trkpt lat="39.9075" lon="-4.93379">
        <ele>371</ele>
        <time>2020-08-16 16:26:52</time>
      </trkpt>
      <trkpt lat="39.90749" lon="-4.9338">
        <ele>371</ele>
        <time>2020-08-16 16:26:53</time>
      </trkpt>
      <trkpt lat="39.90748" lon="-4.93381">
        <ele>371</ele>
        <time>2020-08-16 16:26:54</time>
      </trkpt>
      <trkpt lat="39.90747" lon="-4.93382">
        <ele>371</ele>
        <time>2020-08-16 16:26:55</time>
      </trkpt>
      <trkpt lat="39.90746" lon="-4.93382">
        <ele>371</ele>
        <time>2020-08-16 16:26:56</time>
      </trkpt>
      <trkpt lat="39.90745" lon="-4.93381">
        <ele>371</ele>
        <time>2020-08-16 16:26:57</time>
      </trkpt>
      <trkpt lat="39.90745" lon="-4.93379">
        <ele>370.8</ele>
        <time>2020-08-16 16:26:58</time>
      </trkpt>
      <trkpt lat="39.90746" lon="-4.93377">
        <ele>370.8</ele>
        <time>2020-08-16 16:26:59</time>
      </trkpt>
      <trkpt lat="39.90748" lon="-4.93374">
        <ele>371</ele>
        <time>2020-08-16 16:27:00</time>
      </trkpt>
      <trkpt lat="39.90758" lon="-4.93361">
        <ele>371.2</ele>
        <time>2020-08-16 16:27:05</time>
      </trkpt>
      <trkpt lat="39.90759" lon="-4.93358">
        <ele>371.4</ele>
        <time>2020-08-16 16:27:06</time>
      </trkpt>
      <trkpt lat="39.90761" lon="-4.93355">
        <ele>371.4</ele>
        <time>2020-08-16 16:27:07</time>
      </trkpt>
      <trkpt lat="39.90762" lon="-4.93353">
        <ele>371.4</ele>
        <time>2020-08-16 16:27:08</time>
      </trkpt>
      <trkpt lat="39.90764" lon="-4.93351">
        <ele>371.4</ele>
        <time>2020-08-16 16:27:09</time>
      </trkpt>
      <trkpt lat="39.90766" lon="-4.93348">
        <ele>371.4</ele>
        <time>2020-08-16 16:27:10</time>
      </trkpt>
      <trkpt lat="39.90768" lon="-4.93346">
        <ele>371.4</ele>
        <time>2020-08-16 16:27:11</time>
      </trkpt>
      <trkpt lat="39.90769" lon="-4.93344">
        <ele>371.4</ele>
        <time>2020-08-16 16:27:12</time>
      </trkpt>
      <trkpt lat="39.90771" lon="-4.93342">
        <ele>371.4</ele>
        <time>2020-08-16 16:27:13</time>
      </trkpt>
      <trkpt lat="39.90773" lon="-4.9334">
        <ele>371.4</ele>
        <time>2020-08-16 16:27:14</time>
      </trkpt>
      <trkpt lat="39.90774" lon="-4.93337">
        <ele>371.4</ele>
        <time>2020-08-16 16:27:15</time>
      </trkpt>
      <trkpt lat="39.90776" lon="-4.93335">
        <ele>371.4</ele>
        <time>2020-08-16 16:27:16</time>
      </trkpt>
      <trkpt lat="39.90778" lon="-4.93332">
        <ele>371.4</ele>
        <time>2020-08-16 16:27:17</time>
      </trkpt>
      <trkpt lat="39.90779" lon="-4.93329">
        <ele>371.4</ele>
        <time>2020-08-16 16:27:18</time>
      </trkpt>
      <trkpt lat="39.90785" lon="-4.93317">
        <ele>371.6</ele>
        <time>2020-08-16 16:27:22</time>
      </trkpt>
      <trkpt lat="39.90796" lon="-4.93297">
        <ele>371.6</ele>
        <time>2020-08-16 16:27:28</time>
      </trkpt>
      <trkpt lat="39.908" lon="-4.93292">
        <ele>371.6</ele>
        <time>2020-08-16 16:27:30</time>
      </trkpt>
      <trkpt lat="39.90801" lon="-4.93288">
        <ele>371.6</ele>
        <time>2020-08-16 16:27:31</time>
      </trkpt>
      <trkpt lat="39.90817" lon="-4.93264">
        <ele>371.6</ele>
        <time>2020-08-16 16:27:38</time>
      </trkpt>
      <trkpt lat="39.90825" lon="-4.93252">
        <ele>371.6</ele>
        <time>2020-08-16 16:27:41</time>
      </trkpt>
      <trkpt lat="39.90832" lon="-4.93241">
        <ele>371.4</ele>
        <time>2020-08-16 16:27:44</time>
      </trkpt>
      <trkpt lat="39.90837" lon="-4.93233">
        <ele>371.4</ele>
        <time>2020-08-16 16:27:46</time>
      </trkpt>
      <trkpt lat="39.90848" lon="-4.93214">
        <ele>371.4</ele>
        <time>2020-08-16 16:27:51</time>
      </trkpt>
      <trkpt lat="39.90862" lon="-4.9319">
        <ele>371.4</ele>
        <time>2020-08-16 16:27:57</time>
      </trkpt>
      <trkpt lat="39.90863" lon="-4.93185">
        <ele>371.4</ele>
        <time>2020-08-16 16:27:58</time>
      </trkpt>
      <trkpt lat="39.90861" lon="-4.93181">
        <ele>371.4</ele>
        <time>2020-08-16 16:27:59</time>
      </trkpt>
      <trkpt lat="39.90858" lon="-4.93178">
        <ele>371.4</ele>
        <time>2020-08-16 16:28:00</time>
      </trkpt>
      <trkpt lat="39.90856" lon="-4.93175">
        <ele>371.4</ele>
        <time>2020-08-16 16:28:01</time>
      </trkpt>
      <trkpt lat="39.90853" lon="-4.93171">
        <ele>371.4</ele>
        <time>2020-08-16 16:28:02</time>
      </trkpt>
      <trkpt lat="39.90849" lon="-4.93162">
        <ele>371.4</ele>
        <time>2020-08-16 16:28:04</time>
      </trkpt>
      <trkpt lat="39.90848" lon="-4.93156">
        <ele>371.4</ele>
        <time>2020-08-16 16:28:05</time>
      </trkpt>
      <trkpt lat="39.90847" lon="-4.93152">
        <ele>371.4</ele>
        <time>2020-08-16 16:28:06</time>
      </trkpt>
      <trkpt lat="39.90847" lon="-4.93149">
        <ele>371.2</ele>
        <time>2020-08-16 16:28:07</time>
      </trkpt>
      <trkpt lat="39.90845" lon="-4.93147">
        <ele>371.2</ele>
        <time>2020-08-16 16:28:08</time>
      </trkpt>
      <trkpt lat="39.90843" lon="-4.93146">
        <ele>371.2</ele>
        <time>2020-08-16 16:28:09</time>
      </trkpt>
      <trkpt lat="39.90838" lon="-4.93145">
        <ele>371</ele>
        <time>2020-08-16 16:28:11</time>
      </trkpt>
      <trkpt lat="39.90833" lon="-4.93145">
        <ele>371</ele>
        <time>2020-08-16 16:28:13</time>
      </trkpt>
      <trkpt lat="39.90831" lon="-4.93146">
        <ele>371</ele>
        <time>2020-08-16 16:28:14</time>
      </trkpt>
      <trkpt lat="39.90828" lon="-4.93148">
        <ele>370.8</ele>
        <time>2020-08-16 16:28:15</time>
      </trkpt>
      <trkpt lat="39.90826" lon="-4.93151">
        <ele>370.8</ele>
        <time>2020-08-16 16:28:16</time>
      </trkpt>
      <trkpt lat="39.90822" lon="-4.93157">
        <ele>370.6</ele>
        <time>2020-08-16 16:28:18</time>
      </trkpt>
      <trkpt lat="39.90819" lon="-4.93157">
        <ele>370.4</ele>
        <time>2020-08-16 16:28:19</time>
      </trkpt>
      <trkpt lat="39.90815" lon="-4.93155">
        <ele>370.4</ele>
        <time>2020-08-16 16:28:20</time>
      </trkpt>
      <trkpt lat="39.90812" lon="-4.93152">
        <ele>370.2</ele>
        <time>2020-08-16 16:28:21</time>
      </trkpt>
      <trkpt lat="39.90803" lon="-4.93142">
        <ele>370</ele>
        <time>2020-08-16 16:28:24</time>
      </trkpt>
      <trkpt lat="39.908" lon="-4.93139">
        <ele>370</ele>
        <time>2020-08-16 16:28:25</time>
      </trkpt>
      <trkpt lat="39.90798" lon="-4.93135">
        <ele>369.8</ele>
        <time>2020-08-16 16:28:26</time>
      </trkpt>
      <trkpt lat="39.90795" lon="-4.93131">
        <ele>369.8</ele>
        <time>2020-08-16 16:28:27</time>
      </trkpt>
      <trkpt lat="39.90793" lon="-4.93129">
        <ele>369.8</ele>
        <time>2020-08-16 16:28:28</time>
      </trkpt>
      <trkpt lat="39.9079" lon="-4.9313">
        <ele>369.8</ele>
        <time>2020-08-16 16:28:29</time>
      </trkpt>
      <trkpt lat="39.90788" lon="-4.9313">
        <ele>369.8</ele>
        <time>2020-08-16 16:28:30</time>
      </trkpt>
      <trkpt lat="39.90786" lon="-4.93132">
        <ele>369.8</ele>
        <time>2020-08-16 16:28:31</time>
      </trkpt>
      <trkpt lat="39.90784" lon="-4.93132">
        <ele>369.8</ele>
        <time>2020-08-16 16:28:32</time>
      </trkpt>
      <trkpt lat="39.90781" lon="-4.93131">
        <ele>369.8</ele>
        <time>2020-08-16 16:28:33</time>
      </trkpt>
      <trkpt lat="39.90779" lon="-4.93128">
        <ele>369.6</ele>
        <time>2020-08-16 16:28:34</time>
      </trkpt>
      <trkpt lat="39.90775" lon="-4.93125">
        <ele>369.6</ele>
        <time>2020-08-16 16:28:35</time>
      </trkpt>
      <trkpt lat="39.90772" lon="-4.93122">
        <ele>369.4</ele>
        <time>2020-08-16 16:28:36</time>
      </trkpt>
      <trkpt lat="39.90768" lon="-4.93118">
        <ele>369.4</ele>
        <time>2020-08-16 16:28:37</time>
      </trkpt>
      <trkpt lat="39.90762" lon="-4.93111">
        <ele>368.6</ele>
        <time>2020-08-16 16:28:39</time>
      </trkpt>
      <trkpt lat="39.90753" lon="-4.931">
        <ele>368.4</ele>
        <time>2020-08-16 16:28:42</time>
      </trkpt>
      <trkpt lat="39.90749" lon="-4.93097">
        <ele>368.2</ele>
        <time>2020-08-16 16:28:43</time>
      </trkpt>
      <trkpt lat="39.90746" lon="-4.93094">
        <ele>368.2</ele>
        <time>2020-08-16 16:28:44</time>
      </trkpt>
      <trkpt lat="39.90743" lon="-4.9309">
        <ele>368.2</ele>
        <time>2020-08-16 16:28:45</time>
      </trkpt>
      <trkpt lat="39.90739" lon="-4.93087">
        <ele>368.2</ele>
        <time>2020-08-16 16:28:46</time>
      </trkpt>
      <trkpt lat="39.90735" lon="-4.93086">
        <ele>368</ele>
        <time>2020-08-16 16:28:47</time>
      </trkpt>
      <trkpt lat="39.90733" lon="-4.93088">
        <ele>368</ele>
        <time>2020-08-16 16:28:48</time>
      </trkpt>
      <trkpt lat="39.90731" lon="-4.93092">
        <ele>367.8</ele>
        <time>2020-08-16 16:28:49</time>
      </trkpt>
      <trkpt lat="39.90731" lon="-4.93097">
        <ele>367.8</ele>
        <time>2020-08-16 16:28:50</time>
      </trkpt>
      <trkpt lat="39.9073" lon="-4.93102">
        <ele>367.8</ele>
        <time>2020-08-16 16:28:51</time>
      </trkpt>
      <trkpt lat="39.90726" lon="-4.93111">
        <ele>367.8</ele>
        <time>2020-08-16 16:28:53</time>
      </trkpt>
      <trkpt lat="39.9072" lon="-4.93124">
        <ele>367.8</ele>
        <time>2020-08-16 16:28:56</time>
      </trkpt>
      <trkpt lat="39.90709" lon="-4.93153">
        <ele>367.8</ele>
        <time>2020-08-16 16:29:03</time>
      </trkpt>
      <trkpt lat="39.90707" lon="-4.93156">
        <ele>367.8</ele>
        <time>2020-08-16 16:29:04</time>
      </trkpt>
      <trkpt lat="39.90706" lon="-4.93159">
        <ele>367.8</ele>
        <time>2020-08-16 16:29:05</time>
      </trkpt>
      <trkpt lat="39.90705" lon="-4.93163">
        <ele>367.8</ele>
        <time>2020-08-16 16:29:06</time>
      </trkpt>
      <trkpt lat="39.90703" lon="-4.93166">
        <ele>367.8</ele>
        <time>2020-08-16 16:29:07</time>
      </trkpt>
      <trkpt lat="39.90701" lon="-4.93169">
        <ele>367.8</ele>
        <time>2020-08-16 16:29:08</time>
      </trkpt>
      <trkpt lat="39.907" lon="-4.93172">
        <ele>367.8</ele>
        <time>2020-08-16 16:29:09</time>
      </trkpt>
      <trkpt lat="39.90698" lon="-4.93176">
        <ele>368</ele>
        <time>2020-08-16 16:29:10</time>
      </trkpt>
      <trkpt lat="39.90696" lon="-4.93179">
        <ele>368.2</ele>
        <time>2020-08-16 16:29:11</time>
      </trkpt>
      <trkpt lat="39.90688" lon="-4.93197">
        <ele>368.8</ele>
        <time>2020-08-16 16:29:15</time>
      </trkpt>
      <trkpt lat="39.90686" lon="-4.93202">
        <ele>369</ele>
        <time>2020-08-16 16:29:16</time>
      </trkpt>
      <trkpt lat="39.90684" lon="-4.93207">
        <ele>369</ele>
        <time>2020-08-16 16:29:17</time>
      </trkpt>
      <trkpt lat="39.90681" lon="-4.93211">
        <ele>369</ele>
        <time>2020-08-16 16:29:18</time>
      </trkpt>
      <trkpt lat="39.90679" lon="-4.93216">
        <ele>369.2</ele>
        <time>2020-08-16 16:29:19</time>
      </trkpt>
      <trkpt lat="39.90677" lon="-4.93221">
        <ele>369.2</ele>
        <time>2020-08-16 16:29:20</time>
      </trkpt>
      <trkpt lat="39.90666" lon="-4.93243">
        <ele>369</ele>
        <time>2020-08-16 16:29:25</time>
      </trkpt>
      <trkpt lat="39.90664" lon="-4.93247">
        <ele>368.8</ele>
        <time>2020-08-16 16:29:26</time>
      </trkpt>
      <trkpt lat="39.90662" lon="-4.93252">
        <ele>368.8</ele>
        <time>2020-08-16 16:29:27</time>
      </trkpt>
      <trkpt lat="39.9066" lon="-4.93256">
        <ele>368.6</ele>
        <time>2020-08-16 16:29:28</time>
      </trkpt>
      <trkpt lat="39.90657" lon="-4.9326">
        <ele>368.6</ele>
        <time>2020-08-16 16:29:29</time>
      </trkpt>
      <trkpt lat="39.90655" lon="-4.93264">
        <ele>368.4</ele>
        <time>2020-08-16 16:29:30</time>
      </trkpt>
      <trkpt lat="39.90653" lon="-4.93268">
        <ele>368.4</ele>
        <time>2020-08-16 16:29:31</time>
      </trkpt>
      <trkpt lat="39.90651" lon="-4.93272">
        <ele>368.4</ele>
        <time>2020-08-16 16:29:32</time>
      </trkpt>
      <trkpt lat="39.90649" lon="-4.93276">
        <ele>368.4</ele>
        <time>2020-08-16 16:29:33</time>
      </trkpt>
      <trkpt lat="39.90647" lon="-4.9328">
        <ele>368.2</ele>
        <time>2020-08-16 16:29:34</time>
      </trkpt>
      <trkpt lat="39.90645" lon="-4.93285">
        <ele>368.2</ele>
        <time>2020-08-16 16:29:35</time>
      </trkpt>
      <trkpt lat="39.90642" lon="-4.93289">
        <ele>368.2</ele>
        <time>2020-08-16 16:29:36</time>
      </trkpt>
      <trkpt lat="39.9064" lon="-4.93293">
        <ele>368.4</ele>
        <time>2020-08-16 16:29:37</time>
      </trkpt>
      <trkpt lat="39.90638" lon="-4.93297">
        <ele>368.2</ele>
        <time>2020-08-16 16:29:38</time>
      </trkpt>
      <trkpt lat="39.90635" lon="-4.93301">
        <ele>368.2</ele>
        <time>2020-08-16 16:29:39</time>
      </trkpt>
      <trkpt lat="39.90633" lon="-4.93306">
        <ele>368.4</ele>
        <time>2020-08-16 16:29:40</time>
      </trkpt>
      <trkpt lat="39.90632" lon="-4.93309">
        <ele>368.4</ele>
        <time>2020-08-16 16:29:41</time>
      </trkpt>
      <trkpt lat="39.9063" lon="-4.93313">
        <ele>368.4</ele>
        <time>2020-08-16 16:29:42</time>
      </trkpt>
      <trkpt lat="39.90628" lon="-4.93317">
        <ele>368.4</ele>
        <time>2020-08-16 16:29:43</time>
      </trkpt>
      <trkpt lat="39.90626" lon="-4.93321">
        <ele>368.4</ele>
        <time>2020-08-16 16:29:44</time>
      </trkpt>
      <trkpt lat="39.90624" lon="-4.93325">
        <ele>368.4</ele>
        <time>2020-08-16 16:29:45</time>
      </trkpt>
      <trkpt lat="39.90622" lon="-4.93329">
        <ele>368.4</ele>
        <time>2020-08-16 16:29:46</time>
      </trkpt>
      <trkpt lat="39.9062" lon="-4.93333">
        <ele>368.4</ele>
        <time>2020-08-16 16:29:47</time>
      </trkpt>
      <trkpt lat="39.90618" lon="-4.93338">
        <ele>368.6</ele>
        <time>2020-08-16 16:29:48</time>
      </trkpt>
      <trkpt lat="39.90617" lon="-4.93342">
        <ele>368.6</ele>
        <time>2020-08-16 16:29:49</time>
      </trkpt>
      <trkpt lat="39.90615" lon="-4.93346">
        <ele>368.8</ele>
        <time>2020-08-16 16:29:50</time>
      </trkpt>
      <trkpt lat="39.90613" lon="-4.93349">
        <ele>368.8</ele>
        <time>2020-08-16 16:29:51</time>
      </trkpt>
      <trkpt lat="39.90612" lon="-4.93353">
        <ele>369</ele>
        <time>2020-08-16 16:29:52</time>
      </trkpt>
      <trkpt lat="39.9061" lon="-4.93358">
        <ele>369</ele>
        <time>2020-08-16 16:29:53</time>
      </trkpt>
      <trkpt lat="39.90608" lon="-4.93362">
        <ele>369.2</ele>
        <time>2020-08-16 16:29:54</time>
      </trkpt>
      <trkpt lat="39.90606" lon="-4.93366">
        <ele>369.2</ele>
        <time>2020-08-16 16:29:55</time>
      </trkpt>
      <trkpt lat="39.90604" lon="-4.9337">
        <ele>369.2</ele>
        <time>2020-08-16 16:29:56</time>
      </trkpt>
      <trkpt lat="39.90603" lon="-4.93374">
        <ele>369.2</ele>
        <time>2020-08-16 16:29:57</time>
      </trkpt>
      <trkpt lat="39.90601" lon="-4.93378">
        <ele>369.2</ele>
        <time>2020-08-16 16:29:58</time>
      </trkpt>
      <trkpt lat="39.90599" lon="-4.93382">
        <ele>369.2</ele>
        <time>2020-08-16 16:29:59</time>
      </trkpt>
      <trkpt lat="39.90598" lon="-4.93386">
        <ele>369.2</ele>
        <time>2020-08-16 16:30:00</time>
      </trkpt>
      <trkpt lat="39.90596" lon="-4.9339">
        <ele>369.2</ele>
        <time>2020-08-16 16:30:01</time>
      </trkpt>
      <trkpt lat="39.90594" lon="-4.93394">
        <ele>369.2</ele>
        <time>2020-08-16 16:30:02</time>
      </trkpt>
      <trkpt lat="39.90592" lon="-4.93397">
        <ele>369.2</ele>
        <time>2020-08-16 16:30:03</time>
      </trkpt>
      <trkpt lat="39.9059" lon="-4.93401">
        <ele>369.2</ele>
        <time>2020-08-16 16:30:04</time>
      </trkpt>
      <trkpt lat="39.90588" lon="-4.93405">
        <ele>369</ele>
        <time>2020-08-16 16:30:05</time>
      </trkpt>
      <trkpt lat="39.90587" lon="-4.93409">
        <ele>369</ele>
        <time>2020-08-16 16:30:06</time>
      </trkpt>
      <trkpt lat="39.90585" lon="-4.93413">
        <ele>369</ele>
        <time>2020-08-16 16:30:07</time>
      </trkpt>
      <trkpt lat="39.90583" lon="-4.93418">
        <ele>369</ele>
        <time>2020-08-16 16:30:08</time>
      </trkpt>
      <trkpt lat="39.90581" lon="-4.93422">
        <ele>369</ele>
        <time>2020-08-16 16:30:09</time>
      </trkpt>
      <trkpt lat="39.9058" lon="-4.93426">
        <ele>369</ele>
        <time>2020-08-16 16:30:10</time>
      </trkpt>
      <trkpt lat="39.90569" lon="-4.93452">
        <ele>369.8</ele>
        <time>2020-08-16 16:30:16</time>
      </trkpt>
      <trkpt lat="39.90568" lon="-4.93456">
        <ele>370</ele>
        <time>2020-08-16 16:30:17</time>
      </trkpt>
      <trkpt lat="39.90566" lon="-4.9346">
        <ele>370</ele>
        <time>2020-08-16 16:30:18</time>
      </trkpt>
      <trkpt lat="39.90565" lon="-4.93464">
        <ele>370.2</ele>
        <time>2020-08-16 16:30:19</time>
      </trkpt>
      <trkpt lat="39.90563" lon="-4.93468">
        <ele>370.2</ele>
        <time>2020-08-16 16:30:20</time>
      </trkpt>
      <trkpt lat="39.90562" lon="-4.93473">
        <ele>370.2</ele>
        <time>2020-08-16 16:30:21</time>
      </trkpt>
      <trkpt lat="39.9056" lon="-4.93477">
        <ele>370.2</ele>
        <time>2020-08-16 16:30:22</time>
      </trkpt>
      <trkpt lat="39.90559" lon="-4.93481">
        <ele>370.2</ele>
        <time>2020-08-16 16:30:23</time>
      </trkpt>
      <trkpt lat="39.90557" lon="-4.93485">
        <ele>370.2</ele>
        <time>2020-08-16 16:30:24</time>
      </trkpt>
      <trkpt lat="39.90556" lon="-4.9349">
        <ele>370.2</ele>
        <time>2020-08-16 16:30:25</time>
      </trkpt>
      <trkpt lat="39.90554" lon="-4.93494">
        <ele>370.2</ele>
        <time>2020-08-16 16:30:26</time>
      </trkpt>
      <trkpt lat="39.90541" lon="-4.93528">
        <ele>370.4</ele>
        <time>2020-08-16 16:30:34</time>
      </trkpt>
      <trkpt lat="39.90539" lon="-4.93532">
        <ele>370.4</ele>
        <time>2020-08-16 16:30:35</time>
      </trkpt>
      <trkpt lat="39.90537" lon="-4.93536">
        <ele>370.4</ele>
        <time>2020-08-16 16:30:36</time>
      </trkpt>
      <trkpt lat="39.90535" lon="-4.93541">
        <ele>370.6</ele>
        <time>2020-08-16 16:30:37</time>
      </trkpt>
      <trkpt lat="39.90534" lon="-4.93545">
        <ele>370.6</ele>
        <time>2020-08-16 16:30:38</time>
      </trkpt>
      <trkpt lat="39.90532" lon="-4.93549">
        <ele>370.8</ele>
        <time>2020-08-16 16:30:39</time>
      </trkpt>
      <trkpt lat="39.9053" lon="-4.93553">
        <ele>370.8</ele>
        <time>2020-08-16 16:30:40</time>
      </trkpt>
      <trkpt lat="39.90528" lon="-4.93557">
        <ele>370.8</ele>
        <time>2020-08-16 16:30:41</time>
      </trkpt>
      <trkpt lat="39.90527" lon="-4.93561">
        <ele>371</ele>
        <time>2020-08-16 16:30:42</time>
      </trkpt>
      <trkpt lat="39.90525" lon="-4.93565">
        <ele>371</ele>
        <time>2020-08-16 16:30:43</time>
      </trkpt>
      <trkpt lat="39.90524" lon="-4.9357">
        <ele>371</ele>
        <time>2020-08-16 16:30:44</time>
      </trkpt>
      <trkpt lat="39.90522" lon="-4.93574">
        <ele>371</ele>
        <time>2020-08-16 16:30:45</time>
      </trkpt>
      <trkpt lat="39.9052" lon="-4.93578">
        <ele>371.2</ele>
        <time>2020-08-16 16:30:46</time>
      </trkpt>
      <trkpt lat="39.90519" lon="-4.93582">
        <ele>371.2</ele>
        <time>2020-08-16 16:30:47</time>
      </trkpt>
      <trkpt lat="39.90517" lon="-4.93585">
        <ele>371.4</ele>
        <time>2020-08-16 16:30:48</time>
      </trkpt>
      <trkpt lat="39.90515" lon="-4.93589">
        <ele>371.4</ele>
        <time>2020-08-16 16:30:49</time>
      </trkpt>
      <trkpt lat="39.90514" lon="-4.93593">
        <ele>371.4</ele>
        <time>2020-08-16 16:30:50</time>
      </trkpt>
      <trkpt lat="39.90512" lon="-4.93597">
        <ele>371.6</ele>
        <time>2020-08-16 16:30:51</time>
      </trkpt>
      <trkpt lat="39.9051" lon="-4.936">
        <ele>371.6</ele>
        <time>2020-08-16 16:30:52</time>
      </trkpt>
      <trkpt lat="39.90508" lon="-4.93604">
        <ele>371.6</ele>
        <time>2020-08-16 16:30:53</time>
      </trkpt>
      <trkpt lat="39.90507" lon="-4.93608">
        <ele>371.8</ele>
        <time>2020-08-16 16:30:54</time>
      </trkpt>
      <trkpt lat="39.90505" lon="-4.93611">
        <ele>371.8</ele>
        <time>2020-08-16 16:30:55</time>
      </trkpt>
      <trkpt lat="39.90503" lon="-4.93615">
        <ele>371.8</ele>
        <time>2020-08-16 16:30:56</time>
      </trkpt>
      <trkpt lat="39.90501" lon="-4.93618">
        <ele>371.8</ele>
        <time>2020-08-16 16:30:57</time>
      </trkpt>
      <trkpt lat="39.90499" lon="-4.93622">
        <ele>371.8</ele>
        <time>2020-08-16 16:30:58</time>
      </trkpt>
      <trkpt lat="39.90497" lon="-4.93625">
        <ele>372</ele>
        <time>2020-08-16 16:30:59</time>
      </trkpt>
      <trkpt lat="39.90495" lon="-4.93628">
        <ele>372</ele>
        <time>2020-08-16 16:31:00</time>
      </trkpt>
      <trkpt lat="39.90494" lon="-4.93632">
        <ele>372.2</ele>
        <time>2020-08-16 16:31:01</time>
      </trkpt>
      <trkpt lat="39.90492" lon="-4.93635">
        <ele>372.2</ele>
        <time>2020-08-16 16:31:02</time>
      </trkpt>
      <trkpt lat="39.9049" lon="-4.93638">
        <ele>372.2</ele>
        <time>2020-08-16 16:31:03</time>
      </trkpt>
      <trkpt lat="39.90488" lon="-4.93642">
        <ele>372.4</ele>
        <time>2020-08-16 16:31:04</time>
      </trkpt>
      <trkpt lat="39.90486" lon="-4.93646">
        <ele>372.2</ele>
        <time>2020-08-16 16:31:05</time>
      </trkpt>
      <trkpt lat="39.90484" lon="-4.9365">
        <ele>372.2</ele>
        <time>2020-08-16 16:31:06</time>
      </trkpt>
      <trkpt lat="39.90481" lon="-4.93654">
        <ele>372.2</ele>
        <time>2020-08-16 16:31:07</time>
      </trkpt>
      <trkpt lat="39.90479" lon="-4.93658">
        <ele>372.2</ele>
        <time>2020-08-16 16:31:08</time>
      </trkpt>
      <trkpt lat="39.90469" lon="-4.93678">
        <ele>372.6</ele>
        <time>2020-08-16 16:31:13</time>
      </trkpt>
      <trkpt lat="39.90457" lon="-4.93703">
        <ele>373.2</ele>
        <time>2020-08-16 16:31:19</time>
      </trkpt>
      <trkpt lat="39.90455" lon="-4.93707">
        <ele>373.2</ele>
        <time>2020-08-16 16:31:20</time>
      </trkpt>
      <trkpt lat="39.90454" lon="-4.93711">
        <ele>373.4</ele>
        <time>2020-08-16 16:31:21</time>
      </trkpt>
      <trkpt lat="39.90452" lon="-4.93715">
        <ele>373.4</ele>
        <time>2020-08-16 16:31:22</time>
      </trkpt>
      <trkpt lat="39.9045" lon="-4.93719">
        <ele>373.4</ele>
        <time>2020-08-16 16:31:23</time>
      </trkpt>
      <trkpt lat="39.90449" lon="-4.93723">
        <ele>373.4</ele>
        <time>2020-08-16 16:31:24</time>
      </trkpt>
      <trkpt lat="39.90447" lon="-4.93727">
        <ele>373.4</ele>
        <time>2020-08-16 16:31:25</time>
      </trkpt>
      <trkpt lat="39.90446" lon="-4.93732">
        <ele>373.4</ele>
        <time>2020-08-16 16:31:26</time>
      </trkpt>
      <trkpt lat="39.90444" lon="-4.93736">
        <ele>373.4</ele>
        <time>2020-08-16 16:31:27</time>
      </trkpt>
      <trkpt lat="39.90437" lon="-4.93758">
        <ele>373.6</ele>
        <time>2020-08-16 16:31:32</time>
      </trkpt>
      <trkpt lat="39.90434" lon="-4.93767">
        <ele>373.8</ele>
        <time>2020-08-16 16:31:34</time>
      </trkpt>
      <trkpt lat="39.90417" lon="-4.93811">
        <ele>373.8</ele>
        <time>2020-08-16 16:31:43</time>
      </trkpt>
      <trkpt lat="39.9041" lon="-4.9383">
        <ele>373.6</ele>
        <time>2020-08-16 16:31:47</time>
      </trkpt>
      <trkpt lat="39.90397" lon="-4.93859">
        <ele>373.6</ele>
        <time>2020-08-16 16:31:53</time>
      </trkpt>
      <trkpt lat="39.9038" lon="-4.93899">
        <ele>373.6</ele>
        <time>2020-08-16 16:32:01</time>
      </trkpt>
      <trkpt lat="39.90374" lon="-4.93913">
        <ele>373.6</ele>
        <time>2020-08-16 16:32:04</time>
      </trkpt>
      <trkpt lat="39.90372" lon="-4.93918">
        <ele>373.4</ele>
        <time>2020-08-16 16:32:05</time>
      </trkpt>
      <trkpt lat="39.9037" lon="-4.93922">
        <ele>373.2</ele>
        <time>2020-08-16 16:32:06</time>
      </trkpt>
      <trkpt lat="39.90368" lon="-4.93927">
        <ele>373</ele>
        <time>2020-08-16 16:32:07</time>
      </trkpt>
      <trkpt lat="39.90366" lon="-4.93931">
        <ele>373</ele>
        <time>2020-08-16 16:32:08</time>
      </trkpt>
      <trkpt lat="39.90364" lon="-4.93936">
        <ele>373.2</ele>
        <time>2020-08-16 16:32:09</time>
      </trkpt>
      <trkpt lat="39.90362" lon="-4.9394">
        <ele>373.2</ele>
        <time>2020-08-16 16:32:10</time>
      </trkpt>
      <trkpt lat="39.9036" lon="-4.93945">
        <ele>373.4</ele>
        <time>2020-08-16 16:32:11</time>
      </trkpt>
      <trkpt lat="39.90358" lon="-4.93949">
        <ele>373.4</ele>
        <time>2020-08-16 16:32:12</time>
      </trkpt>
      <trkpt lat="39.90356" lon="-4.93953">
        <ele>373.4</ele>
        <time>2020-08-16 16:32:13</time>
      </trkpt>
      <trkpt lat="39.90354" lon="-4.93958">
        <ele>373.4</ele>
        <time>2020-08-16 16:32:14</time>
      </trkpt>
      <trkpt lat="39.90352" lon="-4.93962">
        <ele>373.4</ele>
        <time>2020-08-16 16:32:15</time>
      </trkpt>
      <trkpt lat="39.9035" lon="-4.93967">
        <ele>373.4</ele>
        <time>2020-08-16 16:32:16</time>
      </trkpt>
      <trkpt lat="39.90348" lon="-4.93971">
        <ele>373.4</ele>
        <time>2020-08-16 16:32:17</time>
      </trkpt>
      <trkpt lat="39.90346" lon="-4.93976">
        <ele>373.4</ele>
        <time>2020-08-16 16:32:18</time>
      </trkpt>
      <trkpt lat="39.90344" lon="-4.9398">
        <ele>373.4</ele>
        <time>2020-08-16 16:32:19</time>
      </trkpt>
      <trkpt lat="39.90342" lon="-4.93985">
        <ele>373.4</ele>
        <time>2020-08-16 16:32:20</time>
      </trkpt>
      <trkpt lat="39.9034" lon="-4.93989">
        <ele>373.4</ele>
        <time>2020-08-16 16:32:21</time>
      </trkpt>
      <trkpt lat="39.90338" lon="-4.93993">
        <ele>373.4</ele>
        <time>2020-08-16 16:32:22</time>
      </trkpt>
      <trkpt lat="39.90336" lon="-4.93998">
        <ele>373.4</ele>
        <time>2020-08-16 16:32:23</time>
      </trkpt>
      <trkpt lat="39.90333" lon="-4.94002">
        <ele>373.2</ele>
        <time>2020-08-16 16:32:24</time>
      </trkpt>
      <trkpt lat="39.90331" lon="-4.94007">
        <ele>373.2</ele>
        <time>2020-08-16 16:32:25</time>
      </trkpt>
      <trkpt lat="39.90321" lon="-4.94024">
        <ele>373.2</ele>
        <time>2020-08-16 16:32:29</time>
      </trkpt>
      <trkpt lat="39.90313" lon="-4.94037">
        <ele>373.4</ele>
        <time>2020-08-16 16:32:32</time>
      </trkpt>
      <trkpt lat="39.90308" lon="-4.94044">
        <ele>373.6</ele>
        <time>2020-08-16 16:32:34</time>
      </trkpt>
      <trkpt lat="39.90306" lon="-4.94049">
        <ele>373.6</ele>
        <time>2020-08-16 16:32:35</time>
      </trkpt>
      <trkpt lat="39.90303" lon="-4.94053">
        <ele>373.8</ele>
        <time>2020-08-16 16:32:36</time>
      </trkpt>
      <trkpt lat="39.90301" lon="-4.94057">
        <ele>373.6</ele>
        <time>2020-08-16 16:32:37</time>
      </trkpt>
      <trkpt lat="39.90288" lon="-4.94078">
        <ele>373.6</ele>
        <time>2020-08-16 16:32:42</time>
      </trkpt>
      <trkpt lat="39.90283" lon="-4.94086">
        <ele>373.6</ele>
        <time>2020-08-16 16:32:44</time>
      </trkpt>
      <trkpt lat="39.90273" lon="-4.94101">
        <ele>373.2</ele>
        <time>2020-08-16 16:32:48</time>
      </trkpt>
      <trkpt lat="39.90271" lon="-4.94105">
        <ele>373.4</ele>
        <time>2020-08-16 16:32:49</time>
      </trkpt>
      <trkpt lat="39.90269" lon="-4.94109">
        <ele>373.2</ele>
        <time>2020-08-16 16:32:50</time>
      </trkpt>
      <trkpt lat="39.90266" lon="-4.94113">
        <ele>373</ele>
        <time>2020-08-16 16:32:51</time>
      </trkpt>
      <trkpt lat="39.90264" lon="-4.94118">
        <ele>373</ele>
        <time>2020-08-16 16:32:52</time>
      </trkpt>
      <trkpt lat="39.90262" lon="-4.94122">
        <ele>372.8</ele>
        <time>2020-08-16 16:32:53</time>
      </trkpt>
      <trkpt lat="39.9026" lon="-4.94126">
        <ele>372.8</ele>
        <time>2020-08-16 16:32:54</time>
      </trkpt>
      <trkpt lat="39.90259" lon="-4.9413">
        <ele>372.8</ele>
        <time>2020-08-16 16:32:55</time>
      </trkpt>
      <trkpt lat="39.90257" lon="-4.94134">
        <ele>372.8</ele>
        <time>2020-08-16 16:32:56</time>
      </trkpt>
      <trkpt lat="39.90256" lon="-4.94138">
        <ele>372.8</ele>
        <time>2020-08-16 16:32:57</time>
      </trkpt>
      <trkpt lat="39.90254" lon="-4.94142">
        <ele>372.8</ele>
        <time>2020-08-16 16:32:58</time>
      </trkpt>
      <trkpt lat="39.90252" lon="-4.94146">
        <ele>372.8</ele>
        <time>2020-08-16 16:32:59</time>
      </trkpt>
      <trkpt lat="39.90251" lon="-4.9415">
        <ele>372.8</ele>
        <time>2020-08-16 16:33:00</time>
      </trkpt>
      <trkpt lat="39.90249" lon="-4.94154">
        <ele>372.6</ele>
        <time>2020-08-16 16:33:01</time>
      </trkpt>
      <trkpt lat="39.90248" lon="-4.94158">
        <ele>372.6</ele>
        <time>2020-08-16 16:33:02</time>
      </trkpt>
      <trkpt lat="39.90247" lon="-4.94162">
        <ele>372.4</ele>
        <time>2020-08-16 16:33:03</time>
      </trkpt>
      <trkpt lat="39.90245" lon="-4.94165">
        <ele>372.4</ele>
        <time>2020-08-16 16:33:04</time>
      </trkpt>
      <trkpt lat="39.90244" lon="-4.94169">
        <ele>372.4</ele>
        <time>2020-08-16 16:33:05</time>
      </trkpt>
      <trkpt lat="39.90242" lon="-4.94174">
        <ele>372.4</ele>
        <time>2020-08-16 16:33:06</time>
      </trkpt>
      <trkpt lat="39.9024" lon="-4.94178">
        <ele>372.4</ele>
        <time>2020-08-16 16:33:07</time>
      </trkpt>
      <trkpt lat="39.90239" lon="-4.94182">
        <ele>372.2</ele>
        <time>2020-08-16 16:33:08</time>
      </trkpt>
      <trkpt lat="39.90237" lon="-4.94186">
        <ele>372.2</ele>
        <time>2020-08-16 16:33:09</time>
      </trkpt>
      <trkpt lat="39.90235" lon="-4.9419">
        <ele>372.2</ele>
        <time>2020-08-16 16:33:10</time>
      </trkpt>
      <trkpt lat="39.90233" lon="-4.94193">
        <ele>372.2</ele>
        <time>2020-08-16 16:33:11</time>
      </trkpt>
      <trkpt lat="39.90231" lon="-4.94196">
        <ele>372.2</ele>
        <time>2020-08-16 16:33:12</time>
      </trkpt>
      <trkpt lat="39.90228" lon="-4.942">
        <ele>372.2</ele>
        <time>2020-08-16 16:33:13</time>
      </trkpt>
      <trkpt lat="39.90226" lon="-4.94202">
        <ele>372.2</ele>
        <time>2020-08-16 16:33:14</time>
      </trkpt>
      <trkpt lat="39.90224" lon="-4.94205">
        <ele>372.2</ele>
        <time>2020-08-16 16:33:15</time>
      </trkpt>
      <trkpt lat="39.90223" lon="-4.94209">
        <ele>372.2</ele>
        <time>2020-08-16 16:33:16</time>
      </trkpt>
      <trkpt lat="39.90221" lon="-4.94212">
        <ele>372.2</ele>
        <time>2020-08-16 16:33:17</time>
      </trkpt>
      <trkpt lat="39.90219" lon="-4.94215">
        <ele>372.2</ele>
        <time>2020-08-16 16:33:18</time>
      </trkpt>
      <trkpt lat="39.90218" lon="-4.94217">
        <ele>372</ele>
        <time>2020-08-16 16:33:19</time>
      </trkpt>
      <trkpt lat="39.90216" lon="-4.9422">
        <ele>372</ele>
        <time>2020-08-16 16:33:20</time>
      </trkpt>
      <trkpt lat="39.90214" lon="-4.94223">
        <ele>372</ele>
        <time>2020-08-16 16:33:21</time>
      </trkpt>
      <trkpt lat="39.90212" lon="-4.94226">
        <ele>371.8</ele>
        <time>2020-08-16 16:33:22</time>
      </trkpt>
      <trkpt lat="39.9021" lon="-4.9423">
        <ele>371.8</ele>
        <time>2020-08-16 16:33:23</time>
      </trkpt>
      <trkpt lat="39.90208" lon="-4.94233">
        <ele>371.8</ele>
        <time>2020-08-16 16:33:24</time>
      </trkpt>
      <trkpt lat="39.90207" lon="-4.94237">
        <ele>371.6</ele>
        <time>2020-08-16 16:33:25</time>
      </trkpt>
      <trkpt lat="39.90198" lon="-4.94253">
        <ele>371.4</ele>
        <time>2020-08-16 16:33:29</time>
      </trkpt>
      <trkpt lat="39.90191" lon="-4.9427">
        <ele>371.4</ele>
        <time>2020-08-16 16:33:33</time>
      </trkpt>
      <trkpt lat="39.90169" lon="-4.94317">
        <ele>371.4</ele>
        <time>2020-08-16 16:33:44</time>
      </trkpt>
      <trkpt lat="39.90145" lon="-4.94365">
        <ele>371.4</ele>
        <time>2020-08-16 16:33:55</time>
      </trkpt>
      <trkpt lat="39.90143" lon="-4.94369">
        <ele>371.4</ele>
        <time>2020-08-16 16:33:56</time>
      </trkpt>
      <trkpt lat="39.9014" lon="-4.94374">
        <ele>371.4</ele>
        <time>2020-08-16 16:33:57</time>
      </trkpt>
      <trkpt lat="39.90138" lon="-4.94378">
        <ele>371.4</ele>
        <time>2020-08-16 16:33:58</time>
      </trkpt>
      <trkpt lat="39.90136" lon="-4.94382">
        <ele>371.4</ele>
        <time>2020-08-16 16:33:59</time>
      </trkpt>
      <trkpt lat="39.90133" lon="-4.94386">
        <ele>371.4</ele>
        <time>2020-08-16 16:34:00</time>
      </trkpt>
      <trkpt lat="39.90132" lon="-4.94391">
        <ele>371.4</ele>
        <time>2020-08-16 16:34:01</time>
      </trkpt>
      <trkpt lat="39.9013" lon="-4.94395">
        <ele>371.4</ele>
        <time>2020-08-16 16:34:02</time>
      </trkpt>
      <trkpt lat="39.90129" lon="-4.94399">
        <ele>371.4</ele>
        <time>2020-08-16 16:34:03</time>
      </trkpt>
      <trkpt lat="39.90127" lon="-4.94403">
        <ele>371.4</ele>
        <time>2020-08-16 16:34:04</time>
      </trkpt>
      <trkpt lat="39.90125" lon="-4.94407">
        <ele>371.4</ele>
        <time>2020-08-16 16:34:05</time>
      </trkpt>
      <trkpt lat="39.90123" lon="-4.94412">
        <ele>371.4</ele>
        <time>2020-08-16 16:34:06</time>
      </trkpt>
      <trkpt lat="39.90122" lon="-4.94416">
        <ele>371.2</ele>
        <time>2020-08-16 16:34:07</time>
      </trkpt>
      <trkpt lat="39.9012" lon="-4.9442">
        <ele>371.2</ele>
        <time>2020-08-16 16:34:08</time>
      </trkpt>
      <trkpt lat="39.90118" lon="-4.94424">
        <ele>371.2</ele>
        <time>2020-08-16 16:34:09</time>
      </trkpt>
      <trkpt lat="39.90116" lon="-4.94428">
        <ele>371.2</ele>
        <time>2020-08-16 16:34:10</time>
      </trkpt>
      <trkpt lat="39.90114" lon="-4.94431">
        <ele>371.2</ele>
        <time>2020-08-16 16:34:11</time>
      </trkpt>
      <trkpt lat="39.90112" lon="-4.94435">
        <ele>371.2</ele>
        <time>2020-08-16 16:34:12</time>
      </trkpt>
      <trkpt lat="39.9011" lon="-4.94439">
        <ele>371.2</ele>
        <time>2020-08-16 16:34:13</time>
      </trkpt>
      <trkpt lat="39.90108" lon="-4.94443">
        <ele>371.2</ele>
        <time>2020-08-16 16:34:14</time>
      </trkpt>
      <trkpt lat="39.90106" lon="-4.94447">
        <ele>371.2</ele>
        <time>2020-08-16 16:34:15</time>
      </trkpt>
      <trkpt lat="39.90104" lon="-4.94451">
        <ele>371.2</ele>
        <time>2020-08-16 16:34:16</time>
      </trkpt>
      <trkpt lat="39.90103" lon="-4.94455">
        <ele>371.2</ele>
        <time>2020-08-16 16:34:17</time>
      </trkpt>
      <trkpt lat="39.90096" lon="-4.94472">
        <ele>371.4</ele>
        <time>2020-08-16 16:34:21</time>
      </trkpt>
      <trkpt lat="39.90076" lon="-4.94517">
        <ele>371</ele>
        <time>2020-08-16 16:34:31</time>
      </trkpt>
      <trkpt lat="39.90056" lon="-4.94557">
        <ele>371</ele>
        <time>2020-08-16 16:34:40</time>
      </trkpt>
      <trkpt lat="39.90049" lon="-4.9457">
        <ele>371.2</ele>
        <time>2020-08-16 16:34:43</time>
      </trkpt>
      <trkpt lat="39.90046" lon="-4.94575">
        <ele>371</ele>
        <time>2020-08-16 16:34:44</time>
      </trkpt>
      <trkpt lat="39.90039" lon="-4.94588">
        <ele>371</ele>
        <time>2020-08-16 16:34:47</time>
      </trkpt>
      <trkpt lat="39.90034" lon="-4.94596">
        <ele>370.8</ele>
        <time>2020-08-16 16:34:49</time>
      </trkpt>
      <trkpt lat="39.90026" lon="-4.94608">
        <ele>371</ele>
        <time>2020-08-16 16:34:52</time>
      </trkpt>
      <trkpt lat="39.90024" lon="-4.94612">
        <ele>371.2</ele>
        <time>2020-08-16 16:34:53</time>
      </trkpt>
      <trkpt lat="39.90021" lon="-4.94616">
        <ele>371.4</ele>
        <time>2020-08-16 16:34:54</time>
      </trkpt>
      <trkpt lat="39.90019" lon="-4.9462">
        <ele>371.4</ele>
        <time>2020-08-16 16:34:55</time>
      </trkpt>
      <trkpt lat="39.90016" lon="-4.94624">
        <ele>371.4</ele>
        <time>2020-08-16 16:34:56</time>
      </trkpt>
      <trkpt lat="39.90014" lon="-4.94628">
        <ele>371.4</ele>
        <time>2020-08-16 16:34:57</time>
      </trkpt>
      <trkpt lat="39.89995" lon="-4.94657">
        <ele>371.2</ele>
        <time>2020-08-16 16:35:04</time>
      </trkpt>
      <trkpt lat="39.89966" lon="-4.94698">
        <ele>370.8</ele>
        <time>2020-08-16 16:35:14</time>
      </trkpt>
      <trkpt lat="39.89959" lon="-4.94707">
        <ele>370.6</ele>
        <time>2020-08-16 16:35:16</time>
      </trkpt>
      <trkpt lat="39.89944" lon="-4.94736">
        <ele>370.2</ele>
        <time>2020-08-16 16:35:22</time>
      </trkpt>
      <trkpt lat="39.89937" lon="-4.94751">
        <ele>370.2</ele>
        <time>2020-08-16 16:35:25</time>
      </trkpt>
      <trkpt lat="39.89934" lon="-4.94756">
        <ele>370.2</ele>
        <time>2020-08-16 16:35:26</time>
      </trkpt>
      <trkpt lat="39.89932" lon="-4.9476">
        <ele>370.2</ele>
        <time>2020-08-16 16:35:27</time>
      </trkpt>
      <trkpt lat="39.89929" lon="-4.94765">
        <ele>370</ele>
        <time>2020-08-16 16:35:28</time>
      </trkpt>
      <trkpt lat="39.89926" lon="-4.9477">
        <ele>370</ele>
        <time>2020-08-16 16:35:29</time>
      </trkpt>
      <trkpt lat="39.89924" lon="-4.94774">
        <ele>370</ele>
        <time>2020-08-16 16:35:30</time>
      </trkpt>
      <trkpt lat="39.89922" lon="-4.94779">
        <ele>370.2</ele>
        <time>2020-08-16 16:35:31</time>
      </trkpt>
      <trkpt lat="39.8991" lon="-4.94804">
        <ele>370</ele>
        <time>2020-08-16 16:35:36</time>
      </trkpt>
      <trkpt lat="39.89908" lon="-4.94808">
        <ele>369.8</ele>
        <time>2020-08-16 16:35:37</time>
      </trkpt>
      <trkpt lat="39.89906" lon="-4.94813">
        <ele>369.4</ele>
        <time>2020-08-16 16:35:38</time>
      </trkpt>
      <trkpt lat="39.89903" lon="-4.94817">
        <ele>369.2</ele>
        <time>2020-08-16 16:35:39</time>
      </trkpt>
      <trkpt lat="39.89901" lon="-4.94821">
        <ele>369.2</ele>
        <time>2020-08-16 16:35:40</time>
      </trkpt>
      <trkpt lat="39.89899" lon="-4.94825">
        <ele>369</ele>
        <time>2020-08-16 16:35:41</time>
      </trkpt>
      <trkpt lat="39.89897" lon="-4.9483">
        <ele>369</ele>
        <time>2020-08-16 16:35:42</time>
      </trkpt>
      <trkpt lat="39.89895" lon="-4.94834">
        <ele>368.8</ele>
        <time>2020-08-16 16:35:43</time>
      </trkpt>
      <trkpt lat="39.89892" lon="-4.94839">
        <ele>368.8</ele>
        <time>2020-08-16 16:35:44</time>
      </trkpt>
      <trkpt lat="39.8989" lon="-4.94844">
        <ele>368.8</ele>
        <time>2020-08-16 16:35:45</time>
      </trkpt>
      <trkpt lat="39.89887" lon="-4.94849">
        <ele>368.8</ele>
        <time>2020-08-16 16:35:46</time>
      </trkpt>
      <trkpt lat="39.89883" lon="-4.94858">
        <ele>368.8</ele>
        <time>2020-08-16 16:35:48</time>
      </trkpt>
      <trkpt lat="39.89862" lon="-4.94895">
        <ele>368.8</ele>
        <time>2020-08-16 16:35:56</time>
      </trkpt>
      <trkpt lat="39.89859" lon="-4.949">
        <ele>368.8</ele>
        <time>2020-08-16 16:35:57</time>
      </trkpt>
      <trkpt lat="39.89857" lon="-4.94904">
        <ele>368.8</ele>
        <time>2020-08-16 16:35:58</time>
      </trkpt>
      <trkpt lat="39.89854" lon="-4.94909">
        <ele>368.8</ele>
        <time>2020-08-16 16:35:59</time>
      </trkpt>
      <trkpt lat="39.89843" lon="-4.94928">
        <ele>368.6</ele>
        <time>2020-08-16 16:36:03</time>
      </trkpt>
      <trkpt lat="39.89841" lon="-4.94933">
        <ele>368.6</ele>
        <time>2020-08-16 16:36:04</time>
      </trkpt>
      <trkpt lat="39.89838" lon="-4.94937">
        <ele>368.6</ele>
        <time>2020-08-16 16:36:05</time>
      </trkpt>
      <trkpt lat="39.89836" lon="-4.94942">
        <ele>368.6</ele>
        <time>2020-08-16 16:36:06</time>
      </trkpt>
      <trkpt lat="39.89833" lon="-4.94946">
        <ele>368.6</ele>
        <time>2020-08-16 16:36:07</time>
      </trkpt>
      <trkpt lat="39.8983" lon="-4.94951">
        <ele>368.6</ele>
        <time>2020-08-16 16:36:08</time>
      </trkpt>
      <trkpt lat="39.89828" lon="-4.94955">
        <ele>368.6</ele>
        <time>2020-08-16 16:36:09</time>
      </trkpt>
      <trkpt lat="39.89825" lon="-4.94959">
        <ele>368.4</ele>
        <time>2020-08-16 16:36:10</time>
      </trkpt>
      <trkpt lat="39.89822" lon="-4.94964">
        <ele>368.4</ele>
        <time>2020-08-16 16:36:11</time>
      </trkpt>
      <trkpt lat="39.89819" lon="-4.94968">
        <ele>368.4</ele>
        <time>2020-08-16 16:36:12</time>
      </trkpt>
      <trkpt lat="39.89816" lon="-4.94973">
        <ele>368.6</ele>
        <time>2020-08-16 16:36:13</time>
      </trkpt>
      <trkpt lat="39.89813" lon="-4.94977">
        <ele>368.6</ele>
        <time>2020-08-16 16:36:14</time>
      </trkpt>
      <trkpt lat="39.8981" lon="-4.94981">
        <ele>368.6</ele>
        <time>2020-08-16 16:36:15</time>
      </trkpt>
      <trkpt lat="39.89807" lon="-4.94986">
        <ele>368.4</ele>
        <time>2020-08-16 16:36:16</time>
      </trkpt>
      <trkpt lat="39.89804" lon="-4.9499">
        <ele>368.4</ele>
        <time>2020-08-16 16:36:17</time>
      </trkpt>
      <trkpt lat="39.89795" lon="-4.95003">
        <ele>368.2</ele>
        <time>2020-08-16 16:36:20</time>
      </trkpt>
      <trkpt lat="39.89792" lon="-4.95007">
        <ele>368.2</ele>
        <time>2020-08-16 16:36:21</time>
      </trkpt>
      <trkpt lat="39.89789" lon="-4.95011">
        <ele>368.2</ele>
        <time>2020-08-16 16:36:22</time>
      </trkpt>
      <trkpt lat="39.89786" lon="-4.95015">
        <ele>368.4</ele>
        <time>2020-08-16 16:36:23</time>
      </trkpt>
      <trkpt lat="39.89782" lon="-4.95019">
        <ele>368.4</ele>
        <time>2020-08-16 16:36:24</time>
      </trkpt>
      <trkpt lat="39.89779" lon="-4.95022">
        <ele>368.4</ele>
        <time>2020-08-16 16:36:25</time>
      </trkpt>
      <trkpt lat="39.89775" lon="-4.95026">
        <ele>368.4</ele>
        <time>2020-08-16 16:36:26</time>
      </trkpt>
      <trkpt lat="39.89772" lon="-4.95029">
        <ele>368.4</ele>
        <time>2020-08-16 16:36:27</time>
      </trkpt>
      <trkpt lat="39.89769" lon="-4.95032">
        <ele>368.4</ele>
        <time>2020-08-16 16:36:28</time>
      </trkpt>
      <trkpt lat="39.89766" lon="-4.95035">
        <ele>368.4</ele>
        <time>2020-08-16 16:36:29</time>
      </trkpt>
      <trkpt lat="39.89762" lon="-4.95038">
        <ele>368.4</ele>
        <time>2020-08-16 16:36:30</time>
      </trkpt>
      <trkpt lat="39.89759" lon="-4.9504">
        <ele>368.4</ele>
        <time>2020-08-16 16:36:31</time>
      </trkpt>
      <trkpt lat="39.89756" lon="-4.95043">
        <ele>368.6</ele>
        <time>2020-08-16 16:36:32</time>
      </trkpt>
      <trkpt lat="39.89753" lon="-4.95046">
        <ele>368.4</ele>
        <time>2020-08-16 16:36:33</time>
      </trkpt>
      <trkpt lat="39.89751" lon="-4.95048">
        <ele>368.6</ele>
        <time>2020-08-16 16:36:34</time>
      </trkpt>
      <trkpt lat="39.89748" lon="-4.95051">
        <ele>368.6</ele>
        <time>2020-08-16 16:36:35</time>
      </trkpt>
      <trkpt lat="39.89746" lon="-4.95054">
        <ele>368.6</ele>
        <time>2020-08-16 16:36:36</time>
      </trkpt>
      <trkpt lat="39.89743" lon="-4.95057">
        <ele>368.6</ele>
        <time>2020-08-16 16:36:37</time>
      </trkpt>
      <trkpt lat="39.89741" lon="-4.9506">
        <ele>368.8</ele>
        <time>2020-08-16 16:36:38</time>
      </trkpt>
      <trkpt lat="39.89739" lon="-4.95064">
        <ele>369</ele>
        <time>2020-08-16 16:36:39</time>
      </trkpt>
      <trkpt lat="39.89736" lon="-4.95068">
        <ele>368.8</ele>
        <time>2020-08-16 16:36:40</time>
      </trkpt>
      <trkpt lat="39.89734" lon="-4.95072">
        <ele>369</ele>
        <time>2020-08-16 16:36:41</time>
      </trkpt>
      <trkpt lat="39.89732" lon="-4.95076">
        <ele>368.8</ele>
        <time>2020-08-16 16:36:42</time>
      </trkpt>
      <trkpt lat="39.89729" lon="-4.9508">
        <ele>369</ele>
        <time>2020-08-16 16:36:43</time>
      </trkpt>
      <trkpt lat="39.89717" lon="-4.95102">
        <ele>368.8</ele>
        <time>2020-08-16 16:36:48</time>
      </trkpt>
      <trkpt lat="39.89714" lon="-4.95106">
        <ele>368.8</ele>
        <time>2020-08-16 16:36:49</time>
      </trkpt>
      <trkpt lat="39.89698" lon="-4.95129">
        <ele>368.8</ele>
        <time>2020-08-16 16:36:54</time>
      </trkpt>
      <trkpt lat="39.89675" lon="-4.95163">
        <ele>367.8</ele>
        <time>2020-08-16 16:37:01</time>
      </trkpt>
      <trkpt lat="39.89669" lon="-4.95173">
        <ele>367.8</ele>
        <time>2020-08-16 16:37:03</time>
      </trkpt>
      <trkpt lat="39.89666" lon="-4.95178">
        <ele>367.8</ele>
        <time>2020-08-16 16:37:04</time>
      </trkpt>
      <trkpt lat="39.89657" lon="-4.95193">
        <ele>367.6</ele>
        <time>2020-08-16 16:37:07</time>
      </trkpt>
      <trkpt lat="39.89654" lon="-4.95198">
        <ele>367.6</ele>
        <time>2020-08-16 16:37:08</time>
      </trkpt>
      <trkpt lat="39.89652" lon="-4.95204">
        <ele>367.6</ele>
        <time>2020-08-16 16:37:09</time>
      </trkpt>
      <trkpt lat="39.8965" lon="-4.9521">
        <ele>367.6</ele>
        <time>2020-08-16 16:37:10</time>
      </trkpt>
      <trkpt lat="39.89648" lon="-4.95216">
        <ele>367.6</ele>
        <time>2020-08-16 16:37:11</time>
      </trkpt>
      <trkpt lat="39.89646" lon="-4.95223">
        <ele>367.6</ele>
        <time>2020-08-16 16:37:12</time>
      </trkpt>
      <trkpt lat="39.89636" lon="-4.95253">
        <ele>367.6</ele>
        <time>2020-08-16 16:37:17</time>
      </trkpt>
      <trkpt lat="39.89627" lon="-4.95276">
        <ele>367.6</ele>
        <time>2020-08-16 16:37:21</time>
      </trkpt>
      <trkpt lat="39.89625" lon="-4.95281">
        <ele>367.6</ele>
        <time>2020-08-16 16:37:22</time>
      </trkpt>
      <trkpt lat="39.89622" lon="-4.95287">
        <ele>367.6</ele>
        <time>2020-08-16 16:37:23</time>
      </trkpt>
      <trkpt lat="39.8962" lon="-4.95292">
        <ele>367.6</ele>
        <time>2020-08-16 16:37:24</time>
      </trkpt>
      <trkpt lat="39.89618" lon="-4.95297">
        <ele>367.6</ele>
        <time>2020-08-16 16:37:25</time>
      </trkpt>
      <trkpt lat="39.89615" lon="-4.95303">
        <ele>367.6</ele>
        <time>2020-08-16 16:37:26</time>
      </trkpt>
      <trkpt lat="39.89612" lon="-4.95308">
        <ele>367.4</ele>
        <time>2020-08-16 16:37:27</time>
      </trkpt>
      <trkpt lat="39.89609" lon="-4.95312">
        <ele>367.4</ele>
        <time>2020-08-16 16:37:28</time>
      </trkpt>
      <trkpt lat="39.89605" lon="-4.95317">
        <ele>367.4</ele>
        <time>2020-08-16 16:37:29</time>
      </trkpt>
      <trkpt lat="39.89602" lon="-4.9532">
        <ele>367.4</ele>
        <time>2020-08-16 16:37:30</time>
      </trkpt>
      <trkpt lat="39.89598" lon="-4.95323">
        <ele>367.4</ele>
        <time>2020-08-16 16:37:31</time>
      </trkpt>
      <trkpt lat="39.89594" lon="-4.95326">
        <ele>367.4</ele>
        <time>2020-08-16 16:37:32</time>
      </trkpt>
      <trkpt lat="39.89589" lon="-4.95328">
        <ele>367.4</ele>
        <time>2020-08-16 16:37:33</time>
      </trkpt>
      <trkpt lat="39.89585" lon="-4.95331">
        <ele>367.4</ele>
        <time>2020-08-16 16:37:34</time>
      </trkpt>
      <trkpt lat="39.89581" lon="-4.95333">
        <ele>367.4</ele>
        <time>2020-08-16 16:37:35</time>
      </trkpt>
      <trkpt lat="39.89576" lon="-4.95335">
        <ele>367.4</ele>
        <time>2020-08-16 16:37:36</time>
      </trkpt>
      <trkpt lat="39.89572" lon="-4.95337">
        <ele>367.4</ele>
        <time>2020-08-16 16:37:37</time>
      </trkpt>
      <trkpt lat="39.89567" lon="-4.95339">
        <ele>367.4</ele>
        <time>2020-08-16 16:37:38</time>
      </trkpt>
      <trkpt lat="39.89562" lon="-4.95341">
        <ele>367.4</ele>
        <time>2020-08-16 16:37:39</time>
      </trkpt>
      <trkpt lat="39.89558" lon="-4.95343">
        <ele>367.4</ele>
        <time>2020-08-16 16:37:40</time>
      </trkpt>
      <trkpt lat="39.89553" lon="-4.95345">
        <ele>367.2</ele>
        <time>2020-08-16 16:37:41</time>
      </trkpt>
      <trkpt lat="39.89548" lon="-4.95347">
        <ele>366.8</ele>
        <time>2020-08-16 16:37:42</time>
      </trkpt>
      <trkpt lat="39.89543" lon="-4.95348">
        <ele>366.8</ele>
        <time>2020-08-16 16:37:43</time>
      </trkpt>
      <trkpt lat="39.89525" lon="-4.95351">
        <ele>366.8</ele>
        <time>2020-08-16 16:37:47</time>
      </trkpt>
      <trkpt lat="39.89522" lon="-4.95354">
        <ele>366.6</ele>
        <time>2020-08-16 16:37:48</time>
      </trkpt>
      <trkpt lat="39.89519" lon="-4.95357">
        <ele>366.6</ele>
        <time>2020-08-16 16:37:49</time>
      </trkpt>
      <trkpt lat="39.89517" lon="-4.95362">
        <ele>366.6</ele>
        <time>2020-08-16 16:37:50</time>
      </trkpt>
      <trkpt lat="39.89517" lon="-4.95367">
        <ele>366.6</ele>
        <time>2020-08-16 16:37:51</time>
      </trkpt>
      <trkpt lat="39.89517" lon="-4.95372">
        <ele>366.6</ele>
        <time>2020-08-16 16:37:52</time>
      </trkpt>
      <trkpt lat="39.89516" lon="-4.95377">
        <ele>366.6</ele>
        <time>2020-08-16 16:37:53</time>
      </trkpt>
      <trkpt lat="39.89515" lon="-4.95383">
        <ele>366.6</ele>
        <time>2020-08-16 16:37:54</time>
      </trkpt>
      <trkpt lat="39.89513" lon="-4.95388">
        <ele>366.6</ele>
        <time>2020-08-16 16:37:55</time>
      </trkpt>
      <trkpt lat="39.8951" lon="-4.95393">
        <ele>366.6</ele>
        <time>2020-08-16 16:37:56</time>
      </trkpt>
      <trkpt lat="39.89508" lon="-4.95398">
        <ele>366.6</ele>
        <time>2020-08-16 16:37:57</time>
      </trkpt>
      <trkpt lat="39.89497" lon="-4.9542">
        <ele>366.2</ele>
        <time>2020-08-16 16:38:01</time>
      </trkpt>
      <trkpt lat="39.89491" lon="-4.9543">
        <ele>366</ele>
        <time>2020-08-16 16:38:03</time>
      </trkpt>
      <trkpt lat="39.89467" lon="-4.95465">
        <ele>366</ele>
        <time>2020-08-16 16:38:10</time>
      </trkpt>
      <trkpt lat="39.89454" lon="-4.95483">
        <ele>365.8</ele>
        <time>2020-08-16 16:38:14</time>
      </trkpt>
      <trkpt lat="39.89451" lon="-4.95487">
        <ele>365.8</ele>
        <time>2020-08-16 16:38:15</time>
      </trkpt>
      <trkpt lat="39.89447" lon="-4.95491">
        <ele>365.8</ele>
        <time>2020-08-16 16:38:16</time>
      </trkpt>
      <trkpt lat="39.89444" lon="-4.95495">
        <ele>365.6</ele>
        <time>2020-08-16 16:38:17</time>
      </trkpt>
      <trkpt lat="39.8944" lon="-4.95499">
        <ele>365.8</ele>
        <time>2020-08-16 16:38:18</time>
      </trkpt>
      <trkpt lat="39.89437" lon="-4.95503">
        <ele>365.8</ele>
        <time>2020-08-16 16:38:19</time>
      </trkpt>
      <trkpt lat="39.89433" lon="-4.95507">
        <ele>366</ele>
        <time>2020-08-16 16:38:20</time>
      </trkpt>
      <trkpt lat="39.8943" lon="-4.95511">
        <ele>366</ele>
        <time>2020-08-16 16:38:21</time>
      </trkpt>
      <trkpt lat="39.89427" lon="-4.95515">
        <ele>366</ele>
        <time>2020-08-16 16:38:22</time>
      </trkpt>
      <trkpt lat="39.89424" lon="-4.95518">
        <ele>366.2</ele>
        <time>2020-08-16 16:38:23</time>
      </trkpt>
      <trkpt lat="39.89421" lon="-4.95522">
        <ele>366.4</ele>
        <time>2020-08-16 16:38:24</time>
      </trkpt>
      <trkpt lat="39.89417" lon="-4.95526">
        <ele>366.6</ele>
        <time>2020-08-16 16:38:25</time>
      </trkpt>
      <trkpt lat="39.89415" lon="-4.9553">
        <ele>366.6</ele>
        <time>2020-08-16 16:38:26</time>
      </trkpt>
      <trkpt lat="39.89412" lon="-4.95534">
        <ele>366.6</ele>
        <time>2020-08-16 16:38:27</time>
      </trkpt>
      <trkpt lat="39.89409" lon="-4.95538">
        <ele>366.8</ele>
        <time>2020-08-16 16:38:28</time>
      </trkpt>
      <trkpt lat="39.89407" lon="-4.95542">
        <ele>366.8</ele>
        <time>2020-08-16 16:38:29</time>
      </trkpt>
      <trkpt lat="39.89404" lon="-4.95545">
        <ele>366.8</ele>
        <time>2020-08-16 16:38:30</time>
      </trkpt>
      <trkpt lat="39.89402" lon="-4.95549">
        <ele>366.8</ele>
        <time>2020-08-16 16:38:31</time>
      </trkpt>
      <trkpt lat="39.89399" lon="-4.95552">
        <ele>366.8</ele>
        <time>2020-08-16 16:38:32</time>
      </trkpt>
      <trkpt lat="39.89396" lon="-4.95556">
        <ele>366.8</ele>
        <time>2020-08-16 16:38:33</time>
      </trkpt>
      <trkpt lat="39.89393" lon="-4.95559">
        <ele>366.8</ele>
        <time>2020-08-16 16:38:34</time>
      </trkpt>
      <trkpt lat="39.89391" lon="-4.95563">
        <ele>366.8</ele>
        <time>2020-08-16 16:38:35</time>
      </trkpt>
      <trkpt lat="39.89388" lon="-4.95567">
        <ele>366.8</ele>
        <time>2020-08-16 16:38:36</time>
      </trkpt>
      <trkpt lat="39.89386" lon="-4.95571">
        <ele>367</ele>
        <time>2020-08-16 16:38:37</time>
      </trkpt>
      <trkpt lat="39.89384" lon="-4.95575">
        <ele>367</ele>
        <time>2020-08-16 16:38:38</time>
      </trkpt>
      <trkpt lat="39.89381" lon="-4.95579">
        <ele>367</ele>
        <time>2020-08-16 16:38:39</time>
      </trkpt>
      <trkpt lat="39.89379" lon="-4.95583">
        <ele>367</ele>
        <time>2020-08-16 16:38:40</time>
      </trkpt>
      <trkpt lat="39.89376" lon="-4.95586">
        <ele>367</ele>
        <time>2020-08-16 16:38:41</time>
      </trkpt>
      <trkpt lat="39.89373" lon="-4.9559">
        <ele>367</ele>
        <time>2020-08-16 16:38:42</time>
      </trkpt>
      <trkpt lat="39.8935" lon="-4.95618">
        <ele>367.4</ele>
        <time>2020-08-16 16:38:49</time>
      </trkpt>
      <trkpt lat="39.89321" lon="-4.95655">
        <ele>367.4</ele>
        <time>2020-08-16 16:38:58</time>
      </trkpt>
      <trkpt lat="39.89318" lon="-4.95659">
        <ele>367.4</ele>
        <time>2020-08-16 16:38:59</time>
      </trkpt>
      <trkpt lat="39.89315" lon="-4.95663">
        <ele>367.4</ele>
        <time>2020-08-16 16:39:00</time>
      </trkpt>
      <trkpt lat="39.89313" lon="-4.95668">
        <ele>367.4</ele>
        <time>2020-08-16 16:39:01</time>
      </trkpt>
      <trkpt lat="39.8931" lon="-4.95672">
        <ele>367.6</ele>
        <time>2020-08-16 16:39:02</time>
      </trkpt>
      <trkpt lat="39.89307" lon="-4.95676">
        <ele>367.6</ele>
        <time>2020-08-16 16:39:03</time>
      </trkpt>
      <trkpt lat="39.89304" lon="-4.9568">
        <ele>367.6</ele>
        <time>2020-08-16 16:39:04</time>
      </trkpt>
      <trkpt lat="39.89301" lon="-4.95685">
        <ele>367.6</ele>
        <time>2020-08-16 16:39:05</time>
      </trkpt>
      <trkpt lat="39.89298" lon="-4.95689">
        <ele>367.6</ele>
        <time>2020-08-16 16:39:06</time>
      </trkpt>
      <trkpt lat="39.89294" lon="-4.95694">
        <ele>367.6</ele>
        <time>2020-08-16 16:39:07</time>
      </trkpt>
      <trkpt lat="39.89291" lon="-4.95699">
        <ele>367.6</ele>
        <time>2020-08-16 16:39:08</time>
      </trkpt>
      <trkpt lat="39.89277" lon="-4.95717">
        <ele>367.4</ele>
        <time>2020-08-16 16:39:12</time>
      </trkpt>
      <trkpt lat="39.89256" lon="-4.95744">
        <ele>366.4</ele>
        <time>2020-08-16 16:39:18</time>
      </trkpt>
      <trkpt lat="39.89253" lon="-4.95748">
        <ele>366.2</ele>
        <time>2020-08-16 16:39:19</time>
      </trkpt>
      <trkpt lat="39.8925" lon="-4.95751">
        <ele>366.2</ele>
        <time>2020-08-16 16:39:20</time>
      </trkpt>
      <trkpt lat="39.89247" lon="-4.95755">
        <ele>366.2</ele>
        <time>2020-08-16 16:39:21</time>
      </trkpt>
      <trkpt lat="39.89244" lon="-4.95759">
        <ele>366</ele>
        <time>2020-08-16 16:39:22</time>
      </trkpt>
      <trkpt lat="39.89241" lon="-4.95762">
        <ele>366</ele>
        <time>2020-08-16 16:39:23</time>
      </trkpt>
      <trkpt lat="39.89237" lon="-4.95766">
        <ele>365.8</ele>
        <time>2020-08-16 16:39:24</time>
      </trkpt>
      <trkpt lat="39.89234" lon="-4.95769">
        <ele>365.8</ele>
        <time>2020-08-16 16:39:25</time>
      </trkpt>
      <trkpt lat="39.89231" lon="-4.95773">
        <ele>366</ele>
        <time>2020-08-16 16:39:26</time>
      </trkpt>
      <trkpt lat="39.89228" lon="-4.95775">
        <ele>366</ele>
        <time>2020-08-16 16:39:27</time>
      </trkpt>
      <trkpt lat="39.89225" lon="-4.95778">
        <ele>366</ele>
        <time>2020-08-16 16:39:28</time>
      </trkpt>
      <trkpt lat="39.89222" lon="-4.9578">
        <ele>366</ele>
        <time>2020-08-16 16:39:29</time>
      </trkpt>
      <trkpt lat="39.89218" lon="-4.95783">
        <ele>366</ele>
        <time>2020-08-16 16:39:30</time>
      </trkpt>
      <trkpt lat="39.89214" lon="-4.95784">
        <ele>366.2</ele>
        <time>2020-08-16 16:39:31</time>
      </trkpt>
      <trkpt lat="39.89211" lon="-4.95786">
        <ele>366.4</ele>
        <time>2020-08-16 16:39:32</time>
      </trkpt>
      <trkpt lat="39.89207" lon="-4.95788">
        <ele>366.4</ele>
        <time>2020-08-16 16:39:33</time>
      </trkpt>
      <trkpt lat="39.89203" lon="-4.9579">
        <ele>366.4</ele>
        <time>2020-08-16 16:39:34</time>
      </trkpt>
      <trkpt lat="39.89199" lon="-4.95792">
        <ele>366.4</ele>
        <time>2020-08-16 16:39:35</time>
      </trkpt>
      <trkpt lat="39.89196" lon="-4.95793">
        <ele>366.4</ele>
        <time>2020-08-16 16:39:36</time>
      </trkpt>
      <trkpt lat="39.89192" lon="-4.95795">
        <ele>366.4</ele>
        <time>2020-08-16 16:39:37</time>
      </trkpt>
      <trkpt lat="39.89188" lon="-4.95796">
        <ele>366.4</ele>
        <time>2020-08-16 16:39:38</time>
      </trkpt>
      <trkpt lat="39.89169" lon="-4.95804">
        <ele>366.2</ele>
        <time>2020-08-16 16:39:43</time>
      </trkpt>
      <trkpt lat="39.89165" lon="-4.95805">
        <ele>366.2</ele>
        <time>2020-08-16 16:39:44</time>
      </trkpt>
      <trkpt lat="39.89162" lon="-4.95806">
        <ele>366</ele>
        <time>2020-08-16 16:39:45</time>
      </trkpt>
      <trkpt lat="39.89158" lon="-4.95808">
        <ele>366</ele>
        <time>2020-08-16 16:39:46</time>
      </trkpt>
      <trkpt lat="39.89154" lon="-4.95809">
        <ele>366</ele>
        <time>2020-08-16 16:39:47</time>
      </trkpt>
      <trkpt lat="39.89151" lon="-4.95811">
        <ele>366</ele>
        <time>2020-08-16 16:39:48</time>
      </trkpt>
      <trkpt lat="39.89147" lon="-4.95813">
        <ele>366</ele>
        <time>2020-08-16 16:39:49</time>
      </trkpt>
      <trkpt lat="39.89143" lon="-4.95815">
        <ele>366</ele>
        <time>2020-08-16 16:39:50</time>
      </trkpt>
      <trkpt lat="39.8914" lon="-4.95817">
        <ele>366</ele>
        <time>2020-08-16 16:39:51</time>
      </trkpt>
      <trkpt lat="39.89136" lon="-4.95819">
        <ele>366</ele>
        <time>2020-08-16 16:39:52</time>
      </trkpt>
      <trkpt lat="39.89133" lon="-4.95821">
        <ele>366</ele>
        <time>2020-08-16 16:39:53</time>
      </trkpt>
      <trkpt lat="39.89122" lon="-4.95828">
        <ele>366</ele>
        <time>2020-08-16 16:39:56</time>
      </trkpt>
      <trkpt lat="39.89107" lon="-4.95837">
        <ele>366</ele>
        <time>2020-08-16 16:40:00</time>
      </trkpt>
      <trkpt lat="39.89094" lon="-4.95843">
        <ele>365.8</ele>
        <time>2020-08-16 16:40:03</time>
      </trkpt>
      <trkpt lat="39.8907" lon="-4.95858">
        <ele>365</ele>
        <time>2020-08-16 16:40:09</time>
      </trkpt>
      <trkpt lat="39.89063" lon="-4.95861">
        <ele>364.8</ele>
        <time>2020-08-16 16:40:11</time>
      </trkpt>
      <trkpt lat="39.8906" lon="-4.95863">
        <ele>364.6</ele>
        <time>2020-08-16 16:40:12</time>
      </trkpt>
      <trkpt lat="39.89057" lon="-4.95865">
        <ele>364.6</ele>
        <time>2020-08-16 16:40:13</time>
      </trkpt>
      <trkpt lat="39.89054" lon="-4.95867">
        <ele>364.4</ele>
        <time>2020-08-16 16:40:14</time>
      </trkpt>
      <trkpt lat="39.8905" lon="-4.95869">
        <ele>364.4</ele>
        <time>2020-08-16 16:40:15</time>
      </trkpt>
      <trkpt lat="39.89047" lon="-4.95871">
        <ele>364.2</ele>
        <time>2020-08-16 16:40:16</time>
      </trkpt>
      <trkpt lat="39.89043" lon="-4.95874">
        <ele>364.2</ele>
        <time>2020-08-16 16:40:17</time>
      </trkpt>
      <trkpt lat="39.89039" lon="-4.95876">
        <ele>364</ele>
        <time>2020-08-16 16:40:18</time>
      </trkpt>
      <trkpt lat="39.89035" lon="-4.95878">
        <ele>364</ele>
        <time>2020-08-16 16:40:19</time>
      </trkpt>
      <trkpt lat="39.89031" lon="-4.95881">
        <ele>363.8</ele>
        <time>2020-08-16 16:40:20</time>
      </trkpt>
      <trkpt lat="39.89023" lon="-4.95885">
        <ele>363.8</ele>
        <time>2020-08-16 16:40:22</time>
      </trkpt>
      <trkpt lat="39.89012" lon="-4.95892">
        <ele>363.6</ele>
        <time>2020-08-16 16:40:25</time>
      </trkpt>
      <trkpt lat="39.89005" lon="-4.95896">
        <ele>363.6</ele>
        <time>2020-08-16 16:40:27</time>
      </trkpt>
      <trkpt lat="39.89001" lon="-4.95899">
        <ele>363.6</ele>
        <time>2020-08-16 16:40:28</time>
      </trkpt>
      <trkpt lat="39.88998" lon="-4.95901">
        <ele>363.6</ele>
        <time>2020-08-16 16:40:29</time>
      </trkpt>
      <trkpt lat="39.88994" lon="-4.95903">
        <ele>363.6</ele>
        <time>2020-08-16 16:40:30</time>
      </trkpt>
      <trkpt lat="39.88991" lon="-4.95905">
        <ele>363.6</ele>
        <time>2020-08-16 16:40:31</time>
      </trkpt>
      <trkpt lat="39.88987" lon="-4.95908">
        <ele>363.6</ele>
        <time>2020-08-16 16:40:32</time>
      </trkpt>
      <trkpt lat="39.88984" lon="-4.9591">
        <ele>363.6</ele>
        <time>2020-08-16 16:40:33</time>
      </trkpt>
      <trkpt lat="39.8898" lon="-4.95912">
        <ele>363.6</ele>
        <time>2020-08-16 16:40:34</time>
      </trkpt>
      <trkpt lat="39.88976" lon="-4.95914">
        <ele>363.6</ele>
        <time>2020-08-16 16:40:35</time>
      </trkpt>
      <trkpt lat="39.88973" lon="-4.95916">
        <ele>363.6</ele>
        <time>2020-08-16 16:40:36</time>
      </trkpt>
      <trkpt lat="39.88969" lon="-4.95918">
        <ele>363.6</ele>
        <time>2020-08-16 16:40:37</time>
      </trkpt>
      <trkpt lat="39.88966" lon="-4.95921">
        <ele>363.6</ele>
        <time>2020-08-16 16:40:38</time>
      </trkpt>
      <trkpt lat="39.88963" lon="-4.95923">
        <ele>363.6</ele>
        <time>2020-08-16 16:40:39</time>
      </trkpt>
      <trkpt lat="39.8896" lon="-4.95925">
        <ele>363.6</ele>
        <time>2020-08-16 16:40:40</time>
      </trkpt>
      <trkpt lat="39.88957" lon="-4.95927">
        <ele>363.6</ele>
        <time>2020-08-16 16:40:41</time>
      </trkpt>
      <trkpt lat="39.88954" lon="-4.9593">
        <ele>363.6</ele>
        <time>2020-08-16 16:40:42</time>
      </trkpt>
      <trkpt lat="39.88951" lon="-4.95932">
        <ele>363.6</ele>
        <time>2020-08-16 16:40:43</time>
      </trkpt>
      <trkpt lat="39.88948" lon="-4.95934">
        <ele>363.6</ele>
        <time>2020-08-16 16:40:44</time>
      </trkpt>
      <trkpt lat="39.88945" lon="-4.95937">
        <ele>363.6</ele>
        <time>2020-08-16 16:40:45</time>
      </trkpt>
      <trkpt lat="39.88942" lon="-4.95939">
        <ele>363.6</ele>
        <time>2020-08-16 16:40:46</time>
      </trkpt>
      <trkpt lat="39.88938" lon="-4.95941">
        <ele>363.6</ele>
        <time>2020-08-16 16:40:47</time>
      </trkpt>
      <trkpt lat="39.88935" lon="-4.95944">
        <ele>363.6</ele>
        <time>2020-08-16 16:40:48</time>
      </trkpt>
      <trkpt lat="39.88928" lon="-4.95949">
        <ele>363.6</ele>
        <time>2020-08-16 16:40:50</time>
      </trkpt>
      <trkpt lat="39.88909" lon="-4.95963">
        <ele>363.8</ele>
        <time>2020-08-16 16:40:55</time>
      </trkpt>
      <trkpt lat="39.88892" lon="-4.95976">
        <ele>364</ele>
        <time>2020-08-16 16:41:00</time>
      </trkpt>
      <trkpt lat="39.88889" lon="-4.95979">
        <ele>363.8</ele>
        <time>2020-08-16 16:41:01</time>
      </trkpt>
      <trkpt lat="39.88886" lon="-4.95981">
        <ele>363.8</ele>
        <time>2020-08-16 16:41:02</time>
      </trkpt>
      <trkpt lat="39.88872" lon="-4.95992">
        <ele>363.8</ele>
        <time>2020-08-16 16:41:06</time>
      </trkpt>
      <trkpt lat="39.88869" lon="-4.95994">
        <ele>363.8</ele>
        <time>2020-08-16 16:41:07</time>
      </trkpt>
      <trkpt lat="39.88867" lon="-4.95996">
        <ele>363.8</ele>
        <time>2020-08-16 16:41:08</time>
      </trkpt>
      <trkpt lat="39.88864" lon="-4.95999">
        <ele>363.8</ele>
        <time>2020-08-16 16:41:09</time>
      </trkpt>
      <trkpt lat="39.8883" lon="-4.96027">
        <ele>363.8</ele>
        <time>2020-08-16 16:41:19</time>
      </trkpt>
      <trkpt lat="39.88793" lon="-4.96059">
        <ele>363.6</ele>
        <time>2020-08-16 16:41:29</time>
      </trkpt>
      <trkpt lat="39.88768" lon="-4.96086">
        <ele>363.4</ele>
        <time>2020-08-16 16:41:36</time>
      </trkpt>
      <trkpt lat="39.88765" lon="-4.9609">
        <ele>363.2</ele>
        <time>2020-08-16 16:41:37</time>
      </trkpt>
      <trkpt lat="39.88762" lon="-4.96094">
        <ele>363.2</ele>
        <time>2020-08-16 16:41:38</time>
      </trkpt>
      <trkpt lat="39.88759" lon="-4.96097">
        <ele>363.2</ele>
        <time>2020-08-16 16:41:39</time>
      </trkpt>
      <trkpt lat="39.88756" lon="-4.96101">
        <ele>363.2</ele>
        <time>2020-08-16 16:41:40</time>
      </trkpt>
      <trkpt lat="39.88753" lon="-4.96104">
        <ele>363.2</ele>
        <time>2020-08-16 16:41:41</time>
      </trkpt>
      <trkpt lat="39.88751" lon="-4.96107">
        <ele>363.2</ele>
        <time>2020-08-16 16:41:42</time>
      </trkpt>
      <trkpt lat="39.88749" lon="-4.9611">
        <ele>363.2</ele>
        <time>2020-08-16 16:41:43</time>
      </trkpt>
      <trkpt lat="39.88746" lon="-4.96114">
        <ele>363.2</ele>
        <time>2020-08-16 16:41:44</time>
      </trkpt>
      <trkpt lat="39.88727" lon="-4.96145">
        <ele>363.2</ele>
        <time>2020-08-16 16:41:52</time>
      </trkpt>
      <trkpt lat="39.88711" lon="-4.96176">
        <ele>363.6</ele>
        <time>2020-08-16 16:41:59</time>
      </trkpt>
      <trkpt lat="39.88709" lon="-4.9618">
        <ele>363.6</ele>
        <time>2020-08-16 16:42:00</time>
      </trkpt>
      <trkpt lat="39.88705" lon="-4.96189">
        <ele>363.8</ele>
        <time>2020-08-16 16:42:02</time>
      </trkpt>
      <trkpt lat="39.88702" lon="-4.96193">
        <ele>363.8</ele>
        <time>2020-08-16 16:42:03</time>
      </trkpt>
      <trkpt lat="39.887" lon="-4.96197">
        <ele>363.8</ele>
        <time>2020-08-16 16:42:04</time>
      </trkpt>
      <trkpt lat="39.88698" lon="-4.96201">
        <ele>363.8</ele>
        <time>2020-08-16 16:42:05</time>
      </trkpt>
      <trkpt lat="39.88695" lon="-4.96205">
        <ele>363.8</ele>
        <time>2020-08-16 16:42:06</time>
      </trkpt>
      <trkpt lat="39.88693" lon="-4.96209">
        <ele>363.8</ele>
        <time>2020-08-16 16:42:07</time>
      </trkpt>
      <trkpt lat="39.88691" lon="-4.96213">
        <ele>364</ele>
        <time>2020-08-16 16:42:08</time>
      </trkpt>
      <trkpt lat="39.88689" lon="-4.96218">
        <ele>363.8</ele>
        <time>2020-08-16 16:42:09</time>
      </trkpt>
      <trkpt lat="39.88687" lon="-4.96222">
        <ele>363.8</ele>
        <time>2020-08-16 16:42:10</time>
      </trkpt>
      <trkpt lat="39.88685" lon="-4.96226">
        <ele>363.8</ele>
        <time>2020-08-16 16:42:11</time>
      </trkpt>
      <trkpt lat="39.88683" lon="-4.9623">
        <ele>363.8</ele>
        <time>2020-08-16 16:42:12</time>
      </trkpt>
      <trkpt lat="39.88664" lon="-4.96265">
        <ele>364</ele>
        <time>2020-08-16 16:42:20</time>
      </trkpt>
      <trkpt lat="39.88648" lon="-4.96296">
        <ele>364.4</ele>
        <time>2020-08-16 16:42:27</time>
      </trkpt>
      <trkpt lat="39.88643" lon="-4.96305">
        <ele>364.4</ele>
        <time>2020-08-16 16:42:29</time>
      </trkpt>
      <trkpt lat="39.88641" lon="-4.96309">
        <ele>364.4</ele>
        <time>2020-08-16 16:42:30</time>
      </trkpt>
      <trkpt lat="39.88639" lon="-4.96312">
        <ele>364.6</ele>
        <time>2020-08-16 16:42:31</time>
      </trkpt>
      <trkpt lat="39.88637" lon="-4.96316">
        <ele>364.6</ele>
        <time>2020-08-16 16:42:32</time>
      </trkpt>
      <trkpt lat="39.88636" lon="-4.96319">
        <ele>364.8</ele>
        <time>2020-08-16 16:42:33</time>
      </trkpt>
      <trkpt lat="39.88634" lon="-4.96323">
        <ele>364.8</ele>
        <time>2020-08-16 16:42:34</time>
      </trkpt>
      <trkpt lat="39.88632" lon="-4.96326">
        <ele>365</ele>
        <time>2020-08-16 16:42:35</time>
      </trkpt>
      <trkpt lat="39.8863" lon="-4.9633">
        <ele>365</ele>
        <time>2020-08-16 16:42:36</time>
      </trkpt>
      <trkpt lat="39.88614" lon="-4.96366">
        <ele>365.2</ele>
        <time>2020-08-16 16:42:44</time>
      </trkpt>
      <trkpt lat="39.8861" lon="-4.96374">
        <ele>365.2</ele>
        <time>2020-08-16 16:42:46</time>
      </trkpt>
      <trkpt lat="39.88598" lon="-4.96396">
        <ele>365.2</ele>
        <time>2020-08-16 16:42:51</time>
      </trkpt>
      <trkpt lat="39.88596" lon="-4.964">
        <ele>365.4</ele>
        <time>2020-08-16 16:42:52</time>
      </trkpt>
      <trkpt lat="39.88593" lon="-4.96404">
        <ele>365.4</ele>
        <time>2020-08-16 16:42:53</time>
      </trkpt>
      <trkpt lat="39.88591" lon="-4.96408">
        <ele>365.4</ele>
        <time>2020-08-16 16:42:54</time>
      </trkpt>
      <trkpt lat="39.88588" lon="-4.96412">
        <ele>365.4</ele>
        <time>2020-08-16 16:42:55</time>
      </trkpt>
      <trkpt lat="39.88586" lon="-4.96416">
        <ele>365.4</ele>
        <time>2020-08-16 16:42:56</time>
      </trkpt>
      <trkpt lat="39.88584" lon="-4.96419">
        <ele>365.4</ele>
        <time>2020-08-16 16:42:57</time>
      </trkpt>
      <trkpt lat="39.88582" lon="-4.96423">
        <ele>365.6</ele>
        <time>2020-08-16 16:42:58</time>
      </trkpt>
      <trkpt lat="39.88579" lon="-4.96426">
        <ele>365.6</ele>
        <time>2020-08-16 16:42:59</time>
      </trkpt>
      <trkpt lat="39.88577" lon="-4.96429">
        <ele>365.6</ele>
        <time>2020-08-16 16:43:00</time>
      </trkpt>
      <trkpt lat="39.88574" lon="-4.96432">
        <ele>365.6</ele>
        <time>2020-08-16 16:43:01</time>
      </trkpt>
      <trkpt lat="39.88571" lon="-4.96435">
        <ele>365.6</ele>
        <time>2020-08-16 16:43:02</time>
      </trkpt>
      <trkpt lat="39.88568" lon="-4.96438">
        <ele>365.6</ele>
        <time>2020-08-16 16:43:03</time>
      </trkpt>
      <trkpt lat="39.88565" lon="-4.96441">
        <ele>365.6</ele>
        <time>2020-08-16 16:43:04</time>
      </trkpt>
      <trkpt lat="39.88563" lon="-4.96444">
        <ele>365.6</ele>
        <time>2020-08-16 16:43:05</time>
      </trkpt>
      <trkpt lat="39.8856" lon="-4.96447">
        <ele>365.6</ele>
        <time>2020-08-16 16:43:06</time>
      </trkpt>
      <trkpt lat="39.88558" lon="-4.96449">
        <ele>365.6</ele>
        <time>2020-08-16 16:43:07</time>
      </trkpt>
      <trkpt lat="39.88555" lon="-4.96451">
        <ele>365.6</ele>
        <time>2020-08-16 16:43:08</time>
      </trkpt>
      <trkpt lat="39.88553" lon="-4.96452">
        <ele>365.8</ele>
        <time>2020-08-16 16:43:09</time>
      </trkpt>
      <trkpt lat="39.8855" lon="-4.96453">
        <ele>365.8</ele>
        <time>2020-08-16 16:43:10</time>
      </trkpt>
      <trkpt lat="39.88548" lon="-4.96455">
        <ele>365.8</ele>
        <time>2020-08-16 16:43:11</time>
      </trkpt>
      <trkpt lat="39.88546" lon="-4.96457">
        <ele>366.2</ele>
        <time>2020-08-16 16:43:12</time>
      </trkpt>
      <trkpt lat="39.8854" lon="-4.96463">
        <ele>366.4</ele>
        <time>2020-08-16 16:43:15</time>
      </trkpt>
      <trkpt lat="39.88537" lon="-4.96466">
        <ele>366.4</ele>
        <time>2020-08-16 16:43:16</time>
      </trkpt>
      <trkpt lat="39.88533" lon="-4.96471">
        <ele>366.4</ele>
        <time>2020-08-16 16:43:18</time>
      </trkpt>
      <trkpt lat="39.88522" lon="-4.96485">
        <ele>366</ele>
        <time>2020-08-16 16:43:22</time>
      </trkpt>
      <trkpt lat="39.8852" lon="-4.96488">
        <ele>366</ele>
        <time>2020-08-16 16:43:23</time>
      </trkpt>
      <trkpt lat="39.88501" lon="-4.96511">
        <ele>365.8</ele>
        <time>2020-08-16 16:43:30</time>
      </trkpt>
      <trkpt lat="39.88499" lon="-4.96514">
        <ele>365.8</ele>
        <time>2020-08-16 16:43:31</time>
      </trkpt>
      <trkpt lat="39.88496" lon="-4.96517">
        <ele>365.8</ele>
        <time>2020-08-16 16:43:32</time>
      </trkpt>
      <trkpt lat="39.88494" lon="-4.9652">
        <ele>365.8</ele>
        <time>2020-08-16 16:43:33</time>
      </trkpt>
      <trkpt lat="39.88492" lon="-4.96523">
        <ele>366</ele>
        <time>2020-08-16 16:43:34</time>
      </trkpt>
      <trkpt lat="39.88488" lon="-4.9653">
        <ele>366</ele>
        <time>2020-08-16 16:43:36</time>
      </trkpt>
      <trkpt lat="39.88486" lon="-4.96534">
        <ele>366.2</ele>
        <time>2020-08-16 16:43:37</time>
      </trkpt>
      <trkpt lat="39.88485" lon="-4.96539">
        <ele>366.2</ele>
        <time>2020-08-16 16:43:38</time>
      </trkpt>
      <trkpt lat="39.88485" lon="-4.96543">
        <ele>366.2</ele>
        <time>2020-08-16 16:43:39</time>
      </trkpt>
      <trkpt lat="39.88486" lon="-4.96548">
        <ele>366.2</ele>
        <time>2020-08-16 16:43:40</time>
      </trkpt>
      <trkpt lat="39.88487" lon="-4.96552">
        <ele>366.2</ele>
        <time>2020-08-16 16:43:41</time>
      </trkpt>
      <trkpt lat="39.88496" lon="-4.96579">
        <ele>366.4</ele>
        <time>2020-08-16 16:43:47</time>
      </trkpt>
      <trkpt lat="39.88499" lon="-4.96588">
        <ele>366.4</ele>
        <time>2020-08-16 16:43:49</time>
      </trkpt>
      <trkpt lat="39.88501" lon="-4.96596">
        <ele>366.2</ele>
        <time>2020-08-16 16:43:51</time>
      </trkpt>
      <trkpt lat="39.88502" lon="-4.966">
        <ele>366.4</ele>
        <time>2020-08-16 16:43:52</time>
      </trkpt>
      <trkpt lat="39.88504" lon="-4.96604">
        <ele>366.4</ele>
        <time>2020-08-16 16:43:53</time>
      </trkpt>
      <trkpt lat="39.88505" lon="-4.96608">
        <ele>366.2</ele>
        <time>2020-08-16 16:43:54</time>
      </trkpt>
      <trkpt lat="39.88505" lon="-4.96612">
        <ele>366</ele>
        <time>2020-08-16 16:43:55</time>
      </trkpt>
      <trkpt lat="39.88506" lon="-4.96617">
        <ele>366</ele>
        <time>2020-08-16 16:43:56</time>
      </trkpt>
      <trkpt lat="39.88507" lon="-4.96621">
        <ele>366</ele>
        <time>2020-08-16 16:43:57</time>
      </trkpt>
      <trkpt lat="39.88509" lon="-4.96626">
        <ele>366.2</ele>
        <time>2020-08-16 16:43:58</time>
      </trkpt>
      <trkpt lat="39.88514" lon="-4.96645">
        <ele>366.4</ele>
        <time>2020-08-16 16:44:02</time>
      </trkpt>
      <trkpt lat="39.88524" lon="-4.96686">
        <ele>366.6</ele>
        <time>2020-08-16 16:44:11</time>
      </trkpt>
      <trkpt lat="39.88525" lon="-4.9669">
        <ele>366.6</ele>
        <time>2020-08-16 16:44:12</time>
      </trkpt>
      <trkpt lat="39.88526" lon="-4.96694">
        <ele>366.6</ele>
        <time>2020-08-16 16:44:13</time>
      </trkpt>
      <trkpt lat="39.88527" lon="-4.96699">
        <ele>366.8</ele>
        <time>2020-08-16 16:44:14</time>
      </trkpt>
      <trkpt lat="39.88528" lon="-4.96703">
        <ele>366.8</ele>
        <time>2020-08-16 16:44:15</time>
      </trkpt>
      <trkpt lat="39.88529" lon="-4.96707">
        <ele>366.8</ele>
        <time>2020-08-16 16:44:16</time>
      </trkpt>
      <trkpt lat="39.8853" lon="-4.9671">
        <ele>367</ele>
        <time>2020-08-16 16:44:17</time>
      </trkpt>
      <trkpt lat="39.88531" lon="-4.96714">
        <ele>367</ele>
        <time>2020-08-16 16:44:18</time>
      </trkpt>
      <trkpt lat="39.88532" lon="-4.96718">
        <ele>367</ele>
        <time>2020-08-16 16:44:19</time>
      </trkpt>
      <trkpt lat="39.88533" lon="-4.96722">
        <ele>367</ele>
        <time>2020-08-16 16:44:20</time>
      </trkpt>
      <trkpt lat="39.88534" lon="-4.96727">
        <ele>367</ele>
        <time>2020-08-16 16:44:21</time>
      </trkpt>
      <trkpt lat="39.88535" lon="-4.96731">
        <ele>367</ele>
        <time>2020-08-16 16:44:22</time>
      </trkpt>
      <trkpt lat="39.88536" lon="-4.96734">
        <ele>367</ele>
        <time>2020-08-16 16:44:23</time>
      </trkpt>
      <trkpt lat="39.88537" lon="-4.96738">
        <ele>367</ele>
        <time>2020-08-16 16:44:24</time>
      </trkpt>
      <trkpt lat="39.88538" lon="-4.96742">
        <ele>367</ele>
        <time>2020-08-16 16:44:25</time>
      </trkpt>
      <trkpt lat="39.88539" lon="-4.96746">
        <ele>366.8</ele>
        <time>2020-08-16 16:44:26</time>
      </trkpt>
      <trkpt lat="39.8854" lon="-4.9675">
        <ele>366.8</ele>
        <time>2020-08-16 16:44:27</time>
      </trkpt>
      <trkpt lat="39.8854" lon="-4.96754">
        <ele>367.2</ele>
        <time>2020-08-16 16:44:28</time>
      </trkpt>
      <trkpt lat="39.88544" lon="-4.96772">
        <ele>367.8</ele>
        <time>2020-08-16 16:44:32</time>
      </trkpt>
      <trkpt lat="39.88545" lon="-4.96776">
        <ele>367.8</ele>
        <time>2020-08-16 16:44:33</time>
      </trkpt>
      <trkpt lat="39.88546" lon="-4.96781">
        <ele>367.8</ele>
        <time>2020-08-16 16:44:34</time>
      </trkpt>
      <trkpt lat="39.88547" lon="-4.96785">
        <ele>367.8</ele>
        <time>2020-08-16 16:44:35</time>
      </trkpt>
      <trkpt lat="39.88552" lon="-4.96802">
        <ele>368.2</ele>
        <time>2020-08-16 16:44:39</time>
      </trkpt>
      <trkpt lat="39.88553" lon="-4.96807">
        <ele>368.4</ele>
        <time>2020-08-16 16:44:40</time>
      </trkpt>
      <trkpt lat="39.88555" lon="-4.96815">
        <ele>368.4</ele>
        <time>2020-08-16 16:44:42</time>
      </trkpt>
      <trkpt lat="39.88566" lon="-4.96867">
        <ele>368.4</ele>
        <time>2020-08-16 16:44:53</time>
      </trkpt>
      <trkpt lat="39.88568" lon="-4.96891">
        <ele>369</ele>
        <time>2020-08-16 16:44:58</time>
      </trkpt>
      <trkpt lat="39.88567" lon="-4.96895">
        <ele>369.2</ele>
        <time>2020-08-16 16:44:59</time>
      </trkpt>
      <trkpt lat="39.88567" lon="-4.96899">
        <ele>369.2</ele>
        <time>2020-08-16 16:45:00</time>
      </trkpt>
      <trkpt lat="39.88567" lon="-4.96904">
        <ele>369.4</ele>
        <time>2020-08-16 16:45:01</time>
      </trkpt>
      <trkpt lat="39.88567" lon="-4.96908">
        <ele>369.2</ele>
        <time>2020-08-16 16:45:02</time>
      </trkpt>
      <trkpt lat="39.88566" lon="-4.96912">
        <ele>369.2</ele>
        <time>2020-08-16 16:45:03</time>
      </trkpt>
      <trkpt lat="39.88566" lon="-4.96916">
        <ele>369.4</ele>
        <time>2020-08-16 16:45:04</time>
      </trkpt>
      <trkpt lat="39.88565" lon="-4.9692">
        <ele>369.8</ele>
        <time>2020-08-16 16:45:05</time>
      </trkpt>
      <trkpt lat="39.88564" lon="-4.96924">
        <ele>369.8</ele>
        <time>2020-08-16 16:45:06</time>
      </trkpt>
      <trkpt lat="39.88563" lon="-4.96928">
        <ele>369.8</ele>
        <time>2020-08-16 16:45:07</time>
      </trkpt>
      <trkpt lat="39.88561" lon="-4.96932">
        <ele>370</ele>
        <time>2020-08-16 16:45:08</time>
      </trkpt>
      <trkpt lat="39.8856" lon="-4.96935">
        <ele>370</ele>
        <time>2020-08-16 16:45:09</time>
      </trkpt>
      <trkpt lat="39.88558" lon="-4.96938">
        <ele>370</ele>
        <time>2020-08-16 16:45:10</time>
      </trkpt>
      <trkpt lat="39.88557" lon="-4.96941">
        <ele>370</ele>
        <time>2020-08-16 16:45:11</time>
      </trkpt>
      <trkpt lat="39.88556" lon="-4.96944">
        <ele>370.2</ele>
        <time>2020-08-16 16:45:12</time>
      </trkpt>
      <trkpt lat="39.88554" lon="-4.96946">
        <ele>370.2</ele>
        <time>2020-08-16 16:45:13</time>
      </trkpt>
      <trkpt lat="39.88553" lon="-4.96948">
        <ele>370.4</ele>
        <time>2020-08-16 16:45:14</time>
      </trkpt>
      <trkpt lat="39.88552" lon="-4.9695">
        <ele>370.4</ele>
        <time>2020-08-16 16:45:15</time>
      </trkpt>
      <trkpt lat="39.8855" lon="-4.96952">
        <ele>370.6</ele>
        <time>2020-08-16 16:45:16</time>
      </trkpt>
      <trkpt lat="39.88549" lon="-4.96954">
        <ele>370.8</ele>
        <time>2020-08-16 16:45:17</time>
      </trkpt>
      <trkpt lat="39.88547" lon="-4.96957">
        <ele>371</ele>
        <time>2020-08-16 16:45:18</time>
      </trkpt>
      <trkpt lat="39.88546" lon="-4.96959">
        <ele>371.2</ele>
        <time>2020-08-16 16:45:19</time>
      </trkpt>
      <trkpt lat="39.88544" lon="-4.96961">
        <ele>371.4</ele>
        <time>2020-08-16 16:45:20</time>
      </trkpt>
      <trkpt lat="39.88542" lon="-4.96964">
        <ele>371.4</ele>
        <time>2020-08-16 16:45:21</time>
      </trkpt>
      <trkpt lat="39.88541" lon="-4.96966">
        <ele>371.6</ele>
        <time>2020-08-16 16:45:22</time>
      </trkpt>
      <trkpt lat="39.8854" lon="-4.96969">
        <ele>371.8</ele>
        <time>2020-08-16 16:45:23</time>
      </trkpt>
      <trkpt lat="39.88538" lon="-4.96971">
        <ele>371.8</ele>
        <time>2020-08-16 16:45:24</time>
      </trkpt>
      <trkpt lat="39.88537" lon="-4.96974">
        <ele>372.2</ele>
        <time>2020-08-16 16:45:25</time>
      </trkpt>
      <trkpt lat="39.88536" lon="-4.96976">
        <ele>372.4</ele>
        <time>2020-08-16 16:45:26</time>
      </trkpt>
      <trkpt lat="39.88534" lon="-4.96979">
        <ele>372.8</ele>
        <time>2020-08-16 16:45:27</time>
      </trkpt>
      <trkpt lat="39.88533" lon="-4.96981">
        <ele>373</ele>
        <time>2020-08-16 16:45:28</time>
      </trkpt>
      <trkpt lat="39.88531" lon="-4.96985">
        <ele>373</ele>
        <time>2020-08-16 16:45:29</time>
      </trkpt>
      <trkpt lat="39.8853" lon="-4.96988">
        <ele>373.2</ele>
        <time>2020-08-16 16:45:30</time>
      </trkpt>
      <trkpt lat="39.88528" lon="-4.96991">
        <ele>373.2</ele>
        <time>2020-08-16 16:45:31</time>
      </trkpt>
      <trkpt lat="39.88527" lon="-4.96994">
        <ele>373.4</ele>
        <time>2020-08-16 16:45:32</time>
      </trkpt>
      <trkpt lat="39.88525" lon="-4.96998">
        <ele>373.4</ele>
        <time>2020-08-16 16:45:33</time>
      </trkpt>
      <trkpt lat="39.88524" lon="-4.97001">
        <ele>373.6</ele>
        <time>2020-08-16 16:45:34</time>
      </trkpt>
      <trkpt lat="39.88522" lon="-4.97004">
        <ele>373.6</ele>
        <time>2020-08-16 16:45:35</time>
      </trkpt>
      <trkpt lat="39.8852" lon="-4.97007">
        <ele>373.8</ele>
        <time>2020-08-16 16:45:36</time>
      </trkpt>
      <trkpt lat="39.88518" lon="-4.97009">
        <ele>373.8</ele>
        <time>2020-08-16 16:45:37</time>
      </trkpt>
      <trkpt lat="39.88514" lon="-4.97013">
        <ele>373.8</ele>
        <time>2020-08-16 16:45:39</time>
      </trkpt>
      <trkpt lat="39.88511" lon="-4.97014">
        <ele>374</ele>
        <time>2020-08-16 16:45:40</time>
      </trkpt>
      <trkpt lat="39.88509" lon="-4.97015">
        <ele>374</ele>
        <time>2020-08-16 16:45:41</time>
      </trkpt>
      <trkpt lat="39.88506" lon="-4.97016">
        <ele>374.2</ele>
        <time>2020-08-16 16:45:42</time>
      </trkpt>
      <trkpt lat="39.88503" lon="-4.97016">
        <ele>374.2</ele>
        <time>2020-08-16 16:45:43</time>
      </trkpt>
      <trkpt lat="39.88501" lon="-4.97015">
        <ele>374.2</ele>
        <time>2020-08-16 16:45:44</time>
      </trkpt>
      <trkpt lat="39.88498" lon="-4.97016">
        <ele>374.2</ele>
        <time>2020-08-16 16:45:45</time>
      </trkpt>
      <trkpt lat="39.88496" lon="-4.97017">
        <ele>374.2</ele>
        <time>2020-08-16 16:45:46</time>
      </trkpt>
      <trkpt lat="39.88493" lon="-4.97018">
        <ele>374.4</ele>
        <time>2020-08-16 16:45:47</time>
      </trkpt>
      <trkpt lat="39.88491" lon="-4.97019">
        <ele>374.4</ele>
        <time>2020-08-16 16:45:48</time>
      </trkpt>
      <trkpt lat="39.88488" lon="-4.97019">
        <ele>374.4</ele>
        <time>2020-08-16 16:45:49</time>
      </trkpt>
      <trkpt lat="39.88486" lon="-4.97019">
        <ele>374.6</ele>
        <time>2020-08-16 16:45:50</time>
      </trkpt>
      <trkpt lat="39.88484" lon="-4.97019">
        <ele>374.6</ele>
        <time>2020-08-16 16:45:51</time>
      </trkpt>
      <trkpt lat="39.88481" lon="-4.97019">
        <ele>374.8</ele>
        <time>2020-08-16 16:45:52</time>
      </trkpt>
      <trkpt lat="39.88479" lon="-4.97019">
        <ele>374.8</ele>
        <time>2020-08-16 16:45:53</time>
      </trkpt>
      <trkpt lat="39.88477" lon="-4.97019">
        <ele>375</ele>
        <time>2020-08-16 16:45:54</time>
      </trkpt>
      <trkpt lat="39.88475" lon="-4.9702">
        <ele>375</ele>
        <time>2020-08-16 16:45:55</time>
      </trkpt>
      <trkpt lat="39.88473" lon="-4.9702">
        <ele>375.2</ele>
        <time>2020-08-16 16:45:56</time>
      </trkpt>
      <trkpt lat="39.8847" lon="-4.9702">
        <ele>375.2</ele>
        <time>2020-08-16 16:45:57</time>
      </trkpt>
      <trkpt lat="39.88468" lon="-4.9702">
        <ele>375.4</ele>
        <time>2020-08-16 16:45:58</time>
      </trkpt>
      <trkpt lat="39.88466" lon="-4.9702">
        <ele>375.4</ele>
        <time>2020-08-16 16:45:59</time>
      </trkpt>
      <trkpt lat="39.88464" lon="-4.9702">
        <ele>375.4</ele>
        <time>2020-08-16 16:46:00</time>
      </trkpt>
      <trkpt lat="39.88462" lon="-4.9702">
        <ele>375.6</ele>
        <time>2020-08-16 16:46:01</time>
      </trkpt>
      <trkpt lat="39.88459" lon="-4.97021">
        <ele>375.8</ele>
        <time>2020-08-16 16:46:02</time>
      </trkpt>
      <trkpt lat="39.88457" lon="-4.97021">
        <ele>375.8</ele>
        <time>2020-08-16 16:46:03</time>
      </trkpt>
      <trkpt lat="39.88455" lon="-4.97021">
        <ele>376</ele>
        <time>2020-08-16 16:46:04</time>
      </trkpt>
      <trkpt lat="39.88453" lon="-4.97021">
        <ele>376</ele>
        <time>2020-08-16 16:46:05</time>
      </trkpt>
      <trkpt lat="39.88451" lon="-4.97021">
        <ele>376.2</ele>
        <time>2020-08-16 16:46:06</time>
      </trkpt>
      <trkpt lat="39.88449" lon="-4.97021">
        <ele>376.4</ele>
        <time>2020-08-16 16:46:07</time>
      </trkpt>
      <trkpt lat="39.88447" lon="-4.97021">
        <ele>376.4</ele>
        <time>2020-08-16 16:46:08</time>
      </trkpt>
      <trkpt lat="39.88446" lon="-4.97022">
        <ele>376.6</ele>
        <time>2020-08-16 16:46:09</time>
      </trkpt>
      <trkpt lat="39.88443" lon="-4.97022">
        <ele>376.6</ele>
        <time>2020-08-16 16:46:10</time>
      </trkpt>
      <trkpt lat="39.88441" lon="-4.97022">
        <ele>376.8</ele>
        <time>2020-08-16 16:46:11</time>
      </trkpt>
      <trkpt lat="39.88439" lon="-4.97023">
        <ele>377</ele>
        <time>2020-08-16 16:46:12</time>
      </trkpt>
      <trkpt lat="39.88437" lon="-4.97024">
        <ele>377</ele>
        <time>2020-08-16 16:46:13</time>
      </trkpt>
      <trkpt lat="39.88435" lon="-4.97024">
        <ele>377.2</ele>
        <time>2020-08-16 16:46:14</time>
      </trkpt>
      <trkpt lat="39.88433" lon="-4.97025">
        <ele>377.4</ele>
        <time>2020-08-16 16:46:15</time>
      </trkpt>
      <trkpt lat="39.88431" lon="-4.97026">
        <ele>377.4</ele>
        <time>2020-08-16 16:46:16</time>
      </trkpt>
      <trkpt lat="39.88429" lon="-4.97027">
        <ele>377.6</ele>
        <time>2020-08-16 16:46:17</time>
      </trkpt>
      <trkpt lat="39.88427" lon="-4.97028">
        <ele>377.6</ele>
        <time>2020-08-16 16:46:18</time>
      </trkpt>
      <trkpt lat="39.88425" lon="-4.97029">
        <ele>377.8</ele>
        <time>2020-08-16 16:46:19</time>
      </trkpt>
      <trkpt lat="39.88423" lon="-4.97031">
        <ele>377.8</ele>
        <time>2020-08-16 16:46:20</time>
      </trkpt>
      <trkpt lat="39.88421" lon="-4.97032">
        <ele>378</ele>
        <time>2020-08-16 16:46:22</time>
      </trkpt>
      <trkpt lat="39.8842" lon="-4.97034">
        <ele>378</ele>
        <time>2020-08-16 16:46:23</time>
      </trkpt>
      <trkpt lat="39.88418" lon="-4.97035">
        <ele>378.2</ele>
        <time>2020-08-16 16:46:24</time>
      </trkpt>
      <trkpt lat="39.88416" lon="-4.97037">
        <ele>378.2</ele>
        <time>2020-08-16 16:46:25</time>
      </trkpt>
      <trkpt lat="39.88412" lon="-4.97039">
        <ele>378.4</ele>
        <time>2020-08-16 16:46:27</time>
      </trkpt>
      <trkpt lat="39.8841" lon="-4.9704">
        <ele>378.4</ele>
        <time>2020-08-16 16:46:28</time>
      </trkpt>
      <trkpt lat="39.88408" lon="-4.97042">
        <ele>379</ele>
        <time>2020-08-16 16:46:29</time>
      </trkpt>
      <trkpt lat="39.88406" lon="-4.97044">
        <ele>379.2</ele>
        <time>2020-08-16 16:46:30</time>
      </trkpt>
      <trkpt lat="39.88404" lon="-4.97046">
        <ele>379</ele>
        <time>2020-08-16 16:46:31</time>
      </trkpt>
      <trkpt lat="39.88402" lon="-4.97047">
        <ele>379.4</ele>
        <time>2020-08-16 16:46:32</time>
      </trkpt>
      <trkpt lat="39.884" lon="-4.97049">
        <ele>379.6</ele>
        <time>2020-08-16 16:46:33</time>
      </trkpt>
      <trkpt lat="39.88398" lon="-4.97051">
        <ele>379.6</ele>
        <time>2020-08-16 16:46:34</time>
      </trkpt>
      <trkpt lat="39.88396" lon="-4.97053">
        <ele>379.8</ele>
        <time>2020-08-16 16:46:35</time>
      </trkpt>
      <trkpt lat="39.88395" lon="-4.97055">
        <ele>379.8</ele>
        <time>2020-08-16 16:46:36</time>
      </trkpt>
      <trkpt lat="39.88393" lon="-4.97057">
        <ele>380.2</ele>
        <time>2020-08-16 16:46:37</time>
      </trkpt>
      <trkpt lat="39.88391" lon="-4.97059">
        <ele>380.4</ele>
        <time>2020-08-16 16:46:38</time>
      </trkpt>
      <trkpt lat="39.8839" lon="-4.97062">
        <ele>380.8</ele>
        <time>2020-08-16 16:46:39</time>
      </trkpt>
      <trkpt lat="39.88389" lon="-4.97064">
        <ele>380.8</ele>
        <time>2020-08-16 16:46:40</time>
      </trkpt>
      <trkpt lat="39.88387" lon="-4.97066">
        <ele>381</ele>
        <time>2020-08-16 16:46:41</time>
      </trkpt>
      <trkpt lat="39.88385" lon="-4.97068">
        <ele>381</ele>
        <time>2020-08-16 16:46:42</time>
      </trkpt>
      <trkpt lat="39.88384" lon="-4.97071">
        <ele>381</ele>
        <time>2020-08-16 16:46:43</time>
      </trkpt>
      <trkpt lat="39.88383" lon="-4.97073">
        <ele>381.2</ele>
        <time>2020-08-16 16:46:44</time>
      </trkpt>
      <trkpt lat="39.88381" lon="-4.97076">
        <ele>381.2</ele>
        <time>2020-08-16 16:46:45</time>
      </trkpt>
      <trkpt lat="39.8838" lon="-4.97079">
        <ele>381.4</ele>
        <time>2020-08-16 16:46:46</time>
      </trkpt>
      <trkpt lat="39.88379" lon="-4.97081">
        <ele>381.4</ele>
        <time>2020-08-16 16:46:47</time>
      </trkpt>
      <trkpt lat="39.88378" lon="-4.97084">
        <ele>381.4</ele>
        <time>2020-08-16 16:46:48</time>
      </trkpt>
      <trkpt lat="39.88377" lon="-4.97087">
        <ele>381.6</ele>
        <time>2020-08-16 16:46:49</time>
      </trkpt>
      <trkpt lat="39.88372" lon="-4.97108">
        <ele>381.8</ele>
        <time>2020-08-16 16:46:56</time>
      </trkpt>
      <trkpt lat="39.88371" lon="-4.97111">
        <ele>382</ele>
        <time>2020-08-16 16:46:57</time>
      </trkpt>
      <trkpt lat="39.88371" lon="-4.97115">
        <ele>382</ele>
        <time>2020-08-16 16:46:58</time>
      </trkpt>
      <trkpt lat="39.8837" lon="-4.97128">
        <ele>382.2</ele>
        <time>2020-08-16 16:47:02</time>
      </trkpt>
      <trkpt lat="39.88369" lon="-4.97131">
        <ele>382.2</ele>
        <time>2020-08-16 16:47:03</time>
      </trkpt>
      <trkpt lat="39.88369" lon="-4.97142">
        <ele>382.4</ele>
        <time>2020-08-16 16:47:06</time>
      </trkpt>
      <trkpt lat="39.88369" lon="-4.97145">
        <ele>382.6</ele>
        <time>2020-08-16 16:47:07</time>
      </trkpt>
      <trkpt lat="39.8837" lon="-4.97148">
        <ele>382.8</ele>
        <time>2020-08-16 16:47:08</time>
      </trkpt>
      <trkpt lat="39.8837" lon="-4.97152">
        <ele>382.8</ele>
        <time>2020-08-16 16:47:09</time>
      </trkpt>
      <trkpt lat="39.88371" lon="-4.97158">
        <ele>382.8</ele>
        <time>2020-08-16 16:47:11</time>
      </trkpt>
      <trkpt lat="39.88372" lon="-4.97161">
        <ele>382.8</ele>
        <time>2020-08-16 16:47:12</time>
      </trkpt>
      <trkpt lat="39.88377" lon="-4.97186">
        <ele>383</ele>
        <time>2020-08-16 16:47:19</time>
      </trkpt>
      <trkpt lat="39.88378" lon="-4.97189">
        <ele>383</ele>
        <time>2020-08-16 16:47:20</time>
      </trkpt>
      <trkpt lat="39.88379" lon="-4.97192">
        <ele>383</ele>
        <time>2020-08-16 16:47:21</time>
      </trkpt>
      <trkpt lat="39.8838" lon="-4.97195">
        <ele>383</ele>
        <time>2020-08-16 16:47:22</time>
      </trkpt>
      <trkpt lat="39.88381" lon="-4.97198">
        <ele>382.8</ele>
        <time>2020-08-16 16:47:23</time>
      </trkpt>
      <trkpt lat="39.88382" lon="-4.97201">
        <ele>382.8</ele>
        <time>2020-08-16 16:47:24</time>
      </trkpt>
      <trkpt lat="39.88392" lon="-4.9723">
        <ele>382.8</ele>
        <time>2020-08-16 16:47:32</time>
      </trkpt>
      <trkpt lat="39.88394" lon="-4.97238">
        <ele>383.2</ele>
        <time>2020-08-16 16:47:34</time>
      </trkpt>
      <trkpt lat="39.88395" lon="-4.97241">
        <ele>383.2</ele>
        <time>2020-08-16 16:47:35</time>
      </trkpt>
      <trkpt lat="39.88398" lon="-4.97256">
        <ele>383.4</ele>
        <time>2020-08-16 16:47:39</time>
      </trkpt>
      <trkpt lat="39.88399" lon="-4.97259">
        <ele>383.4</ele>
        <time>2020-08-16 16:47:40</time>
      </trkpt>
      <trkpt lat="39.88399" lon="-4.97263">
        <ele>383.4</ele>
        <time>2020-08-16 16:47:41</time>
      </trkpt>
      <trkpt lat="39.884" lon="-4.97266">
        <ele>383.4</ele>
        <time>2020-08-16 16:47:42</time>
      </trkpt>
      <trkpt lat="39.88401" lon="-4.97269">
        <ele>383.4</ele>
        <time>2020-08-16 16:47:43</time>
      </trkpt>
      <trkpt lat="39.88402" lon="-4.97273">
        <ele>383.6</ele>
        <time>2020-08-16 16:47:44</time>
      </trkpt>
      <trkpt lat="39.88403" lon="-4.97276">
        <ele>383.6</ele>
        <time>2020-08-16 16:47:45</time>
      </trkpt>
      <trkpt lat="39.88403" lon="-4.97279">
        <ele>383.6</ele>
        <time>2020-08-16 16:47:46</time>
      </trkpt>
      <trkpt lat="39.88404" lon="-4.97281">
        <ele>383.8</ele>
        <time>2020-08-16 16:47:47</time>
      </trkpt>
      <trkpt lat="39.88405" lon="-4.97284">
        <ele>383.8</ele>
        <time>2020-08-16 16:47:48</time>
      </trkpt>
      <trkpt lat="39.88406" lon="-4.97286">
        <ele>384</ele>
        <time>2020-08-16 16:47:49</time>
      </trkpt>
      <trkpt lat="39.88406" lon="-4.97289">
        <ele>384.2</ele>
        <time>2020-08-16 16:47:50</time>
      </trkpt>
      <trkpt lat="39.88408" lon="-4.97291">
        <ele>384.4</ele>
        <time>2020-08-16 16:47:51</time>
      </trkpt>
      <trkpt lat="39.88409" lon="-4.97293">
        <ele>384.6</ele>
        <time>2020-08-16 16:47:52</time>
      </trkpt>
      <trkpt lat="39.88409" lon="-4.97295">
        <ele>384.8</ele>
        <time>2020-08-16 16:47:53</time>
      </trkpt>
      <trkpt lat="39.8841" lon="-4.97298">
        <ele>384.8</ele>
        <time>2020-08-16 16:47:54</time>
      </trkpt>
      <trkpt lat="39.8841" lon="-4.97301">
        <ele>384.8</ele>
        <time>2020-08-16 16:47:55</time>
      </trkpt>
      <trkpt lat="39.88411" lon="-4.97304">
        <ele>385</ele>
        <time>2020-08-16 16:47:56</time>
      </trkpt>
      <trkpt lat="39.88411" lon="-4.97307">
        <ele>385</ele>
        <time>2020-08-16 16:47:57</time>
      </trkpt>
      <trkpt lat="39.88411" lon="-4.9731">
        <ele>385.2</ele>
        <time>2020-08-16 16:47:58</time>
      </trkpt>
      <trkpt lat="39.88411" lon="-4.97313">
        <ele>385.2</ele>
        <time>2020-08-16 16:47:59</time>
      </trkpt>
      <trkpt lat="39.88411" lon="-4.97315">
        <ele>385.4</ele>
        <time>2020-08-16 16:48:00</time>
      </trkpt>
      <trkpt lat="39.8841" lon="-4.97318">
        <ele>385.6</ele>
        <time>2020-08-16 16:48:01</time>
      </trkpt>
      <trkpt lat="39.88409" lon="-4.9732">
        <ele>385.8</ele>
        <time>2020-08-16 16:48:02</time>
      </trkpt>
      <trkpt lat="39.88409" lon="-4.97323">
        <ele>386</ele>
        <time>2020-08-16 16:48:03</time>
      </trkpt>
      <trkpt lat="39.88407" lon="-4.97325">
        <ele>386</ele>
        <time>2020-08-16 16:48:04</time>
      </trkpt>
      <trkpt lat="39.88406" lon="-4.97328">
        <ele>386.2</ele>
        <time>2020-08-16 16:48:05</time>
      </trkpt>
      <trkpt lat="39.88405" lon="-4.97331">
        <ele>386.2</ele>
        <time>2020-08-16 16:48:06</time>
      </trkpt>
      <trkpt lat="39.88405" lon="-4.97334">
        <ele>386.2</ele>
        <time>2020-08-16 16:48:07</time>
      </trkpt>
      <trkpt lat="39.88404" lon="-4.97336">
        <ele>386.4</ele>
        <time>2020-08-16 16:48:08</time>
      </trkpt>
      <trkpt lat="39.88403" lon="-4.97339">
        <ele>386.4</ele>
        <time>2020-08-16 16:48:09</time>
      </trkpt>
      <trkpt lat="39.88402" lon="-4.97342">
        <ele>386.6</ele>
        <time>2020-08-16 16:48:10</time>
      </trkpt>
      <trkpt lat="39.88401" lon="-4.97348">
        <ele>386.8</ele>
        <time>2020-08-16 16:48:12</time>
      </trkpt>
      <trkpt lat="39.88399" lon="-4.97354">
        <ele>386.8</ele>
        <time>2020-08-16 16:48:14</time>
      </trkpt>
      <trkpt lat="39.88398" lon="-4.97356">
        <ele>387</ele>
        <time>2020-08-16 16:48:15</time>
      </trkpt>
      <trkpt lat="39.88398" lon="-4.97359">
        <ele>387</ele>
        <time>2020-08-16 16:48:16</time>
      </trkpt>
      <trkpt lat="39.88395" lon="-4.97367">
        <ele>387.4</ele>
        <time>2020-08-16 16:48:19</time>
      </trkpt>
      <trkpt lat="39.88395" lon="-4.9737">
        <ele>387.6</ele>
        <time>2020-08-16 16:48:20</time>
      </trkpt>
      <trkpt lat="39.88394" lon="-4.97373">
        <ele>387.6</ele>
        <time>2020-08-16 16:48:21</time>
      </trkpt>
      <trkpt lat="39.88393" lon="-4.97376">
        <ele>387.8</ele>
        <time>2020-08-16 16:48:22</time>
      </trkpt>
      <trkpt lat="39.88393" lon="-4.97379">
        <ele>387.8</ele>
        <time>2020-08-16 16:48:23</time>
      </trkpt>
      <trkpt lat="39.88392" lon="-4.97382">
        <ele>388</ele>
        <time>2020-08-16 16:48:24</time>
      </trkpt>
      <trkpt lat="39.88391" lon="-4.97384">
        <ele>388.4</ele>
        <time>2020-08-16 16:48:25</time>
      </trkpt>
      <trkpt lat="39.8839" lon="-4.97387">
        <ele>388.8</ele>
        <time>2020-08-16 16:48:26</time>
      </trkpt>
      <trkpt lat="39.88388" lon="-4.97391">
        <ele>389</ele>
        <time>2020-08-16 16:48:27</time>
      </trkpt>
      <trkpt lat="39.88388" lon="-4.97394">
        <ele>389.2</ele>
        <time>2020-08-16 16:48:28</time>
      </trkpt>
      <trkpt lat="39.88387" lon="-4.97397">
        <ele>389.2</ele>
        <time>2020-08-16 16:48:29</time>
      </trkpt>
      <trkpt lat="39.88386" lon="-4.974">
        <ele>389.4</ele>
        <time>2020-08-16 16:48:30</time>
      </trkpt>
      <trkpt lat="39.88385" lon="-4.97404">
        <ele>389.4</ele>
        <time>2020-08-16 16:48:31</time>
      </trkpt>
      <trkpt lat="39.88384" lon="-4.97407">
        <ele>389.6</ele>
        <time>2020-08-16 16:48:32</time>
      </trkpt>
      <trkpt lat="39.88384" lon="-4.9741">
        <ele>389.6</ele>
        <time>2020-08-16 16:48:33</time>
      </trkpt>
      <trkpt lat="39.88383" lon="-4.97413">
        <ele>389.6</ele>
        <time>2020-08-16 16:48:34</time>
      </trkpt>
      <trkpt lat="39.88382" lon="-4.97416">
        <ele>389.8</ele>
        <time>2020-08-16 16:48:35</time>
      </trkpt>
      <trkpt lat="39.88382" lon="-4.97419">
        <ele>389.8</ele>
        <time>2020-08-16 16:48:36</time>
      </trkpt>
      <trkpt lat="39.8838" lon="-4.97426">
        <ele>389.8</ele>
        <time>2020-08-16 16:48:38</time>
      </trkpt>
      <trkpt lat="39.8838" lon="-4.97429">
        <ele>390</ele>
        <time>2020-08-16 16:48:39</time>
      </trkpt>
      <trkpt lat="39.88379" lon="-4.97435">
        <ele>390.2</ele>
        <time>2020-08-16 16:48:41</time>
      </trkpt>
      <trkpt lat="39.88379" lon="-4.97438">
        <ele>390.4</ele>
        <time>2020-08-16 16:48:42</time>
      </trkpt>
      <trkpt lat="39.88378" lon="-4.97441">
        <ele>390.6</ele>
        <time>2020-08-16 16:48:43</time>
      </trkpt>
      <trkpt lat="39.88377" lon="-4.97444">
        <ele>390.6</ele>
        <time>2020-08-16 16:48:44</time>
      </trkpt>
      <trkpt lat="39.88377" lon="-4.97448">
        <ele>390.8</ele>
        <time>2020-08-16 16:48:45</time>
      </trkpt>
      <trkpt lat="39.88376" lon="-4.97451">
        <ele>390.8</ele>
        <time>2020-08-16 16:48:46</time>
      </trkpt>
      <trkpt lat="39.88375" lon="-4.97454">
        <ele>391</ele>
        <time>2020-08-16 16:48:47</time>
      </trkpt>
      <trkpt lat="39.88374" lon="-4.97457">
        <ele>391</ele>
        <time>2020-08-16 16:48:48</time>
      </trkpt>
      <trkpt lat="39.88374" lon="-4.9746">
        <ele>391.2</ele>
        <time>2020-08-16 16:48:49</time>
      </trkpt>
      <trkpt lat="39.88374" lon="-4.97463">
        <ele>391.4</ele>
        <time>2020-08-16 16:48:50</time>
      </trkpt>
      <trkpt lat="39.88373" lon="-4.97467">
        <ele>391.4</ele>
        <time>2020-08-16 16:48:51</time>
      </trkpt>
      <trkpt lat="39.88373" lon="-4.9747">
        <ele>391.6</ele>
        <time>2020-08-16 16:48:52</time>
      </trkpt>
      <trkpt lat="39.88373" lon="-4.97473">
        <ele>391.6</ele>
        <time>2020-08-16 16:48:53</time>
      </trkpt>
      <trkpt lat="39.88372" lon="-4.97476">
        <ele>391.8</ele>
        <time>2020-08-16 16:48:54</time>
      </trkpt>
      <trkpt lat="39.88372" lon="-4.97479">
        <ele>392</ele>
        <time>2020-08-16 16:48:55</time>
      </trkpt>
      <trkpt lat="39.88372" lon="-4.97483">
        <ele>392.2</ele>
        <time>2020-08-16 16:48:56</time>
      </trkpt>
      <trkpt lat="39.88371" lon="-4.97486">
        <ele>392.2</ele>
        <time>2020-08-16 16:48:57</time>
      </trkpt>
      <trkpt lat="39.88371" lon="-4.97489">
        <ele>392.2</ele>
        <time>2020-08-16 16:48:58</time>
      </trkpt>
      <trkpt lat="39.8837" lon="-4.97493">
        <ele>392.4</ele>
        <time>2020-08-16 16:48:59</time>
      </trkpt>
      <trkpt lat="39.8837" lon="-4.97496">
        <ele>392.6</ele>
        <time>2020-08-16 16:49:00</time>
      </trkpt>
      <trkpt lat="39.8837" lon="-4.97499">
        <ele>392.6</ele>
        <time>2020-08-16 16:49:01</time>
      </trkpt>
      <trkpt lat="39.8837" lon="-4.97502">
        <ele>392.8</ele>
        <time>2020-08-16 16:49:02</time>
      </trkpt>
      <trkpt lat="39.8837" lon="-4.97505">
        <ele>393</ele>
        <time>2020-08-16 16:49:03</time>
      </trkpt>
      <trkpt lat="39.8837" lon="-4.97508">
        <ele>393.2</ele>
        <time>2020-08-16 16:49:04</time>
      </trkpt>
      <trkpt lat="39.88371" lon="-4.97511">
        <ele>393.2</ele>
        <time>2020-08-16 16:49:05</time>
      </trkpt>
      <trkpt lat="39.88371" lon="-4.97515">
        <ele>393.4</ele>
        <time>2020-08-16 16:49:06</time>
      </trkpt>
      <trkpt lat="39.88371" lon="-4.97518">
        <ele>393.6</ele>
        <time>2020-08-16 16:49:07</time>
      </trkpt>
      <trkpt lat="39.88371" lon="-4.9752">
        <ele>393.6</ele>
        <time>2020-08-16 16:49:08</time>
      </trkpt>
      <trkpt lat="39.88372" lon="-4.97522">
        <ele>394</ele>
        <time>2020-08-16 16:49:09</time>
      </trkpt>
      <trkpt lat="39.88372" lon="-4.97524">
        <ele>394</ele>
        <time>2020-08-16 16:49:10</time>
      </trkpt>
      <trkpt lat="39.88372" lon="-4.97526">
        <ele>394.2</ele>
        <time>2020-08-16 16:49:11</time>
      </trkpt>
      <trkpt lat="39.88372" lon="-4.97528">
        <ele>394.6</ele>
        <time>2020-08-16 16:49:12</time>
      </trkpt>
      <trkpt lat="39.88372" lon="-4.9753">
        <ele>394.6</ele>
        <time>2020-08-16 16:49:13</time>
      </trkpt>
      <trkpt lat="39.88372" lon="-4.97533">
        <ele>394.8</ele>
        <time>2020-08-16 16:49:14</time>
      </trkpt>
      <trkpt lat="39.88372" lon="-4.97535">
        <ele>395</ele>
        <time>2020-08-16 16:49:15</time>
      </trkpt>
      <trkpt lat="39.88372" lon="-4.97538">
        <ele>395</ele>
        <time>2020-08-16 16:49:16</time>
      </trkpt>
      <trkpt lat="39.88371" lon="-4.9754">
        <ele>395.2</ele>
        <time>2020-08-16 16:49:17</time>
      </trkpt>
      <trkpt lat="39.88372" lon="-4.97543">
        <ele>395.4</ele>
        <time>2020-08-16 16:49:18</time>
      </trkpt>
      <trkpt lat="39.88372" lon="-4.97546">
        <ele>395.4</ele>
        <time>2020-08-16 16:49:19</time>
      </trkpt>
      <trkpt lat="39.88372" lon="-4.97548">
        <ele>395.4</ele>
        <time>2020-08-16 16:49:20</time>
      </trkpt>
      <trkpt lat="39.88371" lon="-4.97551">
        <ele>395.6</ele>
        <time>2020-08-16 16:49:21</time>
      </trkpt>
      <trkpt lat="39.88371" lon="-4.97554">
        <ele>395.8</ele>
        <time>2020-08-16 16:49:22</time>
      </trkpt>
      <trkpt lat="39.88371" lon="-4.97557">
        <ele>395.8</ele>
        <time>2020-08-16 16:49:23</time>
      </trkpt>
      <trkpt lat="39.88371" lon="-4.97559">
        <ele>396</ele>
        <time>2020-08-16 16:49:24</time>
      </trkpt>
      <trkpt lat="39.88371" lon="-4.97562">
        <ele>396</ele>
        <time>2020-08-16 16:49:25</time>
      </trkpt>
      <trkpt lat="39.8837" lon="-4.97564">
        <ele>396.2</ele>
        <time>2020-08-16 16:49:26</time>
      </trkpt>
      <trkpt lat="39.8837" lon="-4.97567">
        <ele>396.4</ele>
        <time>2020-08-16 16:49:27</time>
      </trkpt>
      <trkpt lat="39.88369" lon="-4.9757">
        <ele>396.6</ele>
        <time>2020-08-16 16:49:28</time>
      </trkpt>
      <trkpt lat="39.88369" lon="-4.97573">
        <ele>396.8</ele>
        <time>2020-08-16 16:49:29</time>
      </trkpt>
      <trkpt lat="39.88369" lon="-4.97576">
        <ele>396.8</ele>
        <time>2020-08-16 16:49:30</time>
      </trkpt>
      <trkpt lat="39.88369" lon="-4.9758">
        <ele>396.8</ele>
        <time>2020-08-16 16:49:31</time>
      </trkpt>
      <trkpt lat="39.8837" lon="-4.97583">
        <ele>396.8</ele>
        <time>2020-08-16 16:49:32</time>
      </trkpt>
      <trkpt lat="39.8837" lon="-4.97586">
        <ele>397</ele>
        <time>2020-08-16 16:49:33</time>
      </trkpt>
      <trkpt lat="39.8837" lon="-4.97589">
        <ele>397</ele>
        <time>2020-08-16 16:49:34</time>
      </trkpt>
      <trkpt lat="39.8837" lon="-4.97591">
        <ele>397</ele>
        <time>2020-08-16 16:49:35</time>
      </trkpt>
      <trkpt lat="39.88369" lon="-4.97594">
        <ele>397.2</ele>
        <time>2020-08-16 16:49:36</time>
      </trkpt>
      <trkpt lat="39.88368" lon="-4.97598">
        <ele>397.2</ele>
        <time>2020-08-16 16:49:37</time>
      </trkpt>
      <trkpt lat="39.88366" lon="-4.97602">
        <ele>397.2</ele>
        <time>2020-08-16 16:49:38</time>
      </trkpt>
      <trkpt lat="39.88367" lon="-4.97606">
        <ele>397.2</ele>
        <time>2020-08-16 16:49:39</time>
      </trkpt>
      <trkpt lat="39.88368" lon="-4.97613">
        <ele>397.4</ele>
        <time>2020-08-16 16:49:41</time>
      </trkpt>
      <trkpt lat="39.88367" lon="-4.97617">
        <ele>397.4</ele>
        <time>2020-08-16 16:49:42</time>
      </trkpt>
      <trkpt lat="39.88367" lon="-4.97621">
        <ele>397.4</ele>
        <time>2020-08-16 16:49:43</time>
      </trkpt>
      <trkpt lat="39.88367" lon="-4.97624">
        <ele>397.4</ele>
        <time>2020-08-16 16:49:44</time>
      </trkpt>
      <trkpt lat="39.88368" lon="-4.97626">
        <ele>397.4</ele>
        <time>2020-08-16 16:49:45</time>
      </trkpt>
      <trkpt lat="39.88367" lon="-4.97628">
        <ele>397.6</ele>
        <time>2020-08-16 16:49:46</time>
      </trkpt>
      <trkpt lat="39.88366" lon="-4.9763">
        <ele>397.6</ele>
        <time>2020-08-16 16:49:47</time>
      </trkpt>
      <trkpt lat="39.88367" lon="-4.97634">
        <ele>397.6</ele>
        <time>2020-08-16 16:49:48</time>
      </trkpt>
      <trkpt lat="39.88367" lon="-4.97637">
        <ele>397.6</ele>
        <time>2020-08-16 16:49:49</time>
      </trkpt>
      <trkpt lat="39.88367" lon="-4.97639">
        <ele>397.6</ele>
        <time>2020-08-16 16:49:50</time>
      </trkpt>
      <trkpt lat="39.88368" lon="-4.9765">
        <ele>397.8</ele>
        <time>2020-08-16 16:49:53</time>
      </trkpt>
      <trkpt lat="39.88368" lon="-4.97653">
        <ele>397.8</ele>
        <time>2020-08-16 16:49:54</time>
      </trkpt>
      <trkpt lat="39.88368" lon="-4.97656">
        <ele>397.8</ele>
        <time>2020-08-16 16:49:55</time>
      </trkpt>
      <trkpt lat="39.88368" lon="-4.97659">
        <ele>397.8</ele>
        <time>2020-08-16 16:49:56</time>
      </trkpt>
      <trkpt lat="39.88369" lon="-4.97661">
        <ele>398</ele>
        <time>2020-08-16 16:49:57</time>
      </trkpt>
      <trkpt lat="39.88369" lon="-4.97664">
        <ele>398.2</ele>
        <time>2020-08-16 16:49:58</time>
      </trkpt>
      <trkpt lat="39.88369" lon="-4.97666">
        <ele>398.2</ele>
        <time>2020-08-16 16:49:59</time>
      </trkpt>
      <trkpt lat="39.88369" lon="-4.97669">
        <ele>398.2</ele>
        <time>2020-08-16 16:50:00</time>
      </trkpt>
      <trkpt lat="39.88369" lon="-4.97673">
        <ele>398.2</ele>
        <time>2020-08-16 16:50:01</time>
      </trkpt>
      <trkpt lat="39.88369" lon="-4.97676">
        <ele>398.2</ele>
        <time>2020-08-16 16:50:02</time>
      </trkpt>
      <trkpt lat="39.88369" lon="-4.97679">
        <ele>398.2</ele>
        <time>2020-08-16 16:50:03</time>
      </trkpt>
      <trkpt lat="39.88368" lon="-4.97682">
        <ele>398.2</ele>
        <time>2020-08-16 16:50:04</time>
      </trkpt>
      <trkpt lat="39.88367" lon="-4.97684">
        <ele>398.2</ele>
        <time>2020-08-16 16:50:05</time>
      </trkpt>
      <trkpt lat="39.88366" lon="-4.97687">
        <ele>398.2</ele>
        <time>2020-08-16 16:50:06</time>
      </trkpt>
      <trkpt lat="39.88365" lon="-4.9769">
        <ele>398.2</ele>
        <time>2020-08-16 16:50:07</time>
      </trkpt>
      <trkpt lat="39.88364" lon="-4.97693">
        <ele>398.2</ele>
        <time>2020-08-16 16:50:08</time>
      </trkpt>
      <trkpt lat="39.88364" lon="-4.97697">
        <ele>398.2</ele>
        <time>2020-08-16 16:50:09</time>
      </trkpt>
      <trkpt lat="39.88364" lon="-4.97701">
        <ele>398.2</ele>
        <time>2020-08-16 16:50:10</time>
      </trkpt>
      <trkpt lat="39.88364" lon="-4.97705">
        <ele>398.4</ele>
        <time>2020-08-16 16:50:11</time>
      </trkpt>
      <trkpt lat="39.88364" lon="-4.9772">
        <ele>398.6</ele>
        <time>2020-08-16 16:50:15</time>
      </trkpt>
      <trkpt lat="39.88363" lon="-4.97724">
        <ele>398.6</ele>
        <time>2020-08-16 16:50:16</time>
      </trkpt>
      <trkpt lat="39.8836" lon="-4.97742">
        <ele>398.6</ele>
        <time>2020-08-16 16:50:20</time>
      </trkpt>
      <trkpt lat="39.8836" lon="-4.97755">
        <ele>398.6</ele>
        <time>2020-08-16 16:50:23</time>
      </trkpt>
      <trkpt lat="39.8836" lon="-4.97759">
        <ele>398.6</ele>
        <time>2020-08-16 16:50:24</time>
      </trkpt>
      <trkpt lat="39.88359" lon="-4.97768">
        <ele>398.8</ele>
        <time>2020-08-16 16:50:26</time>
      </trkpt>
      <trkpt lat="39.88359" lon="-4.97771">
        <ele>398.8</ele>
        <time>2020-08-16 16:50:27</time>
      </trkpt>
      <trkpt lat="39.88359" lon="-4.97776">
        <ele>398.8</ele>
        <time>2020-08-16 16:50:28</time>
      </trkpt>
      <trkpt lat="39.88358" lon="-4.97785">
        <ele>398.8</ele>
        <time>2020-08-16 16:50:30</time>
      </trkpt>
      <trkpt lat="39.88358" lon="-4.9779">
        <ele>398.8</ele>
        <time>2020-08-16 16:50:31</time>
      </trkpt>
      <trkpt lat="39.88358" lon="-4.97818">
        <ele>398.8</ele>
        <time>2020-08-16 16:50:38</time>
      </trkpt>
      <trkpt lat="39.88358" lon="-4.97822">
        <ele>398.8</ele>
        <time>2020-08-16 16:50:39</time>
      </trkpt>
      <trkpt lat="39.88357" lon="-4.97829">
        <ele>398.4</ele>
        <time>2020-08-16 16:50:41</time>
      </trkpt>
      <trkpt lat="39.88357" lon="-4.97833">
        <ele>398.4</ele>
        <time>2020-08-16 16:50:42</time>
      </trkpt>
      <trkpt lat="39.88357" lon="-4.97837">
        <ele>398.6</ele>
        <time>2020-08-16 16:50:43</time>
      </trkpt>
      <trkpt lat="39.88356" lon="-4.9784">
        <ele>398.6</ele>
        <time>2020-08-16 16:50:44</time>
      </trkpt>
      <trkpt lat="39.88356" lon="-4.97844">
        <ele>398.6</ele>
        <time>2020-08-16 16:50:45</time>
      </trkpt>
      <trkpt lat="39.88356" lon="-4.97848">
        <ele>398.6</ele>
        <time>2020-08-16 16:50:46</time>
      </trkpt>
      <trkpt lat="39.88356" lon="-4.97853">
        <ele>398.8</ele>
        <time>2020-08-16 16:50:47</time>
      </trkpt>
      <trkpt lat="39.88356" lon="-4.97857">
        <ele>398.8</ele>
        <time>2020-08-16 16:50:48</time>
      </trkpt>
      <trkpt lat="39.88356" lon="-4.97862">
        <ele>398.8</ele>
        <time>2020-08-16 16:50:49</time>
      </trkpt>
      <trkpt lat="39.88356" lon="-4.97866">
        <ele>398.8</ele>
        <time>2020-08-16 16:50:50</time>
      </trkpt>
      <trkpt lat="39.88356" lon="-4.97871">
        <ele>398.6</ele>
        <time>2020-08-16 16:50:51</time>
      </trkpt>
      <trkpt lat="39.88355" lon="-4.97881">
        <ele>398.8</ele>
        <time>2020-08-16 16:50:53</time>
      </trkpt>
      <trkpt lat="39.88355" lon="-4.97886">
        <ele>398.8</ele>
        <time>2020-08-16 16:50:54</time>
      </trkpt>
      <trkpt lat="39.88355" lon="-4.97906">
        <ele>398.8</ele>
        <time>2020-08-16 16:50:58</time>
      </trkpt>
      <trkpt lat="39.88356" lon="-4.97921">
        <ele>398.6</ele>
        <time>2020-08-16 16:51:01</time>
      </trkpt>
      <trkpt lat="39.88359" lon="-4.97958">
        <ele>398.2</ele>
        <time>2020-08-16 16:51:08</time>
      </trkpt>
      <trkpt lat="39.8836" lon="-4.97963">
        <ele>398.2</ele>
        <time>2020-08-16 16:51:09</time>
      </trkpt>
      <trkpt lat="39.8836" lon="-4.97967">
        <ele>398.2</ele>
        <time>2020-08-16 16:51:10</time>
      </trkpt>
      <trkpt lat="39.88361" lon="-4.97972">
        <ele>398.2</ele>
        <time>2020-08-16 16:51:11</time>
      </trkpt>
      <trkpt lat="39.88361" lon="-4.97977">
        <ele>398.2</ele>
        <time>2020-08-16 16:51:12</time>
      </trkpt>
      <trkpt lat="39.88361" lon="-4.97981">
        <ele>398.2</ele>
        <time>2020-08-16 16:51:13</time>
      </trkpt>
      <trkpt lat="39.88362" lon="-4.97986">
        <ele>398</ele>
        <time>2020-08-16 16:51:14</time>
      </trkpt>
      <trkpt lat="39.88363" lon="-4.9799">
        <ele>398</ele>
        <time>2020-08-16 16:51:15</time>
      </trkpt>
      <trkpt lat="39.88363" lon="-4.97995">
        <ele>398</ele>
        <time>2020-08-16 16:51:16</time>
      </trkpt>
      <trkpt lat="39.88364" lon="-4.97999">
        <ele>398</ele>
        <time>2020-08-16 16:51:17</time>
      </trkpt>
      <trkpt lat="39.88365" lon="-4.98003">
        <ele>397.8</ele>
        <time>2020-08-16 16:51:18</time>
      </trkpt>
      <trkpt lat="39.88365" lon="-4.98008">
        <ele>397.8</ele>
        <time>2020-08-16 16:51:19</time>
      </trkpt>
      <trkpt lat="39.88366" lon="-4.98013">
        <ele>397.8</ele>
        <time>2020-08-16 16:51:20</time>
      </trkpt>
      <trkpt lat="39.88366" lon="-4.98017">
        <ele>397.6</ele>
        <time>2020-08-16 16:51:21</time>
      </trkpt>
      <trkpt lat="39.88366" lon="-4.98022">
        <ele>397.6</ele>
        <time>2020-08-16 16:51:22</time>
      </trkpt>
      <trkpt lat="39.88367" lon="-4.98026">
        <ele>397.6</ele>
        <time>2020-08-16 16:51:23</time>
      </trkpt>
      <trkpt lat="39.88368" lon="-4.98031">
        <ele>397.6</ele>
        <time>2020-08-16 16:51:24</time>
      </trkpt>
      <trkpt lat="39.88368" lon="-4.98036">
        <ele>397.4</ele>
        <time>2020-08-16 16:51:25</time>
      </trkpt>
      <trkpt lat="39.88368" lon="-4.98041">
        <ele>397.4</ele>
        <time>2020-08-16 16:51:26</time>
      </trkpt>
      <trkpt lat="39.88369" lon="-4.98057">
        <ele>397.4</ele>
        <time>2020-08-16 16:51:29</time>
      </trkpt>
      <trkpt lat="39.88369" lon="-4.98063">
        <ele>397.4</ele>
        <time>2020-08-16 16:51:30</time>
      </trkpt>
      <trkpt lat="39.88369" lon="-4.98068">
        <ele>397.4</ele>
        <time>2020-08-16 16:51:31</time>
      </trkpt>
      <trkpt lat="39.88369" lon="-4.98086">
        <ele>397.2</ele>
        <time>2020-08-16 16:51:34</time>
      </trkpt>
      <trkpt lat="39.88369" lon="-4.98092">
        <ele>397.2</ele>
        <time>2020-08-16 16:51:35</time>
      </trkpt>
      <trkpt lat="39.88369" lon="-4.98103">
        <ele>397</ele>
        <time>2020-08-16 16:51:37</time>
      </trkpt>
      <trkpt lat="39.88369" lon="-4.98126">
        <ele>396.8</ele>
        <time>2020-08-16 16:51:41</time>
      </trkpt>
      <trkpt lat="39.88369" lon="-4.98131">
        <ele>396.8</ele>
        <time>2020-08-16 16:51:42</time>
      </trkpt>
      <trkpt lat="39.88369" lon="-4.98135">
        <ele>396.8</ele>
        <time>2020-08-16 16:51:43</time>
      </trkpt>
      <trkpt lat="39.88369" lon="-4.9814">
        <ele>396.8</ele>
        <time>2020-08-16 16:51:44</time>
      </trkpt>
      <trkpt lat="39.88369" lon="-4.98146">
        <ele>396.8</ele>
        <time>2020-08-16 16:51:45</time>
      </trkpt>
      <trkpt lat="39.88369" lon="-4.98151">
        <ele>397</ele>
        <time>2020-08-16 16:51:46</time>
      </trkpt>
      <trkpt lat="39.88368" lon="-4.98156">
        <ele>397</ele>
        <time>2020-08-16 16:51:47</time>
      </trkpt>
      <trkpt lat="39.88368" lon="-4.98161">
        <ele>397</ele>
        <time>2020-08-16 16:51:48</time>
      </trkpt>
      <trkpt lat="39.88367" lon="-4.98165">
        <ele>397</ele>
        <time>2020-08-16 16:51:49</time>
      </trkpt>
      <trkpt lat="39.88367" lon="-4.9817">
        <ele>397</ele>
        <time>2020-08-16 16:51:50</time>
      </trkpt>
      <trkpt lat="39.88367" lon="-4.98174">
        <ele>397</ele>
        <time>2020-08-16 16:51:51</time>
      </trkpt>
      <trkpt lat="39.88367" lon="-4.98179">
        <ele>397</ele>
        <time>2020-08-16 16:51:52</time>
      </trkpt>
      <trkpt lat="39.88367" lon="-4.98184">
        <ele>397</ele>
        <time>2020-08-16 16:51:53</time>
      </trkpt>
      <trkpt lat="39.88366" lon="-4.98188">
        <ele>397</ele>
        <time>2020-08-16 16:51:54</time>
      </trkpt>
      <trkpt lat="39.88366" lon="-4.98192">
        <ele>397</ele>
        <time>2020-08-16 16:51:55</time>
      </trkpt>
      <trkpt lat="39.88365" lon="-4.98196">
        <ele>397</ele>
        <time>2020-08-16 16:51:56</time>
      </trkpt>
      <trkpt lat="39.88365" lon="-4.982">
        <ele>396.8</ele>
        <time>2020-08-16 16:51:57</time>
      </trkpt>
      <trkpt lat="39.88365" lon="-4.98205">
        <ele>396.8</ele>
        <time>2020-08-16 16:51:58</time>
      </trkpt>
      <trkpt lat="39.88365" lon="-4.98208">
        <ele>396.8</ele>
        <time>2020-08-16 16:51:59</time>
      </trkpt>
      <trkpt lat="39.88365" lon="-4.98212">
        <ele>396.8</ele>
        <time>2020-08-16 16:52:00</time>
      </trkpt>
      <trkpt lat="39.88365" lon="-4.98216">
        <ele>396.8</ele>
        <time>2020-08-16 16:52:01</time>
      </trkpt>
      <trkpt lat="39.88366" lon="-4.98219">
        <ele>396.8</ele>
        <time>2020-08-16 16:52:02</time>
      </trkpt>
      <trkpt lat="39.88367" lon="-4.98222">
        <ele>396.8</ele>
        <time>2020-08-16 16:52:03</time>
      </trkpt>
      <trkpt lat="39.88368" lon="-4.98225">
        <ele>396.8</ele>
        <time>2020-08-16 16:52:04</time>
      </trkpt>
      <trkpt lat="39.8837" lon="-4.98227">
        <ele>396.8</ele>
        <time>2020-08-16 16:52:05</time>
      </trkpt>
      <trkpt lat="39.88371" lon="-4.9823">
        <ele>396.8</ele>
        <time>2020-08-16 16:52:06</time>
      </trkpt>
      <trkpt lat="39.88371" lon="-4.98231">
        <ele>396.8</ele>
        <time>2020-08-16 16:52:07</time>
      </trkpt>
      <trkpt lat="39.88371" lon="-4.98232">
        <ele>396.8</ele>
        <time>2020-08-16 16:52:08</time>
      </trkpt>
      <trkpt lat="39.88372" lon="-4.98232">
        <ele>396.8</ele>
        <time>2020-08-16 16:52:09</time>
      </trkpt>
      <trkpt lat="39.88372" lon="-4.98232">
        <ele>396.8</ele>
        <time>2020-08-16 16:52:11</time>
      </trkpt>
    </trkseg>
  </trk>
</gpx>
